<?xml version="1.0" encoding="UTF-8" standalone="no" ?>
<gpx xmlns="http://www.topografix.com/GPX/1/1" xmlns:xsi="http://www.w3.org/2001/XMLSchema-instance" xsi:schemaLocation="http://www.topografix.com/GPX/1/1 http://www.topografix.com/GPX/1/1/gpx.xsd" version="1.1" creator="VisuGPX - https://www.visugpx.com">
  <metadata>
    <name>Vernois par la face nord</name>
    <desc><![CDATA[Vernois face nord]]></desc>
  </metadata>
  <wpt lat="47.50632" lon="6.76614">
    <ele>397</ele>
    <name><![CDATA[Point de cheminement 1]]></name>
    <desc><![CDATA[]]></desc>
  </wpt>
  <wpt lat="47.49325" lon="6.74949">
    <ele>352</ele>
    <name><![CDATA[Point de cheminement 2]]></name>
    <desc><![CDATA[]]></desc>
  </wpt>
  <wpt lat="47.5109" lon="6.73696">
    <ele>381</ele>
    <name><![CDATA[Point de cheminement 3]]></name>
    <desc><![CDATA[]]></desc>
  </wpt>
  <wpt lat="47.52735" lon="6.73086">
    <ele>353</ele>
    <name><![CDATA[Point de cheminement 4]]></name>
    <desc><![CDATA[]]></desc>
  </wpt>
  <wpt lat="47.55067" lon="6.73227">
    <ele>376</ele>
    <name><![CDATA[Point de cheminement 5]]></name>
    <desc><![CDATA[]]></desc>
  </wpt>
  <wpt lat="47.54771" lon="6.68985">
    <ele>374</ele>
    <name><![CDATA[Point de cheminement 6]]></name>
    <desc><![CDATA[]]></desc>
  </wpt>
  <wpt lat="47.55316" lon="6.67789">
    <ele>465</ele>
    <name><![CDATA[Point de cheminement 7]]></name>
    <desc><![CDATA[]]></desc>
  </wpt>
  <wpt lat="47.55721" lon="6.66972">
    <ele>502</ele>
    <name><![CDATA[Point de cheminement 8]]></name>
    <desc><![CDATA[]]></desc>
  </wpt>
  <wpt lat="47.52751" lon="6.65202">
    <ele>400</ele>
    <name><![CDATA[Point de cheminement 9]]></name>
    <desc><![CDATA[]]></desc>
  </wpt>
  <wpt lat="47.52153" lon="6.70293">
    <ele>355</ele>
    <name><![CDATA[Point de cheminement 10]]></name>
    <desc><![CDATA[]]></desc>
  </wpt>
  <wpt lat="47.51251" lon="6.71325">
    <ele>456</ele>
    <name><![CDATA[Point de cheminement 11]]></name>
    <desc><![CDATA[]]></desc>
  </wpt>
  <wpt lat="47.496" lon="6.75766">
    <ele>341</ele>
    <name><![CDATA[Point de cheminement 12]]></name>
    <desc><![CDATA[]]></desc>
  </wpt>
  <wpt lat="47.51163" lon="6.77072">
    <ele>377</ele>
    <name><![CDATA[Point de cheminement 13]]></name>
    <desc><![CDATA[]]></desc>
  </wpt>
  <trk>
    <name><![CDATA[Rue de la Seigneurie d'Héricourt]]></name>
    <desc><![CDATA[]]></desc>
    <trkseg>
      <trkpt lat="47.51811" lon="6.77479">
        <ele>388</ele>
        <time>2016-07-28T11:48:41.000Z</time>
      </trkpt>
      <trkpt lat="47.51808" lon="6.77485">
        <ele>388</ele>
        <time>2016-07-28T11:48:42.000Z</time>
      </trkpt>
      <trkpt lat="47.51807" lon="6.77491">
        <ele>388</ele>
        <time>2016-07-28T11:48:43.000Z</time>
      </trkpt>
      <trkpt lat="47.51806" lon="6.77492">
        <ele>388</ele>
        <time>2016-07-28T11:48:44.000Z</time>
      </trkpt>
      <trkpt lat="47.51804" lon="6.77489">
        <ele>388</ele>
        <time>2016-07-28T11:49:07.000Z</time>
      </trkpt>
      <trkpt lat="47.51805" lon="6.77486">
        <ele>388</ele>
        <time>2016-07-28T11:49:08.000Z</time>
      </trkpt>
      <trkpt lat="47.51803" lon="6.77481">
        <ele>388</ele>
        <time>2016-07-28T11:51:28.000Z</time>
      </trkpt>
      <trkpt lat="47.51802" lon="6.7748">
        <ele>388</ele>
        <time>2016-07-28T11:51:29.000Z</time>
      </trkpt>
      <trkpt lat="47.51805" lon="6.77482">
        <ele>388</ele>
        <time>2016-07-28T11:51:42.000Z</time>
      </trkpt>
      <trkpt lat="47.51806" lon="6.77483">
        <ele>388</ele>
        <time>2016-07-28T11:51:43.000Z</time>
      </trkpt>
      <trkpt lat="47.51809" lon="6.77488">
        <ele>388</ele>
        <time>2016-07-28T11:51:45.000Z</time>
      </trkpt>
      <trkpt lat="47.5181" lon="6.77491">
        <ele>388</ele>
        <time>2016-07-28T11:51:46.000Z</time>
      </trkpt>
      <trkpt lat="47.51807" lon="6.77496">
        <ele>388</ele>
        <time>2016-07-28T11:51:48.000Z</time>
      </trkpt>
      <trkpt lat="47.51804" lon="6.77497">
        <ele>388</ele>
        <time>2016-07-28T11:51:49.000Z</time>
      </trkpt>
      <trkpt lat="47.518" lon="6.77497">
        <ele>388</ele>
        <time>2016-07-28T11:51:50.000Z</time>
      </trkpt>
      <trkpt lat="47.51796" lon="6.77497">
        <ele>388</ele>
        <time>2016-07-28T11:51:51.000Z</time>
      </trkpt>
      <trkpt lat="47.51792" lon="6.77495">
        <ele>388</ele>
        <time>2016-07-28T11:51:52.000Z</time>
      </trkpt>
      <trkpt lat="47.51788" lon="6.77493">
        <ele>388</ele>
        <time>2016-07-28T11:51:53.000Z</time>
      </trkpt>
      <trkpt lat="47.51784" lon="6.77492">
        <ele>388</ele>
        <time>2016-07-28T11:51:54.000Z</time>
      </trkpt>
      <trkpt lat="47.51781" lon="6.7749">
        <ele>388</ele>
        <time>2016-07-28T11:51:55.000Z</time>
      </trkpt>
      <trkpt lat="47.51777" lon="6.77488">
        <ele>388</ele>
        <time>2016-07-28T11:51:56.000Z</time>
      </trkpt>
      <trkpt lat="47.51774" lon="6.77487">
        <ele>388</ele>
        <time>2016-07-28T11:51:57.000Z</time>
      </trkpt>
      <trkpt lat="47.5177" lon="6.77486">
        <ele>389</ele>
        <time>2016-07-28T11:51:58.000Z</time>
      </trkpt>
      <trkpt lat="47.51765" lon="6.77485">
        <ele>389</ele>
        <time>2016-07-28T11:51:59.000Z</time>
      </trkpt>
      <trkpt lat="47.51762" lon="6.77484">
        <ele>389</ele>
        <time>2016-07-28T11:52:00.000Z</time>
      </trkpt>
      <trkpt lat="47.51758" lon="6.77483">
        <ele>389</ele>
        <time>2016-07-28T11:52:01.000Z</time>
      </trkpt>
      <trkpt lat="47.51754" lon="6.77482">
        <ele>389</ele>
        <time>2016-07-28T11:52:02.000Z</time>
      </trkpt>
      <trkpt lat="47.5175" lon="6.77481">
        <ele>389</ele>
        <time>2016-07-28T11:52:03.000Z</time>
      </trkpt>
      <trkpt lat="47.51745" lon="6.7748">
        <ele>389</ele>
        <time>2016-07-28T11:52:04.000Z</time>
      </trkpt>
      <trkpt lat="47.51741" lon="6.7748">
        <ele>389</ele>
        <time>2016-07-28T11:52:05.000Z</time>
      </trkpt>
      <trkpt lat="47.51737" lon="6.77479">
        <ele>389</ele>
        <time>2016-07-28T11:52:06.000Z</time>
      </trkpt>
      <trkpt lat="47.51732" lon="6.7748">
        <ele>389</ele>
        <time>2016-07-28T11:52:07.000Z</time>
      </trkpt>
      <trkpt lat="47.51729" lon="6.77482">
        <ele>389</ele>
        <time>2016-07-28T11:52:08.000Z</time>
      </trkpt>
      <trkpt lat="47.51726" lon="6.77492">
        <ele>389</ele>
        <time>2016-07-28T11:52:09.000Z</time>
      </trkpt>
      <trkpt lat="47.51724" lon="6.77497">
        <ele>389</ele>
        <time>2016-07-28T11:52:10.000Z</time>
      </trkpt>
      <trkpt lat="47.51723" lon="6.77503">
        <ele>390</ele>
        <time>2016-07-28T11:52:11.000Z</time>
      </trkpt>
      <trkpt lat="47.51722" lon="6.7751">
        <ele>390</ele>
        <time>2016-07-28T11:52:12.000Z</time>
      </trkpt>
      <trkpt lat="47.51721" lon="6.77516">
        <ele>390</ele>
        <time>2016-07-28T11:52:13.000Z</time>
      </trkpt>
      <trkpt lat="47.51719" lon="6.77523">
        <ele>390</ele>
        <time>2016-07-28T11:52:14.000Z</time>
      </trkpt>
      <trkpt lat="47.51718" lon="6.77531">
        <ele>390</ele>
        <time>2016-07-28T11:52:15.000Z</time>
      </trkpt>
      <trkpt lat="47.51717" lon="6.77538">
        <ele>390</ele>
        <time>2016-07-28T11:52:16.000Z</time>
      </trkpt>
      <trkpt lat="47.51716" lon="6.77544">
        <ele>390</ele>
        <time>2016-07-28T11:52:17.000Z</time>
      </trkpt>
      <trkpt lat="47.51713" lon="6.7755">
        <ele>390</ele>
        <time>2016-07-28T11:52:18.000Z</time>
      </trkpt>
      <trkpt lat="47.51708" lon="6.77552">
        <ele>390</ele>
        <time>2016-07-28T11:52:19.000Z</time>
      </trkpt>
      <trkpt lat="47.51704" lon="6.7755">
        <ele>390</ele>
        <time>2016-07-28T11:52:20.000Z</time>
      </trkpt>
      <trkpt lat="47.51699" lon="6.77547">
        <ele>390</ele>
        <time>2016-07-28T11:52:21.000Z</time>
      </trkpt>
      <trkpt lat="47.51695" lon="6.77542">
        <ele>390</ele>
        <time>2016-07-28T11:52:22.000Z</time>
      </trkpt>
      <trkpt lat="47.51691" lon="6.77537">
        <ele>390</ele>
        <time>2016-07-28T11:52:23.000Z</time>
      </trkpt>
      <trkpt lat="47.51686" lon="6.77532">
        <ele>390</ele>
        <time>2016-07-28T11:52:24.000Z</time>
      </trkpt>
      <trkpt lat="47.51681" lon="6.77525">
        <ele>390</ele>
        <time>2016-07-28T11:52:25.000Z</time>
      </trkpt>
      <trkpt lat="47.51677" lon="6.77519">
        <ele>390</ele>
        <time>2016-07-28T11:52:26.000Z</time>
      </trkpt>
      <trkpt lat="47.51672" lon="6.77513">
        <ele>389</ele>
        <time>2016-07-28T11:52:27.000Z</time>
      </trkpt>
      <trkpt lat="47.51668" lon="6.77507">
        <ele>389</ele>
        <time>2016-07-28T11:52:28.000Z</time>
      </trkpt>
      <trkpt lat="47.51662" lon="6.77501">
        <ele>389</ele>
        <time>2016-07-28T11:52:29.000Z</time>
      </trkpt>
      <trkpt lat="47.51658" lon="6.77494">
        <ele>388</ele>
        <time>2016-07-28T11:52:30.000Z</time>
      </trkpt>
      <trkpt lat="47.51653" lon="6.77488">
        <ele>387</ele>
        <time>2016-07-28T11:52:31.000Z</time>
      </trkpt>
      <trkpt lat="47.51648" lon="6.77483">
        <ele>387</ele>
        <time>2016-07-28T11:52:32.000Z</time>
      </trkpt>
      <trkpt lat="47.51644" lon="6.77477">
        <ele>387</ele>
        <time>2016-07-28T11:52:33.000Z</time>
      </trkpt>
      <trkpt lat="47.51639" lon="6.77471">
        <ele>386</ele>
        <time>2016-07-28T11:52:34.000Z</time>
      </trkpt>
      <trkpt lat="47.51634" lon="6.77464">
        <ele>386</ele>
        <time>2016-07-28T11:52:35.000Z</time>
      </trkpt>
      <trkpt lat="47.51629" lon="6.77458">
        <ele>386</ele>
        <time>2016-07-28T11:52:36.000Z</time>
      </trkpt>
      <trkpt lat="47.51624" lon="6.77452">
        <ele>386</ele>
        <time>2016-07-28T11:52:37.000Z</time>
      </trkpt>
      <trkpt lat="47.51618" lon="6.77445">
        <ele>385</ele>
        <time>2016-07-28T11:52:38.000Z</time>
      </trkpt>
      <trkpt lat="47.51613" lon="6.77438">
        <ele>385</ele>
        <time>2016-07-28T11:52:39.000Z</time>
      </trkpt>
      <trkpt lat="47.51608" lon="6.77432">
        <ele>385</ele>
        <time>2016-07-28T11:52:40.000Z</time>
      </trkpt>
      <trkpt lat="47.51602" lon="6.77426">
        <ele>385</ele>
        <time>2016-07-28T11:52:41.000Z</time>
      </trkpt>
      <trkpt lat="47.51597" lon="6.7742">
        <ele>384</ele>
        <time>2016-07-28T11:52:42.000Z</time>
      </trkpt>
      <trkpt lat="47.51591" lon="6.77413">
        <ele>383</ele>
        <time>2016-07-28T11:52:43.000Z</time>
      </trkpt>
      <trkpt lat="47.51586" lon="6.77407">
        <ele>383</ele>
        <time>2016-07-28T11:52:44.000Z</time>
      </trkpt>
      <trkpt lat="47.5158" lon="6.774">
        <ele>382</ele>
        <time>2016-07-28T11:52:45.000Z</time>
      </trkpt>
      <trkpt lat="47.51574" lon="6.77393">
        <ele>381</ele>
        <time>2016-07-28T11:52:46.000Z</time>
      </trkpt>
      <trkpt lat="47.51568" lon="6.77386">
        <ele>381</ele>
        <time>2016-07-28T11:52:47.000Z</time>
      </trkpt>
      <trkpt lat="47.51562" lon="6.7738">
        <ele>381</ele>
        <time>2016-07-28T11:52:48.000Z</time>
      </trkpt>
      <trkpt lat="47.51556" lon="6.77373">
        <ele>381</ele>
        <time>2016-07-28T11:52:49.000Z</time>
      </trkpt>
      <trkpt lat="47.5155" lon="6.77365">
        <ele>381</ele>
        <time>2016-07-28T11:52:50.000Z</time>
      </trkpt>
      <trkpt lat="47.51543" lon="6.77358">
        <ele>380</ele>
        <time>2016-07-28T11:52:51.000Z</time>
      </trkpt>
      <trkpt lat="47.51536" lon="6.77351">
        <ele>380</ele>
        <time>2016-07-28T11:52:52.000Z</time>
      </trkpt>
      <trkpt lat="47.5153" lon="6.77344">
        <ele>380</ele>
        <time>2016-07-28T11:52:53.000Z</time>
      </trkpt>
      <trkpt lat="47.51523" lon="6.77337">
        <ele>380</ele>
        <time>2016-07-28T11:52:54.000Z</time>
      </trkpt>
      <trkpt lat="47.51518" lon="6.77329">
        <ele>378</ele>
        <time>2016-07-28T11:52:55.000Z</time>
      </trkpt>
      <trkpt lat="47.51512" lon="6.77322">
        <ele>378</ele>
        <time>2016-07-28T11:52:56.000Z</time>
      </trkpt>
      <trkpt lat="47.51506" lon="6.77317">
        <ele>378</ele>
        <time>2016-07-28T11:52:57.000Z</time>
      </trkpt>
      <trkpt lat="47.51502" lon="6.77311">
        <ele>378</ele>
        <time>2016-07-28T11:52:58.000Z</time>
      </trkpt>
      <trkpt lat="47.51498" lon="6.77306">
        <ele>377</ele>
        <time>2016-07-28T11:52:59.000Z</time>
      </trkpt>
      <trkpt lat="47.51495" lon="6.773">
        <ele>377</ele>
        <time>2016-07-28T11:53:00.000Z</time>
      </trkpt>
      <trkpt lat="47.51492" lon="6.77293">
        <ele>377</ele>
        <time>2016-07-28T11:53:01.000Z</time>
      </trkpt>
      <trkpt lat="47.51489" lon="6.77287">
        <ele>377</ele>
        <time>2016-07-28T11:53:02.000Z</time>
      </trkpt>
      <trkpt lat="47.51488" lon="6.77279">
        <ele>377</ele>
        <time>2016-07-28T11:53:03.000Z</time>
      </trkpt>
      <trkpt lat="47.51487" lon="6.7727">
        <ele>377</ele>
        <time>2016-07-28T11:53:04.000Z</time>
      </trkpt>
      <trkpt lat="47.51486" lon="6.77261">
        <ele>376</ele>
        <time>2016-07-28T11:53:05.000Z</time>
      </trkpt>
      <trkpt lat="47.51486" lon="6.77252">
        <ele>376</ele>
        <time>2016-07-28T11:53:06.000Z</time>
      </trkpt>
      <trkpt lat="47.51485" lon="6.77242">
        <ele>376</ele>
        <time>2016-07-28T11:53:07.000Z</time>
      </trkpt>
      <trkpt lat="47.51484" lon="6.77234">
        <ele>375</ele>
        <time>2016-07-28T11:53:08.000Z</time>
      </trkpt>
      <trkpt lat="47.51484" lon="6.77224">
        <ele>375</ele>
        <time>2016-07-28T11:53:09.000Z</time>
      </trkpt>
      <trkpt lat="47.51484" lon="6.77215">
        <ele>375</ele>
        <time>2016-07-28T11:53:10.000Z</time>
      </trkpt>
      <trkpt lat="47.51483" lon="6.7721">
        <ele>375</ele>
        <time>2016-07-28T11:53:11.000Z</time>
      </trkpt>
      <trkpt lat="47.51483" lon="6.77206">
        <ele>375</ele>
        <time>2016-07-28T11:53:12.000Z</time>
      </trkpt>
      <trkpt lat="47.51482" lon="6.77201">
        <ele>375</ele>
        <time>2016-07-28T11:53:13.000Z</time>
      </trkpt>
      <trkpt lat="47.51479" lon="6.77197">
        <ele>375</ele>
        <time>2016-07-28T11:53:14.000Z</time>
      </trkpt>
      <trkpt lat="47.51476" lon="6.77194">
        <ele>375</ele>
        <time>2016-07-28T11:53:15.000Z</time>
      </trkpt>
      <trkpt lat="47.51471" lon="6.77197">
        <ele>375</ele>
        <time>2016-07-28T11:53:16.000Z</time>
      </trkpt>
      <trkpt lat="47.51465" lon="6.77199">
        <ele>375</ele>
        <time>2016-07-28T11:53:17.000Z</time>
      </trkpt>
      <trkpt lat="47.51459" lon="6.77201">
        <ele>375</ele>
        <time>2016-07-28T11:53:18.000Z</time>
      </trkpt>
      <trkpt lat="47.51451" lon="6.77205">
        <ele>375</ele>
        <time>2016-07-28T11:53:19.000Z</time>
      </trkpt>
      <trkpt lat="47.51445" lon="6.77208">
        <ele>375</ele>
        <time>2016-07-28T11:53:20.000Z</time>
      </trkpt>
      <trkpt lat="47.51438" lon="6.77212">
        <ele>375</ele>
        <time>2016-07-28T11:53:21.000Z</time>
      </trkpt>
      <trkpt lat="47.5143" lon="6.77216">
        <ele>375</ele>
        <time>2016-07-28T11:53:22.000Z</time>
      </trkpt>
      <trkpt lat="47.51422" lon="6.77219">
        <ele>375</ele>
        <time>2016-07-28T11:53:23.000Z</time>
      </trkpt>
      <trkpt lat="47.51416" lon="6.77221">
        <ele>376</ele>
        <time>2016-07-28T11:53:24.000Z</time>
      </trkpt>
      <trkpt lat="47.5141" lon="6.77225">
        <ele>376</ele>
        <time>2016-07-28T11:53:25.000Z</time>
      </trkpt>
      <trkpt lat="47.51404" lon="6.77228">
        <ele>376</ele>
        <time>2016-07-28T11:53:26.000Z</time>
      </trkpt>
      <trkpt lat="47.51398" lon="6.77233">
        <ele>376</ele>
        <time>2016-07-28T11:53:27.000Z</time>
      </trkpt>
      <trkpt lat="47.51393" lon="6.77236">
        <ele>376</ele>
        <time>2016-07-28T11:53:28.000Z</time>
      </trkpt>
      <trkpt lat="47.51387" lon="6.77239">
        <ele>376</ele>
        <time>2016-07-28T11:53:29.000Z</time>
      </trkpt>
      <trkpt lat="47.51383" lon="6.77242">
        <ele>376</ele>
        <time>2016-07-28T11:53:30.000Z</time>
      </trkpt>
      <trkpt lat="47.51377" lon="6.77246">
        <ele>376</ele>
        <time>2016-07-28T11:53:31.000Z</time>
      </trkpt>
      <trkpt lat="47.51373" lon="6.77249">
        <ele>376</ele>
        <time>2016-07-28T11:53:32.000Z</time>
      </trkpt>
      <trkpt lat="47.51369" lon="6.77251">
        <ele>377</ele>
        <time>2016-07-28T11:53:33.000Z</time>
      </trkpt>
      <trkpt lat="47.51364" lon="6.77255">
        <ele>378</ele>
        <time>2016-07-28T11:53:34.000Z</time>
      </trkpt>
      <trkpt lat="47.5136" lon="6.77258">
        <ele>378</ele>
        <time>2016-07-28T11:53:35.000Z</time>
      </trkpt>
      <trkpt lat="47.51357" lon="6.77261">
        <ele>378</ele>
        <time>2016-07-28T11:53:36.000Z</time>
      </trkpt>
      <trkpt lat="47.51354" lon="6.77265">
        <ele>378</ele>
        <time>2016-07-28T11:53:37.000Z</time>
      </trkpt>
      <trkpt lat="47.5135" lon="6.77268">
        <ele>378</ele>
        <time>2016-07-28T11:53:38.000Z</time>
      </trkpt>
      <trkpt lat="47.51347" lon="6.77271">
        <ele>378</ele>
        <time>2016-07-28T11:53:39.000Z</time>
      </trkpt>
      <trkpt lat="47.51345" lon="6.77274">
        <ele>378</ele>
        <time>2016-07-28T11:53:40.000Z</time>
      </trkpt>
      <trkpt lat="47.51342" lon="6.77277">
        <ele>378</ele>
        <time>2016-07-28T11:53:41.000Z</time>
      </trkpt>
      <trkpt lat="47.51339" lon="6.77279">
        <ele>378</ele>
        <time>2016-07-28T11:53:42.000Z</time>
      </trkpt>
      <trkpt lat="47.51335" lon="6.77281">
        <ele>378</ele>
        <time>2016-07-28T11:53:43.000Z</time>
      </trkpt>
      <trkpt lat="47.51332" lon="6.77282">
        <ele>378</ele>
        <time>2016-07-28T11:53:44.000Z</time>
      </trkpt>
      <trkpt lat="47.51328" lon="6.77283">
        <ele>378</ele>
        <time>2016-07-28T11:53:45.000Z</time>
      </trkpt>
      <trkpt lat="47.51325" lon="6.77283">
        <ele>377</ele>
        <time>2016-07-28T11:53:46.000Z</time>
      </trkpt>
      <trkpt lat="47.51321" lon="6.77283">
        <ele>377</ele>
        <time>2016-07-28T11:53:47.000Z</time>
      </trkpt>
      <trkpt lat="47.51318" lon="6.77283">
        <ele>377</ele>
        <time>2016-07-28T11:53:48.000Z</time>
      </trkpt>
      <trkpt lat="47.51314" lon="6.77282">
        <ele>377</ele>
        <time>2016-07-28T11:53:49.000Z</time>
      </trkpt>
      <trkpt lat="47.51311" lon="6.77281">
        <ele>377</ele>
        <time>2016-07-28T11:53:50.000Z</time>
      </trkpt>
      <trkpt lat="47.51307" lon="6.7728">
        <ele>377</ele>
        <time>2016-07-28T11:53:51.000Z</time>
      </trkpt>
      <trkpt lat="47.51304" lon="6.77278">
        <ele>377</ele>
        <time>2016-07-28T11:53:52.000Z</time>
      </trkpt>
      <trkpt lat="47.513" lon="6.77276">
        <ele>377</ele>
        <time>2016-07-28T11:53:53.000Z</time>
      </trkpt>
      <trkpt lat="47.51297" lon="6.77274">
        <ele>377</ele>
        <time>2016-07-28T11:53:54.000Z</time>
      </trkpt>
      <trkpt lat="47.51293" lon="6.77271">
        <ele>377</ele>
        <time>2016-07-28T11:53:55.000Z</time>
      </trkpt>
      <trkpt lat="47.51289" lon="6.77269">
        <ele>377</ele>
        <time>2016-07-28T11:53:56.000Z</time>
      </trkpt>
      <trkpt lat="47.51285" lon="6.77267">
        <ele>377</ele>
        <time>2016-07-28T11:53:57.000Z</time>
      </trkpt>
      <trkpt lat="47.51281" lon="6.77264">
        <ele>377</ele>
        <time>2016-07-28T11:53:58.000Z</time>
      </trkpt>
      <trkpt lat="47.51277" lon="6.77262">
        <ele>377</ele>
        <time>2016-07-28T11:53:59.000Z</time>
      </trkpt>
      <trkpt lat="47.51273" lon="6.7726">
        <ele>377</ele>
        <time>2016-07-28T11:54:00.000Z</time>
      </trkpt>
      <trkpt lat="47.51269" lon="6.77258">
        <ele>378</ele>
        <time>2016-07-28T11:54:01.000Z</time>
      </trkpt>
      <trkpt lat="47.51265" lon="6.77255">
        <ele>378</ele>
        <time>2016-07-28T11:54:02.000Z</time>
      </trkpt>
      <trkpt lat="47.51261" lon="6.77252">
        <ele>378</ele>
        <time>2016-07-28T11:54:03.000Z</time>
      </trkpt>
      <trkpt lat="47.51258" lon="6.77244">
        <ele>379</ele>
        <time>2016-07-28T11:54:04.000Z</time>
      </trkpt>
      <trkpt lat="47.51255" lon="6.7724">
        <ele>379</ele>
        <time>2016-07-28T11:54:05.000Z</time>
      </trkpt>
      <trkpt lat="47.51251" lon="6.77235">
        <ele>378</ele>
        <time>2016-07-28T11:54:06.000Z</time>
      </trkpt>
      <trkpt lat="47.51248" lon="6.77229">
        <ele>377</ele>
        <time>2016-07-28T11:54:07.000Z</time>
      </trkpt>
      <trkpt lat="47.51245" lon="6.77224">
        <ele>376</ele>
        <time>2016-07-28T11:54:08.000Z</time>
      </trkpt>
      <trkpt lat="47.51242" lon="6.77217">
        <ele>376</ele>
        <time>2016-07-28T11:54:09.000Z</time>
      </trkpt>
      <trkpt lat="47.51238" lon="6.77211">
        <ele>376</ele>
        <time>2016-07-28T11:54:10.000Z</time>
      </trkpt>
      <trkpt lat="47.51235" lon="6.77204">
        <ele>376</ele>
        <time>2016-07-28T11:54:11.000Z</time>
      </trkpt>
      <trkpt lat="47.51232" lon="6.77197">
        <ele>376</ele>
        <time>2016-07-28T11:54:12.000Z</time>
      </trkpt>
      <trkpt lat="47.51229" lon="6.77191">
        <ele>376</ele>
        <time>2016-07-28T11:54:13.000Z</time>
      </trkpt>
      <trkpt lat="47.51226" lon="6.77184">
        <ele>376</ele>
        <time>2016-07-28T11:54:14.000Z</time>
      </trkpt>
      <trkpt lat="47.51222" lon="6.77177">
        <ele>376</ele>
        <time>2016-07-28T11:54:15.000Z</time>
      </trkpt>
      <trkpt lat="47.51219" lon="6.77171">
        <ele>376</ele>
        <time>2016-07-28T11:54:16.000Z</time>
      </trkpt>
      <trkpt lat="47.51215" lon="6.77164">
        <ele>378</ele>
        <time>2016-07-28T11:54:17.000Z</time>
      </trkpt>
      <trkpt lat="47.51211" lon="6.77157">
        <ele>378</ele>
        <time>2016-07-28T11:54:18.000Z</time>
      </trkpt>
      <trkpt lat="47.51207" lon="6.77149">
        <ele>378</ele>
        <time>2016-07-28T11:54:19.000Z</time>
      </trkpt>
      <trkpt lat="47.51204" lon="6.77142">
        <ele>378</ele>
        <time>2016-07-28T11:54:20.000Z</time>
      </trkpt>
      <trkpt lat="47.512" lon="6.77134">
        <ele>378</ele>
        <time>2016-07-28T11:54:21.000Z</time>
      </trkpt>
      <trkpt lat="47.51195" lon="6.77126">
        <ele>378</ele>
        <time>2016-07-28T11:54:22.000Z</time>
      </trkpt>
      <trkpt lat="47.51191" lon="6.77117">
        <ele>378</ele>
        <time>2016-07-28T11:54:23.000Z</time>
      </trkpt>
      <trkpt lat="47.51186" lon="6.77109">
        <ele>378</ele>
        <time>2016-07-28T11:54:24.000Z</time>
      </trkpt>
      <trkpt lat="47.51182" lon="6.771">
        <ele>378</ele>
        <time>2016-07-28T11:54:25.000Z</time>
      </trkpt>
      <trkpt lat="47.51177" lon="6.77092">
        <ele>378</ele>
        <time>2016-07-28T11:54:26.000Z</time>
      </trkpt>
      <trkpt lat="47.51172" lon="6.77083">
        <ele>377</ele>
        <time>2016-07-28T11:54:27.000Z</time>
      </trkpt>
      <trkpt lat="47.51167" lon="6.77076">
        <ele>377</ele>
        <time>2016-07-28T11:54:28.000Z</time>
      </trkpt>
      <trkpt lat="47.51162" lon="6.77068">
        <ele>377</ele>
        <time>2016-07-28T11:54:29.000Z</time>
      </trkpt>
      <trkpt lat="47.51156" lon="6.77062">
        <ele>376</ele>
        <time>2016-07-28T11:54:30.000Z</time>
      </trkpt>
      <trkpt lat="47.5115" lon="6.77055">
        <ele>376</ele>
        <time>2016-07-28T11:54:31.000Z</time>
      </trkpt>
      <trkpt lat="47.51144" lon="6.77049">
        <ele>376</ele>
        <time>2016-07-28T11:54:32.000Z</time>
      </trkpt>
      <trkpt lat="47.51137" lon="6.77044">
        <ele>375</ele>
        <time>2016-07-28T11:54:33.000Z</time>
      </trkpt>
      <trkpt lat="47.51131" lon="6.77038">
        <ele>375</ele>
        <time>2016-07-28T11:54:34.000Z</time>
      </trkpt>
      <trkpt lat="47.51125" lon="6.77033">
        <ele>375</ele>
        <time>2016-07-28T11:54:35.000Z</time>
      </trkpt>
      <trkpt lat="47.51119" lon="6.77027">
        <ele>375</ele>
        <time>2016-07-28T11:54:36.000Z</time>
      </trkpt>
      <trkpt lat="47.51113" lon="6.77022">
        <ele>375</ele>
        <time>2016-07-28T11:54:37.000Z</time>
      </trkpt>
      <trkpt lat="47.51107" lon="6.77017">
        <ele>375</ele>
        <time>2016-07-28T11:54:38.000Z</time>
      </trkpt>
      <trkpt lat="47.51101" lon="6.77012">
        <ele>375</ele>
        <time>2016-07-28T11:54:39.000Z</time>
      </trkpt>
      <trkpt lat="47.51096" lon="6.77006">
        <ele>375</ele>
        <time>2016-07-28T11:54:40.000Z</time>
      </trkpt>
      <trkpt lat="47.5109" lon="6.77001">
        <ele>375</ele>
        <time>2016-07-28T11:54:41.000Z</time>
      </trkpt>
      <trkpt lat="47.51084" lon="6.76996">
        <ele>375</ele>
        <time>2016-07-28T11:54:42.000Z</time>
      </trkpt>
      <trkpt lat="47.51078" lon="6.7699">
        <ele>375</ele>
        <time>2016-07-28T11:54:43.000Z</time>
      </trkpt>
      <trkpt lat="47.51072" lon="6.76986">
        <ele>375</ele>
        <time>2016-07-28T11:54:44.000Z</time>
      </trkpt>
      <trkpt lat="47.51067" lon="6.76981">
        <ele>375</ele>
        <time>2016-07-28T11:54:45.000Z</time>
      </trkpt>
      <trkpt lat="47.51061" lon="6.76976">
        <ele>375</ele>
        <time>2016-07-28T11:54:46.000Z</time>
      </trkpt>
      <trkpt lat="47.51056" lon="6.76971">
        <ele>375</ele>
        <time>2016-07-28T11:54:47.000Z</time>
      </trkpt>
      <trkpt lat="47.5105" lon="6.76966">
        <ele>375</ele>
        <time>2016-07-28T11:54:48.000Z</time>
      </trkpt>
      <trkpt lat="47.51044" lon="6.76961">
        <ele>375</ele>
        <time>2016-07-28T11:54:49.000Z</time>
      </trkpt>
      <trkpt lat="47.51039" lon="6.76956">
        <ele>375</ele>
        <time>2016-07-28T11:54:50.000Z</time>
      </trkpt>
      <trkpt lat="47.51033" lon="6.76951">
        <ele>375</ele>
        <time>2016-07-28T11:54:51.000Z</time>
      </trkpt>
      <trkpt lat="47.51029" lon="6.76945">
        <ele>375</ele>
        <time>2016-07-28T11:54:52.000Z</time>
      </trkpt>
      <trkpt lat="47.51026" lon="6.76938">
        <ele>375</ele>
        <time>2016-07-28T11:54:53.000Z</time>
      </trkpt>
      <trkpt lat="47.51021" lon="6.76933">
        <ele>375</ele>
        <time>2016-07-28T11:54:54.000Z</time>
      </trkpt>
      <trkpt lat="47.51016" lon="6.76929">
        <ele>375</ele>
        <time>2016-07-28T11:54:55.000Z</time>
      </trkpt>
      <trkpt lat="47.51011" lon="6.76928">
        <ele>375</ele>
        <time>2016-07-28T11:54:56.000Z</time>
      </trkpt>
      <trkpt lat="47.51006" lon="6.76924">
        <ele>376</ele>
        <time>2016-07-28T11:54:57.000Z</time>
      </trkpt>
      <trkpt lat="47.51002" lon="6.76921">
        <ele>376</ele>
        <time>2016-07-28T11:54:58.000Z</time>
      </trkpt>
      <trkpt lat="47.50998" lon="6.76914">
        <ele>376</ele>
        <time>2016-07-28T11:54:59.000Z</time>
      </trkpt>
      <trkpt lat="47.50997" lon="6.76908">
        <ele>376</ele>
        <time>2016-07-28T11:55:00.000Z</time>
      </trkpt>
      <trkpt lat="47.50994" lon="6.76902">
        <ele>377</ele>
        <time>2016-07-28T11:55:01.000Z</time>
      </trkpt>
      <trkpt lat="47.50989" lon="6.76898">
        <ele>377</ele>
        <time>2016-07-28T11:55:02.000Z</time>
      </trkpt>
      <trkpt lat="47.50983" lon="6.76897">
        <ele>377</ele>
        <time>2016-07-28T11:55:03.001Z</time>
      </trkpt>
      <trkpt lat="47.50979" lon="6.76895">
        <ele>377</ele>
        <time>2016-07-28T11:55:04.000Z</time>
      </trkpt>
      <trkpt lat="47.50974" lon="6.76896">
        <ele>377</ele>
        <time>2016-07-28T11:55:05.000Z</time>
      </trkpt>
      <trkpt lat="47.50968" lon="6.76895">
        <ele>377</ele>
        <time>2016-07-28T11:55:06.000Z</time>
      </trkpt>
      <trkpt lat="47.50964" lon="6.76895">
        <ele>377</ele>
        <time>2016-07-28T11:55:07.000Z</time>
      </trkpt>
      <trkpt lat="47.50959" lon="6.76891">
        <ele>377</ele>
        <time>2016-07-28T11:55:08.000Z</time>
      </trkpt>
      <trkpt lat="47.50955" lon="6.76888">
        <ele>377</ele>
        <time>2016-07-28T11:55:09.000Z</time>
      </trkpt>
      <trkpt lat="47.50951" lon="6.76884">
        <ele>378</ele>
        <time>2016-07-28T11:55:10.000Z</time>
      </trkpt>
      <trkpt lat="47.50947" lon="6.7688">
        <ele>378</ele>
        <time>2016-07-28T11:55:11.000Z</time>
      </trkpt>
      <trkpt lat="47.50943" lon="6.76876">
        <ele>378</ele>
        <time>2016-07-28T11:55:12.000Z</time>
      </trkpt>
      <trkpt lat="47.50939" lon="6.76872">
        <ele>378</ele>
        <time>2016-07-28T11:55:13.000Z</time>
      </trkpt>
      <trkpt lat="47.50936" lon="6.76868">
        <ele>378</ele>
        <time>2016-07-28T11:55:14.000Z</time>
      </trkpt>
      <trkpt lat="47.50932" lon="6.76863">
        <ele>378</ele>
        <time>2016-07-28T11:55:15.000Z</time>
      </trkpt>
      <trkpt lat="47.50929" lon="6.76859">
        <ele>378</ele>
        <time>2016-07-28T11:55:16.000Z</time>
      </trkpt>
      <trkpt lat="47.50926" lon="6.76854">
        <ele>379</ele>
        <time>2016-07-28T11:55:17.000Z</time>
      </trkpt>
      <trkpt lat="47.50923" lon="6.76849">
        <ele>379</ele>
        <time>2016-07-28T11:55:18.000Z</time>
      </trkpt>
      <trkpt lat="47.5092" lon="6.76844">
        <ele>379</ele>
        <time>2016-07-28T11:55:19.000Z</time>
      </trkpt>
      <trkpt lat="47.50918" lon="6.76838">
        <ele>380</ele>
        <time>2016-07-28T11:55:20.000Z</time>
      </trkpt>
      <trkpt lat="47.50915" lon="6.76833">
        <ele>380</ele>
        <time>2016-07-28T11:55:21.000Z</time>
      </trkpt>
      <trkpt lat="47.50913" lon="6.76827">
        <ele>380</ele>
        <time>2016-07-28T11:55:22.000Z</time>
      </trkpt>
      <trkpt lat="47.5091" lon="6.76822">
        <ele>381</ele>
        <time>2016-07-28T11:55:23.000Z</time>
      </trkpt>
      <trkpt lat="47.50908" lon="6.76817">
        <ele>381</ele>
        <time>2016-07-28T11:55:24.000Z</time>
      </trkpt>
      <trkpt lat="47.50906" lon="6.76811">
        <ele>381</ele>
        <time>2016-07-28T11:55:25.000Z</time>
      </trkpt>
      <trkpt lat="47.50904" lon="6.76806">
        <ele>381</ele>
        <time>2016-07-28T11:55:26.000Z</time>
      </trkpt>
      <trkpt lat="47.50901" lon="6.76801">
        <ele>381</ele>
        <time>2016-07-28T11:55:27.000Z</time>
      </trkpt>
      <trkpt lat="47.50899" lon="6.76796">
        <ele>381</ele>
        <time>2016-07-28T11:55:28.000Z</time>
      </trkpt>
      <trkpt lat="47.50897" lon="6.76791">
        <ele>381</ele>
        <time>2016-07-28T11:55:29.000Z</time>
      </trkpt>
      <trkpt lat="47.50895" lon="6.76786">
        <ele>381</ele>
        <time>2016-07-28T11:55:30.000Z</time>
      </trkpt>
      <trkpt lat="47.50892" lon="6.76781">
        <ele>381</ele>
        <time>2016-07-28T11:55:31.000Z</time>
      </trkpt>
      <trkpt lat="47.5089" lon="6.76775">
        <ele>381</ele>
        <time>2016-07-28T11:55:32.000Z</time>
      </trkpt>
      <trkpt lat="47.50888" lon="6.7677">
        <ele>381</ele>
        <time>2016-07-28T11:55:33.000Z</time>
      </trkpt>
      <trkpt lat="47.50886" lon="6.76765">
        <ele>381</ele>
        <time>2016-07-28T11:55:34.000Z</time>
      </trkpt>
      <trkpt lat="47.50884" lon="6.7676">
        <ele>381</ele>
        <time>2016-07-28T11:55:35.000Z</time>
      </trkpt>
      <trkpt lat="47.50883" lon="6.76755">
        <ele>381</ele>
        <time>2016-07-28T11:55:36.000Z</time>
      </trkpt>
      <trkpt lat="47.50882" lon="6.7675">
        <ele>382</ele>
        <time>2016-07-28T11:55:37.000Z</time>
      </trkpt>
      <trkpt lat="47.5088" lon="6.76745">
        <ele>382</ele>
        <time>2016-07-28T11:55:38.000Z</time>
      </trkpt>
      <trkpt lat="47.50878" lon="6.76739">
        <ele>383</ele>
        <time>2016-07-28T11:55:39.000Z</time>
      </trkpt>
      <trkpt lat="47.50876" lon="6.76734">
        <ele>383</ele>
        <time>2016-07-28T11:55:40.000Z</time>
      </trkpt>
      <trkpt lat="47.50875" lon="6.76729">
        <ele>383</ele>
        <time>2016-07-28T11:55:41.000Z</time>
      </trkpt>
      <trkpt lat="47.50873" lon="6.76723">
        <ele>383</ele>
        <time>2016-07-28T11:55:42.000Z</time>
      </trkpt>
      <trkpt lat="47.50872" lon="6.76718">
        <ele>383</ele>
        <time>2016-07-28T11:55:43.000Z</time>
      </trkpt>
      <trkpt lat="47.5087" lon="6.76712">
        <ele>383</ele>
        <time>2016-07-28T11:55:44.000Z</time>
      </trkpt>
      <trkpt lat="47.50868" lon="6.76707">
        <ele>384</ele>
        <time>2016-07-28T11:55:45.000Z</time>
      </trkpt>
      <trkpt lat="47.50867" lon="6.76702">
        <ele>384</ele>
        <time>2016-07-28T11:55:46.000Z</time>
      </trkpt>
      <trkpt lat="47.50865" lon="6.76697">
        <ele>384</ele>
        <time>2016-07-28T11:55:47.000Z</time>
      </trkpt>
      <trkpt lat="47.50863" lon="6.76693">
        <ele>384</ele>
        <time>2016-07-28T11:55:48.002Z</time>
      </trkpt>
      <trkpt lat="47.50861" lon="6.76689">
        <ele>384</ele>
        <time>2016-07-28T11:55:49.000Z</time>
      </trkpt>
      <trkpt lat="47.50859" lon="6.76685">
        <ele>385</ele>
        <time>2016-07-28T11:55:50.000Z</time>
      </trkpt>
      <trkpt lat="47.50858" lon="6.7668">
        <ele>385</ele>
        <time>2016-07-28T11:55:51.000Z</time>
      </trkpt>
      <trkpt lat="47.50856" lon="6.76676">
        <ele>385</ele>
        <time>2016-07-28T11:55:52.000Z</time>
      </trkpt>
      <trkpt lat="47.50854" lon="6.76672">
        <ele>386</ele>
        <time>2016-07-28T11:55:53.000Z</time>
      </trkpt>
      <trkpt lat="47.50852" lon="6.76667">
        <ele>386</ele>
        <time>2016-07-28T11:55:54.000Z</time>
      </trkpt>
      <trkpt lat="47.5085" lon="6.76662">
        <ele>387</ele>
        <time>2016-07-28T11:55:55.000Z</time>
      </trkpt>
      <trkpt lat="47.50849" lon="6.76658">
        <ele>387</ele>
        <time>2016-07-28T11:55:56.000Z</time>
      </trkpt>
      <trkpt lat="47.50847" lon="6.76654">
        <ele>387</ele>
        <time>2016-07-28T11:55:57.000Z</time>
      </trkpt>
      <trkpt lat="47.50845" lon="6.76649">
        <ele>387</ele>
        <time>2016-07-28T11:55:58.000Z</time>
      </trkpt>
      <trkpt lat="47.50843" lon="6.76645">
        <ele>387</ele>
        <time>2016-07-28T11:55:59.000Z</time>
      </trkpt>
      <trkpt lat="47.50841" lon="6.76641">
        <ele>387</ele>
        <time>2016-07-28T11:56:00.000Z</time>
      </trkpt>
      <trkpt lat="47.50839" lon="6.76637">
        <ele>387</ele>
        <time>2016-07-28T11:56:01.000Z</time>
      </trkpt>
      <trkpt lat="47.50837" lon="6.76633">
        <ele>387</ele>
        <time>2016-07-28T11:56:02.000Z</time>
      </trkpt>
      <trkpt lat="47.50835" lon="6.76628">
        <ele>387</ele>
        <time>2016-07-28T11:56:03.000Z</time>
      </trkpt>
      <trkpt lat="47.50834" lon="6.76624">
        <ele>387</ele>
        <time>2016-07-28T11:56:04.000Z</time>
      </trkpt>
      <trkpt lat="47.50832" lon="6.7662">
        <ele>390</ele>
        <time>2016-07-28T11:56:05.000Z</time>
      </trkpt>
      <trkpt lat="47.5083" lon="6.76616">
        <ele>390</ele>
        <time>2016-07-28T11:56:06.000Z</time>
      </trkpt>
      <trkpt lat="47.50828" lon="6.76612">
        <ele>390</ele>
        <time>2016-07-28T11:56:07.000Z</time>
      </trkpt>
      <trkpt lat="47.50827" lon="6.76608">
        <ele>390</ele>
        <time>2016-07-28T11:56:08.000Z</time>
      </trkpt>
      <trkpt lat="47.50826" lon="6.76604">
        <ele>390</ele>
        <time>2016-07-28T11:56:09.000Z</time>
      </trkpt>
      <trkpt lat="47.50824" lon="6.766">
        <ele>390</ele>
        <time>2016-07-28T11:56:10.000Z</time>
      </trkpt>
      <trkpt lat="47.50823" lon="6.76596">
        <ele>390</ele>
        <time>2016-07-28T11:56:11.000Z</time>
      </trkpt>
      <trkpt lat="47.5082" lon="6.76592">
        <ele>390</ele>
        <time>2016-07-28T11:56:13.000Z</time>
      </trkpt>
      <trkpt lat="47.50817" lon="6.76593">
        <ele>390</ele>
        <time>2016-07-28T11:56:14.000Z</time>
      </trkpt>
      <trkpt lat="47.50815" lon="6.76595">
        <ele>390</ele>
        <time>2016-07-28T11:56:15.000Z</time>
      </trkpt>
      <trkpt lat="47.50812" lon="6.76596">
        <ele>390</ele>
        <time>2016-07-28T11:56:16.000Z</time>
      </trkpt>
      <trkpt lat="47.5081" lon="6.76595">
        <ele>390</ele>
        <time>2016-07-28T11:56:17.000Z</time>
      </trkpt>
      <trkpt lat="47.50808" lon="6.76592">
        <ele>390</ele>
        <time>2016-07-28T11:56:18.000Z</time>
      </trkpt>
      <trkpt lat="47.50806" lon="6.76588">
        <ele>390</ele>
        <time>2016-07-28T11:56:19.000Z</time>
      </trkpt>
      <trkpt lat="47.50804" lon="6.76586">
        <ele>391</ele>
        <time>2016-07-28T11:56:20.000Z</time>
      </trkpt>
      <trkpt lat="47.50802" lon="6.76585">
        <ele>391</ele>
        <time>2016-07-28T11:56:21.000Z</time>
      </trkpt>
      <trkpt lat="47.50799" lon="6.76586">
        <ele>391</ele>
        <time>2016-07-28T11:56:22.000Z</time>
      </trkpt>
      <trkpt lat="47.50796" lon="6.76586">
        <ele>391</ele>
        <time>2016-07-28T11:56:23.000Z</time>
      </trkpt>
      <trkpt lat="47.50794" lon="6.76588">
        <ele>391</ele>
        <time>2016-07-28T11:56:24.000Z</time>
      </trkpt>
      <trkpt lat="47.5079" lon="6.7659">
        <ele>391</ele>
        <time>2016-07-28T11:56:27.000Z</time>
      </trkpt>
      <trkpt lat="47.5079" lon="6.7659">
        <ele>391</ele>
        <time>2016-07-28T11:56:28.000Z</time>
      </trkpt>
      <trkpt lat="47.50786" lon="6.76593">
        <ele>391</ele>
        <time>2016-07-28T11:56:40.000Z</time>
      </trkpt>
      <trkpt lat="47.50784" lon="6.76594">
        <ele>391</ele>
        <time>2016-07-28T11:56:41.000Z</time>
      </trkpt>
      <trkpt lat="47.50781" lon="6.76594">
        <ele>391</ele>
        <time>2016-07-28T11:56:42.000Z</time>
      </trkpt>
      <trkpt lat="47.50778" lon="6.76595">
        <ele>392</ele>
        <time>2016-07-28T11:56:43.000Z</time>
      </trkpt>
      <trkpt lat="47.50776" lon="6.76595">
        <ele>392</ele>
        <time>2016-07-28T11:56:44.000Z</time>
      </trkpt>
      <trkpt lat="47.50773" lon="6.76596">
        <ele>392</ele>
        <time>2016-07-28T11:56:45.000Z</time>
      </trkpt>
      <trkpt lat="47.5077" lon="6.76597">
        <ele>392</ele>
        <time>2016-07-28T11:56:46.000Z</time>
      </trkpt>
      <trkpt lat="47.50768" lon="6.76598">
        <ele>392</ele>
        <time>2016-07-28T11:56:47.000Z</time>
      </trkpt>
      <trkpt lat="47.50765" lon="6.76598">
        <ele>392</ele>
        <time>2016-07-28T11:56:48.000Z</time>
      </trkpt>
      <trkpt lat="47.50762" lon="6.76598">
        <ele>392</ele>
        <time>2016-07-28T11:56:49.000Z</time>
      </trkpt>
      <trkpt lat="47.50759" lon="6.76598">
        <ele>392</ele>
        <time>2016-07-28T11:56:50.000Z</time>
      </trkpt>
      <trkpt lat="47.50755" lon="6.76598">
        <ele>392</ele>
        <time>2016-07-28T11:56:51.000Z</time>
      </trkpt>
      <trkpt lat="47.50752" lon="6.76598">
        <ele>393</ele>
        <time>2016-07-28T11:56:52.000Z</time>
      </trkpt>
      <trkpt lat="47.50749" lon="6.76599">
        <ele>394</ele>
        <time>2016-07-28T11:56:53.000Z</time>
      </trkpt>
      <trkpt lat="47.50745" lon="6.76599">
        <ele>394</ele>
        <time>2016-07-28T11:56:54.000Z</time>
      </trkpt>
      <trkpt lat="47.50742" lon="6.76598">
        <ele>394</ele>
        <time>2016-07-28T11:56:55.000Z</time>
      </trkpt>
      <trkpt lat="47.50738" lon="6.76598">
        <ele>394</ele>
        <time>2016-07-28T11:56:56.000Z</time>
      </trkpt>
      <trkpt lat="47.50735" lon="6.76598">
        <ele>394</ele>
        <time>2016-07-28T11:56:57.000Z</time>
      </trkpt>
      <trkpt lat="47.50731" lon="6.76598">
        <ele>394</ele>
        <time>2016-07-28T11:56:58.000Z</time>
      </trkpt>
      <trkpt lat="47.50728" lon="6.76597">
        <ele>394</ele>
        <time>2016-07-28T11:56:59.000Z</time>
      </trkpt>
      <trkpt lat="47.50724" lon="6.76596">
        <ele>394</ele>
        <time>2016-07-28T11:57:00.000Z</time>
      </trkpt>
      <trkpt lat="47.50721" lon="6.76595">
        <ele>394</ele>
        <time>2016-07-28T11:57:01.000Z</time>
      </trkpt>
      <trkpt lat="47.50717" lon="6.76594">
        <ele>394</ele>
        <time>2016-07-28T11:57:02.000Z</time>
      </trkpt>
      <trkpt lat="47.50713" lon="6.76593">
        <ele>395</ele>
        <time>2016-07-28T11:57:03.000Z</time>
      </trkpt>
      <trkpt lat="47.50709" lon="6.76593">
        <ele>395</ele>
        <time>2016-07-28T11:57:04.000Z</time>
      </trkpt>
      <trkpt lat="47.50706" lon="6.76592">
        <ele>395</ele>
        <time>2016-07-28T11:57:05.000Z</time>
      </trkpt>
      <trkpt lat="47.50702" lon="6.76592">
        <ele>395</ele>
        <time>2016-07-28T11:57:06.000Z</time>
      </trkpt>
      <trkpt lat="47.50699" lon="6.76592">
        <ele>395</ele>
        <time>2016-07-28T11:57:07.000Z</time>
      </trkpt>
      <trkpt lat="47.50695" lon="6.76592">
        <ele>395</ele>
        <time>2016-07-28T11:57:08.000Z</time>
      </trkpt>
      <trkpt lat="47.50692" lon="6.76592">
        <ele>395</ele>
        <time>2016-07-28T11:57:09.000Z</time>
      </trkpt>
      <trkpt lat="47.50688" lon="6.76593">
        <ele>395</ele>
        <time>2016-07-28T11:57:10.000Z</time>
      </trkpt>
      <trkpt lat="47.50684" lon="6.76593">
        <ele>396</ele>
        <time>2016-07-28T11:57:11.000Z</time>
      </trkpt>
      <trkpt lat="47.50681" lon="6.76593">
        <ele>396</ele>
        <time>2016-07-28T11:57:12.000Z</time>
      </trkpt>
      <trkpt lat="47.50678" lon="6.76594">
        <ele>396</ele>
        <time>2016-07-28T11:57:13.000Z</time>
      </trkpt>
      <trkpt lat="47.50674" lon="6.76594">
        <ele>396</ele>
        <time>2016-07-28T11:57:14.000Z</time>
      </trkpt>
      <trkpt lat="47.50671" lon="6.76599">
        <ele>396</ele>
        <time>2016-07-28T11:57:15.000Z</time>
      </trkpt>
      <trkpt lat="47.50667" lon="6.766">
        <ele>396</ele>
        <time>2016-07-28T11:57:16.000Z</time>
      </trkpt>
      <trkpt lat="47.50664" lon="6.76602">
        <ele>397</ele>
        <time>2016-07-28T11:57:17.000Z</time>
      </trkpt>
      <trkpt lat="47.5066" lon="6.76602">
        <ele>397</ele>
        <time>2016-07-28T11:57:18.000Z</time>
      </trkpt>
      <trkpt lat="47.50657" lon="6.76603">
        <ele>397</ele>
        <time>2016-07-28T11:57:19.000Z</time>
      </trkpt>
      <trkpt lat="47.50654" lon="6.76604">
        <ele>397</ele>
        <time>2016-07-28T11:57:20.000Z</time>
      </trkpt>
      <trkpt lat="47.5065" lon="6.76605">
        <ele>397</ele>
        <time>2016-07-28T11:57:21.000Z</time>
      </trkpt>
      <trkpt lat="47.50647" lon="6.76606">
        <ele>397</ele>
        <time>2016-07-28T11:57:22.000Z</time>
      </trkpt>
      <trkpt lat="47.50644" lon="6.76608">
        <ele>397</ele>
        <time>2016-07-28T11:57:23.000Z</time>
      </trkpt>
      <trkpt lat="47.50641" lon="6.76609">
        <ele>397</ele>
        <time>2016-07-28T11:57:24.000Z</time>
      </trkpt>
      <trkpt lat="47.50638" lon="6.76611">
        <ele>397</ele>
        <time>2016-07-28T11:57:25.000Z</time>
      </trkpt>
      <trkpt lat="47.50635" lon="6.76612">
        <ele>397</ele>
        <time>2016-07-28T11:57:26.000Z</time>
      </trkpt>
      <trkpt lat="47.50632" lon="6.76614">
        <ele>397</ele>
        <time>2016-07-28T11:57:27.000Z</time>
      </trkpt>
      <trkpt lat="47.50629" lon="6.76615">
        <ele>397</ele>
        <time>2016-07-28T11:57:28.000Z</time>
      </trkpt>
      <trkpt lat="47.50627" lon="6.76617">
        <ele>397</ele>
        <time>2016-07-28T11:57:29.000Z</time>
      </trkpt>
      <trkpt lat="47.50624" lon="6.76618">
        <ele>397</ele>
        <time>2016-07-28T11:57:30.000Z</time>
      </trkpt>
      <trkpt lat="47.50621" lon="6.7662">
        <ele>397</ele>
        <time>2016-07-28T11:57:31.000Z</time>
      </trkpt>
      <trkpt lat="47.50619" lon="6.76621">
        <ele>397</ele>
        <time>2016-07-28T11:57:32.000Z</time>
      </trkpt>
      <trkpt lat="47.50616" lon="6.76622">
        <ele>397</ele>
        <time>2016-07-28T11:57:33.000Z</time>
      </trkpt>
      <trkpt lat="47.50612" lon="6.76624">
        <ele>397</ele>
        <time>2016-07-28T11:57:34.000Z</time>
      </trkpt>
      <trkpt lat="47.50608" lon="6.76625">
        <ele>397</ele>
        <time>2016-07-28T11:57:35.000Z</time>
      </trkpt>
      <trkpt lat="47.50605" lon="6.76626">
        <ele>398</ele>
        <time>2016-07-28T11:57:36.000Z</time>
      </trkpt>
      <trkpt lat="47.50601" lon="6.76627">
        <ele>398</ele>
        <time>2016-07-28T11:57:37.000Z</time>
      </trkpt>
      <trkpt lat="47.50598" lon="6.76629">
        <ele>398</ele>
        <time>2016-07-28T11:57:38.000Z</time>
      </trkpt>
      <trkpt lat="47.50595" lon="6.7663">
        <ele>398</ele>
        <time>2016-07-28T11:57:39.000Z</time>
      </trkpt>
      <trkpt lat="47.50592" lon="6.76631">
        <ele>398</ele>
        <time>2016-07-28T11:57:40.000Z</time>
      </trkpt>
      <trkpt lat="47.50588" lon="6.76632">
        <ele>398</ele>
        <time>2016-07-28T11:57:41.000Z</time>
      </trkpt>
      <trkpt lat="47.50585" lon="6.76633">
        <ele>398</ele>
        <time>2016-07-28T11:57:42.000Z</time>
      </trkpt>
      <trkpt lat="47.50582" lon="6.76634">
        <ele>399</ele>
        <time>2016-07-28T11:57:43.000Z</time>
      </trkpt>
      <trkpt lat="47.50579" lon="6.76635">
        <ele>399</ele>
        <time>2016-07-28T11:57:44.000Z</time>
      </trkpt>
      <trkpt lat="47.50576" lon="6.76636">
        <ele>399</ele>
        <time>2016-07-28T11:57:45.000Z</time>
      </trkpt>
      <trkpt lat="47.50573" lon="6.76637">
        <ele>399</ele>
        <time>2016-07-28T11:57:46.000Z</time>
      </trkpt>
      <trkpt lat="47.5057" lon="6.76638">
        <ele>399</ele>
        <time>2016-07-28T11:57:47.000Z</time>
      </trkpt>
      <trkpt lat="47.50567" lon="6.76639">
        <ele>399</ele>
        <time>2016-07-28T11:57:48.000Z</time>
      </trkpt>
      <trkpt lat="47.50564" lon="6.7664">
        <ele>399</ele>
        <time>2016-07-28T11:57:49.000Z</time>
      </trkpt>
      <trkpt lat="47.50561" lon="6.7664">
        <ele>399</ele>
        <time>2016-07-28T11:57:50.000Z</time>
      </trkpt>
      <trkpt lat="47.50558" lon="6.76641">
        <ele>399</ele>
        <time>2016-07-28T11:57:51.000Z</time>
      </trkpt>
      <trkpt lat="47.50555" lon="6.76641">
        <ele>399</ele>
        <time>2016-07-28T11:57:52.000Z</time>
      </trkpt>
      <trkpt lat="47.50551" lon="6.76642">
        <ele>399</ele>
        <time>2016-07-28T11:57:53.000Z</time>
      </trkpt>
      <trkpt lat="47.50548" lon="6.76643">
        <ele>399</ele>
        <time>2016-07-28T11:57:54.000Z</time>
      </trkpt>
      <trkpt lat="47.50544" lon="6.76644">
        <ele>399</ele>
        <time>2016-07-28T11:57:55.000Z</time>
      </trkpt>
      <trkpt lat="47.5054" lon="6.76644">
        <ele>399</ele>
        <time>2016-07-28T11:57:56.000Z</time>
      </trkpt>
      <trkpt lat="47.50536" lon="6.76645">
        <ele>399</ele>
        <time>2016-07-28T11:57:57.000Z</time>
      </trkpt>
      <trkpt lat="47.50532" lon="6.76646">
        <ele>399</ele>
        <time>2016-07-28T11:57:58.000Z</time>
      </trkpt>
      <trkpt lat="47.50526" lon="6.76647">
        <ele>399</ele>
        <time>2016-07-28T11:57:59.000Z</time>
      </trkpt>
      <trkpt lat="47.50522" lon="6.76649">
        <ele>399</ele>
        <time>2016-07-28T11:58:00.000Z</time>
      </trkpt>
      <trkpt lat="47.50517" lon="6.76651">
        <ele>399</ele>
        <time>2016-07-28T11:58:01.000Z</time>
      </trkpt>
      <trkpt lat="47.50512" lon="6.76652">
        <ele>399</ele>
        <time>2016-07-28T11:58:02.000Z</time>
      </trkpt>
      <trkpt lat="47.50506" lon="6.76653">
        <ele>399</ele>
        <time>2016-07-28T11:58:03.000Z</time>
      </trkpt>
      <trkpt lat="47.50501" lon="6.76655">
        <ele>399</ele>
        <time>2016-07-28T11:58:04.000Z</time>
      </trkpt>
      <trkpt lat="47.50496" lon="6.76656">
        <ele>399</ele>
        <time>2016-07-28T11:58:05.000Z</time>
      </trkpt>
      <trkpt lat="47.5049" lon="6.76658">
        <ele>399</ele>
        <time>2016-07-28T11:58:06.000Z</time>
      </trkpt>
      <trkpt lat="47.50485" lon="6.7666">
        <ele>399</ele>
        <time>2016-07-28T11:58:07.000Z</time>
      </trkpt>
      <trkpt lat="47.50479" lon="6.76662">
        <ele>399</ele>
        <time>2016-07-28T11:58:08.000Z</time>
      </trkpt>
      <trkpt lat="47.50473" lon="6.76665">
        <ele>398</ele>
        <time>2016-07-28T11:58:09.000Z</time>
      </trkpt>
      <trkpt lat="47.50467" lon="6.76668">
        <ele>397</ele>
        <time>2016-07-28T11:58:10.000Z</time>
      </trkpt>
      <trkpt lat="47.50461" lon="6.7667">
        <ele>397</ele>
        <time>2016-07-28T11:58:11.000Z</time>
      </trkpt>
      <trkpt lat="47.50455" lon="6.76673">
        <ele>397</ele>
        <time>2016-07-28T11:58:12.000Z</time>
      </trkpt>
      <trkpt lat="47.5045" lon="6.76675">
        <ele>397</ele>
        <time>2016-07-28T11:58:13.000Z</time>
      </trkpt>
      <trkpt lat="47.50444" lon="6.76677">
        <ele>397</ele>
        <time>2016-07-28T11:58:14.000Z</time>
      </trkpt>
      <trkpt lat="47.50439" lon="6.7668">
        <ele>397</ele>
        <time>2016-07-28T11:58:15.000Z</time>
      </trkpt>
      <trkpt lat="47.50433" lon="6.76682">
        <ele>397</ele>
        <time>2016-07-28T11:58:16.000Z</time>
      </trkpt>
      <trkpt lat="47.50428" lon="6.76684">
        <ele>397</ele>
        <time>2016-07-28T11:58:17.000Z</time>
      </trkpt>
      <trkpt lat="47.50423" lon="6.76686">
        <ele>397</ele>
        <time>2016-07-28T11:58:18.000Z</time>
      </trkpt>
      <trkpt lat="47.50418" lon="6.76689">
        <ele>397</ele>
        <time>2016-07-28T11:58:19.000Z</time>
      </trkpt>
      <trkpt lat="47.50412" lon="6.76691">
        <ele>397</ele>
        <time>2016-07-28T11:58:20.000Z</time>
      </trkpt>
      <trkpt lat="47.50407" lon="6.76693">
        <ele>397</ele>
        <time>2016-07-28T11:58:21.000Z</time>
      </trkpt>
      <trkpt lat="47.50402" lon="6.76695">
        <ele>397</ele>
        <time>2016-07-28T11:58:22.000Z</time>
      </trkpt>
      <trkpt lat="47.50396" lon="6.76698">
        <ele>397</ele>
        <time>2016-07-28T11:58:23.000Z</time>
      </trkpt>
      <trkpt lat="47.50391" lon="6.767">
        <ele>397</ele>
        <time>2016-07-28T11:58:23.999Z</time>
      </trkpt>
      <trkpt lat="47.50387" lon="6.76702">
        <ele>397</ele>
        <time>2016-07-28T11:58:25.000Z</time>
      </trkpt>
      <trkpt lat="47.50382" lon="6.76704">
        <ele>397</ele>
        <time>2016-07-28T11:58:26.000Z</time>
      </trkpt>
      <trkpt lat="47.50377" lon="6.76706">
        <ele>397</ele>
        <time>2016-07-28T11:58:27.000Z</time>
      </trkpt>
      <trkpt lat="47.50373" lon="6.76708">
        <ele>397</ele>
        <time>2016-07-28T11:58:28.000Z</time>
      </trkpt>
      <trkpt lat="47.50369" lon="6.76711">
        <ele>398</ele>
        <time>2016-07-28T11:58:29.000Z</time>
      </trkpt>
      <trkpt lat="47.50364" lon="6.76713">
        <ele>398</ele>
        <time>2016-07-28T11:58:30.000Z</time>
      </trkpt>
      <trkpt lat="47.50359" lon="6.76715">
        <ele>398</ele>
        <time>2016-07-28T11:58:31.000Z</time>
      </trkpt>
      <trkpt lat="47.50355" lon="6.76716">
        <ele>398</ele>
        <time>2016-07-28T11:58:32.000Z</time>
      </trkpt>
      <trkpt lat="47.5035" lon="6.76718">
        <ele>398</ele>
        <time>2016-07-28T11:58:33.000Z</time>
      </trkpt>
      <trkpt lat="47.50345" lon="6.7672">
        <ele>398</ele>
        <time>2016-07-28T11:58:34.000Z</time>
      </trkpt>
      <trkpt lat="47.5034" lon="6.76722">
        <ele>398</ele>
        <time>2016-07-28T11:58:35.000Z</time>
      </trkpt>
      <trkpt lat="47.50336" lon="6.76724">
        <ele>398</ele>
        <time>2016-07-28T11:58:36.000Z</time>
      </trkpt>
      <trkpt lat="47.50332" lon="6.76726">
        <ele>398</ele>
        <time>2016-07-28T11:58:37.000Z</time>
      </trkpt>
      <trkpt lat="47.50331" lon="6.76726">
        <ele>398</ele>
        <time>2016-07-28T11:58:37.106Z</time>
      </trkpt>
      <trkpt lat="47.50323" lon="6.7673">
        <ele>398</ele>
        <time>2016-07-28T11:58:39.000Z</time>
      </trkpt>
      <trkpt lat="47.50319" lon="6.76732">
        <ele>398</ele>
        <time>2016-07-28T11:58:40.000Z</time>
      </trkpt>
      <trkpt lat="47.50314" lon="6.76734">
        <ele>398</ele>
        <time>2016-07-28T11:58:41.000Z</time>
      </trkpt>
      <trkpt lat="47.5031" lon="6.76736">
        <ele>398</ele>
        <time>2016-07-28T11:58:42.000Z</time>
      </trkpt>
      <trkpt lat="47.50305" lon="6.76738">
        <ele>398</ele>
        <time>2016-07-28T11:58:43.000Z</time>
      </trkpt>
      <trkpt lat="47.503" lon="6.76739">
        <ele>399</ele>
        <time>2016-07-28T11:58:44.000Z</time>
      </trkpt>
      <trkpt lat="47.50296" lon="6.7674">
        <ele>399</ele>
        <time>2016-07-28T11:58:45.000Z</time>
      </trkpt>
      <trkpt lat="47.50292" lon="6.7674">
        <ele>399</ele>
        <time>2016-07-28T11:58:46.000Z</time>
      </trkpt>
      <trkpt lat="47.50287" lon="6.76741">
        <ele>399</ele>
        <time>2016-07-28T11:58:47.000Z</time>
      </trkpt>
      <trkpt lat="47.50282" lon="6.76742">
        <ele>399</ele>
        <time>2016-07-28T11:58:48.000Z</time>
      </trkpt>
      <trkpt lat="47.50278" lon="6.76743">
        <ele>399</ele>
        <time>2016-07-28T11:58:49.000Z</time>
      </trkpt>
      <trkpt lat="47.50274" lon="6.76744">
        <ele>399</ele>
        <time>2016-07-28T11:58:50.000Z</time>
      </trkpt>
      <trkpt lat="47.50271" lon="6.76745">
        <ele>399</ele>
        <time>2016-07-28T11:58:51.000Z</time>
      </trkpt>
      <trkpt lat="47.50267" lon="6.76747">
        <ele>399</ele>
        <time>2016-07-28T11:58:52.000Z</time>
      </trkpt>
      <trkpt lat="47.50264" lon="6.76748">
        <ele>399</ele>
        <time>2016-07-28T11:58:53.000Z</time>
      </trkpt>
      <trkpt lat="47.50261" lon="6.76749">
        <ele>399</ele>
        <time>2016-07-28T11:58:54.000Z</time>
      </trkpt>
      <trkpt lat="47.50257" lon="6.7675">
        <ele>400</ele>
        <time>2016-07-28T11:58:55.000Z</time>
      </trkpt>
      <trkpt lat="47.50254" lon="6.7675">
        <ele>399</ele>
        <time>2016-07-28T11:58:56.000Z</time>
      </trkpt>
      <trkpt lat="47.5025" lon="6.76751">
        <ele>400</ele>
        <time>2016-07-28T11:58:57.000Z</time>
      </trkpt>
      <trkpt lat="47.50247" lon="6.76751">
        <ele>400</ele>
        <time>2016-07-28T11:58:58.000Z</time>
      </trkpt>
      <trkpt lat="47.50243" lon="6.76749">
        <ele>401</ele>
        <time>2016-07-28T11:58:59.000Z</time>
      </trkpt>
      <trkpt lat="47.50241" lon="6.76747">
        <ele>401</ele>
        <time>2016-07-28T11:59:00.000Z</time>
      </trkpt>
      <trkpt lat="47.50238" lon="6.76743">
        <ele>401</ele>
        <time>2016-07-28T11:59:01.000Z</time>
      </trkpt>
      <trkpt lat="47.50237" lon="6.76739">
        <ele>401</ele>
        <time>2016-07-28T11:59:02.000Z</time>
      </trkpt>
      <trkpt lat="47.50235" lon="6.76734">
        <ele>401</ele>
        <time>2016-07-28T11:59:03.000Z</time>
      </trkpt>
      <trkpt lat="47.50233" lon="6.76729">
        <ele>401</ele>
        <time>2016-07-28T11:59:04.000Z</time>
      </trkpt>
      <trkpt lat="47.50231" lon="6.76725">
        <ele>402</ele>
        <time>2016-07-28T11:59:05.000Z</time>
      </trkpt>
      <trkpt lat="47.5023" lon="6.7672">
        <ele>402</ele>
        <time>2016-07-28T11:59:06.000Z</time>
      </trkpt>
      <trkpt lat="47.50228" lon="6.76715">
        <ele>402</ele>
        <time>2016-07-28T11:59:07.000Z</time>
      </trkpt>
      <trkpt lat="47.50227" lon="6.76711">
        <ele>402</ele>
        <time>2016-07-28T11:59:08.000Z</time>
      </trkpt>
      <trkpt lat="47.50225" lon="6.76706">
        <ele>402</ele>
        <time>2016-07-28T11:59:09.000Z</time>
      </trkpt>
      <trkpt lat="47.50224" lon="6.76701">
        <ele>402</ele>
        <time>2016-07-28T11:59:10.000Z</time>
      </trkpt>
      <trkpt lat="47.50222" lon="6.76696">
        <ele>402</ele>
        <time>2016-07-28T11:59:11.000Z</time>
      </trkpt>
      <trkpt lat="47.50221" lon="6.76692">
        <ele>402</ele>
        <time>2016-07-28T11:59:12.000Z</time>
      </trkpt>
      <trkpt lat="47.50219" lon="6.76688">
        <ele>402</ele>
        <time>2016-07-28T11:59:13.000Z</time>
      </trkpt>
      <trkpt lat="47.50218" lon="6.76684">
        <ele>402</ele>
        <time>2016-07-28T11:59:14.000Z</time>
      </trkpt>
      <trkpt lat="47.50217" lon="6.7668">
        <ele>402</ele>
        <time>2016-07-28T11:59:15.000Z</time>
      </trkpt>
      <trkpt lat="47.50216" lon="6.76675">
        <ele>402</ele>
        <time>2016-07-28T11:59:16.000Z</time>
      </trkpt>
      <trkpt lat="47.50214" lon="6.7667">
        <ele>402</ele>
        <time>2016-07-28T11:59:17.000Z</time>
      </trkpt>
      <trkpt lat="47.50213" lon="6.76665">
        <ele>402</ele>
        <time>2016-07-28T11:59:18.000Z</time>
      </trkpt>
      <trkpt lat="47.50212" lon="6.76661">
        <ele>402</ele>
        <time>2016-07-28T11:59:19.000Z</time>
      </trkpt>
      <trkpt lat="47.50211" lon="6.76656">
        <ele>402</ele>
        <time>2016-07-28T11:59:20.000Z</time>
      </trkpt>
      <trkpt lat="47.5021" lon="6.76651">
        <ele>402</ele>
        <time>2016-07-28T11:59:21.000Z</time>
      </trkpt>
      <trkpt lat="47.50208" lon="6.76647">
        <ele>402</ele>
        <time>2016-07-28T11:59:22.000Z</time>
      </trkpt>
      <trkpt lat="47.50206" lon="6.76642">
        <ele>402</ele>
        <time>2016-07-28T11:59:23.000Z</time>
      </trkpt>
      <trkpt lat="47.50205" lon="6.76637">
        <ele>402</ele>
        <time>2016-07-28T11:59:24.000Z</time>
      </trkpt>
      <trkpt lat="47.50203" lon="6.76632">
        <ele>402</ele>
        <time>2016-07-28T11:59:25.000Z</time>
      </trkpt>
      <trkpt lat="47.50202" lon="6.76628">
        <ele>402</ele>
        <time>2016-07-28T11:59:26.000Z</time>
      </trkpt>
      <trkpt lat="47.502" lon="6.76623">
        <ele>402</ele>
        <time>2016-07-28T11:59:27.000Z</time>
      </trkpt>
      <trkpt lat="47.50198" lon="6.76619">
        <ele>403</ele>
        <time>2016-07-28T11:59:28.000Z</time>
      </trkpt>
      <trkpt lat="47.50196" lon="6.76615">
        <ele>403</ele>
        <time>2016-07-28T11:59:29.000Z</time>
      </trkpt>
      <trkpt lat="47.50194" lon="6.7661">
        <ele>403</ele>
        <time>2016-07-28T11:59:30.000Z</time>
      </trkpt>
      <trkpt lat="47.50193" lon="6.76606">
        <ele>403</ele>
        <time>2016-07-28T11:59:31.000Z</time>
      </trkpt>
      <trkpt lat="47.50193" lon="6.76602">
        <ele>403</ele>
        <time>2016-07-28T11:59:32.000Z</time>
      </trkpt>
      <trkpt lat="47.50192" lon="6.76599">
        <ele>403</ele>
        <time>2016-07-28T11:59:33.000Z</time>
      </trkpt>
      <trkpt lat="47.50193" lon="6.76594">
        <ele>403</ele>
        <time>2016-07-28T11:59:35.000Z</time>
      </trkpt>
      <trkpt lat="47.50194" lon="6.76592">
        <ele>403</ele>
        <time>2016-07-28T11:59:36.000Z</time>
      </trkpt>
      <trkpt lat="47.50194" lon="6.76587">
        <ele>403</ele>
        <time>2016-07-28T11:59:38.000Z</time>
      </trkpt>
      <trkpt lat="47.50194" lon="6.76583">
        <ele>403</ele>
        <time>2016-07-28T11:59:39.000Z</time>
      </trkpt>
      <trkpt lat="47.50194" lon="6.76578">
        <ele>403</ele>
        <time>2016-07-28T11:59:40.000Z</time>
      </trkpt>
      <trkpt lat="47.50195" lon="6.76574">
        <ele>402</ele>
        <time>2016-07-28T11:59:41.000Z</time>
      </trkpt>
      <trkpt lat="47.50198" lon="6.7657">
        <ele>402</ele>
        <time>2016-07-28T11:59:42.000Z</time>
      </trkpt>
      <trkpt lat="47.50201" lon="6.76567">
        <ele>402</ele>
        <time>2016-07-28T11:59:43.000Z</time>
      </trkpt>
      <trkpt lat="47.50206" lon="6.76565">
        <ele>401</ele>
        <time>2016-07-28T11:59:44.000Z</time>
      </trkpt>
      <trkpt lat="47.50211" lon="6.76563">
        <ele>401</ele>
        <time>2016-07-28T11:59:45.000Z</time>
      </trkpt>
      <trkpt lat="47.50216" lon="6.76551">
        <ele>400</ele>
        <time>2016-07-28T11:59:46.000Z</time>
      </trkpt>
      <trkpt lat="47.50217" lon="6.76546">
        <ele>400</ele>
        <time>2016-07-28T11:59:47.000Z</time>
      </trkpt>
      <trkpt lat="47.50216" lon="6.7654">
        <ele>400</ele>
        <time>2016-07-28T11:59:48.000Z</time>
      </trkpt>
      <trkpt lat="47.50215" lon="6.76533">
        <ele>400</ele>
        <time>2016-07-28T11:59:49.000Z</time>
      </trkpt>
      <trkpt lat="47.50213" lon="6.76526">
        <ele>400</ele>
        <time>2016-07-28T11:59:50.000Z</time>
      </trkpt>
      <trkpt lat="47.50212" lon="6.76519">
        <ele>400</ele>
        <time>2016-07-28T11:59:51.000Z</time>
      </trkpt>
      <trkpt lat="47.50211" lon="6.76512">
        <ele>400</ele>
        <time>2016-07-28T11:59:52.000Z</time>
      </trkpt>
      <trkpt lat="47.50209" lon="6.76506">
        <ele>400</ele>
        <time>2016-07-28T11:59:53.000Z</time>
      </trkpt>
      <trkpt lat="47.50206" lon="6.76498">
        <ele>397</ele>
        <time>2016-07-28T11:59:54.000Z</time>
      </trkpt>
      <trkpt lat="47.50199" lon="6.76487">
        <ele>398</ele>
        <time>2016-07-28T11:59:55.000Z</time>
      </trkpt>
      <trkpt lat="47.50195" lon="6.76476">
        <ele>397</ele>
        <time>2016-07-28T11:59:56.000Z</time>
      </trkpt>
      <trkpt lat="47.50192" lon="6.76465">
        <ele>397</ele>
        <time>2016-07-28T11:59:57.000Z</time>
      </trkpt>
      <trkpt lat="47.5019" lon="6.76457">
        <ele>397</ele>
        <time>2016-07-28T11:59:58.000Z</time>
      </trkpt>
      <trkpt lat="47.50187" lon="6.76446">
        <ele>396</ele>
        <time>2016-07-28T11:59:59.000Z</time>
      </trkpt>
      <trkpt lat="47.50185" lon="6.76438">
        <ele>397</ele>
        <time>2016-07-28T12:00:00.000Z</time>
      </trkpt>
      <trkpt lat="47.50184" lon="6.76428">
        <ele>397</ele>
        <time>2016-07-28T12:00:01.000Z</time>
      </trkpt>
      <trkpt lat="47.50182" lon="6.76418">
        <ele>397</ele>
        <time>2016-07-28T12:00:02.000Z</time>
      </trkpt>
      <trkpt lat="47.50179" lon="6.76409">
        <ele>394</ele>
        <time>2016-07-28T12:00:03.000Z</time>
      </trkpt>
      <trkpt lat="47.50174" lon="6.76397">
        <ele>393</ele>
        <time>2016-07-28T12:00:04.000Z</time>
      </trkpt>
      <trkpt lat="47.50171" lon="6.76387">
        <ele>392</ele>
        <time>2016-07-28T12:00:05.000Z</time>
      </trkpt>
      <trkpt lat="47.50169" lon="6.76377">
        <ele>391</ele>
        <time>2016-07-28T12:00:06.000Z</time>
      </trkpt>
      <trkpt lat="47.50167" lon="6.76366">
        <ele>391</ele>
        <time>2016-07-28T12:00:07.000Z</time>
      </trkpt>
      <trkpt lat="47.50164" lon="6.76355">
        <ele>398</ele>
        <time>2016-07-28T12:00:08.000Z</time>
      </trkpt>
      <trkpt lat="47.50161" lon="6.76345">
        <ele>396</ele>
        <time>2016-07-28T12:00:09.000Z</time>
      </trkpt>
      <trkpt lat="47.50157" lon="6.76335">
        <ele>395</ele>
        <time>2016-07-28T12:00:10.000Z</time>
      </trkpt>
      <trkpt lat="47.50155" lon="6.76326">
        <ele>394</ele>
        <time>2016-07-28T12:00:11.000Z</time>
      </trkpt>
      <trkpt lat="47.50152" lon="6.76314">
        <ele>395</ele>
        <time>2016-07-28T12:00:12.000Z</time>
      </trkpt>
      <trkpt lat="47.50148" lon="6.76303">
        <ele>395</ele>
        <time>2016-07-28T12:00:13.000Z</time>
      </trkpt>
      <trkpt lat="47.50143" lon="6.76293">
        <ele>395</ele>
        <time>2016-07-28T12:00:14.000Z</time>
      </trkpt>
      <trkpt lat="47.50138" lon="6.76279">
        <ele>395</ele>
        <time>2016-07-28T12:00:15.000Z</time>
      </trkpt>
      <trkpt lat="47.50136" lon="6.76268">
        <ele>395</ele>
        <time>2016-07-28T12:00:16.000Z</time>
      </trkpt>
      <trkpt lat="47.50133" lon="6.76258">
        <ele>395</ele>
        <time>2016-07-28T12:00:17.000Z</time>
      </trkpt>
      <trkpt lat="47.50132" lon="6.76249">
        <ele>391</ele>
        <time>2016-07-28T12:00:18.000Z</time>
      </trkpt>
      <trkpt lat="47.50129" lon="6.76238">
        <ele>391</ele>
        <time>2016-07-28T12:00:19.000Z</time>
      </trkpt>
      <trkpt lat="47.50128" lon="6.76228">
        <ele>391</ele>
        <time>2016-07-28T12:00:20.000Z</time>
      </trkpt>
      <trkpt lat="47.50126" lon="6.76221">
        <ele>391</ele>
        <time>2016-07-28T12:00:21.000Z</time>
      </trkpt>
      <trkpt lat="47.50124" lon="6.76216">
        <ele>391</ele>
        <time>2016-07-28T12:00:23.000Z</time>
      </trkpt>
      <trkpt lat="47.50124" lon="6.76213">
        <ele>391</ele>
        <time>2016-07-28T12:00:24.000Z</time>
      </trkpt>
      <trkpt lat="47.50124" lon="6.7621">
        <ele>391</ele>
        <time>2016-07-28T12:00:26.000Z</time>
      </trkpt>
      <trkpt lat="47.50122" lon="6.76202">
        <ele>391</ele>
        <time>2016-07-28T12:00:27.000Z</time>
      </trkpt>
      <trkpt lat="47.50121" lon="6.76198">
        <ele>391</ele>
        <time>2016-07-28T12:00:28.000Z</time>
      </trkpt>
      <trkpt lat="47.50123" lon="6.76194">
        <ele>390</ele>
        <time>2016-07-28T12:00:29.000Z</time>
      </trkpt>
      <trkpt lat="47.50125" lon="6.76189">
        <ele>390</ele>
        <time>2016-07-28T12:00:33.000Z</time>
      </trkpt>
      <trkpt lat="47.50125" lon="6.76188">
        <ele>390</ele>
        <time>2016-07-28T12:00:34.000Z</time>
      </trkpt>
      <trkpt lat="47.50124" lon="6.76183">
        <ele>390</ele>
        <time>2016-07-28T12:01:01.000Z</time>
      </trkpt>
      <trkpt lat="47.50124" lon="6.76182">
        <ele>390</ele>
        <time>2016-07-28T12:01:02.000Z</time>
      </trkpt>
      <trkpt lat="47.50123" lon="6.76176">
        <ele>389</ele>
        <time>2016-07-28T12:01:05.000Z</time>
      </trkpt>
      <trkpt lat="47.50123" lon="6.76173">
        <ele>389</ele>
        <time>2016-07-28T12:01:06.000Z</time>
      </trkpt>
      <trkpt lat="47.50123" lon="6.76169">
        <ele>389</ele>
        <time>2016-07-28T12:01:07.000Z</time>
      </trkpt>
      <trkpt lat="47.50123" lon="6.76165">
        <ele>385</ele>
        <time>2016-07-28T12:01:08.000Z</time>
      </trkpt>
      <trkpt lat="47.50123" lon="6.7616">
        <ele>385</ele>
        <time>2016-07-28T12:01:09.000Z</time>
      </trkpt>
      <trkpt lat="47.50122" lon="6.76156">
        <ele>385</ele>
        <time>2016-07-28T12:01:10.000Z</time>
      </trkpt>
      <trkpt lat="47.50122" lon="6.76151">
        <ele>385</ele>
        <time>2016-07-28T12:01:11.000Z</time>
      </trkpt>
      <trkpt lat="47.50122" lon="6.76146">
        <ele>385</ele>
        <time>2016-07-28T12:01:12.000Z</time>
      </trkpt>
      <trkpt lat="47.50122" lon="6.7614">
        <ele>385</ele>
        <time>2016-07-28T12:01:13.000Z</time>
      </trkpt>
      <trkpt lat="47.50122" lon="6.76135">
        <ele>385</ele>
        <time>2016-07-28T12:01:14.000Z</time>
      </trkpt>
      <trkpt lat="47.50122" lon="6.76129">
        <ele>384</ele>
        <time>2016-07-28T12:01:15.000Z</time>
      </trkpt>
      <trkpt lat="47.5012" lon="6.76123">
        <ele>384</ele>
        <time>2016-07-28T12:01:16.000Z</time>
      </trkpt>
      <trkpt lat="47.50118" lon="6.76114">
        <ele>384</ele>
        <time>2016-07-28T12:01:17.000Z</time>
      </trkpt>
      <trkpt lat="47.50117" lon="6.76105">
        <ele>384</ele>
        <time>2016-07-28T12:01:18.000Z</time>
      </trkpt>
      <trkpt lat="47.50116" lon="6.76096">
        <ele>384</ele>
        <time>2016-07-28T12:01:19.000Z</time>
      </trkpt>
      <trkpt lat="47.50112" lon="6.76069">
        <ele>381</ele>
        <time>2016-07-28T12:01:20.000Z</time>
      </trkpt>
      <trkpt lat="47.50111" lon="6.76058">
        <ele>380</ele>
        <time>2016-07-28T12:01:21.000Z</time>
      </trkpt>
      <trkpt lat="47.50108" lon="6.76053">
        <ele>380</ele>
        <time>2016-07-28T12:01:22.000Z</time>
      </trkpt>
      <trkpt lat="47.50106" lon="6.76045">
        <ele>380</ele>
        <time>2016-07-28T12:01:23.000Z</time>
      </trkpt>
      <trkpt lat="47.50104" lon="6.7604">
        <ele>380</ele>
        <time>2016-07-28T12:01:24.000Z</time>
      </trkpt>
      <trkpt lat="47.50103" lon="6.76036">
        <ele>380</ele>
        <time>2016-07-28T12:01:25.000Z</time>
      </trkpt>
      <trkpt lat="47.50101" lon="6.7603">
        <ele>380</ele>
        <time>2016-07-28T12:01:31.000Z</time>
      </trkpt>
      <trkpt lat="47.50101" lon="6.7603">
        <ele>380</ele>
        <time>2016-07-28T12:01:32.000Z</time>
      </trkpt>
      <trkpt lat="47.501" lon="6.76025">
        <ele>379</ele>
        <time>2016-07-28T12:01:37.000Z</time>
      </trkpt>
      <trkpt lat="47.50099" lon="6.76021">
        <ele>379</ele>
        <time>2016-07-28T12:01:38.000Z</time>
      </trkpt>
      <trkpt lat="47.50099" lon="6.76017">
        <ele>379</ele>
        <time>2016-07-28T12:01:39.000Z</time>
      </trkpt>
      <trkpt lat="47.50098" lon="6.76011">
        <ele>379</ele>
        <time>2016-07-28T12:01:40.000Z</time>
      </trkpt>
      <trkpt lat="47.50097" lon="6.76006">
        <ele>379</ele>
        <time>2016-07-28T12:01:41.000Z</time>
      </trkpt>
      <trkpt lat="47.50095" lon="6.76">
        <ele>379</ele>
        <time>2016-07-28T12:01:42.000Z</time>
      </trkpt>
      <trkpt lat="47.50092" lon="6.75995">
        <ele>377</ele>
        <time>2016-07-28T12:01:43.000Z</time>
      </trkpt>
      <trkpt lat="47.50089" lon="6.7599">
        <ele>377</ele>
        <time>2016-07-28T12:01:44.000Z</time>
      </trkpt>
      <trkpt lat="47.50085" lon="6.75985">
        <ele>376</ele>
        <time>2016-07-28T12:01:45.000Z</time>
      </trkpt>
      <trkpt lat="47.50075" lon="6.75974">
        <ele>379</ele>
        <time>2016-07-28T12:01:46.000Z</time>
      </trkpt>
      <trkpt lat="47.50068" lon="6.75963">
        <ele>378</ele>
        <time>2016-07-28T12:01:47.000Z</time>
      </trkpt>
      <trkpt lat="47.50063" lon="6.75955">
        <ele>378</ele>
        <time>2016-07-28T12:01:48.000Z</time>
      </trkpt>
      <trkpt lat="47.5006" lon="6.75945">
        <ele>378</ele>
        <time>2016-07-28T12:01:49.000Z</time>
      </trkpt>
      <trkpt lat="47.50057" lon="6.75939">
        <ele>378</ele>
        <time>2016-07-28T12:01:50.000Z</time>
      </trkpt>
      <trkpt lat="47.50052" lon="6.75932">
        <ele>378</ele>
        <time>2016-07-28T12:01:51.000Z</time>
      </trkpt>
      <trkpt lat="47.50045" lon="6.75925">
        <ele>378</ele>
        <time>2016-07-28T12:01:52.000Z</time>
      </trkpt>
      <trkpt lat="47.50039" lon="6.75916">
        <ele>376</ele>
        <time>2016-07-28T12:01:53.000Z</time>
      </trkpt>
      <trkpt lat="47.50034" lon="6.75908">
        <ele>376</ele>
        <time>2016-07-28T12:01:54.000Z</time>
      </trkpt>
      <trkpt lat="47.50028" lon="6.75898">
        <ele>376</ele>
        <time>2016-07-28T12:01:55.000Z</time>
      </trkpt>
      <trkpt lat="47.50021" lon="6.75888">
        <ele>377</ele>
        <time>2016-07-28T12:01:56.000Z</time>
      </trkpt>
      <trkpt lat="47.50014" lon="6.75877">
        <ele>377</ele>
        <time>2016-07-28T12:01:57.000Z</time>
      </trkpt>
      <trkpt lat="47.50008" lon="6.75863">
        <ele>377</ele>
        <time>2016-07-28T12:01:58.000Z</time>
      </trkpt>
      <trkpt lat="47.50001" lon="6.75851">
        <ele>378</ele>
        <time>2016-07-28T12:01:59.000Z</time>
      </trkpt>
      <trkpt lat="47.49995" lon="6.7584">
        <ele>378</ele>
        <time>2016-07-28T12:02:00.000Z</time>
      </trkpt>
      <trkpt lat="47.4999" lon="6.75831">
        <ele>377</ele>
        <time>2016-07-28T12:02:01.000Z</time>
      </trkpt>
      <trkpt lat="47.49984" lon="6.75822">
        <ele>376</ele>
        <time>2016-07-28T12:02:02.000Z</time>
      </trkpt>
      <trkpt lat="47.49978" lon="6.75813">
        <ele>375</ele>
        <time>2016-07-28T12:02:03.000Z</time>
      </trkpt>
      <trkpt lat="47.49974" lon="6.75802">
        <ele>375</ele>
        <time>2016-07-28T12:02:04.000Z</time>
      </trkpt>
      <trkpt lat="47.49968" lon="6.75792">
        <ele>374</ele>
        <time>2016-07-28T12:02:05.000Z</time>
      </trkpt>
      <trkpt lat="47.49958" lon="6.75785">
        <ele>374</ele>
        <time>2016-07-28T12:02:06.000Z</time>
      </trkpt>
      <trkpt lat="47.49949" lon="6.75775">
        <ele>373</ele>
        <time>2016-07-28T12:02:07.000Z</time>
      </trkpt>
      <trkpt lat="47.49943" lon="6.75761">
        <ele>372</ele>
        <time>2016-07-28T12:02:08.000Z</time>
      </trkpt>
      <trkpt lat="47.49936" lon="6.75754">
        <ele>372</ele>
        <time>2016-07-28T12:02:09.000Z</time>
      </trkpt>
      <trkpt lat="47.49928" lon="6.75746">
        <ele>370</ele>
        <time>2016-07-28T12:02:10.000Z</time>
      </trkpt>
      <trkpt lat="47.49922" lon="6.75737">
        <ele>370</ele>
        <time>2016-07-28T12:02:11.000Z</time>
      </trkpt>
      <trkpt lat="47.49915" lon="6.75731">
        <ele>366</ele>
        <time>2016-07-28T12:02:12.000Z</time>
      </trkpt>
      <trkpt lat="47.49909" lon="6.75729">
        <ele>365</ele>
        <time>2016-07-28T12:02:13.000Z</time>
      </trkpt>
      <trkpt lat="47.49903" lon="6.75727">
        <ele>365</ele>
        <time>2016-07-28T12:02:14.000Z</time>
      </trkpt>
      <trkpt lat="47.49897" lon="6.75728">
        <ele>365</ele>
        <time>2016-07-28T12:02:15.000Z</time>
      </trkpt>
      <trkpt lat="47.4989" lon="6.75731">
        <ele>364</ele>
        <time>2016-07-28T12:02:16.000Z</time>
      </trkpt>
      <trkpt lat="47.49881" lon="6.75732">
        <ele>363</ele>
        <time>2016-07-28T12:02:17.000Z</time>
      </trkpt>
      <trkpt lat="47.49871" lon="6.75733">
        <ele>363</ele>
        <time>2016-07-28T12:02:18.000Z</time>
      </trkpt>
      <trkpt lat="47.49859" lon="6.75733">
        <ele>362</ele>
        <time>2016-07-28T12:02:19.000Z</time>
      </trkpt>
      <trkpt lat="47.4985" lon="6.75735">
        <ele>361</ele>
        <time>2016-07-28T12:02:20.000Z</time>
      </trkpt>
      <trkpt lat="47.49841" lon="6.75739">
        <ele>360</ele>
        <time>2016-07-28T12:02:21.000Z</time>
      </trkpt>
      <trkpt lat="47.49832" lon="6.75743">
        <ele>357</ele>
        <time>2016-07-28T12:02:22.000Z</time>
      </trkpt>
      <trkpt lat="47.49821" lon="6.75745">
        <ele>356</ele>
        <time>2016-07-28T12:02:23.000Z</time>
      </trkpt>
      <trkpt lat="47.4981" lon="6.75748">
        <ele>354</ele>
        <time>2016-07-28T12:02:24.000Z</time>
      </trkpt>
      <trkpt lat="47.498" lon="6.75752">
        <ele>359</ele>
        <time>2016-07-28T12:02:25.000Z</time>
      </trkpt>
      <trkpt lat="47.49785" lon="6.75754">
        <ele>358</ele>
        <time>2016-07-28T12:02:26.000Z</time>
      </trkpt>
      <trkpt lat="47.49773" lon="6.75757">
        <ele>357</ele>
        <time>2016-07-28T12:02:27.000Z</time>
      </trkpt>
      <trkpt lat="47.49761" lon="6.75762">
        <ele>356</ele>
        <time>2016-07-28T12:02:28.000Z</time>
      </trkpt>
      <trkpt lat="47.49751" lon="6.75766">
        <ele>356</ele>
        <time>2016-07-28T12:02:29.000Z</time>
      </trkpt>
      <trkpt lat="47.4974" lon="6.7577">
        <ele>354</ele>
        <time>2016-07-28T12:02:30.000Z</time>
      </trkpt>
      <trkpt lat="47.49731" lon="6.75776">
        <ele>354</ele>
        <time>2016-07-28T12:02:31.000Z</time>
      </trkpt>
      <trkpt lat="47.49722" lon="6.75778">
        <ele>354</ele>
        <time>2016-07-28T12:02:32.000Z</time>
      </trkpt>
      <trkpt lat="47.49714" lon="6.7578">
        <ele>354</ele>
        <time>2016-07-28T12:02:33.000Z</time>
      </trkpt>
      <trkpt lat="47.49702" lon="6.75783">
        <ele>354</ele>
        <time>2016-07-28T12:02:34.000Z</time>
      </trkpt>
      <trkpt lat="47.49692" lon="6.75785">
        <ele>353</ele>
        <time>2016-07-28T12:02:35.000Z</time>
      </trkpt>
      <trkpt lat="47.49684" lon="6.75787">
        <ele>353</ele>
        <time>2016-07-28T12:02:36.000Z</time>
      </trkpt>
      <trkpt lat="47.49675" lon="6.75789">
        <ele>353</ele>
        <time>2016-07-28T12:02:37.000Z</time>
      </trkpt>
      <trkpt lat="47.49667" lon="6.7579">
        <ele>353</ele>
        <time>2016-07-28T12:02:38.000Z</time>
      </trkpt>
      <trkpt lat="47.4966" lon="6.75791">
        <ele>348</ele>
        <time>2016-07-28T12:02:39.000Z</time>
      </trkpt>
      <trkpt lat="47.49652" lon="6.75791">
        <ele>348</ele>
        <time>2016-07-28T12:02:40.000Z</time>
      </trkpt>
      <trkpt lat="47.49645" lon="6.7579">
        <ele>347</ele>
        <time>2016-07-28T12:02:41.000Z</time>
      </trkpt>
      <trkpt lat="47.49638" lon="6.75788">
        <ele>347</ele>
        <time>2016-07-28T12:02:42.000Z</time>
      </trkpt>
      <trkpt lat="47.4963" lon="6.75786">
        <ele>346</ele>
        <time>2016-07-28T12:02:43.000Z</time>
      </trkpt>
      <trkpt lat="47.49623" lon="6.75788">
        <ele>346</ele>
        <time>2016-07-28T12:02:44.000Z</time>
      </trkpt>
      <trkpt lat="47.49616" lon="6.75789">
        <ele>345</ele>
        <time>2016-07-28T12:02:45.000Z</time>
      </trkpt>
      <trkpt lat="47.4961" lon="6.75789">
        <ele>345</ele>
        <time>2016-07-28T12:02:46.000Z</time>
      </trkpt>
      <trkpt lat="47.49603" lon="6.75788">
        <ele>345</ele>
        <time>2016-07-28T12:02:47.000Z</time>
      </trkpt>
      <trkpt lat="47.49595" lon="6.75786">
        <ele>344</ele>
        <time>2016-07-28T12:02:48.000Z</time>
      </trkpt>
      <trkpt lat="47.49584" lon="6.75787">
        <ele>344</ele>
        <time>2016-07-28T12:02:49.000Z</time>
      </trkpt>
      <trkpt lat="47.49576" lon="6.75786">
        <ele>337</ele>
        <time>2016-07-28T12:02:50.000Z</time>
      </trkpt>
      <trkpt lat="47.4957" lon="6.75783">
        <ele>337</ele>
        <time>2016-07-28T12:02:51.000Z</time>
      </trkpt>
      <trkpt lat="47.49564" lon="6.75781">
        <ele>337</ele>
        <time>2016-07-28T12:02:52.000Z</time>
      </trkpt>
      <trkpt lat="47.49558" lon="6.75777">
        <ele>336</ele>
        <time>2016-07-28T12:02:53.000Z</time>
      </trkpt>
      <trkpt lat="47.49558" lon="6.75769">
        <ele>335</ele>
        <time>2016-07-28T12:02:54.000Z</time>
      </trkpt>
      <trkpt lat="47.49557" lon="6.75765">
        <ele>335</ele>
        <time>2016-07-28T12:02:55.000Z</time>
      </trkpt>
      <trkpt lat="47.49559" lon="6.75757">
        <ele>335</ele>
        <time>2016-07-28T12:02:56.000Z</time>
      </trkpt>
      <trkpt lat="47.49561" lon="6.75755">
        <ele>335</ele>
        <time>2016-07-28T12:02:57.000Z</time>
      </trkpt>
      <trkpt lat="47.49565" lon="6.75751">
        <ele>335</ele>
        <time>2016-07-28T12:02:58.000Z</time>
      </trkpt>
      <trkpt lat="47.49569" lon="6.75746">
        <ele>330</ele>
        <time>2016-07-28T12:02:59.000Z</time>
      </trkpt>
      <trkpt lat="47.49573" lon="6.75742">
        <ele>330</ele>
        <time>2016-07-28T12:03:00.000Z</time>
      </trkpt>
      <trkpt lat="47.49577" lon="6.75737">
        <ele>330</ele>
        <time>2016-07-28T12:03:01.000Z</time>
      </trkpt>
      <trkpt lat="47.49581" lon="6.75731">
        <ele>329</ele>
        <time>2016-07-28T12:03:02.000Z</time>
      </trkpt>
      <trkpt lat="47.49586" lon="6.75725">
        <ele>332</ele>
        <time>2016-07-28T12:03:03.000Z</time>
      </trkpt>
      <trkpt lat="47.49589" lon="6.75718">
        <ele>331</ele>
        <time>2016-07-28T12:03:04.000Z</time>
      </trkpt>
      <trkpt lat="47.49592" lon="6.75709">
        <ele>330</ele>
        <time>2016-07-28T12:03:05.000Z</time>
      </trkpt>
      <trkpt lat="47.49594" lon="6.757">
        <ele>329</ele>
        <time>2016-07-28T12:03:06.000Z</time>
      </trkpt>
      <trkpt lat="47.49593" lon="6.7569">
        <ele>328</ele>
        <time>2016-07-28T12:03:07.000Z</time>
      </trkpt>
      <trkpt lat="47.4959" lon="6.75683">
        <ele>326</ele>
        <time>2016-07-28T12:03:08.000Z</time>
      </trkpt>
      <trkpt lat="47.49585" lon="6.75676">
        <ele>324</ele>
        <time>2016-07-28T12:03:09.000Z</time>
      </trkpt>
      <trkpt lat="47.49579" lon="6.7567">
        <ele>322</ele>
        <time>2016-07-28T12:03:10.000Z</time>
      </trkpt>
      <trkpt lat="47.49571" lon="6.75671">
        <ele>323</ele>
        <time>2016-07-28T12:03:11.000Z</time>
      </trkpt>
      <trkpt lat="47.49565" lon="6.75676">
        <ele>323</ele>
        <time>2016-07-28T12:03:12.000Z</time>
      </trkpt>
      <trkpt lat="47.4956" lon="6.75681">
        <ele>324</ele>
        <time>2016-07-28T12:03:13.000Z</time>
      </trkpt>
      <trkpt lat="47.49555" lon="6.75689">
        <ele>324</ele>
        <time>2016-07-28T12:03:14.000Z</time>
      </trkpt>
      <trkpt lat="47.4955" lon="6.75697">
        <ele>325</ele>
        <time>2016-07-28T12:03:15.000Z</time>
      </trkpt>
      <trkpt lat="47.49545" lon="6.75704">
        <ele>325</ele>
        <time>2016-07-28T12:03:16.000Z</time>
      </trkpt>
      <trkpt lat="47.49539" lon="6.75711">
        <ele>325</ele>
        <time>2016-07-28T12:03:17.000Z</time>
      </trkpt>
      <trkpt lat="47.49533" lon="6.75717">
        <ele>325</ele>
        <time>2016-07-28T12:03:18.000Z</time>
      </trkpt>
      <trkpt lat="47.49526" lon="6.75723">
        <ele>325</ele>
        <time>2016-07-28T12:03:19.000Z</time>
      </trkpt>
      <trkpt lat="47.49519" lon="6.75728">
        <ele>325</ele>
        <time>2016-07-28T12:03:20.000Z</time>
      </trkpt>
      <trkpt lat="47.49512" lon="6.75732">
        <ele>325</ele>
        <time>2016-07-28T12:03:21.000Z</time>
      </trkpt>
      <trkpt lat="47.49505" lon="6.75735">
        <ele>325</ele>
        <time>2016-07-28T12:03:22.000Z</time>
      </trkpt>
      <trkpt lat="47.49498" lon="6.75739">
        <ele>323</ele>
        <time>2016-07-28T12:03:23.000Z</time>
      </trkpt>
      <trkpt lat="47.49491" lon="6.75742">
        <ele>323</ele>
        <time>2016-07-28T12:03:24.000Z</time>
      </trkpt>
      <trkpt lat="47.49484" lon="6.7574">
        <ele>322</ele>
        <time>2016-07-28T12:03:25.000Z</time>
      </trkpt>
      <trkpt lat="47.49479" lon="6.75733">
        <ele>322</ele>
        <time>2016-07-28T12:03:26.000Z</time>
      </trkpt>
      <trkpt lat="47.49475" lon="6.75723">
        <ele>322</ele>
        <time>2016-07-28T12:03:27.000Z</time>
      </trkpt>
      <trkpt lat="47.49472" lon="6.75714">
        <ele>321</ele>
        <time>2016-07-28T12:03:28.000Z</time>
      </trkpt>
      <trkpt lat="47.49469" lon="6.75704">
        <ele>321</ele>
        <time>2016-07-28T12:03:29.000Z</time>
      </trkpt>
      <trkpt lat="47.49465" lon="6.75697">
        <ele>321</ele>
        <time>2016-07-28T12:03:30.000Z</time>
      </trkpt>
      <trkpt lat="47.49458" lon="6.75696">
        <ele>321</ele>
        <time>2016-07-28T12:03:31.000Z</time>
      </trkpt>
      <trkpt lat="47.49452" lon="6.75699">
        <ele>321</ele>
        <time>2016-07-28T12:03:32.000Z</time>
      </trkpt>
      <trkpt lat="47.49447" lon="6.75702">
        <ele>321</ele>
        <time>2016-07-28T12:03:33.000Z</time>
      </trkpt>
      <trkpt lat="47.49442" lon="6.757">
        <ele>321</ele>
        <time>2016-07-28T12:03:34.000Z</time>
      </trkpt>
      <trkpt lat="47.49439" lon="6.75692">
        <ele>320</ele>
        <time>2016-07-28T12:03:35.000Z</time>
      </trkpt>
      <trkpt lat="47.49437" lon="6.75685">
        <ele>320</ele>
        <time>2016-07-28T12:03:36.000Z</time>
      </trkpt>
      <trkpt lat="47.49435" lon="6.75678">
        <ele>320</ele>
        <time>2016-07-28T12:03:37.000Z</time>
      </trkpt>
      <trkpt lat="47.49432" lon="6.75671">
        <ele>320</ele>
        <time>2016-07-28T12:03:38.000Z</time>
      </trkpt>
      <trkpt lat="47.49427" lon="6.75669">
        <ele>320</ele>
        <time>2016-07-28T12:03:39.000Z</time>
      </trkpt>
      <trkpt lat="47.49423" lon="6.75673">
        <ele>320</ele>
        <time>2016-07-28T12:03:40.000Z</time>
      </trkpt>
      <trkpt lat="47.49419" lon="6.75676">
        <ele>320</ele>
        <time>2016-07-28T12:03:41.000Z</time>
      </trkpt>
      <trkpt lat="47.49414" lon="6.7568">
        <ele>319</ele>
        <time>2016-07-28T12:03:42.000Z</time>
      </trkpt>
      <trkpt lat="47.49409" lon="6.75685">
        <ele>319</ele>
        <time>2016-07-28T12:03:43.000Z</time>
      </trkpt>
      <trkpt lat="47.49403" lon="6.75689">
        <ele>319</ele>
        <time>2016-07-28T12:03:44.000Z</time>
      </trkpt>
      <trkpt lat="47.49397" lon="6.75694">
        <ele>319</ele>
        <time>2016-07-28T12:03:45.000Z</time>
      </trkpt>
      <trkpt lat="47.49392" lon="6.75698">
        <ele>319</ele>
        <time>2016-07-28T12:03:46.000Z</time>
      </trkpt>
      <trkpt lat="47.49386" lon="6.75705">
        <ele>319</ele>
        <time>2016-07-28T12:03:47.000Z</time>
      </trkpt>
      <trkpt lat="47.49382" lon="6.75708">
        <ele>319</ele>
        <time>2016-07-28T12:03:48.000Z</time>
      </trkpt>
      <trkpt lat="47.49376" lon="6.75714">
        <ele>319</ele>
        <time>2016-07-28T12:03:49.000Z</time>
      </trkpt>
      <trkpt lat="47.49371" lon="6.75718">
        <ele>319</ele>
        <time>2016-07-28T12:03:50.000Z</time>
      </trkpt>
      <trkpt lat="47.49367" lon="6.7572">
        <ele>319</ele>
        <time>2016-07-28T12:03:51.000Z</time>
      </trkpt>
      <trkpt lat="47.49365" lon="6.75722">
        <ele>319</ele>
        <time>2016-07-28T12:03:52.000Z</time>
      </trkpt>
      <trkpt lat="47.49363" lon="6.75724">
        <ele>319</ele>
        <time>2016-07-28T12:03:53.000Z</time>
      </trkpt>
      <trkpt lat="47.4936" lon="6.75727">
        <ele>319</ele>
        <time>2016-07-28T12:03:54.000Z</time>
      </trkpt>
      <trkpt lat="47.49357" lon="6.75728">
        <ele>319</ele>
        <time>2016-07-28T12:03:55.000Z</time>
      </trkpt>
      <trkpt lat="47.49354" lon="6.75729">
        <ele>319</ele>
        <time>2016-07-28T12:03:56.000Z</time>
      </trkpt>
      <trkpt lat="47.49349" lon="6.75733">
        <ele>318</ele>
        <time>2016-07-28T12:03:57.000Z</time>
      </trkpt>
      <trkpt lat="47.49344" lon="6.75736">
        <ele>318</ele>
        <time>2016-07-28T12:03:58.000Z</time>
      </trkpt>
      <trkpt lat="47.49338" lon="6.7574">
        <ele>318</ele>
        <time>2016-07-28T12:03:59.000Z</time>
      </trkpt>
      <trkpt lat="47.49333" lon="6.75743">
        <ele>318</ele>
        <time>2016-07-28T12:04:00.000Z</time>
      </trkpt>
      <trkpt lat="47.49325" lon="6.75749">
        <ele>318</ele>
        <time>2016-07-28T12:04:01.000Z</time>
      </trkpt>
      <trkpt lat="47.49318" lon="6.75755">
        <ele>318</ele>
        <time>2016-07-28T12:04:02.000Z</time>
      </trkpt>
      <trkpt lat="47.49311" lon="6.75761">
        <ele>318</ele>
        <time>2016-07-28T12:04:03.000Z</time>
      </trkpt>
      <trkpt lat="47.49306" lon="6.75769">
        <ele>318</ele>
        <time>2016-07-28T12:04:04.000Z</time>
      </trkpt>
      <trkpt lat="47.493" lon="6.75777">
        <ele>318</ele>
        <time>2016-07-28T12:04:05.000Z</time>
      </trkpt>
      <trkpt lat="47.49294" lon="6.75784">
        <ele>318</ele>
        <time>2016-07-28T12:04:06.000Z</time>
      </trkpt>
      <trkpt lat="47.49288" lon="6.75793">
        <ele>318</ele>
        <time>2016-07-28T12:04:07.000Z</time>
      </trkpt>
      <trkpt lat="47.49282" lon="6.75799">
        <ele>318</ele>
        <time>2016-07-28T12:04:08.000Z</time>
      </trkpt>
      <trkpt lat="47.49277" lon="6.75808">
        <ele>317</ele>
        <time>2016-07-28T12:04:09.000Z</time>
      </trkpt>
      <trkpt lat="47.49272" lon="6.75816">
        <ele>317</ele>
        <time>2016-07-28T12:04:10.000Z</time>
      </trkpt>
      <trkpt lat="47.49267" lon="6.75823">
        <ele>316</ele>
        <time>2016-07-28T12:04:11.000Z</time>
      </trkpt>
      <trkpt lat="47.49263" lon="6.75832">
        <ele>315</ele>
        <time>2016-07-28T12:04:12.000Z</time>
      </trkpt>
      <trkpt lat="47.49259" lon="6.75839">
        <ele>315</ele>
        <time>2016-07-28T12:04:13.000Z</time>
      </trkpt>
      <trkpt lat="47.49254" lon="6.75848">
        <ele>316</ele>
        <time>2016-07-28T12:04:14.000Z</time>
      </trkpt>
      <trkpt lat="47.49249" lon="6.75857">
        <ele>317</ele>
        <time>2016-07-28T12:04:15.000Z</time>
      </trkpt>
      <trkpt lat="47.49245" lon="6.75866">
        <ele>317</ele>
        <time>2016-07-28T12:04:16.000Z</time>
      </trkpt>
      <trkpt lat="47.49241" lon="6.75875">
        <ele>318</ele>
        <time>2016-07-28T12:04:17.000Z</time>
      </trkpt>
      <trkpt lat="47.49236" lon="6.75884">
        <ele>318</ele>
        <time>2016-07-28T12:04:18.000Z</time>
      </trkpt>
      <trkpt lat="47.49231" lon="6.75891">
        <ele>318</ele>
        <time>2016-07-28T12:04:19.000Z</time>
      </trkpt>
      <trkpt lat="47.49227" lon="6.75899">
        <ele>318</ele>
        <time>2016-07-28T12:04:20.000Z</time>
      </trkpt>
      <trkpt lat="47.49223" lon="6.75908">
        <ele>319</ele>
        <time>2016-07-28T12:04:21.000Z</time>
      </trkpt>
      <trkpt lat="47.49219" lon="6.75917">
        <ele>319</ele>
        <time>2016-07-28T12:04:22.000Z</time>
      </trkpt>
      <trkpt lat="47.49215" lon="6.75926">
        <ele>320</ele>
        <time>2016-07-28T12:04:23.000Z</time>
      </trkpt>
      <trkpt lat="47.4921" lon="6.75936">
        <ele>320</ele>
        <time>2016-07-28T12:04:24.000Z</time>
      </trkpt>
      <trkpt lat="47.49206" lon="6.75945">
        <ele>320</ele>
        <time>2016-07-28T12:04:25.000Z</time>
      </trkpt>
      <trkpt lat="47.49203" lon="6.75954">
        <ele>320</ele>
        <time>2016-07-28T12:04:26.000Z</time>
      </trkpt>
      <trkpt lat="47.49197" lon="6.75964">
        <ele>320</ele>
        <time>2016-07-28T12:04:27.000Z</time>
      </trkpt>
      <trkpt lat="47.49193" lon="6.75973">
        <ele>320</ele>
        <time>2016-07-28T12:04:28.000Z</time>
      </trkpt>
      <trkpt lat="47.49188" lon="6.75982">
        <ele>320</ele>
        <time>2016-07-28T12:04:29.000Z</time>
      </trkpt>
      <trkpt lat="47.49185" lon="6.75993">
        <ele>320</ele>
        <time>2016-07-28T12:04:30.000Z</time>
      </trkpt>
      <trkpt lat="47.4918" lon="6.76003">
        <ele>320</ele>
        <time>2016-07-28T12:04:31.000Z</time>
      </trkpt>
      <trkpt lat="47.49176" lon="6.76012">
        <ele>320</ele>
        <time>2016-07-28T12:04:32.000Z</time>
      </trkpt>
      <trkpt lat="47.49172" lon="6.76021">
        <ele>320</ele>
        <time>2016-07-28T12:04:33.000Z</time>
      </trkpt>
      <trkpt lat="47.49167" lon="6.76029">
        <ele>320</ele>
        <time>2016-07-28T12:04:34.000Z</time>
      </trkpt>
      <trkpt lat="47.49163" lon="6.76039">
        <ele>322</ele>
        <time>2016-07-28T12:04:35.000Z</time>
      </trkpt>
      <trkpt lat="47.4916" lon="6.76048">
        <ele>322</ele>
        <time>2016-07-28T12:04:36.000Z</time>
      </trkpt>
      <trkpt lat="47.49156" lon="6.76059">
        <ele>322</ele>
        <time>2016-07-28T12:04:37.000Z</time>
      </trkpt>
      <trkpt lat="47.49153" lon="6.76069">
        <ele>321</ele>
        <time>2016-07-28T12:04:38.000Z</time>
      </trkpt>
      <trkpt lat="47.49149" lon="6.7608">
        <ele>321</ele>
        <time>2016-07-28T12:04:39.000Z</time>
      </trkpt>
      <trkpt lat="47.49146" lon="6.7609">
        <ele>321</ele>
        <time>2016-07-28T12:04:40.000Z</time>
      </trkpt>
      <trkpt lat="47.49143" lon="6.761">
        <ele>321</ele>
        <time>2016-07-28T12:04:41.000Z</time>
      </trkpt>
      <trkpt lat="47.4914" lon="6.76111">
        <ele>322</ele>
        <time>2016-07-28T12:04:42.000Z</time>
      </trkpt>
      <trkpt lat="47.49138" lon="6.76122">
        <ele>322</ele>
        <time>2016-07-28T12:04:43.000Z</time>
      </trkpt>
      <trkpt lat="47.49136" lon="6.76132">
        <ele>322</ele>
        <time>2016-07-28T12:04:44.000Z</time>
      </trkpt>
      <trkpt lat="47.49135" lon="6.76142">
        <ele>322</ele>
        <time>2016-07-28T12:04:45.000Z</time>
      </trkpt>
      <trkpt lat="47.49133" lon="6.76152">
        <ele>322</ele>
        <time>2016-07-28T12:04:46.000Z</time>
      </trkpt>
      <trkpt lat="47.49131" lon="6.76161">
        <ele>322</ele>
        <time>2016-07-28T12:04:47.000Z</time>
      </trkpt>
      <trkpt lat="47.49129" lon="6.76169">
        <ele>321</ele>
        <time>2016-07-28T12:04:48.000Z</time>
      </trkpt>
      <trkpt lat="47.4913" lon="6.76178">
        <ele>321</ele>
        <time>2016-07-28T12:04:49.000Z</time>
      </trkpt>
      <trkpt lat="47.49132" lon="6.76185">
        <ele>321</ele>
        <time>2016-07-28T12:04:50.000Z</time>
      </trkpt>
      <trkpt lat="47.49135" lon="6.76192">
        <ele>321</ele>
        <time>2016-07-28T12:04:51.000Z</time>
      </trkpt>
      <trkpt lat="47.4914" lon="6.76198">
        <ele>320</ele>
        <time>2016-07-28T12:04:52.000Z</time>
      </trkpt>
      <trkpt lat="47.49145" lon="6.76204">
        <ele>320</ele>
        <time>2016-07-28T12:04:53.000Z</time>
      </trkpt>
      <trkpt lat="47.4915" lon="6.76209">
        <ele>320</ele>
        <time>2016-07-28T12:04:54.000Z</time>
      </trkpt>
      <trkpt lat="47.49156" lon="6.76213">
        <ele>320</ele>
        <time>2016-07-28T12:04:55.000Z</time>
      </trkpt>
      <trkpt lat="47.49163" lon="6.76217">
        <ele>319</ele>
        <time>2016-07-28T12:04:56.000Z</time>
      </trkpt>
      <trkpt lat="47.4917" lon="6.76218">
        <ele>319</ele>
        <time>2016-07-28T12:04:57.000Z</time>
      </trkpt>
      <trkpt lat="47.49177" lon="6.76218">
        <ele>320</ele>
        <time>2016-07-28T12:04:58.000Z</time>
      </trkpt>
      <trkpt lat="47.49184" lon="6.76218">
        <ele>320</ele>
        <time>2016-07-28T12:04:59.000Z</time>
      </trkpt>
      <trkpt lat="47.49191" lon="6.76217">
        <ele>320</ele>
        <time>2016-07-28T12:05:00.000Z</time>
      </trkpt>
      <trkpt lat="47.49198" lon="6.76215">
        <ele>320</ele>
        <time>2016-07-28T12:05:01.000Z</time>
      </trkpt>
      <trkpt lat="47.49205" lon="6.76215">
        <ele>321</ele>
        <time>2016-07-28T12:05:02.000Z</time>
      </trkpt>
      <trkpt lat="47.49211" lon="6.76214">
        <ele>321</ele>
        <time>2016-07-28T12:05:03.000Z</time>
      </trkpt>
      <trkpt lat="47.49216" lon="6.76216">
        <ele>321</ele>
        <time>2016-07-28T12:05:04.000Z</time>
      </trkpt>
      <trkpt lat="47.49221" lon="6.76217">
        <ele>321</ele>
        <time>2016-07-28T12:05:05.000Z</time>
      </trkpt>
      <trkpt lat="47.49224" lon="6.76221">
        <ele>322</ele>
        <time>2016-07-28T12:05:06.000Z</time>
      </trkpt>
      <trkpt lat="47.49225" lon="6.76228">
        <ele>322</ele>
        <time>2016-07-28T12:05:07.000Z</time>
      </trkpt>
      <trkpt lat="47.49225" lon="6.76235">
        <ele>322</ele>
        <time>2016-07-28T12:05:08.000Z</time>
      </trkpt>
      <trkpt lat="47.49226" lon="6.76244">
        <ele>322</ele>
        <time>2016-07-28T12:05:09.000Z</time>
      </trkpt>
      <trkpt lat="47.49227" lon="6.76253">
        <ele>321</ele>
        <time>2016-07-28T12:05:10.000Z</time>
      </trkpt>
      <trkpt lat="47.49228" lon="6.76264">
        <ele>321</ele>
        <time>2016-07-28T12:05:11.000Z</time>
      </trkpt>
      <trkpt lat="47.49227" lon="6.76273">
        <ele>321</ele>
        <time>2016-07-28T12:05:12.000Z</time>
      </trkpt>
      <trkpt lat="47.49228" lon="6.76283">
        <ele>321</ele>
        <time>2016-07-28T12:05:13.000Z</time>
      </trkpt>
      <trkpt lat="47.49228" lon="6.76293">
        <ele>321</ele>
        <time>2016-07-28T12:05:14.000Z</time>
      </trkpt>
      <trkpt lat="47.49229" lon="6.76303">
        <ele>321</ele>
        <time>2016-07-28T12:05:15.000Z</time>
      </trkpt>
      <trkpt lat="47.4923" lon="6.76313">
        <ele>321</ele>
        <time>2016-07-28T12:05:16.000Z</time>
      </trkpt>
      <trkpt lat="47.49231" lon="6.76322">
        <ele>322</ele>
        <time>2016-07-28T12:05:17.000Z</time>
      </trkpt>
      <trkpt lat="47.49232" lon="6.76332">
        <ele>322</ele>
        <time>2016-07-28T12:05:18.000Z</time>
      </trkpt>
      <trkpt lat="47.49232" lon="6.76342">
        <ele>322</ele>
        <time>2016-07-28T12:05:19.000Z</time>
      </trkpt>
      <trkpt lat="47.49233" lon="6.76351">
        <ele>321</ele>
        <time>2016-07-28T12:05:20.000Z</time>
      </trkpt>
      <trkpt lat="47.49234" lon="6.76361">
        <ele>321</ele>
        <time>2016-07-28T12:05:21.000Z</time>
      </trkpt>
      <trkpt lat="47.49235" lon="6.76371">
        <ele>321</ele>
        <time>2016-07-28T12:05:22.000Z</time>
      </trkpt>
      <trkpt lat="47.49235" lon="6.76382">
        <ele>321</ele>
        <time>2016-07-28T12:05:23.000Z</time>
      </trkpt>
      <trkpt lat="47.49236" lon="6.76392">
        <ele>321</ele>
        <time>2016-07-28T12:05:24.000Z</time>
      </trkpt>
      <trkpt lat="47.49237" lon="6.76403">
        <ele>321</ele>
        <time>2016-07-28T12:05:25.000Z</time>
      </trkpt>
      <trkpt lat="47.49237" lon="6.76413">
        <ele>322</ele>
        <time>2016-07-28T12:05:26.000Z</time>
      </trkpt>
      <trkpt lat="47.49238" lon="6.76424">
        <ele>321</ele>
        <time>2016-07-28T12:05:27.000Z</time>
      </trkpt>
      <trkpt lat="47.49238" lon="6.76433">
        <ele>321</ele>
        <time>2016-07-28T12:05:28.000Z</time>
      </trkpt>
      <trkpt lat="47.49239" lon="6.76443">
        <ele>320</ele>
        <time>2016-07-28T12:05:29.000Z</time>
      </trkpt>
      <trkpt lat="47.4924" lon="6.7645">
        <ele>320</ele>
        <time>2016-07-28T12:05:30.000Z</time>
      </trkpt>
      <trkpt lat="47.49238" lon="6.76456">
        <ele>320</ele>
        <time>2016-07-28T12:05:31.000Z</time>
      </trkpt>
      <trkpt lat="47.49234" lon="6.76458">
        <ele>319</ele>
        <time>2016-07-28T12:05:32.000Z</time>
      </trkpt>
      <trkpt lat="47.4923" lon="6.76458">
        <ele>319</ele>
        <time>2016-07-28T12:05:33.000Z</time>
      </trkpt>
      <trkpt lat="47.49226" lon="6.76458">
        <ele>319</ele>
        <time>2016-07-28T12:05:34.000Z</time>
      </trkpt>
      <trkpt lat="47.49221" lon="6.76457">
        <ele>319</ele>
        <time>2016-07-28T12:05:35.000Z</time>
      </trkpt>
      <trkpt lat="47.49216" lon="6.76457">
        <ele>318</ele>
        <time>2016-07-28T12:05:36.000Z</time>
      </trkpt>
      <trkpt lat="47.4921" lon="6.76457">
        <ele>318</ele>
        <time>2016-07-28T12:05:37.000Z</time>
      </trkpt>
      <trkpt lat="47.49205" lon="6.76457">
        <ele>318</ele>
        <time>2016-07-28T12:05:38.000Z</time>
      </trkpt>
      <trkpt lat="47.492" lon="6.76455">
        <ele>318</ele>
        <time>2016-07-28T12:05:39.000Z</time>
      </trkpt>
      <trkpt lat="47.49193" lon="6.76457">
        <ele>317</ele>
        <time>2016-07-28T12:05:40.000Z</time>
      </trkpt>
      <trkpt lat="47.49187" lon="6.7646">
        <ele>317</ele>
        <time>2016-07-28T12:05:41.000Z</time>
      </trkpt>
      <trkpt lat="47.49185" lon="6.76467">
        <ele>317</ele>
        <time>2016-07-28T12:05:42.000Z</time>
      </trkpt>
      <trkpt lat="47.49185" lon="6.76475">
        <ele>316</ele>
        <time>2016-07-28T12:05:43.000Z</time>
      </trkpt>
      <trkpt lat="47.49186" lon="6.76482">
        <ele>316</ele>
        <time>2016-07-28T12:05:44.000Z</time>
      </trkpt>
      <trkpt lat="47.49188" lon="6.76489">
        <ele>316</ele>
        <time>2016-07-28T12:05:45.000Z</time>
      </trkpt>
      <trkpt lat="47.4919" lon="6.76494">
        <ele>316</ele>
        <time>2016-07-28T12:05:46.000Z</time>
      </trkpt>
      <trkpt lat="47.49193" lon="6.76496">
        <ele>316</ele>
        <time>2016-07-28T12:05:47.000Z</time>
      </trkpt>
      <trkpt lat="47.49199" lon="6.76495">
        <ele>317</ele>
        <time>2016-07-28T12:05:48.000Z</time>
      </trkpt>
      <trkpt lat="47.49204" lon="6.76495">
        <ele>317</ele>
        <time>2016-07-28T12:05:49.000Z</time>
      </trkpt>
      <trkpt lat="47.49209" lon="6.76493">
        <ele>318</ele>
        <time>2016-07-28T12:05:50.000Z</time>
      </trkpt>
      <trkpt lat="47.49215" lon="6.76493">
        <ele>318</ele>
        <time>2016-07-28T12:05:51.000Z</time>
      </trkpt>
      <trkpt lat="47.4922" lon="6.76493">
        <ele>319</ele>
        <time>2016-07-28T12:05:52.000Z</time>
      </trkpt>
      <trkpt lat="47.49225" lon="6.76493">
        <ele>319</ele>
        <time>2016-07-28T12:05:53.000Z</time>
      </trkpt>
      <trkpt lat="47.4923" lon="6.76493">
        <ele>320</ele>
        <time>2016-07-28T12:05:54.000Z</time>
      </trkpt>
      <trkpt lat="47.49235" lon="6.76491">
        <ele>320</ele>
        <time>2016-07-28T12:05:55.000Z</time>
      </trkpt>
      <trkpt lat="47.49238" lon="6.76487">
        <ele>320</ele>
        <time>2016-07-28T12:05:56.000Z</time>
      </trkpt>
      <trkpt lat="47.49239" lon="6.76482">
        <ele>320</ele>
        <time>2016-07-28T12:05:57.000Z</time>
      </trkpt>
      <trkpt lat="47.49239" lon="6.76477">
        <ele>320</ele>
        <time>2016-07-28T12:05:58.000Z</time>
      </trkpt>
      <trkpt lat="47.49239" lon="6.76472">
        <ele>320</ele>
        <time>2016-07-28T12:05:59.000Z</time>
      </trkpt>
      <trkpt lat="47.49239" lon="6.76468">
        <ele>320</ele>
        <time>2016-07-28T12:06:00.000Z</time>
      </trkpt>
      <trkpt lat="47.49239" lon="6.76464">
        <ele>320</ele>
        <time>2016-07-28T12:06:01.000Z</time>
      </trkpt>
      <trkpt lat="47.49239" lon="6.76459">
        <ele>320</ele>
        <time>2016-07-28T12:06:02.000Z</time>
      </trkpt>
      <trkpt lat="47.49239" lon="6.76454">
        <ele>320</ele>
        <time>2016-07-28T12:06:03.000Z</time>
      </trkpt>
      <trkpt lat="47.49239" lon="6.76449">
        <ele>320</ele>
        <time>2016-07-28T12:06:04.001Z</time>
      </trkpt>
      <trkpt lat="47.49238" lon="6.76444">
        <ele>320</ele>
        <time>2016-07-28T12:06:05.001Z</time>
      </trkpt>
      <trkpt lat="47.49238" lon="6.76438">
        <ele>320</ele>
        <time>2016-07-28T12:06:06.000Z</time>
      </trkpt>
      <trkpt lat="47.49237" lon="6.76433">
        <ele>321</ele>
        <time>2016-07-28T12:06:07.000Z</time>
      </trkpt>
      <trkpt lat="47.49237" lon="6.76427">
        <ele>321</ele>
        <time>2016-07-28T12:06:08.000Z</time>
      </trkpt>
      <trkpt lat="47.49236" lon="6.76422">
        <ele>321</ele>
        <time>2016-07-28T12:06:09.000Z</time>
      </trkpt>
      <trkpt lat="47.49235" lon="6.76416">
        <ele>322</ele>
        <time>2016-07-28T12:06:10.000Z</time>
      </trkpt>
      <trkpt lat="47.49234" lon="6.7641">
        <ele>321</ele>
        <time>2016-07-28T12:06:11.000Z</time>
      </trkpt>
      <trkpt lat="47.49234" lon="6.76403">
        <ele>321</ele>
        <time>2016-07-28T12:06:12.000Z</time>
      </trkpt>
      <trkpt lat="47.49234" lon="6.76397">
        <ele>321</ele>
        <time>2016-07-28T12:06:13.000Z</time>
      </trkpt>
      <trkpt lat="47.49234" lon="6.7639">
        <ele>321</ele>
        <time>2016-07-28T12:06:14.000Z</time>
      </trkpt>
      <trkpt lat="47.49234" lon="6.76384">
        <ele>321</ele>
        <time>2016-07-28T12:06:15.000Z</time>
      </trkpt>
      <trkpt lat="47.49234" lon="6.76378">
        <ele>321</ele>
        <time>2016-07-28T12:06:16.000Z</time>
      </trkpt>
      <trkpt lat="47.49234" lon="6.76371">
        <ele>321</ele>
        <time>2016-07-28T12:06:17.000Z</time>
      </trkpt>
      <trkpt lat="47.49234" lon="6.76365">
        <ele>321</ele>
        <time>2016-07-28T12:06:18.000Z</time>
      </trkpt>
      <trkpt lat="47.49234" lon="6.76359">
        <ele>321</ele>
        <time>2016-07-28T12:06:19.000Z</time>
      </trkpt>
      <trkpt lat="47.49234" lon="6.76353">
        <ele>321</ele>
        <time>2016-07-28T12:06:20.000Z</time>
      </trkpt>
      <trkpt lat="47.49234" lon="6.76348">
        <ele>322</ele>
        <time>2016-07-28T12:06:21.000Z</time>
      </trkpt>
      <trkpt lat="47.49234" lon="6.76342">
        <ele>322</ele>
        <time>2016-07-28T12:06:22.000Z</time>
      </trkpt>
      <trkpt lat="47.49234" lon="6.76336">
        <ele>322</ele>
        <time>2016-07-28T12:06:23.000Z</time>
      </trkpt>
      <trkpt lat="47.49234" lon="6.7633">
        <ele>322</ele>
        <time>2016-07-28T12:06:24.000Z</time>
      </trkpt>
      <trkpt lat="47.49233" lon="6.76324">
        <ele>322</ele>
        <time>2016-07-28T12:06:25.000Z</time>
      </trkpt>
      <trkpt lat="47.49233" lon="6.76319">
        <ele>322</ele>
        <time>2016-07-28T12:06:26.000Z</time>
      </trkpt>
      <trkpt lat="47.49232" lon="6.76313">
        <ele>321</ele>
        <time>2016-07-28T12:06:27.000Z</time>
      </trkpt>
      <trkpt lat="47.49232" lon="6.76308">
        <ele>321</ele>
        <time>2016-07-28T12:06:28.000Z</time>
      </trkpt>
      <trkpt lat="47.49232" lon="6.76302">
        <ele>321</ele>
        <time>2016-07-28T12:06:29.000Z</time>
      </trkpt>
      <trkpt lat="47.49232" lon="6.76297">
        <ele>321</ele>
        <time>2016-07-28T12:06:30.000Z</time>
      </trkpt>
      <trkpt lat="47.49232" lon="6.76291">
        <ele>321</ele>
        <time>2016-07-28T12:06:31.000Z</time>
      </trkpt>
      <trkpt lat="47.49231" lon="6.76286">
        <ele>321</ele>
        <time>2016-07-28T12:06:32.000Z</time>
      </trkpt>
      <trkpt lat="47.49231" lon="6.76281">
        <ele>321</ele>
        <time>2016-07-28T12:06:33.000Z</time>
      </trkpt>
      <trkpt lat="47.49231" lon="6.76275">
        <ele>321</ele>
        <time>2016-07-28T12:06:34.000Z</time>
      </trkpt>
      <trkpt lat="47.49231" lon="6.76269">
        <ele>321</ele>
        <time>2016-07-28T12:06:35.000Z</time>
      </trkpt>
      <trkpt lat="47.4923" lon="6.76263">
        <ele>321</ele>
        <time>2016-07-28T12:06:36.000Z</time>
      </trkpt>
      <trkpt lat="47.4923" lon="6.76258">
        <ele>321</ele>
        <time>2016-07-28T12:06:37.000Z</time>
      </trkpt>
      <trkpt lat="47.49229" lon="6.76252">
        <ele>322</ele>
        <time>2016-07-28T12:06:38.000Z</time>
      </trkpt>
      <trkpt lat="47.49229" lon="6.76246">
        <ele>322</ele>
        <time>2016-07-28T12:06:39.000Z</time>
      </trkpt>
      <trkpt lat="47.49228" lon="6.76241">
        <ele>322</ele>
        <time>2016-07-28T12:06:40.000Z</time>
      </trkpt>
      <trkpt lat="47.49227" lon="6.76235">
        <ele>322</ele>
        <time>2016-07-28T12:06:41.000Z</time>
      </trkpt>
      <trkpt lat="47.49227" lon="6.7623">
        <ele>322</ele>
        <time>2016-07-28T12:06:42.000Z</time>
      </trkpt>
      <trkpt lat="47.49226" lon="6.76224">
        <ele>322</ele>
        <time>2016-07-28T12:06:43.000Z</time>
      </trkpt>
      <trkpt lat="47.49225" lon="6.7622">
        <ele>322</ele>
        <time>2016-07-28T12:06:44.000Z</time>
      </trkpt>
      <trkpt lat="47.49223" lon="6.76218">
        <ele>322</ele>
        <time>2016-07-28T12:06:45.000Z</time>
      </trkpt>
      <trkpt lat="47.4922" lon="6.76215">
        <ele>321</ele>
        <time>2016-07-28T12:06:46.000Z</time>
      </trkpt>
      <trkpt lat="47.49211" lon="6.76217">
        <ele>321</ele>
        <time>2016-07-28T12:06:47.000Z</time>
      </trkpt>
      <trkpt lat="47.49206" lon="6.76216">
        <ele>321</ele>
        <time>2016-07-28T12:06:48.000Z</time>
      </trkpt>
      <trkpt lat="47.492" lon="6.76216">
        <ele>321</ele>
        <time>2016-07-28T12:06:49.000Z</time>
      </trkpt>
      <trkpt lat="47.49195" lon="6.76216">
        <ele>320</ele>
        <time>2016-07-28T12:06:50.000Z</time>
      </trkpt>
      <trkpt lat="47.49189" lon="6.76216">
        <ele>320</ele>
        <time>2016-07-28T12:06:51.000Z</time>
      </trkpt>
      <trkpt lat="47.49184" lon="6.76218">
        <ele>320</ele>
        <time>2016-07-28T12:06:52.000Z</time>
      </trkpt>
      <trkpt lat="47.49179" lon="6.76219">
        <ele>320</ele>
        <time>2016-07-28T12:06:53.000Z</time>
      </trkpt>
      <trkpt lat="47.49174" lon="6.7622">
        <ele>319</ele>
        <time>2016-07-28T12:06:54.000Z</time>
      </trkpt>
      <trkpt lat="47.49169" lon="6.76219">
        <ele>319</ele>
        <time>2016-07-28T12:06:55.000Z</time>
      </trkpt>
      <trkpt lat="47.49165" lon="6.7622">
        <ele>319</ele>
        <time>2016-07-28T12:06:56.000Z</time>
      </trkpt>
      <trkpt lat="47.4916" lon="6.76221">
        <ele>319</ele>
        <time>2016-07-28T12:06:57.000Z</time>
      </trkpt>
      <trkpt lat="47.49156" lon="6.76222">
        <ele>319</ele>
        <time>2016-07-28T12:06:58.000Z</time>
      </trkpt>
      <trkpt lat="47.4915" lon="6.76223">
        <ele>320</ele>
        <time>2016-07-28T12:06:59.000Z</time>
      </trkpt>
      <trkpt lat="47.49146" lon="6.76223">
        <ele>320</ele>
        <time>2016-07-28T12:07:00.001Z</time>
      </trkpt>
      <trkpt lat="47.49142" lon="6.76224">
        <ele>320</ele>
        <time>2016-07-28T12:07:01.000Z</time>
      </trkpt>
      <trkpt lat="47.49138" lon="6.76226">
        <ele>320</ele>
        <time>2016-07-28T12:07:02.000Z</time>
      </trkpt>
      <trkpt lat="47.49134" lon="6.76227">
        <ele>320</ele>
        <time>2016-07-28T12:07:03.000Z</time>
      </trkpt>
      <trkpt lat="47.4913" lon="6.76229">
        <ele>321</ele>
        <time>2016-07-28T12:07:04.000Z</time>
      </trkpt>
      <trkpt lat="47.49127" lon="6.76232">
        <ele>321</ele>
        <time>2016-07-28T12:07:05.000Z</time>
      </trkpt>
      <trkpt lat="47.49124" lon="6.76236">
        <ele>321</ele>
        <time>2016-07-28T12:07:06.000Z</time>
      </trkpt>
      <trkpt lat="47.49121" lon="6.76242">
        <ele>321</ele>
        <time>2016-07-28T12:07:07.000Z</time>
      </trkpt>
      <trkpt lat="47.49126" lon="6.76252">
        <ele>320</ele>
        <time>2016-07-28T12:07:08.000Z</time>
      </trkpt>
      <trkpt lat="47.49126" lon="6.76259">
        <ele>320</ele>
        <time>2016-07-28T12:07:09.000Z</time>
      </trkpt>
      <trkpt lat="47.49126" lon="6.76266">
        <ele>320</ele>
        <time>2016-07-28T12:07:10.000Z</time>
      </trkpt>
      <trkpt lat="47.49125" lon="6.76272">
        <ele>320</ele>
        <time>2016-07-28T12:07:11.000Z</time>
      </trkpt>
      <trkpt lat="47.49125" lon="6.76279">
        <ele>320</ele>
        <time>2016-07-28T12:07:12.000Z</time>
      </trkpt>
      <trkpt lat="47.49125" lon="6.76285">
        <ele>320</ele>
        <time>2016-07-28T12:07:13.000Z</time>
      </trkpt>
      <trkpt lat="47.49124" lon="6.76292">
        <ele>320</ele>
        <time>2016-07-28T12:07:14.000Z</time>
      </trkpt>
      <trkpt lat="47.49125" lon="6.763">
        <ele>319</ele>
        <time>2016-07-28T12:07:15.000Z</time>
      </trkpt>
      <trkpt lat="47.49126" lon="6.76307">
        <ele>319</ele>
        <time>2016-07-28T12:07:16.000Z</time>
      </trkpt>
      <trkpt lat="47.49125" lon="6.76314">
        <ele>319</ele>
        <time>2016-07-28T12:07:17.000Z</time>
      </trkpt>
      <trkpt lat="47.49124" lon="6.76321">
        <ele>319</ele>
        <time>2016-07-28T12:07:18.000Z</time>
      </trkpt>
      <trkpt lat="47.49124" lon="6.76329">
        <ele>319</ele>
        <time>2016-07-28T12:07:19.000Z</time>
      </trkpt>
      <trkpt lat="47.49124" lon="6.76335">
        <ele>318</ele>
        <time>2016-07-28T12:07:20.000Z</time>
      </trkpt>
      <trkpt lat="47.49124" lon="6.76342">
        <ele>318</ele>
        <time>2016-07-28T12:07:21.000Z</time>
      </trkpt>
      <trkpt lat="47.49124" lon="6.76349">
        <ele>318</ele>
        <time>2016-07-28T12:07:22.000Z</time>
      </trkpt>
      <trkpt lat="47.49125" lon="6.76356">
        <ele>318</ele>
        <time>2016-07-28T12:07:23.000Z</time>
      </trkpt>
      <trkpt lat="47.49125" lon="6.76363">
        <ele>318</ele>
        <time>2016-07-28T12:07:24.000Z</time>
      </trkpt>
      <trkpt lat="47.49125" lon="6.76369">
        <ele>318</ele>
        <time>2016-07-28T12:07:25.000Z</time>
      </trkpt>
      <trkpt lat="47.49126" lon="6.76376">
        <ele>318</ele>
        <time>2016-07-28T12:07:26.000Z</time>
      </trkpt>
      <trkpt lat="47.49126" lon="6.76382">
        <ele>318</ele>
        <time>2016-07-28T12:07:27.000Z</time>
      </trkpt>
      <trkpt lat="47.49126" lon="6.76389">
        <ele>318</ele>
        <time>2016-07-28T12:07:28.000Z</time>
      </trkpt>
      <trkpt lat="47.49126" lon="6.76395">
        <ele>318</ele>
        <time>2016-07-28T12:07:29.000Z</time>
      </trkpt>
      <trkpt lat="47.49126" lon="6.764">
        <ele>318</ele>
        <time>2016-07-28T12:07:30.000Z</time>
      </trkpt>
      <trkpt lat="47.49127" lon="6.76407">
        <ele>317</ele>
        <time>2016-07-28T12:07:31.000Z</time>
      </trkpt>
      <trkpt lat="47.49127" lon="6.76413">
        <ele>317</ele>
        <time>2016-07-28T12:07:32.000Z</time>
      </trkpt>
      <trkpt lat="47.49127" lon="6.76418">
        <ele>317</ele>
        <time>2016-07-28T12:07:33.000Z</time>
      </trkpt>
      <trkpt lat="47.49127" lon="6.76423">
        <ele>317</ele>
        <time>2016-07-28T12:07:34.000Z</time>
      </trkpt>
      <trkpt lat="47.49127" lon="6.76427">
        <ele>317</ele>
        <time>2016-07-28T12:07:35.000Z</time>
      </trkpt>
      <trkpt lat="47.49122" lon="6.76429">
        <ele>317</ele>
        <time>2016-07-28T12:07:36.000Z</time>
      </trkpt>
      <trkpt lat="47.49119" lon="6.76429">
        <ele>317</ele>
        <time>2016-07-28T12:07:37.000Z</time>
      </trkpt>
      <trkpt lat="47.49115" lon="6.76428">
        <ele>318</ele>
        <time>2016-07-28T12:07:39.000Z</time>
      </trkpt>
      <trkpt lat="47.49113" lon="6.76428">
        <ele>318</ele>
        <time>2016-07-28T12:07:40.000Z</time>
      </trkpt>
      <trkpt lat="47.49109" lon="6.76428">
        <ele>318</ele>
        <time>2016-07-28T12:07:42.000Z</time>
      </trkpt>
      <trkpt lat="47.49107" lon="6.76428">
        <ele>318</ele>
        <time>2016-07-28T12:07:43.000Z</time>
      </trkpt>
      <trkpt lat="47.49104" lon="6.76426">
        <ele>318</ele>
        <time>2016-07-28T12:07:44.000Z</time>
      </trkpt>
      <trkpt lat="47.49102" lon="6.76424">
        <ele>319</ele>
        <time>2016-07-28T12:07:45.000Z</time>
      </trkpt>
      <trkpt lat="47.49101" lon="6.76421">
        <ele>319</ele>
        <time>2016-07-28T12:07:46.000Z</time>
      </trkpt>
      <trkpt lat="47.491" lon="6.76417">
        <ele>319</ele>
        <time>2016-07-28T12:07:47.000Z</time>
      </trkpt>
      <trkpt lat="47.49099" lon="6.76414">
        <ele>319</ele>
        <time>2016-07-28T12:07:48.000Z</time>
      </trkpt>
      <trkpt lat="47.49098" lon="6.76409">
        <ele>319</ele>
        <time>2016-07-28T12:07:49.000Z</time>
      </trkpt>
      <trkpt lat="47.49098" lon="6.76404">
        <ele>319</ele>
        <time>2016-07-28T12:07:50.000Z</time>
      </trkpt>
      <trkpt lat="47.49097" lon="6.76398">
        <ele>319</ele>
        <time>2016-07-28T12:07:51.000Z</time>
      </trkpt>
      <trkpt lat="47.49097" lon="6.76392">
        <ele>319</ele>
        <time>2016-07-28T12:07:52.000Z</time>
      </trkpt>
      <trkpt lat="47.49096" lon="6.76387">
        <ele>319</ele>
        <time>2016-07-28T12:07:53.000Z</time>
      </trkpt>
      <trkpt lat="47.49096" lon="6.76382">
        <ele>319</ele>
        <time>2016-07-28T12:07:54.000Z</time>
      </trkpt>
      <trkpt lat="47.49096" lon="6.76376">
        <ele>319</ele>
        <time>2016-07-28T12:07:55.000Z</time>
      </trkpt>
      <trkpt lat="47.49096" lon="6.7637">
        <ele>319</ele>
        <time>2016-07-28T12:07:56.000Z</time>
      </trkpt>
      <trkpt lat="47.49096" lon="6.76365">
        <ele>319</ele>
        <time>2016-07-28T12:07:57.000Z</time>
      </trkpt>
      <trkpt lat="47.49096" lon="6.76361">
        <ele>319</ele>
        <time>2016-07-28T12:07:58.000Z</time>
      </trkpt>
      <trkpt lat="47.49096" lon="6.76356">
        <ele>320</ele>
        <time>2016-07-28T12:07:59.000Z</time>
      </trkpt>
      <trkpt lat="47.49096" lon="6.76353">
        <ele>320</ele>
        <time>2016-07-28T12:08:00.000Z</time>
      </trkpt>
      <trkpt lat="47.49096" lon="6.7635">
        <ele>320</ele>
        <time>2016-07-28T12:08:01.000Z</time>
      </trkpt>
      <trkpt lat="47.49095" lon="6.76346">
        <ele>320</ele>
        <time>2016-07-28T12:08:02.000Z</time>
      </trkpt>
      <trkpt lat="47.49094" lon="6.76342">
        <ele>321</ele>
        <time>2016-07-28T12:08:03.000Z</time>
      </trkpt>
      <trkpt lat="47.49093" lon="6.76337">
        <ele>321</ele>
        <time>2016-07-28T12:08:04.000Z</time>
      </trkpt>
      <trkpt lat="47.49092" lon="6.76332">
        <ele>322</ele>
        <time>2016-07-28T12:08:05.000Z</time>
      </trkpt>
      <trkpt lat="47.49091" lon="6.76326">
        <ele>322</ele>
        <time>2016-07-28T12:08:06.000Z</time>
      </trkpt>
      <trkpt lat="47.49091" lon="6.7632">
        <ele>321</ele>
        <time>2016-07-28T12:08:07.000Z</time>
      </trkpt>
      <trkpt lat="47.49091" lon="6.76315">
        <ele>321</ele>
        <time>2016-07-28T12:08:08.000Z</time>
      </trkpt>
      <trkpt lat="47.4909" lon="6.76309">
        <ele>321</ele>
        <time>2016-07-28T12:08:09.000Z</time>
      </trkpt>
      <trkpt lat="47.4909" lon="6.76304">
        <ele>321</ele>
        <time>2016-07-28T12:08:10.000Z</time>
      </trkpt>
      <trkpt lat="47.4909" lon="6.763">
        <ele>321</ele>
        <time>2016-07-28T12:08:11.000Z</time>
      </trkpt>
      <trkpt lat="47.49089" lon="6.76296">
        <ele>321</ele>
        <time>2016-07-28T12:08:12.000Z</time>
      </trkpt>
      <trkpt lat="47.49088" lon="6.76293">
        <ele>321</ele>
        <time>2016-07-28T12:08:13.000Z</time>
      </trkpt>
      <trkpt lat="47.49088" lon="6.76289">
        <ele>321</ele>
        <time>2016-07-28T12:08:14.000Z</time>
      </trkpt>
      <trkpt lat="47.49087" lon="6.76285">
        <ele>321</ele>
        <time>2016-07-28T12:08:15.000Z</time>
      </trkpt>
      <trkpt lat="47.49086" lon="6.76281">
        <ele>321</ele>
        <time>2016-07-28T12:08:16.000Z</time>
      </trkpt>
      <trkpt lat="47.49086" lon="6.76278">
        <ele>322</ele>
        <time>2016-07-28T12:08:17.000Z</time>
      </trkpt>
      <trkpt lat="47.49086" lon="6.76273">
        <ele>322</ele>
        <time>2016-07-28T12:08:18.000Z</time>
      </trkpt>
      <trkpt lat="47.49086" lon="6.76268">
        <ele>322</ele>
        <time>2016-07-28T12:08:19.000Z</time>
      </trkpt>
      <trkpt lat="47.49086" lon="6.76261">
        <ele>323</ele>
        <time>2016-07-28T12:08:20.000Z</time>
      </trkpt>
      <trkpt lat="47.49087" lon="6.76255">
        <ele>324</ele>
        <time>2016-07-28T12:08:21.000Z</time>
      </trkpt>
      <trkpt lat="47.49087" lon="6.76249">
        <ele>324</ele>
        <time>2016-07-28T12:08:22.000Z</time>
      </trkpt>
      <trkpt lat="47.49088" lon="6.76243">
        <ele>324</ele>
        <time>2016-07-28T12:08:23.000Z</time>
      </trkpt>
      <trkpt lat="47.49088" lon="6.76237">
        <ele>323</ele>
        <time>2016-07-28T12:08:24.000Z</time>
      </trkpt>
      <trkpt lat="47.49088" lon="6.7623">
        <ele>323</ele>
        <time>2016-07-28T12:08:25.000Z</time>
      </trkpt>
      <trkpt lat="47.49089" lon="6.76225">
        <ele>323</ele>
        <time>2016-07-28T12:08:26.000Z</time>
      </trkpt>
      <trkpt lat="47.49089" lon="6.76218">
        <ele>322</ele>
        <time>2016-07-28T12:08:27.000Z</time>
      </trkpt>
      <trkpt lat="47.4909" lon="6.76213">
        <ele>322</ele>
        <time>2016-07-28T12:08:28.000Z</time>
      </trkpt>
      <trkpt lat="47.49091" lon="6.76209">
        <ele>322</ele>
        <time>2016-07-28T12:08:29.000Z</time>
      </trkpt>
      <trkpt lat="47.49092" lon="6.76204">
        <ele>322</ele>
        <time>2016-07-28T12:08:30.000Z</time>
      </trkpt>
      <trkpt lat="47.49092" lon="6.762">
        <ele>322</ele>
        <time>2016-07-28T12:08:31.000Z</time>
      </trkpt>
      <trkpt lat="47.49092" lon="6.76195">
        <ele>322</ele>
        <time>2016-07-28T12:08:32.000Z</time>
      </trkpt>
      <trkpt lat="47.49092" lon="6.76191">
        <ele>322</ele>
        <time>2016-07-28T12:08:33.000Z</time>
      </trkpt>
      <trkpt lat="47.49092" lon="6.76188">
        <ele>322</ele>
        <time>2016-07-28T12:08:34.000Z</time>
      </trkpt>
      <trkpt lat="47.49092" lon="6.76184">
        <ele>323</ele>
        <time>2016-07-28T12:08:35.000Z</time>
      </trkpt>
      <trkpt lat="47.49093" lon="6.76178">
        <ele>323</ele>
        <time>2016-07-28T12:08:36.000Z</time>
      </trkpt>
      <trkpt lat="47.49093" lon="6.76172">
        <ele>323</ele>
        <time>2016-07-28T12:08:37.000Z</time>
      </trkpt>
      <trkpt lat="47.49093" lon="6.76166">
        <ele>323</ele>
        <time>2016-07-28T12:08:38.000Z</time>
      </trkpt>
      <trkpt lat="47.49094" lon="6.7616">
        <ele>323</ele>
        <time>2016-07-28T12:08:39.000Z</time>
      </trkpt>
      <trkpt lat="47.49094" lon="6.76154">
        <ele>323</ele>
        <time>2016-07-28T12:08:40.000Z</time>
      </trkpt>
      <trkpt lat="47.49095" lon="6.76149">
        <ele>323</ele>
        <time>2016-07-28T12:08:41.000Z</time>
      </trkpt>
      <trkpt lat="47.49095" lon="6.76144">
        <ele>323</ele>
        <time>2016-07-28T12:08:42.000Z</time>
      </trkpt>
      <trkpt lat="47.49095" lon="6.76139">
        <ele>323</ele>
        <time>2016-07-28T12:08:43.000Z</time>
      </trkpt>
      <trkpt lat="47.49095" lon="6.76135">
        <ele>323</ele>
        <time>2016-07-28T12:08:44.000Z</time>
      </trkpt>
      <trkpt lat="47.49095" lon="6.76131">
        <ele>323</ele>
        <time>2016-07-28T12:08:45.000Z</time>
      </trkpt>
      <trkpt lat="47.49095" lon="6.76127">
        <ele>323</ele>
        <time>2016-07-28T12:08:46.000Z</time>
      </trkpt>
      <trkpt lat="47.49095" lon="6.76123">
        <ele>323</ele>
        <time>2016-07-28T12:08:47.000Z</time>
      </trkpt>
      <trkpt lat="47.49096" lon="6.76117">
        <ele>324</ele>
        <time>2016-07-28T12:08:49.000Z</time>
      </trkpt>
      <trkpt lat="47.49096" lon="6.76113">
        <ele>324</ele>
        <time>2016-07-28T12:08:50.000Z</time>
      </trkpt>
      <trkpt lat="47.49097" lon="6.76109">
        <ele>324</ele>
        <time>2016-07-28T12:08:51.000Z</time>
      </trkpt>
      <trkpt lat="47.49097" lon="6.76104">
        <ele>324</ele>
        <time>2016-07-28T12:08:52.000Z</time>
      </trkpt>
      <trkpt lat="47.49098" lon="6.761">
        <ele>325</ele>
        <time>2016-07-28T12:08:53.000Z</time>
      </trkpt>
      <trkpt lat="47.49099" lon="6.76095">
        <ele>325</ele>
        <time>2016-07-28T12:08:54.000Z</time>
      </trkpt>
      <trkpt lat="47.491" lon="6.7609">
        <ele>325</ele>
        <time>2016-07-28T12:08:55.000Z</time>
      </trkpt>
      <trkpt lat="47.49101" lon="6.76086">
        <ele>325</ele>
        <time>2016-07-28T12:08:56.000Z</time>
      </trkpt>
      <trkpt lat="47.49102" lon="6.76082">
        <ele>326</ele>
        <time>2016-07-28T12:08:57.000Z</time>
      </trkpt>
      <trkpt lat="47.49103" lon="6.76078">
        <ele>326</ele>
        <time>2016-07-28T12:08:58.000Z</time>
      </trkpt>
      <trkpt lat="47.49104" lon="6.76072">
        <ele>326</ele>
        <time>2016-07-28T12:08:59.000Z</time>
      </trkpt>
      <trkpt lat="47.49106" lon="6.76066">
        <ele>326</ele>
        <time>2016-07-28T12:09:00.000Z</time>
      </trkpt>
      <trkpt lat="47.49108" lon="6.7606">
        <ele>325</ele>
        <time>2016-07-28T12:09:01.000Z</time>
      </trkpt>
      <trkpt lat="47.49109" lon="6.76054">
        <ele>325</ele>
        <time>2016-07-28T12:09:02.000Z</time>
      </trkpt>
      <trkpt lat="47.49111" lon="6.76047">
        <ele>325</ele>
        <time>2016-07-28T12:09:03.000Z</time>
      </trkpt>
      <trkpt lat="47.49112" lon="6.76042">
        <ele>325</ele>
        <time>2016-07-28T12:09:04.000Z</time>
      </trkpt>
      <trkpt lat="47.49113" lon="6.76037">
        <ele>326</ele>
        <time>2016-07-28T12:09:05.000Z</time>
      </trkpt>
      <trkpt lat="47.49114" lon="6.76032">
        <ele>326</ele>
        <time>2016-07-28T12:09:06.000Z</time>
      </trkpt>
      <trkpt lat="47.49115" lon="6.76027">
        <ele>326</ele>
        <time>2016-07-28T12:09:07.000Z</time>
      </trkpt>
      <trkpt lat="47.49116" lon="6.76021">
        <ele>326</ele>
        <time>2016-07-28T12:09:08.000Z</time>
      </trkpt>
      <trkpt lat="47.49117" lon="6.76016">
        <ele>326</ele>
        <time>2016-07-28T12:09:09.000Z</time>
      </trkpt>
      <trkpt lat="47.49118" lon="6.7601">
        <ele>326</ele>
        <time>2016-07-28T12:09:10.000Z</time>
      </trkpt>
      <trkpt lat="47.4912" lon="6.76005">
        <ele>326</ele>
        <time>2016-07-28T12:09:11.000Z</time>
      </trkpt>
      <trkpt lat="47.49121" lon="6.76">
        <ele>328</ele>
        <time>2016-07-28T12:09:12.000Z</time>
      </trkpt>
      <trkpt lat="47.49121" lon="6.75995">
        <ele>328</ele>
        <time>2016-07-28T12:09:13.000Z</time>
      </trkpt>
      <trkpt lat="47.49122" lon="6.75991">
        <ele>328</ele>
        <time>2016-07-28T12:09:14.000Z</time>
      </trkpt>
      <trkpt lat="47.49123" lon="6.75986">
        <ele>328</ele>
        <time>2016-07-28T12:09:15.000Z</time>
      </trkpt>
      <trkpt lat="47.49124" lon="6.75982">
        <ele>328</ele>
        <time>2016-07-28T12:09:16.000Z</time>
      </trkpt>
      <trkpt lat="47.49125" lon="6.75978">
        <ele>328</ele>
        <time>2016-07-28T12:09:17.000Z</time>
      </trkpt>
      <trkpt lat="47.49126" lon="6.75973">
        <ele>328</ele>
        <time>2016-07-28T12:09:18.000Z</time>
      </trkpt>
      <trkpt lat="47.49128" lon="6.75967">
        <ele>328</ele>
        <time>2016-07-28T12:09:19.000Z</time>
      </trkpt>
      <trkpt lat="47.49129" lon="6.75962">
        <ele>328</ele>
        <time>2016-07-28T12:09:20.000Z</time>
      </trkpt>
      <trkpt lat="47.4913" lon="6.75957">
        <ele>328</ele>
        <time>2016-07-28T12:09:21.000Z</time>
      </trkpt>
      <trkpt lat="47.49132" lon="6.75953">
        <ele>328</ele>
        <time>2016-07-28T12:09:22.000Z</time>
      </trkpt>
      <trkpt lat="47.49133" lon="6.75948">
        <ele>328</ele>
        <time>2016-07-28T12:09:23.000Z</time>
      </trkpt>
      <trkpt lat="47.49135" lon="6.75943">
        <ele>328</ele>
        <time>2016-07-28T12:09:24.000Z</time>
      </trkpt>
      <trkpt lat="47.49136" lon="6.75937">
        <ele>328</ele>
        <time>2016-07-28T12:09:25.000Z</time>
      </trkpt>
      <trkpt lat="47.49138" lon="6.75929">
        <ele>327</ele>
        <time>2016-07-28T12:09:26.000Z</time>
      </trkpt>
      <trkpt lat="47.49139" lon="6.75922">
        <ele>327</ele>
        <time>2016-07-28T12:09:27.000Z</time>
      </trkpt>
      <trkpt lat="47.49141" lon="6.75914">
        <ele>330</ele>
        <time>2016-07-28T12:09:28.000Z</time>
      </trkpt>
      <trkpt lat="47.49142" lon="6.75907">
        <ele>330</ele>
        <time>2016-07-28T12:09:29.000Z</time>
      </trkpt>
      <trkpt lat="47.49144" lon="6.759">
        <ele>330</ele>
        <time>2016-07-28T12:09:30.000Z</time>
      </trkpt>
      <trkpt lat="47.49146" lon="6.75894">
        <ele>330</ele>
        <time>2016-07-28T12:09:31.000Z</time>
      </trkpt>
      <trkpt lat="47.49147" lon="6.75888">
        <ele>330</ele>
        <time>2016-07-28T12:09:32.000Z</time>
      </trkpt>
      <trkpt lat="47.49148" lon="6.75884">
        <ele>330</ele>
        <time>2016-07-28T12:09:33.000Z</time>
      </trkpt>
      <trkpt lat="47.49149" lon="6.75879">
        <ele>331</ele>
        <time>2016-07-28T12:09:34.000Z</time>
      </trkpt>
      <trkpt lat="47.49151" lon="6.75873">
        <ele>331</ele>
        <time>2016-07-28T12:09:35.000Z</time>
      </trkpt>
      <trkpt lat="47.49152" lon="6.75868">
        <ele>331</ele>
        <time>2016-07-28T12:09:36.000Z</time>
      </trkpt>
      <trkpt lat="47.49154" lon="6.75863">
        <ele>330</ele>
        <time>2016-07-28T12:09:37.000Z</time>
      </trkpt>
      <trkpt lat="47.49156" lon="6.75856">
        <ele>330</ele>
        <time>2016-07-28T12:09:38.000Z</time>
      </trkpt>
      <trkpt lat="47.49162" lon="6.75842">
        <ele>328</ele>
        <time>2016-07-28T12:09:39.000Z</time>
      </trkpt>
      <trkpt lat="47.49164" lon="6.75832">
        <ele>327</ele>
        <time>2016-07-28T12:09:40.000Z</time>
      </trkpt>
      <trkpt lat="47.49167" lon="6.75823">
        <ele>325</ele>
        <time>2016-07-28T12:09:41.000Z</time>
      </trkpt>
      <trkpt lat="47.49169" lon="6.75816">
        <ele>325</ele>
        <time>2016-07-28T12:09:42.000Z</time>
      </trkpt>
      <trkpt lat="47.4917" lon="6.75807">
        <ele>325</ele>
        <time>2016-07-28T12:09:43.000Z</time>
      </trkpt>
      <trkpt lat="47.49171" lon="6.758">
        <ele>325</ele>
        <time>2016-07-28T12:09:44.000Z</time>
      </trkpt>
      <trkpt lat="47.49173" lon="6.75794">
        <ele>326</ele>
        <time>2016-07-28T12:09:45.000Z</time>
      </trkpt>
      <trkpt lat="47.49176" lon="6.75786">
        <ele>326</ele>
        <time>2016-07-28T12:09:46.000Z</time>
      </trkpt>
      <trkpt lat="47.49178" lon="6.75777">
        <ele>327</ele>
        <time>2016-07-28T12:09:47.000Z</time>
      </trkpt>
      <trkpt lat="47.49181" lon="6.75766">
        <ele>328</ele>
        <time>2016-07-28T12:09:48.000Z</time>
      </trkpt>
      <trkpt lat="47.49183" lon="6.75757">
        <ele>329</ele>
        <time>2016-07-28T12:09:49.000Z</time>
      </trkpt>
      <trkpt lat="47.49184" lon="6.75749">
        <ele>333</ele>
        <time>2016-07-28T12:09:50.000Z</time>
      </trkpt>
      <trkpt lat="47.49186" lon="6.75741">
        <ele>333</ele>
        <time>2016-07-28T12:09:51.000Z</time>
      </trkpt>
      <trkpt lat="47.49188" lon="6.75734">
        <ele>332</ele>
        <time>2016-07-28T12:09:52.000Z</time>
      </trkpt>
      <trkpt lat="47.49189" lon="6.75728">
        <ele>332</ele>
        <time>2016-07-28T12:09:53.000Z</time>
      </trkpt>
      <trkpt lat="47.49191" lon="6.75722">
        <ele>332</ele>
        <time>2016-07-28T12:09:54.000Z</time>
      </trkpt>
      <trkpt lat="47.49194" lon="6.75716">
        <ele>332</ele>
        <time>2016-07-28T12:09:55.000Z</time>
      </trkpt>
      <trkpt lat="47.49197" lon="6.75709">
        <ele>333</ele>
        <time>2016-07-28T12:09:56.000Z</time>
      </trkpt>
      <trkpt lat="47.49199" lon="6.75703">
        <ele>333</ele>
        <time>2016-07-28T12:09:57.000Z</time>
      </trkpt>
      <trkpt lat="47.492" lon="6.75697">
        <ele>333</ele>
        <time>2016-07-28T12:09:58.000Z</time>
      </trkpt>
      <trkpt lat="47.49201" lon="6.75691">
        <ele>333</ele>
        <time>2016-07-28T12:09:59.000Z</time>
      </trkpt>
      <trkpt lat="47.49202" lon="6.75685">
        <ele>333</ele>
        <time>2016-07-28T12:10:00.000Z</time>
      </trkpt>
      <trkpt lat="47.49203" lon="6.75679">
        <ele>334</ele>
        <time>2016-07-28T12:10:01.000Z</time>
      </trkpt>
      <trkpt lat="47.49204" lon="6.75674">
        <ele>334</ele>
        <time>2016-07-28T12:10:02.000Z</time>
      </trkpt>
      <trkpt lat="47.49205" lon="6.75669">
        <ele>334</ele>
        <time>2016-07-28T12:10:03.000Z</time>
      </trkpt>
      <trkpt lat="47.49206" lon="6.75664">
        <ele>339</ele>
        <time>2016-07-28T12:10:04.000Z</time>
      </trkpt>
      <trkpt lat="47.49207" lon="6.75659">
        <ele>339</ele>
        <time>2016-07-28T12:10:05.000Z</time>
      </trkpt>
      <trkpt lat="47.49208" lon="6.75654">
        <ele>338</ele>
        <time>2016-07-28T12:10:06.000Z</time>
      </trkpt>
      <trkpt lat="47.4921" lon="6.75649">
        <ele>338</ele>
        <time>2016-07-28T12:10:07.000Z</time>
      </trkpt>
      <trkpt lat="47.49212" lon="6.75644">
        <ele>338</ele>
        <time>2016-07-28T12:10:08.000Z</time>
      </trkpt>
      <trkpt lat="47.49214" lon="6.75638">
        <ele>338</ele>
        <time>2016-07-28T12:10:09.000Z</time>
      </trkpt>
      <trkpt lat="47.49216" lon="6.75633">
        <ele>338</ele>
        <time>2016-07-28T12:10:10.000Z</time>
      </trkpt>
      <trkpt lat="47.49218" lon="6.75628">
        <ele>338</ele>
        <time>2016-07-28T12:10:11.000Z</time>
      </trkpt>
      <trkpt lat="47.49219" lon="6.75622">
        <ele>338</ele>
        <time>2016-07-28T12:10:12.000Z</time>
      </trkpt>
      <trkpt lat="47.49221" lon="6.75617">
        <ele>338</ele>
        <time>2016-07-28T12:10:13.000Z</time>
      </trkpt>
      <trkpt lat="47.49223" lon="6.75611">
        <ele>338</ele>
        <time>2016-07-28T12:10:14.000Z</time>
      </trkpt>
      <trkpt lat="47.49225" lon="6.75604">
        <ele>338</ele>
        <time>2016-07-28T12:10:15.000Z</time>
      </trkpt>
      <trkpt lat="47.49226" lon="6.75597">
        <ele>338</ele>
        <time>2016-07-28T12:10:16.000Z</time>
      </trkpt>
      <trkpt lat="47.49228" lon="6.7559">
        <ele>338</ele>
        <time>2016-07-28T12:10:17.000Z</time>
      </trkpt>
      <trkpt lat="47.49229" lon="6.75584">
        <ele>337</ele>
        <time>2016-07-28T12:10:18.000Z</time>
      </trkpt>
      <trkpt lat="47.49231" lon="6.75578">
        <ele>341</ele>
        <time>2016-07-28T12:10:19.000Z</time>
      </trkpt>
      <trkpt lat="47.49232" lon="6.75572">
        <ele>341</ele>
        <time>2016-07-28T12:10:20.000Z</time>
      </trkpt>
      <trkpt lat="47.49233" lon="6.75566">
        <ele>342</ele>
        <time>2016-07-28T12:10:21.000Z</time>
      </trkpt>
      <trkpt lat="47.49234" lon="6.7556">
        <ele>342</ele>
        <time>2016-07-28T12:10:22.000Z</time>
      </trkpt>
      <trkpt lat="47.49236" lon="6.75554">
        <ele>343</ele>
        <time>2016-07-28T12:10:23.000Z</time>
      </trkpt>
      <trkpt lat="47.49237" lon="6.75547">
        <ele>344</ele>
        <time>2016-07-28T12:10:24.000Z</time>
      </trkpt>
      <trkpt lat="47.49238" lon="6.75541">
        <ele>344</ele>
        <time>2016-07-28T12:10:25.000Z</time>
      </trkpt>
      <trkpt lat="47.49239" lon="6.75534">
        <ele>344</ele>
        <time>2016-07-28T12:10:26.000Z</time>
      </trkpt>
      <trkpt lat="47.4924" lon="6.75528">
        <ele>344</ele>
        <time>2016-07-28T12:10:27.000Z</time>
      </trkpt>
      <trkpt lat="47.49242" lon="6.75521">
        <ele>343</ele>
        <time>2016-07-28T12:10:28.000Z</time>
      </trkpt>
      <trkpt lat="47.49243" lon="6.75515">
        <ele>343</ele>
        <time>2016-07-28T12:10:29.000Z</time>
      </trkpt>
      <trkpt lat="47.49245" lon="6.7551">
        <ele>342</ele>
        <time>2016-07-28T12:10:30.000Z</time>
      </trkpt>
      <trkpt lat="47.49246" lon="6.75504">
        <ele>341</ele>
        <time>2016-07-28T12:10:31.000Z</time>
      </trkpt>
      <trkpt lat="47.49248" lon="6.75499">
        <ele>341</ele>
        <time>2016-07-28T12:10:32.000Z</time>
      </trkpt>
      <trkpt lat="47.49248" lon="6.75494">
        <ele>342</ele>
        <time>2016-07-28T12:10:33.000Z</time>
      </trkpt>
      <trkpt lat="47.49249" lon="6.75487">
        <ele>345</ele>
        <time>2016-07-28T12:10:34.000Z</time>
      </trkpt>
      <trkpt lat="47.49249" lon="6.7548">
        <ele>346</ele>
        <time>2016-07-28T12:10:35.000Z</time>
      </trkpt>
      <trkpt lat="47.4925" lon="6.75472">
        <ele>348</ele>
        <time>2016-07-28T12:10:36.000Z</time>
      </trkpt>
      <trkpt lat="47.4925" lon="6.75465">
        <ele>337</ele>
        <time>2016-07-28T12:10:37.000Z</time>
      </trkpt>
      <trkpt lat="47.49251" lon="6.75459">
        <ele>337</ele>
        <time>2016-07-28T12:10:38.000Z</time>
      </trkpt>
      <trkpt lat="47.49251" lon="6.75452">
        <ele>338</ele>
        <time>2016-07-28T12:10:39.000Z</time>
      </trkpt>
      <trkpt lat="47.49252" lon="6.75446">
        <ele>338</ele>
        <time>2016-07-28T12:10:40.000Z</time>
      </trkpt>
      <trkpt lat="47.49253" lon="6.7544">
        <ele>339</ele>
        <time>2016-07-28T12:10:41.000Z</time>
      </trkpt>
      <trkpt lat="47.49254" lon="6.75435">
        <ele>339</ele>
        <time>2016-07-28T12:10:42.000Z</time>
      </trkpt>
      <trkpt lat="47.49256" lon="6.7543">
        <ele>340</ele>
        <time>2016-07-28T12:10:43.000Z</time>
      </trkpt>
      <trkpt lat="47.49258" lon="6.75426">
        <ele>341</ele>
        <time>2016-07-28T12:10:44.000Z</time>
      </trkpt>
      <trkpt lat="47.49259" lon="6.7542">
        <ele>341</ele>
        <time>2016-07-28T12:10:45.000Z</time>
      </trkpt>
      <trkpt lat="47.49261" lon="6.75413">
        <ele>342</ele>
        <time>2016-07-28T12:10:46.000Z</time>
      </trkpt>
      <trkpt lat="47.49262" lon="6.75405">
        <ele>341</ele>
        <time>2016-07-28T12:10:47.000Z</time>
      </trkpt>
      <trkpt lat="47.49264" lon="6.75398">
        <ele>341</ele>
        <time>2016-07-28T12:10:48.000Z</time>
      </trkpt>
      <trkpt lat="47.49266" lon="6.75391">
        <ele>340</ele>
        <time>2016-07-28T12:10:49.000Z</time>
      </trkpt>
      <trkpt lat="47.49267" lon="6.75385">
        <ele>340</ele>
        <time>2016-07-28T12:10:50.000Z</time>
      </trkpt>
      <trkpt lat="47.49269" lon="6.75379">
        <ele>340</ele>
        <time>2016-07-28T12:10:51.000Z</time>
      </trkpt>
      <trkpt lat="47.49271" lon="6.75374">
        <ele>340</ele>
        <time>2016-07-28T12:10:52.000Z</time>
      </trkpt>
      <trkpt lat="47.49273" lon="6.75369">
        <ele>340</ele>
        <time>2016-07-28T12:10:53.000Z</time>
      </trkpt>
      <trkpt lat="47.49275" lon="6.75364">
        <ele>340</ele>
        <time>2016-07-28T12:10:54.000Z</time>
      </trkpt>
      <trkpt lat="47.49276" lon="6.75359">
        <ele>340</ele>
        <time>2016-07-28T12:10:55.000Z</time>
      </trkpt>
      <trkpt lat="47.49277" lon="6.75354">
        <ele>340</ele>
        <time>2016-07-28T12:10:56.000Z</time>
      </trkpt>
      <trkpt lat="47.49278" lon="6.75349">
        <ele>340</ele>
        <time>2016-07-28T12:10:57.000Z</time>
      </trkpt>
      <trkpt lat="47.49278" lon="6.75343">
        <ele>341</ele>
        <time>2016-07-28T12:10:58.000Z</time>
      </trkpt>
      <trkpt lat="47.49279" lon="6.75338">
        <ele>341</ele>
        <time>2016-07-28T12:10:59.000Z</time>
      </trkpt>
      <trkpt lat="47.49278" lon="6.75333">
        <ele>342</ele>
        <time>2016-07-28T12:11:00.000Z</time>
      </trkpt>
      <trkpt lat="47.49278" lon="6.75329">
        <ele>342</ele>
        <time>2016-07-28T12:11:01.000Z</time>
      </trkpt>
      <trkpt lat="47.49278" lon="6.75323">
        <ele>342</ele>
        <time>2016-07-28T12:11:02.000Z</time>
      </trkpt>
      <trkpt lat="47.49278" lon="6.75318">
        <ele>341</ele>
        <time>2016-07-28T12:11:03.000Z</time>
      </trkpt>
      <trkpt lat="47.49278" lon="6.75313">
        <ele>341</ele>
        <time>2016-07-28T12:11:04.000Z</time>
      </trkpt>
      <trkpt lat="47.49278" lon="6.75308">
        <ele>341</ele>
        <time>2016-07-28T12:11:05.000Z</time>
      </trkpt>
      <trkpt lat="47.49279" lon="6.75303">
        <ele>341</ele>
        <time>2016-07-28T12:11:06.000Z</time>
      </trkpt>
      <trkpt lat="47.49279" lon="6.75299">
        <ele>341</ele>
        <time>2016-07-28T12:11:07.000Z</time>
      </trkpt>
      <trkpt lat="47.49279" lon="6.75294">
        <ele>341</ele>
        <time>2016-07-28T12:11:08.000Z</time>
      </trkpt>
      <trkpt lat="47.49279" lon="6.75289">
        <ele>341</ele>
        <time>2016-07-28T12:11:09.000Z</time>
      </trkpt>
      <trkpt lat="47.49279" lon="6.75284">
        <ele>341</ele>
        <time>2016-07-28T12:11:10.000Z</time>
      </trkpt>
      <trkpt lat="47.4928" lon="6.75278">
        <ele>341</ele>
        <time>2016-07-28T12:11:11.000Z</time>
      </trkpt>
      <trkpt lat="47.4928" lon="6.75273">
        <ele>341</ele>
        <time>2016-07-28T12:11:12.000Z</time>
      </trkpt>
      <trkpt lat="47.49281" lon="6.75267">
        <ele>341</ele>
        <time>2016-07-28T12:11:13.000Z</time>
      </trkpt>
      <trkpt lat="47.49281" lon="6.75262">
        <ele>342</ele>
        <time>2016-07-28T12:11:14.000Z</time>
      </trkpt>
      <trkpt lat="47.4928" lon="6.75257">
        <ele>342</ele>
        <time>2016-07-28T12:11:15.000Z</time>
      </trkpt>
      <trkpt lat="47.4928" lon="6.75252">
        <ele>342</ele>
        <time>2016-07-28T12:11:16.000Z</time>
      </trkpt>
      <trkpt lat="47.49279" lon="6.75247">
        <ele>344</ele>
        <time>2016-07-28T12:11:17.000Z</time>
      </trkpt>
      <trkpt lat="47.49279" lon="6.75242">
        <ele>344</ele>
        <time>2016-07-28T12:11:18.000Z</time>
      </trkpt>
      <trkpt lat="47.49278" lon="6.75238">
        <ele>344</ele>
        <time>2016-07-28T12:11:19.000Z</time>
      </trkpt>
      <trkpt lat="47.49278" lon="6.75233">
        <ele>344</ele>
        <time>2016-07-28T12:11:20.000Z</time>
      </trkpt>
      <trkpt lat="47.49278" lon="6.75229">
        <ele>344</ele>
        <time>2016-07-28T12:11:21.000Z</time>
      </trkpt>
      <trkpt lat="47.49277" lon="6.75224">
        <ele>344</ele>
        <time>2016-07-28T12:11:22.000Z</time>
      </trkpt>
      <trkpt lat="47.49277" lon="6.75219">
        <ele>344</ele>
        <time>2016-07-28T12:11:23.000Z</time>
      </trkpt>
      <trkpt lat="47.49276" lon="6.75214">
        <ele>344</ele>
        <time>2016-07-28T12:11:24.000Z</time>
      </trkpt>
      <trkpt lat="47.49276" lon="6.75209">
        <ele>345</ele>
        <time>2016-07-28T12:11:25.000Z</time>
      </trkpt>
      <trkpt lat="47.49276" lon="6.75204">
        <ele>345</ele>
        <time>2016-07-28T12:11:26.000Z</time>
      </trkpt>
      <trkpt lat="47.49277" lon="6.75199">
        <ele>345</ele>
        <time>2016-07-28T12:11:27.000Z</time>
      </trkpt>
      <trkpt lat="47.49278" lon="6.75189">
        <ele>345</ele>
        <time>2016-07-28T12:11:29.000Z</time>
      </trkpt>
      <trkpt lat="47.49278" lon="6.75183">
        <ele>346</ele>
        <time>2016-07-28T12:11:30.000Z</time>
      </trkpt>
      <trkpt lat="47.49279" lon="6.75177">
        <ele>346</ele>
        <time>2016-07-28T12:11:31.000Z</time>
      </trkpt>
      <trkpt lat="47.49279" lon="6.7517">
        <ele>346</ele>
        <time>2016-07-28T12:11:32.000Z</time>
      </trkpt>
      <trkpt lat="47.4928" lon="6.75164">
        <ele>348</ele>
        <time>2016-07-28T12:11:33.000Z</time>
      </trkpt>
      <trkpt lat="47.4928" lon="6.75158">
        <ele>348</ele>
        <time>2016-07-28T12:11:34.000Z</time>
      </trkpt>
      <trkpt lat="47.49281" lon="6.75153">
        <ele>348</ele>
        <time>2016-07-28T12:11:35.000Z</time>
      </trkpt>
      <trkpt lat="47.49281" lon="6.75148">
        <ele>348</ele>
        <time>2016-07-28T12:11:36.000Z</time>
      </trkpt>
      <trkpt lat="47.49282" lon="6.75143">
        <ele>348</ele>
        <time>2016-07-28T12:11:37.000Z</time>
      </trkpt>
      <trkpt lat="47.49283" lon="6.75137">
        <ele>348</ele>
        <time>2016-07-28T12:11:38.000Z</time>
      </trkpt>
      <trkpt lat="47.49285" lon="6.75131">
        <ele>348</ele>
        <time>2016-07-28T12:11:39.000Z</time>
      </trkpt>
      <trkpt lat="47.49287" lon="6.75125">
        <ele>348</ele>
        <time>2016-07-28T12:11:40.000Z</time>
      </trkpt>
      <trkpt lat="47.49288" lon="6.7512">
        <ele>348</ele>
        <time>2016-07-28T12:11:41.000Z</time>
      </trkpt>
      <trkpt lat="47.4929" lon="6.75114">
        <ele>347</ele>
        <time>2016-07-28T12:11:42.000Z</time>
      </trkpt>
      <trkpt lat="47.49293" lon="6.75107">
        <ele>347</ele>
        <time>2016-07-28T12:11:43.000Z</time>
      </trkpt>
      <trkpt lat="47.49301" lon="6.75091">
        <ele>346</ele>
        <time>2016-07-28T12:11:44.000Z</time>
      </trkpt>
      <trkpt lat="47.49304" lon="6.75085">
        <ele>345</ele>
        <time>2016-07-28T12:11:45.000Z</time>
      </trkpt>
      <trkpt lat="47.49309" lon="6.75077">
        <ele>347</ele>
        <time>2016-07-28T12:11:46.000Z</time>
      </trkpt>
      <trkpt lat="47.49312" lon="6.75071">
        <ele>346</ele>
        <time>2016-07-28T12:11:47.000Z</time>
      </trkpt>
      <trkpt lat="47.49317" lon="6.75063">
        <ele>346</ele>
        <time>2016-07-28T12:11:48.000Z</time>
      </trkpt>
      <trkpt lat="47.4932" lon="6.75056">
        <ele>347</ele>
        <time>2016-07-28T12:11:49.000Z</time>
      </trkpt>
      <trkpt lat="47.49322" lon="6.75051">
        <ele>347</ele>
        <time>2016-07-28T12:11:50.000Z</time>
      </trkpt>
      <trkpt lat="47.49324" lon="6.75045">
        <ele>347</ele>
        <time>2016-07-28T12:11:51.000Z</time>
      </trkpt>
      <trkpt lat="47.49325" lon="6.75041">
        <ele>347</ele>
        <time>2016-07-28T12:11:52.000Z</time>
      </trkpt>
      <trkpt lat="47.49325" lon="6.75036">
        <ele>347</ele>
        <time>2016-07-28T12:11:53.000Z</time>
      </trkpt>
      <trkpt lat="47.49326" lon="6.75031">
        <ele>347</ele>
        <time>2016-07-28T12:11:54.000Z</time>
      </trkpt>
      <trkpt lat="47.49326" lon="6.75027">
        <ele>347</ele>
        <time>2016-07-28T12:11:55.000Z</time>
      </trkpt>
      <trkpt lat="47.49325" lon="6.75022">
        <ele>347</ele>
        <time>2016-07-28T12:11:56.000Z</time>
      </trkpt>
      <trkpt lat="47.49325" lon="6.75019">
        <ele>347</ele>
        <time>2016-07-28T12:11:57.000Z</time>
      </trkpt>
      <trkpt lat="47.49324" lon="6.75015">
        <ele>347</ele>
        <time>2016-07-28T12:11:58.000Z</time>
      </trkpt>
      <trkpt lat="47.49324" lon="6.75011">
        <ele>346</ele>
        <time>2016-07-28T12:11:59.000Z</time>
      </trkpt>
      <trkpt lat="47.49323" lon="6.75006">
        <ele>346</ele>
        <time>2016-07-28T12:12:01.000Z</time>
      </trkpt>
      <trkpt lat="47.49323" lon="6.75004">
        <ele>346</ele>
        <time>2016-07-28T12:12:02.000Z</time>
      </trkpt>
      <trkpt lat="47.49324" lon="6.74998">
        <ele>347</ele>
        <time>2016-07-28T12:12:04.000Z</time>
      </trkpt>
      <trkpt lat="47.49324" lon="6.74996">
        <ele>347</ele>
        <time>2016-07-28T12:12:05.000Z</time>
      </trkpt>
      <trkpt lat="47.49324" lon="6.7499">
        <ele>348</ele>
        <time>2016-07-28T12:12:07.000Z</time>
      </trkpt>
      <trkpt lat="47.49325" lon="6.74987">
        <ele>349</ele>
        <time>2016-07-28T12:12:08.000Z</time>
      </trkpt>
      <trkpt lat="47.49326" lon="6.74982">
        <ele>350</ele>
        <time>2016-07-28T12:12:10.000Z</time>
      </trkpt>
      <trkpt lat="47.49326" lon="6.74979">
        <ele>350</ele>
        <time>2016-07-28T12:12:11.000Z</time>
      </trkpt>
      <trkpt lat="47.49327" lon="6.74975">
        <ele>351</ele>
        <time>2016-07-28T12:12:13.000Z</time>
      </trkpt>
      <trkpt lat="47.49327" lon="6.74973">
        <ele>351</ele>
        <time>2016-07-28T12:12:14.000Z</time>
      </trkpt>
      <trkpt lat="47.49326" lon="6.74967">
        <ele>352</ele>
        <time>2016-07-28T12:12:17.000Z</time>
      </trkpt>
      <trkpt lat="47.49326" lon="6.74965">
        <ele>352</ele>
        <time>2016-07-28T12:12:18.000Z</time>
      </trkpt>
      <trkpt lat="47.49326" lon="6.74959">
        <ele>352</ele>
        <time>2016-07-28T12:12:21.000Z</time>
      </trkpt>
      <trkpt lat="47.49326" lon="6.74957">
        <ele>352</ele>
        <time>2016-07-28T12:12:22.000Z</time>
      </trkpt>
      <trkpt lat="47.49326" lon="6.74951">
        <ele>352</ele>
        <time>2016-07-28T12:12:25.000Z</time>
      </trkpt>
      <trkpt lat="47.49325" lon="6.74949">
        <ele>352</ele>
        <time>2016-07-28T12:12:26.000Z</time>
      </trkpt>
      <trkpt lat="47.49323" lon="6.74944">
        <ele>353</ele>
        <time>2016-07-28T12:12:28.000Z</time>
      </trkpt>
      <trkpt lat="47.49322" lon="6.74941">
        <ele>353</ele>
        <time>2016-07-28T12:12:29.000Z</time>
      </trkpt>
      <trkpt lat="47.4932" lon="6.74936">
        <ele>353</ele>
        <time>2016-07-28T12:12:31.000Z</time>
      </trkpt>
      <trkpt lat="47.4932" lon="6.74934">
        <ele>352</ele>
        <time>2016-07-28T12:12:32.000Z</time>
      </trkpt>
      <trkpt lat="47.49322" lon="6.7493">
        <ele>352</ele>
        <time>2016-07-28T12:12:33.000Z</time>
      </trkpt>
      <trkpt lat="47.49324" lon="6.74926">
        <ele>351</ele>
        <time>2016-07-28T12:12:34.000Z</time>
      </trkpt>
      <trkpt lat="47.49326" lon="6.74921">
        <ele>350</ele>
        <time>2016-07-28T12:12:35.000Z</time>
      </trkpt>
      <trkpt lat="47.49329" lon="6.74915">
        <ele>350</ele>
        <time>2016-07-28T12:12:36.000Z</time>
      </trkpt>
      <trkpt lat="47.49331" lon="6.7491">
        <ele>351</ele>
        <time>2016-07-28T12:12:37.000Z</time>
      </trkpt>
      <trkpt lat="47.4934" lon="6.74895">
        <ele>344</ele>
        <time>2016-07-28T12:12:38.000Z</time>
      </trkpt>
      <trkpt lat="47.49344" lon="6.74889">
        <ele>344</ele>
        <time>2016-07-28T12:12:39.000Z</time>
      </trkpt>
      <trkpt lat="47.49347" lon="6.74886">
        <ele>343</ele>
        <time>2016-07-28T12:12:40.000Z</time>
      </trkpt>
      <trkpt lat="47.49346" lon="6.74883">
        <ele>343</ele>
        <time>2016-07-28T12:12:41.000Z</time>
      </trkpt>
      <trkpt lat="47.49347" lon="6.74878">
        <ele>343</ele>
        <time>2016-07-28T12:12:42.000Z</time>
      </trkpt>
      <trkpt lat="47.49348" lon="6.74871">
        <ele>343</ele>
        <time>2016-07-28T12:12:43.000Z</time>
      </trkpt>
      <trkpt lat="47.4935" lon="6.74868">
        <ele>343</ele>
        <time>2016-07-28T12:12:44.000Z</time>
      </trkpt>
      <trkpt lat="47.49353" lon="6.74863">
        <ele>343</ele>
        <time>2016-07-28T12:12:45.000Z</time>
      </trkpt>
      <trkpt lat="47.49355" lon="6.74859">
        <ele>343</ele>
        <time>2016-07-28T12:12:46.000Z</time>
      </trkpt>
      <trkpt lat="47.49357" lon="6.74854">
        <ele>343</ele>
        <time>2016-07-28T12:12:47.000Z</time>
      </trkpt>
      <trkpt lat="47.49359" lon="6.7485">
        <ele>343</ele>
        <time>2016-07-28T12:12:48.000Z</time>
      </trkpt>
      <trkpt lat="47.49361" lon="6.74846">
        <ele>343</ele>
        <time>2016-07-28T12:12:49.000Z</time>
      </trkpt>
      <trkpt lat="47.49362" lon="6.74843">
        <ele>343</ele>
        <time>2016-07-28T12:12:50.000Z</time>
      </trkpt>
      <trkpt lat="47.49364" lon="6.74838">
        <ele>343</ele>
        <time>2016-07-28T12:12:51.000Z</time>
      </trkpt>
      <trkpt lat="47.49365" lon="6.74832">
        <ele>344</ele>
        <time>2016-07-28T12:12:52.000Z</time>
      </trkpt>
      <trkpt lat="47.49367" lon="6.74826">
        <ele>344</ele>
        <time>2016-07-28T12:12:53.000Z</time>
      </trkpt>
      <trkpt lat="47.49368" lon="6.7482">
        <ele>344</ele>
        <time>2016-07-28T12:12:54.000Z</time>
      </trkpt>
      <trkpt lat="47.49369" lon="6.74813">
        <ele>344</ele>
        <time>2016-07-28T12:12:55.000Z</time>
      </trkpt>
      <trkpt lat="47.49369" lon="6.74806">
        <ele>344</ele>
        <time>2016-07-28T12:12:56.000Z</time>
      </trkpt>
      <trkpt lat="47.49369" lon="6.74798">
        <ele>345</ele>
        <time>2016-07-28T12:12:57.000Z</time>
      </trkpt>
      <trkpt lat="47.49372" lon="6.74784">
        <ele>345</ele>
        <time>2016-07-28T12:12:58.000Z</time>
      </trkpt>
      <trkpt lat="47.49373" lon="6.74776">
        <ele>345</ele>
        <time>2016-07-28T12:12:59.000Z</time>
      </trkpt>
      <trkpt lat="47.49374" lon="6.74769">
        <ele>345</ele>
        <time>2016-07-28T12:13:00.000Z</time>
      </trkpt>
      <trkpt lat="47.49374" lon="6.74762">
        <ele>345</ele>
        <time>2016-07-28T12:13:01.000Z</time>
      </trkpt>
      <trkpt lat="47.49376" lon="6.74753">
        <ele>345</ele>
        <time>2016-07-28T12:13:02.000Z</time>
      </trkpt>
      <trkpt lat="47.49377" lon="6.74746">
        <ele>348</ele>
        <time>2016-07-28T12:13:03.000Z</time>
      </trkpt>
      <trkpt lat="47.49377" lon="6.7474">
        <ele>348</ele>
        <time>2016-07-28T12:13:04.000Z</time>
      </trkpt>
      <trkpt lat="47.49378" lon="6.74735">
        <ele>348</ele>
        <time>2016-07-28T12:13:05.000Z</time>
      </trkpt>
      <trkpt lat="47.49376" lon="6.74727">
        <ele>348</ele>
        <time>2016-07-28T12:13:06.000Z</time>
      </trkpt>
      <trkpt lat="47.49376" lon="6.74721">
        <ele>348</ele>
        <time>2016-07-28T12:13:07.000Z</time>
      </trkpt>
      <trkpt lat="47.49375" lon="6.74715">
        <ele>348</ele>
        <time>2016-07-28T12:13:08.000Z</time>
      </trkpt>
      <trkpt lat="47.49376" lon="6.74709">
        <ele>348</ele>
        <time>2016-07-28T12:13:09.000Z</time>
      </trkpt>
      <trkpt lat="47.49377" lon="6.74704">
        <ele>348</ele>
        <time>2016-07-28T12:13:10.000Z</time>
      </trkpt>
      <trkpt lat="47.49377" lon="6.74699">
        <ele>348</ele>
        <time>2016-07-28T12:13:11.000Z</time>
      </trkpt>
      <trkpt lat="47.49379" lon="6.74692">
        <ele>348</ele>
        <time>2016-07-28T12:13:12.000Z</time>
      </trkpt>
      <trkpt lat="47.4938" lon="6.74687">
        <ele>348</ele>
        <time>2016-07-28T12:13:13.000Z</time>
      </trkpt>
      <trkpt lat="47.49381" lon="6.74681">
        <ele>348</ele>
        <time>2016-07-28T12:13:14.000Z</time>
      </trkpt>
      <trkpt lat="47.49382" lon="6.74674">
        <ele>348</ele>
        <time>2016-07-28T12:13:15.000Z</time>
      </trkpt>
      <trkpt lat="47.49382" lon="6.74669">
        <ele>348</ele>
        <time>2016-07-28T12:13:16.000Z</time>
      </trkpt>
      <trkpt lat="47.49383" lon="6.74662">
        <ele>349</ele>
        <time>2016-07-28T12:13:17.000Z</time>
      </trkpt>
      <trkpt lat="47.49384" lon="6.74655">
        <ele>349</ele>
        <time>2016-07-28T12:13:18.000Z</time>
      </trkpt>
      <trkpt lat="47.49388" lon="6.74639">
        <ele>349</ele>
        <time>2016-07-28T12:13:19.000Z</time>
      </trkpt>
      <trkpt lat="47.49389" lon="6.74629">
        <ele>349</ele>
        <time>2016-07-28T12:13:20.000Z</time>
      </trkpt>
      <trkpt lat="47.49391" lon="6.74618">
        <ele>349</ele>
        <time>2016-07-28T12:13:21.000Z</time>
      </trkpt>
      <trkpt lat="47.49392" lon="6.74612">
        <ele>349</ele>
        <time>2016-07-28T12:13:22.000Z</time>
      </trkpt>
      <trkpt lat="47.49392" lon="6.74606">
        <ele>348</ele>
        <time>2016-07-28T12:13:23.000Z</time>
      </trkpt>
      <trkpt lat="47.49393" lon="6.746">
        <ele>348</ele>
        <time>2016-07-28T12:13:24.000Z</time>
      </trkpt>
      <trkpt lat="47.49392" lon="6.74595">
        <ele>348</ele>
        <time>2016-07-28T12:13:25.000Z</time>
      </trkpt>
      <trkpt lat="47.49391" lon="6.74589">
        <ele>348</ele>
        <time>2016-07-28T12:13:26.000Z</time>
      </trkpt>
      <trkpt lat="47.49389" lon="6.74582">
        <ele>350</ele>
        <time>2016-07-28T12:13:27.000Z</time>
      </trkpt>
      <trkpt lat="47.49388" lon="6.74574">
        <ele>350</ele>
        <time>2016-07-28T12:13:28.000Z</time>
      </trkpt>
      <trkpt lat="47.49388" lon="6.74567">
        <ele>350</ele>
        <time>2016-07-28T12:13:29.000Z</time>
      </trkpt>
      <trkpt lat="47.4939" lon="6.7456">
        <ele>351</ele>
        <time>2016-07-28T12:13:30.000Z</time>
      </trkpt>
      <trkpt lat="47.49389" lon="6.74553">
        <ele>351</ele>
        <time>2016-07-28T12:13:31.000Z</time>
      </trkpt>
      <trkpt lat="47.49389" lon="6.74547">
        <ele>351</ele>
        <time>2016-07-28T12:13:32.000Z</time>
      </trkpt>
      <trkpt lat="47.49389" lon="6.74542">
        <ele>351</ele>
        <time>2016-07-28T12:13:33.000Z</time>
      </trkpt>
      <trkpt lat="47.49388" lon="6.74536">
        <ele>352</ele>
        <time>2016-07-28T12:13:34.000Z</time>
      </trkpt>
      <trkpt lat="47.49388" lon="6.74529">
        <ele>352</ele>
        <time>2016-07-28T12:13:35.000Z</time>
      </trkpt>
      <trkpt lat="47.49388" lon="6.74523">
        <ele>352</ele>
        <time>2016-07-28T12:13:36.000Z</time>
      </trkpt>
      <trkpt lat="47.49387" lon="6.74517">
        <ele>352</ele>
        <time>2016-07-28T12:13:37.000Z</time>
      </trkpt>
      <trkpt lat="47.49387" lon="6.74511">
        <ele>352</ele>
        <time>2016-07-28T12:13:38.000Z</time>
      </trkpt>
      <trkpt lat="47.49387" lon="6.74505">
        <ele>352</ele>
        <time>2016-07-28T12:13:39.000Z</time>
      </trkpt>
      <trkpt lat="47.49387" lon="6.74498">
        <ele>353</ele>
        <time>2016-07-28T12:13:40.000Z</time>
      </trkpt>
      <trkpt lat="47.49386" lon="6.74491">
        <ele>353</ele>
        <time>2016-07-28T12:13:41.000Z</time>
      </trkpt>
      <trkpt lat="47.49385" lon="6.74485">
        <ele>353</ele>
        <time>2016-07-28T12:13:42.000Z</time>
      </trkpt>
      <trkpt lat="47.49384" lon="6.74478">
        <ele>354</ele>
        <time>2016-07-28T12:13:43.000Z</time>
      </trkpt>
      <trkpt lat="47.49383" lon="6.74472">
        <ele>354</ele>
        <time>2016-07-28T12:13:44.000Z</time>
      </trkpt>
      <trkpt lat="47.49382" lon="6.74467">
        <ele>354</ele>
        <time>2016-07-28T12:13:45.000Z</time>
      </trkpt>
      <trkpt lat="47.49382" lon="6.74461">
        <ele>354</ele>
        <time>2016-07-28T12:13:46.000Z</time>
      </trkpt>
      <trkpt lat="47.49382" lon="6.74454">
        <ele>354</ele>
        <time>2016-07-28T12:13:47.000Z</time>
      </trkpt>
      <trkpt lat="47.49382" lon="6.74448">
        <ele>354</ele>
        <time>2016-07-28T12:13:48.000Z</time>
      </trkpt>
      <trkpt lat="47.49383" lon="6.74442">
        <ele>354</ele>
        <time>2016-07-28T12:13:49.000Z</time>
      </trkpt>
      <trkpt lat="47.49383" lon="6.74435">
        <ele>354</ele>
        <time>2016-07-28T12:13:50.000Z</time>
      </trkpt>
      <trkpt lat="47.49383" lon="6.74429">
        <ele>354</ele>
        <time>2016-07-28T12:13:51.000Z</time>
      </trkpt>
      <trkpt lat="47.49383" lon="6.74424">
        <ele>354</ele>
        <time>2016-07-28T12:13:52.000Z</time>
      </trkpt>
      <trkpt lat="47.49382" lon="6.74419">
        <ele>354</ele>
        <time>2016-07-28T12:13:53.000Z</time>
      </trkpt>
      <trkpt lat="47.49382" lon="6.74415">
        <ele>354</ele>
        <time>2016-07-28T12:13:54.000Z</time>
      </trkpt>
      <trkpt lat="47.49382" lon="6.7441">
        <ele>354</ele>
        <time>2016-07-28T12:13:55.000Z</time>
      </trkpt>
      <trkpt lat="47.49383" lon="6.74405">
        <ele>354</ele>
        <time>2016-07-28T12:13:56.000Z</time>
      </trkpt>
      <trkpt lat="47.49384" lon="6.74399">
        <ele>354</ele>
        <time>2016-07-28T12:13:57.000Z</time>
      </trkpt>
      <trkpt lat="47.49385" lon="6.74394">
        <ele>354</ele>
        <time>2016-07-28T12:13:58.000Z</time>
      </trkpt>
      <trkpt lat="47.49386" lon="6.74388">
        <ele>354</ele>
        <time>2016-07-28T12:13:59.000Z</time>
      </trkpt>
      <trkpt lat="47.49386" lon="6.74384">
        <ele>354</ele>
        <time>2016-07-28T12:14:00.000Z</time>
      </trkpt>
      <trkpt lat="47.49387" lon="6.74379">
        <ele>354</ele>
        <time>2016-07-28T12:14:01.000Z</time>
      </trkpt>
      <trkpt lat="47.49387" lon="6.74373">
        <ele>354</ele>
        <time>2016-07-28T12:14:02.000Z</time>
      </trkpt>
      <trkpt lat="47.49388" lon="6.74367">
        <ele>354</ele>
        <time>2016-07-28T12:14:03.000Z</time>
      </trkpt>
      <trkpt lat="47.49388" lon="6.74361">
        <ele>354</ele>
        <time>2016-07-28T12:14:04.000Z</time>
      </trkpt>
      <trkpt lat="47.49388" lon="6.74354">
        <ele>354</ele>
        <time>2016-07-28T12:14:05.000Z</time>
      </trkpt>
      <trkpt lat="47.49389" lon="6.74347">
        <ele>353</ele>
        <time>2016-07-28T12:14:06.000Z</time>
      </trkpt>
      <trkpt lat="47.4939" lon="6.7434">
        <ele>353</ele>
        <time>2016-07-28T12:14:07.000Z</time>
      </trkpt>
      <trkpt lat="47.4939" lon="6.74333">
        <ele>353</ele>
        <time>2016-07-28T12:14:08.000Z</time>
      </trkpt>
      <trkpt lat="47.49391" lon="6.74327">
        <ele>353</ele>
        <time>2016-07-28T12:14:09.000Z</time>
      </trkpt>
      <trkpt lat="47.49392" lon="6.74321">
        <ele>353</ele>
        <time>2016-07-28T12:14:10.000Z</time>
      </trkpt>
      <trkpt lat="47.49393" lon="6.74315">
        <ele>353</ele>
        <time>2016-07-28T12:14:11.000Z</time>
      </trkpt>
      <trkpt lat="47.49394" lon="6.7431">
        <ele>353</ele>
        <time>2016-07-28T12:14:12.000Z</time>
      </trkpt>
      <trkpt lat="47.49394" lon="6.74305">
        <ele>354</ele>
        <time>2016-07-28T12:14:13.000Z</time>
      </trkpt>
      <trkpt lat="47.49394" lon="6.74299">
        <ele>354</ele>
        <time>2016-07-28T12:14:15.000Z</time>
      </trkpt>
      <trkpt lat="47.49394" lon="6.74296">
        <ele>354</ele>
        <time>2016-07-28T12:14:16.000Z</time>
      </trkpt>
      <trkpt lat="47.49394" lon="6.74292">
        <ele>354</ele>
        <time>2016-07-28T12:14:17.000Z</time>
      </trkpt>
      <trkpt lat="47.49394" lon="6.74287">
        <ele>354</ele>
        <time>2016-07-28T12:14:18.000Z</time>
      </trkpt>
      <trkpt lat="47.49395" lon="6.74281">
        <ele>354</ele>
        <time>2016-07-28T12:14:19.000Z</time>
      </trkpt>
      <trkpt lat="47.49395" lon="6.74274">
        <ele>353</ele>
        <time>2016-07-28T12:14:20.000Z</time>
      </trkpt>
      <trkpt lat="47.49395" lon="6.74267">
        <ele>353</ele>
        <time>2016-07-28T12:14:21.000Z</time>
      </trkpt>
      <trkpt lat="47.49396" lon="6.74261">
        <ele>352</ele>
        <time>2016-07-28T12:14:22.000Z</time>
      </trkpt>
      <trkpt lat="47.49396" lon="6.74253">
        <ele>352</ele>
        <time>2016-07-28T12:14:23.000Z</time>
      </trkpt>
      <trkpt lat="47.494" lon="6.74234">
        <ele>352</ele>
        <time>2016-07-28T12:14:24.000Z</time>
      </trkpt>
      <trkpt lat="47.49401" lon="6.74227">
        <ele>353</ele>
        <time>2016-07-28T12:14:25.000Z</time>
      </trkpt>
      <trkpt lat="47.49402" lon="6.7422">
        <ele>353</ele>
        <time>2016-07-28T12:14:26.000Z</time>
      </trkpt>
      <trkpt lat="47.49403" lon="6.74214">
        <ele>354</ele>
        <time>2016-07-28T12:14:27.000Z</time>
      </trkpt>
      <trkpt lat="47.49405" lon="6.74207">
        <ele>354</ele>
        <time>2016-07-28T12:14:28.000Z</time>
      </trkpt>
      <trkpt lat="47.49407" lon="6.742">
        <ele>353</ele>
        <time>2016-07-28T12:14:29.000Z</time>
      </trkpt>
      <trkpt lat="47.49409" lon="6.74193">
        <ele>353</ele>
        <time>2016-07-28T12:14:30.000Z</time>
      </trkpt>
      <trkpt lat="47.4941" lon="6.74187">
        <ele>352</ele>
        <time>2016-07-28T12:14:31.000Z</time>
      </trkpt>
      <trkpt lat="47.49411" lon="6.7418">
        <ele>350</ele>
        <time>2016-07-28T12:14:32.000Z</time>
      </trkpt>
      <trkpt lat="47.4941" lon="6.74174">
        <ele>349</ele>
        <time>2016-07-28T12:14:33.000Z</time>
      </trkpt>
      <trkpt lat="47.49411" lon="6.74168">
        <ele>348</ele>
        <time>2016-07-28T12:14:34.000Z</time>
      </trkpt>
      <trkpt lat="47.49411" lon="6.74163">
        <ele>348</ele>
        <time>2016-07-28T12:14:35.000Z</time>
      </trkpt>
      <trkpt lat="47.49411" lon="6.74157">
        <ele>350</ele>
        <time>2016-07-28T12:14:36.000Z</time>
      </trkpt>
      <trkpt lat="47.4941" lon="6.74152">
        <ele>351</ele>
        <time>2016-07-28T12:14:37.000Z</time>
      </trkpt>
      <trkpt lat="47.49408" lon="6.74147">
        <ele>352</ele>
        <time>2016-07-28T12:14:38.000Z</time>
      </trkpt>
      <trkpt lat="47.49407" lon="6.74141">
        <ele>353</ele>
        <time>2016-07-28T12:14:39.000Z</time>
      </trkpt>
      <trkpt lat="47.49405" lon="6.74136">
        <ele>354</ele>
        <time>2016-07-28T12:14:40.000Z</time>
      </trkpt>
      <trkpt lat="47.49404" lon="6.74132">
        <ele>354</ele>
        <time>2016-07-28T12:14:41.000Z</time>
      </trkpt>
      <trkpt lat="47.49403" lon="6.74128">
        <ele>354</ele>
        <time>2016-07-28T12:14:42.000Z</time>
      </trkpt>
      <trkpt lat="47.49402" lon="6.74124">
        <ele>354</ele>
        <time>2016-07-28T12:14:43.000Z</time>
      </trkpt>
      <trkpt lat="47.49401" lon="6.7412">
        <ele>354</ele>
        <time>2016-07-28T12:14:44.000Z</time>
      </trkpt>
      <trkpt lat="47.49401" lon="6.74114">
        <ele>354</ele>
        <time>2016-07-28T12:14:46.000Z</time>
      </trkpt>
      <trkpt lat="47.494" lon="6.7411">
        <ele>354</ele>
        <time>2016-07-28T12:14:47.000Z</time>
      </trkpt>
      <trkpt lat="47.494" lon="6.74105">
        <ele>354</ele>
        <time>2016-07-28T12:14:48.000Z</time>
      </trkpt>
      <trkpt lat="47.49399" lon="6.74101">
        <ele>354</ele>
        <time>2016-07-28T12:14:49.000Z</time>
      </trkpt>
      <trkpt lat="47.49399" lon="6.74096">
        <ele>353</ele>
        <time>2016-07-28T12:14:50.000Z</time>
      </trkpt>
      <trkpt lat="47.49398" lon="6.74091">
        <ele>353</ele>
        <time>2016-07-28T12:14:51.000Z</time>
      </trkpt>
      <trkpt lat="47.49398" lon="6.74086">
        <ele>353</ele>
        <time>2016-07-28T12:14:52.000Z</time>
      </trkpt>
      <trkpt lat="47.49398" lon="6.74082">
        <ele>352</ele>
        <time>2016-07-28T12:14:53.000Z</time>
      </trkpt>
      <trkpt lat="47.49399" lon="6.74077">
        <ele>352</ele>
        <time>2016-07-28T12:14:54.000Z</time>
      </trkpt>
      <trkpt lat="47.494" lon="6.7407">
        <ele>352</ele>
        <time>2016-07-28T12:14:55.000Z</time>
      </trkpt>
      <trkpt lat="47.49402" lon="6.74064">
        <ele>353</ele>
        <time>2016-07-28T12:14:56.000Z</time>
      </trkpt>
      <trkpt lat="47.49405" lon="6.74057">
        <ele>353</ele>
        <time>2016-07-28T12:14:57.000Z</time>
      </trkpt>
      <trkpt lat="47.49408" lon="6.7405">
        <ele>353</ele>
        <time>2016-07-28T12:14:58.000Z</time>
      </trkpt>
      <trkpt lat="47.49411" lon="6.74044">
        <ele>353</ele>
        <time>2016-07-28T12:14:59.000Z</time>
      </trkpt>
      <trkpt lat="47.49413" lon="6.74037">
        <ele>353</ele>
        <time>2016-07-28T12:15:00.000Z</time>
      </trkpt>
      <trkpt lat="47.49415" lon="6.7403">
        <ele>353</ele>
        <time>2016-07-28T12:15:01.000Z</time>
      </trkpt>
      <trkpt lat="47.49416" lon="6.74023">
        <ele>353</ele>
        <time>2016-07-28T12:15:02.000Z</time>
      </trkpt>
      <trkpt lat="47.49418" lon="6.74016">
        <ele>350</ele>
        <time>2016-07-28T12:15:03.000Z</time>
      </trkpt>
      <trkpt lat="47.49418" lon="6.74009">
        <ele>349</ele>
        <time>2016-07-28T12:15:04.000Z</time>
      </trkpt>
      <trkpt lat="47.49417" lon="6.74002">
        <ele>349</ele>
        <time>2016-07-28T12:15:05.000Z</time>
      </trkpt>
      <trkpt lat="47.49416" lon="6.73996">
        <ele>350</ele>
        <time>2016-07-28T12:15:06.000Z</time>
      </trkpt>
      <trkpt lat="47.49415" lon="6.73988">
        <ele>351</ele>
        <time>2016-07-28T12:15:07.000Z</time>
      </trkpt>
      <trkpt lat="47.49413" lon="6.7398">
        <ele>351</ele>
        <time>2016-07-28T12:15:08.000Z</time>
      </trkpt>
      <trkpt lat="47.49412" lon="6.73973">
        <ele>352</ele>
        <time>2016-07-28T12:15:09.000Z</time>
      </trkpt>
      <trkpt lat="47.49412" lon="6.73966">
        <ele>352</ele>
        <time>2016-07-28T12:15:10.000Z</time>
      </trkpt>
      <trkpt lat="47.49411" lon="6.73959">
        <ele>352</ele>
        <time>2016-07-28T12:15:11.000Z</time>
      </trkpt>
      <trkpt lat="47.4941" lon="6.73954">
        <ele>352</ele>
        <time>2016-07-28T12:15:12.000Z</time>
      </trkpt>
      <trkpt lat="47.49408" lon="6.73948">
        <ele>351</ele>
        <time>2016-07-28T12:15:13.000Z</time>
      </trkpt>
      <trkpt lat="47.49407" lon="6.73943">
        <ele>351</ele>
        <time>2016-07-28T12:15:14.000Z</time>
      </trkpt>
      <trkpt lat="47.49407" lon="6.73936">
        <ele>351</ele>
        <time>2016-07-28T12:15:15.000Z</time>
      </trkpt>
      <trkpt lat="47.49406" lon="6.73929">
        <ele>350</ele>
        <time>2016-07-28T12:15:16.000Z</time>
      </trkpt>
      <trkpt lat="47.49406" lon="6.73923">
        <ele>349</ele>
        <time>2016-07-28T12:15:17.000Z</time>
      </trkpt>
      <trkpt lat="47.49405" lon="6.73916">
        <ele>348</ele>
        <time>2016-07-28T12:15:18.000Z</time>
      </trkpt>
      <trkpt lat="47.49404" lon="6.73909">
        <ele>348</ele>
        <time>2016-07-28T12:15:19.000Z</time>
      </trkpt>
      <trkpt lat="47.49403" lon="6.73903">
        <ele>349</ele>
        <time>2016-07-28T12:15:20.000Z</time>
      </trkpt>
      <trkpt lat="47.49402" lon="6.73896">
        <ele>349</ele>
        <time>2016-07-28T12:15:21.000Z</time>
      </trkpt>
      <trkpt lat="47.49402" lon="6.7389">
        <ele>349</ele>
        <time>2016-07-28T12:15:22.000Z</time>
      </trkpt>
      <trkpt lat="47.49403" lon="6.73871">
        <ele>349</ele>
        <time>2016-07-28T12:15:23.000Z</time>
      </trkpt>
      <trkpt lat="47.49405" lon="6.73866">
        <ele>349</ele>
        <time>2016-07-28T12:15:24.000Z</time>
      </trkpt>
      <trkpt lat="47.49408" lon="6.7386">
        <ele>348</ele>
        <time>2016-07-28T12:15:25.000Z</time>
      </trkpt>
      <trkpt lat="47.49409" lon="6.73855">
        <ele>348</ele>
        <time>2016-07-28T12:15:26.000Z</time>
      </trkpt>
      <trkpt lat="47.4941" lon="6.7385">
        <ele>347</ele>
        <time>2016-07-28T12:15:27.000Z</time>
      </trkpt>
      <trkpt lat="47.4941" lon="6.73844">
        <ele>347</ele>
        <time>2016-07-28T12:15:28.000Z</time>
      </trkpt>
      <trkpt lat="47.4941" lon="6.73835">
        <ele>346</ele>
        <time>2016-07-28T12:15:29.000Z</time>
      </trkpt>
      <trkpt lat="47.49411" lon="6.73826">
        <ele>346</ele>
        <time>2016-07-28T12:15:30.000Z</time>
      </trkpt>
      <trkpt lat="47.49412" lon="6.7382">
        <ele>346</ele>
        <time>2016-07-28T12:15:31.000Z</time>
      </trkpt>
      <trkpt lat="47.49413" lon="6.73813">
        <ele>347</ele>
        <time>2016-07-28T12:15:32.000Z</time>
      </trkpt>
      <trkpt lat="47.49416" lon="6.73808">
        <ele>347</ele>
        <time>2016-07-28T12:15:33.000Z</time>
      </trkpt>
      <trkpt lat="47.49418" lon="6.73803">
        <ele>341</ele>
        <time>2016-07-28T12:15:34.000Z</time>
      </trkpt>
      <trkpt lat="47.49421" lon="6.73798">
        <ele>341</ele>
        <time>2016-07-28T12:15:35.000Z</time>
      </trkpt>
      <trkpt lat="47.49424" lon="6.73793">
        <ele>340</ele>
        <time>2016-07-28T12:15:36.000Z</time>
      </trkpt>
      <trkpt lat="47.49427" lon="6.73788">
        <ele>340</ele>
        <time>2016-07-28T12:15:37.000Z</time>
      </trkpt>
      <trkpt lat="47.4943" lon="6.73782">
        <ele>340</ele>
        <time>2016-07-28T12:15:38.000Z</time>
      </trkpt>
      <trkpt lat="47.49434" lon="6.73777">
        <ele>340</ele>
        <time>2016-07-28T12:15:39.000Z</time>
      </trkpt>
      <trkpt lat="47.49437" lon="6.73771">
        <ele>340</ele>
        <time>2016-07-28T12:15:40.000Z</time>
      </trkpt>
      <trkpt lat="47.49441" lon="6.73765">
        <ele>340</ele>
        <time>2016-07-28T12:15:41.000Z</time>
      </trkpt>
      <trkpt lat="47.4945" lon="6.73749">
        <ele>339</ele>
        <time>2016-07-28T12:15:42.000Z</time>
      </trkpt>
      <trkpt lat="47.49454" lon="6.73741">
        <ele>339</ele>
        <time>2016-07-28T12:15:43.000Z</time>
      </trkpt>
      <trkpt lat="47.49458" lon="6.73731">
        <ele>338</ele>
        <time>2016-07-28T12:15:44.000Z</time>
      </trkpt>
      <trkpt lat="47.4946" lon="6.73723">
        <ele>338</ele>
        <time>2016-07-28T12:15:45.000Z</time>
      </trkpt>
      <trkpt lat="47.49462" lon="6.73716">
        <ele>338</ele>
        <time>2016-07-28T12:15:46.000Z</time>
      </trkpt>
      <trkpt lat="47.49465" lon="6.73709">
        <ele>338</ele>
        <time>2016-07-28T12:15:47.000Z</time>
      </trkpt>
      <trkpt lat="47.49468" lon="6.73702">
        <ele>338</ele>
        <time>2016-07-28T12:15:48.000Z</time>
      </trkpt>
      <trkpt lat="47.49471" lon="6.73697">
        <ele>337</ele>
        <time>2016-07-28T12:15:49.000Z</time>
      </trkpt>
      <trkpt lat="47.49473" lon="6.7369">
        <ele>337</ele>
        <time>2016-07-28T12:15:50.000Z</time>
      </trkpt>
      <trkpt lat="47.49476" lon="6.73684">
        <ele>337</ele>
        <time>2016-07-28T12:15:51.000Z</time>
      </trkpt>
      <trkpt lat="47.49479" lon="6.73678">
        <ele>336</ele>
        <time>2016-07-28T12:15:52.000Z</time>
      </trkpt>
      <trkpt lat="47.49481" lon="6.73672">
        <ele>335</ele>
        <time>2016-07-28T12:15:53.000Z</time>
      </trkpt>
      <trkpt lat="47.49484" lon="6.73666">
        <ele>335</ele>
        <time>2016-07-28T12:15:54.000Z</time>
      </trkpt>
      <trkpt lat="47.49486" lon="6.73661">
        <ele>335</ele>
        <time>2016-07-28T12:15:55.000Z</time>
      </trkpt>
      <trkpt lat="47.49489" lon="6.73654">
        <ele>335</ele>
        <time>2016-07-28T12:15:56.000Z</time>
      </trkpt>
      <trkpt lat="47.49491" lon="6.73649">
        <ele>336</ele>
        <time>2016-07-28T12:15:57.000Z</time>
      </trkpt>
      <trkpt lat="47.49493" lon="6.73643">
        <ele>336</ele>
        <time>2016-07-28T12:15:58.000Z</time>
      </trkpt>
      <trkpt lat="47.49497" lon="6.73638">
        <ele>336</ele>
        <time>2016-07-28T12:15:59.000Z</time>
      </trkpt>
      <trkpt lat="47.495" lon="6.73633">
        <ele>336</ele>
        <time>2016-07-28T12:16:00.000Z</time>
      </trkpt>
      <trkpt lat="47.49503" lon="6.73628">
        <ele>332</ele>
        <time>2016-07-28T12:16:01.000Z</time>
      </trkpt>
      <trkpt lat="47.49506" lon="6.73623">
        <ele>332</ele>
        <time>2016-07-28T12:16:02.000Z</time>
      </trkpt>
      <trkpt lat="47.49509" lon="6.73619">
        <ele>332</ele>
        <time>2016-07-28T12:16:03.000Z</time>
      </trkpt>
      <trkpt lat="47.49512" lon="6.73615">
        <ele>332</ele>
        <time>2016-07-28T12:16:04.000Z</time>
      </trkpt>
      <trkpt lat="47.49515" lon="6.73611">
        <ele>332</ele>
        <time>2016-07-28T12:16:05.000Z</time>
      </trkpt>
      <trkpt lat="47.49519" lon="6.73607">
        <ele>332</ele>
        <time>2016-07-28T12:16:06.000Z</time>
      </trkpt>
      <trkpt lat="47.49522" lon="6.73603">
        <ele>332</ele>
        <time>2016-07-28T12:16:07.000Z</time>
      </trkpt>
      <trkpt lat="47.49525" lon="6.73599">
        <ele>332</ele>
        <time>2016-07-28T12:16:08.000Z</time>
      </trkpt>
      <trkpt lat="47.49528" lon="6.73595">
        <ele>332</ele>
        <time>2016-07-28T12:16:09.000Z</time>
      </trkpt>
      <trkpt lat="47.49532" lon="6.73591">
        <ele>332</ele>
        <time>2016-07-28T12:16:10.000Z</time>
      </trkpt>
      <trkpt lat="47.49535" lon="6.73587">
        <ele>332</ele>
        <time>2016-07-28T12:16:11.000Z</time>
      </trkpt>
      <trkpt lat="47.49538" lon="6.73583">
        <ele>334</ele>
        <time>2016-07-28T12:16:12.000Z</time>
      </trkpt>
      <trkpt lat="47.49542" lon="6.73579">
        <ele>333</ele>
        <time>2016-07-28T12:16:13.000Z</time>
      </trkpt>
      <trkpt lat="47.49545" lon="6.73576">
        <ele>333</ele>
        <time>2016-07-28T12:16:14.000Z</time>
      </trkpt>
      <trkpt lat="47.49549" lon="6.73572">
        <ele>333</ele>
        <time>2016-07-28T12:16:15.000Z</time>
      </trkpt>
      <trkpt lat="47.49552" lon="6.73568">
        <ele>333</ele>
        <time>2016-07-28T12:16:16.000Z</time>
      </trkpt>
      <trkpt lat="47.49556" lon="6.73564">
        <ele>333</ele>
        <time>2016-07-28T12:16:17.001Z</time>
      </trkpt>
      <trkpt lat="47.49559" lon="6.73561">
        <ele>333</ele>
        <time>2016-07-28T12:16:18.000Z</time>
      </trkpt>
      <trkpt lat="47.49563" lon="6.73557">
        <ele>333</ele>
        <time>2016-07-28T12:16:19.000Z</time>
      </trkpt>
      <trkpt lat="47.49567" lon="6.73553">
        <ele>333</ele>
        <time>2016-07-28T12:16:20.000Z</time>
      </trkpt>
      <trkpt lat="47.49571" lon="6.73549">
        <ele>333</ele>
        <time>2016-07-28T12:16:21.000Z</time>
      </trkpt>
      <trkpt lat="47.49574" lon="6.73546">
        <ele>333</ele>
        <time>2016-07-28T12:16:22.000Z</time>
      </trkpt>
      <trkpt lat="47.49577" lon="6.73542">
        <ele>333</ele>
        <time>2016-07-28T12:16:23.000Z</time>
      </trkpt>
      <trkpt lat="47.49581" lon="6.73538">
        <ele>333</ele>
        <time>2016-07-28T12:16:24.000Z</time>
      </trkpt>
      <trkpt lat="47.49584" lon="6.73536">
        <ele>332</ele>
        <time>2016-07-28T12:16:25.000Z</time>
      </trkpt>
      <trkpt lat="47.49587" lon="6.73534">
        <ele>332</ele>
        <time>2016-07-28T12:16:26.000Z</time>
      </trkpt>
      <trkpt lat="47.4959" lon="6.73532">
        <ele>332</ele>
        <time>2016-07-28T12:16:27.000Z</time>
      </trkpt>
      <trkpt lat="47.49592" lon="6.7353">
        <ele>332</ele>
        <time>2016-07-28T12:16:28.000Z</time>
      </trkpt>
      <trkpt lat="47.49595" lon="6.73528">
        <ele>332</ele>
        <time>2016-07-28T12:16:29.000Z</time>
      </trkpt>
      <trkpt lat="47.49598" lon="6.73526">
        <ele>332</ele>
        <time>2016-07-28T12:16:30.000Z</time>
      </trkpt>
      <trkpt lat="47.496" lon="6.73523">
        <ele>332</ele>
        <time>2016-07-28T12:16:31.000Z</time>
      </trkpt>
      <trkpt lat="47.49603" lon="6.7352">
        <ele>332</ele>
        <time>2016-07-28T12:16:32.000Z</time>
      </trkpt>
      <trkpt lat="47.49605" lon="6.73518">
        <ele>332</ele>
        <time>2016-07-28T12:16:33.000Z</time>
      </trkpt>
      <trkpt lat="47.49608" lon="6.73515">
        <ele>332</ele>
        <time>2016-07-28T12:16:34.000Z</time>
      </trkpt>
      <trkpt lat="47.4961" lon="6.73512">
        <ele>332</ele>
        <time>2016-07-28T12:16:35.000Z</time>
      </trkpt>
      <trkpt lat="47.49612" lon="6.73509">
        <ele>332</ele>
        <time>2016-07-28T12:16:36.000Z</time>
      </trkpt>
      <trkpt lat="47.49615" lon="6.73506">
        <ele>332</ele>
        <time>2016-07-28T12:16:37.000Z</time>
      </trkpt>
      <trkpt lat="47.49618" lon="6.73503">
        <ele>332</ele>
        <time>2016-07-28T12:16:38.000Z</time>
      </trkpt>
      <trkpt lat="47.4962" lon="6.735">
        <ele>332</ele>
        <time>2016-07-28T12:16:39.000Z</time>
      </trkpt>
      <trkpt lat="47.49623" lon="6.73497">
        <ele>333</ele>
        <time>2016-07-28T12:16:40.000Z</time>
      </trkpt>
      <trkpt lat="47.49626" lon="6.73494">
        <ele>333</ele>
        <time>2016-07-28T12:16:41.000Z</time>
      </trkpt>
      <trkpt lat="47.49628" lon="6.73491">
        <ele>333</ele>
        <time>2016-07-28T12:16:42.000Z</time>
      </trkpt>
      <trkpt lat="47.49631" lon="6.73487">
        <ele>333</ele>
        <time>2016-07-28T12:16:43.000Z</time>
      </trkpt>
      <trkpt lat="47.49633" lon="6.73483">
        <ele>333</ele>
        <time>2016-07-28T12:16:44.000Z</time>
      </trkpt>
      <trkpt lat="47.49636" lon="6.7348">
        <ele>334</ele>
        <time>2016-07-28T12:16:44.999Z</time>
      </trkpt>
      <trkpt lat="47.49638" lon="6.73476">
        <ele>334</ele>
        <time>2016-07-28T12:16:46.000Z</time>
      </trkpt>
      <trkpt lat="47.49641" lon="6.73472">
        <ele>334</ele>
        <time>2016-07-28T12:16:47.000Z</time>
      </trkpt>
      <trkpt lat="47.49644" lon="6.73469">
        <ele>334</ele>
        <time>2016-07-28T12:16:48.000Z</time>
      </trkpt>
      <trkpt lat="47.49646" lon="6.73465">
        <ele>334</ele>
        <time>2016-07-28T12:16:49.000Z</time>
      </trkpt>
      <trkpt lat="47.49649" lon="6.73462">
        <ele>334</ele>
        <time>2016-07-28T12:16:50.000Z</time>
      </trkpt>
      <trkpt lat="47.49652" lon="6.73458">
        <ele>334</ele>
        <time>2016-07-28T12:16:51.000Z</time>
      </trkpt>
      <trkpt lat="47.49654" lon="6.73454">
        <ele>334</ele>
        <time>2016-07-28T12:16:52.001Z</time>
      </trkpt>
      <trkpt lat="47.49657" lon="6.73451">
        <ele>334</ele>
        <time>2016-07-28T12:16:53.000Z</time>
      </trkpt>
      <trkpt lat="47.49659" lon="6.73447">
        <ele>334</ele>
        <time>2016-07-28T12:16:54.000Z</time>
      </trkpt>
      <trkpt lat="47.49662" lon="6.73444">
        <ele>334</ele>
        <time>2016-07-28T12:16:55.000Z</time>
      </trkpt>
      <trkpt lat="47.49665" lon="6.73441">
        <ele>334</ele>
        <time>2016-07-28T12:16:56.001Z</time>
      </trkpt>
      <trkpt lat="47.49668" lon="6.73438">
        <ele>333</ele>
        <time>2016-07-28T12:16:57.000Z</time>
      </trkpt>
      <trkpt lat="47.49671" lon="6.73435">
        <ele>333</ele>
        <time>2016-07-28T12:16:58.000Z</time>
      </trkpt>
      <trkpt lat="47.49674" lon="6.73431">
        <ele>333</ele>
        <time>2016-07-28T12:16:59.000Z</time>
      </trkpt>
      <trkpt lat="47.49676" lon="6.73427">
        <ele>334</ele>
        <time>2016-07-28T12:17:00.000Z</time>
      </trkpt>
      <trkpt lat="47.49679" lon="6.73423">
        <ele>334</ele>
        <time>2016-07-28T12:17:01.000Z</time>
      </trkpt>
      <trkpt lat="47.49681" lon="6.73419">
        <ele>334</ele>
        <time>2016-07-28T12:17:02.000Z</time>
      </trkpt>
      <trkpt lat="47.49684" lon="6.73415">
        <ele>334</ele>
        <time>2016-07-28T12:17:03.000Z</time>
      </trkpt>
      <trkpt lat="47.49686" lon="6.73411">
        <ele>334</ele>
        <time>2016-07-28T12:17:04.000Z</time>
      </trkpt>
      <trkpt lat="47.49689" lon="6.73407">
        <ele>334</ele>
        <time>2016-07-28T12:17:05.000Z</time>
      </trkpt>
      <trkpt lat="47.49692" lon="6.73404">
        <ele>334</ele>
        <time>2016-07-28T12:17:06.000Z</time>
      </trkpt>
      <trkpt lat="47.49694" lon="6.734">
        <ele>334</ele>
        <time>2016-07-28T12:17:07.000Z</time>
      </trkpt>
      <trkpt lat="47.49697" lon="6.73396">
        <ele>334</ele>
        <time>2016-07-28T12:17:08.000Z</time>
      </trkpt>
      <trkpt lat="47.497" lon="6.73392">
        <ele>334</ele>
        <time>2016-07-28T12:17:09.000Z</time>
      </trkpt>
      <trkpt lat="47.49702" lon="6.73389">
        <ele>334</ele>
        <time>2016-07-28T12:17:10.000Z</time>
      </trkpt>
      <trkpt lat="47.49705" lon="6.73385">
        <ele>334</ele>
        <time>2016-07-28T12:17:10.999Z</time>
      </trkpt>
      <trkpt lat="47.49707" lon="6.73381">
        <ele>334</ele>
        <time>2016-07-28T12:17:12.000Z</time>
      </trkpt>
      <trkpt lat="47.49709" lon="6.73377">
        <ele>334</ele>
        <time>2016-07-28T12:17:13.000Z</time>
      </trkpt>
      <trkpt lat="47.49712" lon="6.73373">
        <ele>334</ele>
        <time>2016-07-28T12:17:14.000Z</time>
      </trkpt>
      <trkpt lat="47.49714" lon="6.73369">
        <ele>334</ele>
        <time>2016-07-28T12:17:15.000Z</time>
      </trkpt>
      <trkpt lat="47.49717" lon="6.73366">
        <ele>334</ele>
        <time>2016-07-28T12:17:16.000Z</time>
      </trkpt>
      <trkpt lat="47.49719" lon="6.73363">
        <ele>334</ele>
        <time>2016-07-28T12:17:17.000Z</time>
      </trkpt>
      <trkpt lat="47.49722" lon="6.7336">
        <ele>334</ele>
        <time>2016-07-28T12:17:18.000Z</time>
      </trkpt>
      <trkpt lat="47.49725" lon="6.73357">
        <ele>334</ele>
        <time>2016-07-28T12:17:19.000Z</time>
      </trkpt>
      <trkpt lat="47.49727" lon="6.73353">
        <ele>334</ele>
        <time>2016-07-28T12:17:20.000Z</time>
      </trkpt>
      <trkpt lat="47.4973" lon="6.73349">
        <ele>333</ele>
        <time>2016-07-28T12:17:21.000Z</time>
      </trkpt>
      <trkpt lat="47.49732" lon="6.73345">
        <ele>333</ele>
        <time>2016-07-28T12:17:22.000Z</time>
      </trkpt>
      <trkpt lat="47.49735" lon="6.73341">
        <ele>333</ele>
        <time>2016-07-28T12:17:23.000Z</time>
      </trkpt>
      <trkpt lat="47.49737" lon="6.73337">
        <ele>333</ele>
        <time>2016-07-28T12:17:24.000Z</time>
      </trkpt>
      <trkpt lat="47.4974" lon="6.73333">
        <ele>334</ele>
        <time>2016-07-28T12:17:25.000Z</time>
      </trkpt>
      <trkpt lat="47.49742" lon="6.73328">
        <ele>333</ele>
        <time>2016-07-28T12:17:26.000Z</time>
      </trkpt>
      <trkpt lat="47.49744" lon="6.73324">
        <ele>334</ele>
        <time>2016-07-28T12:17:27.000Z</time>
      </trkpt>
      <trkpt lat="47.49746" lon="6.73321">
        <ele>334</ele>
        <time>2016-07-28T12:17:28.000Z</time>
      </trkpt>
      <trkpt lat="47.49749" lon="6.73317">
        <ele>334</ele>
        <time>2016-07-28T12:17:29.000Z</time>
      </trkpt>
      <trkpt lat="47.49751" lon="6.73313">
        <ele>333</ele>
        <time>2016-07-28T12:17:30.000Z</time>
      </trkpt>
      <trkpt lat="47.49754" lon="6.7331">
        <ele>333</ele>
        <time>2016-07-28T12:17:31.000Z</time>
      </trkpt>
      <trkpt lat="47.49756" lon="6.73305">
        <ele>334</ele>
        <time>2016-07-28T12:17:32.000Z</time>
      </trkpt>
      <trkpt lat="47.49759" lon="6.73301">
        <ele>334</ele>
        <time>2016-07-28T12:17:33.000Z</time>
      </trkpt>
      <trkpt lat="47.49761" lon="6.73297">
        <ele>334</ele>
        <time>2016-07-28T12:17:34.000Z</time>
      </trkpt>
      <trkpt lat="47.49764" lon="6.73293">
        <ele>334</ele>
        <time>2016-07-28T12:17:35.000Z</time>
      </trkpt>
      <trkpt lat="47.49766" lon="6.73289">
        <ele>334</ele>
        <time>2016-07-28T12:17:36.000Z</time>
      </trkpt>
      <trkpt lat="47.49768" lon="6.73285">
        <ele>334</ele>
        <time>2016-07-28T12:17:37.000Z</time>
      </trkpt>
      <trkpt lat="47.49771" lon="6.73281">
        <ele>334</ele>
        <time>2016-07-28T12:17:38.000Z</time>
      </trkpt>
      <trkpt lat="47.49773" lon="6.73277">
        <ele>335</ele>
        <time>2016-07-28T12:17:39.000Z</time>
      </trkpt>
      <trkpt lat="47.49775" lon="6.73273">
        <ele>335</ele>
        <time>2016-07-28T12:17:40.000Z</time>
      </trkpt>
      <trkpt lat="47.49778" lon="6.73268">
        <ele>335</ele>
        <time>2016-07-28T12:17:41.000Z</time>
      </trkpt>
      <trkpt lat="47.4978" lon="6.73264">
        <ele>335</ele>
        <time>2016-07-28T12:17:42.000Z</time>
      </trkpt>
      <trkpt lat="47.49782" lon="6.7326">
        <ele>335</ele>
        <time>2016-07-28T12:17:43.000Z</time>
      </trkpt>
      <trkpt lat="47.49784" lon="6.73256">
        <ele>335</ele>
        <time>2016-07-28T12:17:44.000Z</time>
      </trkpt>
      <trkpt lat="47.49786" lon="6.73251">
        <ele>335</ele>
        <time>2016-07-28T12:17:45.000Z</time>
      </trkpt>
      <trkpt lat="47.49788" lon="6.73247">
        <ele>337</ele>
        <time>2016-07-28T12:17:46.000Z</time>
      </trkpt>
      <trkpt lat="47.4979" lon="6.73242">
        <ele>337</ele>
        <time>2016-07-28T12:17:47.000Z</time>
      </trkpt>
      <trkpt lat="47.49791" lon="6.73238">
        <ele>337</ele>
        <time>2016-07-28T12:17:48.000Z</time>
      </trkpt>
      <trkpt lat="47.49793" lon="6.73234">
        <ele>337</ele>
        <time>2016-07-28T12:17:49.000Z</time>
      </trkpt>
      <trkpt lat="47.49795" lon="6.7323">
        <ele>337</ele>
        <time>2016-07-28T12:17:50.000Z</time>
      </trkpt>
      <trkpt lat="47.49797" lon="6.73225">
        <ele>337</ele>
        <time>2016-07-28T12:17:51.000Z</time>
      </trkpt>
      <trkpt lat="47.49798" lon="6.73221">
        <ele>337</ele>
        <time>2016-07-28T12:17:52.000Z</time>
      </trkpt>
      <trkpt lat="47.498" lon="6.73216">
        <ele>337</ele>
        <time>2016-07-28T12:17:53.000Z</time>
      </trkpt>
      <trkpt lat="47.49801" lon="6.73212">
        <ele>337</ele>
        <time>2016-07-28T12:17:54.000Z</time>
      </trkpt>
      <trkpt lat="47.49803" lon="6.73207">
        <ele>337</ele>
        <time>2016-07-28T12:17:55.000Z</time>
      </trkpt>
      <trkpt lat="47.49804" lon="6.73202">
        <ele>337</ele>
        <time>2016-07-28T12:17:56.000Z</time>
      </trkpt>
      <trkpt lat="47.49806" lon="6.73198">
        <ele>337</ele>
        <time>2016-07-28T12:17:57.000Z</time>
      </trkpt>
      <trkpt lat="47.49807" lon="6.73193">
        <ele>337</ele>
        <time>2016-07-28T12:17:58.000Z</time>
      </trkpt>
      <trkpt lat="47.49809" lon="6.73188">
        <ele>337</ele>
        <time>2016-07-28T12:17:59.000Z</time>
      </trkpt>
      <trkpt lat="47.4981" lon="6.73184">
        <ele>337</ele>
        <time>2016-07-28T12:18:00.000Z</time>
      </trkpt>
      <trkpt lat="47.49811" lon="6.73179">
        <ele>337</ele>
        <time>2016-07-28T12:18:01.000Z</time>
      </trkpt>
      <trkpt lat="47.49813" lon="6.73174">
        <ele>337</ele>
        <time>2016-07-28T12:18:02.000Z</time>
      </trkpt>
      <trkpt lat="47.49814" lon="6.73169">
        <ele>337</ele>
        <time>2016-07-28T12:18:03.000Z</time>
      </trkpt>
      <trkpt lat="47.49815" lon="6.73165">
        <ele>338</ele>
        <time>2016-07-28T12:18:04.000Z</time>
      </trkpt>
      <trkpt lat="47.49817" lon="6.73161">
        <ele>338</ele>
        <time>2016-07-28T12:18:05.000Z</time>
      </trkpt>
      <trkpt lat="47.49819" lon="6.73157">
        <ele>338</ele>
        <time>2016-07-28T12:18:06.000Z</time>
      </trkpt>
      <trkpt lat="47.49821" lon="6.73153">
        <ele>338</ele>
        <time>2016-07-28T12:18:07.000Z</time>
      </trkpt>
      <trkpt lat="47.49822" lon="6.73149">
        <ele>338</ele>
        <time>2016-07-28T12:18:08.000Z</time>
      </trkpt>
      <trkpt lat="47.49823" lon="6.73145">
        <ele>338</ele>
        <time>2016-07-28T12:18:09.000Z</time>
      </trkpt>
      <trkpt lat="47.49823" lon="6.73141">
        <ele>339</ele>
        <time>2016-07-28T12:18:10.000Z</time>
      </trkpt>
      <trkpt lat="47.49825" lon="6.73137">
        <ele>339</ele>
        <time>2016-07-28T12:18:11.000Z</time>
      </trkpt>
      <trkpt lat="47.49826" lon="6.73133">
        <ele>339</ele>
        <time>2016-07-28T12:18:12.000Z</time>
      </trkpt>
      <trkpt lat="47.49827" lon="6.7313">
        <ele>339</ele>
        <time>2016-07-28T12:18:13.000Z</time>
      </trkpt>
      <trkpt lat="47.49828" lon="6.73126">
        <ele>339</ele>
        <time>2016-07-28T12:18:14.000Z</time>
      </trkpt>
      <trkpt lat="47.49829" lon="6.73122">
        <ele>339</ele>
        <time>2016-07-28T12:18:14.999Z</time>
      </trkpt>
      <trkpt lat="47.49828" lon="6.73118">
        <ele>339</ele>
        <time>2016-07-28T12:18:16.000Z</time>
      </trkpt>
      <trkpt lat="47.49829" lon="6.73113">
        <ele>339</ele>
        <time>2016-07-28T12:18:17.000Z</time>
      </trkpt>
      <trkpt lat="47.4983" lon="6.73109">
        <ele>339</ele>
        <time>2016-07-28T12:18:18.000Z</time>
      </trkpt>
      <trkpt lat="47.49831" lon="6.73105">
        <ele>339</ele>
        <time>2016-07-28T12:18:19.000Z</time>
      </trkpt>
      <trkpt lat="47.49832" lon="6.73101">
        <ele>340</ele>
        <time>2016-07-28T12:18:20.000Z</time>
      </trkpt>
      <trkpt lat="47.49834" lon="6.73098">
        <ele>339</ele>
        <time>2016-07-28T12:18:21.000Z</time>
      </trkpt>
      <trkpt lat="47.49835" lon="6.73095">
        <ele>339</ele>
        <time>2016-07-28T12:18:22.000Z</time>
      </trkpt>
      <trkpt lat="47.49836" lon="6.73091">
        <ele>339</ele>
        <time>2016-07-28T12:18:23.000Z</time>
      </trkpt>
      <trkpt lat="47.49837" lon="6.73086">
        <ele>340</ele>
        <time>2016-07-28T12:18:25.000Z</time>
      </trkpt>
      <trkpt lat="47.49838" lon="6.73083">
        <ele>340</ele>
        <time>2016-07-28T12:18:25.999Z</time>
      </trkpt>
      <trkpt lat="47.49839" lon="6.73078">
        <ele>340</ele>
        <time>2016-07-28T12:19:52.000Z</time>
      </trkpt>
      <trkpt lat="47.4984" lon="6.73077">
        <ele>340</ele>
        <time>2016-07-28T12:19:53.000Z</time>
      </trkpt>
      <trkpt lat="47.49842" lon="6.73072">
        <ele>340</ele>
        <time>2016-07-28T12:19:55.000Z</time>
      </trkpt>
      <trkpt lat="47.49843" lon="6.73069">
        <ele>340</ele>
        <time>2016-07-28T12:19:56.000Z</time>
      </trkpt>
      <trkpt lat="47.49843" lon="6.73065">
        <ele>340</ele>
        <time>2016-07-28T12:19:57.000Z</time>
      </trkpt>
      <trkpt lat="47.49844" lon="6.73061">
        <ele>340</ele>
        <time>2016-07-28T12:19:58.000Z</time>
      </trkpt>
      <trkpt lat="47.49845" lon="6.73056">
        <ele>340</ele>
        <time>2016-07-28T12:19:59.000Z</time>
      </trkpt>
      <trkpt lat="47.49847" lon="6.73052">
        <ele>340</ele>
        <time>2016-07-28T12:20:00.000Z</time>
      </trkpt>
      <trkpt lat="47.49849" lon="6.73049">
        <ele>340</ele>
        <time>2016-07-28T12:20:01.000Z</time>
      </trkpt>
      <trkpt lat="47.49851" lon="6.73045">
        <ele>340</ele>
        <time>2016-07-28T12:20:02.000Z</time>
      </trkpt>
      <trkpt lat="47.49853" lon="6.73042">
        <ele>340</ele>
        <time>2016-07-28T12:20:03.000Z</time>
      </trkpt>
      <trkpt lat="47.49854" lon="6.73038">
        <ele>340</ele>
        <time>2016-07-28T12:20:04.000Z</time>
      </trkpt>
      <trkpt lat="47.49856" lon="6.73035">
        <ele>340</ele>
        <time>2016-07-28T12:20:05.000Z</time>
      </trkpt>
      <trkpt lat="47.49857" lon="6.73032">
        <ele>340</ele>
        <time>2016-07-28T12:20:05.999Z</time>
      </trkpt>
      <trkpt lat="47.49859" lon="6.73029">
        <ele>341</ele>
        <time>2016-07-28T12:20:07.000Z</time>
      </trkpt>
      <trkpt lat="47.4986" lon="6.73027">
        <ele>341</ele>
        <time>2016-07-28T12:20:08.000Z</time>
      </trkpt>
      <trkpt lat="47.49861" lon="6.73024">
        <ele>341</ele>
        <time>2016-07-28T12:20:09.000Z</time>
      </trkpt>
      <trkpt lat="47.49863" lon="6.73021">
        <ele>341</ele>
        <time>2016-07-28T12:20:10.000Z</time>
      </trkpt>
      <trkpt lat="47.49863" lon="6.73017">
        <ele>341</ele>
        <time>2016-07-28T12:20:11.000Z</time>
      </trkpt>
      <trkpt lat="47.49864" lon="6.73014">
        <ele>341</ele>
        <time>2016-07-28T12:20:11.999Z</time>
      </trkpt>
      <trkpt lat="47.49866" lon="6.73009">
        <ele>341</ele>
        <time>2016-07-28T12:20:14.000Z</time>
      </trkpt>
      <trkpt lat="47.49868" lon="6.73005">
        <ele>341</ele>
        <time>2016-07-28T12:20:15.000Z</time>
      </trkpt>
      <trkpt lat="47.49869" lon="6.73001">
        <ele>341</ele>
        <time>2016-07-28T12:20:16.000Z</time>
      </trkpt>
      <trkpt lat="47.49871" lon="6.72998">
        <ele>342</ele>
        <time>2016-07-28T12:20:17.001Z</time>
      </trkpt>
      <trkpt lat="47.49874" lon="6.72992">
        <ele>342</ele>
        <time>2016-07-28T12:20:18.000Z</time>
      </trkpt>
      <trkpt lat="47.49876" lon="6.72988">
        <ele>342</ele>
        <time>2016-07-28T12:20:19.000Z</time>
      </trkpt>
      <trkpt lat="47.49878" lon="6.72982">
        <ele>342</ele>
        <time>2016-07-28T12:20:20.000Z</time>
      </trkpt>
      <trkpt lat="47.4988" lon="6.72977">
        <ele>342</ele>
        <time>2016-07-28T12:20:21.000Z</time>
      </trkpt>
      <trkpt lat="47.49882" lon="6.72971">
        <ele>342</ele>
        <time>2016-07-28T12:20:22.000Z</time>
      </trkpt>
      <trkpt lat="47.49884" lon="6.72965">
        <ele>342</ele>
        <time>2016-07-28T12:20:23.000Z</time>
      </trkpt>
      <trkpt lat="47.49886" lon="6.7296">
        <ele>342</ele>
        <time>2016-07-28T12:20:24.000Z</time>
      </trkpt>
      <trkpt lat="47.49889" lon="6.72954">
        <ele>342</ele>
        <time>2016-07-28T12:20:25.000Z</time>
      </trkpt>
      <trkpt lat="47.49894" lon="6.72951">
        <ele>342</ele>
        <time>2016-07-28T12:20:26.000Z</time>
      </trkpt>
      <trkpt lat="47.499" lon="6.72954">
        <ele>342</ele>
        <time>2016-07-28T12:20:27.000Z</time>
      </trkpt>
      <trkpt lat="47.49904" lon="6.72955">
        <ele>341</ele>
        <time>2016-07-28T12:20:28.000Z</time>
      </trkpt>
      <trkpt lat="47.49909" lon="6.72958">
        <ele>341</ele>
        <time>2016-07-28T12:20:29.000Z</time>
      </trkpt>
      <trkpt lat="47.49913" lon="6.7296">
        <ele>341</ele>
        <time>2016-07-28T12:20:30.000Z</time>
      </trkpt>
      <trkpt lat="47.49919" lon="6.7296">
        <ele>339</ele>
        <time>2016-07-28T12:20:31.000Z</time>
      </trkpt>
      <trkpt lat="47.49924" lon="6.72961">
        <ele>339</ele>
        <time>2016-07-28T12:20:32.000Z</time>
      </trkpt>
      <trkpt lat="47.49929" lon="6.72962">
        <ele>339</ele>
        <time>2016-07-28T12:20:33.000Z</time>
      </trkpt>
      <trkpt lat="47.49935" lon="6.72964">
        <ele>339</ele>
        <time>2016-07-28T12:20:34.000Z</time>
      </trkpt>
      <trkpt lat="47.49941" lon="6.72967">
        <ele>339</ele>
        <time>2016-07-28T12:20:35.000Z</time>
      </trkpt>
      <trkpt lat="47.49946" lon="6.72969">
        <ele>339</ele>
        <time>2016-07-28T12:20:36.000Z</time>
      </trkpt>
      <trkpt lat="47.49952" lon="6.72971">
        <ele>339</ele>
        <time>2016-07-28T12:20:37.000Z</time>
      </trkpt>
      <trkpt lat="47.49959" lon="6.72971">
        <ele>339</ele>
        <time>2016-07-28T12:20:38.000Z</time>
      </trkpt>
      <trkpt lat="47.49965" lon="6.72972">
        <ele>339</ele>
        <time>2016-07-28T12:20:39.000Z</time>
      </trkpt>
      <trkpt lat="47.49971" lon="6.72976">
        <ele>338</ele>
        <time>2016-07-28T12:20:40.000Z</time>
      </trkpt>
      <trkpt lat="47.49976" lon="6.72979">
        <ele>338</ele>
        <time>2016-07-28T12:20:41.000Z</time>
      </trkpt>
      <trkpt lat="47.49981" lon="6.72985">
        <ele>338</ele>
        <time>2016-07-28T12:20:42.000Z</time>
      </trkpt>
      <trkpt lat="47.49985" lon="6.7299">
        <ele>338</ele>
        <time>2016-07-28T12:20:43.000Z</time>
      </trkpt>
      <trkpt lat="47.4999" lon="6.72996">
        <ele>338</ele>
        <time>2016-07-28T12:20:44.000Z</time>
      </trkpt>
      <trkpt lat="47.49994" lon="6.73003">
        <ele>337</ele>
        <time>2016-07-28T12:20:45.000Z</time>
      </trkpt>
      <trkpt lat="47.49997" lon="6.7301">
        <ele>337</ele>
        <time>2016-07-28T12:20:46.000Z</time>
      </trkpt>
      <trkpt lat="47.50001" lon="6.73016">
        <ele>337</ele>
        <time>2016-07-28T12:20:47.000Z</time>
      </trkpt>
      <trkpt lat="47.50004" lon="6.73022">
        <ele>337</ele>
        <time>2016-07-28T12:20:48.000Z</time>
      </trkpt>
      <trkpt lat="47.50008" lon="6.73027">
        <ele>337</ele>
        <time>2016-07-28T12:20:49.000Z</time>
      </trkpt>
      <trkpt lat="47.50013" lon="6.73032">
        <ele>337</ele>
        <time>2016-07-28T12:20:50.000Z</time>
      </trkpt>
      <trkpt lat="47.50018" lon="6.73037">
        <ele>337</ele>
        <time>2016-07-28T12:20:51.000Z</time>
      </trkpt>
      <trkpt lat="47.50022" lon="6.73042">
        <ele>337</ele>
        <time>2016-07-28T12:20:52.000Z</time>
      </trkpt>
      <trkpt lat="47.50027" lon="6.73047">
        <ele>337</ele>
        <time>2016-07-28T12:20:53.000Z</time>
      </trkpt>
      <trkpt lat="47.50033" lon="6.73053">
        <ele>337</ele>
        <time>2016-07-28T12:20:54.000Z</time>
      </trkpt>
      <trkpt lat="47.50037" lon="6.73057">
        <ele>337</ele>
        <time>2016-07-28T12:20:55.000Z</time>
      </trkpt>
      <trkpt lat="47.50041" lon="6.73062">
        <ele>337</ele>
        <time>2016-07-28T12:20:56.000Z</time>
      </trkpt>
      <trkpt lat="47.50046" lon="6.73066">
        <ele>337</ele>
        <time>2016-07-28T12:20:57.000Z</time>
      </trkpt>
      <trkpt lat="47.5005" lon="6.73072">
        <ele>337</ele>
        <time>2016-07-28T12:20:58.000Z</time>
      </trkpt>
      <trkpt lat="47.50055" lon="6.73077">
        <ele>337</ele>
        <time>2016-07-28T12:20:59.000Z</time>
      </trkpt>
      <trkpt lat="47.50059" lon="6.73081">
        <ele>337</ele>
        <time>2016-07-28T12:21:00.000Z</time>
      </trkpt>
      <trkpt lat="47.50064" lon="6.73085">
        <ele>337</ele>
        <time>2016-07-28T12:21:01.000Z</time>
      </trkpt>
      <trkpt lat="47.50069" lon="6.7309">
        <ele>338</ele>
        <time>2016-07-28T12:21:02.000Z</time>
      </trkpt>
      <trkpt lat="47.50073" lon="6.73095">
        <ele>338</ele>
        <time>2016-07-28T12:21:03.000Z</time>
      </trkpt>
      <trkpt lat="47.50078" lon="6.731">
        <ele>338</ele>
        <time>2016-07-28T12:21:04.000Z</time>
      </trkpt>
      <trkpt lat="47.50083" lon="6.73104">
        <ele>337</ele>
        <time>2016-07-28T12:21:05.000Z</time>
      </trkpt>
      <trkpt lat="47.50087" lon="6.73108">
        <ele>339</ele>
        <time>2016-07-28T12:21:06.000Z</time>
      </trkpt>
      <trkpt lat="47.50092" lon="6.73113">
        <ele>339</ele>
        <time>2016-07-28T12:21:07.000Z</time>
      </trkpt>
      <trkpt lat="47.50097" lon="6.73116">
        <ele>339</ele>
        <time>2016-07-28T12:21:08.000Z</time>
      </trkpt>
      <trkpt lat="47.50102" lon="6.73117">
        <ele>339</ele>
        <time>2016-07-28T12:21:09.000Z</time>
      </trkpt>
      <trkpt lat="47.50107" lon="6.73118">
        <ele>339</ele>
        <time>2016-07-28T12:21:10.000Z</time>
      </trkpt>
      <trkpt lat="47.50113" lon="6.73119">
        <ele>339</ele>
        <time>2016-07-28T12:21:11.000Z</time>
      </trkpt>
      <trkpt lat="47.50117" lon="6.73119">
        <ele>339</ele>
        <time>2016-07-28T12:21:12.000Z</time>
      </trkpt>
      <trkpt lat="47.50122" lon="6.7312">
        <ele>339</ele>
        <time>2016-07-28T12:21:13.000Z</time>
      </trkpt>
      <trkpt lat="47.50126" lon="6.73121">
        <ele>339</ele>
        <time>2016-07-28T12:21:14.000Z</time>
      </trkpt>
      <trkpt lat="47.5013" lon="6.73121">
        <ele>340</ele>
        <time>2016-07-28T12:21:15.000Z</time>
      </trkpt>
      <trkpt lat="47.50134" lon="6.73122">
        <ele>340</ele>
        <time>2016-07-28T12:21:16.000Z</time>
      </trkpt>
      <trkpt lat="47.50138" lon="6.73122">
        <ele>340</ele>
        <time>2016-07-28T12:21:17.000Z</time>
      </trkpt>
      <trkpt lat="47.50142" lon="6.73121">
        <ele>340</ele>
        <time>2016-07-28T12:21:18.000Z</time>
      </trkpt>
      <trkpt lat="47.50145" lon="6.73122">
        <ele>340</ele>
        <time>2016-07-28T12:21:19.000Z</time>
      </trkpt>
      <trkpt lat="47.50149" lon="6.73121">
        <ele>340</ele>
        <time>2016-07-28T12:21:20.000Z</time>
      </trkpt>
      <trkpt lat="47.50153" lon="6.7312">
        <ele>340</ele>
        <time>2016-07-28T12:21:21.000Z</time>
      </trkpt>
      <trkpt lat="47.50156" lon="6.73121">
        <ele>340</ele>
        <time>2016-07-28T12:21:22.000Z</time>
      </trkpt>
      <trkpt lat="47.5016" lon="6.73122">
        <ele>340</ele>
        <time>2016-07-28T12:21:23.000Z</time>
      </trkpt>
      <trkpt lat="47.50163" lon="6.73123">
        <ele>340</ele>
        <time>2016-07-28T12:21:24.000Z</time>
      </trkpt>
      <trkpt lat="47.50167" lon="6.73125">
        <ele>341</ele>
        <time>2016-07-28T12:21:25.000Z</time>
      </trkpt>
      <trkpt lat="47.5017" lon="6.73128">
        <ele>341</ele>
        <time>2016-07-28T12:21:26.000Z</time>
      </trkpt>
      <trkpt lat="47.50173" lon="6.73131">
        <ele>341</ele>
        <time>2016-07-28T12:21:27.000Z</time>
      </trkpt>
      <trkpt lat="47.50175" lon="6.73133">
        <ele>341</ele>
        <time>2016-07-28T12:21:28.000Z</time>
      </trkpt>
      <trkpt lat="47.50177" lon="6.73135">
        <ele>341</ele>
        <time>2016-07-28T12:21:29.000Z</time>
      </trkpt>
      <trkpt lat="47.5018" lon="6.73137">
        <ele>341</ele>
        <time>2016-07-28T12:21:36.000Z</time>
      </trkpt>
      <trkpt lat="47.50182" lon="6.73136">
        <ele>341</ele>
        <time>2016-07-28T12:21:37.000Z</time>
      </trkpt>
      <trkpt lat="47.50186" lon="6.73136">
        <ele>341</ele>
        <time>2016-07-28T12:21:38.000Z</time>
      </trkpt>
      <trkpt lat="47.50192" lon="6.73134">
        <ele>341</ele>
        <time>2016-07-28T12:21:39.000Z</time>
      </trkpt>
      <trkpt lat="47.50197" lon="6.73138">
        <ele>341</ele>
        <time>2016-07-28T12:21:40.000Z</time>
      </trkpt>
      <trkpt lat="47.502" lon="6.73141">
        <ele>341</ele>
        <time>2016-07-28T12:21:41.000Z</time>
      </trkpt>
      <trkpt lat="47.50203" lon="6.73143">
        <ele>341</ele>
        <time>2016-07-28T12:21:42.000Z</time>
      </trkpt>
      <trkpt lat="47.50205" lon="6.73144">
        <ele>341</ele>
        <time>2016-07-28T12:21:43.000Z</time>
      </trkpt>
      <trkpt lat="47.50208" lon="6.73147">
        <ele>341</ele>
        <time>2016-07-28T12:21:44.000Z</time>
      </trkpt>
      <trkpt lat="47.5021" lon="6.73149">
        <ele>341</ele>
        <time>2016-07-28T12:21:45.000Z</time>
      </trkpt>
      <trkpt lat="47.50212" lon="6.7315">
        <ele>341</ele>
        <time>2016-07-28T12:21:46.000Z</time>
      </trkpt>
      <trkpt lat="47.50215" lon="6.73154">
        <ele>341</ele>
        <time>2016-07-28T12:21:49.000Z</time>
      </trkpt>
      <trkpt lat="47.50217" lon="6.73155">
        <ele>342</ele>
        <time>2016-07-28T12:21:50.000Z</time>
      </trkpt>
      <trkpt lat="47.50221" lon="6.73157">
        <ele>342</ele>
        <time>2016-07-28T12:21:52.000Z</time>
      </trkpt>
      <trkpt lat="47.50223" lon="6.73159">
        <ele>342</ele>
        <time>2016-07-28T12:21:53.000Z</time>
      </trkpt>
      <trkpt lat="47.50226" lon="6.73162">
        <ele>342</ele>
        <time>2016-07-28T12:21:55.000Z</time>
      </trkpt>
      <trkpt lat="47.50228" lon="6.73164">
        <ele>342</ele>
        <time>2016-07-28T12:21:56.000Z</time>
      </trkpt>
      <trkpt lat="47.5023" lon="6.73166">
        <ele>342</ele>
        <time>2016-07-28T12:21:57.000Z</time>
      </trkpt>
      <trkpt lat="47.50232" lon="6.73168">
        <ele>343</ele>
        <time>2016-07-28T12:21:58.000Z</time>
      </trkpt>
      <trkpt lat="47.50235" lon="6.73171">
        <ele>343</ele>
        <time>2016-07-28T12:21:59.000Z</time>
      </trkpt>
      <trkpt lat="47.50237" lon="6.73173">
        <ele>343</ele>
        <time>2016-07-28T12:22:00.000Z</time>
      </trkpt>
      <trkpt lat="47.5024" lon="6.73175">
        <ele>343</ele>
        <time>2016-07-28T12:22:01.000Z</time>
      </trkpt>
      <trkpt lat="47.50243" lon="6.73177">
        <ele>343</ele>
        <time>2016-07-28T12:22:02.000Z</time>
      </trkpt>
      <trkpt lat="47.50245" lon="6.73179">
        <ele>343</ele>
        <time>2016-07-28T12:22:03.000Z</time>
      </trkpt>
      <trkpt lat="47.50248" lon="6.7318">
        <ele>343</ele>
        <time>2016-07-28T12:22:03.998Z</time>
      </trkpt>
      <trkpt lat="47.50249" lon="6.73183">
        <ele>343</ele>
        <time>2016-07-28T12:22:05.000Z</time>
      </trkpt>
      <trkpt lat="47.50251" lon="6.73185">
        <ele>344</ele>
        <time>2016-07-28T12:22:05.998Z</time>
      </trkpt>
      <trkpt lat="47.50254" lon="6.73188">
        <ele>344</ele>
        <time>2016-07-28T12:22:07.000Z</time>
      </trkpt>
      <trkpt lat="47.50256" lon="6.73191">
        <ele>345</ele>
        <time>2016-07-28T12:22:08.000Z</time>
      </trkpt>
      <trkpt lat="47.50259" lon="6.73193">
        <ele>345</ele>
        <time>2016-07-28T12:22:08.999Z</time>
      </trkpt>
      <trkpt lat="47.50262" lon="6.73197">
        <ele>345</ele>
        <time>2016-07-28T12:22:10.000Z</time>
      </trkpt>
      <trkpt lat="47.50265" lon="6.732">
        <ele>345</ele>
        <time>2016-07-28T12:22:10.999Z</time>
      </trkpt>
      <trkpt lat="47.50267" lon="6.73204">
        <ele>346</ele>
        <time>2016-07-28T12:22:12.001Z</time>
      </trkpt>
      <trkpt lat="47.5027" lon="6.73207">
        <ele>346</ele>
        <time>2016-07-28T12:22:13.000Z</time>
      </trkpt>
      <trkpt lat="47.50272" lon="6.7321">
        <ele>346</ele>
        <time>2016-07-28T12:22:14.000Z</time>
      </trkpt>
      <trkpt lat="47.50275" lon="6.73213">
        <ele>346</ele>
        <time>2016-07-28T12:22:15.000Z</time>
      </trkpt>
      <trkpt lat="47.50278" lon="6.73216">
        <ele>346</ele>
        <time>2016-07-28T12:22:16.000Z</time>
      </trkpt>
      <trkpt lat="47.50281" lon="6.73218">
        <ele>346</ele>
        <time>2016-07-28T12:22:17.000Z</time>
      </trkpt>
      <trkpt lat="47.50283" lon="6.73221">
        <ele>346</ele>
        <time>2016-07-28T12:22:18.000Z</time>
      </trkpt>
      <trkpt lat="47.50286" lon="6.73225">
        <ele>346</ele>
        <time>2016-07-28T12:22:19.000Z</time>
      </trkpt>
      <trkpt lat="47.50289" lon="6.73229">
        <ele>347</ele>
        <time>2016-07-28T12:22:20.000Z</time>
      </trkpt>
      <trkpt lat="47.50293" lon="6.73233">
        <ele>347</ele>
        <time>2016-07-28T12:22:21.000Z</time>
      </trkpt>
      <trkpt lat="47.50296" lon="6.73236">
        <ele>347</ele>
        <time>2016-07-28T12:22:22.000Z</time>
      </trkpt>
      <trkpt lat="47.50299" lon="6.7324">
        <ele>347</ele>
        <time>2016-07-28T12:22:23.000Z</time>
      </trkpt>
      <trkpt lat="47.50303" lon="6.73243">
        <ele>347</ele>
        <time>2016-07-28T12:22:24.000Z</time>
      </trkpt>
      <trkpt lat="47.50306" lon="6.73245">
        <ele>347</ele>
        <time>2016-07-28T12:22:25.000Z</time>
      </trkpt>
      <trkpt lat="47.5031" lon="6.73249">
        <ele>347</ele>
        <time>2016-07-28T12:22:26.000Z</time>
      </trkpt>
      <trkpt lat="47.50314" lon="6.73252">
        <ele>351</ele>
        <time>2016-07-28T12:22:27.000Z</time>
      </trkpt>
      <trkpt lat="47.50317" lon="6.73255">
        <ele>350</ele>
        <time>2016-07-28T12:22:28.000Z</time>
      </trkpt>
      <trkpt lat="47.5032" lon="6.73258">
        <ele>350</ele>
        <time>2016-07-28T12:22:29.000Z</time>
      </trkpt>
      <trkpt lat="47.50324" lon="6.7326">
        <ele>350</ele>
        <time>2016-07-28T12:22:30.000Z</time>
      </trkpt>
      <trkpt lat="47.50327" lon="6.73263">
        <ele>350</ele>
        <time>2016-07-28T12:22:31.000Z</time>
      </trkpt>
      <trkpt lat="47.5033" lon="6.73265">
        <ele>350</ele>
        <time>2016-07-28T12:22:32.000Z</time>
      </trkpt>
      <trkpt lat="47.50333" lon="6.73267">
        <ele>351</ele>
        <time>2016-07-28T12:22:33.000Z</time>
      </trkpt>
      <trkpt lat="47.50336" lon="6.73269">
        <ele>351</ele>
        <time>2016-07-28T12:22:34.000Z</time>
      </trkpt>
      <trkpt lat="47.50339" lon="6.7327">
        <ele>352</ele>
        <time>2016-07-28T12:22:35.000Z</time>
      </trkpt>
      <trkpt lat="47.50342" lon="6.73272">
        <ele>352</ele>
        <time>2016-07-28T12:22:36.000Z</time>
      </trkpt>
      <trkpt lat="47.50344" lon="6.73274">
        <ele>352</ele>
        <time>2016-07-28T12:22:37.000Z</time>
      </trkpt>
      <trkpt lat="47.50346" lon="6.73276">
        <ele>352</ele>
        <time>2016-07-28T12:22:38.000Z</time>
      </trkpt>
      <trkpt lat="47.50348" lon="6.73277">
        <ele>353</ele>
        <time>2016-07-28T12:22:39.000Z</time>
      </trkpt>
      <trkpt lat="47.5035" lon="6.7328">
        <ele>353</ele>
        <time>2016-07-28T12:22:40.000Z</time>
      </trkpt>
      <trkpt lat="47.50352" lon="6.73281">
        <ele>353</ele>
        <time>2016-07-28T12:22:41.000Z</time>
      </trkpt>
      <trkpt lat="47.50354" lon="6.73283">
        <ele>353</ele>
        <time>2016-07-28T12:22:42.000Z</time>
      </trkpt>
      <trkpt lat="47.50356" lon="6.73285">
        <ele>353</ele>
        <time>2016-07-28T12:22:43.000Z</time>
      </trkpt>
      <trkpt lat="47.50358" lon="6.73286">
        <ele>353</ele>
        <time>2016-07-28T12:22:44.000Z</time>
      </trkpt>
      <trkpt lat="47.50361" lon="6.73288">
        <ele>354</ele>
        <time>2016-07-28T12:22:45.000Z</time>
      </trkpt>
      <trkpt lat="47.50363" lon="6.73289">
        <ele>354</ele>
        <time>2016-07-28T12:22:46.000Z</time>
      </trkpt>
      <trkpt lat="47.50366" lon="6.73291">
        <ele>354</ele>
        <time>2016-07-28T12:22:47.000Z</time>
      </trkpt>
      <trkpt lat="47.50369" lon="6.73292">
        <ele>354</ele>
        <time>2016-07-28T12:22:48.000Z</time>
      </trkpt>
      <trkpt lat="47.50372" lon="6.73293">
        <ele>354</ele>
        <time>2016-07-28T12:22:49.000Z</time>
      </trkpt>
      <trkpt lat="47.50374" lon="6.73294">
        <ele>354</ele>
        <time>2016-07-28T12:22:50.000Z</time>
      </trkpt>
      <trkpt lat="47.50378" lon="6.73295">
        <ele>354</ele>
        <time>2016-07-28T12:22:51.000Z</time>
      </trkpt>
      <trkpt lat="47.50381" lon="6.73296">
        <ele>354</ele>
        <time>2016-07-28T12:22:52.000Z</time>
      </trkpt>
      <trkpt lat="47.50383" lon="6.73296">
        <ele>354</ele>
        <time>2016-07-28T12:22:53.000Z</time>
      </trkpt>
      <trkpt lat="47.50386" lon="6.73297">
        <ele>354</ele>
        <time>2016-07-28T12:22:54.000Z</time>
      </trkpt>
      <trkpt lat="47.50389" lon="6.73298">
        <ele>354</ele>
        <time>2016-07-28T12:22:55.000Z</time>
      </trkpt>
      <trkpt lat="47.50391" lon="6.73299">
        <ele>355</ele>
        <time>2016-07-28T12:22:56.000Z</time>
      </trkpt>
      <trkpt lat="47.50393" lon="6.733">
        <ele>355</ele>
        <time>2016-07-28T12:22:57.000Z</time>
      </trkpt>
      <trkpt lat="47.50396" lon="6.73302">
        <ele>355</ele>
        <time>2016-07-28T12:22:58.000Z</time>
      </trkpt>
      <trkpt lat="47.50399" lon="6.73303">
        <ele>355</ele>
        <time>2016-07-28T12:22:59.000Z</time>
      </trkpt>
      <trkpt lat="47.50401" lon="6.73305">
        <ele>355</ele>
        <time>2016-07-28T12:23:00.000Z</time>
      </trkpt>
      <trkpt lat="47.50404" lon="6.73307">
        <ele>355</ele>
        <time>2016-07-28T12:23:01.000Z</time>
      </trkpt>
      <trkpt lat="47.50406" lon="6.73309">
        <ele>355</ele>
        <time>2016-07-28T12:23:02.000Z</time>
      </trkpt>
      <trkpt lat="47.50409" lon="6.7331">
        <ele>355</ele>
        <time>2016-07-28T12:23:03.000Z</time>
      </trkpt>
      <trkpt lat="47.50412" lon="6.73312">
        <ele>356</ele>
        <time>2016-07-28T12:23:04.000Z</time>
      </trkpt>
      <trkpt lat="47.50414" lon="6.73315">
        <ele>356</ele>
        <time>2016-07-28T12:23:05.000Z</time>
      </trkpt>
      <trkpt lat="47.50417" lon="6.73317">
        <ele>358</ele>
        <time>2016-07-28T12:23:06.000Z</time>
      </trkpt>
      <trkpt lat="47.50421" lon="6.73321">
        <ele>358</ele>
        <time>2016-07-28T12:23:07.000Z</time>
      </trkpt>
      <trkpt lat="47.50423" lon="6.73322">
        <ele>358</ele>
        <time>2016-07-28T12:23:08.000Z</time>
      </trkpt>
      <trkpt lat="47.50425" lon="6.73323">
        <ele>358</ele>
        <time>2016-07-28T12:23:09.000Z</time>
      </trkpt>
      <trkpt lat="47.50427" lon="6.73325">
        <ele>358</ele>
        <time>2016-07-28T12:23:10.000Z</time>
      </trkpt>
      <trkpt lat="47.5043" lon="6.73328">
        <ele>358</ele>
        <time>2016-07-28T12:23:11.000Z</time>
      </trkpt>
      <trkpt lat="47.50432" lon="6.73329">
        <ele>358</ele>
        <time>2016-07-28T12:23:12.000Z</time>
      </trkpt>
      <trkpt lat="47.50434" lon="6.73331">
        <ele>358</ele>
        <time>2016-07-28T12:23:13.000Z</time>
      </trkpt>
      <trkpt lat="47.50437" lon="6.73333">
        <ele>358</ele>
        <time>2016-07-28T12:23:14.000Z</time>
      </trkpt>
      <trkpt lat="47.5044" lon="6.73336">
        <ele>361</ele>
        <time>2016-07-28T12:23:15.000Z</time>
      </trkpt>
      <trkpt lat="47.50442" lon="6.73337">
        <ele>361</ele>
        <time>2016-07-28T12:23:16.000Z</time>
      </trkpt>
      <trkpt lat="47.50445" lon="6.73339">
        <ele>361</ele>
        <time>2016-07-28T12:23:17.000Z</time>
      </trkpt>
      <trkpt lat="47.50447" lon="6.73341">
        <ele>361</ele>
        <time>2016-07-28T12:23:18.000Z</time>
      </trkpt>
      <trkpt lat="47.50449" lon="6.73343">
        <ele>361</ele>
        <time>2016-07-28T12:23:19.000Z</time>
      </trkpt>
      <trkpt lat="47.50451" lon="6.73345">
        <ele>361</ele>
        <time>2016-07-28T12:23:20.000Z</time>
      </trkpt>
      <trkpt lat="47.50453" lon="6.73347">
        <ele>361</ele>
        <time>2016-07-28T12:23:21.000Z</time>
      </trkpt>
      <trkpt lat="47.50455" lon="6.7335">
        <ele>362</ele>
        <time>2016-07-28T12:23:22.000Z</time>
      </trkpt>
      <trkpt lat="47.50457" lon="6.73352">
        <ele>362</ele>
        <time>2016-07-28T12:23:23.000Z</time>
      </trkpt>
      <trkpt lat="47.50459" lon="6.73354">
        <ele>362</ele>
        <time>2016-07-28T12:23:24.000Z</time>
      </trkpt>
      <trkpt lat="47.50461" lon="6.73356">
        <ele>362</ele>
        <time>2016-07-28T12:23:25.000Z</time>
      </trkpt>
      <trkpt lat="47.50463" lon="6.73358">
        <ele>362</ele>
        <time>2016-07-28T12:23:26.000Z</time>
      </trkpt>
      <trkpt lat="47.50465" lon="6.7336">
        <ele>362</ele>
        <time>2016-07-28T12:23:27.000Z</time>
      </trkpt>
      <trkpt lat="47.50468" lon="6.73365">
        <ele>362</ele>
        <time>2016-07-28T12:23:29.000Z</time>
      </trkpt>
      <trkpt lat="47.50469" lon="6.73367">
        <ele>362</ele>
        <time>2016-07-28T12:23:30.000Z</time>
      </trkpt>
      <trkpt lat="47.50471" lon="6.73369">
        <ele>362</ele>
        <time>2016-07-28T12:23:31.000Z</time>
      </trkpt>
      <trkpt lat="47.50473" lon="6.73372">
        <ele>362</ele>
        <time>2016-07-28T12:23:32.000Z</time>
      </trkpt>
      <trkpt lat="47.50475" lon="6.73374">
        <ele>362</ele>
        <time>2016-07-28T12:23:33.000Z</time>
      </trkpt>
      <trkpt lat="47.50476" lon="6.73376">
        <ele>363</ele>
        <time>2016-07-28T12:23:34.000Z</time>
      </trkpt>
      <trkpt lat="47.50478" lon="6.73379">
        <ele>363</ele>
        <time>2016-07-28T12:23:35.000Z</time>
      </trkpt>
      <trkpt lat="47.5048" lon="6.73381">
        <ele>363</ele>
        <time>2016-07-28T12:23:36.000Z</time>
      </trkpt>
      <trkpt lat="47.50482" lon="6.73384">
        <ele>363</ele>
        <time>2016-07-28T12:23:38.000Z</time>
      </trkpt>
      <trkpt lat="47.50484" lon="6.73386">
        <ele>363</ele>
        <time>2016-07-28T12:23:39.000Z</time>
      </trkpt>
      <trkpt lat="47.50485" lon="6.73387">
        <ele>363</ele>
        <time>2016-07-28T12:23:40.000Z</time>
      </trkpt>
      <trkpt lat="47.50487" lon="6.7339">
        <ele>363</ele>
        <time>2016-07-28T12:23:41.000Z</time>
      </trkpt>
      <trkpt lat="47.5049" lon="6.73392">
        <ele>363</ele>
        <time>2016-07-28T12:23:42.000Z</time>
      </trkpt>
      <trkpt lat="47.50492" lon="6.73395">
        <ele>363</ele>
        <time>2016-07-28T12:23:43.000Z</time>
      </trkpt>
      <trkpt lat="47.50495" lon="6.73398">
        <ele>364</ele>
        <time>2016-07-28T12:23:44.000Z</time>
      </trkpt>
      <trkpt lat="47.50497" lon="6.734">
        <ele>364</ele>
        <time>2016-07-28T12:23:45.000Z</time>
      </trkpt>
      <trkpt lat="47.505" lon="6.73403">
        <ele>364</ele>
        <time>2016-07-28T12:23:46.000Z</time>
      </trkpt>
      <trkpt lat="47.50502" lon="6.73405">
        <ele>367</ele>
        <time>2016-07-28T12:23:47.000Z</time>
      </trkpt>
      <trkpt lat="47.50505" lon="6.73407">
        <ele>367</ele>
        <time>2016-07-28T12:23:48.000Z</time>
      </trkpt>
      <trkpt lat="47.50507" lon="6.73409">
        <ele>367</ele>
        <time>2016-07-28T12:23:49.000Z</time>
      </trkpt>
      <trkpt lat="47.5051" lon="6.73411">
        <ele>367</ele>
        <time>2016-07-28T12:23:50.000Z</time>
      </trkpt>
      <trkpt lat="47.50512" lon="6.73412">
        <ele>367</ele>
        <time>2016-07-28T12:23:51.000Z</time>
      </trkpt>
      <trkpt lat="47.50514" lon="6.73414">
        <ele>368</ele>
        <time>2016-07-28T12:23:52.000Z</time>
      </trkpt>
      <trkpt lat="47.50516" lon="6.73415">
        <ele>368</ele>
        <time>2016-07-28T12:23:53.000Z</time>
      </trkpt>
      <trkpt lat="47.50519" lon="6.73417">
        <ele>368</ele>
        <time>2016-07-28T12:23:54.000Z</time>
      </trkpt>
      <trkpt lat="47.50521" lon="6.73418">
        <ele>371</ele>
        <time>2016-07-28T12:23:55.000Z</time>
      </trkpt>
      <trkpt lat="47.50523" lon="6.7342">
        <ele>371</ele>
        <time>2016-07-28T12:23:56.000Z</time>
      </trkpt>
      <trkpt lat="47.50525" lon="6.73421">
        <ele>372</ele>
        <time>2016-07-28T12:23:57.000Z</time>
      </trkpt>
      <trkpt lat="47.50529" lon="6.73424">
        <ele>372</ele>
        <time>2016-07-28T12:23:59.000Z</time>
      </trkpt>
      <trkpt lat="47.50531" lon="6.73426">
        <ele>373</ele>
        <time>2016-07-28T12:24:00.000Z</time>
      </trkpt>
      <trkpt lat="47.50533" lon="6.73429">
        <ele>373</ele>
        <time>2016-07-28T12:24:01.000Z</time>
      </trkpt>
      <trkpt lat="47.50535" lon="6.73432">
        <ele>373</ele>
        <time>2016-07-28T12:24:02.000Z</time>
      </trkpt>
      <trkpt lat="47.50538" lon="6.73435">
        <ele>374</ele>
        <time>2016-07-28T12:24:03.000Z</time>
      </trkpt>
      <trkpt lat="47.50539" lon="6.73437">
        <ele>374</ele>
        <time>2016-07-28T12:24:04.000Z</time>
      </trkpt>
      <trkpt lat="47.50542" lon="6.7344">
        <ele>374</ele>
        <time>2016-07-28T12:24:05.000Z</time>
      </trkpt>
      <trkpt lat="47.50543" lon="6.73443">
        <ele>374</ele>
        <time>2016-07-28T12:24:06.000Z</time>
      </trkpt>
      <trkpt lat="47.50545" lon="6.73446">
        <ele>374</ele>
        <time>2016-07-28T12:24:07.000Z</time>
      </trkpt>
      <trkpt lat="47.50546" lon="6.73449">
        <ele>375</ele>
        <time>2016-07-28T12:24:08.000Z</time>
      </trkpt>
      <trkpt lat="47.50548" lon="6.73453">
        <ele>375</ele>
        <time>2016-07-28T12:24:09.000Z</time>
      </trkpt>
      <trkpt lat="47.50549" lon="6.73456">
        <ele>375</ele>
        <time>2016-07-28T12:24:10.000Z</time>
      </trkpt>
      <trkpt lat="47.50551" lon="6.7346">
        <ele>375</ele>
        <time>2016-07-28T12:24:11.000Z</time>
      </trkpt>
      <trkpt lat="47.50552" lon="6.73463">
        <ele>375</ele>
        <time>2016-07-28T12:24:12.000Z</time>
      </trkpt>
      <trkpt lat="47.50554" lon="6.73466">
        <ele>375</ele>
        <time>2016-07-28T12:24:13.000Z</time>
      </trkpt>
      <trkpt lat="47.50556" lon="6.73468">
        <ele>375</ele>
        <time>2016-07-28T12:24:14.000Z</time>
      </trkpt>
      <trkpt lat="47.50558" lon="6.7347">
        <ele>375</ele>
        <time>2016-07-28T12:24:15.000Z</time>
      </trkpt>
      <trkpt lat="47.5056" lon="6.73473">
        <ele>375</ele>
        <time>2016-07-28T12:24:16.000Z</time>
      </trkpt>
      <trkpt lat="47.50562" lon="6.73475">
        <ele>375</ele>
        <time>2016-07-28T12:24:17.000Z</time>
      </trkpt>
      <trkpt lat="47.50565" lon="6.73478">
        <ele>376</ele>
        <time>2016-07-28T12:24:18.000Z</time>
      </trkpt>
      <trkpt lat="47.50567" lon="6.7348">
        <ele>376</ele>
        <time>2016-07-28T12:24:19.000Z</time>
      </trkpt>
      <trkpt lat="47.50569" lon="6.73482">
        <ele>376</ele>
        <time>2016-07-28T12:24:20.000Z</time>
      </trkpt>
      <trkpt lat="47.50572" lon="6.73484">
        <ele>376</ele>
        <time>2016-07-28T12:24:21.000Z</time>
      </trkpt>
      <trkpt lat="47.50574" lon="6.73486">
        <ele>376</ele>
        <time>2016-07-28T12:24:22.000Z</time>
      </trkpt>
      <trkpt lat="47.50576" lon="6.73488">
        <ele>376</ele>
        <time>2016-07-28T12:24:23.000Z</time>
      </trkpt>
      <trkpt lat="47.50578" lon="6.73489">
        <ele>376</ele>
        <time>2016-07-28T12:24:24.000Z</time>
      </trkpt>
      <trkpt lat="47.5058" lon="6.73491">
        <ele>376</ele>
        <time>2016-07-28T12:24:25.000Z</time>
      </trkpt>
      <trkpt lat="47.50582" lon="6.73493">
        <ele>376</ele>
        <time>2016-07-28T12:24:26.000Z</time>
      </trkpt>
      <trkpt lat="47.50584" lon="6.73496">
        <ele>377</ele>
        <time>2016-07-28T12:24:27.000Z</time>
      </trkpt>
      <trkpt lat="47.50586" lon="6.73498">
        <ele>377</ele>
        <time>2016-07-28T12:24:28.000Z</time>
      </trkpt>
      <trkpt lat="47.50588" lon="6.73501">
        <ele>377</ele>
        <time>2016-07-28T12:24:29.000Z</time>
      </trkpt>
      <trkpt lat="47.5059" lon="6.73503">
        <ele>377</ele>
        <time>2016-07-28T12:24:30.000Z</time>
      </trkpt>
      <trkpt lat="47.50592" lon="6.73505">
        <ele>377</ele>
        <time>2016-07-28T12:24:31.000Z</time>
      </trkpt>
      <trkpt lat="47.50595" lon="6.73508">
        <ele>378</ele>
        <time>2016-07-28T12:24:32.000Z</time>
      </trkpt>
      <trkpt lat="47.50597" lon="6.73509">
        <ele>378</ele>
        <time>2016-07-28T12:24:33.000Z</time>
      </trkpt>
      <trkpt lat="47.50599" lon="6.73511">
        <ele>378</ele>
        <time>2016-07-28T12:24:34.000Z</time>
      </trkpt>
      <trkpt lat="47.50601" lon="6.73514">
        <ele>378</ele>
        <time>2016-07-28T12:24:35.000Z</time>
      </trkpt>
      <trkpt lat="47.50603" lon="6.73516">
        <ele>378</ele>
        <time>2016-07-28T12:24:36.000Z</time>
      </trkpt>
      <trkpt lat="47.50605" lon="6.73519">
        <ele>378</ele>
        <time>2016-07-28T12:24:37.000Z</time>
      </trkpt>
      <trkpt lat="47.50607" lon="6.73521">
        <ele>379</ele>
        <time>2016-07-28T12:24:38.000Z</time>
      </trkpt>
      <trkpt lat="47.5061" lon="6.73526">
        <ele>379</ele>
        <time>2016-07-28T12:24:40.000Z</time>
      </trkpt>
      <trkpt lat="47.50611" lon="6.73528">
        <ele>379</ele>
        <time>2016-07-28T12:24:41.000Z</time>
      </trkpt>
      <trkpt lat="47.50613" lon="6.7353">
        <ele>379</ele>
        <time>2016-07-28T12:24:42.000Z</time>
      </trkpt>
      <trkpt lat="47.50615" lon="6.73533">
        <ele>379</ele>
        <time>2016-07-28T12:24:43.000Z</time>
      </trkpt>
      <trkpt lat="47.50617" lon="6.73536">
        <ele>379</ele>
        <time>2016-07-28T12:24:44.000Z</time>
      </trkpt>
      <trkpt lat="47.50619" lon="6.73539">
        <ele>379</ele>
        <time>2016-07-28T12:24:45.000Z</time>
      </trkpt>
      <trkpt lat="47.50621" lon="6.73543">
        <ele>379</ele>
        <time>2016-07-28T12:24:46.000Z</time>
      </trkpt>
      <trkpt lat="47.50622" lon="6.73546">
        <ele>379</ele>
        <time>2016-07-28T12:24:47.000Z</time>
      </trkpt>
      <trkpt lat="47.50624" lon="6.7355">
        <ele>379</ele>
        <time>2016-07-28T12:24:48.000Z</time>
      </trkpt>
      <trkpt lat="47.50625" lon="6.73553">
        <ele>378</ele>
        <time>2016-07-28T12:24:49.000Z</time>
      </trkpt>
      <trkpt lat="47.50627" lon="6.73557">
        <ele>378</ele>
        <time>2016-07-28T12:24:50.000Z</time>
      </trkpt>
      <trkpt lat="47.50628" lon="6.7356">
        <ele>378</ele>
        <time>2016-07-28T12:24:51.000Z</time>
      </trkpt>
      <trkpt lat="47.5063" lon="6.73565">
        <ele>378</ele>
        <time>2016-07-28T12:24:52.000Z</time>
      </trkpt>
      <trkpt lat="47.50632" lon="6.73569">
        <ele>378</ele>
        <time>2016-07-28T12:24:53.000Z</time>
      </trkpt>
      <trkpt lat="47.50634" lon="6.73574">
        <ele>377</ele>
        <time>2016-07-28T12:24:54.000Z</time>
      </trkpt>
      <trkpt lat="47.5064" lon="6.73585">
        <ele>374</ele>
        <time>2016-07-28T12:24:55.000Z</time>
      </trkpt>
      <trkpt lat="47.50644" lon="6.73592">
        <ele>373</ele>
        <time>2016-07-28T12:24:56.000Z</time>
      </trkpt>
      <trkpt lat="47.50648" lon="6.73597">
        <ele>373</ele>
        <time>2016-07-28T12:24:57.000Z</time>
      </trkpt>
      <trkpt lat="47.50651" lon="6.73599">
        <ele>373</ele>
        <time>2016-07-28T12:24:58.000Z</time>
      </trkpt>
      <trkpt lat="47.50656" lon="6.736">
        <ele>372</ele>
        <time>2016-07-28T12:24:59.000Z</time>
      </trkpt>
      <trkpt lat="47.5066" lon="6.73601">
        <ele>372</ele>
        <time>2016-07-28T12:25:00.000Z</time>
      </trkpt>
      <trkpt lat="47.50666" lon="6.73601">
        <ele>372</ele>
        <time>2016-07-28T12:25:01.000Z</time>
      </trkpt>
      <trkpt lat="47.50673" lon="6.73594">
        <ele>368</ele>
        <time>2016-07-28T12:25:02.000Z</time>
      </trkpt>
      <trkpt lat="47.50678" lon="6.73589">
        <ele>367</ele>
        <time>2016-07-28T12:25:03.000Z</time>
      </trkpt>
      <trkpt lat="47.50682" lon="6.73585">
        <ele>367</ele>
        <time>2016-07-28T12:25:04.000Z</time>
      </trkpt>
      <trkpt lat="47.50686" lon="6.73581">
        <ele>371</ele>
        <time>2016-07-28T12:25:05.000Z</time>
      </trkpt>
      <trkpt lat="47.50691" lon="6.73578">
        <ele>371</ele>
        <time>2016-07-28T12:25:06.000Z</time>
      </trkpt>
      <trkpt lat="47.50695" lon="6.73574">
        <ele>371</ele>
        <time>2016-07-28T12:25:07.000Z</time>
      </trkpt>
      <trkpt lat="47.50699" lon="6.7357">
        <ele>371</ele>
        <time>2016-07-28T12:25:08.000Z</time>
      </trkpt>
      <trkpt lat="47.50703" lon="6.73568">
        <ele>371</ele>
        <time>2016-07-28T12:25:09.000Z</time>
      </trkpt>
      <trkpt lat="47.50708" lon="6.73565">
        <ele>370</ele>
        <time>2016-07-28T12:25:10.000Z</time>
      </trkpt>
      <trkpt lat="47.50713" lon="6.73563">
        <ele>370</ele>
        <time>2016-07-28T12:25:11.000Z</time>
      </trkpt>
      <trkpt lat="47.50719" lon="6.7356">
        <ele>370</ele>
        <time>2016-07-28T12:25:12.000Z</time>
      </trkpt>
      <trkpt lat="47.50724" lon="6.73557">
        <ele>370</ele>
        <time>2016-07-28T12:25:13.000Z</time>
      </trkpt>
      <trkpt lat="47.50729" lon="6.73554">
        <ele>369</ele>
        <time>2016-07-28T12:25:14.000Z</time>
      </trkpt>
      <trkpt lat="47.50733" lon="6.73551">
        <ele>369</ele>
        <time>2016-07-28T12:25:15.000Z</time>
      </trkpt>
      <trkpt lat="47.50737" lon="6.73548">
        <ele>369</ele>
        <time>2016-07-28T12:25:16.000Z</time>
      </trkpt>
      <trkpt lat="47.50741" lon="6.73545">
        <ele>370</ele>
        <time>2016-07-28T12:25:17.000Z</time>
      </trkpt>
      <trkpt lat="47.50746" lon="6.73542">
        <ele>370</ele>
        <time>2016-07-28T12:25:18.000Z</time>
      </trkpt>
      <trkpt lat="47.5075" lon="6.73541">
        <ele>364</ele>
        <time>2016-07-28T12:25:19.000Z</time>
      </trkpt>
      <trkpt lat="47.50755" lon="6.73539">
        <ele>365</ele>
        <time>2016-07-28T12:25:20.000Z</time>
      </trkpt>
      <trkpt lat="47.50761" lon="6.73536">
        <ele>365</ele>
        <time>2016-07-28T12:25:21.000Z</time>
      </trkpt>
      <trkpt lat="47.50766" lon="6.73534">
        <ele>365</ele>
        <time>2016-07-28T12:25:22.000Z</time>
      </trkpt>
      <trkpt lat="47.5077" lon="6.73532">
        <ele>365</ele>
        <time>2016-07-28T12:25:23.000Z</time>
      </trkpt>
      <trkpt lat="47.50775" lon="6.73531">
        <ele>365</ele>
        <time>2016-07-28T12:25:24.000Z</time>
      </trkpt>
      <trkpt lat="47.5078" lon="6.7353">
        <ele>365</ele>
        <time>2016-07-28T12:25:25.000Z</time>
      </trkpt>
      <trkpt lat="47.50785" lon="6.73527">
        <ele>365</ele>
        <time>2016-07-28T12:25:26.000Z</time>
      </trkpt>
      <trkpt lat="47.5079" lon="6.73525">
        <ele>365</ele>
        <time>2016-07-28T12:25:27.000Z</time>
      </trkpt>
      <trkpt lat="47.50794" lon="6.73526">
        <ele>364</ele>
        <time>2016-07-28T12:25:28.000Z</time>
      </trkpt>
      <trkpt lat="47.50798" lon="6.73525">
        <ele>364</ele>
        <time>2016-07-28T12:25:29.000Z</time>
      </trkpt>
      <trkpt lat="47.50803" lon="6.73525">
        <ele>364</ele>
        <time>2016-07-28T12:25:30.000Z</time>
      </trkpt>
      <trkpt lat="47.50807" lon="6.73524">
        <ele>364</ele>
        <time>2016-07-28T12:25:31.000Z</time>
      </trkpt>
      <trkpt lat="47.50811" lon="6.73524">
        <ele>364</ele>
        <time>2016-07-28T12:25:32.000Z</time>
      </trkpt>
      <trkpt lat="47.50815" lon="6.73525">
        <ele>364</ele>
        <time>2016-07-28T12:25:33.000Z</time>
      </trkpt>
      <trkpt lat="47.50821" lon="6.73525">
        <ele>364</ele>
        <time>2016-07-28T12:25:34.000Z</time>
      </trkpt>
      <trkpt lat="47.50826" lon="6.73526">
        <ele>364</ele>
        <time>2016-07-28T12:25:35.000Z</time>
      </trkpt>
      <trkpt lat="47.50831" lon="6.73527">
        <ele>364</ele>
        <time>2016-07-28T12:25:36.000Z</time>
      </trkpt>
      <trkpt lat="47.50835" lon="6.73529">
        <ele>362</ele>
        <time>2016-07-28T12:25:37.000Z</time>
      </trkpt>
      <trkpt lat="47.5084" lon="6.73532">
        <ele>362</ele>
        <time>2016-07-28T12:25:38.000Z</time>
      </trkpt>
      <trkpt lat="47.50845" lon="6.73536">
        <ele>362</ele>
        <time>2016-07-28T12:25:38.999Z</time>
      </trkpt>
      <trkpt lat="47.50849" lon="6.73539">
        <ele>362</ele>
        <time>2016-07-28T12:25:40.000Z</time>
      </trkpt>
      <trkpt lat="47.50852" lon="6.73542">
        <ele>361</ele>
        <time>2016-07-28T12:25:41.000Z</time>
      </trkpt>
      <trkpt lat="47.50856" lon="6.73547">
        <ele>361</ele>
        <time>2016-07-28T12:25:41.999Z</time>
      </trkpt>
      <trkpt lat="47.5086" lon="6.73549">
        <ele>361</ele>
        <time>2016-07-28T12:25:43.000Z</time>
      </trkpt>
      <trkpt lat="47.50863" lon="6.73553">
        <ele>361</ele>
        <time>2016-07-28T12:25:44.000Z</time>
      </trkpt>
      <trkpt lat="47.50867" lon="6.73556">
        <ele>361</ele>
        <time>2016-07-28T12:25:45.000Z</time>
      </trkpt>
      <trkpt lat="47.50871" lon="6.73562">
        <ele>361</ele>
        <time>2016-07-28T12:25:46.000Z</time>
      </trkpt>
      <trkpt lat="47.50875" lon="6.7357">
        <ele>360</ele>
        <time>2016-07-28T12:25:47.000Z</time>
      </trkpt>
      <trkpt lat="47.50878" lon="6.73576">
        <ele>360</ele>
        <time>2016-07-28T12:25:48.000Z</time>
      </trkpt>
      <trkpt lat="47.50882" lon="6.73583">
        <ele>360</ele>
        <time>2016-07-28T12:25:49.000Z</time>
      </trkpt>
      <trkpt lat="47.50885" lon="6.73589">
        <ele>357</ele>
        <time>2016-07-28T12:25:50.000Z</time>
      </trkpt>
      <trkpt lat="47.50888" lon="6.73595">
        <ele>357</ele>
        <time>2016-07-28T12:25:51.000Z</time>
      </trkpt>
      <trkpt lat="47.5089" lon="6.736">
        <ele>357</ele>
        <time>2016-07-28T12:25:52.000Z</time>
      </trkpt>
      <trkpt lat="47.50894" lon="6.73605">
        <ele>357</ele>
        <time>2016-07-28T12:25:53.000Z</time>
      </trkpt>
      <trkpt lat="47.50896" lon="6.73608">
        <ele>357</ele>
        <time>2016-07-28T12:25:54.000Z</time>
      </trkpt>
      <trkpt lat="47.50899" lon="6.73612">
        <ele>357</ele>
        <time>2016-07-28T12:25:55.000Z</time>
      </trkpt>
      <trkpt lat="47.50901" lon="6.73617">
        <ele>357</ele>
        <time>2016-07-28T12:25:56.000Z</time>
      </trkpt>
      <trkpt lat="47.50904" lon="6.73621">
        <ele>357</ele>
        <time>2016-07-28T12:25:57.000Z</time>
      </trkpt>
      <trkpt lat="47.5091" lon="6.73624">
        <ele>357</ele>
        <time>2016-07-28T12:25:58.000Z</time>
      </trkpt>
      <trkpt lat="47.50915" lon="6.73626">
        <ele>356</ele>
        <time>2016-07-28T12:25:59.000Z</time>
      </trkpt>
      <trkpt lat="47.5092" lon="6.73627">
        <ele>357</ele>
        <time>2016-07-28T12:26:00.000Z</time>
      </trkpt>
      <trkpt lat="47.50925" lon="6.73628">
        <ele>357</ele>
        <time>2016-07-28T12:26:01.000Z</time>
      </trkpt>
      <trkpt lat="47.5093" lon="6.73629">
        <ele>357</ele>
        <time>2016-07-28T12:26:02.000Z</time>
      </trkpt>
      <trkpt lat="47.50936" lon="6.7363">
        <ele>357</ele>
        <time>2016-07-28T12:26:03.000Z</time>
      </trkpt>
      <trkpt lat="47.50942" lon="6.73632">
        <ele>357</ele>
        <time>2016-07-28T12:26:04.000Z</time>
      </trkpt>
      <trkpt lat="47.50948" lon="6.73635">
        <ele>357</ele>
        <time>2016-07-28T12:26:05.000Z</time>
      </trkpt>
      <trkpt lat="47.50953" lon="6.73639">
        <ele>357</ele>
        <time>2016-07-28T12:26:06.000Z</time>
      </trkpt>
      <trkpt lat="47.50959" lon="6.73643">
        <ele>358</ele>
        <time>2016-07-28T12:26:07.000Z</time>
      </trkpt>
      <trkpt lat="47.50964" lon="6.73643">
        <ele>358</ele>
        <time>2016-07-28T12:26:08.000Z</time>
      </trkpt>
      <trkpt lat="47.50969" lon="6.73646">
        <ele>358</ele>
        <time>2016-07-28T12:26:09.000Z</time>
      </trkpt>
      <trkpt lat="47.50973" lon="6.73648">
        <ele>358</ele>
        <time>2016-07-28T12:26:09.999Z</time>
      </trkpt>
      <trkpt lat="47.50977" lon="6.7365">
        <ele>358</ele>
        <time>2016-07-28T12:26:11.000Z</time>
      </trkpt>
      <trkpt lat="47.5098" lon="6.73651">
        <ele>359</ele>
        <time>2016-07-28T12:26:12.000Z</time>
      </trkpt>
      <trkpt lat="47.50983" lon="6.73651">
        <ele>359</ele>
        <time>2016-07-28T12:26:13.000Z</time>
      </trkpt>
      <trkpt lat="47.50985" lon="6.73653">
        <ele>359</ele>
        <time>2016-07-28T12:26:14.000Z</time>
      </trkpt>
      <trkpt lat="47.50988" lon="6.73654">
        <ele>359</ele>
        <time>2016-07-28T12:26:15.000Z</time>
      </trkpt>
      <trkpt lat="47.50991" lon="6.73655">
        <ele>359</ele>
        <time>2016-07-28T12:26:16.000Z</time>
      </trkpt>
      <trkpt lat="47.50994" lon="6.73655">
        <ele>360</ele>
        <time>2016-07-28T12:26:17.000Z</time>
      </trkpt>
      <trkpt lat="47.50997" lon="6.73656">
        <ele>360</ele>
        <time>2016-07-28T12:26:18.000Z</time>
      </trkpt>
      <trkpt lat="47.51001" lon="6.73658">
        <ele>362</ele>
        <time>2016-07-28T12:26:19.000Z</time>
      </trkpt>
      <trkpt lat="47.51004" lon="6.73659">
        <ele>362</ele>
        <time>2016-07-28T12:26:20.000Z</time>
      </trkpt>
      <trkpt lat="47.51006" lon="6.7366">
        <ele>362</ele>
        <time>2016-07-28T12:26:21.000Z</time>
      </trkpt>
      <trkpt lat="47.51009" lon="6.73662">
        <ele>363</ele>
        <time>2016-07-28T12:26:22.000Z</time>
      </trkpt>
      <trkpt lat="47.51011" lon="6.73663">
        <ele>363</ele>
        <time>2016-07-28T12:26:23.000Z</time>
      </trkpt>
      <trkpt lat="47.51013" lon="6.73664">
        <ele>363</ele>
        <time>2016-07-28T12:26:24.000Z</time>
      </trkpt>
      <trkpt lat="47.51016" lon="6.73666">
        <ele>363</ele>
        <time>2016-07-28T12:26:25.000Z</time>
      </trkpt>
      <trkpt lat="47.51018" lon="6.73668">
        <ele>366</ele>
        <time>2016-07-28T12:26:26.000Z</time>
      </trkpt>
      <trkpt lat="47.5102" lon="6.73669">
        <ele>367</ele>
        <time>2016-07-28T12:26:27.000Z</time>
      </trkpt>
      <trkpt lat="47.51022" lon="6.73671">
        <ele>367</ele>
        <time>2016-07-28T12:26:28.000Z</time>
      </trkpt>
      <trkpt lat="47.51026" lon="6.73674">
        <ele>368</ele>
        <time>2016-07-28T12:26:31.000Z</time>
      </trkpt>
      <trkpt lat="47.51027" lon="6.73674">
        <ele>368</ele>
        <time>2016-07-28T12:26:32.000Z</time>
      </trkpt>
      <trkpt lat="47.51031" lon="6.73675">
        <ele>369</ele>
        <time>2016-07-28T12:26:35.000Z</time>
      </trkpt>
      <trkpt lat="47.51033" lon="6.73675">
        <ele>369</ele>
        <time>2016-07-28T12:26:36.000Z</time>
      </trkpt>
      <trkpt lat="47.51036" lon="6.73673">
        <ele>370</ele>
        <time>2016-07-28T12:26:39.000Z</time>
      </trkpt>
      <trkpt lat="47.51037" lon="6.73673">
        <ele>370</ele>
        <time>2016-07-28T12:26:40.000Z</time>
      </trkpt>
      <trkpt lat="47.51041" lon="6.73672">
        <ele>370</ele>
        <time>2016-07-28T12:26:43.000Z</time>
      </trkpt>
      <trkpt lat="47.51042" lon="6.73671">
        <ele>370</ele>
        <time>2016-07-28T12:26:44.000Z</time>
      </trkpt>
      <trkpt lat="47.51046" lon="6.73672">
        <ele>371</ele>
        <time>2016-07-28T12:26:47.000Z</time>
      </trkpt>
      <trkpt lat="47.51048" lon="6.73672">
        <ele>371</ele>
        <time>2016-07-28T12:26:48.000Z</time>
      </trkpt>
      <trkpt lat="47.51052" lon="6.73671">
        <ele>371</ele>
        <time>2016-07-28T12:26:50.000Z</time>
      </trkpt>
      <trkpt lat="47.51053" lon="6.73671">
        <ele>371</ele>
        <time>2016-07-28T12:26:51.000Z</time>
      </trkpt>
      <trkpt lat="47.51057" lon="6.7367">
        <ele>372</ele>
        <time>2016-07-28T12:26:53.000Z</time>
      </trkpt>
      <trkpt lat="47.51058" lon="6.7367">
        <ele>372</ele>
        <time>2016-07-28T12:26:54.000Z</time>
      </trkpt>
      <trkpt lat="47.51062" lon="6.7367">
        <ele>372</ele>
        <time>2016-07-28T12:26:58.000Z</time>
      </trkpt>
      <trkpt lat="47.51063" lon="6.73669">
        <ele>372</ele>
        <time>2016-07-28T12:26:59.000Z</time>
      </trkpt>
      <trkpt lat="47.51067" lon="6.73667">
        <ele>373</ele>
        <time>2016-07-28T12:27:02.000Z</time>
      </trkpt>
      <trkpt lat="47.51068" lon="6.73667">
        <ele>373</ele>
        <time>2016-07-28T12:27:03.000Z</time>
      </trkpt>
      <trkpt lat="47.51071" lon="6.73669">
        <ele>373</ele>
        <time>2016-07-28T12:27:06.000Z</time>
      </trkpt>
      <trkpt lat="47.51072" lon="6.7367">
        <ele>373</ele>
        <time>2016-07-28T12:27:07.000Z</time>
      </trkpt>
      <trkpt lat="47.51076" lon="6.73671">
        <ele>373</ele>
        <time>2016-07-28T12:27:10.000Z</time>
      </trkpt>
      <trkpt lat="47.51077" lon="6.73672">
        <ele>373</ele>
        <time>2016-07-28T12:27:11.000Z</time>
      </trkpt>
      <trkpt lat="47.5108" lon="6.73675">
        <ele>373</ele>
        <time>2016-07-28T12:27:14.000Z</time>
      </trkpt>
      <trkpt lat="47.51081" lon="6.73676">
        <ele>373</ele>
        <time>2016-07-28T12:27:15.000Z</time>
      </trkpt>
      <trkpt lat="47.51082" lon="6.7368">
        <ele>373</ele>
        <time>2016-07-28T12:27:20.000Z</time>
      </trkpt>
      <trkpt lat="47.51083" lon="6.73683">
        <ele>373</ele>
        <time>2016-07-28T12:27:21.000Z</time>
      </trkpt>
      <trkpt lat="47.51084" lon="6.73686">
        <ele>379</ele>
        <time>2016-07-28T12:27:22.000Z</time>
      </trkpt>
      <trkpt lat="47.51086" lon="6.73689">
        <ele>380</ele>
        <time>2016-07-28T12:27:23.000Z</time>
      </trkpt>
      <trkpt lat="47.51088" lon="6.73694">
        <ele>380</ele>
        <time>2016-07-28T12:27:25.000Z</time>
      </trkpt>
      <trkpt lat="47.5109" lon="6.73696">
        <ele>381</ele>
        <time>2016-07-28T12:27:26.000Z</time>
      </trkpt>
      <trkpt lat="47.51092" lon="6.737">
        <ele>381</ele>
        <time>2016-07-28T12:27:28.000Z</time>
      </trkpt>
      <trkpt lat="47.51093" lon="6.73702">
        <ele>381</ele>
        <time>2016-07-28T12:27:29.000Z</time>
      </trkpt>
      <trkpt lat="47.51096" lon="6.73706">
        <ele>382</ele>
        <time>2016-07-28T12:27:33.000Z</time>
      </trkpt>
      <trkpt lat="47.51097" lon="6.73706">
        <ele>382</ele>
        <time>2016-07-28T12:27:34.000Z</time>
      </trkpt>
      <trkpt lat="47.511" lon="6.73709">
        <ele>382</ele>
        <time>2016-07-28T12:27:37.000Z</time>
      </trkpt>
      <trkpt lat="47.51101" lon="6.73711">
        <ele>382</ele>
        <time>2016-07-28T12:27:38.000Z</time>
      </trkpt>
      <trkpt lat="47.51103" lon="6.73712">
        <ele>383</ele>
        <time>2016-07-28T12:27:39.000Z</time>
      </trkpt>
      <trkpt lat="47.51105" lon="6.73714">
        <ele>383</ele>
        <time>2016-07-28T12:27:40.000Z</time>
      </trkpt>
      <trkpt lat="47.51109" lon="6.73716">
        <ele>383</ele>
        <time>2016-07-28T12:27:42.000Z</time>
      </trkpt>
      <trkpt lat="47.51111" lon="6.73717">
        <ele>383</ele>
        <time>2016-07-28T12:27:43.000Z</time>
      </trkpt>
      <trkpt lat="47.51115" lon="6.7372">
        <ele>383</ele>
        <time>2016-07-28T12:27:45.000Z</time>
      </trkpt>
      <trkpt lat="47.51116" lon="6.73722">
        <ele>384</ele>
        <time>2016-07-28T12:27:46.000Z</time>
      </trkpt>
      <trkpt lat="47.51119" lon="6.73725">
        <ele>384</ele>
        <time>2016-07-28T12:27:48.000Z</time>
      </trkpt>
      <trkpt lat="47.51121" lon="6.73726">
        <ele>384</ele>
        <time>2016-07-28T12:27:49.000Z</time>
      </trkpt>
      <trkpt lat="47.51123" lon="6.73727">
        <ele>384</ele>
        <time>2016-07-28T12:27:50.000Z</time>
      </trkpt>
      <trkpt lat="47.51126" lon="6.73729">
        <ele>384</ele>
        <time>2016-07-28T12:27:51.000Z</time>
      </trkpt>
      <trkpt lat="47.51129" lon="6.73732">
        <ele>384</ele>
        <time>2016-07-28T12:27:53.000Z</time>
      </trkpt>
      <trkpt lat="47.51131" lon="6.73734">
        <ele>385</ele>
        <time>2016-07-28T12:27:54.000Z</time>
      </trkpt>
      <trkpt lat="47.51134" lon="6.73738">
        <ele>385</ele>
        <time>2016-07-28T12:27:56.000Z</time>
      </trkpt>
      <trkpt lat="47.51135" lon="6.73741">
        <ele>385</ele>
        <time>2016-07-28T12:27:57.000Z</time>
      </trkpt>
      <trkpt lat="47.51138" lon="6.73745">
        <ele>385</ele>
        <time>2016-07-28T12:27:59.000Z</time>
      </trkpt>
      <trkpt lat="47.51139" lon="6.73747">
        <ele>385</ele>
        <time>2016-07-28T12:28:00.000Z</time>
      </trkpt>
      <trkpt lat="47.51142" lon="6.73748">
        <ele>386</ele>
        <time>2016-07-28T12:28:04.000Z</time>
      </trkpt>
      <trkpt lat="47.51143" lon="6.73749">
        <ele>386</ele>
        <time>2016-07-28T12:28:05.000Z</time>
      </trkpt>
      <trkpt lat="47.51145" lon="6.73751">
        <ele>388</ele>
        <time>2016-07-28T12:28:07.000Z</time>
      </trkpt>
      <trkpt lat="47.51147" lon="6.73753">
        <ele>388</ele>
        <time>2016-07-28T12:28:08.000Z</time>
      </trkpt>
      <trkpt lat="47.51151" lon="6.73756">
        <ele>388</ele>
        <time>2016-07-28T12:28:11.000Z</time>
      </trkpt>
      <trkpt lat="47.51152" lon="6.73757">
        <ele>388</ele>
        <time>2016-07-28T12:28:12.000Z</time>
      </trkpt>
      <trkpt lat="47.51155" lon="6.73759">
        <ele>389</ele>
        <time>2016-07-28T12:28:15.000Z</time>
      </trkpt>
      <trkpt lat="47.51157" lon="6.7376">
        <ele>389</ele>
        <time>2016-07-28T12:28:16.000Z</time>
      </trkpt>
      <trkpt lat="47.5116" lon="6.73762">
        <ele>389</ele>
        <time>2016-07-28T12:28:18.000Z</time>
      </trkpt>
      <trkpt lat="47.51162" lon="6.73764">
        <ele>389</ele>
        <time>2016-07-28T12:28:19.000Z</time>
      </trkpt>
      <trkpt lat="47.51165" lon="6.73766">
        <ele>389</ele>
        <time>2016-07-28T12:28:21.000Z</time>
      </trkpt>
      <trkpt lat="47.51167" lon="6.73766">
        <ele>392</ele>
        <time>2016-07-28T12:28:22.000Z</time>
      </trkpt>
      <trkpt lat="47.51171" lon="6.73766">
        <ele>392</ele>
        <time>2016-07-28T12:28:24.000Z</time>
      </trkpt>
      <trkpt lat="47.51172" lon="6.73766">
        <ele>392</ele>
        <time>2016-07-28T12:28:25.000Z</time>
      </trkpt>
      <trkpt lat="47.51175" lon="6.73768">
        <ele>392</ele>
        <time>2016-07-28T12:28:28.000Z</time>
      </trkpt>
      <trkpt lat="47.51177" lon="6.73769">
        <ele>392</ele>
        <time>2016-07-28T12:28:29.000Z</time>
      </trkpt>
      <trkpt lat="47.5118" lon="6.73771">
        <ele>393</ele>
        <time>2016-07-28T12:28:33.000Z</time>
      </trkpt>
      <trkpt lat="47.51182" lon="6.73772">
        <ele>393</ele>
        <time>2016-07-28T12:28:34.000Z</time>
      </trkpt>
      <trkpt lat="47.51185" lon="6.73773">
        <ele>393</ele>
        <time>2016-07-28T12:28:36.000Z</time>
      </trkpt>
      <trkpt lat="47.51187" lon="6.73775">
        <ele>393</ele>
        <time>2016-07-28T12:28:37.000Z</time>
      </trkpt>
      <trkpt lat="47.5119" lon="6.73777">
        <ele>394</ele>
        <time>2016-07-28T12:28:39.000Z</time>
      </trkpt>
      <trkpt lat="47.51192" lon="6.73778">
        <ele>394</ele>
        <time>2016-07-28T12:28:40.000Z</time>
      </trkpt>
      <trkpt lat="47.51195" lon="6.7378">
        <ele>394</ele>
        <time>2016-07-28T12:28:42.000Z</time>
      </trkpt>
      <trkpt lat="47.51197" lon="6.7378">
        <ele>394</ele>
        <time>2016-07-28T12:28:43.000Z</time>
      </trkpt>
      <trkpt lat="47.512" lon="6.73782">
        <ele>394</ele>
        <time>2016-07-28T12:28:45.000Z</time>
      </trkpt>
      <trkpt lat="47.51202" lon="6.73783">
        <ele>395</ele>
        <time>2016-07-28T12:28:46.000Z</time>
      </trkpt>
      <trkpt lat="47.51206" lon="6.73785">
        <ele>395</ele>
        <time>2016-07-28T12:28:48.000Z</time>
      </trkpt>
      <trkpt lat="47.51208" lon="6.73786">
        <ele>395</ele>
        <time>2016-07-28T12:28:49.000Z</time>
      </trkpt>
      <trkpt lat="47.51211" lon="6.73787">
        <ele>395</ele>
        <time>2016-07-28T12:28:51.000Z</time>
      </trkpt>
      <trkpt lat="47.51212" lon="6.73788">
        <ele>395</ele>
        <time>2016-07-28T12:28:52.000Z</time>
      </trkpt>
      <trkpt lat="47.51214" lon="6.7379">
        <ele>395</ele>
        <time>2016-07-28T12:28:54.000Z</time>
      </trkpt>
      <trkpt lat="47.51216" lon="6.73791">
        <ele>395</ele>
        <time>2016-07-28T12:28:55.000Z</time>
      </trkpt>
      <trkpt lat="47.5122" lon="6.73793">
        <ele>396</ele>
        <time>2016-07-28T12:29:02.000Z</time>
      </trkpt>
      <trkpt lat="47.51221" lon="6.73794">
        <ele>396</ele>
        <time>2016-07-28T12:29:03.000Z</time>
      </trkpt>
      <trkpt lat="47.51224" lon="6.73797">
        <ele>396</ele>
        <time>2016-07-28T12:29:05.000Z</time>
      </trkpt>
      <trkpt lat="47.51226" lon="6.73799">
        <ele>396</ele>
        <time>2016-07-28T12:29:06.000Z</time>
      </trkpt>
      <trkpt lat="47.51229" lon="6.73801">
        <ele>396</ele>
        <time>2016-07-28T12:29:11.000Z</time>
      </trkpt>
      <trkpt lat="47.51231" lon="6.73802">
        <ele>396</ele>
        <time>2016-07-28T12:29:12.000Z</time>
      </trkpt>
      <trkpt lat="47.51234" lon="6.73803">
        <ele>396</ele>
        <time>2016-07-28T12:29:14.000Z</time>
      </trkpt>
      <trkpt lat="47.51236" lon="6.73804">
        <ele>396</ele>
        <time>2016-07-28T12:29:15.000Z</time>
      </trkpt>
      <trkpt lat="47.51238" lon="6.73804">
        <ele>397</ele>
        <time>2016-07-28T12:29:16.000Z</time>
      </trkpt>
      <trkpt lat="47.5124" lon="6.73803">
        <ele>397</ele>
        <time>2016-07-28T12:29:17.000Z</time>
      </trkpt>
      <trkpt lat="47.51244" lon="6.73804">
        <ele>397</ele>
        <time>2016-07-28T12:29:19.000Z</time>
      </trkpt>
      <trkpt lat="47.51246" lon="6.73805">
        <ele>397</ele>
        <time>2016-07-28T12:29:20.000Z</time>
      </trkpt>
      <trkpt lat="47.51248" lon="6.73807">
        <ele>397</ele>
        <time>2016-07-28T12:29:22.000Z</time>
      </trkpt>
      <trkpt lat="47.5125" lon="6.73809">
        <ele>397</ele>
        <time>2016-07-28T12:29:23.000Z</time>
      </trkpt>
      <trkpt lat="47.51254" lon="6.73811">
        <ele>401</ele>
        <time>2016-07-28T12:29:25.000Z</time>
      </trkpt>
      <trkpt lat="47.51256" lon="6.73813">
        <ele>401</ele>
        <time>2016-07-28T12:29:26.000Z</time>
      </trkpt>
      <trkpt lat="47.51258" lon="6.73814">
        <ele>401</ele>
        <time>2016-07-28T12:29:27.000Z</time>
      </trkpt>
      <trkpt lat="47.51261" lon="6.73816">
        <ele>401</ele>
        <time>2016-07-28T12:29:28.000Z</time>
      </trkpt>
      <trkpt lat="47.51263" lon="6.73818">
        <ele>401</ele>
        <time>2016-07-28T12:29:29.000Z</time>
      </trkpt>
      <trkpt lat="47.51265" lon="6.7382">
        <ele>402</ele>
        <time>2016-07-28T12:29:30.000Z</time>
      </trkpt>
      <trkpt lat="47.51268" lon="6.73822">
        <ele>402</ele>
        <time>2016-07-28T12:29:31.000Z</time>
      </trkpt>
      <trkpt lat="47.5127" lon="6.73824">
        <ele>402</ele>
        <time>2016-07-28T12:29:32.000Z</time>
      </trkpt>
      <trkpt lat="47.51273" lon="6.73825">
        <ele>402</ele>
        <time>2016-07-28T12:29:33.000Z</time>
      </trkpt>
      <trkpt lat="47.51275" lon="6.73826">
        <ele>402</ele>
        <time>2016-07-28T12:29:34.000Z</time>
      </trkpt>
      <trkpt lat="47.51277" lon="6.73828">
        <ele>402</ele>
        <time>2016-07-28T12:29:35.000Z</time>
      </trkpt>
      <trkpt lat="47.51279" lon="6.7383">
        <ele>402</ele>
        <time>2016-07-28T12:29:36.000Z</time>
      </trkpt>
      <trkpt lat="47.51281" lon="6.73832">
        <ele>402</ele>
        <time>2016-07-28T12:29:37.000Z</time>
      </trkpt>
      <trkpt lat="47.51283" lon="6.73834">
        <ele>402</ele>
        <time>2016-07-28T12:29:38.000Z</time>
      </trkpt>
      <trkpt lat="47.51287" lon="6.73835">
        <ele>402</ele>
        <time>2016-07-28T12:29:41.000Z</time>
      </trkpt>
      <trkpt lat="47.51288" lon="6.73836">
        <ele>402</ele>
        <time>2016-07-28T12:29:42.000Z</time>
      </trkpt>
      <trkpt lat="47.51292" lon="6.73836">
        <ele>403</ele>
        <time>2016-07-28T12:29:47.000Z</time>
      </trkpt>
      <trkpt lat="47.51293" lon="6.73835">
        <ele>403</ele>
        <time>2016-07-28T12:29:48.000Z</time>
      </trkpt>
      <trkpt lat="47.51296" lon="6.73833">
        <ele>403</ele>
        <time>2016-07-28T12:29:50.000Z</time>
      </trkpt>
      <trkpt lat="47.51298" lon="6.73832">
        <ele>404</ele>
        <time>2016-07-28T12:29:51.000Z</time>
      </trkpt>
      <trkpt lat="47.51302" lon="6.73829">
        <ele>404</ele>
        <time>2016-07-28T12:29:54.000Z</time>
      </trkpt>
      <trkpt lat="47.51303" lon="6.73828">
        <ele>404</ele>
        <time>2016-07-28T12:29:55.000Z</time>
      </trkpt>
      <trkpt lat="47.51305" lon="6.73824">
        <ele>404</ele>
        <time>2016-07-28T12:29:58.000Z</time>
      </trkpt>
      <trkpt lat="47.51306" lon="6.73822">
        <ele>404</ele>
        <time>2016-07-28T12:29:59.000Z</time>
      </trkpt>
      <trkpt lat="47.5131" lon="6.73818">
        <ele>404</ele>
        <time>2016-07-28T12:30:01.000Z</time>
      </trkpt>
      <trkpt lat="47.51312" lon="6.73816">
        <ele>404</ele>
        <time>2016-07-28T12:30:02.000Z</time>
      </trkpt>
      <trkpt lat="47.51313" lon="6.73813">
        <ele>404</ele>
        <time>2016-07-28T12:30:03.000Z</time>
      </trkpt>
      <trkpt lat="47.51315" lon="6.73811">
        <ele>404</ele>
        <time>2016-07-28T12:30:04.000Z</time>
      </trkpt>
      <trkpt lat="47.51317" lon="6.73806">
        <ele>404</ele>
        <time>2016-07-28T12:30:06.000Z</time>
      </trkpt>
      <trkpt lat="47.51318" lon="6.73803">
        <ele>404</ele>
        <time>2016-07-28T12:30:07.000Z</time>
      </trkpt>
      <trkpt lat="47.51318" lon="6.738">
        <ele>404</ele>
        <time>2016-07-28T12:30:08.000Z</time>
      </trkpt>
      <trkpt lat="47.51319" lon="6.73796">
        <ele>404</ele>
        <time>2016-07-28T12:30:09.000Z</time>
      </trkpt>
      <trkpt lat="47.5132" lon="6.73792">
        <ele>405</ele>
        <time>2016-07-28T12:30:10.000Z</time>
      </trkpt>
      <trkpt lat="47.51322" lon="6.73789">
        <ele>405</ele>
        <time>2016-07-28T12:30:11.000Z</time>
      </trkpt>
      <trkpt lat="47.51324" lon="6.73786">
        <ele>405</ele>
        <time>2016-07-28T12:30:12.000Z</time>
      </trkpt>
      <trkpt lat="47.51326" lon="6.73783">
        <ele>405</ele>
        <time>2016-07-28T12:30:13.000Z</time>
      </trkpt>
      <trkpt lat="47.51328" lon="6.73779">
        <ele>405</ele>
        <time>2016-07-28T12:30:14.000Z</time>
      </trkpt>
      <trkpt lat="47.51329" lon="6.73776">
        <ele>405</ele>
        <time>2016-07-28T12:30:15.000Z</time>
      </trkpt>
      <trkpt lat="47.51331" lon="6.73773">
        <ele>405</ele>
        <time>2016-07-28T12:30:16.000Z</time>
      </trkpt>
      <trkpt lat="47.51332" lon="6.7377">
        <ele>406</ele>
        <time>2016-07-28T12:30:17.000Z</time>
      </trkpt>
      <trkpt lat="47.51333" lon="6.73768">
        <ele>408</ele>
        <time>2016-07-28T12:30:18.000Z</time>
      </trkpt>
      <trkpt lat="47.51335" lon="6.73765">
        <ele>408</ele>
        <time>2016-07-28T12:30:19.000Z</time>
      </trkpt>
      <trkpt lat="47.51336" lon="6.73762">
        <ele>408</ele>
        <time>2016-07-28T12:30:20.000Z</time>
      </trkpt>
      <trkpt lat="47.51337" lon="6.73758">
        <ele>408</ele>
        <time>2016-07-28T12:30:21.000Z</time>
      </trkpt>
      <trkpt lat="47.51339" lon="6.73753">
        <ele>408</ele>
        <time>2016-07-28T12:30:23.000Z</time>
      </trkpt>
      <trkpt lat="47.5134" lon="6.73752">
        <ele>408</ele>
        <time>2016-07-28T12:30:24.000Z</time>
      </trkpt>
      <trkpt lat="47.51344" lon="6.73749">
        <ele>409</ele>
        <time>2016-07-28T12:30:26.000Z</time>
      </trkpt>
      <trkpt lat="47.51345" lon="6.73747">
        <ele>409</ele>
        <time>2016-07-28T12:30:27.000Z</time>
      </trkpt>
      <trkpt lat="47.51348" lon="6.73742">
        <ele>409</ele>
        <time>2016-07-28T12:30:29.000Z</time>
      </trkpt>
      <trkpt lat="47.51349" lon="6.7374">
        <ele>409</ele>
        <time>2016-07-28T12:30:30.000Z</time>
      </trkpt>
      <trkpt lat="47.51352" lon="6.73736">
        <ele>409</ele>
        <time>2016-07-28T12:30:32.000Z</time>
      </trkpt>
      <trkpt lat="47.51353" lon="6.73735">
        <ele>409</ele>
        <time>2016-07-28T12:30:33.000Z</time>
      </trkpt>
      <trkpt lat="47.51355" lon="6.7373">
        <ele>410</ele>
        <time>2016-07-28T12:30:35.000Z</time>
      </trkpt>
      <trkpt lat="47.51357" lon="6.73729">
        <ele>410</ele>
        <time>2016-07-28T12:30:36.000Z</time>
      </trkpt>
      <trkpt lat="47.5136" lon="6.73727">
        <ele>410</ele>
        <time>2016-07-28T12:30:38.000Z</time>
      </trkpt>
      <trkpt lat="47.51361" lon="6.73727">
        <ele>410</ele>
        <time>2016-07-28T12:30:39.000Z</time>
      </trkpt>
      <trkpt lat="47.51365" lon="6.73725">
        <ele>410</ele>
        <time>2016-07-28T12:30:43.000Z</time>
      </trkpt>
      <trkpt lat="47.51366" lon="6.73724">
        <ele>410</ele>
        <time>2016-07-28T12:30:44.000Z</time>
      </trkpt>
      <trkpt lat="47.51369" lon="6.7372">
        <ele>410</ele>
        <time>2016-07-28T12:30:54.000Z</time>
      </trkpt>
      <trkpt lat="47.5137" lon="6.7372">
        <ele>410</ele>
        <time>2016-07-28T12:30:55.000Z</time>
      </trkpt>
      <trkpt lat="47.51373" lon="6.73716">
        <ele>410</ele>
        <time>2016-07-28T12:30:58.000Z</time>
      </trkpt>
      <trkpt lat="47.51374" lon="6.73714">
        <ele>410</ele>
        <time>2016-07-28T12:30:59.000Z</time>
      </trkpt>
      <trkpt lat="47.51377" lon="6.7371">
        <ele>410</ele>
        <time>2016-07-28T12:31:01.000Z</time>
      </trkpt>
      <trkpt lat="47.51378" lon="6.73708">
        <ele>410</ele>
        <time>2016-07-28T12:31:02.000Z</time>
      </trkpt>
      <trkpt lat="47.5138" lon="6.73704">
        <ele>410</ele>
        <time>2016-07-28T12:31:07.000Z</time>
      </trkpt>
      <trkpt lat="47.51381" lon="6.73703">
        <ele>410</ele>
        <time>2016-07-28T12:31:08.000Z</time>
      </trkpt>
      <trkpt lat="47.51383" lon="6.73697">
        <ele>411</ele>
        <time>2016-07-28T12:31:12.000Z</time>
      </trkpt>
      <trkpt lat="47.51383" lon="6.73696">
        <ele>411</ele>
        <time>2016-07-28T12:31:13.000Z</time>
      </trkpt>
      <trkpt lat="47.5138" lon="6.73692">
        <ele>411</ele>
        <time>2016-07-28T12:31:18.000Z</time>
      </trkpt>
      <trkpt lat="47.5138" lon="6.73689">
        <ele>411</ele>
        <time>2016-07-28T12:31:19.000Z</time>
      </trkpt>
      <trkpt lat="47.5138" lon="6.73686">
        <ele>411</ele>
        <time>2016-07-28T12:31:20.000Z</time>
      </trkpt>
      <trkpt lat="47.51379" lon="6.73683">
        <ele>411</ele>
        <time>2016-07-28T12:31:21.000Z</time>
      </trkpt>
      <trkpt lat="47.5138" lon="6.73679">
        <ele>411</ele>
        <time>2016-07-28T12:31:22.000Z</time>
      </trkpt>
      <trkpt lat="47.51381" lon="6.73675">
        <ele>411</ele>
        <time>2016-07-28T12:31:23.000Z</time>
      </trkpt>
      <trkpt lat="47.51382" lon="6.73672">
        <ele>411</ele>
        <time>2016-07-28T12:31:24.000Z</time>
      </trkpt>
      <trkpt lat="47.51383" lon="6.73668">
        <ele>411</ele>
        <time>2016-07-28T12:31:25.000Z</time>
      </trkpt>
      <trkpt lat="47.51383" lon="6.73664">
        <ele>412</ele>
        <time>2016-07-28T12:31:26.000Z</time>
      </trkpt>
      <trkpt lat="47.51383" lon="6.7366">
        <ele>412</ele>
        <time>2016-07-28T12:31:27.000Z</time>
      </trkpt>
      <trkpt lat="47.51383" lon="6.73656">
        <ele>412</ele>
        <time>2016-07-28T12:31:28.000Z</time>
      </trkpt>
      <trkpt lat="47.51383" lon="6.73652">
        <ele>412</ele>
        <time>2016-07-28T12:31:29.000Z</time>
      </trkpt>
      <trkpt lat="47.51383" lon="6.73649">
        <ele>412</ele>
        <time>2016-07-28T12:31:30.000Z</time>
      </trkpt>
      <trkpt lat="47.51382" lon="6.73645">
        <ele>412</ele>
        <time>2016-07-28T12:31:31.000Z</time>
      </trkpt>
      <trkpt lat="47.51382" lon="6.73642">
        <ele>412</ele>
        <time>2016-07-28T12:31:32.000Z</time>
      </trkpt>
      <trkpt lat="47.51381" lon="6.73638">
        <ele>412</ele>
        <time>2016-07-28T12:31:33.000Z</time>
      </trkpt>
      <trkpt lat="47.51382" lon="6.73634">
        <ele>413</ele>
        <time>2016-07-28T12:31:34.000Z</time>
      </trkpt>
      <trkpt lat="47.51383" lon="6.7363">
        <ele>413</ele>
        <time>2016-07-28T12:31:35.000Z</time>
      </trkpt>
      <trkpt lat="47.51384" lon="6.73625">
        <ele>413</ele>
        <time>2016-07-28T12:31:36.000Z</time>
      </trkpt>
      <trkpt lat="47.51386" lon="6.73621">
        <ele>413</ele>
        <time>2016-07-28T12:31:37.000Z</time>
      </trkpt>
      <trkpt lat="47.51387" lon="6.73617">
        <ele>413</ele>
        <time>2016-07-28T12:31:38.000Z</time>
      </trkpt>
      <trkpt lat="47.51388" lon="6.73613">
        <ele>413</ele>
        <time>2016-07-28T12:31:39.000Z</time>
      </trkpt>
      <trkpt lat="47.5139" lon="6.73609">
        <ele>413</ele>
        <time>2016-07-28T12:31:40.000Z</time>
      </trkpt>
      <trkpt lat="47.51391" lon="6.73605">
        <ele>413</ele>
        <time>2016-07-28T12:31:41.000Z</time>
      </trkpt>
      <trkpt lat="47.51392" lon="6.73601">
        <ele>413</ele>
        <time>2016-07-28T12:31:42.000Z</time>
      </trkpt>
      <trkpt lat="47.51393" lon="6.73597">
        <ele>414</ele>
        <time>2016-07-28T12:31:43.000Z</time>
      </trkpt>
      <trkpt lat="47.51394" lon="6.73594">
        <ele>414</ele>
        <time>2016-07-28T12:31:44.000Z</time>
      </trkpt>
      <trkpt lat="47.51395" lon="6.7359">
        <ele>414</ele>
        <time>2016-07-28T12:31:45.000Z</time>
      </trkpt>
      <trkpt lat="47.51396" lon="6.73586">
        <ele>414</ele>
        <time>2016-07-28T12:31:46.000Z</time>
      </trkpt>
      <trkpt lat="47.51396" lon="6.73582">
        <ele>415</ele>
        <time>2016-07-28T12:31:47.000Z</time>
      </trkpt>
      <trkpt lat="47.51397" lon="6.73578">
        <ele>415</ele>
        <time>2016-07-28T12:31:48.000Z</time>
      </trkpt>
      <trkpt lat="47.51398" lon="6.73574">
        <ele>415</ele>
        <time>2016-07-28T12:31:49.000Z</time>
      </trkpt>
      <trkpt lat="47.51399" lon="6.7357">
        <ele>415</ele>
        <time>2016-07-28T12:31:50.000Z</time>
      </trkpt>
      <trkpt lat="47.514" lon="6.73566">
        <ele>415</ele>
        <time>2016-07-28T12:31:51.000Z</time>
      </trkpt>
      <trkpt lat="47.51401" lon="6.73563">
        <ele>415</ele>
        <time>2016-07-28T12:31:52.000Z</time>
      </trkpt>
      <trkpt lat="47.51401" lon="6.73559">
        <ele>415</ele>
        <time>2016-07-28T12:31:53.000Z</time>
      </trkpt>
      <trkpt lat="47.51402" lon="6.73555">
        <ele>415</ele>
        <time>2016-07-28T12:31:54.000Z</time>
      </trkpt>
      <trkpt lat="47.51402" lon="6.73551">
        <ele>415</ele>
        <time>2016-07-28T12:31:55.000Z</time>
      </trkpt>
      <trkpt lat="47.51403" lon="6.73547">
        <ele>415</ele>
        <time>2016-07-28T12:31:56.000Z</time>
      </trkpt>
      <trkpt lat="47.51404" lon="6.73543">
        <ele>415</ele>
        <time>2016-07-28T12:31:57.000Z</time>
      </trkpt>
      <trkpt lat="47.51405" lon="6.73539">
        <ele>415</ele>
        <time>2016-07-28T12:31:58.000Z</time>
      </trkpt>
      <trkpt lat="47.51405" lon="6.73535">
        <ele>415</ele>
        <time>2016-07-28T12:31:59.000Z</time>
      </trkpt>
      <trkpt lat="47.51406" lon="6.73532">
        <ele>416</ele>
        <time>2016-07-28T12:32:00.000Z</time>
      </trkpt>
      <trkpt lat="47.51407" lon="6.73529">
        <ele>416</ele>
        <time>2016-07-28T12:32:01.000Z</time>
      </trkpt>
      <trkpt lat="47.51408" lon="6.73525">
        <ele>416</ele>
        <time>2016-07-28T12:32:02.000Z</time>
      </trkpt>
      <trkpt lat="47.51408" lon="6.73521">
        <ele>416</ele>
        <time>2016-07-28T12:32:03.000Z</time>
      </trkpt>
      <trkpt lat="47.51409" lon="6.73518">
        <ele>416</ele>
        <time>2016-07-28T12:32:04.000Z</time>
      </trkpt>
      <trkpt lat="47.5141" lon="6.73514">
        <ele>416</ele>
        <time>2016-07-28T12:32:05.000Z</time>
      </trkpt>
      <trkpt lat="47.51411" lon="6.73511">
        <ele>417</ele>
        <time>2016-07-28T12:32:06.000Z</time>
      </trkpt>
      <trkpt lat="47.51412" lon="6.73508">
        <ele>417</ele>
        <time>2016-07-28T12:32:07.000Z</time>
      </trkpt>
      <trkpt lat="47.51414" lon="6.73505">
        <ele>417</ele>
        <time>2016-07-28T12:32:08.000Z</time>
      </trkpt>
      <trkpt lat="47.51416" lon="6.73503">
        <ele>418</ele>
        <time>2016-07-28T12:32:09.000Z</time>
      </trkpt>
      <trkpt lat="47.51418" lon="6.73501">
        <ele>418</ele>
        <time>2016-07-28T12:32:10.000Z</time>
      </trkpt>
      <trkpt lat="47.5142" lon="6.735">
        <ele>419</ele>
        <time>2016-07-28T12:32:11.000Z</time>
      </trkpt>
      <trkpt lat="47.51424" lon="6.735">
        <ele>419</ele>
        <time>2016-07-28T12:32:13.000Z</time>
      </trkpt>
      <trkpt lat="47.51426" lon="6.735">
        <ele>420</ele>
        <time>2016-07-28T12:32:14.000Z</time>
      </trkpt>
      <trkpt lat="47.5143" lon="6.73502">
        <ele>419</ele>
        <time>2016-07-28T12:32:18.000Z</time>
      </trkpt>
      <trkpt lat="47.5143" lon="6.73502">
        <ele>419</ele>
        <time>2016-07-28T12:32:19.000Z</time>
      </trkpt>
      <trkpt lat="47.51433" lon="6.73496">
        <ele>421</ele>
        <time>2016-07-28T12:33:01.000Z</time>
      </trkpt>
      <trkpt lat="47.51433" lon="6.73495">
        <ele>421</ele>
        <time>2016-07-28T12:33:02.000Z</time>
      </trkpt>
      <trkpt lat="47.51437" lon="6.73494">
        <ele>421</ele>
        <time>2016-07-28T12:33:44.000Z</time>
      </trkpt>
      <trkpt lat="47.51437" lon="6.73494">
        <ele>421</ele>
        <time>2016-07-28T12:33:45.000Z</time>
      </trkpt>
      <trkpt lat="47.51441" lon="6.73493">
        <ele>421</ele>
        <time>2016-07-28T12:33:48.000Z</time>
      </trkpt>
      <trkpt lat="47.51443" lon="6.73493">
        <ele>422</ele>
        <time>2016-07-28T12:33:49.000Z</time>
      </trkpt>
      <trkpt lat="47.51445" lon="6.73493">
        <ele>422</ele>
        <time>2016-07-28T12:33:50.000Z</time>
      </trkpt>
      <trkpt lat="47.51448" lon="6.73494">
        <ele>422</ele>
        <time>2016-07-28T12:33:51.000Z</time>
      </trkpt>
      <trkpt lat="47.5145" lon="6.73496">
        <ele>422</ele>
        <time>2016-07-28T12:33:52.000Z</time>
      </trkpt>
      <trkpt lat="47.51453" lon="6.73499">
        <ele>422</ele>
        <time>2016-07-28T12:33:53.000Z</time>
      </trkpt>
      <trkpt lat="47.51456" lon="6.73501">
        <ele>421</ele>
        <time>2016-07-28T12:33:54.000Z</time>
      </trkpt>
      <trkpt lat="47.51459" lon="6.73503">
        <ele>421</ele>
        <time>2016-07-28T12:33:55.000Z</time>
      </trkpt>
      <trkpt lat="47.51462" lon="6.73505">
        <ele>421</ele>
        <time>2016-07-28T12:33:56.000Z</time>
      </trkpt>
      <trkpt lat="47.51466" lon="6.73507">
        <ele>422</ele>
        <time>2016-07-28T12:33:57.000Z</time>
      </trkpt>
      <trkpt lat="47.51469" lon="6.73507">
        <ele>422</ele>
        <time>2016-07-28T12:33:58.000Z</time>
      </trkpt>
      <trkpt lat="47.51473" lon="6.73508">
        <ele>422</ele>
        <time>2016-07-28T12:33:59.000Z</time>
      </trkpt>
      <trkpt lat="47.51476" lon="6.73508">
        <ele>422</ele>
        <time>2016-07-28T12:34:00.000Z</time>
      </trkpt>
      <trkpt lat="47.51479" lon="6.73509">
        <ele>423</ele>
        <time>2016-07-28T12:34:01.000Z</time>
      </trkpt>
      <trkpt lat="47.51482" lon="6.7351">
        <ele>423</ele>
        <time>2016-07-28T12:34:02.000Z</time>
      </trkpt>
      <trkpt lat="47.51485" lon="6.73511">
        <ele>423</ele>
        <time>2016-07-28T12:34:03.000Z</time>
      </trkpt>
      <trkpt lat="47.51488" lon="6.73511">
        <ele>423</ele>
        <time>2016-07-28T12:34:04.000Z</time>
      </trkpt>
      <trkpt lat="47.51491" lon="6.73511">
        <ele>424</ele>
        <time>2016-07-28T12:34:05.000Z</time>
      </trkpt>
      <trkpt lat="47.51493" lon="6.73511">
        <ele>424</ele>
        <time>2016-07-28T12:34:06.000Z</time>
      </trkpt>
      <trkpt lat="47.51496" lon="6.73511">
        <ele>424</ele>
        <time>2016-07-28T12:34:07.000Z</time>
      </trkpt>
      <trkpt lat="47.51498" lon="6.73512">
        <ele>424</ele>
        <time>2016-07-28T12:34:08.000Z</time>
      </trkpt>
      <trkpt lat="47.51501" lon="6.73512">
        <ele>426</ele>
        <time>2016-07-28T12:34:09.000Z</time>
      </trkpt>
      <trkpt lat="47.51504" lon="6.73513">
        <ele>426</ele>
        <time>2016-07-28T12:34:10.000Z</time>
      </trkpt>
      <trkpt lat="47.51507" lon="6.73514">
        <ele>426</ele>
        <time>2016-07-28T12:34:11.000Z</time>
      </trkpt>
      <trkpt lat="47.51509" lon="6.73514">
        <ele>427</ele>
        <time>2016-07-28T12:34:12.000Z</time>
      </trkpt>
      <trkpt lat="47.51512" lon="6.73515">
        <ele>427</ele>
        <time>2016-07-28T12:34:13.000Z</time>
      </trkpt>
      <trkpt lat="47.51515" lon="6.73516">
        <ele>427</ele>
        <time>2016-07-28T12:34:14.000Z</time>
      </trkpt>
      <trkpt lat="47.51518" lon="6.73516">
        <ele>427</ele>
        <time>2016-07-28T12:34:15.000Z</time>
      </trkpt>
      <trkpt lat="47.5152" lon="6.73517">
        <ele>427</ele>
        <time>2016-07-28T12:34:16.000Z</time>
      </trkpt>
      <trkpt lat="47.51523" lon="6.73517">
        <ele>427</ele>
        <time>2016-07-28T12:34:17.000Z</time>
      </trkpt>
      <trkpt lat="47.51525" lon="6.73518">
        <ele>427</ele>
        <time>2016-07-28T12:34:18.000Z</time>
      </trkpt>
      <trkpt lat="47.51528" lon="6.73519">
        <ele>427</ele>
        <time>2016-07-28T12:34:19.000Z</time>
      </trkpt>
      <trkpt lat="47.5153" lon="6.7352">
        <ele>427</ele>
        <time>2016-07-28T12:34:20.000Z</time>
      </trkpt>
      <trkpt lat="47.51533" lon="6.73521">
        <ele>427</ele>
        <time>2016-07-28T12:34:21.000Z</time>
      </trkpt>
      <trkpt lat="47.51536" lon="6.73522">
        <ele>427</ele>
        <time>2016-07-28T12:34:22.000Z</time>
      </trkpt>
      <trkpt lat="47.51539" lon="6.73523">
        <ele>427</ele>
        <time>2016-07-28T12:34:23.000Z</time>
      </trkpt>
      <trkpt lat="47.51541" lon="6.73523">
        <ele>428</ele>
        <time>2016-07-28T12:34:24.000Z</time>
      </trkpt>
      <trkpt lat="47.51544" lon="6.73523">
        <ele>428</ele>
        <time>2016-07-28T12:34:25.000Z</time>
      </trkpt>
      <trkpt lat="47.51546" lon="6.73523">
        <ele>428</ele>
        <time>2016-07-28T12:34:26.000Z</time>
      </trkpt>
      <trkpt lat="47.51549" lon="6.73525">
        <ele>428</ele>
        <time>2016-07-28T12:34:27.000Z</time>
      </trkpt>
      <trkpt lat="47.51552" lon="6.73526">
        <ele>428</ele>
        <time>2016-07-28T12:34:28.000Z</time>
      </trkpt>
      <trkpt lat="47.51554" lon="6.73528">
        <ele>428</ele>
        <time>2016-07-28T12:34:29.000Z</time>
      </trkpt>
      <trkpt lat="47.51557" lon="6.7353">
        <ele>428</ele>
        <time>2016-07-28T12:34:30.000Z</time>
      </trkpt>
      <trkpt lat="47.5156" lon="6.73531">
        <ele>428</ele>
        <time>2016-07-28T12:34:31.000Z</time>
      </trkpt>
      <trkpt lat="47.51563" lon="6.73531">
        <ele>428</ele>
        <time>2016-07-28T12:34:32.000Z</time>
      </trkpt>
      <trkpt lat="47.51566" lon="6.73532">
        <ele>428</ele>
        <time>2016-07-28T12:34:33.000Z</time>
      </trkpt>
      <trkpt lat="47.51569" lon="6.73532">
        <ele>428</ele>
        <time>2016-07-28T12:34:34.000Z</time>
      </trkpt>
      <trkpt lat="47.51572" lon="6.73533">
        <ele>428</ele>
        <time>2016-07-28T12:34:35.000Z</time>
      </trkpt>
      <trkpt lat="47.51574" lon="6.73534">
        <ele>428</ele>
        <time>2016-07-28T12:34:36.000Z</time>
      </trkpt>
      <trkpt lat="47.51577" lon="6.73535">
        <ele>428</ele>
        <time>2016-07-28T12:34:37.000Z</time>
      </trkpt>
      <trkpt lat="47.5158" lon="6.73536">
        <ele>428</ele>
        <time>2016-07-28T12:34:38.000Z</time>
      </trkpt>
      <trkpt lat="47.51583" lon="6.73538">
        <ele>428</ele>
        <time>2016-07-28T12:34:39.000Z</time>
      </trkpt>
      <trkpt lat="47.51587" lon="6.73538">
        <ele>428</ele>
        <time>2016-07-28T12:34:40.000Z</time>
      </trkpt>
      <trkpt lat="47.5159" lon="6.73539">
        <ele>428</ele>
        <time>2016-07-28T12:34:41.000Z</time>
      </trkpt>
      <trkpt lat="47.51593" lon="6.73539">
        <ele>428</ele>
        <time>2016-07-28T12:34:42.000Z</time>
      </trkpt>
      <trkpt lat="47.51596" lon="6.7354">
        <ele>428</ele>
        <time>2016-07-28T12:34:43.000Z</time>
      </trkpt>
      <trkpt lat="47.51599" lon="6.73541">
        <ele>428</ele>
        <time>2016-07-28T12:34:44.000Z</time>
      </trkpt>
      <trkpt lat="47.51602" lon="6.73543">
        <ele>428</ele>
        <time>2016-07-28T12:34:45.000Z</time>
      </trkpt>
      <trkpt lat="47.51605" lon="6.73544">
        <ele>428</ele>
        <time>2016-07-28T12:34:46.000Z</time>
      </trkpt>
      <trkpt lat="47.51608" lon="6.73544">
        <ele>428</ele>
        <time>2016-07-28T12:34:47.000Z</time>
      </trkpt>
      <trkpt lat="47.51611" lon="6.73545">
        <ele>428</ele>
        <time>2016-07-28T12:34:48.000Z</time>
      </trkpt>
      <trkpt lat="47.51614" lon="6.73547">
        <ele>428</ele>
        <time>2016-07-28T12:34:49.000Z</time>
      </trkpt>
      <trkpt lat="47.51618" lon="6.73548">
        <ele>427</ele>
        <time>2016-07-28T12:34:50.000Z</time>
      </trkpt>
      <trkpt lat="47.51624" lon="6.73552">
        <ele>427</ele>
        <time>2016-07-28T12:34:51.000Z</time>
      </trkpt>
      <trkpt lat="47.51627" lon="6.73553">
        <ele>427</ele>
        <time>2016-07-28T12:34:52.000Z</time>
      </trkpt>
      <trkpt lat="47.51631" lon="6.73554">
        <ele>427</ele>
        <time>2016-07-28T12:34:53.000Z</time>
      </trkpt>
      <trkpt lat="47.51635" lon="6.73556">
        <ele>427</ele>
        <time>2016-07-28T12:34:54.000Z</time>
      </trkpt>
      <trkpt lat="47.51639" lon="6.73559">
        <ele>426</ele>
        <time>2016-07-28T12:34:55.000Z</time>
      </trkpt>
      <trkpt lat="47.51644" lon="6.7356">
        <ele>426</ele>
        <time>2016-07-28T12:34:56.000Z</time>
      </trkpt>
      <trkpt lat="47.51649" lon="6.73562">
        <ele>426</ele>
        <time>2016-07-28T12:34:57.000Z</time>
      </trkpt>
      <trkpt lat="47.51655" lon="6.73563">
        <ele>426</ele>
        <time>2016-07-28T12:34:58.000Z</time>
      </trkpt>
      <trkpt lat="47.5166" lon="6.73565">
        <ele>425</ele>
        <time>2016-07-28T12:34:59.000Z</time>
      </trkpt>
      <trkpt lat="47.51666" lon="6.73567">
        <ele>425</ele>
        <time>2016-07-28T12:35:00.000Z</time>
      </trkpt>
      <trkpt lat="47.51672" lon="6.7357">
        <ele>422</ele>
        <time>2016-07-28T12:35:01.000Z</time>
      </trkpt>
      <trkpt lat="47.51678" lon="6.73573">
        <ele>422</ele>
        <time>2016-07-28T12:35:02.000Z</time>
      </trkpt>
      <trkpt lat="47.51684" lon="6.73578">
        <ele>422</ele>
        <time>2016-07-28T12:35:03.000Z</time>
      </trkpt>
      <trkpt lat="47.51691" lon="6.73584">
        <ele>421</ele>
        <time>2016-07-28T12:35:04.000Z</time>
      </trkpt>
      <trkpt lat="47.51697" lon="6.7359">
        <ele>420</ele>
        <time>2016-07-28T12:35:05.000Z</time>
      </trkpt>
      <trkpt lat="47.51704" lon="6.73594">
        <ele>420</ele>
        <time>2016-07-28T12:35:06.000Z</time>
      </trkpt>
      <trkpt lat="47.5171" lon="6.73598">
        <ele>420</ele>
        <time>2016-07-28T12:35:07.000Z</time>
      </trkpt>
      <trkpt lat="47.51718" lon="6.73598">
        <ele>419</ele>
        <time>2016-07-28T12:35:08.000Z</time>
      </trkpt>
      <trkpt lat="47.51726" lon="6.736">
        <ele>419</ele>
        <time>2016-07-28T12:35:09.000Z</time>
      </trkpt>
      <trkpt lat="47.51733" lon="6.73601">
        <ele>419</ele>
        <time>2016-07-28T12:35:10.000Z</time>
      </trkpt>
      <trkpt lat="47.51738" lon="6.73616">
        <ele>419</ele>
        <time>2016-07-28T12:35:11.000Z</time>
      </trkpt>
      <trkpt lat="47.51743" lon="6.73623">
        <ele>418</ele>
        <time>2016-07-28T12:35:12.000Z</time>
      </trkpt>
      <trkpt lat="47.51751" lon="6.73625">
        <ele>413</ele>
        <time>2016-07-28T12:35:13.000Z</time>
      </trkpt>
      <trkpt lat="47.51757" lon="6.73629">
        <ele>413</ele>
        <time>2016-07-28T12:35:14.000Z</time>
      </trkpt>
      <trkpt lat="47.51762" lon="6.73634">
        <ele>413</ele>
        <time>2016-07-28T12:35:15.000Z</time>
      </trkpt>
      <trkpt lat="47.51767" lon="6.7364">
        <ele>413</ele>
        <time>2016-07-28T12:35:16.000Z</time>
      </trkpt>
      <trkpt lat="47.51773" lon="6.73644">
        <ele>412</ele>
        <time>2016-07-28T12:35:17.000Z</time>
      </trkpt>
      <trkpt lat="47.51778" lon="6.7365">
        <ele>412</ele>
        <time>2016-07-28T12:35:18.000Z</time>
      </trkpt>
      <trkpt lat="47.51785" lon="6.73655">
        <ele>412</ele>
        <time>2016-07-28T12:35:19.000Z</time>
      </trkpt>
      <trkpt lat="47.51793" lon="6.73655">
        <ele>411</ele>
        <time>2016-07-28T12:35:20.000Z</time>
      </trkpt>
      <trkpt lat="47.518" lon="6.73658">
        <ele>410</ele>
        <time>2016-07-28T12:35:21.000Z</time>
      </trkpt>
      <trkpt lat="47.51807" lon="6.73661">
        <ele>410</ele>
        <time>2016-07-28T12:35:22.000Z</time>
      </trkpt>
      <trkpt lat="47.51814" lon="6.73664">
        <ele>409</ele>
        <time>2016-07-28T12:35:23.000Z</time>
      </trkpt>
      <trkpt lat="47.5182" lon="6.73665">
        <ele>409</ele>
        <time>2016-07-28T12:35:24.000Z</time>
      </trkpt>
      <trkpt lat="47.51827" lon="6.73667">
        <ele>408</ele>
        <time>2016-07-28T12:35:25.000Z</time>
      </trkpt>
      <trkpt lat="47.51833" lon="6.7367">
        <ele>408</ele>
        <time>2016-07-28T12:35:26.000Z</time>
      </trkpt>
      <trkpt lat="47.51839" lon="6.73673">
        <ele>405</ele>
        <time>2016-07-28T12:35:27.000Z</time>
      </trkpt>
      <trkpt lat="47.51844" lon="6.73676">
        <ele>404</ele>
        <time>2016-07-28T12:35:28.000Z</time>
      </trkpt>
      <trkpt lat="47.51847" lon="6.73677">
        <ele>404</ele>
        <time>2016-07-28T12:35:29.000Z</time>
      </trkpt>
      <trkpt lat="47.5185" lon="6.73678">
        <ele>404</ele>
        <time>2016-07-28T12:35:30.000Z</time>
      </trkpt>
      <trkpt lat="47.51854" lon="6.73678">
        <ele>403</ele>
        <time>2016-07-28T12:35:31.000Z</time>
      </trkpt>
      <trkpt lat="47.51859" lon="6.73678">
        <ele>403</ele>
        <time>2016-07-28T12:35:32.000Z</time>
      </trkpt>
      <trkpt lat="47.51864" lon="6.73678">
        <ele>402</ele>
        <time>2016-07-28T12:35:33.000Z</time>
      </trkpt>
      <trkpt lat="47.51869" lon="6.7368">
        <ele>402</ele>
        <time>2016-07-28T12:35:34.000Z</time>
      </trkpt>
      <trkpt lat="47.51875" lon="6.73682">
        <ele>401</ele>
        <time>2016-07-28T12:35:35.000Z</time>
      </trkpt>
      <trkpt lat="47.51881" lon="6.73682">
        <ele>400</ele>
        <time>2016-07-28T12:35:36.000Z</time>
      </trkpt>
      <trkpt lat="47.51887" lon="6.73683">
        <ele>400</ele>
        <time>2016-07-28T12:35:37.000Z</time>
      </trkpt>
      <trkpt lat="47.51892" lon="6.73685">
        <ele>399</ele>
        <time>2016-07-28T12:35:38.000Z</time>
      </trkpt>
      <trkpt lat="47.51898" lon="6.73684">
        <ele>399</ele>
        <time>2016-07-28T12:35:39.000Z</time>
      </trkpt>
      <trkpt lat="47.51904" lon="6.73683">
        <ele>398</ele>
        <time>2016-07-28T12:35:40.000Z</time>
      </trkpt>
      <trkpt lat="47.51912" lon="6.73681">
        <ele>398</ele>
        <time>2016-07-28T12:35:41.000Z</time>
      </trkpt>
      <trkpt lat="47.51919" lon="6.73681">
        <ele>392</ele>
        <time>2016-07-28T12:35:41.999Z</time>
      </trkpt>
      <trkpt lat="47.51925" lon="6.73681">
        <ele>391</ele>
        <time>2016-07-28T12:35:43.000Z</time>
      </trkpt>
      <trkpt lat="47.5193" lon="6.73682">
        <ele>391</ele>
        <time>2016-07-28T12:35:44.000Z</time>
      </trkpt>
      <trkpt lat="47.51935" lon="6.73682">
        <ele>390</ele>
        <time>2016-07-28T12:35:45.000Z</time>
      </trkpt>
      <trkpt lat="47.51941" lon="6.73682">
        <ele>389</ele>
        <time>2016-07-28T12:35:46.000Z</time>
      </trkpt>
      <trkpt lat="47.51946" lon="6.7368">
        <ele>388</ele>
        <time>2016-07-28T12:35:47.000Z</time>
      </trkpt>
      <trkpt lat="47.51953" lon="6.73679">
        <ele>388</ele>
        <time>2016-07-28T12:35:47.999Z</time>
      </trkpt>
      <trkpt lat="47.51959" lon="6.73679">
        <ele>387</ele>
        <time>2016-07-28T12:35:49.000Z</time>
      </trkpt>
      <trkpt lat="47.51966" lon="6.73676">
        <ele>386</ele>
        <time>2016-07-28T12:35:50.000Z</time>
      </trkpt>
      <trkpt lat="47.51972" lon="6.73673">
        <ele>385</ele>
        <time>2016-07-28T12:35:51.000Z</time>
      </trkpt>
      <trkpt lat="47.51978" lon="6.73671">
        <ele>384</ele>
        <time>2016-07-28T12:35:52.000Z</time>
      </trkpt>
      <trkpt lat="47.51984" lon="6.73669">
        <ele>383</ele>
        <time>2016-07-28T12:35:52.999Z</time>
      </trkpt>
      <trkpt lat="47.51989" lon="6.73668">
        <ele>382</ele>
        <time>2016-07-28T12:35:54.000Z</time>
      </trkpt>
      <trkpt lat="47.51996" lon="6.73669">
        <ele>381</ele>
        <time>2016-07-28T12:35:55.000Z</time>
      </trkpt>
      <trkpt lat="47.52003" lon="6.73669">
        <ele>379</ele>
        <time>2016-07-28T12:35:56.000Z</time>
      </trkpt>
      <trkpt lat="47.52009" lon="6.73672">
        <ele>377</ele>
        <time>2016-07-28T12:35:57.000Z</time>
      </trkpt>
      <trkpt lat="47.52014" lon="6.73671">
        <ele>376</ele>
        <time>2016-07-28T12:35:58.000Z</time>
      </trkpt>
      <trkpt lat="47.52021" lon="6.73671">
        <ele>375</ele>
        <time>2016-07-28T12:35:59.000Z</time>
      </trkpt>
      <trkpt lat="47.52028" lon="6.73673">
        <ele>374</ele>
        <time>2016-07-28T12:36:00.000Z</time>
      </trkpt>
      <trkpt lat="47.52036" lon="6.73677">
        <ele>373</ele>
        <time>2016-07-28T12:36:01.000Z</time>
      </trkpt>
      <trkpt lat="47.52041" lon="6.73688">
        <ele>372</ele>
        <time>2016-07-28T12:36:02.000Z</time>
      </trkpt>
      <trkpt lat="47.5205" lon="6.73695">
        <ele>371</ele>
        <time>2016-07-28T12:36:03.000Z</time>
      </trkpt>
      <trkpt lat="47.52058" lon="6.737">
        <ele>371</ele>
        <time>2016-07-28T12:36:04.000Z</time>
      </trkpt>
      <trkpt lat="47.52067" lon="6.73703">
        <ele>370</ele>
        <time>2016-07-28T12:36:05.000Z</time>
      </trkpt>
      <trkpt lat="47.52074" lon="6.73705">
        <ele>370</ele>
        <time>2016-07-28T12:36:06.000Z</time>
      </trkpt>
      <trkpt lat="47.52082" lon="6.73706">
        <ele>369</ele>
        <time>2016-07-28T12:36:07.000Z</time>
      </trkpt>
      <trkpt lat="47.52088" lon="6.73706">
        <ele>359</ele>
        <time>2016-07-28T12:36:08.000Z</time>
      </trkpt>
      <trkpt lat="47.52097" lon="6.73702">
        <ele>358</ele>
        <time>2016-07-28T12:36:09.000Z</time>
      </trkpt>
      <trkpt lat="47.52102" lon="6.73698">
        <ele>358</ele>
        <time>2016-07-28T12:36:10.000Z</time>
      </trkpt>
      <trkpt lat="47.52103" lon="6.73687">
        <ele>359</ele>
        <time>2016-07-28T12:36:11.000Z</time>
      </trkpt>
      <trkpt lat="47.52107" lon="6.73689">
        <ele>358</ele>
        <time>2016-07-28T12:36:12.000Z</time>
      </trkpt>
      <trkpt lat="47.52113" lon="6.73684">
        <ele>357</ele>
        <time>2016-07-28T12:36:13.000Z</time>
      </trkpt>
      <trkpt lat="47.52119" lon="6.73679">
        <ele>357</ele>
        <time>2016-07-28T12:36:14.000Z</time>
      </trkpt>
      <trkpt lat="47.52127" lon="6.73673">
        <ele>355</ele>
        <time>2016-07-28T12:36:15.000Z</time>
      </trkpt>
      <trkpt lat="47.52135" lon="6.73668">
        <ele>354</ele>
        <time>2016-07-28T12:36:16.000Z</time>
      </trkpt>
      <trkpt lat="47.52144" lon="6.73665">
        <ele>354</ele>
        <time>2016-07-28T12:36:17.000Z</time>
      </trkpt>
      <trkpt lat="47.52152" lon="6.7366">
        <ele>352</ele>
        <time>2016-07-28T12:36:18.000Z</time>
      </trkpt>
      <trkpt lat="47.52158" lon="6.73658">
        <ele>351</ele>
        <time>2016-07-28T12:36:19.000Z</time>
      </trkpt>
      <trkpt lat="47.52165" lon="6.73658">
        <ele>351</ele>
        <time>2016-07-28T12:36:20.000Z</time>
      </trkpt>
      <trkpt lat="47.52171" lon="6.7366">
        <ele>347</ele>
        <time>2016-07-28T12:36:21.000Z</time>
      </trkpt>
      <trkpt lat="47.52179" lon="6.7366">
        <ele>346</ele>
        <time>2016-07-28T12:36:22.000Z</time>
      </trkpt>
      <trkpt lat="47.52188" lon="6.73658">
        <ele>345</ele>
        <time>2016-07-28T12:36:23.000Z</time>
      </trkpt>
      <trkpt lat="47.52188" lon="6.7366">
        <ele>345</ele>
        <time>2016-07-28T12:36:24.000Z</time>
      </trkpt>
      <trkpt lat="47.52194" lon="6.73657">
        <ele>345</ele>
        <time>2016-07-28T12:36:25.000Z</time>
      </trkpt>
      <trkpt lat="47.52199" lon="6.73656">
        <ele>344</ele>
        <time>2016-07-28T12:36:26.000Z</time>
      </trkpt>
      <trkpt lat="47.52202" lon="6.73657">
        <ele>344</ele>
        <time>2016-07-28T12:36:27.000Z</time>
      </trkpt>
      <trkpt lat="47.52205" lon="6.73657">
        <ele>344</ele>
        <time>2016-07-28T12:36:28.000Z</time>
      </trkpt>
      <trkpt lat="47.52209" lon="6.73658">
        <ele>343</ele>
        <time>2016-07-28T12:36:33.000Z</time>
      </trkpt>
      <trkpt lat="47.5221" lon="6.73657">
        <ele>343</ele>
        <time>2016-07-28T12:36:34.000Z</time>
      </trkpt>
      <trkpt lat="47.52213" lon="6.73653">
        <ele>343</ele>
        <time>2016-07-28T12:36:37.000Z</time>
      </trkpt>
      <trkpt lat="47.52214" lon="6.73652">
        <ele>343</ele>
        <time>2016-07-28T12:36:38.000Z</time>
      </trkpt>
      <trkpt lat="47.52216" lon="6.73647">
        <ele>343</ele>
        <time>2016-07-28T12:36:41.000Z</time>
      </trkpt>
      <trkpt lat="47.52217" lon="6.73646">
        <ele>343</ele>
        <time>2016-07-28T12:36:42.000Z</time>
      </trkpt>
      <trkpt lat="47.52219" lon="6.73642">
        <ele>343</ele>
        <time>2016-07-28T12:36:44.000Z</time>
      </trkpt>
      <trkpt lat="47.5222" lon="6.7364">
        <ele>343</ele>
        <time>2016-07-28T12:36:45.000Z</time>
      </trkpt>
      <trkpt lat="47.52222" lon="6.73636">
        <ele>343</ele>
        <time>2016-07-28T12:36:47.000Z</time>
      </trkpt>
      <trkpt lat="47.52224" lon="6.73633">
        <ele>343</ele>
        <time>2016-07-28T12:36:48.000Z</time>
      </trkpt>
      <trkpt lat="47.52227" lon="6.7363">
        <ele>343</ele>
        <time>2016-07-28T12:36:50.000Z</time>
      </trkpt>
      <trkpt lat="47.52229" lon="6.73629">
        <ele>343</ele>
        <time>2016-07-28T12:36:51.000Z</time>
      </trkpt>
      <trkpt lat="47.52232" lon="6.73628">
        <ele>343</ele>
        <time>2016-07-28T12:36:53.000Z</time>
      </trkpt>
      <trkpt lat="47.52234" lon="6.73628">
        <ele>343</ele>
        <time>2016-07-28T12:36:54.000Z</time>
      </trkpt>
      <trkpt lat="47.52237" lon="6.73628">
        <ele>343</ele>
        <time>2016-07-28T12:36:55.000Z</time>
      </trkpt>
      <trkpt lat="47.5224" lon="6.73627">
        <ele>343</ele>
        <time>2016-07-28T12:36:56.000Z</time>
      </trkpt>
      <trkpt lat="47.52242" lon="6.73625">
        <ele>343</ele>
        <time>2016-07-28T12:36:57.000Z</time>
      </trkpt>
      <trkpt lat="47.52245" lon="6.73622">
        <ele>343</ele>
        <time>2016-07-28T12:36:58.000Z</time>
      </trkpt>
      <trkpt lat="47.52248" lon="6.73619">
        <ele>343</ele>
        <time>2016-07-28T12:36:59.000Z</time>
      </trkpt>
      <trkpt lat="47.52251" lon="6.73616">
        <ele>338</ele>
        <time>2016-07-28T12:37:00.000Z</time>
      </trkpt>
      <trkpt lat="47.52254" lon="6.73613">
        <ele>338</ele>
        <time>2016-07-28T12:37:01.000Z</time>
      </trkpt>
      <trkpt lat="47.52257" lon="6.73611">
        <ele>338</ele>
        <time>2016-07-28T12:37:02.000Z</time>
      </trkpt>
      <trkpt lat="47.5226" lon="6.73608">
        <ele>338</ele>
        <time>2016-07-28T12:37:03.000Z</time>
      </trkpt>
      <trkpt lat="47.52263" lon="6.73605">
        <ele>339</ele>
        <time>2016-07-28T12:37:04.000Z</time>
      </trkpt>
      <trkpt lat="47.52266" lon="6.73603">
        <ele>339</ele>
        <time>2016-07-28T12:37:05.000Z</time>
      </trkpt>
      <trkpt lat="47.5227" lon="6.73601">
        <ele>338</ele>
        <time>2016-07-28T12:37:06.000Z</time>
      </trkpt>
      <trkpt lat="47.52273" lon="6.736">
        <ele>338</ele>
        <time>2016-07-28T12:37:07.000Z</time>
      </trkpt>
      <trkpt lat="47.52277" lon="6.73597">
        <ele>338</ele>
        <time>2016-07-28T12:37:08.000Z</time>
      </trkpt>
      <trkpt lat="47.5228" lon="6.73594">
        <ele>338</ele>
        <time>2016-07-28T12:37:09.000Z</time>
      </trkpt>
      <trkpt lat="47.52283" lon="6.73592">
        <ele>338</ele>
        <time>2016-07-28T12:37:10.000Z</time>
      </trkpt>
      <trkpt lat="47.52287" lon="6.73589">
        <ele>337</ele>
        <time>2016-07-28T12:37:11.000Z</time>
      </trkpt>
      <trkpt lat="47.52291" lon="6.73587">
        <ele>337</ele>
        <time>2016-07-28T12:37:12.000Z</time>
      </trkpt>
      <trkpt lat="47.52294" lon="6.73584">
        <ele>337</ele>
        <time>2016-07-28T12:37:13.000Z</time>
      </trkpt>
      <trkpt lat="47.52298" lon="6.73583">
        <ele>342</ele>
        <time>2016-07-28T12:37:14.000Z</time>
      </trkpt>
      <trkpt lat="47.52303" lon="6.73581">
        <ele>342</ele>
        <time>2016-07-28T12:37:15.000Z</time>
      </trkpt>
      <trkpt lat="47.52307" lon="6.73579">
        <ele>341</ele>
        <time>2016-07-28T12:37:16.000Z</time>
      </trkpt>
      <trkpt lat="47.52311" lon="6.73577">
        <ele>340</ele>
        <time>2016-07-28T12:37:17.000Z</time>
      </trkpt>
      <trkpt lat="47.52315" lon="6.73576">
        <ele>340</ele>
        <time>2016-07-28T12:37:18.000Z</time>
      </trkpt>
      <trkpt lat="47.5232" lon="6.73574">
        <ele>339</ele>
        <time>2016-07-28T12:37:19.000Z</time>
      </trkpt>
      <trkpt lat="47.52325" lon="6.73574">
        <ele>338</ele>
        <time>2016-07-28T12:37:20.000Z</time>
      </trkpt>
      <trkpt lat="47.5233" lon="6.73573">
        <ele>338</ele>
        <time>2016-07-28T12:37:21.000Z</time>
      </trkpt>
      <trkpt lat="47.52333" lon="6.73572">
        <ele>338</ele>
        <time>2016-07-28T12:37:22.000Z</time>
      </trkpt>
      <trkpt lat="47.52338" lon="6.73571">
        <ele>335</ele>
        <time>2016-07-28T12:37:23.000Z</time>
      </trkpt>
      <trkpt lat="47.52344" lon="6.73571">
        <ele>335</ele>
        <time>2016-07-28T12:37:24.000Z</time>
      </trkpt>
      <trkpt lat="47.52349" lon="6.7357">
        <ele>335</ele>
        <time>2016-07-28T12:37:25.000Z</time>
      </trkpt>
      <trkpt lat="47.52353" lon="6.73569">
        <ele>335</ele>
        <time>2016-07-28T12:37:26.000Z</time>
      </trkpt>
      <trkpt lat="47.52359" lon="6.73569">
        <ele>335</ele>
        <time>2016-07-28T12:37:27.000Z</time>
      </trkpt>
      <trkpt lat="47.52364" lon="6.73567">
        <ele>335</ele>
        <time>2016-07-28T12:37:28.000Z</time>
      </trkpt>
      <trkpt lat="47.52369" lon="6.73565">
        <ele>335</ele>
        <time>2016-07-28T12:37:29.000Z</time>
      </trkpt>
      <trkpt lat="47.52374" lon="6.73565">
        <ele>335</ele>
        <time>2016-07-28T12:37:30.000Z</time>
      </trkpt>
      <trkpt lat="47.52378" lon="6.73565">
        <ele>335</ele>
        <time>2016-07-28T12:37:31.000Z</time>
      </trkpt>
      <trkpt lat="47.52383" lon="6.73562">
        <ele>335</ele>
        <time>2016-07-28T12:37:32.000Z</time>
      </trkpt>
      <trkpt lat="47.52388" lon="6.73559">
        <ele>335</ele>
        <time>2016-07-28T12:37:33.000Z</time>
      </trkpt>
      <trkpt lat="47.52392" lon="6.73557">
        <ele>335</ele>
        <time>2016-07-28T12:37:34.000Z</time>
      </trkpt>
      <trkpt lat="47.52397" lon="6.73555">
        <ele>335</ele>
        <time>2016-07-28T12:37:35.000Z</time>
      </trkpt>
      <trkpt lat="47.52401" lon="6.73552">
        <ele>335</ele>
        <time>2016-07-28T12:37:36.000Z</time>
      </trkpt>
      <trkpt lat="47.52406" lon="6.73549">
        <ele>335</ele>
        <time>2016-07-28T12:37:37.000Z</time>
      </trkpt>
      <trkpt lat="47.5241" lon="6.73548">
        <ele>335</ele>
        <time>2016-07-28T12:37:38.000Z</time>
      </trkpt>
      <trkpt lat="47.52415" lon="6.73545">
        <ele>335</ele>
        <time>2016-07-28T12:37:39.000Z</time>
      </trkpt>
      <trkpt lat="47.52419" lon="6.73542">
        <ele>334</ele>
        <time>2016-07-28T12:37:40.000Z</time>
      </trkpt>
      <trkpt lat="47.52423" lon="6.73539">
        <ele>334</ele>
        <time>2016-07-28T12:37:41.000Z</time>
      </trkpt>
      <trkpt lat="47.52427" lon="6.73535">
        <ele>334</ele>
        <time>2016-07-28T12:37:42.000Z</time>
      </trkpt>
      <trkpt lat="47.52431" lon="6.73531">
        <ele>334</ele>
        <time>2016-07-28T12:37:43.000Z</time>
      </trkpt>
      <trkpt lat="47.52435" lon="6.73528">
        <ele>334</ele>
        <time>2016-07-28T12:37:44.000Z</time>
      </trkpt>
      <trkpt lat="47.52439" lon="6.73521">
        <ele>334</ele>
        <time>2016-07-28T12:37:45.000Z</time>
      </trkpt>
      <trkpt lat="47.52442" lon="6.73517">
        <ele>334</ele>
        <time>2016-07-28T12:37:46.000Z</time>
      </trkpt>
      <trkpt lat="47.52446" lon="6.73512">
        <ele>334</ele>
        <time>2016-07-28T12:37:47.000Z</time>
      </trkpt>
      <trkpt lat="47.5245" lon="6.73507">
        <ele>334</ele>
        <time>2016-07-28T12:37:48.000Z</time>
      </trkpt>
      <trkpt lat="47.52454" lon="6.73502">
        <ele>334</ele>
        <time>2016-07-28T12:37:49.000Z</time>
      </trkpt>
      <trkpt lat="47.52456" lon="6.73496">
        <ele>336</ele>
        <time>2016-07-28T12:37:50.000Z</time>
      </trkpt>
      <trkpt lat="47.52458" lon="6.73491">
        <ele>336</ele>
        <time>2016-07-28T12:37:51.000Z</time>
      </trkpt>
      <trkpt lat="47.52461" lon="6.73485">
        <ele>336</ele>
        <time>2016-07-28T12:37:52.000Z</time>
      </trkpt>
      <trkpt lat="47.52463" lon="6.7348">
        <ele>336</ele>
        <time>2016-07-28T12:37:53.000Z</time>
      </trkpt>
      <trkpt lat="47.52466" lon="6.73475">
        <ele>336</ele>
        <time>2016-07-28T12:37:54.000Z</time>
      </trkpt>
      <trkpt lat="47.52468" lon="6.73468">
        <ele>336</ele>
        <time>2016-07-28T12:37:55.000Z</time>
      </trkpt>
      <trkpt lat="47.52469" lon="6.73462">
        <ele>336</ele>
        <time>2016-07-28T12:37:56.000Z</time>
      </trkpt>
      <trkpt lat="47.52472" lon="6.73457">
        <ele>336</ele>
        <time>2016-07-28T12:37:56.999Z</time>
      </trkpt>
      <trkpt lat="47.52475" lon="6.73452">
        <ele>336</ele>
        <time>2016-07-28T12:37:58.000Z</time>
      </trkpt>
      <trkpt lat="47.52478" lon="6.73446">
        <ele>336</ele>
        <time>2016-07-28T12:37:59.000Z</time>
      </trkpt>
      <trkpt lat="47.5248" lon="6.73441">
        <ele>336</ele>
        <time>2016-07-28T12:38:00.000Z</time>
      </trkpt>
      <trkpt lat="47.52483" lon="6.73435">
        <ele>336</ele>
        <time>2016-07-28T12:38:01.000Z</time>
      </trkpt>
      <trkpt lat="47.52485" lon="6.7343">
        <ele>336</ele>
        <time>2016-07-28T12:38:01.999Z</time>
      </trkpt>
      <trkpt lat="47.52487" lon="6.73425">
        <ele>336</ele>
        <time>2016-07-28T12:38:03.000Z</time>
      </trkpt>
      <trkpt lat="47.52489" lon="6.7342">
        <ele>336</ele>
        <time>2016-07-28T12:38:04.000Z</time>
      </trkpt>
      <trkpt lat="47.52491" lon="6.73415">
        <ele>338</ele>
        <time>2016-07-28T12:38:05.000Z</time>
      </trkpt>
      <trkpt lat="47.52493" lon="6.7341">
        <ele>338</ele>
        <time>2016-07-28T12:38:06.000Z</time>
      </trkpt>
      <trkpt lat="47.52496" lon="6.73401">
        <ele>339</ele>
        <time>2016-07-28T12:38:07.000Z</time>
      </trkpt>
      <trkpt lat="47.52498" lon="6.73395">
        <ele>340</ele>
        <time>2016-07-28T12:38:08.000Z</time>
      </trkpt>
      <trkpt lat="47.525" lon="6.73391">
        <ele>337</ele>
        <time>2016-07-28T12:38:09.000Z</time>
      </trkpt>
      <trkpt lat="47.52502" lon="6.73386">
        <ele>338</ele>
        <time>2016-07-28T12:38:10.000Z</time>
      </trkpt>
      <trkpt lat="47.52504" lon="6.7338">
        <ele>338</ele>
        <time>2016-07-28T12:38:11.000Z</time>
      </trkpt>
      <trkpt lat="47.52505" lon="6.73375">
        <ele>338</ele>
        <time>2016-07-28T12:38:12.000Z</time>
      </trkpt>
      <trkpt lat="47.52507" lon="6.7337">
        <ele>339</ele>
        <time>2016-07-28T12:38:13.000Z</time>
      </trkpt>
      <trkpt lat="47.52508" lon="6.73365">
        <ele>339</ele>
        <time>2016-07-28T12:38:14.000Z</time>
      </trkpt>
      <trkpt lat="47.52509" lon="6.73359">
        <ele>340</ele>
        <time>2016-07-28T12:38:15.000Z</time>
      </trkpt>
      <trkpt lat="47.52511" lon="6.73353">
        <ele>340</ele>
        <time>2016-07-28T12:38:16.000Z</time>
      </trkpt>
      <trkpt lat="47.52512" lon="6.73347">
        <ele>341</ele>
        <time>2016-07-28T12:38:17.000Z</time>
      </trkpt>
      <trkpt lat="47.52514" lon="6.7334">
        <ele>341</ele>
        <time>2016-07-28T12:38:18.000Z</time>
      </trkpt>
      <trkpt lat="47.52515" lon="6.73334">
        <ele>341</ele>
        <time>2016-07-28T12:38:19.000Z</time>
      </trkpt>
      <trkpt lat="47.52516" lon="6.73328">
        <ele>342</ele>
        <time>2016-07-28T12:38:20.000Z</time>
      </trkpt>
      <trkpt lat="47.52518" lon="6.73322">
        <ele>342</ele>
        <time>2016-07-28T12:38:21.000Z</time>
      </trkpt>
      <trkpt lat="47.52519" lon="6.73318">
        <ele>342</ele>
        <time>2016-07-28T12:38:22.000Z</time>
      </trkpt>
      <trkpt lat="47.5252" lon="6.73311">
        <ele>341</ele>
        <time>2016-07-28T12:38:23.000Z</time>
      </trkpt>
      <trkpt lat="47.52521" lon="6.73306">
        <ele>341</ele>
        <time>2016-07-28T12:38:24.000Z</time>
      </trkpt>
      <trkpt lat="47.52522" lon="6.73301">
        <ele>341</ele>
        <time>2016-07-28T12:38:25.000Z</time>
      </trkpt>
      <trkpt lat="47.52523" lon="6.73296">
        <ele>341</ele>
        <time>2016-07-28T12:38:26.000Z</time>
      </trkpt>
      <trkpt lat="47.52523" lon="6.73291">
        <ele>341</ele>
        <time>2016-07-28T12:38:27.000Z</time>
      </trkpt>
      <trkpt lat="47.52524" lon="6.73285">
        <ele>341</ele>
        <time>2016-07-28T12:38:28.000Z</time>
      </trkpt>
      <trkpt lat="47.52524" lon="6.73279">
        <ele>341</ele>
        <time>2016-07-28T12:38:29.000Z</time>
      </trkpt>
      <trkpt lat="47.52524" lon="6.73274">
        <ele>341</ele>
        <time>2016-07-28T12:38:30.000Z</time>
      </trkpt>
      <trkpt lat="47.52524" lon="6.73268">
        <ele>341</ele>
        <time>2016-07-28T12:38:31.000Z</time>
      </trkpt>
      <trkpt lat="47.52523" lon="6.73262">
        <ele>341</ele>
        <time>2016-07-28T12:38:32.000Z</time>
      </trkpt>
      <trkpt lat="47.52522" lon="6.73256">
        <ele>342</ele>
        <time>2016-07-28T12:38:33.000Z</time>
      </trkpt>
      <trkpt lat="47.52522" lon="6.73251">
        <ele>342</ele>
        <time>2016-07-28T12:38:34.000Z</time>
      </trkpt>
      <trkpt lat="47.52521" lon="6.73245">
        <ele>342</ele>
        <time>2016-07-28T12:38:35.000Z</time>
      </trkpt>
      <trkpt lat="47.5252" lon="6.73239">
        <ele>341</ele>
        <time>2016-07-28T12:38:36.000Z</time>
      </trkpt>
      <trkpt lat="47.52519" lon="6.73234">
        <ele>341</ele>
        <time>2016-07-28T12:38:37.000Z</time>
      </trkpt>
      <trkpt lat="47.52518" lon="6.73228">
        <ele>341</ele>
        <time>2016-07-28T12:38:38.000Z</time>
      </trkpt>
      <trkpt lat="47.52516" lon="6.73223">
        <ele>341</ele>
        <time>2016-07-28T12:38:39.000Z</time>
      </trkpt>
      <trkpt lat="47.52516" lon="6.73217">
        <ele>341</ele>
        <time>2016-07-28T12:38:40.000Z</time>
      </trkpt>
      <trkpt lat="47.52515" lon="6.73211">
        <ele>341</ele>
        <time>2016-07-28T12:38:41.000Z</time>
      </trkpt>
      <trkpt lat="47.52515" lon="6.73206">
        <ele>340</ele>
        <time>2016-07-28T12:38:42.000Z</time>
      </trkpt>
      <trkpt lat="47.52514" lon="6.732">
        <ele>340</ele>
        <time>2016-07-28T12:38:43.000Z</time>
      </trkpt>
      <trkpt lat="47.52513" lon="6.73194">
        <ele>340</ele>
        <time>2016-07-28T12:38:44.000Z</time>
      </trkpt>
      <trkpt lat="47.52513" lon="6.73188">
        <ele>340</ele>
        <time>2016-07-28T12:38:45.000Z</time>
      </trkpt>
      <trkpt lat="47.52512" lon="6.73182">
        <ele>341</ele>
        <time>2016-07-28T12:38:46.000Z</time>
      </trkpt>
      <trkpt lat="47.52511" lon="6.73176">
        <ele>341</ele>
        <time>2016-07-28T12:38:47.000Z</time>
      </trkpt>
      <trkpt lat="47.5251" lon="6.7317">
        <ele>341</ele>
        <time>2016-07-28T12:38:48.000Z</time>
      </trkpt>
      <trkpt lat="47.52508" lon="6.73163">
        <ele>341</ele>
        <time>2016-07-28T12:38:49.000Z</time>
      </trkpt>
      <trkpt lat="47.52507" lon="6.73157">
        <ele>340</ele>
        <time>2016-07-28T12:38:50.000Z</time>
      </trkpt>
      <trkpt lat="47.52506" lon="6.7315">
        <ele>340</ele>
        <time>2016-07-28T12:38:51.000Z</time>
      </trkpt>
      <trkpt lat="47.52505" lon="6.73143">
        <ele>339</ele>
        <time>2016-07-28T12:38:52.000Z</time>
      </trkpt>
      <trkpt lat="47.52504" lon="6.73136">
        <ele>339</ele>
        <time>2016-07-28T12:38:53.000Z</time>
      </trkpt>
      <trkpt lat="47.52503" lon="6.73129">
        <ele>338</ele>
        <time>2016-07-28T12:38:54.000Z</time>
      </trkpt>
      <trkpt lat="47.52502" lon="6.7312">
        <ele>338</ele>
        <time>2016-07-28T12:38:55.000Z</time>
      </trkpt>
      <trkpt lat="47.52502" lon="6.73113">
        <ele>338</ele>
        <time>2016-07-28T12:38:56.000Z</time>
      </trkpt>
      <trkpt lat="47.52502" lon="6.73106">
        <ele>338</ele>
        <time>2016-07-28T12:38:57.000Z</time>
      </trkpt>
      <trkpt lat="47.52503" lon="6.73098">
        <ele>338</ele>
        <time>2016-07-28T12:38:58.000Z</time>
      </trkpt>
      <trkpt lat="47.52503" lon="6.73091">
        <ele>338</ele>
        <time>2016-07-28T12:38:59.000Z</time>
      </trkpt>
      <trkpt lat="47.52503" lon="6.73084">
        <ele>338</ele>
        <time>2016-07-28T12:39:00.000Z</time>
      </trkpt>
      <trkpt lat="47.52504" lon="6.73076">
        <ele>338</ele>
        <time>2016-07-28T12:39:01.000Z</time>
      </trkpt>
      <trkpt lat="47.52505" lon="6.73068">
        <ele>338</ele>
        <time>2016-07-28T12:39:02.000Z</time>
      </trkpt>
      <trkpt lat="47.52506" lon="6.7306">
        <ele>338</ele>
        <time>2016-07-28T12:39:03.000Z</time>
      </trkpt>
      <trkpt lat="47.52507" lon="6.73052">
        <ele>338</ele>
        <time>2016-07-28T12:39:04.000Z</time>
      </trkpt>
      <trkpt lat="47.52508" lon="6.73045">
        <ele>338</ele>
        <time>2016-07-28T12:39:05.000Z</time>
      </trkpt>
      <trkpt lat="47.5251" lon="6.73037">
        <ele>338</ele>
        <time>2016-07-28T12:39:06.000Z</time>
      </trkpt>
      <trkpt lat="47.52511" lon="6.7303">
        <ele>339</ele>
        <time>2016-07-28T12:39:07.000Z</time>
      </trkpt>
      <trkpt lat="47.52512" lon="6.73023">
        <ele>339</ele>
        <time>2016-07-28T12:39:08.000Z</time>
      </trkpt>
      <trkpt lat="47.52513" lon="6.73015">
        <ele>339</ele>
        <time>2016-07-28T12:39:09.000Z</time>
      </trkpt>
      <trkpt lat="47.52515" lon="6.73008">
        <ele>340</ele>
        <time>2016-07-28T12:39:10.000Z</time>
      </trkpt>
      <trkpt lat="47.52516" lon="6.73">
        <ele>341</ele>
        <time>2016-07-28T12:39:11.000Z</time>
      </trkpt>
      <trkpt lat="47.52518" lon="6.72992">
        <ele>341</ele>
        <time>2016-07-28T12:39:12.000Z</time>
      </trkpt>
      <trkpt lat="47.5252" lon="6.72984">
        <ele>341</ele>
        <time>2016-07-28T12:39:13.000Z</time>
      </trkpt>
      <trkpt lat="47.52522" lon="6.72977">
        <ele>341</ele>
        <time>2016-07-28T12:39:14.000Z</time>
      </trkpt>
      <trkpt lat="47.52523" lon="6.7297">
        <ele>340</ele>
        <time>2016-07-28T12:39:14.999Z</time>
      </trkpt>
      <trkpt lat="47.52524" lon="6.72962">
        <ele>341</ele>
        <time>2016-07-28T12:39:16.000Z</time>
      </trkpt>
      <trkpt lat="47.52526" lon="6.72954">
        <ele>341</ele>
        <time>2016-07-28T12:39:17.000Z</time>
      </trkpt>
      <trkpt lat="47.52528" lon="6.72947">
        <ele>341</ele>
        <time>2016-07-28T12:39:18.000Z</time>
      </trkpt>
      <trkpt lat="47.5253" lon="6.72939">
        <ele>341</ele>
        <time>2016-07-28T12:39:19.000Z</time>
      </trkpt>
      <trkpt lat="47.52531" lon="6.72933">
        <ele>341</ele>
        <time>2016-07-28T12:39:20.000Z</time>
      </trkpt>
      <trkpt lat="47.52534" lon="6.72925">
        <ele>341</ele>
        <time>2016-07-28T12:39:21.000Z</time>
      </trkpt>
      <trkpt lat="47.52536" lon="6.72918">
        <ele>341</ele>
        <time>2016-07-28T12:39:21.999Z</time>
      </trkpt>
      <trkpt lat="47.52537" lon="6.72911">
        <ele>342</ele>
        <time>2016-07-28T12:39:23.000Z</time>
      </trkpt>
      <trkpt lat="47.5254" lon="6.72905">
        <ele>342</ele>
        <time>2016-07-28T12:39:24.000Z</time>
      </trkpt>
      <trkpt lat="47.52542" lon="6.72898">
        <ele>342</ele>
        <time>2016-07-28T12:39:24.999Z</time>
      </trkpt>
      <trkpt lat="47.52546" lon="6.72892">
        <ele>342</ele>
        <time>2016-07-28T12:39:26.000Z</time>
      </trkpt>
      <trkpt lat="47.5255" lon="6.72887">
        <ele>342</ele>
        <time>2016-07-28T12:39:27.000Z</time>
      </trkpt>
      <trkpt lat="47.52553" lon="6.72881">
        <ele>342</ele>
        <time>2016-07-28T12:39:28.000Z</time>
      </trkpt>
      <trkpt lat="47.52558" lon="6.72876">
        <ele>342</ele>
        <time>2016-07-28T12:39:29.000Z</time>
      </trkpt>
      <trkpt lat="47.52562" lon="6.72871">
        <ele>342</ele>
        <time>2016-07-28T12:39:30.000Z</time>
      </trkpt>
      <trkpt lat="47.52566" lon="6.72867">
        <ele>342</ele>
        <time>2016-07-28T12:39:31.000Z</time>
      </trkpt>
      <trkpt lat="47.52571" lon="6.72863">
        <ele>342</ele>
        <time>2016-07-28T12:39:32.000Z</time>
      </trkpt>
      <trkpt lat="47.52576" lon="6.72859">
        <ele>342</ele>
        <time>2016-07-28T12:39:33.000Z</time>
      </trkpt>
      <trkpt lat="47.52581" lon="6.72857">
        <ele>342</ele>
        <time>2016-07-28T12:39:34.000Z</time>
      </trkpt>
      <trkpt lat="47.52586" lon="6.72854">
        <ele>339</ele>
        <time>2016-07-28T12:39:35.000Z</time>
      </trkpt>
      <trkpt lat="47.52591" lon="6.72851">
        <ele>339</ele>
        <time>2016-07-28T12:39:36.000Z</time>
      </trkpt>
      <trkpt lat="47.52597" lon="6.72849">
        <ele>339</ele>
        <time>2016-07-28T12:39:37.000Z</time>
      </trkpt>
      <trkpt lat="47.52603" lon="6.72847">
        <ele>339</ele>
        <time>2016-07-28T12:39:38.000Z</time>
      </trkpt>
      <trkpt lat="47.52607" lon="6.72845">
        <ele>339</ele>
        <time>2016-07-28T12:39:39.000Z</time>
      </trkpt>
      <trkpt lat="47.52612" lon="6.72843">
        <ele>339</ele>
        <time>2016-07-28T12:39:40.000Z</time>
      </trkpt>
      <trkpt lat="47.52617" lon="6.7284">
        <ele>339</ele>
        <time>2016-07-28T12:39:41.000Z</time>
      </trkpt>
      <trkpt lat="47.52621" lon="6.72837">
        <ele>338</ele>
        <time>2016-07-28T12:39:42.000Z</time>
      </trkpt>
      <trkpt lat="47.52626" lon="6.72834">
        <ele>338</ele>
        <time>2016-07-28T12:39:43.000Z</time>
      </trkpt>
      <trkpt lat="47.5263" lon="6.72832">
        <ele>341</ele>
        <time>2016-07-28T12:39:44.000Z</time>
      </trkpt>
      <trkpt lat="47.52634" lon="6.7283">
        <ele>341</ele>
        <time>2016-07-28T12:39:45.000Z</time>
      </trkpt>
      <trkpt lat="47.52639" lon="6.72828">
        <ele>341</ele>
        <time>2016-07-28T12:39:46.000Z</time>
      </trkpt>
      <trkpt lat="47.52644" lon="6.72825">
        <ele>340</ele>
        <time>2016-07-28T12:39:47.000Z</time>
      </trkpt>
      <trkpt lat="47.52648" lon="6.72823">
        <ele>340</ele>
        <time>2016-07-28T12:39:48.000Z</time>
      </trkpt>
      <trkpt lat="47.52652" lon="6.72821">
        <ele>340</ele>
        <time>2016-07-28T12:39:49.000Z</time>
      </trkpt>
      <trkpt lat="47.52656" lon="6.72821">
        <ele>340</ele>
        <time>2016-07-28T12:39:50.000Z</time>
      </trkpt>
      <trkpt lat="47.52661" lon="6.72821">
        <ele>340</ele>
        <time>2016-07-28T12:39:51.000Z</time>
      </trkpt>
      <trkpt lat="47.52665" lon="6.72824">
        <ele>339</ele>
        <time>2016-07-28T12:39:52.000Z</time>
      </trkpt>
      <trkpt lat="47.5267" lon="6.72832">
        <ele>338</ele>
        <time>2016-07-28T12:39:53.000Z</time>
      </trkpt>
      <trkpt lat="47.52675" lon="6.7284">
        <ele>338</ele>
        <time>2016-07-28T12:39:54.000Z</time>
      </trkpt>
      <trkpt lat="47.5268" lon="6.72847">
        <ele>337</ele>
        <time>2016-07-28T12:39:55.001Z</time>
      </trkpt>
      <trkpt lat="47.52685" lon="6.7285">
        <ele>337</ele>
        <time>2016-07-28T12:39:56.000Z</time>
      </trkpt>
      <trkpt lat="47.5269" lon="6.72848">
        <ele>337</ele>
        <time>2016-07-28T12:39:57.000Z</time>
      </trkpt>
      <trkpt lat="47.52694" lon="6.72851">
        <ele>337</ele>
        <time>2016-07-28T12:39:58.000Z</time>
      </trkpt>
      <trkpt lat="47.52697" lon="6.72856">
        <ele>337</ele>
        <time>2016-07-28T12:39:59.000Z</time>
      </trkpt>
      <trkpt lat="47.52699" lon="6.72863">
        <ele>337</ele>
        <time>2016-07-28T12:40:00.000Z</time>
      </trkpt>
      <trkpt lat="47.527" lon="6.72871">
        <ele>337</ele>
        <time>2016-07-28T12:40:01.000Z</time>
      </trkpt>
      <trkpt lat="47.52702" lon="6.72878">
        <ele>337</ele>
        <time>2016-07-28T12:40:02.000Z</time>
      </trkpt>
      <trkpt lat="47.52703" lon="6.72885">
        <ele>337</ele>
        <time>2016-07-28T12:40:03.000Z</time>
      </trkpt>
      <trkpt lat="47.52705" lon="6.72893">
        <ele>337</ele>
        <time>2016-07-28T12:40:04.000Z</time>
      </trkpt>
      <trkpt lat="47.52705" lon="6.72899">
        <ele>337</ele>
        <time>2016-07-28T12:40:05.000Z</time>
      </trkpt>
      <trkpt lat="47.52705" lon="6.72905">
        <ele>337</ele>
        <time>2016-07-28T12:40:06.000Z</time>
      </trkpt>
      <trkpt lat="47.52707" lon="6.72909">
        <ele>337</ele>
        <time>2016-07-28T12:40:08.000Z</time>
      </trkpt>
      <trkpt lat="47.52708" lon="6.72911">
        <ele>337</ele>
        <time>2016-07-28T12:40:09.000Z</time>
      </trkpt>
      <trkpt lat="47.52711" lon="6.72915">
        <ele>337</ele>
        <time>2016-07-28T12:40:22.000Z</time>
      </trkpt>
      <trkpt lat="47.52712" lon="6.72916">
        <ele>337</ele>
        <time>2016-07-28T12:40:23.000Z</time>
      </trkpt>
      <trkpt lat="47.52714" lon="6.7292">
        <ele>339</ele>
        <time>2016-07-28T12:40:28.000Z</time>
      </trkpt>
      <trkpt lat="47.52715" lon="6.72921">
        <ele>339</ele>
        <time>2016-07-28T12:40:29.000Z</time>
      </trkpt>
      <trkpt lat="47.52716" lon="6.72924">
        <ele>340</ele>
        <time>2016-07-28T12:40:30.000Z</time>
      </trkpt>
      <trkpt lat="47.52717" lon="6.72927">
        <ele>340</ele>
        <time>2016-07-28T12:40:31.000Z</time>
      </trkpt>
      <trkpt lat="47.52719" lon="6.72931">
        <ele>340</ele>
        <time>2016-07-28T12:40:32.000Z</time>
      </trkpt>
      <trkpt lat="47.5272" lon="6.72935">
        <ele>340</ele>
        <time>2016-07-28T12:40:33.000Z</time>
      </trkpt>
      <trkpt lat="47.52722" lon="6.7294">
        <ele>340</ele>
        <time>2016-07-28T12:40:34.000Z</time>
      </trkpt>
      <trkpt lat="47.52724" lon="6.72945">
        <ele>341</ele>
        <time>2016-07-28T12:40:35.000Z</time>
      </trkpt>
      <trkpt lat="47.52725" lon="6.72949">
        <ele>341</ele>
        <time>2016-07-28T12:40:36.000Z</time>
      </trkpt>
      <trkpt lat="47.52725" lon="6.72953">
        <ele>341</ele>
        <time>2016-07-28T12:40:37.000Z</time>
      </trkpt>
      <trkpt lat="47.52725" lon="6.72957">
        <ele>341</ele>
        <time>2016-07-28T12:40:38.000Z</time>
      </trkpt>
      <trkpt lat="47.52725" lon="6.7296">
        <ele>342</ele>
        <time>2016-07-28T12:40:39.000Z</time>
      </trkpt>
      <trkpt lat="47.52723" lon="6.72962">
        <ele>342</ele>
        <time>2016-07-28T12:40:40.000Z</time>
      </trkpt>
      <trkpt lat="47.52721" lon="6.72964">
        <ele>342</ele>
        <time>2016-07-28T12:40:41.000Z</time>
      </trkpt>
      <trkpt lat="47.52718" lon="6.72965">
        <ele>342</ele>
        <time>2016-07-28T12:40:42.000Z</time>
      </trkpt>
      <trkpt lat="47.52716" lon="6.72966">
        <ele>342</ele>
        <time>2016-07-28T12:40:43.000Z</time>
      </trkpt>
      <trkpt lat="47.52712" lon="6.72967">
        <ele>342</ele>
        <time>2016-07-28T12:40:46.000Z</time>
      </trkpt>
      <trkpt lat="47.52711" lon="6.72967">
        <ele>342</ele>
        <time>2016-07-28T12:40:47.000Z</time>
      </trkpt>
      <trkpt lat="47.52707" lon="6.72969">
        <ele>342</ele>
        <time>2016-07-28T12:40:50.000Z</time>
      </trkpt>
      <trkpt lat="47.52705" lon="6.72969">
        <ele>342</ele>
        <time>2016-07-28T12:40:51.000Z</time>
      </trkpt>
      <trkpt lat="47.52703" lon="6.7297">
        <ele>342</ele>
        <time>2016-07-28T12:40:52.000Z</time>
      </trkpt>
      <trkpt lat="47.527" lon="6.72971">
        <ele>342</ele>
        <time>2016-07-28T12:40:53.000Z</time>
      </trkpt>
      <trkpt lat="47.52696" lon="6.72973">
        <ele>342</ele>
        <time>2016-07-28T12:40:55.000Z</time>
      </trkpt>
      <trkpt lat="47.52694" lon="6.72974">
        <ele>342</ele>
        <time>2016-07-28T12:40:56.000Z</time>
      </trkpt>
      <trkpt lat="47.52691" lon="6.72976">
        <ele>342</ele>
        <time>2016-07-28T12:41:00.000Z</time>
      </trkpt>
      <trkpt lat="47.5269" lon="6.72977">
        <ele>342</ele>
        <time>2016-07-28T12:41:01.000Z</time>
      </trkpt>
      <trkpt lat="47.52686" lon="6.72978">
        <ele>342</ele>
        <time>2016-07-28T12:41:03.000Z</time>
      </trkpt>
      <trkpt lat="47.52685" lon="6.7298">
        <ele>342</ele>
        <time>2016-07-28T12:41:04.000Z</time>
      </trkpt>
      <trkpt lat="47.52681" lon="6.72984">
        <ele>342</ele>
        <time>2016-07-28T12:41:11.000Z</time>
      </trkpt>
      <trkpt lat="47.52681" lon="6.72984">
        <ele>342</ele>
        <time>2016-07-28T12:41:12.000Z</time>
      </trkpt>
      <trkpt lat="47.52677" lon="6.72987">
        <ele>342</ele>
        <time>2016-07-28T12:41:14.000Z</time>
      </trkpt>
      <trkpt lat="47.52676" lon="6.72988">
        <ele>342</ele>
        <time>2016-07-28T12:41:15.000Z</time>
      </trkpt>
      <trkpt lat="47.52674" lon="6.72992">
        <ele>342</ele>
        <time>2016-07-28T12:41:17.000Z</time>
      </trkpt>
      <trkpt lat="47.52673" lon="6.72994">
        <ele>342</ele>
        <time>2016-07-28T12:41:18.000Z</time>
      </trkpt>
      <trkpt lat="47.52672" lon="6.73">
        <ele>342</ele>
        <time>2016-07-28T12:41:20.000Z</time>
      </trkpt>
      <trkpt lat="47.52671" lon="6.73002">
        <ele>343</ele>
        <time>2016-07-28T12:41:21.000Z</time>
      </trkpt>
      <trkpt lat="47.5267" lon="6.73006">
        <ele>343</ele>
        <time>2016-07-28T12:41:22.000Z</time>
      </trkpt>
      <trkpt lat="47.52669" lon="6.73009">
        <ele>344</ele>
        <time>2016-07-28T12:41:23.000Z</time>
      </trkpt>
      <trkpt lat="47.52668" lon="6.73012">
        <ele>344</ele>
        <time>2016-07-28T12:41:24.000Z</time>
      </trkpt>
      <trkpt lat="47.52667" lon="6.73016">
        <ele>345</ele>
        <time>2016-07-28T12:41:25.000Z</time>
      </trkpt>
      <trkpt lat="47.52666" lon="6.73019">
        <ele>341</ele>
        <time>2016-07-28T12:41:26.000Z</time>
      </trkpt>
      <trkpt lat="47.52665" lon="6.73023">
        <ele>341</ele>
        <time>2016-07-28T12:41:27.000Z</time>
      </trkpt>
      <trkpt lat="47.52663" lon="6.73026">
        <ele>341</ele>
        <time>2016-07-28T12:41:28.000Z</time>
      </trkpt>
      <trkpt lat="47.52663" lon="6.7303">
        <ele>341</ele>
        <time>2016-07-28T12:41:29.000Z</time>
      </trkpt>
      <trkpt lat="47.52663" lon="6.73034">
        <ele>341</ele>
        <time>2016-07-28T12:41:30.000Z</time>
      </trkpt>
      <trkpt lat="47.52663" lon="6.73038">
        <ele>341</ele>
        <time>2016-07-28T12:41:31.000Z</time>
      </trkpt>
      <trkpt lat="47.52663" lon="6.73043">
        <ele>341</ele>
        <time>2016-07-28T12:41:32.000Z</time>
      </trkpt>
      <trkpt lat="47.52663" lon="6.73047">
        <ele>341</ele>
        <time>2016-07-28T12:41:33.000Z</time>
      </trkpt>
      <trkpt lat="47.52662" lon="6.73051">
        <ele>341</ele>
        <time>2016-07-28T12:41:34.000Z</time>
      </trkpt>
      <trkpt lat="47.5266" lon="6.73056">
        <ele>341</ele>
        <time>2016-07-28T12:41:35.000Z</time>
      </trkpt>
      <trkpt lat="47.52659" lon="6.7306">
        <ele>341</ele>
        <time>2016-07-28T12:41:36.000Z</time>
      </trkpt>
      <trkpt lat="47.52657" lon="6.73064">
        <ele>342</ele>
        <time>2016-07-28T12:41:37.000Z</time>
      </trkpt>
      <trkpt lat="47.52656" lon="6.73068">
        <ele>342</ele>
        <time>2016-07-28T12:41:38.000Z</time>
      </trkpt>
      <trkpt lat="47.52655" lon="6.73072">
        <ele>342</ele>
        <time>2016-07-28T12:41:39.000Z</time>
      </trkpt>
      <trkpt lat="47.52654" lon="6.73076">
        <ele>342</ele>
        <time>2016-07-28T12:41:40.000Z</time>
      </trkpt>
      <trkpt lat="47.52654" lon="6.73079">
        <ele>343</ele>
        <time>2016-07-28T12:41:41.000Z</time>
      </trkpt>
      <trkpt lat="47.52656" lon="6.73085">
        <ele>343</ele>
        <time>2016-07-28T12:41:51.000Z</time>
      </trkpt>
      <trkpt lat="47.52657" lon="6.73086">
        <ele>343</ele>
        <time>2016-07-28T12:41:52.000Z</time>
      </trkpt>
      <trkpt lat="47.5266" lon="6.73086">
        <ele>344</ele>
        <time>2016-07-28T12:41:54.000Z</time>
      </trkpt>
      <trkpt lat="47.52662" lon="6.73086">
        <ele>344</ele>
        <time>2016-07-28T12:41:55.000Z</time>
      </trkpt>
      <trkpt lat="47.52666" lon="6.73086">
        <ele>345</ele>
        <time>2016-07-28T12:41:57.000Z</time>
      </trkpt>
      <trkpt lat="47.52668" lon="6.73085">
        <ele>345</ele>
        <time>2016-07-28T12:41:58.000Z</time>
      </trkpt>
      <trkpt lat="47.52671" lon="6.73085">
        <ele>346</ele>
        <time>2016-07-28T12:41:59.000Z</time>
      </trkpt>
      <trkpt lat="47.52673" lon="6.73085">
        <ele>346</ele>
        <time>2016-07-28T12:42:00.000Z</time>
      </trkpt>
      <trkpt lat="47.52676" lon="6.73085">
        <ele>347</ele>
        <time>2016-07-28T12:42:01.000Z</time>
      </trkpt>
      <trkpt lat="47.52678" lon="6.73085">
        <ele>347</ele>
        <time>2016-07-28T12:42:02.000Z</time>
      </trkpt>
      <trkpt lat="47.52681" lon="6.73084">
        <ele>347</ele>
        <time>2016-07-28T12:42:03.000Z</time>
      </trkpt>
      <trkpt lat="47.52684" lon="6.73084">
        <ele>348</ele>
        <time>2016-07-28T12:42:04.000Z</time>
      </trkpt>
      <trkpt lat="47.52686" lon="6.73084">
        <ele>348</ele>
        <time>2016-07-28T12:42:05.000Z</time>
      </trkpt>
      <trkpt lat="47.52689" lon="6.73084">
        <ele>348</ele>
        <time>2016-07-28T12:42:06.000Z</time>
      </trkpt>
      <trkpt lat="47.52691" lon="6.73084">
        <ele>348</ele>
        <time>2016-07-28T12:42:07.000Z</time>
      </trkpt>
      <trkpt lat="47.52694" lon="6.73084">
        <ele>349</ele>
        <time>2016-07-28T12:42:08.000Z</time>
      </trkpt>
      <trkpt lat="47.52696" lon="6.73084">
        <ele>349</ele>
        <time>2016-07-28T12:42:09.000Z</time>
      </trkpt>
      <trkpt lat="47.52698" lon="6.73085">
        <ele>349</ele>
        <time>2016-07-28T12:42:10.000Z</time>
      </trkpt>
      <trkpt lat="47.52701" lon="6.73085">
        <ele>349</ele>
        <time>2016-07-28T12:42:11.000Z</time>
      </trkpt>
      <trkpt lat="47.52703" lon="6.73086">
        <ele>350</ele>
        <time>2016-07-28T12:42:12.000Z</time>
      </trkpt>
      <trkpt lat="47.52705" lon="6.73086">
        <ele>350</ele>
        <time>2016-07-28T12:42:13.000Z</time>
      </trkpt>
      <trkpt lat="47.52708" lon="6.73086">
        <ele>350</ele>
        <time>2016-07-28T12:42:14.000Z</time>
      </trkpt>
      <trkpt lat="47.5271" lon="6.73086">
        <ele>350</ele>
        <time>2016-07-28T12:42:15.000Z</time>
      </trkpt>
      <trkpt lat="47.52713" lon="6.73086">
        <ele>350</ele>
        <time>2016-07-28T12:42:16.000Z</time>
      </trkpt>
      <trkpt lat="47.52717" lon="6.73087">
        <ele>351</ele>
        <time>2016-07-28T12:42:18.000Z</time>
      </trkpt>
      <trkpt lat="47.52719" lon="6.73087">
        <ele>351</ele>
        <time>2016-07-28T12:42:19.000Z</time>
      </trkpt>
      <trkpt lat="47.52722" lon="6.73089">
        <ele>351</ele>
        <time>2016-07-28T12:42:21.000Z</time>
      </trkpt>
      <trkpt lat="47.52724" lon="6.73089">
        <ele>351</ele>
        <time>2016-07-28T12:42:22.000Z</time>
      </trkpt>
      <trkpt lat="47.52728" lon="6.73087">
        <ele>352</ele>
        <time>2016-07-28T12:42:24.000Z</time>
      </trkpt>
      <trkpt lat="47.5273" lon="6.73087">
        <ele>352</ele>
        <time>2016-07-28T12:42:25.000Z</time>
      </trkpt>
      <trkpt lat="47.52732" lon="6.73086">
        <ele>352</ele>
        <time>2016-07-28T12:42:25.998Z</time>
      </trkpt>
      <trkpt lat="47.52735" lon="6.73086">
        <ele>353</ele>
        <time>2016-07-28T12:42:27.000Z</time>
      </trkpt>
      <trkpt lat="47.52737" lon="6.73087">
        <ele>353</ele>
        <time>2016-07-28T12:42:28.000Z</time>
      </trkpt>
      <trkpt lat="47.5274" lon="6.73087">
        <ele>353</ele>
        <time>2016-07-28T12:42:29.000Z</time>
      </trkpt>
      <trkpt lat="47.52742" lon="6.73087">
        <ele>354</ele>
        <time>2016-07-28T12:42:30.000Z</time>
      </trkpt>
      <trkpt lat="47.52745" lon="6.73087">
        <ele>354</ele>
        <time>2016-07-28T12:42:31.000Z</time>
      </trkpt>
      <trkpt lat="47.52747" lon="6.73087">
        <ele>354</ele>
        <time>2016-07-28T12:42:32.000Z</time>
      </trkpt>
      <trkpt lat="47.52749" lon="6.73087">
        <ele>354</ele>
        <time>2016-07-28T12:42:33.000Z</time>
      </trkpt>
      <trkpt lat="47.52751" lon="6.73088">
        <ele>355</ele>
        <time>2016-07-28T12:42:34.000Z</time>
      </trkpt>
      <trkpt lat="47.52754" lon="6.73088">
        <ele>355</ele>
        <time>2016-07-28T12:42:35.000Z</time>
      </trkpt>
      <trkpt lat="47.52758" lon="6.73088">
        <ele>356</ele>
        <time>2016-07-28T12:42:37.000Z</time>
      </trkpt>
      <trkpt lat="47.5276" lon="6.73088">
        <ele>356</ele>
        <time>2016-07-28T12:42:38.000Z</time>
      </trkpt>
      <trkpt lat="47.52762" lon="6.73087">
        <ele>356</ele>
        <time>2016-07-28T12:42:39.001Z</time>
      </trkpt>
      <trkpt lat="47.52765" lon="6.73087">
        <ele>356</ele>
        <time>2016-07-28T12:42:40.000Z</time>
      </trkpt>
      <trkpt lat="47.52767" lon="6.73087">
        <ele>356</ele>
        <time>2016-07-28T12:42:41.000Z</time>
      </trkpt>
      <trkpt lat="47.5277" lon="6.73087">
        <ele>356</ele>
        <time>2016-07-28T12:42:42.000Z</time>
      </trkpt>
      <trkpt lat="47.52772" lon="6.73087">
        <ele>356</ele>
        <time>2016-07-28T12:42:43.000Z</time>
      </trkpt>
      <trkpt lat="47.52775" lon="6.73086">
        <ele>356</ele>
        <time>2016-07-28T12:42:44.000Z</time>
      </trkpt>
      <trkpt lat="47.52777" lon="6.73085">
        <ele>356</ele>
        <time>2016-07-28T12:42:45.000Z</time>
      </trkpt>
      <trkpt lat="47.52779" lon="6.73085">
        <ele>356</ele>
        <time>2016-07-28T12:42:46.000Z</time>
      </trkpt>
      <trkpt lat="47.52783" lon="6.73084">
        <ele>356</ele>
        <time>2016-07-28T12:42:48.000Z</time>
      </trkpt>
      <trkpt lat="47.52785" lon="6.73084">
        <ele>356</ele>
        <time>2016-07-28T12:42:49.000Z</time>
      </trkpt>
      <trkpt lat="47.52791" lon="6.73087">
        <ele>356</ele>
        <time>2016-07-28T12:42:50.000Z</time>
      </trkpt>
      <trkpt lat="47.52794" lon="6.73089">
        <ele>357</ele>
        <time>2016-07-28T12:42:51.000Z</time>
      </trkpt>
      <trkpt lat="47.52797" lon="6.7309">
        <ele>357</ele>
        <time>2016-07-28T12:42:52.000Z</time>
      </trkpt>
      <trkpt lat="47.528" lon="6.7309">
        <ele>357</ele>
        <time>2016-07-28T12:42:53.000Z</time>
      </trkpt>
      <trkpt lat="47.52803" lon="6.73092">
        <ele>357</ele>
        <time>2016-07-28T12:42:54.000Z</time>
      </trkpt>
      <trkpt lat="47.52806" lon="6.73093">
        <ele>357</ele>
        <time>2016-07-28T12:42:55.000Z</time>
      </trkpt>
      <trkpt lat="47.52808" lon="6.73095">
        <ele>357</ele>
        <time>2016-07-28T12:42:56.000Z</time>
      </trkpt>
      <trkpt lat="47.5281" lon="6.73091">
        <ele>357</ele>
        <time>2016-07-28T12:42:57.000Z</time>
      </trkpt>
      <trkpt lat="47.52812" lon="6.73089">
        <ele>357</ele>
        <time>2016-07-28T12:42:58.000Z</time>
      </trkpt>
      <trkpt lat="47.52814" lon="6.73086">
        <ele>357</ele>
        <time>2016-07-28T12:42:59.000Z</time>
      </trkpt>
      <trkpt lat="47.52817" lon="6.73085">
        <ele>357</ele>
        <time>2016-07-28T12:43:00.001Z</time>
      </trkpt>
      <trkpt lat="47.52821" lon="6.73085">
        <ele>357</ele>
        <time>2016-07-28T12:43:01.000Z</time>
      </trkpt>
      <trkpt lat="47.52824" lon="6.73085">
        <ele>357</ele>
        <time>2016-07-28T12:43:02.000Z</time>
      </trkpt>
      <trkpt lat="47.52828" lon="6.73084">
        <ele>357</ele>
        <time>2016-07-28T12:43:03.000Z</time>
      </trkpt>
      <trkpt lat="47.52831" lon="6.73084">
        <ele>357</ele>
        <time>2016-07-28T12:43:04.000Z</time>
      </trkpt>
      <trkpt lat="47.52834" lon="6.73083">
        <ele>357</ele>
        <time>2016-07-28T12:43:05.000Z</time>
      </trkpt>
      <trkpt lat="47.52837" lon="6.73081">
        <ele>357</ele>
        <time>2016-07-28T12:43:06.000Z</time>
      </trkpt>
      <trkpt lat="47.5284" lon="6.7308">
        <ele>356</ele>
        <time>2016-07-28T12:43:07.000Z</time>
      </trkpt>
      <trkpt lat="47.52844" lon="6.73079">
        <ele>356</ele>
        <time>2016-07-28T12:43:08.000Z</time>
      </trkpt>
      <trkpt lat="47.52847" lon="6.73077">
        <ele>356</ele>
        <time>2016-07-28T12:43:08.999Z</time>
      </trkpt>
      <trkpt lat="47.5285" lon="6.73076">
        <ele>356</ele>
        <time>2016-07-28T12:43:10.000Z</time>
      </trkpt>
      <trkpt lat="47.52854" lon="6.73074">
        <ele>355</ele>
        <time>2016-07-28T12:43:11.000Z</time>
      </trkpt>
      <trkpt lat="47.52857" lon="6.73072">
        <ele>355</ele>
        <time>2016-07-28T12:43:12.000Z</time>
      </trkpt>
      <trkpt lat="47.5286" lon="6.73071">
        <ele>355</ele>
        <time>2016-07-28T12:43:13.001Z</time>
      </trkpt>
      <trkpt lat="47.52863" lon="6.73072">
        <ele>355</ele>
        <time>2016-07-28T12:43:14.000Z</time>
      </trkpt>
      <trkpt lat="47.52867" lon="6.73074">
        <ele>355</ele>
        <time>2016-07-28T12:43:15.000Z</time>
      </trkpt>
      <trkpt lat="47.52869" lon="6.73078">
        <ele>355</ele>
        <time>2016-07-28T12:43:16.000Z</time>
      </trkpt>
      <trkpt lat="47.52872" lon="6.73082">
        <ele>355</ele>
        <time>2016-07-28T12:43:17.000Z</time>
      </trkpt>
      <trkpt lat="47.52874" lon="6.73085">
        <ele>359</ele>
        <time>2016-07-28T12:43:18.001Z</time>
      </trkpt>
      <trkpt lat="47.52875" lon="6.7309">
        <ele>359</ele>
        <time>2016-07-28T12:43:19.000Z</time>
      </trkpt>
      <trkpt lat="47.52876" lon="6.73094">
        <ele>359</ele>
        <time>2016-07-28T12:43:20.000Z</time>
      </trkpt>
      <trkpt lat="47.52875" lon="6.73097">
        <ele>359</ele>
        <time>2016-07-28T12:43:21.000Z</time>
      </trkpt>
      <trkpt lat="47.52876" lon="6.73101">
        <ele>359</ele>
        <time>2016-07-28T12:43:22.000Z</time>
      </trkpt>
      <trkpt lat="47.52877" lon="6.73104">
        <ele>359</ele>
        <time>2016-07-28T12:43:23.000Z</time>
      </trkpt>
      <trkpt lat="47.52878" lon="6.73108">
        <ele>359</ele>
        <time>2016-07-28T12:43:24.000Z</time>
      </trkpt>
      <trkpt lat="47.52879" lon="6.73111">
        <ele>359</ele>
        <time>2016-07-28T12:43:25.000Z</time>
      </trkpt>
      <trkpt lat="47.5288" lon="6.73114">
        <ele>360</ele>
        <time>2016-07-28T12:43:26.000Z</time>
      </trkpt>
      <trkpt lat="47.52881" lon="6.73118">
        <ele>360</ele>
        <time>2016-07-28T12:43:27.001Z</time>
      </trkpt>
      <trkpt lat="47.52881" lon="6.73121">
        <ele>360</ele>
        <time>2016-07-28T12:43:28.000Z</time>
      </trkpt>
      <trkpt lat="47.52881" lon="6.73124">
        <ele>360</ele>
        <time>2016-07-28T12:43:29.000Z</time>
      </trkpt>
      <trkpt lat="47.52882" lon="6.73128">
        <ele>360</ele>
        <time>2016-07-28T12:43:30.000Z</time>
      </trkpt>
      <trkpt lat="47.52883" lon="6.73134">
        <ele>360</ele>
        <time>2016-07-28T12:43:32.000Z</time>
      </trkpt>
      <trkpt lat="47.52884" lon="6.73137">
        <ele>360</ele>
        <time>2016-07-28T12:43:33.000Z</time>
      </trkpt>
      <trkpt lat="47.52885" lon="6.7314">
        <ele>360</ele>
        <time>2016-07-28T12:43:34.000Z</time>
      </trkpt>
      <trkpt lat="47.52886" lon="6.73144">
        <ele>361</ele>
        <time>2016-07-28T12:43:35.000Z</time>
      </trkpt>
      <trkpt lat="47.52887" lon="6.73147">
        <ele>361</ele>
        <time>2016-07-28T12:43:36.000Z</time>
      </trkpt>
      <trkpt lat="47.52888" lon="6.7315">
        <ele>361</ele>
        <time>2016-07-28T12:43:37.000Z</time>
      </trkpt>
      <trkpt lat="47.52889" lon="6.73153">
        <ele>361</ele>
        <time>2016-07-28T12:43:38.000Z</time>
      </trkpt>
      <trkpt lat="47.5289" lon="6.73156">
        <ele>361</ele>
        <time>2016-07-28T12:43:39.000Z</time>
      </trkpt>
      <trkpt lat="47.52891" lon="6.73159">
        <ele>361</ele>
        <time>2016-07-28T12:43:40.000Z</time>
      </trkpt>
      <trkpt lat="47.52892" lon="6.73163">
        <ele>361</ele>
        <time>2016-07-28T12:43:41.000Z</time>
      </trkpt>
      <trkpt lat="47.52893" lon="6.73166">
        <ele>361</ele>
        <time>2016-07-28T12:43:42.000Z</time>
      </trkpt>
      <trkpt lat="47.52894" lon="6.7317">
        <ele>364</ele>
        <time>2016-07-28T12:43:43.000Z</time>
      </trkpt>
      <trkpt lat="47.52895" lon="6.73174">
        <ele>364</ele>
        <time>2016-07-28T12:43:44.000Z</time>
      </trkpt>
      <trkpt lat="47.52896" lon="6.73177">
        <ele>364</ele>
        <time>2016-07-28T12:43:45.000Z</time>
      </trkpt>
      <trkpt lat="47.52897" lon="6.73181">
        <ele>364</ele>
        <time>2016-07-28T12:43:46.000Z</time>
      </trkpt>
      <trkpt lat="47.52898" lon="6.73184">
        <ele>364</ele>
        <time>2016-07-28T12:43:47.000Z</time>
      </trkpt>
      <trkpt lat="47.52899" lon="6.73187">
        <ele>364</ele>
        <time>2016-07-28T12:43:48.000Z</time>
      </trkpt>
      <trkpt lat="47.529" lon="6.73191">
        <ele>364</ele>
        <time>2016-07-28T12:43:49.000Z</time>
      </trkpt>
      <trkpt lat="47.529" lon="6.73194">
        <ele>364</ele>
        <time>2016-07-28T12:43:50.000Z</time>
      </trkpt>
      <trkpt lat="47.52901" lon="6.73198">
        <ele>364</ele>
        <time>2016-07-28T12:43:51.000Z</time>
      </trkpt>
      <trkpt lat="47.52902" lon="6.73202">
        <ele>364</ele>
        <time>2016-07-28T12:43:52.000Z</time>
      </trkpt>
      <trkpt lat="47.52902" lon="6.73205">
        <ele>365</ele>
        <time>2016-07-28T12:43:53.000Z</time>
      </trkpt>
      <trkpt lat="47.52903" lon="6.73208">
        <ele>365</ele>
        <time>2016-07-28T12:43:54.000Z</time>
      </trkpt>
      <trkpt lat="47.52904" lon="6.73212">
        <ele>365</ele>
        <time>2016-07-28T12:43:55.000Z</time>
      </trkpt>
      <trkpt lat="47.52905" lon="6.73215">
        <ele>365</ele>
        <time>2016-07-28T12:43:56.000Z</time>
      </trkpt>
      <trkpt lat="47.52906" lon="6.73219">
        <ele>365</ele>
        <time>2016-07-28T12:43:57.000Z</time>
      </trkpt>
      <trkpt lat="47.52907" lon="6.73223">
        <ele>366</ele>
        <time>2016-07-28T12:43:58.000Z</time>
      </trkpt>
      <trkpt lat="47.52908" lon="6.73227">
        <ele>366</ele>
        <time>2016-07-28T12:43:59.000Z</time>
      </trkpt>
      <trkpt lat="47.52909" lon="6.73231">
        <ele>366</ele>
        <time>2016-07-28T12:44:00.000Z</time>
      </trkpt>
      <trkpt lat="47.5291" lon="6.73234">
        <ele>367</ele>
        <time>2016-07-28T12:44:01.000Z</time>
      </trkpt>
      <trkpt lat="47.52911" lon="6.73238">
        <ele>367</ele>
        <time>2016-07-28T12:44:02.000Z</time>
      </trkpt>
      <trkpt lat="47.52912" lon="6.73242">
        <ele>367</ele>
        <time>2016-07-28T12:44:03.000Z</time>
      </trkpt>
      <trkpt lat="47.52913" lon="6.73246">
        <ele>368</ele>
        <time>2016-07-28T12:44:04.000Z</time>
      </trkpt>
      <trkpt lat="47.52914" lon="6.73249">
        <ele>368</ele>
        <time>2016-07-28T12:44:05.000Z</time>
      </trkpt>
      <trkpt lat="47.52915" lon="6.73253">
        <ele>369</ele>
        <time>2016-07-28T12:44:06.000Z</time>
      </trkpt>
      <trkpt lat="47.52916" lon="6.73257">
        <ele>369</ele>
        <time>2016-07-28T12:44:07.000Z</time>
      </trkpt>
      <trkpt lat="47.52917" lon="6.7326">
        <ele>370</ele>
        <time>2016-07-28T12:44:08.000Z</time>
      </trkpt>
      <trkpt lat="47.52919" lon="6.73263">
        <ele>371</ele>
        <time>2016-07-28T12:44:09.000Z</time>
      </trkpt>
      <trkpt lat="47.5292" lon="6.73267">
        <ele>371</ele>
        <time>2016-07-28T12:44:10.000Z</time>
      </trkpt>
      <trkpt lat="47.52921" lon="6.7327">
        <ele>371</ele>
        <time>2016-07-28T12:44:11.000Z</time>
      </trkpt>
      <trkpt lat="47.52921" lon="6.73274">
        <ele>372</ele>
        <time>2016-07-28T12:44:12.000Z</time>
      </trkpt>
      <trkpt lat="47.52922" lon="6.73278">
        <ele>372</ele>
        <time>2016-07-28T12:44:13.000Z</time>
      </trkpt>
      <trkpt lat="47.52923" lon="6.73281">
        <ele>372</ele>
        <time>2016-07-28T12:44:14.000Z</time>
      </trkpt>
      <trkpt lat="47.52923" lon="6.73285">
        <ele>372</ele>
        <time>2016-07-28T12:44:15.000Z</time>
      </trkpt>
      <trkpt lat="47.52924" lon="6.73288">
        <ele>373</ele>
        <time>2016-07-28T12:44:16.000Z</time>
      </trkpt>
      <trkpt lat="47.52925" lon="6.73291">
        <ele>373</ele>
        <time>2016-07-28T12:44:17.000Z</time>
      </trkpt>
      <trkpt lat="47.52927" lon="6.73294">
        <ele>373</ele>
        <time>2016-07-28T12:44:18.000Z</time>
      </trkpt>
      <trkpt lat="47.52928" lon="6.73298">
        <ele>373</ele>
        <time>2016-07-28T12:44:19.000Z</time>
      </trkpt>
      <trkpt lat="47.52929" lon="6.73301">
        <ele>373</ele>
        <time>2016-07-28T12:44:20.000Z</time>
      </trkpt>
      <trkpt lat="47.5293" lon="6.73304">
        <ele>373</ele>
        <time>2016-07-28T12:44:21.000Z</time>
      </trkpt>
      <trkpt lat="47.52932" lon="6.73307">
        <ele>374</ele>
        <time>2016-07-28T12:44:22.000Z</time>
      </trkpt>
      <trkpt lat="47.52933" lon="6.73311">
        <ele>374</ele>
        <time>2016-07-28T12:44:23.000Z</time>
      </trkpt>
      <trkpt lat="47.52934" lon="6.73314">
        <ele>374</ele>
        <time>2016-07-28T12:44:24.000Z</time>
      </trkpt>
      <trkpt lat="47.52935" lon="6.73317">
        <ele>374</ele>
        <time>2016-07-28T12:44:25.000Z</time>
      </trkpt>
      <trkpt lat="47.52938" lon="6.73322">
        <ele>374</ele>
        <time>2016-07-28T12:44:27.000Z</time>
      </trkpt>
      <trkpt lat="47.52939" lon="6.73324">
        <ele>374</ele>
        <time>2016-07-28T12:44:28.000Z</time>
      </trkpt>
      <trkpt lat="47.52941" lon="6.7333">
        <ele>374</ele>
        <time>2016-07-28T12:44:29.999Z</time>
      </trkpt>
      <trkpt lat="47.52942" lon="6.73333">
        <ele>374</ele>
        <time>2016-07-28T12:44:31.000Z</time>
      </trkpt>
      <trkpt lat="47.52944" lon="6.73336">
        <ele>377</ele>
        <time>2016-07-28T12:44:32.000Z</time>
      </trkpt>
      <trkpt lat="47.52945" lon="6.73339">
        <ele>377</ele>
        <time>2016-07-28T12:44:33.000Z</time>
      </trkpt>
      <trkpt lat="47.52946" lon="6.73342">
        <ele>377</ele>
        <time>2016-07-28T12:44:34.000Z</time>
      </trkpt>
      <trkpt lat="47.52948" lon="6.73346">
        <ele>377</ele>
        <time>2016-07-28T12:44:35.000Z</time>
      </trkpt>
      <trkpt lat="47.52949" lon="6.73349">
        <ele>378</ele>
        <time>2016-07-28T12:44:36.000Z</time>
      </trkpt>
      <trkpt lat="47.52951" lon="6.73353">
        <ele>378</ele>
        <time>2016-07-28T12:44:37.000Z</time>
      </trkpt>
      <trkpt lat="47.52953" lon="6.73356">
        <ele>378</ele>
        <time>2016-07-28T12:44:38.000Z</time>
      </trkpt>
      <trkpt lat="47.52955" lon="6.73359">
        <ele>378</ele>
        <time>2016-07-28T12:44:39.000Z</time>
      </trkpt>
      <trkpt lat="47.52957" lon="6.73362">
        <ele>378</ele>
        <time>2016-07-28T12:44:40.000Z</time>
      </trkpt>
      <trkpt lat="47.52959" lon="6.73365">
        <ele>378</ele>
        <time>2016-07-28T12:44:41.000Z</time>
      </trkpt>
      <trkpt lat="47.52961" lon="6.73367">
        <ele>378</ele>
        <time>2016-07-28T12:44:42.000Z</time>
      </trkpt>
      <trkpt lat="47.52963" lon="6.73371">
        <ele>378</ele>
        <time>2016-07-28T12:44:43.000Z</time>
      </trkpt>
      <trkpt lat="47.52965" lon="6.73374">
        <ele>378</ele>
        <time>2016-07-28T12:44:44.000Z</time>
      </trkpt>
      <trkpt lat="47.52967" lon="6.73377">
        <ele>379</ele>
        <time>2016-07-28T12:44:45.000Z</time>
      </trkpt>
      <trkpt lat="47.52968" lon="6.7338">
        <ele>379</ele>
        <time>2016-07-28T12:44:46.000Z</time>
      </trkpt>
      <trkpt lat="47.52971" lon="6.73382">
        <ele>379</ele>
        <time>2016-07-28T12:44:47.000Z</time>
      </trkpt>
      <trkpt lat="47.52973" lon="6.73384">
        <ele>379</ele>
        <time>2016-07-28T12:44:48.000Z</time>
      </trkpt>
      <trkpt lat="47.52976" lon="6.73385">
        <ele>379</ele>
        <time>2016-07-28T12:44:49.000Z</time>
      </trkpt>
      <trkpt lat="47.52978" lon="6.73386">
        <ele>379</ele>
        <time>2016-07-28T12:44:50.000Z</time>
      </trkpt>
      <trkpt lat="47.52981" lon="6.73385">
        <ele>379</ele>
        <time>2016-07-28T12:44:51.000Z</time>
      </trkpt>
      <trkpt lat="47.52984" lon="6.73383">
        <ele>379</ele>
        <time>2016-07-28T12:44:52.000Z</time>
      </trkpt>
      <trkpt lat="47.52986" lon="6.7338">
        <ele>379</ele>
        <time>2016-07-28T12:44:53.000Z</time>
      </trkpt>
      <trkpt lat="47.52988" lon="6.73376">
        <ele>379</ele>
        <time>2016-07-28T12:44:54.000Z</time>
      </trkpt>
      <trkpt lat="47.5299" lon="6.73372">
        <ele>378</ele>
        <time>2016-07-28T12:44:55.000Z</time>
      </trkpt>
      <trkpt lat="47.52992" lon="6.73367">
        <ele>378</ele>
        <time>2016-07-28T12:44:56.000Z</time>
      </trkpt>
      <trkpt lat="47.52994" lon="6.73363">
        <ele>378</ele>
        <time>2016-07-28T12:44:57.000Z</time>
      </trkpt>
      <trkpt lat="47.52997" lon="6.73359">
        <ele>378</ele>
        <time>2016-07-28T12:44:58.000Z</time>
      </trkpt>
      <trkpt lat="47.52999" lon="6.73355">
        <ele>378</ele>
        <time>2016-07-28T12:44:59.000Z</time>
      </trkpt>
      <trkpt lat="47.53002" lon="6.73351">
        <ele>378</ele>
        <time>2016-07-28T12:45:00.000Z</time>
      </trkpt>
      <trkpt lat="47.53004" lon="6.73347">
        <ele>378</ele>
        <time>2016-07-28T12:45:01.000Z</time>
      </trkpt>
      <trkpt lat="47.53007" lon="6.73343">
        <ele>377</ele>
        <time>2016-07-28T12:45:02.000Z</time>
      </trkpt>
      <trkpt lat="47.5301" lon="6.73338">
        <ele>377</ele>
        <time>2016-07-28T12:45:03.000Z</time>
      </trkpt>
      <trkpt lat="47.53013" lon="6.73334">
        <ele>377</ele>
        <time>2016-07-28T12:45:04.000Z</time>
      </trkpt>
      <trkpt lat="47.53015" lon="6.73329">
        <ele>376</ele>
        <time>2016-07-28T12:45:05.000Z</time>
      </trkpt>
      <trkpt lat="47.53019" lon="6.73323">
        <ele>376</ele>
        <time>2016-07-28T12:45:06.000Z</time>
      </trkpt>
      <trkpt lat="47.53022" lon="6.73318">
        <ele>376</ele>
        <time>2016-07-28T12:45:07.000Z</time>
      </trkpt>
      <trkpt lat="47.53025" lon="6.73313">
        <ele>376</ele>
        <time>2016-07-28T12:45:08.000Z</time>
      </trkpt>
      <trkpt lat="47.53028" lon="6.73308">
        <ele>376</ele>
        <time>2016-07-28T12:45:09.000Z</time>
      </trkpt>
      <trkpt lat="47.53031" lon="6.73302">
        <ele>376</ele>
        <time>2016-07-28T12:45:10.000Z</time>
      </trkpt>
      <trkpt lat="47.53034" lon="6.73296">
        <ele>376</ele>
        <time>2016-07-28T12:45:11.000Z</time>
      </trkpt>
      <trkpt lat="47.53037" lon="6.7329">
        <ele>376</ele>
        <time>2016-07-28T12:45:12.000Z</time>
      </trkpt>
      <trkpt lat="47.53041" lon="6.73285">
        <ele>376</ele>
        <time>2016-07-28T12:45:13.000Z</time>
      </trkpt>
      <trkpt lat="47.53045" lon="6.73279">
        <ele>376</ele>
        <time>2016-07-28T12:45:14.000Z</time>
      </trkpt>
      <trkpt lat="47.53048" lon="6.73273">
        <ele>376</ele>
        <time>2016-07-28T12:45:15.000Z</time>
      </trkpt>
      <trkpt lat="47.53052" lon="6.73268">
        <ele>377</ele>
        <time>2016-07-28T12:45:16.000Z</time>
      </trkpt>
      <trkpt lat="47.53055" lon="6.73262">
        <ele>377</ele>
        <time>2016-07-28T12:45:17.000Z</time>
      </trkpt>
      <trkpt lat="47.53058" lon="6.73257">
        <ele>377</ele>
        <time>2016-07-28T12:45:18.000Z</time>
      </trkpt>
      <trkpt lat="47.53061" lon="6.73252">
        <ele>377</ele>
        <time>2016-07-28T12:45:19.000Z</time>
      </trkpt>
      <trkpt lat="47.53063" lon="6.73246">
        <ele>375</ele>
        <time>2016-07-28T12:45:20.000Z</time>
      </trkpt>
      <trkpt lat="47.53065" lon="6.73242">
        <ele>375</ele>
        <time>2016-07-28T12:45:21.000Z</time>
      </trkpt>
      <trkpt lat="47.53068" lon="6.73236">
        <ele>375</ele>
        <time>2016-07-28T12:45:22.000Z</time>
      </trkpt>
      <trkpt lat="47.5307" lon="6.73232">
        <ele>375</ele>
        <time>2016-07-28T12:45:23.000Z</time>
      </trkpt>
      <trkpt lat="47.53073" lon="6.73228">
        <ele>375</ele>
        <time>2016-07-28T12:45:24.000Z</time>
      </trkpt>
      <trkpt lat="47.53075" lon="6.73223">
        <ele>375</ele>
        <time>2016-07-28T12:45:25.000Z</time>
      </trkpt>
      <trkpt lat="47.53079" lon="6.73219">
        <ele>375</ele>
        <time>2016-07-28T12:45:26.000Z</time>
      </trkpt>
      <trkpt lat="47.53081" lon="6.73215">
        <ele>375</ele>
        <time>2016-07-28T12:45:27.000Z</time>
      </trkpt>
      <trkpt lat="47.53083" lon="6.73209">
        <ele>374</ele>
        <time>2016-07-28T12:45:28.000Z</time>
      </trkpt>
      <trkpt lat="47.53085" lon="6.73204">
        <ele>378</ele>
        <time>2016-07-28T12:45:29.000Z</time>
      </trkpt>
      <trkpt lat="47.53087" lon="6.73199">
        <ele>378</ele>
        <time>2016-07-28T12:45:30.000Z</time>
      </trkpt>
      <trkpt lat="47.5309" lon="6.73194">
        <ele>378</ele>
        <time>2016-07-28T12:45:31.000Z</time>
      </trkpt>
      <trkpt lat="47.53092" lon="6.73189">
        <ele>378</ele>
        <time>2016-07-28T12:45:32.000Z</time>
      </trkpt>
      <trkpt lat="47.53095" lon="6.73185">
        <ele>378</ele>
        <time>2016-07-28T12:45:33.000Z</time>
      </trkpt>
      <trkpt lat="47.53097" lon="6.73179">
        <ele>377</ele>
        <time>2016-07-28T12:45:34.000Z</time>
      </trkpt>
      <trkpt lat="47.531" lon="6.73173">
        <ele>377</ele>
        <time>2016-07-28T12:45:35.000Z</time>
      </trkpt>
      <trkpt lat="47.53103" lon="6.73168">
        <ele>377</ele>
        <time>2016-07-28T12:45:36.000Z</time>
      </trkpt>
      <trkpt lat="47.53106" lon="6.73163">
        <ele>375</ele>
        <time>2016-07-28T12:45:37.000Z</time>
      </trkpt>
      <trkpt lat="47.53108" lon="6.73158">
        <ele>375</ele>
        <time>2016-07-28T12:45:38.000Z</time>
      </trkpt>
      <trkpt lat="47.53111" lon="6.73154">
        <ele>375</ele>
        <time>2016-07-28T12:45:38.999Z</time>
      </trkpt>
      <trkpt lat="47.53114" lon="6.73148">
        <ele>375</ele>
        <time>2016-07-28T12:45:40.000Z</time>
      </trkpt>
      <trkpt lat="47.53117" lon="6.73144">
        <ele>375</ele>
        <time>2016-07-28T12:45:41.000Z</time>
      </trkpt>
      <trkpt lat="47.5312" lon="6.73138">
        <ele>375</ele>
        <time>2016-07-28T12:45:42.000Z</time>
      </trkpt>
      <trkpt lat="47.53123" lon="6.73132">
        <ele>375</ele>
        <time>2016-07-28T12:45:43.000Z</time>
      </trkpt>
      <trkpt lat="47.53126" lon="6.73127">
        <ele>375</ele>
        <time>2016-07-28T12:45:44.000Z</time>
      </trkpt>
      <trkpt lat="47.53129" lon="6.73122">
        <ele>375</ele>
        <time>2016-07-28T12:45:45.000Z</time>
      </trkpt>
      <trkpt lat="47.53131" lon="6.73117">
        <ele>375</ele>
        <time>2016-07-28T12:45:46.001Z</time>
      </trkpt>
      <trkpt lat="47.53136" lon="6.73111">
        <ele>375</ele>
        <time>2016-07-28T12:45:47.000Z</time>
      </trkpt>
      <trkpt lat="47.5314" lon="6.73106">
        <ele>375</ele>
        <time>2016-07-28T12:45:48.000Z</time>
      </trkpt>
      <trkpt lat="47.53143" lon="6.731">
        <ele>375</ele>
        <time>2016-07-28T12:45:49.000Z</time>
      </trkpt>
      <trkpt lat="47.53145" lon="6.73094">
        <ele>374</ele>
        <time>2016-07-28T12:45:50.000Z</time>
      </trkpt>
      <trkpt lat="47.53149" lon="6.73088">
        <ele>374</ele>
        <time>2016-07-28T12:45:51.000Z</time>
      </trkpt>
      <trkpt lat="47.53153" lon="6.73082">
        <ele>372</ele>
        <time>2016-07-28T12:45:52.000Z</time>
      </trkpt>
      <trkpt lat="47.53157" lon="6.73077">
        <ele>372</ele>
        <time>2016-07-28T12:45:53.000Z</time>
      </trkpt>
      <trkpt lat="47.53161" lon="6.73072">
        <ele>372</ele>
        <time>2016-07-28T12:45:54.000Z</time>
      </trkpt>
      <trkpt lat="47.53165" lon="6.73066">
        <ele>371</ele>
        <time>2016-07-28T12:45:55.000Z</time>
      </trkpt>
      <trkpt lat="47.53169" lon="6.7306">
        <ele>371</ele>
        <time>2016-07-28T12:45:56.000Z</time>
      </trkpt>
      <trkpt lat="47.53173" lon="6.73054">
        <ele>370</ele>
        <time>2016-07-28T12:45:57.000Z</time>
      </trkpt>
      <trkpt lat="47.53177" lon="6.73049">
        <ele>370</ele>
        <time>2016-07-28T12:45:58.000Z</time>
      </trkpt>
      <trkpt lat="47.53181" lon="6.73044">
        <ele>369</ele>
        <time>2016-07-28T12:45:58.999Z</time>
      </trkpt>
      <trkpt lat="47.53185" lon="6.73039">
        <ele>369</ele>
        <time>2016-07-28T12:46:00.000Z</time>
      </trkpt>
      <trkpt lat="47.5319" lon="6.73036">
        <ele>369</ele>
        <time>2016-07-28T12:46:01.000Z</time>
      </trkpt>
      <trkpt lat="47.53194" lon="6.73032">
        <ele>369</ele>
        <time>2016-07-28T12:46:01.999Z</time>
      </trkpt>
      <trkpt lat="47.53199" lon="6.73028">
        <ele>368</ele>
        <time>2016-07-28T12:46:03.000Z</time>
      </trkpt>
      <trkpt lat="47.53204" lon="6.73024">
        <ele>368</ele>
        <time>2016-07-28T12:46:04.000Z</time>
      </trkpt>
      <trkpt lat="47.53209" lon="6.7302">
        <ele>368</ele>
        <time>2016-07-28T12:46:05.000Z</time>
      </trkpt>
      <trkpt lat="47.53214" lon="6.73017">
        <ele>368</ele>
        <time>2016-07-28T12:46:06.000Z</time>
      </trkpt>
      <trkpt lat="47.53219" lon="6.73012">
        <ele>368</ele>
        <time>2016-07-28T12:46:07.000Z</time>
      </trkpt>
      <trkpt lat="47.53224" lon="6.73007">
        <ele>367</ele>
        <time>2016-07-28T12:46:08.000Z</time>
      </trkpt>
      <trkpt lat="47.53229" lon="6.73002">
        <ele>367</ele>
        <time>2016-07-28T12:46:09.000Z</time>
      </trkpt>
      <trkpt lat="47.53236" lon="6.72998">
        <ele>364</ele>
        <time>2016-07-28T12:46:10.000Z</time>
      </trkpt>
      <trkpt lat="47.53243" lon="6.72994">
        <ele>364</ele>
        <time>2016-07-28T12:46:11.000Z</time>
      </trkpt>
      <trkpt lat="47.53249" lon="6.72989">
        <ele>364</ele>
        <time>2016-07-28T12:46:12.000Z</time>
      </trkpt>
      <trkpt lat="47.53255" lon="6.72985">
        <ele>363</ele>
        <time>2016-07-28T12:46:13.000Z</time>
      </trkpt>
      <trkpt lat="47.53261" lon="6.72981">
        <ele>363</ele>
        <time>2016-07-28T12:46:14.000Z</time>
      </trkpt>
      <trkpt lat="47.53268" lon="6.72977">
        <ele>363</ele>
        <time>2016-07-28T12:46:15.000Z</time>
      </trkpt>
      <trkpt lat="47.53273" lon="6.72974">
        <ele>362</ele>
        <time>2016-07-28T12:46:16.000Z</time>
      </trkpt>
      <trkpt lat="47.53279" lon="6.72972">
        <ele>362</ele>
        <time>2016-07-28T12:46:17.000Z</time>
      </trkpt>
      <trkpt lat="47.53283" lon="6.72966">
        <ele>362</ele>
        <time>2016-07-28T12:46:18.000Z</time>
      </trkpt>
      <trkpt lat="47.53288" lon="6.72962">
        <ele>362</ele>
        <time>2016-07-28T12:46:19.000Z</time>
      </trkpt>
      <trkpt lat="47.53293" lon="6.72958">
        <ele>362</ele>
        <time>2016-07-28T12:46:20.000Z</time>
      </trkpt>
      <trkpt lat="47.53298" lon="6.72954">
        <ele>362</ele>
        <time>2016-07-28T12:46:21.000Z</time>
      </trkpt>
      <trkpt lat="47.53302" lon="6.7295">
        <ele>361</ele>
        <time>2016-07-28T12:46:22.000Z</time>
      </trkpt>
      <trkpt lat="47.53307" lon="6.72946">
        <ele>361</ele>
        <time>2016-07-28T12:46:23.000Z</time>
      </trkpt>
      <trkpt lat="47.53311" lon="6.72942">
        <ele>361</ele>
        <time>2016-07-28T12:46:24.000Z</time>
      </trkpt>
      <trkpt lat="47.53315" lon="6.72938">
        <ele>361</ele>
        <time>2016-07-28T12:46:25.000Z</time>
      </trkpt>
      <trkpt lat="47.53319" lon="6.72935">
        <ele>361</ele>
        <time>2016-07-28T12:46:26.000Z</time>
      </trkpt>
      <trkpt lat="47.53323" lon="6.72929">
        <ele>360</ele>
        <time>2016-07-28T12:46:27.000Z</time>
      </trkpt>
      <trkpt lat="47.53331" lon="6.72921">
        <ele>359</ele>
        <time>2016-07-28T12:46:29.000Z</time>
      </trkpt>
      <trkpt lat="47.53335" lon="6.72916">
        <ele>359</ele>
        <time>2016-07-28T12:46:30.000Z</time>
      </trkpt>
      <trkpt lat="47.53339" lon="6.72912">
        <ele>359</ele>
        <time>2016-07-28T12:46:31.000Z</time>
      </trkpt>
      <trkpt lat="47.53343" lon="6.72908">
        <ele>358</ele>
        <time>2016-07-28T12:46:32.000Z</time>
      </trkpt>
      <trkpt lat="47.53349" lon="6.72904">
        <ele>358</ele>
        <time>2016-07-28T12:46:33.000Z</time>
      </trkpt>
      <trkpt lat="47.53354" lon="6.729">
        <ele>358</ele>
        <time>2016-07-28T12:46:34.000Z</time>
      </trkpt>
      <trkpt lat="47.53358" lon="6.72896">
        <ele>358</ele>
        <time>2016-07-28T12:46:35.000Z</time>
      </trkpt>
      <trkpt lat="47.53362" lon="6.72892">
        <ele>358</ele>
        <time>2016-07-28T12:46:36.000Z</time>
      </trkpt>
      <trkpt lat="47.53366" lon="6.72885">
        <ele>358</ele>
        <time>2016-07-28T12:46:37.000Z</time>
      </trkpt>
      <trkpt lat="47.5337" lon="6.72879">
        <ele>358</ele>
        <time>2016-07-28T12:46:38.000Z</time>
      </trkpt>
      <trkpt lat="47.53373" lon="6.72874">
        <ele>357</ele>
        <time>2016-07-28T12:46:39.000Z</time>
      </trkpt>
      <trkpt lat="47.53376" lon="6.72867">
        <ele>357</ele>
        <time>2016-07-28T12:46:40.000Z</time>
      </trkpt>
      <trkpt lat="47.53379" lon="6.7286">
        <ele>357</ele>
        <time>2016-07-28T12:46:41.000Z</time>
      </trkpt>
      <trkpt lat="47.53382" lon="6.72853">
        <ele>357</ele>
        <time>2016-07-28T12:46:42.000Z</time>
      </trkpt>
      <trkpt lat="47.53386" lon="6.72842">
        <ele>357</ele>
        <time>2016-07-28T12:46:43.000Z</time>
      </trkpt>
      <trkpt lat="47.53391" lon="6.72832">
        <ele>354</ele>
        <time>2016-07-28T12:46:44.000Z</time>
      </trkpt>
      <trkpt lat="47.53395" lon="6.72823">
        <ele>354</ele>
        <time>2016-07-28T12:46:45.000Z</time>
      </trkpt>
      <trkpt lat="47.53404" lon="6.72814">
        <ele>354</ele>
        <time>2016-07-28T12:46:46.000Z</time>
      </trkpt>
      <trkpt lat="47.53412" lon="6.72804">
        <ele>353</ele>
        <time>2016-07-28T12:46:47.000Z</time>
      </trkpt>
      <trkpt lat="47.53419" lon="6.72797">
        <ele>354</ele>
        <time>2016-07-28T12:46:48.000Z</time>
      </trkpt>
      <trkpt lat="47.53427" lon="6.7279">
        <ele>353</ele>
        <time>2016-07-28T12:46:49.000Z</time>
      </trkpt>
      <trkpt lat="47.53435" lon="6.72781">
        <ele>353</ele>
        <time>2016-07-28T12:46:50.000Z</time>
      </trkpt>
      <trkpt lat="47.53445" lon="6.72768">
        <ele>352</ele>
        <time>2016-07-28T12:46:51.000Z</time>
      </trkpt>
      <trkpt lat="47.53454" lon="6.72759">
        <ele>352</ele>
        <time>2016-07-28T12:46:52.000Z</time>
      </trkpt>
      <trkpt lat="47.53465" lon="6.72753">
        <ele>352</ele>
        <time>2016-07-28T12:46:53.000Z</time>
      </trkpt>
      <trkpt lat="47.53473" lon="6.72749">
        <ele>349</ele>
        <time>2016-07-28T12:46:54.000Z</time>
      </trkpt>
      <trkpt lat="47.53481" lon="6.72743">
        <ele>349</ele>
        <time>2016-07-28T12:46:55.000Z</time>
      </trkpt>
      <trkpt lat="47.5349" lon="6.72737">
        <ele>349</ele>
        <time>2016-07-28T12:46:56.000Z</time>
      </trkpt>
      <trkpt lat="47.53496" lon="6.72731">
        <ele>349</ele>
        <time>2016-07-28T12:46:57.000Z</time>
      </trkpt>
      <trkpt lat="47.53501" lon="6.72727">
        <ele>351</ele>
        <time>2016-07-28T12:46:58.000Z</time>
      </trkpt>
      <trkpt lat="47.53506" lon="6.72722">
        <ele>351</ele>
        <time>2016-07-28T12:46:59.000Z</time>
      </trkpt>
      <trkpt lat="47.53511" lon="6.72717">
        <ele>351</ele>
        <time>2016-07-28T12:47:00.000Z</time>
      </trkpt>
      <trkpt lat="47.53515" lon="6.72712">
        <ele>351</ele>
        <time>2016-07-28T12:47:00.973Z</time>
      </trkpt>
      <trkpt lat="47.53518" lon="6.72709">
        <ele>350</ele>
        <time>2016-07-28T12:47:02.000Z</time>
      </trkpt>
      <trkpt lat="47.53523" lon="6.72705">
        <ele>350</ele>
        <time>2016-07-28T12:47:03.000Z</time>
      </trkpt>
      <trkpt lat="47.53526" lon="6.72701">
        <ele>350</ele>
        <time>2016-07-28T12:47:04.000Z</time>
      </trkpt>
      <trkpt lat="47.5353" lon="6.72698">
        <ele>350</ele>
        <time>2016-07-28T12:47:05.000Z</time>
      </trkpt>
      <trkpt lat="47.53534" lon="6.72694">
        <ele>350</ele>
        <time>2016-07-28T12:47:06.000Z</time>
      </trkpt>
      <trkpt lat="47.53539" lon="6.7269">
        <ele>350</ele>
        <time>2016-07-28T12:47:07.000Z</time>
      </trkpt>
      <trkpt lat="47.53543" lon="6.72687">
        <ele>350</ele>
        <time>2016-07-28T12:47:08.000Z</time>
      </trkpt>
      <trkpt lat="47.53547" lon="6.72686">
        <ele>350</ele>
        <time>2016-07-28T12:47:09.000Z</time>
      </trkpt>
      <trkpt lat="47.53551" lon="6.72685">
        <ele>350</ele>
        <time>2016-07-28T12:47:10.000Z</time>
      </trkpt>
      <trkpt lat="47.53556" lon="6.72687">
        <ele>351</ele>
        <time>2016-07-28T12:47:11.000Z</time>
      </trkpt>
      <trkpt lat="47.53559" lon="6.72689">
        <ele>351</ele>
        <time>2016-07-28T12:47:12.000Z</time>
      </trkpt>
      <trkpt lat="47.53561" lon="6.7269">
        <ele>351</ele>
        <time>2016-07-28T12:47:13.000Z</time>
      </trkpt>
      <trkpt lat="47.53565" lon="6.72692">
        <ele>351</ele>
        <time>2016-07-28T12:47:15.000Z</time>
      </trkpt>
      <trkpt lat="47.53568" lon="6.72693">
        <ele>351</ele>
        <time>2016-07-28T12:47:16.000Z</time>
      </trkpt>
      <trkpt lat="47.53572" lon="6.72696">
        <ele>351</ele>
        <time>2016-07-28T12:47:17.000Z</time>
      </trkpt>
      <trkpt lat="47.53575" lon="6.72696">
        <ele>351</ele>
        <time>2016-07-28T12:47:18.000Z</time>
      </trkpt>
      <trkpt lat="47.53578" lon="6.72697">
        <ele>351</ele>
        <time>2016-07-28T12:47:19.000Z</time>
      </trkpt>
      <trkpt lat="47.53581" lon="6.72697">
        <ele>351</ele>
        <time>2016-07-28T12:47:20.000Z</time>
      </trkpt>
      <trkpt lat="47.53584" lon="6.72698">
        <ele>352</ele>
        <time>2016-07-28T12:47:21.000Z</time>
      </trkpt>
      <trkpt lat="47.53586" lon="6.72698">
        <ele>352</ele>
        <time>2016-07-28T12:47:22.000Z</time>
      </trkpt>
      <trkpt lat="47.53589" lon="6.72699">
        <ele>352</ele>
        <time>2016-07-28T12:47:23.000Z</time>
      </trkpt>
      <trkpt lat="47.53592" lon="6.72698">
        <ele>352</ele>
        <time>2016-07-28T12:47:24.000Z</time>
      </trkpt>
      <trkpt lat="47.53595" lon="6.72698">
        <ele>352</ele>
        <time>2016-07-28T12:47:25.000Z</time>
      </trkpt>
      <trkpt lat="47.53597" lon="6.72696">
        <ele>352</ele>
        <time>2016-07-28T12:47:26.000Z</time>
      </trkpt>
      <trkpt lat="47.536" lon="6.72695">
        <ele>352</ele>
        <time>2016-07-28T12:47:27.000Z</time>
      </trkpt>
      <trkpt lat="47.53603" lon="6.72695">
        <ele>352</ele>
        <time>2016-07-28T12:47:28.000Z</time>
      </trkpt>
      <trkpt lat="47.53606" lon="6.72695">
        <ele>352</ele>
        <time>2016-07-28T12:47:29.000Z</time>
      </trkpt>
      <trkpt lat="47.53609" lon="6.72695">
        <ele>352</ele>
        <time>2016-07-28T12:47:30.000Z</time>
      </trkpt>
      <trkpt lat="47.53613" lon="6.72695">
        <ele>352</ele>
        <time>2016-07-28T12:47:31.000Z</time>
      </trkpt>
      <trkpt lat="47.53618" lon="6.72694">
        <ele>352</ele>
        <time>2016-07-28T12:47:32.000Z</time>
      </trkpt>
      <trkpt lat="47.53622" lon="6.72694">
        <ele>352</ele>
        <time>2016-07-28T12:47:33.000Z</time>
      </trkpt>
      <trkpt lat="47.53626" lon="6.72694">
        <ele>352</ele>
        <time>2016-07-28T12:47:34.000Z</time>
      </trkpt>
      <trkpt lat="47.53631" lon="6.72694">
        <ele>352</ele>
        <time>2016-07-28T12:47:35.000Z</time>
      </trkpt>
      <trkpt lat="47.53635" lon="6.72695">
        <ele>352</ele>
        <time>2016-07-28T12:47:36.000Z</time>
      </trkpt>
      <trkpt lat="47.53639" lon="6.72696">
        <ele>352</ele>
        <time>2016-07-28T12:47:37.000Z</time>
      </trkpt>
      <trkpt lat="47.53643" lon="6.72697">
        <ele>352</ele>
        <time>2016-07-28T12:47:38.000Z</time>
      </trkpt>
      <trkpt lat="47.53647" lon="6.72699">
        <ele>352</ele>
        <time>2016-07-28T12:47:39.000Z</time>
      </trkpt>
      <trkpt lat="47.53651" lon="6.72701">
        <ele>352</ele>
        <time>2016-07-28T12:47:40.000Z</time>
      </trkpt>
      <trkpt lat="47.53655" lon="6.72703">
        <ele>352</ele>
        <time>2016-07-28T12:47:41.000Z</time>
      </trkpt>
      <trkpt lat="47.53658" lon="6.72704">
        <ele>352</ele>
        <time>2016-07-28T12:47:42.000Z</time>
      </trkpt>
      <trkpt lat="47.53663" lon="6.72707">
        <ele>352</ele>
        <time>2016-07-28T12:47:43.000Z</time>
      </trkpt>
      <trkpt lat="47.53667" lon="6.72709">
        <ele>352</ele>
        <time>2016-07-28T12:47:44.000Z</time>
      </trkpt>
      <trkpt lat="47.53671" lon="6.72711">
        <ele>352</ele>
        <time>2016-07-28T12:47:45.000Z</time>
      </trkpt>
      <trkpt lat="47.53675" lon="6.72713">
        <ele>352</ele>
        <time>2016-07-28T12:47:46.000Z</time>
      </trkpt>
      <trkpt lat="47.5368" lon="6.72717">
        <ele>352</ele>
        <time>2016-07-28T12:47:47.000Z</time>
      </trkpt>
      <trkpt lat="47.53685" lon="6.72719">
        <ele>352</ele>
        <time>2016-07-28T12:47:48.000Z</time>
      </trkpt>
      <trkpt lat="47.53691" lon="6.72721">
        <ele>352</ele>
        <time>2016-07-28T12:47:49.000Z</time>
      </trkpt>
      <trkpt lat="47.53697" lon="6.72721">
        <ele>352</ele>
        <time>2016-07-28T12:47:50.000Z</time>
      </trkpt>
      <trkpt lat="47.53703" lon="6.7272">
        <ele>353</ele>
        <time>2016-07-28T12:47:51.000Z</time>
      </trkpt>
      <trkpt lat="47.53708" lon="6.7272">
        <ele>353</ele>
        <time>2016-07-28T12:47:52.000Z</time>
      </trkpt>
      <trkpt lat="47.53714" lon="6.72719">
        <ele>353</ele>
        <time>2016-07-28T12:47:53.000Z</time>
      </trkpt>
      <trkpt lat="47.5372" lon="6.72718">
        <ele>353</ele>
        <time>2016-07-28T12:47:54.000Z</time>
      </trkpt>
      <trkpt lat="47.53726" lon="6.72716">
        <ele>353</ele>
        <time>2016-07-28T12:47:55.000Z</time>
      </trkpt>
      <trkpt lat="47.5373" lon="6.72715">
        <ele>353</ele>
        <time>2016-07-28T12:47:56.000Z</time>
      </trkpt>
      <trkpt lat="47.53734" lon="6.72713">
        <ele>353</ele>
        <time>2016-07-28T12:47:57.000Z</time>
      </trkpt>
      <trkpt lat="47.53738" lon="6.72712">
        <ele>353</ele>
        <time>2016-07-28T12:47:58.000Z</time>
      </trkpt>
      <trkpt lat="47.53741" lon="6.72711">
        <ele>353</ele>
        <time>2016-07-28T12:47:59.000Z</time>
      </trkpt>
      <trkpt lat="47.53743" lon="6.72711">
        <ele>353</ele>
        <time>2016-07-28T12:48:00.000Z</time>
      </trkpt>
      <trkpt lat="47.53747" lon="6.72712">
        <ele>353</ele>
        <time>2016-07-28T12:48:02.000Z</time>
      </trkpt>
      <trkpt lat="47.5375" lon="6.72712">
        <ele>353</ele>
        <time>2016-07-28T12:48:03.000Z</time>
      </trkpt>
      <trkpt lat="47.53751" lon="6.72715">
        <ele>357</ele>
        <time>2016-07-28T12:48:04.000Z</time>
      </trkpt>
      <trkpt lat="47.53754" lon="6.72716">
        <ele>357</ele>
        <time>2016-07-28T12:48:05.000Z</time>
      </trkpt>
      <trkpt lat="47.53757" lon="6.72719">
        <ele>357</ele>
        <time>2016-07-28T12:48:07.000Z</time>
      </trkpt>
      <trkpt lat="47.53759" lon="6.72721">
        <ele>357</ele>
        <time>2016-07-28T12:48:08.000Z</time>
      </trkpt>
      <trkpt lat="47.53761" lon="6.72724">
        <ele>357</ele>
        <time>2016-07-28T12:48:10.000Z</time>
      </trkpt>
      <trkpt lat="47.53762" lon="6.72725">
        <ele>357</ele>
        <time>2016-07-28T12:48:11.000Z</time>
      </trkpt>
      <trkpt lat="47.53765" lon="6.72729">
        <ele>358</ele>
        <time>2016-07-28T12:48:14.000Z</time>
      </trkpt>
      <trkpt lat="47.53766" lon="6.7273">
        <ele>358</ele>
        <time>2016-07-28T12:48:15.000Z</time>
      </trkpt>
      <trkpt lat="47.5377" lon="6.72731">
        <ele>358</ele>
        <time>2016-07-28T12:48:18.000Z</time>
      </trkpt>
      <trkpt lat="47.53772" lon="6.72731">
        <ele>358</ele>
        <time>2016-07-28T12:48:19.000Z</time>
      </trkpt>
      <trkpt lat="47.53775" lon="6.72729">
        <ele>358</ele>
        <time>2016-07-28T12:48:22.000Z</time>
      </trkpt>
      <trkpt lat="47.53777" lon="6.72729">
        <ele>358</ele>
        <time>2016-07-28T12:48:23.000Z</time>
      </trkpt>
      <trkpt lat="47.5378" lon="6.72728">
        <ele>358</ele>
        <time>2016-07-28T12:48:25.000Z</time>
      </trkpt>
      <trkpt lat="47.53781" lon="6.72728">
        <ele>358</ele>
        <time>2016-07-28T12:48:26.000Z</time>
      </trkpt>
      <trkpt lat="47.53784" lon="6.72725">
        <ele>359</ele>
        <time>2016-07-28T12:48:28.000Z</time>
      </trkpt>
      <trkpt lat="47.53785" lon="6.72723">
        <ele>359</ele>
        <time>2016-07-28T12:48:29.000Z</time>
      </trkpt>
      <trkpt lat="47.53788" lon="6.72721">
        <ele>359</ele>
        <time>2016-07-28T12:48:31.000Z</time>
      </trkpt>
      <trkpt lat="47.5379" lon="6.72721">
        <ele>359</ele>
        <time>2016-07-28T12:48:32.000Z</time>
      </trkpt>
      <trkpt lat="47.53794" lon="6.7272">
        <ele>359</ele>
        <time>2016-07-28T12:48:35.000Z</time>
      </trkpt>
      <trkpt lat="47.53795" lon="6.72719">
        <ele>359</ele>
        <time>2016-07-28T12:48:36.000Z</time>
      </trkpt>
      <trkpt lat="47.53799" lon="6.72718">
        <ele>359</ele>
        <time>2016-07-28T12:48:39.000Z</time>
      </trkpt>
      <trkpt lat="47.53801" lon="6.72718">
        <ele>359</ele>
        <time>2016-07-28T12:48:40.000Z</time>
      </trkpt>
      <trkpt lat="47.53804" lon="6.72719">
        <ele>360</ele>
        <time>2016-07-28T12:48:42.000Z</time>
      </trkpt>
      <trkpt lat="47.53806" lon="6.72719">
        <ele>360</ele>
        <time>2016-07-28T12:48:43.000Z</time>
      </trkpt>
      <trkpt lat="47.5381" lon="6.72717">
        <ele>360</ele>
        <time>2016-07-28T12:48:46.000Z</time>
      </trkpt>
      <trkpt lat="47.53812" lon="6.72717">
        <ele>360</ele>
        <time>2016-07-28T12:48:47.000Z</time>
      </trkpt>
      <trkpt lat="47.53816" lon="6.72716">
        <ele>360</ele>
        <time>2016-07-28T12:48:49.000Z</time>
      </trkpt>
      <trkpt lat="47.53818" lon="6.72717">
        <ele>360</ele>
        <time>2016-07-28T12:48:50.000Z</time>
      </trkpt>
      <trkpt lat="47.53822" lon="6.72719">
        <ele>361</ele>
        <time>2016-07-28T12:48:52.000Z</time>
      </trkpt>
      <trkpt lat="47.53824" lon="6.72719">
        <ele>361</ele>
        <time>2016-07-28T12:48:53.000Z</time>
      </trkpt>
      <trkpt lat="47.53827" lon="6.72719">
        <ele>361</ele>
        <time>2016-07-28T12:48:54.000Z</time>
      </trkpt>
      <trkpt lat="47.53829" lon="6.72719">
        <ele>361</ele>
        <time>2016-07-28T12:48:55.000Z</time>
      </trkpt>
      <trkpt lat="47.53832" lon="6.72718">
        <ele>361</ele>
        <time>2016-07-28T12:48:56.000Z</time>
      </trkpt>
      <trkpt lat="47.53834" lon="6.72717">
        <ele>368</ele>
        <time>2016-07-28T12:48:57.000Z</time>
      </trkpt>
      <trkpt lat="47.53836" lon="6.72716">
        <ele>368</ele>
        <time>2016-07-28T12:48:58.000Z</time>
      </trkpt>
      <trkpt lat="47.53839" lon="6.72716">
        <ele>368</ele>
        <time>2016-07-28T12:48:59.000Z</time>
      </trkpt>
      <trkpt lat="47.53841" lon="6.72715">
        <ele>368</ele>
        <time>2016-07-28T12:49:00.000Z</time>
      </trkpt>
      <trkpt lat="47.53844" lon="6.72714">
        <ele>368</ele>
        <time>2016-07-28T12:49:01.000Z</time>
      </trkpt>
      <trkpt lat="47.53846" lon="6.72714">
        <ele>368</ele>
        <time>2016-07-28T12:49:02.000Z</time>
      </trkpt>
      <trkpt lat="47.53848" lon="6.72714">
        <ele>368</ele>
        <time>2016-07-28T12:49:03.000Z</time>
      </trkpt>
      <trkpt lat="47.53851" lon="6.72713">
        <ele>368</ele>
        <time>2016-07-28T12:49:04.000Z</time>
      </trkpt>
      <trkpt lat="47.53853" lon="6.72713">
        <ele>368</ele>
        <time>2016-07-28T12:49:05.000Z</time>
      </trkpt>
      <trkpt lat="47.53855" lon="6.72713">
        <ele>368</ele>
        <time>2016-07-28T12:49:06.000Z</time>
      </trkpt>
      <trkpt lat="47.53857" lon="6.72713">
        <ele>368</ele>
        <time>2016-07-28T12:49:07.000Z</time>
      </trkpt>
      <trkpt lat="47.53862" lon="6.72713">
        <ele>368</ele>
        <time>2016-07-28T12:49:09.000Z</time>
      </trkpt>
      <trkpt lat="47.53864" lon="6.72713">
        <ele>368</ele>
        <time>2016-07-28T12:49:10.000Z</time>
      </trkpt>
      <trkpt lat="47.53868" lon="6.72713">
        <ele>369</ele>
        <time>2016-07-28T12:49:12.000Z</time>
      </trkpt>
      <trkpt lat="47.5387" lon="6.72712">
        <ele>369</ele>
        <time>2016-07-28T12:49:13.000Z</time>
      </trkpt>
      <trkpt lat="47.53874" lon="6.7271">
        <ele>369</ele>
        <time>2016-07-28T12:49:15.000Z</time>
      </trkpt>
      <trkpt lat="47.53876" lon="6.72709">
        <ele>369</ele>
        <time>2016-07-28T12:49:16.000Z</time>
      </trkpt>
      <trkpt lat="47.53879" lon="6.72708">
        <ele>369</ele>
        <time>2016-07-28T12:49:18.000Z</time>
      </trkpt>
      <trkpt lat="47.53881" lon="6.72707">
        <ele>369</ele>
        <time>2016-07-28T12:49:19.000Z</time>
      </trkpt>
      <trkpt lat="47.53885" lon="6.72708">
        <ele>369</ele>
        <time>2016-07-28T12:49:21.000Z</time>
      </trkpt>
      <trkpt lat="47.53887" lon="6.72709">
        <ele>370</ele>
        <time>2016-07-28T12:49:22.000Z</time>
      </trkpt>
      <trkpt lat="47.53889" lon="6.72711">
        <ele>370</ele>
        <time>2016-07-28T12:49:23.000Z</time>
      </trkpt>
      <trkpt lat="47.53891" lon="6.72712">
        <ele>370</ele>
        <time>2016-07-28T12:49:24.000Z</time>
      </trkpt>
      <trkpt lat="47.53895" lon="6.72713">
        <ele>370</ele>
        <time>2016-07-28T12:49:26.000Z</time>
      </trkpt>
      <trkpt lat="47.53897" lon="6.72714">
        <ele>371</ele>
        <time>2016-07-28T12:49:27.000Z</time>
      </trkpt>
      <trkpt lat="47.53901" lon="6.72716">
        <ele>371</ele>
        <time>2016-07-28T12:49:29.000Z</time>
      </trkpt>
      <trkpt lat="47.53903" lon="6.72717">
        <ele>371</ele>
        <time>2016-07-28T12:49:30.000Z</time>
      </trkpt>
      <trkpt lat="47.53907" lon="6.72719">
        <ele>372</ele>
        <time>2016-07-28T12:49:32.000Z</time>
      </trkpt>
      <trkpt lat="47.53908" lon="6.7272">
        <ele>372</ele>
        <time>2016-07-28T12:49:33.000Z</time>
      </trkpt>
      <trkpt lat="47.53913" lon="6.72722">
        <ele>372</ele>
        <time>2016-07-28T12:49:36.000Z</time>
      </trkpt>
      <trkpt lat="47.53914" lon="6.72722">
        <ele>372</ele>
        <time>2016-07-28T12:49:37.000Z</time>
      </trkpt>
      <trkpt lat="47.53917" lon="6.72724">
        <ele>376</ele>
        <time>2016-07-28T12:49:39.000Z</time>
      </trkpt>
      <trkpt lat="47.53919" lon="6.72725">
        <ele>376</ele>
        <time>2016-07-28T12:49:40.000Z</time>
      </trkpt>
      <trkpt lat="47.53921" lon="6.72725">
        <ele>376</ele>
        <time>2016-07-28T12:49:41.000Z</time>
      </trkpt>
      <trkpt lat="47.53923" lon="6.72726">
        <ele>376</ele>
        <time>2016-07-28T12:49:42.000Z</time>
      </trkpt>
      <trkpt lat="47.53927" lon="6.72728">
        <ele>376</ele>
        <time>2016-07-28T12:49:44.000Z</time>
      </trkpt>
      <trkpt lat="47.5393" lon="6.72728">
        <ele>376</ele>
        <time>2016-07-28T12:49:45.000Z</time>
      </trkpt>
      <trkpt lat="47.53933" lon="6.72728">
        <ele>376</ele>
        <time>2016-07-28T12:49:47.000Z</time>
      </trkpt>
      <trkpt lat="47.53936" lon="6.72727">
        <ele>376</ele>
        <time>2016-07-28T12:49:48.000Z</time>
      </trkpt>
      <trkpt lat="47.53938" lon="6.72727">
        <ele>376</ele>
        <time>2016-07-28T12:49:49.000Z</time>
      </trkpt>
      <trkpt lat="47.53941" lon="6.72726">
        <ele>376</ele>
        <time>2016-07-28T12:49:50.000Z</time>
      </trkpt>
      <trkpt lat="47.53945" lon="6.72727">
        <ele>376</ele>
        <time>2016-07-28T12:49:52.000Z</time>
      </trkpt>
      <trkpt lat="47.53947" lon="6.72728">
        <ele>376</ele>
        <time>2016-07-28T12:49:53.000Z</time>
      </trkpt>
      <trkpt lat="47.53949" lon="6.72729">
        <ele>376</ele>
        <time>2016-07-28T12:49:54.000Z</time>
      </trkpt>
      <trkpt lat="47.53951" lon="6.7273">
        <ele>376</ele>
        <time>2016-07-28T12:49:55.000Z</time>
      </trkpt>
      <trkpt lat="47.53955" lon="6.72731">
        <ele>376</ele>
        <time>2016-07-28T12:49:57.000Z</time>
      </trkpt>
      <trkpt lat="47.53957" lon="6.72731">
        <ele>376</ele>
        <time>2016-07-28T12:49:58.000Z</time>
      </trkpt>
      <trkpt lat="47.53962" lon="6.72733">
        <ele>376</ele>
        <time>2016-07-28T12:50:00.000Z</time>
      </trkpt>
      <trkpt lat="47.53964" lon="6.72734">
        <ele>376</ele>
        <time>2016-07-28T12:50:01.000Z</time>
      </trkpt>
      <trkpt lat="47.53967" lon="6.72736">
        <ele>376</ele>
        <time>2016-07-28T12:50:03.000Z</time>
      </trkpt>
      <trkpt lat="47.53969" lon="6.72737">
        <ele>376</ele>
        <time>2016-07-28T12:50:04.000Z</time>
      </trkpt>
      <trkpt lat="47.53972" lon="6.72739">
        <ele>376</ele>
        <time>2016-07-28T12:50:05.000Z</time>
      </trkpt>
      <trkpt lat="47.53975" lon="6.72742">
        <ele>377</ele>
        <time>2016-07-28T12:50:06.000Z</time>
      </trkpt>
      <trkpt lat="47.53978" lon="6.72746">
        <ele>377</ele>
        <time>2016-07-28T12:50:07.000Z</time>
      </trkpt>
      <trkpt lat="47.53981" lon="6.72751">
        <ele>380</ele>
        <time>2016-07-28T12:50:08.000Z</time>
      </trkpt>
      <trkpt lat="47.53983" lon="6.72756">
        <ele>380</ele>
        <time>2016-07-28T12:50:09.000Z</time>
      </trkpt>
      <trkpt lat="47.53985" lon="6.7276">
        <ele>380</ele>
        <time>2016-07-28T12:50:10.000Z</time>
      </trkpt>
      <trkpt lat="47.53987" lon="6.72764">
        <ele>380</ele>
        <time>2016-07-28T12:50:11.000Z</time>
      </trkpt>
      <trkpt lat="47.53989" lon="6.72769">
        <ele>380</ele>
        <time>2016-07-28T12:50:12.000Z</time>
      </trkpt>
      <trkpt lat="47.5399" lon="6.72773">
        <ele>380</ele>
        <time>2016-07-28T12:50:13.000Z</time>
      </trkpt>
      <trkpt lat="47.53992" lon="6.72778">
        <ele>380</ele>
        <time>2016-07-28T12:50:14.000Z</time>
      </trkpt>
      <trkpt lat="47.53994" lon="6.72783">
        <ele>380</ele>
        <time>2016-07-28T12:50:15.000Z</time>
      </trkpt>
      <trkpt lat="47.53996" lon="6.7279">
        <ele>380</ele>
        <time>2016-07-28T12:50:16.000Z</time>
      </trkpt>
      <trkpt lat="47.53998" lon="6.72797">
        <ele>381</ele>
        <time>2016-07-28T12:50:17.000Z</time>
      </trkpt>
      <trkpt lat="47.54001" lon="6.72803">
        <ele>382</ele>
        <time>2016-07-28T12:50:18.000Z</time>
      </trkpt>
      <trkpt lat="47.54003" lon="6.7281">
        <ele>382</ele>
        <time>2016-07-28T12:50:19.000Z</time>
      </trkpt>
      <trkpt lat="47.54005" lon="6.72816">
        <ele>382</ele>
        <time>2016-07-28T12:50:20.000Z</time>
      </trkpt>
      <trkpt lat="47.54008" lon="6.72822">
        <ele>382</ele>
        <time>2016-07-28T12:50:21.000Z</time>
      </trkpt>
      <trkpt lat="47.54011" lon="6.72829">
        <ele>382</ele>
        <time>2016-07-28T12:50:22.000Z</time>
      </trkpt>
      <trkpt lat="47.54014" lon="6.72837">
        <ele>384</ele>
        <time>2016-07-28T12:50:23.000Z</time>
      </trkpt>
      <trkpt lat="47.54017" lon="6.72844">
        <ele>384</ele>
        <time>2016-07-28T12:50:24.000Z</time>
      </trkpt>
      <trkpt lat="47.5402" lon="6.72851">
        <ele>385</ele>
        <time>2016-07-28T12:50:25.000Z</time>
      </trkpt>
      <trkpt lat="47.54024" lon="6.72857">
        <ele>385</ele>
        <time>2016-07-28T12:50:26.000Z</time>
      </trkpt>
      <trkpt lat="47.54028" lon="6.72863">
        <ele>385</ele>
        <time>2016-07-28T12:50:27.000Z</time>
      </trkpt>
      <trkpt lat="47.54031" lon="6.72868">
        <ele>385</ele>
        <time>2016-07-28T12:50:28.000Z</time>
      </trkpt>
      <trkpt lat="47.54035" lon="6.72873">
        <ele>385</ele>
        <time>2016-07-28T12:50:29.000Z</time>
      </trkpt>
      <trkpt lat="47.54038" lon="6.72878">
        <ele>385</ele>
        <time>2016-07-28T12:50:30.000Z</time>
      </trkpt>
      <trkpt lat="47.54041" lon="6.72882">
        <ele>385</ele>
        <time>2016-07-28T12:50:31.000Z</time>
      </trkpt>
      <trkpt lat="47.54044" lon="6.72885">
        <ele>386</ele>
        <time>2016-07-28T12:50:32.000Z</time>
      </trkpt>
      <trkpt lat="47.54046" lon="6.72889">
        <ele>386</ele>
        <time>2016-07-28T12:50:33.000Z</time>
      </trkpt>
      <trkpt lat="47.54048" lon="6.72893">
        <ele>386</ele>
        <time>2016-07-28T12:50:34.000Z</time>
      </trkpt>
      <trkpt lat="47.5405" lon="6.72897">
        <ele>386</ele>
        <time>2016-07-28T12:50:35.000Z</time>
      </trkpt>
      <trkpt lat="47.54052" lon="6.72901">
        <ele>386</ele>
        <time>2016-07-28T12:50:36.000Z</time>
      </trkpt>
      <trkpt lat="47.54054" lon="6.72905">
        <ele>386</ele>
        <time>2016-07-28T12:50:37.000Z</time>
      </trkpt>
      <trkpt lat="47.54056" lon="6.72908">
        <ele>386</ele>
        <time>2016-07-28T12:50:38.000Z</time>
      </trkpt>
      <trkpt lat="47.54059" lon="6.72912">
        <ele>387</ele>
        <time>2016-07-28T12:50:39.000Z</time>
      </trkpt>
      <trkpt lat="47.54061" lon="6.72914">
        <ele>387</ele>
        <time>2016-07-28T12:50:40.000Z</time>
      </trkpt>
      <trkpt lat="47.54064" lon="6.72917">
        <ele>387</ele>
        <time>2016-07-28T12:50:41.000Z</time>
      </trkpt>
      <trkpt lat="47.54067" lon="6.72919">
        <ele>387</ele>
        <time>2016-07-28T12:50:42.000Z</time>
      </trkpt>
      <trkpt lat="47.54069" lon="6.72922">
        <ele>387</ele>
        <time>2016-07-28T12:50:43.000Z</time>
      </trkpt>
      <trkpt lat="47.54071" lon="6.72925">
        <ele>387</ele>
        <time>2016-07-28T12:50:44.000Z</time>
      </trkpt>
      <trkpt lat="47.54074" lon="6.72929">
        <ele>387</ele>
        <time>2016-07-28T12:50:45.000Z</time>
      </trkpt>
      <trkpt lat="47.54076" lon="6.72932">
        <ele>387</ele>
        <time>2016-07-28T12:50:46.000Z</time>
      </trkpt>
      <trkpt lat="47.54078" lon="6.72934">
        <ele>387</ele>
        <time>2016-07-28T12:50:47.000Z</time>
      </trkpt>
      <trkpt lat="47.5408" lon="6.72937">
        <ele>387</ele>
        <time>2016-07-28T12:50:48.000Z</time>
      </trkpt>
      <trkpt lat="47.54083" lon="6.72939">
        <ele>387</ele>
        <time>2016-07-28T12:50:49.000Z</time>
      </trkpt>
      <trkpt lat="47.54085" lon="6.72942">
        <ele>390</ele>
        <time>2016-07-28T12:50:50.000Z</time>
      </trkpt>
      <trkpt lat="47.54088" lon="6.72946">
        <ele>390</ele>
        <time>2016-07-28T12:50:51.000Z</time>
      </trkpt>
      <trkpt lat="47.5409" lon="6.72951">
        <ele>390</ele>
        <time>2016-07-28T12:50:52.000Z</time>
      </trkpt>
      <trkpt lat="47.54094" lon="6.72955">
        <ele>390</ele>
        <time>2016-07-28T12:50:53.000Z</time>
      </trkpt>
      <trkpt lat="47.54096" lon="6.72958">
        <ele>390</ele>
        <time>2016-07-28T12:50:54.000Z</time>
      </trkpt>
      <trkpt lat="47.54099" lon="6.72961">
        <ele>390</ele>
        <time>2016-07-28T12:50:55.000Z</time>
      </trkpt>
      <trkpt lat="47.54101" lon="6.72963">
        <ele>390</ele>
        <time>2016-07-28T12:50:56.000Z</time>
      </trkpt>
      <trkpt lat="47.54104" lon="6.72965">
        <ele>390</ele>
        <time>2016-07-28T12:50:57.000Z</time>
      </trkpt>
      <trkpt lat="47.54107" lon="6.72966">
        <ele>390</ele>
        <time>2016-07-28T12:50:58.000Z</time>
      </trkpt>
      <trkpt lat="47.5411" lon="6.72967">
        <ele>391</ele>
        <time>2016-07-28T12:50:59.000Z</time>
      </trkpt>
      <trkpt lat="47.54113" lon="6.72967">
        <ele>391</ele>
        <time>2016-07-28T12:51:00.000Z</time>
      </trkpt>
      <trkpt lat="47.54116" lon="6.72968">
        <ele>391</ele>
        <time>2016-07-28T12:51:01.000Z</time>
      </trkpt>
      <trkpt lat="47.54119" lon="6.72968">
        <ele>391</ele>
        <time>2016-07-28T12:51:02.000Z</time>
      </trkpt>
      <trkpt lat="47.54122" lon="6.72969">
        <ele>391</ele>
        <time>2016-07-28T12:51:03.000Z</time>
      </trkpt>
      <trkpt lat="47.54125" lon="6.7297">
        <ele>391</ele>
        <time>2016-07-28T12:51:04.000Z</time>
      </trkpt>
      <trkpt lat="47.54127" lon="6.72972">
        <ele>391</ele>
        <time>2016-07-28T12:51:05.000Z</time>
      </trkpt>
      <trkpt lat="47.5413" lon="6.72974">
        <ele>391</ele>
        <time>2016-07-28T12:51:06.000Z</time>
      </trkpt>
      <trkpt lat="47.54133" lon="6.72977">
        <ele>391</ele>
        <time>2016-07-28T12:51:07.000Z</time>
      </trkpt>
      <trkpt lat="47.54136" lon="6.72979">
        <ele>392</ele>
        <time>2016-07-28T12:51:08.000Z</time>
      </trkpt>
      <trkpt lat="47.54139" lon="6.72981">
        <ele>392</ele>
        <time>2016-07-28T12:51:09.000Z</time>
      </trkpt>
      <trkpt lat="47.54142" lon="6.72983">
        <ele>392</ele>
        <time>2016-07-28T12:51:10.000Z</time>
      </trkpt>
      <trkpt lat="47.54145" lon="6.72985">
        <ele>392</ele>
        <time>2016-07-28T12:51:11.000Z</time>
      </trkpt>
      <trkpt lat="47.54148" lon="6.72987">
        <ele>392</ele>
        <time>2016-07-28T12:51:12.000Z</time>
      </trkpt>
      <trkpt lat="47.5415" lon="6.7299">
        <ele>393</ele>
        <time>2016-07-28T12:51:13.000Z</time>
      </trkpt>
      <trkpt lat="47.54153" lon="6.72993">
        <ele>393</ele>
        <time>2016-07-28T12:51:14.000Z</time>
      </trkpt>
      <trkpt lat="47.54155" lon="6.72996">
        <ele>393</ele>
        <time>2016-07-28T12:51:15.000Z</time>
      </trkpt>
      <trkpt lat="47.54158" lon="6.72999">
        <ele>394</ele>
        <time>2016-07-28T12:51:16.000Z</time>
      </trkpt>
      <trkpt lat="47.54161" lon="6.73001">
        <ele>394</ele>
        <time>2016-07-28T12:51:17.000Z</time>
      </trkpt>
      <trkpt lat="47.54164" lon="6.73003">
        <ele>394</ele>
        <time>2016-07-28T12:51:18.000Z</time>
      </trkpt>
      <trkpt lat="47.54167" lon="6.73004">
        <ele>395</ele>
        <time>2016-07-28T12:51:19.000Z</time>
      </trkpt>
      <trkpt lat="47.5417" lon="6.73005">
        <ele>395</ele>
        <time>2016-07-28T12:51:20.000Z</time>
      </trkpt>
      <trkpt lat="47.54174" lon="6.73006">
        <ele>395</ele>
        <time>2016-07-28T12:51:21.000Z</time>
      </trkpt>
      <trkpt lat="47.54177" lon="6.73007">
        <ele>396</ele>
        <time>2016-07-28T12:51:22.000Z</time>
      </trkpt>
      <trkpt lat="47.5418" lon="6.73007">
        <ele>396</ele>
        <time>2016-07-28T12:51:23.000Z</time>
      </trkpt>
      <trkpt lat="47.54184" lon="6.73008">
        <ele>396</ele>
        <time>2016-07-28T12:51:24.000Z</time>
      </trkpt>
      <trkpt lat="47.54187" lon="6.73009">
        <ele>396</ele>
        <time>2016-07-28T12:51:25.000Z</time>
      </trkpt>
      <trkpt lat="47.5419" lon="6.73011">
        <ele>396</ele>
        <time>2016-07-28T12:51:26.000Z</time>
      </trkpt>
      <trkpt lat="47.54193" lon="6.73012">
        <ele>396</ele>
        <time>2016-07-28T12:51:27.000Z</time>
      </trkpt>
      <trkpt lat="47.54197" lon="6.73013">
        <ele>396</ele>
        <time>2016-07-28T12:51:28.000Z</time>
      </trkpt>
      <trkpt lat="47.542" lon="6.73014">
        <ele>396</ele>
        <time>2016-07-28T12:51:29.000Z</time>
      </trkpt>
      <trkpt lat="47.54203" lon="6.73015">
        <ele>396</ele>
        <time>2016-07-28T12:51:30.000Z</time>
      </trkpt>
      <trkpt lat="47.54206" lon="6.73016">
        <ele>396</ele>
        <time>2016-07-28T12:51:31.000Z</time>
      </trkpt>
      <trkpt lat="47.54209" lon="6.73017">
        <ele>396</ele>
        <time>2016-07-28T12:51:32.000Z</time>
      </trkpt>
      <trkpt lat="47.54212" lon="6.73018">
        <ele>396</ele>
        <time>2016-07-28T12:51:33.000Z</time>
      </trkpt>
      <trkpt lat="47.54216" lon="6.73019">
        <ele>396</ele>
        <time>2016-07-28T12:51:34.000Z</time>
      </trkpt>
      <trkpt lat="47.54219" lon="6.7302">
        <ele>396</ele>
        <time>2016-07-28T12:51:35.000Z</time>
      </trkpt>
      <trkpt lat="47.54222" lon="6.73021">
        <ele>396</ele>
        <time>2016-07-28T12:51:36.000Z</time>
      </trkpt>
      <trkpt lat="47.54224" lon="6.73022">
        <ele>396</ele>
        <time>2016-07-28T12:51:37.000Z</time>
      </trkpt>
      <trkpt lat="47.54227" lon="6.73022">
        <ele>396</ele>
        <time>2016-07-28T12:51:38.000Z</time>
      </trkpt>
      <trkpt lat="47.5423" lon="6.73023">
        <ele>396</ele>
        <time>2016-07-28T12:51:39.000Z</time>
      </trkpt>
      <trkpt lat="47.54234" lon="6.73023">
        <ele>396</ele>
        <time>2016-07-28T12:51:40.000Z</time>
      </trkpt>
      <trkpt lat="47.54237" lon="6.73024">
        <ele>396</ele>
        <time>2016-07-28T12:51:41.000Z</time>
      </trkpt>
      <trkpt lat="47.5424" lon="6.73025">
        <ele>396</ele>
        <time>2016-07-28T12:51:42.000Z</time>
      </trkpt>
      <trkpt lat="47.54243" lon="6.73025">
        <ele>396</ele>
        <time>2016-07-28T12:51:43.000Z</time>
      </trkpt>
      <trkpt lat="47.54246" lon="6.73026">
        <ele>396</ele>
        <time>2016-07-28T12:51:44.000Z</time>
      </trkpt>
      <trkpt lat="47.54249" lon="6.73027">
        <ele>396</ele>
        <time>2016-07-28T12:51:45.000Z</time>
      </trkpt>
      <trkpt lat="47.54251" lon="6.73028">
        <ele>398</ele>
        <time>2016-07-28T12:51:46.000Z</time>
      </trkpt>
      <trkpt lat="47.54254" lon="6.73028">
        <ele>399</ele>
        <time>2016-07-28T12:51:47.000Z</time>
      </trkpt>
      <trkpt lat="47.54257" lon="6.73029">
        <ele>399</ele>
        <time>2016-07-28T12:51:48.000Z</time>
      </trkpt>
      <trkpt lat="47.5426" lon="6.73029">
        <ele>399</ele>
        <time>2016-07-28T12:51:49.000Z</time>
      </trkpt>
      <trkpt lat="47.54262" lon="6.7303">
        <ele>399</ele>
        <time>2016-07-28T12:51:50.000Z</time>
      </trkpt>
      <trkpt lat="47.54265" lon="6.73031">
        <ele>399</ele>
        <time>2016-07-28T12:51:51.000Z</time>
      </trkpt>
      <trkpt lat="47.54268" lon="6.73032">
        <ele>399</ele>
        <time>2016-07-28T12:51:52.000Z</time>
      </trkpt>
      <trkpt lat="47.54271" lon="6.73034">
        <ele>399</ele>
        <time>2016-07-28T12:51:53.000Z</time>
      </trkpt>
      <trkpt lat="47.54274" lon="6.73035">
        <ele>399</ele>
        <time>2016-07-28T12:51:54.000Z</time>
      </trkpt>
      <trkpt lat="47.54277" lon="6.73037">
        <ele>400</ele>
        <time>2016-07-28T12:51:55.000Z</time>
      </trkpt>
      <trkpt lat="47.5428" lon="6.73038">
        <ele>400</ele>
        <time>2016-07-28T12:51:56.000Z</time>
      </trkpt>
      <trkpt lat="47.54283" lon="6.73039">
        <ele>400</ele>
        <time>2016-07-28T12:51:57.000Z</time>
      </trkpt>
      <trkpt lat="47.54286" lon="6.73041">
        <ele>400</ele>
        <time>2016-07-28T12:51:58.000Z</time>
      </trkpt>
      <trkpt lat="47.54289" lon="6.73042">
        <ele>400</ele>
        <time>2016-07-28T12:51:59.000Z</time>
      </trkpt>
      <trkpt lat="47.54291" lon="6.73043">
        <ele>400</ele>
        <time>2016-07-28T12:52:00.000Z</time>
      </trkpt>
      <trkpt lat="47.54294" lon="6.73044">
        <ele>400</ele>
        <time>2016-07-28T12:52:01.000Z</time>
      </trkpt>
      <trkpt lat="47.54297" lon="6.73046">
        <ele>401</ele>
        <time>2016-07-28T12:52:02.000Z</time>
      </trkpt>
      <trkpt lat="47.543" lon="6.73047">
        <ele>401</ele>
        <time>2016-07-28T12:52:03.000Z</time>
      </trkpt>
      <trkpt lat="47.54302" lon="6.73048">
        <ele>401</ele>
        <time>2016-07-28T12:52:04.000Z</time>
      </trkpt>
      <trkpt lat="47.54304" lon="6.73049">
        <ele>401</ele>
        <time>2016-07-28T12:52:05.000Z</time>
      </trkpt>
      <trkpt lat="47.54308" lon="6.7305">
        <ele>401</ele>
        <time>2016-07-28T12:52:07.000Z</time>
      </trkpt>
      <trkpt lat="47.54311" lon="6.73051">
        <ele>401</ele>
        <time>2016-07-28T12:52:08.000Z</time>
      </trkpt>
      <trkpt lat="47.54315" lon="6.73052">
        <ele>401</ele>
        <time>2016-07-28T12:52:10.000Z</time>
      </trkpt>
      <trkpt lat="47.54317" lon="6.73053">
        <ele>401</ele>
        <time>2016-07-28T12:52:11.000Z</time>
      </trkpt>
      <trkpt lat="47.54319" lon="6.73054">
        <ele>401</ele>
        <time>2016-07-28T12:52:12.000Z</time>
      </trkpt>
      <trkpt lat="47.54322" lon="6.73055">
        <ele>401</ele>
        <time>2016-07-28T12:52:13.000Z</time>
      </trkpt>
      <trkpt lat="47.54324" lon="6.73056">
        <ele>402</ele>
        <time>2016-07-28T12:52:14.000Z</time>
      </trkpt>
      <trkpt lat="47.54327" lon="6.73056">
        <ele>402</ele>
        <time>2016-07-28T12:52:15.000Z</time>
      </trkpt>
      <trkpt lat="47.54329" lon="6.73057">
        <ele>402</ele>
        <time>2016-07-28T12:52:16.000Z</time>
      </trkpt>
      <trkpt lat="47.54332" lon="6.73058">
        <ele>402</ele>
        <time>2016-07-28T12:52:17.000Z</time>
      </trkpt>
      <trkpt lat="47.54334" lon="6.73059">
        <ele>405</ele>
        <time>2016-07-28T12:52:18.000Z</time>
      </trkpt>
      <trkpt lat="47.54336" lon="6.7306">
        <ele>405</ele>
        <time>2016-07-28T12:52:19.000Z</time>
      </trkpt>
      <trkpt lat="47.54339" lon="6.73061">
        <ele>405</ele>
        <time>2016-07-28T12:52:20.000Z</time>
      </trkpt>
      <trkpt lat="47.54341" lon="6.73062">
        <ele>405</ele>
        <time>2016-07-28T12:52:21.000Z</time>
      </trkpt>
      <trkpt lat="47.54343" lon="6.73063">
        <ele>405</ele>
        <time>2016-07-28T12:52:22.000Z</time>
      </trkpt>
      <trkpt lat="47.54346" lon="6.73063">
        <ele>405</ele>
        <time>2016-07-28T12:52:23.000Z</time>
      </trkpt>
      <trkpt lat="47.54348" lon="6.73064">
        <ele>405</ele>
        <time>2016-07-28T12:52:24.000Z</time>
      </trkpt>
      <trkpt lat="47.54351" lon="6.73064">
        <ele>405</ele>
        <time>2016-07-28T12:52:25.000Z</time>
      </trkpt>
      <trkpt lat="47.54353" lon="6.73065">
        <ele>405</ele>
        <time>2016-07-28T12:52:26.000Z</time>
      </trkpt>
      <trkpt lat="47.54355" lon="6.73065">
        <ele>405</ele>
        <time>2016-07-28T12:52:27.000Z</time>
      </trkpt>
      <trkpt lat="47.54358" lon="6.73066">
        <ele>405</ele>
        <time>2016-07-28T12:52:28.000Z</time>
      </trkpt>
      <trkpt lat="47.5436" lon="6.73066">
        <ele>405</ele>
        <time>2016-07-28T12:52:29.000Z</time>
      </trkpt>
      <trkpt lat="47.54363" lon="6.73067">
        <ele>406</ele>
        <time>2016-07-28T12:52:30.000Z</time>
      </trkpt>
      <trkpt lat="47.54365" lon="6.73067">
        <ele>406</ele>
        <time>2016-07-28T12:52:31.000Z</time>
      </trkpt>
      <trkpt lat="47.54367" lon="6.73068">
        <ele>406</ele>
        <time>2016-07-28T12:52:32.000Z</time>
      </trkpt>
      <trkpt lat="47.5437" lon="6.73069">
        <ele>406</ele>
        <time>2016-07-28T12:52:33.000Z</time>
      </trkpt>
      <trkpt lat="47.54372" lon="6.7307">
        <ele>406</ele>
        <time>2016-07-28T12:52:34.000Z</time>
      </trkpt>
      <trkpt lat="47.54374" lon="6.73071">
        <ele>406</ele>
        <time>2016-07-28T12:52:35.000Z</time>
      </trkpt>
      <trkpt lat="47.54376" lon="6.73072">
        <ele>406</ele>
        <time>2016-07-28T12:52:36.000Z</time>
      </trkpt>
      <trkpt lat="47.54379" lon="6.73073">
        <ele>406</ele>
        <time>2016-07-28T12:52:37.000Z</time>
      </trkpt>
      <trkpt lat="47.54381" lon="6.73074">
        <ele>406</ele>
        <time>2016-07-28T12:52:38.000Z</time>
      </trkpt>
      <trkpt lat="47.54383" lon="6.73075">
        <ele>407</ele>
        <time>2016-07-28T12:52:39.000Z</time>
      </trkpt>
      <trkpt lat="47.54387" lon="6.73077">
        <ele>407</ele>
        <time>2016-07-28T12:52:41.000Z</time>
      </trkpt>
      <trkpt lat="47.54388" lon="6.73078">
        <ele>407</ele>
        <time>2016-07-28T12:52:42.000Z</time>
      </trkpt>
      <trkpt lat="47.54392" lon="6.7308">
        <ele>407</ele>
        <time>2016-07-28T12:52:44.000Z</time>
      </trkpt>
      <trkpt lat="47.54394" lon="6.73081">
        <ele>407</ele>
        <time>2016-07-28T12:52:45.000Z</time>
      </trkpt>
      <trkpt lat="47.54398" lon="6.73082">
        <ele>408</ele>
        <time>2016-07-28T12:52:47.000Z</time>
      </trkpt>
      <trkpt lat="47.54401" lon="6.73083">
        <ele>408</ele>
        <time>2016-07-28T12:52:48.000Z</time>
      </trkpt>
      <trkpt lat="47.54403" lon="6.73084">
        <ele>408</ele>
        <time>2016-07-28T12:52:49.000Z</time>
      </trkpt>
      <trkpt lat="47.54405" lon="6.73087">
        <ele>408</ele>
        <time>2016-07-28T12:52:50.000Z</time>
      </trkpt>
      <trkpt lat="47.54409" lon="6.7309">
        <ele>409</ele>
        <time>2016-07-28T12:52:52.000Z</time>
      </trkpt>
      <trkpt lat="47.5441" lon="6.73091">
        <ele>409</ele>
        <time>2016-07-28T12:52:53.000Z</time>
      </trkpt>
      <trkpt lat="47.54414" lon="6.7309">
        <ele>409</ele>
        <time>2016-07-28T12:52:56.000Z</time>
      </trkpt>
      <trkpt lat="47.54416" lon="6.73089">
        <ele>409</ele>
        <time>2016-07-28T12:52:57.000Z</time>
      </trkpt>
      <trkpt lat="47.54419" lon="6.73089">
        <ele>411</ele>
        <time>2016-07-28T12:52:59.000Z</time>
      </trkpt>
      <trkpt lat="47.54421" lon="6.73089">
        <ele>411</ele>
        <time>2016-07-28T12:53:00.000Z</time>
      </trkpt>
      <trkpt lat="47.54425" lon="6.7309">
        <ele>411</ele>
        <time>2016-07-28T12:53:03.000Z</time>
      </trkpt>
      <trkpt lat="47.54427" lon="6.7309">
        <ele>411</ele>
        <time>2016-07-28T12:53:04.000Z</time>
      </trkpt>
      <trkpt lat="47.5443" lon="6.73089">
        <ele>411</ele>
        <time>2016-07-28T12:53:07.000Z</time>
      </trkpt>
      <trkpt lat="47.54432" lon="6.73089">
        <ele>411</ele>
        <time>2016-07-28T12:53:08.000Z</time>
      </trkpt>
      <trkpt lat="47.54436" lon="6.73088">
        <ele>412</ele>
        <time>2016-07-28T12:53:11.000Z</time>
      </trkpt>
      <trkpt lat="47.54437" lon="6.73087">
        <ele>412</ele>
        <time>2016-07-28T12:53:12.000Z</time>
      </trkpt>
      <trkpt lat="47.54441" lon="6.73087">
        <ele>412</ele>
        <time>2016-07-28T12:53:15.000Z</time>
      </trkpt>
      <trkpt lat="47.54443" lon="6.73087">
        <ele>412</ele>
        <time>2016-07-28T12:53:16.000Z</time>
      </trkpt>
      <trkpt lat="47.54446" lon="6.73085">
        <ele>412</ele>
        <time>2016-07-28T12:53:19.000Z</time>
      </trkpt>
      <trkpt lat="47.54447" lon="6.73084">
        <ele>412</ele>
        <time>2016-07-28T12:53:20.000Z</time>
      </trkpt>
      <trkpt lat="47.5445" lon="6.73082">
        <ele>412</ele>
        <time>2016-07-28T12:53:23.000Z</time>
      </trkpt>
      <trkpt lat="47.54451" lon="6.73081">
        <ele>412</ele>
        <time>2016-07-28T12:53:24.000Z</time>
      </trkpt>
      <trkpt lat="47.54454" lon="6.7308">
        <ele>412</ele>
        <time>2016-07-28T12:53:26.000Z</time>
      </trkpt>
      <trkpt lat="47.54456" lon="6.7308">
        <ele>413</ele>
        <time>2016-07-28T12:53:27.000Z</time>
      </trkpt>
      <trkpt lat="47.5446" lon="6.7308">
        <ele>413</ele>
        <time>2016-07-28T12:53:29.000Z</time>
      </trkpt>
      <trkpt lat="47.54462" lon="6.7308">
        <ele>413</ele>
        <time>2016-07-28T12:53:30.000Z</time>
      </trkpt>
      <trkpt lat="47.54466" lon="6.7308">
        <ele>413</ele>
        <time>2016-07-28T12:53:32.000Z</time>
      </trkpt>
      <trkpt lat="47.54468" lon="6.73081">
        <ele>413</ele>
        <time>2016-07-28T12:53:33.000Z</time>
      </trkpt>
      <trkpt lat="47.54471" lon="6.73081">
        <ele>414</ele>
        <time>2016-07-28T12:53:35.000Z</time>
      </trkpt>
      <trkpt lat="47.54473" lon="6.73081">
        <ele>414</ele>
        <time>2016-07-28T12:53:36.000Z</time>
      </trkpt>
      <trkpt lat="47.54476" lon="6.73081">
        <ele>414</ele>
        <time>2016-07-28T12:53:37.000Z</time>
      </trkpt>
      <trkpt lat="47.54478" lon="6.73081">
        <ele>414</ele>
        <time>2016-07-28T12:53:38.000Z</time>
      </trkpt>
      <trkpt lat="47.54481" lon="6.73081">
        <ele>414</ele>
        <time>2016-07-28T12:53:39.000Z</time>
      </trkpt>
      <trkpt lat="47.54483" lon="6.7308">
        <ele>415</ele>
        <time>2016-07-28T12:53:40.000Z</time>
      </trkpt>
      <trkpt lat="47.54486" lon="6.7308">
        <ele>415</ele>
        <time>2016-07-28T12:53:41.000Z</time>
      </trkpt>
      <trkpt lat="47.54488" lon="6.7308">
        <ele>415</ele>
        <time>2016-07-28T12:53:42.000Z</time>
      </trkpt>
      <trkpt lat="47.54491" lon="6.73081">
        <ele>416</ele>
        <time>2016-07-28T12:53:43.000Z</time>
      </trkpt>
      <trkpt lat="47.54494" lon="6.73081">
        <ele>416</ele>
        <time>2016-07-28T12:53:44.000Z</time>
      </trkpt>
      <trkpt lat="47.54496" lon="6.73081">
        <ele>416</ele>
        <time>2016-07-28T12:53:45.000Z</time>
      </trkpt>
      <trkpt lat="47.54499" lon="6.73081">
        <ele>416</ele>
        <time>2016-07-28T12:53:46.000Z</time>
      </trkpt>
      <trkpt lat="47.54501" lon="6.7308">
        <ele>417</ele>
        <time>2016-07-28T12:53:47.000Z</time>
      </trkpt>
      <trkpt lat="47.54503" lon="6.7308">
        <ele>417</ele>
        <time>2016-07-28T12:53:48.000Z</time>
      </trkpt>
      <trkpt lat="47.54507" lon="6.73079">
        <ele>417</ele>
        <time>2016-07-28T12:53:50.000Z</time>
      </trkpt>
      <trkpt lat="47.54508" lon="6.73078">
        <ele>417</ele>
        <time>2016-07-28T12:53:51.000Z</time>
      </trkpt>
      <trkpt lat="47.54511" lon="6.73078">
        <ele>417</ele>
        <time>2016-07-28T12:53:53.000Z</time>
      </trkpt>
      <trkpt lat="47.54514" lon="6.73078">
        <ele>417</ele>
        <time>2016-07-28T12:53:54.000Z</time>
      </trkpt>
      <trkpt lat="47.54517" lon="6.73078">
        <ele>417</ele>
        <time>2016-07-28T12:53:55.000Z</time>
      </trkpt>
      <trkpt lat="47.54519" lon="6.73078">
        <ele>417</ele>
        <time>2016-07-28T12:53:56.000Z</time>
      </trkpt>
      <trkpt lat="47.54522" lon="6.73078">
        <ele>417</ele>
        <time>2016-07-28T12:53:57.000Z</time>
      </trkpt>
      <trkpt lat="47.54525" lon="6.73078">
        <ele>417</ele>
        <time>2016-07-28T12:53:58.000Z</time>
      </trkpt>
      <trkpt lat="47.54527" lon="6.73077">
        <ele>417</ele>
        <time>2016-07-28T12:53:59.000Z</time>
      </trkpt>
      <trkpt lat="47.5453" lon="6.73077">
        <ele>417</ele>
        <time>2016-07-28T12:54:00.000Z</time>
      </trkpt>
      <trkpt lat="47.54532" lon="6.73077">
        <ele>417</ele>
        <time>2016-07-28T12:54:01.000Z</time>
      </trkpt>
      <trkpt lat="47.54535" lon="6.73076">
        <ele>417</ele>
        <time>2016-07-28T12:54:02.000Z</time>
      </trkpt>
      <trkpt lat="47.54537" lon="6.73075">
        <ele>417</ele>
        <time>2016-07-28T12:54:03.000Z</time>
      </trkpt>
      <trkpt lat="47.54539" lon="6.73075">
        <ele>417</ele>
        <time>2016-07-28T12:54:04.000Z</time>
      </trkpt>
      <trkpt lat="47.54542" lon="6.73074">
        <ele>417</ele>
        <time>2016-07-28T12:54:05.000Z</time>
      </trkpt>
      <trkpt lat="47.54545" lon="6.73073">
        <ele>417</ele>
        <time>2016-07-28T12:54:06.000Z</time>
      </trkpt>
      <trkpt lat="47.54548" lon="6.73072">
        <ele>417</ele>
        <time>2016-07-28T12:54:07.000Z</time>
      </trkpt>
      <trkpt lat="47.54551" lon="6.7307">
        <ele>417</ele>
        <time>2016-07-28T12:54:08.000Z</time>
      </trkpt>
      <trkpt lat="47.54554" lon="6.73068">
        <ele>417</ele>
        <time>2016-07-28T12:54:09.000Z</time>
      </trkpt>
      <trkpt lat="47.54556" lon="6.73066">
        <ele>417</ele>
        <time>2016-07-28T12:54:10.000Z</time>
      </trkpt>
      <trkpt lat="47.54559" lon="6.73064">
        <ele>417</ele>
        <time>2016-07-28T12:54:11.000Z</time>
      </trkpt>
      <trkpt lat="47.54562" lon="6.73063">
        <ele>417</ele>
        <time>2016-07-28T12:54:12.000Z</time>
      </trkpt>
      <trkpt lat="47.54565" lon="6.73061">
        <ele>417</ele>
        <time>2016-07-28T12:54:13.000Z</time>
      </trkpt>
      <trkpt lat="47.54568" lon="6.7306">
        <ele>417</ele>
        <time>2016-07-28T12:54:14.000Z</time>
      </trkpt>
      <trkpt lat="47.5457" lon="6.73058">
        <ele>417</ele>
        <time>2016-07-28T12:54:15.000Z</time>
      </trkpt>
      <trkpt lat="47.54572" lon="6.73056">
        <ele>417</ele>
        <time>2016-07-28T12:54:16.000Z</time>
      </trkpt>
      <trkpt lat="47.54576" lon="6.73052">
        <ele>417</ele>
        <time>2016-07-28T12:54:18.000Z</time>
      </trkpt>
      <trkpt lat="47.54577" lon="6.73049">
        <ele>417</ele>
        <time>2016-07-28T12:54:19.000Z</time>
      </trkpt>
      <trkpt lat="47.5458" lon="6.73048">
        <ele>417</ele>
        <time>2016-07-28T12:54:20.000Z</time>
      </trkpt>
      <trkpt lat="47.54583" lon="6.73047">
        <ele>416</ele>
        <time>2016-07-28T12:54:21.000Z</time>
      </trkpt>
      <trkpt lat="47.54587" lon="6.73047">
        <ele>415</ele>
        <time>2016-07-28T12:54:22.000Z</time>
      </trkpt>
      <trkpt lat="47.54591" lon="6.73047">
        <ele>415</ele>
        <time>2016-07-28T12:54:23.000Z</time>
      </trkpt>
      <trkpt lat="47.54595" lon="6.73047">
        <ele>415</ele>
        <time>2016-07-28T12:54:24.000Z</time>
      </trkpt>
      <trkpt lat="47.54598" lon="6.73047">
        <ele>415</ele>
        <time>2016-07-28T12:54:25.000Z</time>
      </trkpt>
      <trkpt lat="47.54601" lon="6.73047">
        <ele>414</ele>
        <time>2016-07-28T12:54:26.000Z</time>
      </trkpt>
      <trkpt lat="47.54603" lon="6.73047">
        <ele>414</ele>
        <time>2016-07-28T12:54:27.000Z</time>
      </trkpt>
      <trkpt lat="47.54607" lon="6.73045">
        <ele>414</ele>
        <time>2016-07-28T12:54:29.000Z</time>
      </trkpt>
      <trkpt lat="47.5461" lon="6.73044">
        <ele>414</ele>
        <time>2016-07-28T12:54:30.000Z</time>
      </trkpt>
      <trkpt lat="47.54612" lon="6.73044">
        <ele>414</ele>
        <time>2016-07-28T12:54:31.000Z</time>
      </trkpt>
      <trkpt lat="47.54614" lon="6.73044">
        <ele>414</ele>
        <time>2016-07-28T12:54:32.000Z</time>
      </trkpt>
      <trkpt lat="47.54617" lon="6.73043">
        <ele>414</ele>
        <time>2016-07-28T12:55:49.000Z</time>
      </trkpt>
      <trkpt lat="47.54619" lon="6.73044">
        <ele>414</ele>
        <time>2016-07-28T12:55:50.000Z</time>
      </trkpt>
      <trkpt lat="47.54623" lon="6.73046">
        <ele>414</ele>
        <time>2016-07-28T12:55:52.000Z</time>
      </trkpt>
      <trkpt lat="47.54625" lon="6.73047">
        <ele>414</ele>
        <time>2016-07-28T12:55:53.000Z</time>
      </trkpt>
      <trkpt lat="47.54629" lon="6.73049">
        <ele>413</ele>
        <time>2016-07-28T12:55:55.000Z</time>
      </trkpt>
      <trkpt lat="47.54631" lon="6.7305">
        <ele>413</ele>
        <time>2016-07-28T12:55:56.000Z</time>
      </trkpt>
      <trkpt lat="47.54636" lon="6.73051">
        <ele>413</ele>
        <time>2016-07-28T12:55:58.000Z</time>
      </trkpt>
      <trkpt lat="47.54638" lon="6.73052">
        <ele>413</ele>
        <time>2016-07-28T12:55:59.000Z</time>
      </trkpt>
      <trkpt lat="47.5464" lon="6.73052">
        <ele>413</ele>
        <time>2016-07-28T12:56:00.000Z</time>
      </trkpt>
      <trkpt lat="47.54643" lon="6.73053">
        <ele>413</ele>
        <time>2016-07-28T12:56:01.000Z</time>
      </trkpt>
      <trkpt lat="47.54646" lon="6.73054">
        <ele>413</ele>
        <time>2016-07-28T12:56:02.000Z</time>
      </trkpt>
      <trkpt lat="47.54649" lon="6.73055">
        <ele>413</ele>
        <time>2016-07-28T12:56:03.000Z</time>
      </trkpt>
      <trkpt lat="47.54653" lon="6.73055">
        <ele>413</ele>
        <time>2016-07-28T12:56:04.000Z</time>
      </trkpt>
      <trkpt lat="47.54656" lon="6.73056">
        <ele>413</ele>
        <time>2016-07-28T12:56:05.000Z</time>
      </trkpt>
      <trkpt lat="47.5466" lon="6.73057">
        <ele>413</ele>
        <time>2016-07-28T12:56:06.000Z</time>
      </trkpt>
      <trkpt lat="47.54665" lon="6.73058">
        <ele>413</ele>
        <time>2016-07-28T12:56:07.000Z</time>
      </trkpt>
      <trkpt lat="47.54669" lon="6.73059">
        <ele>408</ele>
        <time>2016-07-28T12:56:08.000Z</time>
      </trkpt>
      <trkpt lat="47.54673" lon="6.7306">
        <ele>408</ele>
        <time>2016-07-28T12:56:09.000Z</time>
      </trkpt>
      <trkpt lat="47.54676" lon="6.7306">
        <ele>408</ele>
        <time>2016-07-28T12:56:10.000Z</time>
      </trkpt>
      <trkpt lat="47.54679" lon="6.73061">
        <ele>408</ele>
        <time>2016-07-28T12:56:11.000Z</time>
      </trkpt>
      <trkpt lat="47.54682" lon="6.73061">
        <ele>408</ele>
        <time>2016-07-28T12:56:12.000Z</time>
      </trkpt>
      <trkpt lat="47.54685" lon="6.73063">
        <ele>407</ele>
        <time>2016-07-28T12:56:13.000Z</time>
      </trkpt>
      <trkpt lat="47.54688" lon="6.73065">
        <ele>407</ele>
        <time>2016-07-28T12:56:14.000Z</time>
      </trkpt>
      <trkpt lat="47.54691" lon="6.73067">
        <ele>407</ele>
        <time>2016-07-28T12:56:15.000Z</time>
      </trkpt>
      <trkpt lat="47.54694" lon="6.7307">
        <ele>407</ele>
        <time>2016-07-28T12:56:16.000Z</time>
      </trkpt>
      <trkpt lat="47.54697" lon="6.73072">
        <ele>407</ele>
        <time>2016-07-28T12:56:17.000Z</time>
      </trkpt>
      <trkpt lat="47.54701" lon="6.73073">
        <ele>406</ele>
        <time>2016-07-28T12:56:18.000Z</time>
      </trkpt>
      <trkpt lat="47.54705" lon="6.73075">
        <ele>406</ele>
        <time>2016-07-28T12:56:19.000Z</time>
      </trkpt>
      <trkpt lat="47.54709" lon="6.73076">
        <ele>406</ele>
        <time>2016-07-28T12:56:20.000Z</time>
      </trkpt>
      <trkpt lat="47.54713" lon="6.73078">
        <ele>406</ele>
        <time>2016-07-28T12:56:21.000Z</time>
      </trkpt>
      <trkpt lat="47.54717" lon="6.7308">
        <ele>405</ele>
        <time>2016-07-28T12:56:22.000Z</time>
      </trkpt>
      <trkpt lat="47.54723" lon="6.73086">
        <ele>408</ele>
        <time>2016-07-28T12:56:23.000Z</time>
      </trkpt>
      <trkpt lat="47.54728" lon="6.73088">
        <ele>407</ele>
        <time>2016-07-28T12:56:24.000Z</time>
      </trkpt>
      <trkpt lat="47.54733" lon="6.7309">
        <ele>407</ele>
        <time>2016-07-28T12:56:25.000Z</time>
      </trkpt>
      <trkpt lat="47.54738" lon="6.73091">
        <ele>406</ele>
        <time>2016-07-28T12:56:26.000Z</time>
      </trkpt>
      <trkpt lat="47.54743" lon="6.73094">
        <ele>406</ele>
        <time>2016-07-28T12:56:27.000Z</time>
      </trkpt>
      <trkpt lat="47.54748" lon="6.73098">
        <ele>406</ele>
        <time>2016-07-28T12:56:28.000Z</time>
      </trkpt>
      <trkpt lat="47.54753" lon="6.73101">
        <ele>402</ele>
        <time>2016-07-28T12:56:29.000Z</time>
      </trkpt>
      <trkpt lat="47.54757" lon="6.73104">
        <ele>402</ele>
        <time>2016-07-28T12:56:30.000Z</time>
      </trkpt>
      <trkpt lat="47.54762" lon="6.73107">
        <ele>402</ele>
        <time>2016-07-28T12:56:31.000Z</time>
      </trkpt>
      <trkpt lat="47.54767" lon="6.7311">
        <ele>402</ele>
        <time>2016-07-28T12:56:32.000Z</time>
      </trkpt>
      <trkpt lat="47.54772" lon="6.73113">
        <ele>402</ele>
        <time>2016-07-28T12:56:33.000Z</time>
      </trkpt>
      <trkpt lat="47.54778" lon="6.73116">
        <ele>402</ele>
        <time>2016-07-28T12:56:34.000Z</time>
      </trkpt>
      <trkpt lat="47.54783" lon="6.73119">
        <ele>401</ele>
        <time>2016-07-28T12:56:35.000Z</time>
      </trkpt>
      <trkpt lat="47.54789" lon="6.73121">
        <ele>401</ele>
        <time>2016-07-28T12:56:36.000Z</time>
      </trkpt>
      <trkpt lat="47.54796" lon="6.73123">
        <ele>401</ele>
        <time>2016-07-28T12:56:37.000Z</time>
      </trkpt>
      <trkpt lat="47.54803" lon="6.73126">
        <ele>400</ele>
        <time>2016-07-28T12:56:38.000Z</time>
      </trkpt>
      <trkpt lat="47.54809" lon="6.73128">
        <ele>400</ele>
        <time>2016-07-28T12:56:39.000Z</time>
      </trkpt>
      <trkpt lat="47.54816" lon="6.73129">
        <ele>399</ele>
        <time>2016-07-28T12:56:40.000Z</time>
      </trkpt>
      <trkpt lat="47.54824" lon="6.7313">
        <ele>399</ele>
        <time>2016-07-28T12:56:41.000Z</time>
      </trkpt>
      <trkpt lat="47.5483" lon="6.73131">
        <ele>399</ele>
        <time>2016-07-28T12:56:42.000Z</time>
      </trkpt>
      <trkpt lat="47.54837" lon="6.73132">
        <ele>392</ele>
        <time>2016-07-28T12:56:43.000Z</time>
      </trkpt>
      <trkpt lat="47.54843" lon="6.73133">
        <ele>392</ele>
        <time>2016-07-28T12:56:44.000Z</time>
      </trkpt>
      <trkpt lat="47.5485" lon="6.73131">
        <ele>392</ele>
        <time>2016-07-28T12:56:45.000Z</time>
      </trkpt>
      <trkpt lat="47.54856" lon="6.7313">
        <ele>391</ele>
        <time>2016-07-28T12:56:46.000Z</time>
      </trkpt>
      <trkpt lat="47.54862" lon="6.73133">
        <ele>391</ele>
        <time>2016-07-28T12:56:47.000Z</time>
      </trkpt>
      <trkpt lat="47.54868" lon="6.73136">
        <ele>391</ele>
        <time>2016-07-28T12:56:48.000Z</time>
      </trkpt>
      <trkpt lat="47.54876" lon="6.73138">
        <ele>390</ele>
        <time>2016-07-28T12:56:49.000Z</time>
      </trkpt>
      <trkpt lat="47.54883" lon="6.73144">
        <ele>390</ele>
        <time>2016-07-28T12:56:50.000Z</time>
      </trkpt>
      <trkpt lat="47.5489" lon="6.73145">
        <ele>390</ele>
        <time>2016-07-28T12:56:50.999Z</time>
      </trkpt>
      <trkpt lat="47.54898" lon="6.73149">
        <ele>389</ele>
        <time>2016-07-28T12:56:52.000Z</time>
      </trkpt>
      <trkpt lat="47.54904" lon="6.73151">
        <ele>389</ele>
        <time>2016-07-28T12:56:53.000Z</time>
      </trkpt>
      <trkpt lat="47.5491" lon="6.73155">
        <ele>388</ele>
        <time>2016-07-28T12:56:54.000Z</time>
      </trkpt>
      <trkpt lat="47.54917" lon="6.73164">
        <ele>386</ele>
        <time>2016-07-28T12:56:55.000Z</time>
      </trkpt>
      <trkpt lat="47.54923" lon="6.7317">
        <ele>386</ele>
        <time>2016-07-28T12:56:56.000Z</time>
      </trkpt>
      <trkpt lat="47.54929" lon="6.73176">
        <ele>385</ele>
        <time>2016-07-28T12:56:57.000Z</time>
      </trkpt>
      <trkpt lat="47.54936" lon="6.73182">
        <ele>384</ele>
        <time>2016-07-28T12:56:58.000Z</time>
      </trkpt>
      <trkpt lat="47.54943" lon="6.73188">
        <ele>383</ele>
        <time>2016-07-28T12:56:59.000Z</time>
      </trkpt>
      <trkpt lat="47.54948" lon="6.73193">
        <ele>383</ele>
        <time>2016-07-28T12:56:59.999Z</time>
      </trkpt>
      <trkpt lat="47.54955" lon="6.732">
        <ele>382</ele>
        <time>2016-07-28T12:57:01.001Z</time>
      </trkpt>
      <trkpt lat="47.54963" lon="6.73222">
        <ele>382</ele>
        <time>2016-07-28T12:57:02.000Z</time>
      </trkpt>
      <trkpt lat="47.54965" lon="6.73233">
        <ele>382</ele>
        <time>2016-07-28T12:57:03.000Z</time>
      </trkpt>
      <trkpt lat="47.54967" lon="6.73243">
        <ele>381</ele>
        <time>2016-07-28T12:57:04.000Z</time>
      </trkpt>
      <trkpt lat="47.54971" lon="6.73251">
        <ele>382</ele>
        <time>2016-07-28T12:57:05.000Z</time>
      </trkpt>
      <trkpt lat="47.54974" lon="6.73258">
        <ele>382</ele>
        <time>2016-07-28T12:57:06.000Z</time>
      </trkpt>
      <trkpt lat="47.54978" lon="6.7326">
        <ele>382</ele>
        <time>2016-07-28T12:57:07.000Z</time>
      </trkpt>
      <trkpt lat="47.54982" lon="6.7326">
        <ele>381</ele>
        <time>2016-07-28T12:57:08.000Z</time>
      </trkpt>
      <trkpt lat="47.54987" lon="6.73258">
        <ele>381</ele>
        <time>2016-07-28T12:57:09.000Z</time>
      </trkpt>
      <trkpt lat="47.54991" lon="6.73251">
        <ele>380</ele>
        <time>2016-07-28T12:57:10.000Z</time>
      </trkpt>
      <trkpt lat="47.54996" lon="6.73244">
        <ele>379</ele>
        <time>2016-07-28T12:57:11.000Z</time>
      </trkpt>
      <trkpt lat="47.55" lon="6.73238">
        <ele>379</ele>
        <time>2016-07-28T12:57:12.000Z</time>
      </trkpt>
      <trkpt lat="47.55005" lon="6.73232">
        <ele>377</ele>
        <time>2016-07-28T12:57:13.000Z</time>
      </trkpt>
      <trkpt lat="47.55009" lon="6.73228">
        <ele>377</ele>
        <time>2016-07-28T12:57:14.000Z</time>
      </trkpt>
      <trkpt lat="47.55015" lon="6.73224">
        <ele>377</ele>
        <time>2016-07-28T12:57:15.000Z</time>
      </trkpt>
      <trkpt lat="47.5502" lon="6.73222">
        <ele>377</ele>
        <time>2016-07-28T12:57:16.000Z</time>
      </trkpt>
      <trkpt lat="47.55026" lon="6.73221">
        <ele>376</ele>
        <time>2016-07-28T12:57:17.000Z</time>
      </trkpt>
      <trkpt lat="47.55031" lon="6.7322">
        <ele>376</ele>
        <time>2016-07-28T12:57:18.000Z</time>
      </trkpt>
      <trkpt lat="47.55036" lon="6.7322">
        <ele>376</ele>
        <time>2016-07-28T12:57:19.000Z</time>
      </trkpt>
      <trkpt lat="47.55041" lon="6.7322">
        <ele>376</ele>
        <time>2016-07-28T12:57:20.000Z</time>
      </trkpt>
      <trkpt lat="47.55045" lon="6.73221">
        <ele>376</ele>
        <time>2016-07-28T12:57:21.000Z</time>
      </trkpt>
      <trkpt lat="47.5505" lon="6.73222">
        <ele>376</ele>
        <time>2016-07-28T12:57:22.000Z</time>
      </trkpt>
      <trkpt lat="47.55054" lon="6.73225">
        <ele>376</ele>
        <time>2016-07-28T12:57:23.000Z</time>
      </trkpt>
      <trkpt lat="47.55058" lon="6.73228">
        <ele>376</ele>
        <time>2016-07-28T12:57:24.000Z</time>
      </trkpt>
      <trkpt lat="47.55061" lon="6.73231">
        <ele>376</ele>
        <time>2016-07-28T12:57:25.000Z</time>
      </trkpt>
      <trkpt lat="47.55064" lon="6.7323">
        <ele>376</ele>
        <time>2016-07-28T12:57:26.000Z</time>
      </trkpt>
      <trkpt lat="47.55067" lon="6.73227">
        <ele>376</ele>
        <time>2016-07-28T12:57:27.000Z</time>
      </trkpt>
      <trkpt lat="47.5507" lon="6.73223">
        <ele>376</ele>
        <time>2016-07-28T12:57:28.000Z</time>
      </trkpt>
      <trkpt lat="47.55073" lon="6.73219">
        <ele>376</ele>
        <time>2016-07-28T12:57:29.000Z</time>
      </trkpt>
      <trkpt lat="47.55075" lon="6.73214">
        <ele>376</ele>
        <time>2016-07-28T12:57:30.000Z</time>
      </trkpt>
      <trkpt lat="47.55079" lon="6.73209">
        <ele>376</ele>
        <time>2016-07-28T12:57:31.000Z</time>
      </trkpt>
      <trkpt lat="47.55082" lon="6.73204">
        <ele>375</ele>
        <time>2016-07-28T12:57:32.000Z</time>
      </trkpt>
      <trkpt lat="47.55085" lon="6.73199">
        <ele>376</ele>
        <time>2016-07-28T12:57:33.000Z</time>
      </trkpt>
      <trkpt lat="47.55088" lon="6.73194">
        <ele>376</ele>
        <time>2016-07-28T12:57:34.000Z</time>
      </trkpt>
      <trkpt lat="47.55092" lon="6.73189">
        <ele>375</ele>
        <time>2016-07-28T12:57:35.000Z</time>
      </trkpt>
      <trkpt lat="47.55096" lon="6.73183">
        <ele>375</ele>
        <time>2016-07-28T12:57:36.000Z</time>
      </trkpt>
      <trkpt lat="47.55099" lon="6.73177">
        <ele>375</ele>
        <time>2016-07-28T12:57:37.000Z</time>
      </trkpt>
      <trkpt lat="47.55103" lon="6.73172">
        <ele>375</ele>
        <time>2016-07-28T12:57:38.000Z</time>
      </trkpt>
      <trkpt lat="47.55106" lon="6.73165">
        <ele>373</ele>
        <time>2016-07-28T12:57:39.000Z</time>
      </trkpt>
      <trkpt lat="47.55109" lon="6.73159">
        <ele>373</ele>
        <time>2016-07-28T12:57:40.000Z</time>
      </trkpt>
      <trkpt lat="47.55113" lon="6.73153">
        <ele>373</ele>
        <time>2016-07-28T12:57:41.000Z</time>
      </trkpt>
      <trkpt lat="47.55117" lon="6.73147">
        <ele>373</ele>
        <time>2016-07-28T12:57:42.000Z</time>
      </trkpt>
      <trkpt lat="47.55121" lon="6.73141">
        <ele>373</ele>
        <time>2016-07-28T12:57:43.000Z</time>
      </trkpt>
      <trkpt lat="47.55126" lon="6.73136">
        <ele>373</ele>
        <time>2016-07-28T12:57:44.000Z</time>
      </trkpt>
      <trkpt lat="47.5513" lon="6.7313">
        <ele>373</ele>
        <time>2016-07-28T12:57:45.000Z</time>
      </trkpt>
      <trkpt lat="47.55134" lon="6.73124">
        <ele>373</ele>
        <time>2016-07-28T12:57:46.000Z</time>
      </trkpt>
      <trkpt lat="47.55138" lon="6.73117">
        <ele>373</ele>
        <time>2016-07-28T12:57:47.000Z</time>
      </trkpt>
      <trkpt lat="47.55142" lon="6.73109">
        <ele>373</ele>
        <time>2016-07-28T12:57:48.000Z</time>
      </trkpt>
      <trkpt lat="47.55147" lon="6.73103">
        <ele>373</ele>
        <time>2016-07-28T12:57:49.000Z</time>
      </trkpt>
      <trkpt lat="47.55151" lon="6.73097">
        <ele>372</ele>
        <time>2016-07-28T12:57:50.000Z</time>
      </trkpt>
      <trkpt lat="47.55156" lon="6.73094">
        <ele>372</ele>
        <time>2016-07-28T12:57:51.000Z</time>
      </trkpt>
      <trkpt lat="47.5516" lon="6.73088">
        <ele>372</ele>
        <time>2016-07-28T12:57:52.000Z</time>
      </trkpt>
      <trkpt lat="47.55164" lon="6.73083">
        <ele>372</ele>
        <time>2016-07-28T12:57:53.000Z</time>
      </trkpt>
      <trkpt lat="47.55168" lon="6.73078">
        <ele>372</ele>
        <time>2016-07-28T12:57:54.000Z</time>
      </trkpt>
      <trkpt lat="47.55173" lon="6.73073">
        <ele>372</ele>
        <time>2016-07-28T12:57:55.000Z</time>
      </trkpt>
      <trkpt lat="47.55176" lon="6.73068">
        <ele>372</ele>
        <time>2016-07-28T12:57:56.000Z</time>
      </trkpt>
      <trkpt lat="47.5518" lon="6.73062">
        <ele>373</ele>
        <time>2016-07-28T12:57:57.000Z</time>
      </trkpt>
      <trkpt lat="47.55185" lon="6.73056">
        <ele>373</ele>
        <time>2016-07-28T12:57:58.000Z</time>
      </trkpt>
      <trkpt lat="47.55188" lon="6.73049">
        <ele>373</ele>
        <time>2016-07-28T12:57:59.000Z</time>
      </trkpt>
      <trkpt lat="47.55192" lon="6.73043">
        <ele>373</ele>
        <time>2016-07-28T12:58:00.000Z</time>
      </trkpt>
      <trkpt lat="47.55195" lon="6.73039">
        <ele>373</ele>
        <time>2016-07-28T12:58:01.000Z</time>
      </trkpt>
      <trkpt lat="47.55199" lon="6.73034">
        <ele>373</ele>
        <time>2016-07-28T12:58:02.000Z</time>
      </trkpt>
      <trkpt lat="47.55202" lon="6.73028">
        <ele>373</ele>
        <time>2016-07-28T12:58:03.000Z</time>
      </trkpt>
      <trkpt lat="47.55204" lon="6.73021">
        <ele>373</ele>
        <time>2016-07-28T12:58:04.000Z</time>
      </trkpt>
      <trkpt lat="47.55206" lon="6.73015">
        <ele>373</ele>
        <time>2016-07-28T12:58:05.000Z</time>
      </trkpt>
      <trkpt lat="47.55207" lon="6.73009">
        <ele>373</ele>
        <time>2016-07-28T12:58:06.000Z</time>
      </trkpt>
      <trkpt lat="47.55209" lon="6.73001">
        <ele>373</ele>
        <time>2016-07-28T12:58:07.000Z</time>
      </trkpt>
      <trkpt lat="47.55211" lon="6.72995">
        <ele>372</ele>
        <time>2016-07-28T12:58:08.000Z</time>
      </trkpt>
      <trkpt lat="47.55213" lon="6.72988">
        <ele>373</ele>
        <time>2016-07-28T12:58:09.000Z</time>
      </trkpt>
      <trkpt lat="47.55214" lon="6.72981">
        <ele>373</ele>
        <time>2016-07-28T12:58:10.000Z</time>
      </trkpt>
      <trkpt lat="47.55216" lon="6.72975">
        <ele>373</ele>
        <time>2016-07-28T12:58:11.000Z</time>
      </trkpt>
      <trkpt lat="47.55218" lon="6.72969">
        <ele>373</ele>
        <time>2016-07-28T12:58:12.000Z</time>
      </trkpt>
      <trkpt lat="47.5522" lon="6.72962">
        <ele>373</ele>
        <time>2016-07-28T12:58:12.999Z</time>
      </trkpt>
      <trkpt lat="47.55221" lon="6.72957">
        <ele>373</ele>
        <time>2016-07-28T12:58:14.000Z</time>
      </trkpt>
      <trkpt lat="47.55223" lon="6.72952">
        <ele>373</ele>
        <time>2016-07-28T12:58:15.000Z</time>
      </trkpt>
      <trkpt lat="47.55226" lon="6.72946">
        <ele>373</ele>
        <time>2016-07-28T12:58:16.000Z</time>
      </trkpt>
      <trkpt lat="47.55229" lon="6.7294">
        <ele>373</ele>
        <time>2016-07-28T12:58:17.000Z</time>
      </trkpt>
      <trkpt lat="47.55231" lon="6.72935">
        <ele>373</ele>
        <time>2016-07-28T12:58:18.000Z</time>
      </trkpt>
      <trkpt lat="47.55233" lon="6.7293">
        <ele>374</ele>
        <time>2016-07-28T12:58:19.000Z</time>
      </trkpt>
      <trkpt lat="47.55235" lon="6.72925">
        <ele>374</ele>
        <time>2016-07-28T12:58:20.000Z</time>
      </trkpt>
      <trkpt lat="47.55238" lon="6.72921">
        <ele>374</ele>
        <time>2016-07-28T12:58:21.000Z</time>
      </trkpt>
      <trkpt lat="47.55242" lon="6.72918">
        <ele>375</ele>
        <time>2016-07-28T12:58:22.000Z</time>
      </trkpt>
      <trkpt lat="47.55244" lon="6.72913">
        <ele>375</ele>
        <time>2016-07-28T12:58:23.000Z</time>
      </trkpt>
      <trkpt lat="47.55247" lon="6.72909">
        <ele>375</ele>
        <time>2016-07-28T12:58:24.000Z</time>
      </trkpt>
      <trkpt lat="47.5525" lon="6.72908">
        <ele>376</ele>
        <time>2016-07-28T12:58:25.000Z</time>
      </trkpt>
      <trkpt lat="47.55254" lon="6.72904">
        <ele>377</ele>
        <time>2016-07-28T12:58:26.000Z</time>
      </trkpt>
      <trkpt lat="47.55257" lon="6.729">
        <ele>377</ele>
        <time>2016-07-28T12:58:27.000Z</time>
      </trkpt>
      <trkpt lat="47.55259" lon="6.72896">
        <ele>377</ele>
        <time>2016-07-28T12:58:28.001Z</time>
      </trkpt>
      <trkpt lat="47.55263" lon="6.72892">
        <ele>377</ele>
        <time>2016-07-28T12:58:29.000Z</time>
      </trkpt>
      <trkpt lat="47.55266" lon="6.72889">
        <ele>377</ele>
        <time>2016-07-28T12:58:30.000Z</time>
      </trkpt>
      <trkpt lat="47.55269" lon="6.72888">
        <ele>377</ele>
        <time>2016-07-28T12:58:31.000Z</time>
      </trkpt>
      <trkpt lat="47.55273" lon="6.72886">
        <ele>377</ele>
        <time>2016-07-28T12:58:32.000Z</time>
      </trkpt>
      <trkpt lat="47.55276" lon="6.72886">
        <ele>377</ele>
        <time>2016-07-28T12:58:33.000Z</time>
      </trkpt>
      <trkpt lat="47.55279" lon="6.72885">
        <ele>377</ele>
        <time>2016-07-28T12:58:34.000Z</time>
      </trkpt>
      <trkpt lat="47.55281" lon="6.72884">
        <ele>377</ele>
        <time>2016-07-28T12:58:35.000Z</time>
      </trkpt>
      <trkpt lat="47.55284" lon="6.72883">
        <ele>377</ele>
        <time>2016-07-28T12:58:36.000Z</time>
      </trkpt>
      <trkpt lat="47.55287" lon="6.72882">
        <ele>377</ele>
        <time>2016-07-28T12:58:37.000Z</time>
      </trkpt>
      <trkpt lat="47.5529" lon="6.7288">
        <ele>377</ele>
        <time>2016-07-28T12:58:38.000Z</time>
      </trkpt>
      <trkpt lat="47.55294" lon="6.72877">
        <ele>378</ele>
        <time>2016-07-28T12:58:39.000Z</time>
      </trkpt>
      <trkpt lat="47.55297" lon="6.72875">
        <ele>378</ele>
        <time>2016-07-28T12:58:39.999Z</time>
      </trkpt>
      <trkpt lat="47.55301" lon="6.72872">
        <ele>378</ele>
        <time>2016-07-28T12:58:41.000Z</time>
      </trkpt>
      <trkpt lat="47.55304" lon="6.7287">
        <ele>378</ele>
        <time>2016-07-28T12:58:42.000Z</time>
      </trkpt>
      <trkpt lat="47.55307" lon="6.72868">
        <ele>378</ele>
        <time>2016-07-28T12:58:43.000Z</time>
      </trkpt>
      <trkpt lat="47.55309" lon="6.72866">
        <ele>378</ele>
        <time>2016-07-28T12:58:44.000Z</time>
      </trkpt>
      <trkpt lat="47.55312" lon="6.72864">
        <ele>378</ele>
        <time>2016-07-28T12:58:45.000Z</time>
      </trkpt>
      <trkpt lat="47.55315" lon="6.72861">
        <ele>378</ele>
        <time>2016-07-28T12:58:46.000Z</time>
      </trkpt>
      <trkpt lat="47.55318" lon="6.72858">
        <ele>378</ele>
        <time>2016-07-28T12:58:47.000Z</time>
      </trkpt>
      <trkpt lat="47.55321" lon="6.72856">
        <ele>378</ele>
        <time>2016-07-28T12:58:48.000Z</time>
      </trkpt>
      <trkpt lat="47.55324" lon="6.72852">
        <ele>378</ele>
        <time>2016-07-28T12:58:49.000Z</time>
      </trkpt>
      <trkpt lat="47.55326" lon="6.72849">
        <ele>378</ele>
        <time>2016-07-28T12:58:50.000Z</time>
      </trkpt>
      <trkpt lat="47.55329" lon="6.72845">
        <ele>378</ele>
        <time>2016-07-28T12:58:51.000Z</time>
      </trkpt>
      <trkpt lat="47.55332" lon="6.72842">
        <ele>379</ele>
        <time>2016-07-28T12:58:52.000Z</time>
      </trkpt>
      <trkpt lat="47.55335" lon="6.72839">
        <ele>379</ele>
        <time>2016-07-28T12:58:53.000Z</time>
      </trkpt>
      <trkpt lat="47.55338" lon="6.72837">
        <ele>379</ele>
        <time>2016-07-28T12:58:54.000Z</time>
      </trkpt>
      <trkpt lat="47.55341" lon="6.72834">
        <ele>379</ele>
        <time>2016-07-28T12:58:55.000Z</time>
      </trkpt>
      <trkpt lat="47.55344" lon="6.72831">
        <ele>379</ele>
        <time>2016-07-28T12:58:56.000Z</time>
      </trkpt>
      <trkpt lat="47.55347" lon="6.72828">
        <ele>379</ele>
        <time>2016-07-28T12:58:57.000Z</time>
      </trkpt>
      <trkpt lat="47.5535" lon="6.72826">
        <ele>378</ele>
        <time>2016-07-28T12:58:58.000Z</time>
      </trkpt>
      <trkpt lat="47.55353" lon="6.72823">
        <ele>378</ele>
        <time>2016-07-28T12:58:59.000Z</time>
      </trkpt>
      <trkpt lat="47.55356" lon="6.7282">
        <ele>378</ele>
        <time>2016-07-28T12:59:00.000Z</time>
      </trkpt>
      <trkpt lat="47.55359" lon="6.72817">
        <ele>378</ele>
        <time>2016-07-28T12:59:01.000Z</time>
      </trkpt>
      <trkpt lat="47.55363" lon="6.72813">
        <ele>378</ele>
        <time>2016-07-28T12:59:02.000Z</time>
      </trkpt>
      <trkpt lat="47.55367" lon="6.7281">
        <ele>378</ele>
        <time>2016-07-28T12:59:03.000Z</time>
      </trkpt>
      <trkpt lat="47.55371" lon="6.72807">
        <ele>378</ele>
        <time>2016-07-28T12:59:04.000Z</time>
      </trkpt>
      <trkpt lat="47.55375" lon="6.72804">
        <ele>378</ele>
        <time>2016-07-28T12:59:05.000Z</time>
      </trkpt>
      <trkpt lat="47.5538" lon="6.72798">
        <ele>378</ele>
        <time>2016-07-28T12:59:06.000Z</time>
      </trkpt>
      <trkpt lat="47.55383" lon="6.72793">
        <ele>378</ele>
        <time>2016-07-28T12:59:07.000Z</time>
      </trkpt>
      <trkpt lat="47.55386" lon="6.72787">
        <ele>378</ele>
        <time>2016-07-28T12:59:08.000Z</time>
      </trkpt>
      <trkpt lat="47.55391" lon="6.72783">
        <ele>377</ele>
        <time>2016-07-28T12:59:09.000Z</time>
      </trkpt>
      <trkpt lat="47.55394" lon="6.72779">
        <ele>377</ele>
        <time>2016-07-28T12:59:10.000Z</time>
      </trkpt>
      <trkpt lat="47.55398" lon="6.72772">
        <ele>377</ele>
        <time>2016-07-28T12:59:11.000Z</time>
      </trkpt>
      <trkpt lat="47.55403" lon="6.72767">
        <ele>377</ele>
        <time>2016-07-28T12:59:12.000Z</time>
      </trkpt>
      <trkpt lat="47.55407" lon="6.72762">
        <ele>376</ele>
        <time>2016-07-28T12:59:13.000Z</time>
      </trkpt>
      <trkpt lat="47.55412" lon="6.72758">
        <ele>376</ele>
        <time>2016-07-28T12:59:13.998Z</time>
      </trkpt>
      <trkpt lat="47.55418" lon="6.72753">
        <ele>375</ele>
        <time>2016-07-28T12:59:15.000Z</time>
      </trkpt>
      <trkpt lat="47.55422" lon="6.72749">
        <ele>375</ele>
        <time>2016-07-28T12:59:16.000Z</time>
      </trkpt>
      <trkpt lat="47.55428" lon="6.72747">
        <ele>375</ele>
        <time>2016-07-28T12:59:17.000Z</time>
      </trkpt>
      <trkpt lat="47.55434" lon="6.72746">
        <ele>375</ele>
        <time>2016-07-28T12:59:18.000Z</time>
      </trkpt>
      <trkpt lat="47.5544" lon="6.72744">
        <ele>375</ele>
        <time>2016-07-28T12:59:19.000Z</time>
      </trkpt>
      <trkpt lat="47.55446" lon="6.72742">
        <ele>375</ele>
        <time>2016-07-28T12:59:20.000Z</time>
      </trkpt>
      <trkpt lat="47.55451" lon="6.7274">
        <ele>375</ele>
        <time>2016-07-28T12:59:21.000Z</time>
      </trkpt>
      <trkpt lat="47.55456" lon="6.72739">
        <ele>375</ele>
        <time>2016-07-28T12:59:22.000Z</time>
      </trkpt>
      <trkpt lat="47.55465" lon="6.72729">
        <ele>375</ele>
        <time>2016-07-28T12:59:23.000Z</time>
      </trkpt>
      <trkpt lat="47.5547" lon="6.72722">
        <ele>375</ele>
        <time>2016-07-28T12:59:24.000Z</time>
      </trkpt>
      <trkpt lat="47.55475" lon="6.72714">
        <ele>375</ele>
        <time>2016-07-28T12:59:24.999Z</time>
      </trkpt>
      <trkpt lat="47.55478" lon="6.72706">
        <ele>375</ele>
        <time>2016-07-28T12:59:26.000Z</time>
      </trkpt>
      <trkpt lat="47.5548" lon="6.72694">
        <ele>374</ele>
        <time>2016-07-28T12:59:27.000Z</time>
      </trkpt>
      <trkpt lat="47.55482" lon="6.72685">
        <ele>374</ele>
        <time>2016-07-28T12:59:28.000Z</time>
      </trkpt>
      <trkpt lat="47.55483" lon="6.72675">
        <ele>374</ele>
        <time>2016-07-28T12:59:29.000Z</time>
      </trkpt>
      <trkpt lat="47.55484" lon="6.72665">
        <ele>373</ele>
        <time>2016-07-28T12:59:30.000Z</time>
      </trkpt>
      <trkpt lat="47.55487" lon="6.72656">
        <ele>373</ele>
        <time>2016-07-28T12:59:31.000Z</time>
      </trkpt>
      <trkpt lat="47.55488" lon="6.72647">
        <ele>373</ele>
        <time>2016-07-28T12:59:32.000Z</time>
      </trkpt>
      <trkpt lat="47.55491" lon="6.7264">
        <ele>373</ele>
        <time>2016-07-28T12:59:33.000Z</time>
      </trkpt>
      <trkpt lat="47.55494" lon="6.72632">
        <ele>373</ele>
        <time>2016-07-28T12:59:34.000Z</time>
      </trkpt>
      <trkpt lat="47.55497" lon="6.72624">
        <ele>373</ele>
        <time>2016-07-28T12:59:35.000Z</time>
      </trkpt>
      <trkpt lat="47.55497" lon="6.72617">
        <ele>372</ele>
        <time>2016-07-28T12:59:36.000Z</time>
      </trkpt>
      <trkpt lat="47.55494" lon="6.72611">
        <ele>372</ele>
        <time>2016-07-28T12:59:37.000Z</time>
      </trkpt>
      <trkpt lat="47.5549" lon="6.72606">
        <ele>372</ele>
        <time>2016-07-28T12:59:38.000Z</time>
      </trkpt>
      <trkpt lat="47.55485" lon="6.72603">
        <ele>372</ele>
        <time>2016-07-28T12:59:39.000Z</time>
      </trkpt>
      <trkpt lat="47.5548" lon="6.72598">
        <ele>372</ele>
        <time>2016-07-28T12:59:40.000Z</time>
      </trkpt>
      <trkpt lat="47.55475" lon="6.72595">
        <ele>372</ele>
        <time>2016-07-28T12:59:41.000Z</time>
      </trkpt>
      <trkpt lat="47.55469" lon="6.7259">
        <ele>372</ele>
        <time>2016-07-28T12:59:42.000Z</time>
      </trkpt>
      <trkpt lat="47.55463" lon="6.72585">
        <ele>372</ele>
        <time>2016-07-28T12:59:43.000Z</time>
      </trkpt>
      <trkpt lat="47.55458" lon="6.72581">
        <ele>371</ele>
        <time>2016-07-28T12:59:44.000Z</time>
      </trkpt>
      <trkpt lat="47.55452" lon="6.72577">
        <ele>371</ele>
        <time>2016-07-28T12:59:45.000Z</time>
      </trkpt>
      <trkpt lat="47.55445" lon="6.72574">
        <ele>371</ele>
        <time>2016-07-28T12:59:46.000Z</time>
      </trkpt>
      <trkpt lat="47.5544" lon="6.72569">
        <ele>371</ele>
        <time>2016-07-28T12:59:47.000Z</time>
      </trkpt>
      <trkpt lat="47.55435" lon="6.72565">
        <ele>371</ele>
        <time>2016-07-28T12:59:48.000Z</time>
      </trkpt>
      <trkpt lat="47.55429" lon="6.72561">
        <ele>371</ele>
        <time>2016-07-28T12:59:49.000Z</time>
      </trkpt>
      <trkpt lat="47.55423" lon="6.72557">
        <ele>371</ele>
        <time>2016-07-28T12:59:50.000Z</time>
      </trkpt>
      <trkpt lat="47.55418" lon="6.72552">
        <ele>371</ele>
        <time>2016-07-28T12:59:51.000Z</time>
      </trkpt>
      <trkpt lat="47.55412" lon="6.72548">
        <ele>370</ele>
        <time>2016-07-28T12:59:52.000Z</time>
      </trkpt>
      <trkpt lat="47.55407" lon="6.72544">
        <ele>370</ele>
        <time>2016-07-28T12:59:53.000Z</time>
      </trkpt>
      <trkpt lat="47.55402" lon="6.7254">
        <ele>370</ele>
        <time>2016-07-28T12:59:54.000Z</time>
      </trkpt>
      <trkpt lat="47.55396" lon="6.72534">
        <ele>370</ele>
        <time>2016-07-28T12:59:55.000Z</time>
      </trkpt>
      <trkpt lat="47.55391" lon="6.7253">
        <ele>370</ele>
        <time>2016-07-28T12:59:56.000Z</time>
      </trkpt>
      <trkpt lat="47.55385" lon="6.72526">
        <ele>370</ele>
        <time>2016-07-28T12:59:57.000Z</time>
      </trkpt>
      <trkpt lat="47.5538" lon="6.72522">
        <ele>370</ele>
        <time>2016-07-28T12:59:58.000Z</time>
      </trkpt>
      <trkpt lat="47.55374" lon="6.72517">
        <ele>370</ele>
        <time>2016-07-28T12:59:59.000Z</time>
      </trkpt>
      <trkpt lat="47.55369" lon="6.72512">
        <ele>370</ele>
        <time>2016-07-28T13:00:00.000Z</time>
      </trkpt>
      <trkpt lat="47.55363" lon="6.72508">
        <ele>370</ele>
        <time>2016-07-28T13:00:01.000Z</time>
      </trkpt>
      <trkpt lat="47.55358" lon="6.72504">
        <ele>370</ele>
        <time>2016-07-28T13:00:02.000Z</time>
      </trkpt>
      <trkpt lat="47.55352" lon="6.72501">
        <ele>370</ele>
        <time>2016-07-28T13:00:03.000Z</time>
      </trkpt>
      <trkpt lat="47.55347" lon="6.72497">
        <ele>371</ele>
        <time>2016-07-28T13:00:04.000Z</time>
      </trkpt>
      <trkpt lat="47.55341" lon="6.72493">
        <ele>370</ele>
        <time>2016-07-28T13:00:05.000Z</time>
      </trkpt>
      <trkpt lat="47.55337" lon="6.72489">
        <ele>370</ele>
        <time>2016-07-28T13:00:06.000Z</time>
      </trkpt>
      <trkpt lat="47.55332" lon="6.72485">
        <ele>370</ele>
        <time>2016-07-28T13:00:07.000Z</time>
      </trkpt>
      <trkpt lat="47.55327" lon="6.72481">
        <ele>370</ele>
        <time>2016-07-28T13:00:08.000Z</time>
      </trkpt>
      <trkpt lat="47.55322" lon="6.72475">
        <ele>370</ele>
        <time>2016-07-28T13:00:09.000Z</time>
      </trkpt>
      <trkpt lat="47.55316" lon="6.7247">
        <ele>370</ele>
        <time>2016-07-28T13:00:10.000Z</time>
      </trkpt>
      <trkpt lat="47.55311" lon="6.72465">
        <ele>370</ele>
        <time>2016-07-28T13:00:11.000Z</time>
      </trkpt>
      <trkpt lat="47.55307" lon="6.7246">
        <ele>370</ele>
        <time>2016-07-28T13:00:12.000Z</time>
      </trkpt>
      <trkpt lat="47.55302" lon="6.72454">
        <ele>370</ele>
        <time>2016-07-28T13:00:13.000Z</time>
      </trkpt>
      <trkpt lat="47.55297" lon="6.72449">
        <ele>370</ele>
        <time>2016-07-28T13:00:14.000Z</time>
      </trkpt>
      <trkpt lat="47.55292" lon="6.72443">
        <ele>370</ele>
        <time>2016-07-28T13:00:15.000Z</time>
      </trkpt>
      <trkpt lat="47.55287" lon="6.72437">
        <ele>370</ele>
        <time>2016-07-28T13:00:16.000Z</time>
      </trkpt>
      <trkpt lat="47.55283" lon="6.72432">
        <ele>370</ele>
        <time>2016-07-28T13:00:17.000Z</time>
      </trkpt>
      <trkpt lat="47.55278" lon="6.72426">
        <ele>370</ele>
        <time>2016-07-28T13:00:18.000Z</time>
      </trkpt>
      <trkpt lat="47.55273" lon="6.7242">
        <ele>370</ele>
        <time>2016-07-28T13:00:19.000Z</time>
      </trkpt>
      <trkpt lat="47.55268" lon="6.72415">
        <ele>370</ele>
        <time>2016-07-28T13:00:20.000Z</time>
      </trkpt>
      <trkpt lat="47.55264" lon="6.72409">
        <ele>370</ele>
        <time>2016-07-28T13:00:21.000Z</time>
      </trkpt>
      <trkpt lat="47.55259" lon="6.72404">
        <ele>370</ele>
        <time>2016-07-28T13:00:22.000Z</time>
      </trkpt>
      <trkpt lat="47.55254" lon="6.72398">
        <ele>370</ele>
        <time>2016-07-28T13:00:23.000Z</time>
      </trkpt>
      <trkpt lat="47.55249" lon="6.72392">
        <ele>369</ele>
        <time>2016-07-28T13:00:24.000Z</time>
      </trkpt>
      <trkpt lat="47.55245" lon="6.72386">
        <ele>369</ele>
        <time>2016-07-28T13:00:25.000Z</time>
      </trkpt>
      <trkpt lat="47.55241" lon="6.7238">
        <ele>369</ele>
        <time>2016-07-28T13:00:26.000Z</time>
      </trkpt>
      <trkpt lat="47.55237" lon="6.72374">
        <ele>369</ele>
        <time>2016-07-28T13:00:27.000Z</time>
      </trkpt>
      <trkpt lat="47.55233" lon="6.72368">
        <ele>369</ele>
        <time>2016-07-28T13:00:28.000Z</time>
      </trkpt>
      <trkpt lat="47.55228" lon="6.72362">
        <ele>369</ele>
        <time>2016-07-28T13:00:29.000Z</time>
      </trkpt>
      <trkpt lat="47.55224" lon="6.72357">
        <ele>369</ele>
        <time>2016-07-28T13:00:30.000Z</time>
      </trkpt>
      <trkpt lat="47.55219" lon="6.72352">
        <ele>368</ele>
        <time>2016-07-28T13:00:31.000Z</time>
      </trkpt>
      <trkpt lat="47.55215" lon="6.72346">
        <ele>368</ele>
        <time>2016-07-28T13:00:32.000Z</time>
      </trkpt>
      <trkpt lat="47.55211" lon="6.72339">
        <ele>368</ele>
        <time>2016-07-28T13:00:33.000Z</time>
      </trkpt>
      <trkpt lat="47.55207" lon="6.72334">
        <ele>368</ele>
        <time>2016-07-28T13:00:34.000Z</time>
      </trkpt>
      <trkpt lat="47.55202" lon="6.72327">
        <ele>368</ele>
        <time>2016-07-28T13:00:35.000Z</time>
      </trkpt>
      <trkpt lat="47.55198" lon="6.72321">
        <ele>368</ele>
        <time>2016-07-28T13:00:36.000Z</time>
      </trkpt>
      <trkpt lat="47.55195" lon="6.72314">
        <ele>368</ele>
        <time>2016-07-28T13:00:37.000Z</time>
      </trkpt>
      <trkpt lat="47.55191" lon="6.72306">
        <ele>368</ele>
        <time>2016-07-28T13:00:38.000Z</time>
      </trkpt>
      <trkpt lat="47.55187" lon="6.72299">
        <ele>367</ele>
        <time>2016-07-28T13:00:39.000Z</time>
      </trkpt>
      <trkpt lat="47.55184" lon="6.72292">
        <ele>367</ele>
        <time>2016-07-28T13:00:40.000Z</time>
      </trkpt>
      <trkpt lat="47.5518" lon="6.72285">
        <ele>367</ele>
        <time>2016-07-28T13:00:41.000Z</time>
      </trkpt>
      <trkpt lat="47.55176" lon="6.72278">
        <ele>367</ele>
        <time>2016-07-28T13:00:42.000Z</time>
      </trkpt>
      <trkpt lat="47.55172" lon="6.72271">
        <ele>367</ele>
        <time>2016-07-28T13:00:43.000Z</time>
      </trkpt>
      <trkpt lat="47.55168" lon="6.72265">
        <ele>367</ele>
        <time>2016-07-28T13:00:44.000Z</time>
      </trkpt>
      <trkpt lat="47.55165" lon="6.72258">
        <ele>366</ele>
        <time>2016-07-28T13:00:45.000Z</time>
      </trkpt>
      <trkpt lat="47.55162" lon="6.72251">
        <ele>366</ele>
        <time>2016-07-28T13:00:46.000Z</time>
      </trkpt>
      <trkpt lat="47.55158" lon="6.72244">
        <ele>366</ele>
        <time>2016-07-28T13:00:47.000Z</time>
      </trkpt>
      <trkpt lat="47.55154" lon="6.72238">
        <ele>366</ele>
        <time>2016-07-28T13:00:48.000Z</time>
      </trkpt>
      <trkpt lat="47.5515" lon="6.72232">
        <ele>366</ele>
        <time>2016-07-28T13:00:48.999Z</time>
      </trkpt>
      <trkpt lat="47.55148" lon="6.72228">
        <ele>366</ele>
        <time>2016-07-28T13:00:50.000Z</time>
      </trkpt>
      <trkpt lat="47.55145" lon="6.72222">
        <ele>366</ele>
        <time>2016-07-28T13:00:51.000Z</time>
      </trkpt>
      <trkpt lat="47.55141" lon="6.72215">
        <ele>365</ele>
        <time>2016-07-28T13:00:52.000Z</time>
      </trkpt>
      <trkpt lat="47.55136" lon="6.72206">
        <ele>365</ele>
        <time>2016-07-28T13:00:53.000Z</time>
      </trkpt>
      <trkpt lat="47.55131" lon="6.72198">
        <ele>365</ele>
        <time>2016-07-28T13:00:54.000Z</time>
      </trkpt>
      <trkpt lat="47.55128" lon="6.7219">
        <ele>365</ele>
        <time>2016-07-28T13:00:55.000Z</time>
      </trkpt>
      <trkpt lat="47.55124" lon="6.72181">
        <ele>365</ele>
        <time>2016-07-28T13:00:56.000Z</time>
      </trkpt>
      <trkpt lat="47.5512" lon="6.72174">
        <ele>365</ele>
        <time>2016-07-28T13:00:57.000Z</time>
      </trkpt>
      <trkpt lat="47.55117" lon="6.72167">
        <ele>364</ele>
        <time>2016-07-28T13:00:58.000Z</time>
      </trkpt>
      <trkpt lat="47.55113" lon="6.72158">
        <ele>363</ele>
        <time>2016-07-28T13:00:59.000Z</time>
      </trkpt>
      <trkpt lat="47.5511" lon="6.72149">
        <ele>363</ele>
        <time>2016-07-28T13:01:00.000Z</time>
      </trkpt>
      <trkpt lat="47.55107" lon="6.7214">
        <ele>363</ele>
        <time>2016-07-28T13:01:01.000Z</time>
      </trkpt>
      <trkpt lat="47.55105" lon="6.72132">
        <ele>363</ele>
        <time>2016-07-28T13:01:02.000Z</time>
      </trkpt>
      <trkpt lat="47.55103" lon="6.72123">
        <ele>363</ele>
        <time>2016-07-28T13:01:03.000Z</time>
      </trkpt>
      <trkpt lat="47.55102" lon="6.72114">
        <ele>363</ele>
        <time>2016-07-28T13:01:04.000Z</time>
      </trkpt>
      <trkpt lat="47.55101" lon="6.72105">
        <ele>364</ele>
        <time>2016-07-28T13:01:05.000Z</time>
      </trkpt>
      <trkpt lat="47.55099" lon="6.72096">
        <ele>364</ele>
        <time>2016-07-28T13:01:06.000Z</time>
      </trkpt>
      <trkpt lat="47.55097" lon="6.72087">
        <ele>364</ele>
        <time>2016-07-28T13:01:07.000Z</time>
      </trkpt>
      <trkpt lat="47.55097" lon="6.72079">
        <ele>364</ele>
        <time>2016-07-28T13:01:08.000Z</time>
      </trkpt>
      <trkpt lat="47.55095" lon="6.72073">
        <ele>364</ele>
        <time>2016-07-28T13:01:09.000Z</time>
      </trkpt>
      <trkpt lat="47.55095" lon="6.72066">
        <ele>364</ele>
        <time>2016-07-28T13:01:10.000Z</time>
      </trkpt>
      <trkpt lat="47.55095" lon="6.7206">
        <ele>365</ele>
        <time>2016-07-28T13:01:11.000Z</time>
      </trkpt>
      <trkpt lat="47.55094" lon="6.72056">
        <ele>365</ele>
        <time>2016-07-28T13:01:12.000Z</time>
      </trkpt>
      <trkpt lat="47.55093" lon="6.7205">
        <ele>365</ele>
        <time>2016-07-28T13:01:13.000Z</time>
      </trkpt>
      <trkpt lat="47.55092" lon="6.72046">
        <ele>365</ele>
        <time>2016-07-28T13:01:14.001Z</time>
      </trkpt>
      <trkpt lat="47.55091" lon="6.7204">
        <ele>365</ele>
        <time>2016-07-28T13:01:15.000Z</time>
      </trkpt>
      <trkpt lat="47.5509" lon="6.72036">
        <ele>365</ele>
        <time>2016-07-28T13:01:16.000Z</time>
      </trkpt>
      <trkpt lat="47.55089" lon="6.72032">
        <ele>365</ele>
        <time>2016-07-28T13:01:17.000Z</time>
      </trkpt>
      <trkpt lat="47.55088" lon="6.72028">
        <ele>365</ele>
        <time>2016-07-28T13:01:18.000Z</time>
      </trkpt>
      <trkpt lat="47.55087" lon="6.72024">
        <ele>366</ele>
        <time>2016-07-28T13:01:19.105Z</time>
      </trkpt>
      <trkpt lat="47.55085" lon="6.72019">
        <ele>366</ele>
        <time>2016-07-28T13:01:21.000Z</time>
      </trkpt>
      <trkpt lat="47.55084" lon="6.72016">
        <ele>366</ele>
        <time>2016-07-28T13:01:22.000Z</time>
      </trkpt>
      <trkpt lat="47.55083" lon="6.72012">
        <ele>367</ele>
        <time>2016-07-28T13:01:23.000Z</time>
      </trkpt>
      <trkpt lat="47.55081" lon="6.72009">
        <ele>367</ele>
        <time>2016-07-28T13:01:24.000Z</time>
      </trkpt>
      <trkpt lat="47.5508" lon="6.72005">
        <ele>367</ele>
        <time>2016-07-28T13:01:25.000Z</time>
      </trkpt>
      <trkpt lat="47.55079" lon="6.72002">
        <ele>367</ele>
        <time>2016-07-28T13:01:26.102Z</time>
      </trkpt>
      <trkpt lat="47.55078" lon="6.71998">
        <ele>368</ele>
        <time>2016-07-28T13:01:27.000Z</time>
      </trkpt>
      <trkpt lat="47.55077" lon="6.71994">
        <ele>368</ele>
        <time>2016-07-28T13:01:28.000Z</time>
      </trkpt>
      <trkpt lat="47.55075" lon="6.71986">
        <ele>369</ele>
        <time>2016-07-28T13:01:30.000Z</time>
      </trkpt>
      <trkpt lat="47.55074" lon="6.71981">
        <ele>369</ele>
        <time>2016-07-28T13:01:31.000Z</time>
      </trkpt>
      <trkpt lat="47.55073" lon="6.71977">
        <ele>369</ele>
        <time>2016-07-28T13:01:32.000Z</time>
      </trkpt>
      <trkpt lat="47.55072" lon="6.71973">
        <ele>369</ele>
        <time>2016-07-28T13:01:33.000Z</time>
      </trkpt>
      <trkpt lat="47.55071" lon="6.71968">
        <ele>370</ele>
        <time>2016-07-28T13:01:34.000Z</time>
      </trkpt>
      <trkpt lat="47.55071" lon="6.71963">
        <ele>370</ele>
        <time>2016-07-28T13:01:35.000Z</time>
      </trkpt>
      <trkpt lat="47.55071" lon="6.71958">
        <ele>370</ele>
        <time>2016-07-28T13:01:36.000Z</time>
      </trkpt>
      <trkpt lat="47.5507" lon="6.71953">
        <ele>370</ele>
        <time>2016-07-28T13:01:36.999Z</time>
      </trkpt>
      <trkpt lat="47.5507" lon="6.71947">
        <ele>370</ele>
        <time>2016-07-28T13:01:38.000Z</time>
      </trkpt>
      <trkpt lat="47.5507" lon="6.71941">
        <ele>370</ele>
        <time>2016-07-28T13:01:39.000Z</time>
      </trkpt>
      <trkpt lat="47.5507" lon="6.71936">
        <ele>370</ele>
        <time>2016-07-28T13:01:40.000Z</time>
      </trkpt>
      <trkpt lat="47.5507" lon="6.71932">
        <ele>370</ele>
        <time>2016-07-28T13:01:41.000Z</time>
      </trkpt>
      <trkpt lat="47.55069" lon="6.71928">
        <ele>370</ele>
        <time>2016-07-28T13:01:42.000Z</time>
      </trkpt>
      <trkpt lat="47.55068" lon="6.71924">
        <ele>370</ele>
        <time>2016-07-28T13:01:43.000Z</time>
      </trkpt>
      <trkpt lat="47.55067" lon="6.7192">
        <ele>370</ele>
        <time>2016-07-28T13:01:44.000Z</time>
      </trkpt>
      <trkpt lat="47.55065" lon="6.71914">
        <ele>371</ele>
        <time>2016-07-28T13:01:46.000Z</time>
      </trkpt>
      <trkpt lat="47.55064" lon="6.71912">
        <ele>371</ele>
        <time>2016-07-28T13:01:47.000Z</time>
      </trkpt>
      <trkpt lat="47.55063" lon="6.71909">
        <ele>371</ele>
        <time>2016-07-28T13:01:48.000Z</time>
      </trkpt>
      <trkpt lat="47.55062" lon="6.71906">
        <ele>371</ele>
        <time>2016-07-28T13:01:49.000Z</time>
      </trkpt>
      <trkpt lat="47.55061" lon="6.71902">
        <ele>371</ele>
        <time>2016-07-28T13:01:50.000Z</time>
      </trkpt>
      <trkpt lat="47.5506" lon="6.71897">
        <ele>372</ele>
        <time>2016-07-28T13:01:51.000Z</time>
      </trkpt>
      <trkpt lat="47.55058" lon="6.71893">
        <ele>372</ele>
        <time>2016-07-28T13:01:52.000Z</time>
      </trkpt>
      <trkpt lat="47.55057" lon="6.71889">
        <ele>372</ele>
        <time>2016-07-28T13:01:53.000Z</time>
      </trkpt>
      <trkpt lat="47.55056" lon="6.71884">
        <ele>372</ele>
        <time>2016-07-28T13:01:54.000Z</time>
      </trkpt>
      <trkpt lat="47.55054" lon="6.71879">
        <ele>372</ele>
        <time>2016-07-28T13:01:55.000Z</time>
      </trkpt>
      <trkpt lat="47.55053" lon="6.71875">
        <ele>372</ele>
        <time>2016-07-28T13:01:56.000Z</time>
      </trkpt>
      <trkpt lat="47.55052" lon="6.71871">
        <ele>372</ele>
        <time>2016-07-28T13:01:57.000Z</time>
      </trkpt>
      <trkpt lat="47.55051" lon="6.71867">
        <ele>372</ele>
        <time>2016-07-28T13:01:58.000Z</time>
      </trkpt>
      <trkpt lat="47.55049" lon="6.71862">
        <ele>372</ele>
        <time>2016-07-28T13:01:59.000Z</time>
      </trkpt>
      <trkpt lat="47.55048" lon="6.71858">
        <ele>372</ele>
        <time>2016-07-28T13:02:00.000Z</time>
      </trkpt>
      <trkpt lat="47.55047" lon="6.71853">
        <ele>372</ele>
        <time>2016-07-28T13:02:01.000Z</time>
      </trkpt>
      <trkpt lat="47.55045" lon="6.71849">
        <ele>372</ele>
        <time>2016-07-28T13:02:02.000Z</time>
      </trkpt>
      <trkpt lat="47.55044" lon="6.71844">
        <ele>372</ele>
        <time>2016-07-28T13:02:03.000Z</time>
      </trkpt>
      <trkpt lat="47.55043" lon="6.71839">
        <ele>372</ele>
        <time>2016-07-28T13:02:04.000Z</time>
      </trkpt>
      <trkpt lat="47.55042" lon="6.71834">
        <ele>372</ele>
        <time>2016-07-28T13:02:05.000Z</time>
      </trkpt>
      <trkpt lat="47.55041" lon="6.71829">
        <ele>372</ele>
        <time>2016-07-28T13:02:06.000Z</time>
      </trkpt>
      <trkpt lat="47.5504" lon="6.71824">
        <ele>372</ele>
        <time>2016-07-28T13:02:07.000Z</time>
      </trkpt>
      <trkpt lat="47.55039" lon="6.71818">
        <ele>372</ele>
        <time>2016-07-28T13:02:08.000Z</time>
      </trkpt>
      <trkpt lat="47.55038" lon="6.71813">
        <ele>372</ele>
        <time>2016-07-28T13:02:09.000Z</time>
      </trkpt>
      <trkpt lat="47.55038" lon="6.71807">
        <ele>372</ele>
        <time>2016-07-28T13:02:10.000Z</time>
      </trkpt>
      <trkpt lat="47.55038" lon="6.71801">
        <ele>372</ele>
        <time>2016-07-28T13:02:11.000Z</time>
      </trkpt>
      <trkpt lat="47.55038" lon="6.71795">
        <ele>372</ele>
        <time>2016-07-28T13:02:12.000Z</time>
      </trkpt>
      <trkpt lat="47.55038" lon="6.71789">
        <ele>372</ele>
        <time>2016-07-28T13:02:13.000Z</time>
      </trkpt>
      <trkpt lat="47.55038" lon="6.71782">
        <ele>372</ele>
        <time>2016-07-28T13:02:14.000Z</time>
      </trkpt>
      <trkpt lat="47.55039" lon="6.71775">
        <ele>372</ele>
        <time>2016-07-28T13:02:15.000Z</time>
      </trkpt>
      <trkpt lat="47.55039" lon="6.71769">
        <ele>372</ele>
        <time>2016-07-28T13:02:16.000Z</time>
      </trkpt>
      <trkpt lat="47.5504" lon="6.71762">
        <ele>372</ele>
        <time>2016-07-28T13:02:17.000Z</time>
      </trkpt>
      <trkpt lat="47.5504" lon="6.71756">
        <ele>372</ele>
        <time>2016-07-28T13:02:18.000Z</time>
      </trkpt>
      <trkpt lat="47.5504" lon="6.71749">
        <ele>372</ele>
        <time>2016-07-28T13:02:19.000Z</time>
      </trkpt>
      <trkpt lat="47.55041" lon="6.71743">
        <ele>372</ele>
        <time>2016-07-28T13:02:20.000Z</time>
      </trkpt>
      <trkpt lat="47.55041" lon="6.71736">
        <ele>372</ele>
        <time>2016-07-28T13:02:21.000Z</time>
      </trkpt>
      <trkpt lat="47.55041" lon="6.7173">
        <ele>372</ele>
        <time>2016-07-28T13:02:22.000Z</time>
      </trkpt>
      <trkpt lat="47.55041" lon="6.71724">
        <ele>372</ele>
        <time>2016-07-28T13:02:23.000Z</time>
      </trkpt>
      <trkpt lat="47.55041" lon="6.71718">
        <ele>372</ele>
        <time>2016-07-28T13:02:24.000Z</time>
      </trkpt>
      <trkpt lat="47.55042" lon="6.71712">
        <ele>372</ele>
        <time>2016-07-28T13:02:25.000Z</time>
      </trkpt>
      <trkpt lat="47.55042" lon="6.71705">
        <ele>372</ele>
        <time>2016-07-28T13:02:26.000Z</time>
      </trkpt>
      <trkpt lat="47.55042" lon="6.71699">
        <ele>372</ele>
        <time>2016-07-28T13:02:27.000Z</time>
      </trkpt>
      <trkpt lat="47.55043" lon="6.71693">
        <ele>372</ele>
        <time>2016-07-28T13:02:28.000Z</time>
      </trkpt>
      <trkpt lat="47.55043" lon="6.71687">
        <ele>372</ele>
        <time>2016-07-28T13:02:29.000Z</time>
      </trkpt>
      <trkpt lat="47.55043" lon="6.71682">
        <ele>372</ele>
        <time>2016-07-28T13:02:30.000Z</time>
      </trkpt>
      <trkpt lat="47.55043" lon="6.71676">
        <ele>372</ele>
        <time>2016-07-28T13:02:31.000Z</time>
      </trkpt>
      <trkpt lat="47.55043" lon="6.7167">
        <ele>372</ele>
        <time>2016-07-28T13:02:32.000Z</time>
      </trkpt>
      <trkpt lat="47.55044" lon="6.71665">
        <ele>373</ele>
        <time>2016-07-28T13:02:33.000Z</time>
      </trkpt>
      <trkpt lat="47.55044" lon="6.71659">
        <ele>373</ele>
        <time>2016-07-28T13:02:34.000Z</time>
      </trkpt>
      <trkpt lat="47.55045" lon="6.71654">
        <ele>373</ele>
        <time>2016-07-28T13:02:35.000Z</time>
      </trkpt>
      <trkpt lat="47.55045" lon="6.71649">
        <ele>373</ele>
        <time>2016-07-28T13:02:36.000Z</time>
      </trkpt>
      <trkpt lat="47.55045" lon="6.71644">
        <ele>373</ele>
        <time>2016-07-28T13:02:37.000Z</time>
      </trkpt>
      <trkpt lat="47.55046" lon="6.7164">
        <ele>373</ele>
        <time>2016-07-28T13:02:38.000Z</time>
      </trkpt>
      <trkpt lat="47.55046" lon="6.71635">
        <ele>373</ele>
        <time>2016-07-28T13:02:39.000Z</time>
      </trkpt>
      <trkpt lat="47.55047" lon="6.71631">
        <ele>373</ele>
        <time>2016-07-28T13:02:40.000Z</time>
      </trkpt>
      <trkpt lat="47.55047" lon="6.71626">
        <ele>373</ele>
        <time>2016-07-28T13:02:41.000Z</time>
      </trkpt>
      <trkpt lat="47.55047" lon="6.71621">
        <ele>373</ele>
        <time>2016-07-28T13:02:42.000Z</time>
      </trkpt>
      <trkpt lat="47.55047" lon="6.71617">
        <ele>373</ele>
        <time>2016-07-28T13:02:43.000Z</time>
      </trkpt>
      <trkpt lat="47.55048" lon="6.71612">
        <ele>373</ele>
        <time>2016-07-28T13:02:44.000Z</time>
      </trkpt>
      <trkpt lat="47.55048" lon="6.71607">
        <ele>373</ele>
        <time>2016-07-28T13:02:45.000Z</time>
      </trkpt>
      <trkpt lat="47.55048" lon="6.71603">
        <ele>373</ele>
        <time>2016-07-28T13:02:46.000Z</time>
      </trkpt>
      <trkpt lat="47.55049" lon="6.71598">
        <ele>373</ele>
        <time>2016-07-28T13:02:47.000Z</time>
      </trkpt>
      <trkpt lat="47.55049" lon="6.71594">
        <ele>374</ele>
        <time>2016-07-28T13:02:48.000Z</time>
      </trkpt>
      <trkpt lat="47.55049" lon="6.7159">
        <ele>374</ele>
        <time>2016-07-28T13:02:49.000Z</time>
      </trkpt>
      <trkpt lat="47.5505" lon="6.71586">
        <ele>374</ele>
        <time>2016-07-28T13:02:50.000Z</time>
      </trkpt>
      <trkpt lat="47.5505" lon="6.71581">
        <ele>376</ele>
        <time>2016-07-28T13:02:51.000Z</time>
      </trkpt>
      <trkpt lat="47.55051" lon="6.71577">
        <ele>376</ele>
        <time>2016-07-28T13:02:52.000Z</time>
      </trkpt>
      <trkpt lat="47.55052" lon="6.71573">
        <ele>376</ele>
        <time>2016-07-28T13:02:53.000Z</time>
      </trkpt>
      <trkpt lat="47.55053" lon="6.7157">
        <ele>376</ele>
        <time>2016-07-28T13:02:54.000Z</time>
      </trkpt>
      <trkpt lat="47.55053" lon="6.71566">
        <ele>376</ele>
        <time>2016-07-28T13:02:55.000Z</time>
      </trkpt>
      <trkpt lat="47.55054" lon="6.71562">
        <ele>376</ele>
        <time>2016-07-28T13:02:56.000Z</time>
      </trkpt>
      <trkpt lat="47.55054" lon="6.71558">
        <ele>376</ele>
        <time>2016-07-28T13:02:57.000Z</time>
      </trkpt>
      <trkpt lat="47.55054" lon="6.71554">
        <ele>376</ele>
        <time>2016-07-28T13:02:58.000Z</time>
      </trkpt>
      <trkpt lat="47.55055" lon="6.7155">
        <ele>377</ele>
        <time>2016-07-28T13:02:59.000Z</time>
      </trkpt>
      <trkpt lat="47.55055" lon="6.71546">
        <ele>377</ele>
        <time>2016-07-28T13:03:00.000Z</time>
      </trkpt>
      <trkpt lat="47.55055" lon="6.71542">
        <ele>377</ele>
        <time>2016-07-28T13:03:01.000Z</time>
      </trkpt>
      <trkpt lat="47.55056" lon="6.71538">
        <ele>377</ele>
        <time>2016-07-28T13:03:02.000Z</time>
      </trkpt>
      <trkpt lat="47.55056" lon="6.71534">
        <ele>377</ele>
        <time>2016-07-28T13:03:03.000Z</time>
      </trkpt>
      <trkpt lat="47.55056" lon="6.71531">
        <ele>377</ele>
        <time>2016-07-28T13:03:04.000Z</time>
      </trkpt>
      <trkpt lat="47.55056" lon="6.71527">
        <ele>377</ele>
        <time>2016-07-28T13:03:05.000Z</time>
      </trkpt>
      <trkpt lat="47.55056" lon="6.71524">
        <ele>377</ele>
        <time>2016-07-28T13:03:06.000Z</time>
      </trkpt>
      <trkpt lat="47.55057" lon="6.71521">
        <ele>378</ele>
        <time>2016-07-28T13:03:07.000Z</time>
      </trkpt>
      <trkpt lat="47.55058" lon="6.71517">
        <ele>378</ele>
        <time>2016-07-28T13:03:08.000Z</time>
      </trkpt>
      <trkpt lat="47.55059" lon="6.71513">
        <ele>378</ele>
        <time>2016-07-28T13:03:09.000Z</time>
      </trkpt>
      <trkpt lat="47.5506" lon="6.7151">
        <ele>378</ele>
        <time>2016-07-28T13:03:10.000Z</time>
      </trkpt>
      <trkpt lat="47.55062" lon="6.71506">
        <ele>378</ele>
        <time>2016-07-28T13:03:11.000Z</time>
      </trkpt>
      <trkpt lat="47.55063" lon="6.71502">
        <ele>379</ele>
        <time>2016-07-28T13:03:12.000Z</time>
      </trkpt>
      <trkpt lat="47.55063" lon="6.71499">
        <ele>381</ele>
        <time>2016-07-28T13:03:13.000Z</time>
      </trkpt>
      <trkpt lat="47.55064" lon="6.71496">
        <ele>381</ele>
        <time>2016-07-28T13:03:14.000Z</time>
      </trkpt>
      <trkpt lat="47.55065" lon="6.71492">
        <ele>381</ele>
        <time>2016-07-28T13:03:15.000Z</time>
      </trkpt>
      <trkpt lat="47.55065" lon="6.71488">
        <ele>381</ele>
        <time>2016-07-28T13:03:16.000Z</time>
      </trkpt>
      <trkpt lat="47.55066" lon="6.71485">
        <ele>381</ele>
        <time>2016-07-28T13:03:17.000Z</time>
      </trkpt>
      <trkpt lat="47.55066" lon="6.71481">
        <ele>381</ele>
        <time>2016-07-28T13:03:18.000Z</time>
      </trkpt>
      <trkpt lat="47.55067" lon="6.71478">
        <ele>381</ele>
        <time>2016-07-28T13:03:19.000Z</time>
      </trkpt>
      <trkpt lat="47.5507" lon="6.71473">
        <ele>381</ele>
        <time>2016-07-28T13:03:21.000Z</time>
      </trkpt>
      <trkpt lat="47.55071" lon="6.71471">
        <ele>381</ele>
        <time>2016-07-28T13:03:22.000Z</time>
      </trkpt>
      <trkpt lat="47.55073" lon="6.71465">
        <ele>381</ele>
        <time>2016-07-28T13:03:24.000Z</time>
      </trkpt>
      <trkpt lat="47.55074" lon="6.71462">
        <ele>381</ele>
        <time>2016-07-28T13:03:25.000Z</time>
      </trkpt>
      <trkpt lat="47.55076" lon="6.71456">
        <ele>381</ele>
        <time>2016-07-28T13:03:27.000Z</time>
      </trkpt>
      <trkpt lat="47.55077" lon="6.71453">
        <ele>381</ele>
        <time>2016-07-28T13:03:28.000Z</time>
      </trkpt>
      <trkpt lat="47.55079" lon="6.71448">
        <ele>382</ele>
        <time>2016-07-28T13:03:30.000Z</time>
      </trkpt>
      <trkpt lat="47.5508" lon="6.71445">
        <ele>382</ele>
        <time>2016-07-28T13:03:31.000Z</time>
      </trkpt>
      <trkpt lat="47.55082" lon="6.7144">
        <ele>382</ele>
        <time>2016-07-28T13:03:33.000Z</time>
      </trkpt>
      <trkpt lat="47.55083" lon="6.71438">
        <ele>382</ele>
        <time>2016-07-28T13:03:34.000Z</time>
      </trkpt>
      <trkpt lat="47.55086" lon="6.71433">
        <ele>384</ele>
        <time>2016-07-28T13:03:36.000Z</time>
      </trkpt>
      <trkpt lat="47.55087" lon="6.7143">
        <ele>384</ele>
        <time>2016-07-28T13:03:37.000Z</time>
      </trkpt>
      <trkpt lat="47.55089" lon="6.71425">
        <ele>384</ele>
        <time>2016-07-28T13:03:39.000Z</time>
      </trkpt>
      <trkpt lat="47.5509" lon="6.71422">
        <ele>384</ele>
        <time>2016-07-28T13:03:40.000Z</time>
      </trkpt>
      <trkpt lat="47.55091" lon="6.71419">
        <ele>384</ele>
        <time>2016-07-28T13:03:41.000Z</time>
      </trkpt>
      <trkpt lat="47.55092" lon="6.71417">
        <ele>386</ele>
        <time>2016-07-28T13:03:42.000Z</time>
      </trkpt>
      <trkpt lat="47.55093" lon="6.71414">
        <ele>386</ele>
        <time>2016-07-28T13:03:43.000Z</time>
      </trkpt>
      <trkpt lat="47.55095" lon="6.71411">
        <ele>386</ele>
        <time>2016-07-28T13:03:44.000Z</time>
      </trkpt>
      <trkpt lat="47.55097" lon="6.71406">
        <ele>387</ele>
        <time>2016-07-28T13:03:46.000Z</time>
      </trkpt>
      <trkpt lat="47.55098" lon="6.71403">
        <ele>387</ele>
        <time>2016-07-28T13:03:47.000Z</time>
      </trkpt>
      <trkpt lat="47.55101" lon="6.71398">
        <ele>388</ele>
        <time>2016-07-28T13:03:49.000Z</time>
      </trkpt>
      <trkpt lat="47.55102" lon="6.71396">
        <ele>388</ele>
        <time>2016-07-28T13:03:50.000Z</time>
      </trkpt>
      <trkpt lat="47.55106" lon="6.71392">
        <ele>388</ele>
        <time>2016-07-28T13:03:52.000Z</time>
      </trkpt>
      <trkpt lat="47.55107" lon="6.7139">
        <ele>388</ele>
        <time>2016-07-28T13:03:53.000Z</time>
      </trkpt>
      <trkpt lat="47.55108" lon="6.71387">
        <ele>388</ele>
        <time>2016-07-28T13:03:54.000Z</time>
      </trkpt>
      <trkpt lat="47.5511" lon="6.71384">
        <ele>389</ele>
        <time>2016-07-28T13:03:55.000Z</time>
      </trkpt>
      <trkpt lat="47.55112" lon="6.71378">
        <ele>389</ele>
        <time>2016-07-28T13:03:57.000Z</time>
      </trkpt>
      <trkpt lat="47.55113" lon="6.71375">
        <ele>389</ele>
        <time>2016-07-28T13:03:58.000Z</time>
      </trkpt>
      <trkpt lat="47.55114" lon="6.7137">
        <ele>389</ele>
        <time>2016-07-28T13:04:00.000Z</time>
      </trkpt>
      <trkpt lat="47.55115" lon="6.71367">
        <ele>389</ele>
        <time>2016-07-28T13:04:01.000Z</time>
      </trkpt>
      <trkpt lat="47.55117" lon="6.71363">
        <ele>390</ele>
        <time>2016-07-28T13:04:03.000Z</time>
      </trkpt>
      <trkpt lat="47.55118" lon="6.71361">
        <ele>390</ele>
        <time>2016-07-28T13:04:04.000Z</time>
      </trkpt>
      <trkpt lat="47.55121" lon="6.71356">
        <ele>390</ele>
        <time>2016-07-28T13:04:06.000Z</time>
      </trkpt>
      <trkpt lat="47.55122" lon="6.71353">
        <ele>390</ele>
        <time>2016-07-28T13:04:07.000Z</time>
      </trkpt>
      <trkpt lat="47.55123" lon="6.7135">
        <ele>390</ele>
        <time>2016-07-28T13:04:08.000Z</time>
      </trkpt>
      <trkpt lat="47.55124" lon="6.71347">
        <ele>390</ele>
        <time>2016-07-28T13:04:09.000Z</time>
      </trkpt>
      <trkpt lat="47.55126" lon="6.71341">
        <ele>391</ele>
        <time>2016-07-28T13:04:11.000Z</time>
      </trkpt>
      <trkpt lat="47.55126" lon="6.71338">
        <ele>391</ele>
        <time>2016-07-28T13:04:12.000Z</time>
      </trkpt>
      <trkpt lat="47.55128" lon="6.71333">
        <ele>393</ele>
        <time>2016-07-28T13:04:14.000Z</time>
      </trkpt>
      <trkpt lat="47.55128" lon="6.7133">
        <ele>393</ele>
        <time>2016-07-28T13:04:15.000Z</time>
      </trkpt>
      <trkpt lat="47.55129" lon="6.71323">
        <ele>393</ele>
        <time>2016-07-28T13:04:17.000Z</time>
      </trkpt>
      <trkpt lat="47.55129" lon="6.71319">
        <ele>393</ele>
        <time>2016-07-28T13:04:18.000Z</time>
      </trkpt>
      <trkpt lat="47.55128" lon="6.71315">
        <ele>393</ele>
        <time>2016-07-28T13:04:19.000Z</time>
      </trkpt>
      <trkpt lat="47.55128" lon="6.71312">
        <ele>393</ele>
        <time>2016-07-28T13:04:20.000Z</time>
      </trkpt>
      <trkpt lat="47.55128" lon="6.71308">
        <ele>393</ele>
        <time>2016-07-28T13:04:21.000Z</time>
      </trkpt>
      <trkpt lat="47.55128" lon="6.71304">
        <ele>393</ele>
        <time>2016-07-28T13:04:22.000Z</time>
      </trkpt>
      <trkpt lat="47.55128" lon="6.713">
        <ele>393</ele>
        <time>2016-07-28T13:04:23.000Z</time>
      </trkpt>
      <trkpt lat="47.55127" lon="6.71297">
        <ele>393</ele>
        <time>2016-07-28T13:04:24.000Z</time>
      </trkpt>
      <trkpt lat="47.55127" lon="6.71293">
        <ele>393</ele>
        <time>2016-07-28T13:04:25.000Z</time>
      </trkpt>
      <trkpt lat="47.55126" lon="6.7129">
        <ele>393</ele>
        <time>2016-07-28T13:04:26.000Z</time>
      </trkpt>
      <trkpt lat="47.55125" lon="6.71286">
        <ele>393</ele>
        <time>2016-07-28T13:04:27.000Z</time>
      </trkpt>
      <trkpt lat="47.55124" lon="6.71283">
        <ele>393</ele>
        <time>2016-07-28T13:04:28.000Z</time>
      </trkpt>
      <trkpt lat="47.55123" lon="6.7128">
        <ele>393</ele>
        <time>2016-07-28T13:04:29.000Z</time>
      </trkpt>
      <trkpt lat="47.55121" lon="6.71277">
        <ele>393</ele>
        <time>2016-07-28T13:04:30.000Z</time>
      </trkpt>
      <trkpt lat="47.55119" lon="6.71274">
        <ele>393</ele>
        <time>2016-07-28T13:04:31.000Z</time>
      </trkpt>
      <trkpt lat="47.55117" lon="6.71272">
        <ele>393</ele>
        <time>2016-07-28T13:04:32.000Z</time>
      </trkpt>
      <trkpt lat="47.55114" lon="6.7127">
        <ele>393</ele>
        <time>2016-07-28T13:04:33.000Z</time>
      </trkpt>
      <trkpt lat="47.55112" lon="6.71268">
        <ele>393</ele>
        <time>2016-07-28T13:04:34.000Z</time>
      </trkpt>
      <trkpt lat="47.55109" lon="6.71265">
        <ele>393</ele>
        <time>2016-07-28T13:04:35.000Z</time>
      </trkpt>
      <trkpt lat="47.55105" lon="6.71263">
        <ele>393</ele>
        <time>2016-07-28T13:04:36.000Z</time>
      </trkpt>
      <trkpt lat="47.55102" lon="6.7126">
        <ele>393</ele>
        <time>2016-07-28T13:04:37.000Z</time>
      </trkpt>
      <trkpt lat="47.55099" lon="6.71258">
        <ele>393</ele>
        <time>2016-07-28T13:04:38.000Z</time>
      </trkpt>
      <trkpt lat="47.55096" lon="6.71255">
        <ele>392</ele>
        <time>2016-07-28T13:04:39.000Z</time>
      </trkpt>
      <trkpt lat="47.55092" lon="6.71252">
        <ele>392</ele>
        <time>2016-07-28T13:04:40.000Z</time>
      </trkpt>
      <trkpt lat="47.55089" lon="6.7125">
        <ele>392</ele>
        <time>2016-07-28T13:04:41.000Z</time>
      </trkpt>
      <trkpt lat="47.55086" lon="6.71247">
        <ele>392</ele>
        <time>2016-07-28T13:04:42.000Z</time>
      </trkpt>
      <trkpt lat="47.55083" lon="6.71244">
        <ele>392</ele>
        <time>2016-07-28T13:04:43.000Z</time>
      </trkpt>
      <trkpt lat="47.55079" lon="6.71241">
        <ele>392</ele>
        <time>2016-07-28T13:04:44.000Z</time>
      </trkpt>
      <trkpt lat="47.55076" lon="6.71238">
        <ele>391</ele>
        <time>2016-07-28T13:04:45.000Z</time>
      </trkpt>
      <trkpt lat="47.55072" lon="6.71235">
        <ele>391</ele>
        <time>2016-07-28T13:04:46.000Z</time>
      </trkpt>
      <trkpt lat="47.55069" lon="6.71232">
        <ele>391</ele>
        <time>2016-07-28T13:04:47.000Z</time>
      </trkpt>
      <trkpt lat="47.55065" lon="6.71229">
        <ele>391</ele>
        <time>2016-07-28T13:04:48.000Z</time>
      </trkpt>
      <trkpt lat="47.55061" lon="6.71225">
        <ele>391</ele>
        <time>2016-07-28T13:04:49.000Z</time>
      </trkpt>
      <trkpt lat="47.55058" lon="6.71222">
        <ele>391</ele>
        <time>2016-07-28T13:04:50.000Z</time>
      </trkpt>
      <trkpt lat="47.55054" lon="6.71219">
        <ele>391</ele>
        <time>2016-07-28T13:04:51.000Z</time>
      </trkpt>
      <trkpt lat="47.55051" lon="6.71216">
        <ele>391</ele>
        <time>2016-07-28T13:04:52.000Z</time>
      </trkpt>
      <trkpt lat="47.55048" lon="6.71213">
        <ele>391</ele>
        <time>2016-07-28T13:04:53.000Z</time>
      </trkpt>
      <trkpt lat="47.55044" lon="6.71209">
        <ele>391</ele>
        <time>2016-07-28T13:04:54.000Z</time>
      </trkpt>
      <trkpt lat="47.55041" lon="6.71206">
        <ele>391</ele>
        <time>2016-07-28T13:04:55.000Z</time>
      </trkpt>
      <trkpt lat="47.55037" lon="6.71203">
        <ele>391</ele>
        <time>2016-07-28T13:04:56.000Z</time>
      </trkpt>
      <trkpt lat="47.55034" lon="6.71199">
        <ele>391</ele>
        <time>2016-07-28T13:04:57.000Z</time>
      </trkpt>
      <trkpt lat="47.5503" lon="6.71195">
        <ele>391</ele>
        <time>2016-07-28T13:04:58.000Z</time>
      </trkpt>
      <trkpt lat="47.55027" lon="6.71191">
        <ele>391</ele>
        <time>2016-07-28T13:04:59.000Z</time>
      </trkpt>
      <trkpt lat="47.55024" lon="6.71186">
        <ele>391</ele>
        <time>2016-07-28T13:05:00.000Z</time>
      </trkpt>
      <trkpt lat="47.55021" lon="6.71182">
        <ele>391</ele>
        <time>2016-07-28T13:05:01.000Z</time>
      </trkpt>
      <trkpt lat="47.55018" lon="6.71178">
        <ele>390</ele>
        <time>2016-07-28T13:05:02.000Z</time>
      </trkpt>
      <trkpt lat="47.55014" lon="6.71174">
        <ele>390</ele>
        <time>2016-07-28T13:05:03.000Z</time>
      </trkpt>
      <trkpt lat="47.55011" lon="6.7117">
        <ele>390</ele>
        <time>2016-07-28T13:05:04.000Z</time>
      </trkpt>
      <trkpt lat="47.55007" lon="6.71165">
        <ele>390</ele>
        <time>2016-07-28T13:05:05.000Z</time>
      </trkpt>
      <trkpt lat="47.55004" lon="6.71161">
        <ele>390</ele>
        <time>2016-07-28T13:05:06.000Z</time>
      </trkpt>
      <trkpt lat="47.55001" lon="6.71156">
        <ele>390</ele>
        <time>2016-07-28T13:05:07.000Z</time>
      </trkpt>
      <trkpt lat="47.54997" lon="6.71152">
        <ele>391</ele>
        <time>2016-07-28T13:05:08.000Z</time>
      </trkpt>
      <trkpt lat="47.54994" lon="6.71147">
        <ele>391</ele>
        <time>2016-07-28T13:05:09.000Z</time>
      </trkpt>
      <trkpt lat="47.54991" lon="6.71143">
        <ele>391</ele>
        <time>2016-07-28T13:05:10.000Z</time>
      </trkpt>
      <trkpt lat="47.54987" lon="6.71137">
        <ele>392</ele>
        <time>2016-07-28T13:05:11.000Z</time>
      </trkpt>
      <trkpt lat="47.54984" lon="6.71132">
        <ele>392</ele>
        <time>2016-07-28T13:05:12.000Z</time>
      </trkpt>
      <trkpt lat="47.5498" lon="6.71127">
        <ele>392</ele>
        <time>2016-07-28T13:05:13.000Z</time>
      </trkpt>
      <trkpt lat="47.54976" lon="6.71121">
        <ele>392</ele>
        <time>2016-07-28T13:05:14.000Z</time>
      </trkpt>
      <trkpt lat="47.54973" lon="6.71116">
        <ele>392</ele>
        <time>2016-07-28T13:05:15.000Z</time>
      </trkpt>
      <trkpt lat="47.54969" lon="6.7111">
        <ele>392</ele>
        <time>2016-07-28T13:05:16.000Z</time>
      </trkpt>
      <trkpt lat="47.54966" lon="6.71105">
        <ele>392</ele>
        <time>2016-07-28T13:05:17.000Z</time>
      </trkpt>
      <trkpt lat="47.54962" lon="6.71099">
        <ele>392</ele>
        <time>2016-07-28T13:05:18.000Z</time>
      </trkpt>
      <trkpt lat="47.54959" lon="6.71092">
        <ele>393</ele>
        <time>2016-07-28T13:05:19.000Z</time>
      </trkpt>
      <trkpt lat="47.54955" lon="6.71086">
        <ele>393</ele>
        <time>2016-07-28T13:05:20.000Z</time>
      </trkpt>
      <trkpt lat="47.54952" lon="6.7108">
        <ele>393</ele>
        <time>2016-07-28T13:05:21.000Z</time>
      </trkpt>
      <trkpt lat="47.54948" lon="6.71075">
        <ele>393</ele>
        <time>2016-07-28T13:05:22.000Z</time>
      </trkpt>
      <trkpt lat="47.54944" lon="6.71069">
        <ele>393</ele>
        <time>2016-07-28T13:05:22.999Z</time>
      </trkpt>
      <trkpt lat="47.54941" lon="6.71062">
        <ele>393</ele>
        <time>2016-07-28T13:05:24.000Z</time>
      </trkpt>
      <trkpt lat="47.54938" lon="6.71057">
        <ele>393</ele>
        <time>2016-07-28T13:05:25.000Z</time>
      </trkpt>
      <trkpt lat="47.54934" lon="6.71048">
        <ele>393</ele>
        <time>2016-07-28T13:05:26.000Z</time>
      </trkpt>
      <trkpt lat="47.54931" lon="6.71041">
        <ele>393</ele>
        <time>2016-07-28T13:05:27.000Z</time>
      </trkpt>
      <trkpt lat="47.54927" lon="6.71035">
        <ele>393</ele>
        <time>2016-07-28T13:05:28.000Z</time>
      </trkpt>
      <trkpt lat="47.54924" lon="6.71029">
        <ele>393</ele>
        <time>2016-07-28T13:05:29.000Z</time>
      </trkpt>
      <trkpt lat="47.5492" lon="6.71022">
        <ele>394</ele>
        <time>2016-07-28T13:05:30.001Z</time>
      </trkpt>
      <trkpt lat="47.54918" lon="6.71014">
        <ele>394</ele>
        <time>2016-07-28T13:05:31.000Z</time>
      </trkpt>
      <trkpt lat="47.54921" lon="6.71003">
        <ele>394</ele>
        <time>2016-07-28T13:05:32.000Z</time>
      </trkpt>
      <trkpt lat="47.54921" lon="6.70993">
        <ele>394</ele>
        <time>2016-07-28T13:05:33.000Z</time>
      </trkpt>
      <trkpt lat="47.54923" lon="6.70986">
        <ele>393</ele>
        <time>2016-07-28T13:05:34.000Z</time>
      </trkpt>
      <trkpt lat="47.54925" lon="6.70978">
        <ele>392</ele>
        <time>2016-07-28T13:05:35.001Z</time>
      </trkpt>
      <trkpt lat="47.54924" lon="6.70973">
        <ele>392</ele>
        <time>2016-07-28T13:05:36.000Z</time>
      </trkpt>
      <trkpt lat="47.54922" lon="6.70968">
        <ele>392</ele>
        <time>2016-07-28T13:05:37.000Z</time>
      </trkpt>
      <trkpt lat="47.5492" lon="6.7096">
        <ele>392</ele>
        <time>2016-07-28T13:05:38.001Z</time>
      </trkpt>
      <trkpt lat="47.54916" lon="6.70953">
        <ele>393</ele>
        <time>2016-07-28T13:05:39.000Z</time>
      </trkpt>
      <trkpt lat="47.54907" lon="6.70942">
        <ele>393</ele>
        <time>2016-07-28T13:05:40.000Z</time>
      </trkpt>
      <trkpt lat="47.54901" lon="6.70934">
        <ele>393</ele>
        <time>2016-07-28T13:05:41.000Z</time>
      </trkpt>
      <trkpt lat="47.54896" lon="6.70922">
        <ele>392</ele>
        <time>2016-07-28T13:05:42.000Z</time>
      </trkpt>
      <trkpt lat="47.54891" lon="6.70914">
        <ele>392</ele>
        <time>2016-07-28T13:05:43.000Z</time>
      </trkpt>
      <trkpt lat="47.54886" lon="6.70905">
        <ele>392</ele>
        <time>2016-07-28T13:05:44.000Z</time>
      </trkpt>
      <trkpt lat="47.54879" lon="6.70897">
        <ele>392</ele>
        <time>2016-07-28T13:05:45.000Z</time>
      </trkpt>
      <trkpt lat="47.54873" lon="6.70889">
        <ele>392</ele>
        <time>2016-07-28T13:05:46.001Z</time>
      </trkpt>
      <trkpt lat="47.5487" lon="6.70882">
        <ele>393</ele>
        <time>2016-07-28T13:05:47.000Z</time>
      </trkpt>
      <trkpt lat="47.54866" lon="6.70875">
        <ele>393</ele>
        <time>2016-07-28T13:05:48.000Z</time>
      </trkpt>
      <trkpt lat="47.5486" lon="6.70868">
        <ele>393</ele>
        <time>2016-07-28T13:05:49.000Z</time>
      </trkpt>
      <trkpt lat="47.54855" lon="6.70862">
        <ele>393</ele>
        <time>2016-07-28T13:05:50.000Z</time>
      </trkpt>
      <trkpt lat="47.5485" lon="6.70858">
        <ele>393</ele>
        <time>2016-07-28T13:05:51.000Z</time>
      </trkpt>
      <trkpt lat="47.54844" lon="6.70854">
        <ele>393</ele>
        <time>2016-07-28T13:05:52.000Z</time>
      </trkpt>
      <trkpt lat="47.54838" lon="6.70851">
        <ele>393</ele>
        <time>2016-07-28T13:05:53.000Z</time>
      </trkpt>
      <trkpt lat="47.54832" lon="6.70849">
        <ele>393</ele>
        <time>2016-07-28T13:05:54.000Z</time>
      </trkpt>
      <trkpt lat="47.54826" lon="6.70846">
        <ele>393</ele>
        <time>2016-07-28T13:05:55.000Z</time>
      </trkpt>
      <trkpt lat="47.54823" lon="6.70847">
        <ele>393</ele>
        <time>2016-07-28T13:05:56.000Z</time>
      </trkpt>
      <trkpt lat="47.5482" lon="6.70847">
        <ele>393</ele>
        <time>2016-07-28T13:05:57.000Z</time>
      </trkpt>
      <trkpt lat="47.54816" lon="6.70846">
        <ele>393</ele>
        <time>2016-07-28T13:05:58.000Z</time>
      </trkpt>
      <trkpt lat="47.5481" lon="6.70845">
        <ele>393</ele>
        <time>2016-07-28T13:05:59.000Z</time>
      </trkpt>
      <trkpt lat="47.54806" lon="6.70845">
        <ele>393</ele>
        <time>2016-07-28T13:06:00.000Z</time>
      </trkpt>
      <trkpt lat="47.54802" lon="6.70841">
        <ele>393</ele>
        <time>2016-07-28T13:06:01.000Z</time>
      </trkpt>
      <trkpt lat="47.54797" lon="6.70838">
        <ele>393</ele>
        <time>2016-07-28T13:06:02.000Z</time>
      </trkpt>
      <trkpt lat="47.54793" lon="6.70835">
        <ele>393</ele>
        <time>2016-07-28T13:06:03.000Z</time>
      </trkpt>
      <trkpt lat="47.54788" lon="6.70834">
        <ele>393</ele>
        <time>2016-07-28T13:06:04.000Z</time>
      </trkpt>
      <trkpt lat="47.54783" lon="6.70832">
        <ele>396</ele>
        <time>2016-07-28T13:06:05.000Z</time>
      </trkpt>
      <trkpt lat="47.54779" lon="6.70828">
        <ele>396</ele>
        <time>2016-07-28T13:06:06.000Z</time>
      </trkpt>
      <trkpt lat="47.54774" lon="6.70823">
        <ele>396</ele>
        <time>2016-07-28T13:06:07.000Z</time>
      </trkpt>
      <trkpt lat="47.54771" lon="6.7082">
        <ele>396</ele>
        <time>2016-07-28T13:06:08.000Z</time>
      </trkpt>
      <trkpt lat="47.54766" lon="6.70817">
        <ele>396</ele>
        <time>2016-07-28T13:06:09.000Z</time>
      </trkpt>
      <trkpt lat="47.5476" lon="6.70814">
        <ele>396</ele>
        <time>2016-07-28T13:06:10.000Z</time>
      </trkpt>
      <trkpt lat="47.54758" lon="6.70809">
        <ele>396</ele>
        <time>2016-07-28T13:06:11.000Z</time>
      </trkpt>
      <trkpt lat="47.54752" lon="6.70806">
        <ele>396</ele>
        <time>2016-07-28T13:06:12.000Z</time>
      </trkpt>
      <trkpt lat="47.54748" lon="6.70802">
        <ele>394</ele>
        <time>2016-07-28T13:06:13.000Z</time>
      </trkpt>
      <trkpt lat="47.54742" lon="6.70799">
        <ele>394</ele>
        <time>2016-07-28T13:06:14.000Z</time>
      </trkpt>
      <trkpt lat="47.54736" lon="6.70795">
        <ele>394</ele>
        <time>2016-07-28T13:06:15.000Z</time>
      </trkpt>
      <trkpt lat="47.54732" lon="6.70791">
        <ele>394</ele>
        <time>2016-07-28T13:06:16.000Z</time>
      </trkpt>
      <trkpt lat="47.54727" lon="6.70786">
        <ele>394</ele>
        <time>2016-07-28T13:06:17.000Z</time>
      </trkpt>
      <trkpt lat="47.54722" lon="6.70781">
        <ele>394</ele>
        <time>2016-07-28T13:06:18.000Z</time>
      </trkpt>
      <trkpt lat="47.54718" lon="6.70774">
        <ele>394</ele>
        <time>2016-07-28T13:06:19.000Z</time>
      </trkpt>
      <trkpt lat="47.54714" lon="6.70763">
        <ele>394</ele>
        <time>2016-07-28T13:06:20.000Z</time>
      </trkpt>
      <trkpt lat="47.54709" lon="6.70753">
        <ele>394</ele>
        <time>2016-07-28T13:06:21.000Z</time>
      </trkpt>
      <trkpt lat="47.54706" lon="6.70744">
        <ele>392</ele>
        <time>2016-07-28T13:06:22.000Z</time>
      </trkpt>
      <trkpt lat="47.54703" lon="6.70735">
        <ele>391</ele>
        <time>2016-07-28T13:06:23.000Z</time>
      </trkpt>
      <trkpt lat="47.54703" lon="6.70722">
        <ele>391</ele>
        <time>2016-07-28T13:06:24.000Z</time>
      </trkpt>
      <trkpt lat="47.54704" lon="6.70712">
        <ele>391</ele>
        <time>2016-07-28T13:06:25.000Z</time>
      </trkpt>
      <trkpt lat="47.54706" lon="6.70702">
        <ele>391</ele>
        <time>2016-07-28T13:06:26.000Z</time>
      </trkpt>
      <trkpt lat="47.54709" lon="6.70692">
        <ele>391</ele>
        <time>2016-07-28T13:06:27.000Z</time>
      </trkpt>
      <trkpt lat="47.54711" lon="6.70683">
        <ele>390</ele>
        <time>2016-07-28T13:06:28.000Z</time>
      </trkpt>
      <trkpt lat="47.54713" lon="6.70675">
        <ele>390</ele>
        <time>2016-07-28T13:06:29.000Z</time>
      </trkpt>
      <trkpt lat="47.54716" lon="6.70664">
        <ele>387</ele>
        <time>2016-07-28T13:06:30.000Z</time>
      </trkpt>
      <trkpt lat="47.54719" lon="6.70654">
        <ele>387</ele>
        <time>2016-07-28T13:06:31.000Z</time>
      </trkpt>
      <trkpt lat="47.54721" lon="6.70645">
        <ele>386</ele>
        <time>2016-07-28T13:06:32.000Z</time>
      </trkpt>
      <trkpt lat="47.54724" lon="6.70635">
        <ele>386</ele>
        <time>2016-07-28T13:06:33.000Z</time>
      </trkpt>
      <trkpt lat="47.54727" lon="6.70623">
        <ele>385</ele>
        <time>2016-07-28T13:06:34.000Z</time>
      </trkpt>
      <trkpt lat="47.5473" lon="6.70613">
        <ele>385</ele>
        <time>2016-07-28T13:06:35.000Z</time>
      </trkpt>
      <trkpt lat="47.54733" lon="6.70603">
        <ele>385</ele>
        <time>2016-07-28T13:06:36.000Z</time>
      </trkpt>
      <trkpt lat="47.54737" lon="6.70595">
        <ele>385</ele>
        <time>2016-07-28T13:06:37.000Z</time>
      </trkpt>
      <trkpt lat="47.5474" lon="6.70586">
        <ele>385</ele>
        <time>2016-07-28T13:06:38.000Z</time>
      </trkpt>
      <trkpt lat="47.54743" lon="6.7058">
        <ele>383</ele>
        <time>2016-07-28T13:06:39.000Z</time>
      </trkpt>
      <trkpt lat="47.54746" lon="6.70572">
        <ele>381</ele>
        <time>2016-07-28T13:06:40.000Z</time>
      </trkpt>
      <trkpt lat="47.54747" lon="6.70563">
        <ele>380</ele>
        <time>2016-07-28T13:06:41.000Z</time>
      </trkpt>
      <trkpt lat="47.54748" lon="6.70555">
        <ele>379</ele>
        <time>2016-07-28T13:06:42.000Z</time>
      </trkpt>
      <trkpt lat="47.54748" lon="6.70549">
        <ele>378</ele>
        <time>2016-07-28T13:06:43.000Z</time>
      </trkpt>
      <trkpt lat="47.54747" lon="6.70543">
        <ele>378</ele>
        <time>2016-07-28T13:06:44.000Z</time>
      </trkpt>
      <trkpt lat="47.54747" lon="6.7054">
        <ele>377</ele>
        <time>2016-07-28T13:06:45.000Z</time>
      </trkpt>
      <trkpt lat="47.54747" lon="6.70536">
        <ele>377</ele>
        <time>2016-07-28T13:06:46.000Z</time>
      </trkpt>
      <trkpt lat="47.54747" lon="6.70532">
        <ele>377</ele>
        <time>2016-07-28T13:06:48.000Z</time>
      </trkpt>
      <trkpt lat="47.54747" lon="6.70529">
        <ele>376</ele>
        <time>2016-07-28T13:06:49.000Z</time>
      </trkpt>
      <trkpt lat="47.54748" lon="6.70524">
        <ele>376</ele>
        <time>2016-07-28T13:06:51.000Z</time>
      </trkpt>
      <trkpt lat="47.54747" lon="6.70521">
        <ele>376</ele>
        <time>2016-07-28T13:06:52.000Z</time>
      </trkpt>
      <trkpt lat="47.54745" lon="6.70516">
        <ele>375</ele>
        <time>2016-07-28T13:06:55.000Z</time>
      </trkpt>
      <trkpt lat="47.54745" lon="6.70515">
        <ele>375</ele>
        <time>2016-07-28T13:06:56.000Z</time>
      </trkpt>
      <trkpt lat="47.54742" lon="6.7051">
        <ele>375</ele>
        <time>2016-07-28T13:07:01.000Z</time>
      </trkpt>
      <trkpt lat="47.54741" lon="6.70509">
        <ele>375</ele>
        <time>2016-07-28T13:07:02.000Z</time>
      </trkpt>
      <trkpt lat="47.54738" lon="6.70505">
        <ele>375</ele>
        <time>2016-07-28T13:07:07.000Z</time>
      </trkpt>
      <trkpt lat="47.54737" lon="6.70504">
        <ele>375</ele>
        <time>2016-07-28T13:07:08.000Z</time>
      </trkpt>
      <trkpt lat="47.54735" lon="6.70499">
        <ele>371</ele>
        <time>2016-07-28T13:07:11.000Z</time>
      </trkpt>
      <trkpt lat="47.54734" lon="6.70497">
        <ele>371</ele>
        <time>2016-07-28T13:07:12.000Z</time>
      </trkpt>
      <trkpt lat="47.54732" lon="6.70492">
        <ele>371</ele>
        <time>2016-07-28T13:07:14.000Z</time>
      </trkpt>
      <trkpt lat="47.54732" lon="6.70488">
        <ele>370</ele>
        <time>2016-07-28T13:07:15.000Z</time>
      </trkpt>
      <trkpt lat="47.54732" lon="6.70483">
        <ele>370</ele>
        <time>2016-07-28T13:07:16.000Z</time>
      </trkpt>
      <trkpt lat="47.54733" lon="6.70477">
        <ele>370</ele>
        <time>2016-07-28T13:07:17.000Z</time>
      </trkpt>
      <trkpt lat="47.54734" lon="6.70472">
        <ele>369</ele>
        <time>2016-07-28T13:07:18.000Z</time>
      </trkpt>
      <trkpt lat="47.54737" lon="6.70469">
        <ele>369</ele>
        <time>2016-07-28T13:07:19.000Z</time>
      </trkpt>
      <trkpt lat="47.5474" lon="6.70466">
        <ele>369</ele>
        <time>2016-07-28T13:07:20.000Z</time>
      </trkpt>
      <trkpt lat="47.54743" lon="6.70465">
        <ele>369</ele>
        <time>2016-07-28T13:07:21.000Z</time>
      </trkpt>
      <trkpt lat="47.54747" lon="6.70463">
        <ele>369</ele>
        <time>2016-07-28T13:07:22.000Z</time>
      </trkpt>
      <trkpt lat="47.54757" lon="6.7046">
        <ele>370</ele>
        <time>2016-07-28T13:07:23.000Z</time>
      </trkpt>
      <trkpt lat="47.5476" lon="6.70452">
        <ele>369</ele>
        <time>2016-07-28T13:07:24.000Z</time>
      </trkpt>
      <trkpt lat="47.54763" lon="6.70446">
        <ele>369</ele>
        <time>2016-07-28T13:07:25.000Z</time>
      </trkpt>
      <trkpt lat="47.5476" lon="6.70435">
        <ele>367</ele>
        <time>2016-07-28T13:07:26.000Z</time>
      </trkpt>
      <trkpt lat="47.54762" lon="6.70423">
        <ele>366</ele>
        <time>2016-07-28T13:07:27.000Z</time>
      </trkpt>
      <trkpt lat="47.54765" lon="6.70414">
        <ele>363</ele>
        <time>2016-07-28T13:07:28.000Z</time>
      </trkpt>
      <trkpt lat="47.54769" lon="6.70406">
        <ele>363</ele>
        <time>2016-07-28T13:07:29.000Z</time>
      </trkpt>
      <trkpt lat="47.54771" lon="6.70397">
        <ele>363</ele>
        <time>2016-07-28T13:07:30.000Z</time>
      </trkpt>
      <trkpt lat="47.54773" lon="6.70388">
        <ele>362</ele>
        <time>2016-07-28T13:07:31.000Z</time>
      </trkpt>
      <trkpt lat="47.54777" lon="6.70381">
        <ele>362</ele>
        <time>2016-07-28T13:07:32.000Z</time>
      </trkpt>
      <trkpt lat="47.54782" lon="6.70376">
        <ele>362</ele>
        <time>2016-07-28T13:07:33.000Z</time>
      </trkpt>
      <trkpt lat="47.54787" lon="6.7037">
        <ele>362</ele>
        <time>2016-07-28T13:07:34.000Z</time>
      </trkpt>
      <trkpt lat="47.54791" lon="6.70366">
        <ele>362</ele>
        <time>2016-07-28T13:07:35.000Z</time>
      </trkpt>
      <trkpt lat="47.54795" lon="6.70361">
        <ele>362</ele>
        <time>2016-07-28T13:07:36.000Z</time>
      </trkpt>
      <trkpt lat="47.54797" lon="6.70354">
        <ele>362</ele>
        <time>2016-07-28T13:07:37.000Z</time>
      </trkpt>
      <trkpt lat="47.54798" lon="6.70347">
        <ele>361</ele>
        <time>2016-07-28T13:07:38.000Z</time>
      </trkpt>
      <trkpt lat="47.54798" lon="6.7034">
        <ele>361</ele>
        <time>2016-07-28T13:07:39.000Z</time>
      </trkpt>
      <trkpt lat="47.54799" lon="6.70334">
        <ele>361</ele>
        <time>2016-07-28T13:07:40.000Z</time>
      </trkpt>
      <trkpt lat="47.54801" lon="6.70327">
        <ele>360</ele>
        <time>2016-07-28T13:07:41.000Z</time>
      </trkpt>
      <trkpt lat="47.54801" lon="6.7032">
        <ele>360</ele>
        <time>2016-07-28T13:07:42.000Z</time>
      </trkpt>
      <trkpt lat="47.54801" lon="6.70312">
        <ele>360</ele>
        <time>2016-07-28T13:07:43.000Z</time>
      </trkpt>
      <trkpt lat="47.54801" lon="6.70306">
        <ele>360</ele>
        <time>2016-07-28T13:07:44.000Z</time>
      </trkpt>
      <trkpt lat="47.54801" lon="6.703">
        <ele>360</ele>
        <time>2016-07-28T13:07:45.000Z</time>
      </trkpt>
      <trkpt lat="47.54801" lon="6.70294">
        <ele>360</ele>
        <time>2016-07-28T13:07:45.999Z</time>
      </trkpt>
      <trkpt lat="47.54801" lon="6.70288">
        <ele>360</ele>
        <time>2016-07-28T13:07:46.999Z</time>
      </trkpt>
      <trkpt lat="47.54803" lon="6.70285">
        <ele>360</ele>
        <time>2016-07-28T13:07:48.000Z</time>
      </trkpt>
      <trkpt lat="47.54803" lon="6.7028">
        <ele>360</ele>
        <time>2016-07-28T13:07:49.000Z</time>
      </trkpt>
      <trkpt lat="47.54804" lon="6.70274">
        <ele>360</ele>
        <time>2016-07-28T13:07:50.000Z</time>
      </trkpt>
      <trkpt lat="47.54805" lon="6.70269">
        <ele>360</ele>
        <time>2016-07-28T13:07:51.000Z</time>
      </trkpt>
      <trkpt lat="47.54806" lon="6.70264">
        <ele>360</ele>
        <time>2016-07-28T13:07:52.000Z</time>
      </trkpt>
      <trkpt lat="47.54807" lon="6.70259">
        <ele>360</ele>
        <time>2016-07-28T13:07:53.000Z</time>
      </trkpt>
      <trkpt lat="47.54808" lon="6.70255">
        <ele>360</ele>
        <time>2016-07-28T13:07:54.000Z</time>
      </trkpt>
      <trkpt lat="47.54809" lon="6.7025">
        <ele>359</ele>
        <time>2016-07-28T13:07:55.000Z</time>
      </trkpt>
      <trkpt lat="47.5481" lon="6.70245">
        <ele>359</ele>
        <time>2016-07-28T13:07:55.999Z</time>
      </trkpt>
      <trkpt lat="47.5481" lon="6.70241">
        <ele>359</ele>
        <time>2016-07-28T13:07:57.000Z</time>
      </trkpt>
      <trkpt lat="47.5481" lon="6.70237">
        <ele>359</ele>
        <time>2016-07-28T13:07:58.000Z</time>
      </trkpt>
      <trkpt lat="47.54811" lon="6.70233">
        <ele>359</ele>
        <time>2016-07-28T13:07:59.000Z</time>
      </trkpt>
      <trkpt lat="47.54812" lon="6.70227">
        <ele>359</ele>
        <time>2016-07-28T13:08:01.000Z</time>
      </trkpt>
      <trkpt lat="47.54813" lon="6.70225">
        <ele>359</ele>
        <time>2016-07-28T13:08:02.000Z</time>
      </trkpt>
      <trkpt lat="47.54815" lon="6.70219">
        <ele>359</ele>
        <time>2016-07-28T13:08:04.001Z</time>
      </trkpt>
      <trkpt lat="47.54816" lon="6.70217">
        <ele>359</ele>
        <time>2016-07-28T13:08:05.000Z</time>
      </trkpt>
      <trkpt lat="47.54819" lon="6.70212">
        <ele>359</ele>
        <time>2016-07-28T13:08:07.000Z</time>
      </trkpt>
      <trkpt lat="47.5482" lon="6.70209">
        <ele>358</ele>
        <time>2016-07-28T13:08:08.000Z</time>
      </trkpt>
      <trkpt lat="47.54821" lon="6.70206">
        <ele>358</ele>
        <time>2016-07-28T13:08:08.999Z</time>
      </trkpt>
      <trkpt lat="47.5482" lon="6.70202">
        <ele>358</ele>
        <time>2016-07-28T13:08:10.000Z</time>
      </trkpt>
      <trkpt lat="47.54819" lon="6.70197">
        <ele>358</ele>
        <time>2016-07-28T13:08:11.000Z</time>
      </trkpt>
      <trkpt lat="47.54819" lon="6.70192">
        <ele>358</ele>
        <time>2016-07-28T13:08:12.000Z</time>
      </trkpt>
      <trkpt lat="47.54818" lon="6.70187">
        <ele>358</ele>
        <time>2016-07-28T13:08:13.000Z</time>
      </trkpt>
      <trkpt lat="47.54817" lon="6.70181">
        <ele>357</ele>
        <time>2016-07-28T13:08:14.000Z</time>
      </trkpt>
      <trkpt lat="47.54816" lon="6.70176">
        <ele>357</ele>
        <time>2016-07-28T13:08:15.000Z</time>
      </trkpt>
      <trkpt lat="47.54815" lon="6.70171">
        <ele>357</ele>
        <time>2016-07-28T13:08:16.001Z</time>
      </trkpt>
      <trkpt lat="47.54814" lon="6.70166">
        <ele>356</ele>
        <time>2016-07-28T13:08:17.000Z</time>
      </trkpt>
      <trkpt lat="47.54814" lon="6.70161">
        <ele>356</ele>
        <time>2016-07-28T13:08:18.000Z</time>
      </trkpt>
      <trkpt lat="47.54813" lon="6.70157">
        <ele>356</ele>
        <time>2016-07-28T13:08:19.001Z</time>
      </trkpt>
      <trkpt lat="47.54812" lon="6.70151">
        <ele>356</ele>
        <time>2016-07-28T13:08:20.000Z</time>
      </trkpt>
      <trkpt lat="47.54811" lon="6.70145">
        <ele>356</ele>
        <time>2016-07-28T13:08:21.000Z</time>
      </trkpt>
      <trkpt lat="47.54811" lon="6.70139">
        <ele>356</ele>
        <time>2016-07-28T13:08:22.000Z</time>
      </trkpt>
      <trkpt lat="47.5481" lon="6.70133">
        <ele>355</ele>
        <time>2016-07-28T13:08:23.000Z</time>
      </trkpt>
      <trkpt lat="47.54809" lon="6.70128">
        <ele>355</ele>
        <time>2016-07-28T13:08:24.000Z</time>
      </trkpt>
      <trkpt lat="47.54808" lon="6.70122">
        <ele>355</ele>
        <time>2016-07-28T13:08:25.000Z</time>
      </trkpt>
      <trkpt lat="47.54806" lon="6.70116">
        <ele>355</ele>
        <time>2016-07-28T13:08:26.000Z</time>
      </trkpt>
      <trkpt lat="47.54806" lon="6.70109">
        <ele>355</ele>
        <time>2016-07-28T13:08:27.000Z</time>
      </trkpt>
      <trkpt lat="47.54805" lon="6.70103">
        <ele>355</ele>
        <time>2016-07-28T13:08:28.000Z</time>
      </trkpt>
      <trkpt lat="47.54805" lon="6.70097">
        <ele>355</ele>
        <time>2016-07-28T13:08:29.000Z</time>
      </trkpt>
      <trkpt lat="47.54805" lon="6.70091">
        <ele>355</ele>
        <time>2016-07-28T13:08:30.000Z</time>
      </trkpt>
      <trkpt lat="47.54804" lon="6.70081">
        <ele>352</ele>
        <time>2016-07-28T13:08:31.000Z</time>
      </trkpt>
      <trkpt lat="47.54804" lon="6.70075">
        <ele>352</ele>
        <time>2016-07-28T13:08:32.000Z</time>
      </trkpt>
      <trkpt lat="47.54805" lon="6.70067">
        <ele>352</ele>
        <time>2016-07-28T13:08:33.000Z</time>
      </trkpt>
      <trkpt lat="47.54805" lon="6.7006">
        <ele>352</ele>
        <time>2016-07-28T13:08:34.000Z</time>
      </trkpt>
      <trkpt lat="47.54805" lon="6.70053">
        <ele>352</ele>
        <time>2016-07-28T13:08:35.000Z</time>
      </trkpt>
      <trkpt lat="47.54805" lon="6.70047">
        <ele>352</ele>
        <time>2016-07-28T13:08:35.999Z</time>
      </trkpt>
      <trkpt lat="47.54804" lon="6.70041">
        <ele>352</ele>
        <time>2016-07-28T13:08:37.000Z</time>
      </trkpt>
      <trkpt lat="47.54804" lon="6.70035">
        <ele>352</ele>
        <time>2016-07-28T13:08:38.001Z</time>
      </trkpt>
      <trkpt lat="47.54804" lon="6.70025">
        <ele>351</ele>
        <time>2016-07-28T13:08:39.000Z</time>
      </trkpt>
      <trkpt lat="47.54805" lon="6.70015">
        <ele>351</ele>
        <time>2016-07-28T13:08:40.000Z</time>
      </trkpt>
      <trkpt lat="47.54806" lon="6.70007">
        <ele>351</ele>
        <time>2016-07-28T13:08:41.000Z</time>
      </trkpt>
      <trkpt lat="47.54802" lon="6.70001">
        <ele>351</ele>
        <time>2016-07-28T13:08:42.000Z</time>
      </trkpt>
      <trkpt lat="47.54799" lon="6.69993">
        <ele>350</ele>
        <time>2016-07-28T13:08:43.000Z</time>
      </trkpt>
      <trkpt lat="47.54796" lon="6.69988">
        <ele>350</ele>
        <time>2016-07-28T13:08:44.000Z</time>
      </trkpt>
      <trkpt lat="47.54793" lon="6.69982">
        <ele>350</ele>
        <time>2016-07-28T13:08:45.000Z</time>
      </trkpt>
      <trkpt lat="47.5479" lon="6.69975">
        <ele>350</ele>
        <time>2016-07-28T13:08:46.000Z</time>
      </trkpt>
      <trkpt lat="47.54789" lon="6.69967">
        <ele>350</ele>
        <time>2016-07-28T13:08:47.000Z</time>
      </trkpt>
      <trkpt lat="47.54789" lon="6.69959">
        <ele>350</ele>
        <time>2016-07-28T13:08:48.000Z</time>
      </trkpt>
      <trkpt lat="47.5479" lon="6.69952">
        <ele>350</ele>
        <time>2016-07-28T13:08:49.000Z</time>
      </trkpt>
      <trkpt lat="47.54792" lon="6.69944">
        <ele>350</ele>
        <time>2016-07-28T13:08:50.000Z</time>
      </trkpt>
      <trkpt lat="47.54795" lon="6.69936">
        <ele>350</ele>
        <time>2016-07-28T13:08:51.000Z</time>
      </trkpt>
      <trkpt lat="47.54796" lon="6.69928">
        <ele>350</ele>
        <time>2016-07-28T13:08:52.000Z</time>
      </trkpt>
      <trkpt lat="47.54797" lon="6.69921">
        <ele>350</ele>
        <time>2016-07-28T13:08:53.000Z</time>
      </trkpt>
      <trkpt lat="47.54798" lon="6.69913">
        <ele>350</ele>
        <time>2016-07-28T13:08:54.000Z</time>
      </trkpt>
      <trkpt lat="47.54799" lon="6.69907">
        <ele>350</ele>
        <time>2016-07-28T13:08:55.000Z</time>
      </trkpt>
      <trkpt lat="47.548" lon="6.699">
        <ele>350</ele>
        <time>2016-07-28T13:08:56.000Z</time>
      </trkpt>
      <trkpt lat="47.54801" lon="6.69893">
        <ele>350</ele>
        <time>2016-07-28T13:08:57.000Z</time>
      </trkpt>
      <trkpt lat="47.54801" lon="6.69886">
        <ele>350</ele>
        <time>2016-07-28T13:08:58.000Z</time>
      </trkpt>
      <trkpt lat="47.54802" lon="6.6988">
        <ele>350</ele>
        <time>2016-07-28T13:08:59.000Z</time>
      </trkpt>
      <trkpt lat="47.54803" lon="6.69873">
        <ele>349</ele>
        <time>2016-07-28T13:09:00.000Z</time>
      </trkpt>
      <trkpt lat="47.54804" lon="6.69866">
        <ele>349</ele>
        <time>2016-07-28T13:09:01.000Z</time>
      </trkpt>
      <trkpt lat="47.54804" lon="6.69859">
        <ele>349</ele>
        <time>2016-07-28T13:09:02.000Z</time>
      </trkpt>
      <trkpt lat="47.54805" lon="6.69852">
        <ele>349</ele>
        <time>2016-07-28T13:09:03.000Z</time>
      </trkpt>
      <trkpt lat="47.54806" lon="6.69846">
        <ele>350</ele>
        <time>2016-07-28T13:09:04.000Z</time>
      </trkpt>
      <trkpt lat="47.54807" lon="6.69839">
        <ele>350</ele>
        <time>2016-07-28T13:09:05.000Z</time>
      </trkpt>
      <trkpt lat="47.54808" lon="6.69832">
        <ele>349</ele>
        <time>2016-07-28T13:09:06.000Z</time>
      </trkpt>
      <trkpt lat="47.54808" lon="6.69826">
        <ele>349</ele>
        <time>2016-07-28T13:09:07.000Z</time>
      </trkpt>
      <trkpt lat="47.54809" lon="6.69819">
        <ele>349</ele>
        <time>2016-07-28T13:09:08.000Z</time>
      </trkpt>
      <trkpt lat="47.54809" lon="6.69813">
        <ele>349</ele>
        <time>2016-07-28T13:09:09.000Z</time>
      </trkpt>
      <trkpt lat="47.5481" lon="6.69807">
        <ele>349</ele>
        <time>2016-07-28T13:09:10.000Z</time>
      </trkpt>
      <trkpt lat="47.54811" lon="6.698">
        <ele>349</ele>
        <time>2016-07-28T13:09:11.000Z</time>
      </trkpt>
      <trkpt lat="47.54811" lon="6.69794">
        <ele>349</ele>
        <time>2016-07-28T13:09:12.000Z</time>
      </trkpt>
      <trkpt lat="47.54812" lon="6.69788">
        <ele>349</ele>
        <time>2016-07-28T13:09:13.000Z</time>
      </trkpt>
      <trkpt lat="47.54812" lon="6.69782">
        <ele>349</ele>
        <time>2016-07-28T13:09:14.000Z</time>
      </trkpt>
      <trkpt lat="47.54813" lon="6.69775">
        <ele>349</ele>
        <time>2016-07-28T13:09:15.000Z</time>
      </trkpt>
      <trkpt lat="47.54814" lon="6.69769">
        <ele>350</ele>
        <time>2016-07-28T13:09:16.000Z</time>
      </trkpt>
      <trkpt lat="47.54815" lon="6.69763">
        <ele>350</ele>
        <time>2016-07-28T13:09:17.000Z</time>
      </trkpt>
      <trkpt lat="47.54816" lon="6.69757">
        <ele>350</ele>
        <time>2016-07-28T13:09:18.000Z</time>
      </trkpt>
      <trkpt lat="47.54818" lon="6.69751">
        <ele>350</ele>
        <time>2016-07-28T13:09:19.000Z</time>
      </trkpt>
      <trkpt lat="47.54819" lon="6.69745">
        <ele>350</ele>
        <time>2016-07-28T13:09:20.000Z</time>
      </trkpt>
      <trkpt lat="47.54821" lon="6.69739">
        <ele>350</ele>
        <time>2016-07-28T13:09:21.000Z</time>
      </trkpt>
      <trkpt lat="47.54822" lon="6.69734">
        <ele>350</ele>
        <time>2016-07-28T13:09:22.000Z</time>
      </trkpt>
      <trkpt lat="47.54823" lon="6.69728">
        <ele>350</ele>
        <time>2016-07-28T13:09:23.000Z</time>
      </trkpt>
      <trkpt lat="47.54822" lon="6.69722">
        <ele>350</ele>
        <time>2016-07-28T13:09:24.001Z</time>
      </trkpt>
      <trkpt lat="47.5482" lon="6.69717">
        <ele>350</ele>
        <time>2016-07-28T13:09:25.000Z</time>
      </trkpt>
      <trkpt lat="47.54818" lon="6.69712">
        <ele>350</ele>
        <time>2016-07-28T13:09:26.000Z</time>
      </trkpt>
      <trkpt lat="47.54812" lon="6.69707">
        <ele>350</ele>
        <time>2016-07-28T13:09:27.000Z</time>
      </trkpt>
      <trkpt lat="47.54809" lon="6.69701">
        <ele>350</ele>
        <time>2016-07-28T13:09:28.000Z</time>
      </trkpt>
      <trkpt lat="47.54806" lon="6.69696">
        <ele>350</ele>
        <time>2016-07-28T13:09:29.000Z</time>
      </trkpt>
      <trkpt lat="47.54805" lon="6.69691">
        <ele>350</ele>
        <time>2016-07-28T13:09:30.000Z</time>
      </trkpt>
      <trkpt lat="47.54804" lon="6.69684">
        <ele>350</ele>
        <time>2016-07-28T13:09:31.000Z</time>
      </trkpt>
      <trkpt lat="47.54805" lon="6.69678">
        <ele>350</ele>
        <time>2016-07-28T13:09:32.000Z</time>
      </trkpt>
      <trkpt lat="47.54807" lon="6.69672">
        <ele>350</ele>
        <time>2016-07-28T13:09:33.000Z</time>
      </trkpt>
      <trkpt lat="47.54808" lon="6.69666">
        <ele>351</ele>
        <time>2016-07-28T13:09:34.000Z</time>
      </trkpt>
      <trkpt lat="47.54811" lon="6.6966">
        <ele>351</ele>
        <time>2016-07-28T13:09:35.000Z</time>
      </trkpt>
      <trkpt lat="47.54812" lon="6.69655">
        <ele>351</ele>
        <time>2016-07-28T13:09:36.000Z</time>
      </trkpt>
      <trkpt lat="47.54814" lon="6.69649">
        <ele>351</ele>
        <time>2016-07-28T13:09:37.000Z</time>
      </trkpt>
      <trkpt lat="47.54816" lon="6.69644">
        <ele>351</ele>
        <time>2016-07-28T13:09:38.000Z</time>
      </trkpt>
      <trkpt lat="47.54818" lon="6.69638">
        <ele>351</ele>
        <time>2016-07-28T13:09:39.000Z</time>
      </trkpt>
      <trkpt lat="47.54819" lon="6.69632">
        <ele>351</ele>
        <time>2016-07-28T13:09:40.000Z</time>
      </trkpt>
      <trkpt lat="47.54821" lon="6.69627">
        <ele>351</ele>
        <time>2016-07-28T13:09:41.000Z</time>
      </trkpt>
      <trkpt lat="47.54823" lon="6.69621">
        <ele>351</ele>
        <time>2016-07-28T13:09:42.000Z</time>
      </trkpt>
      <trkpt lat="47.54824" lon="6.69615">
        <ele>351</ele>
        <time>2016-07-28T13:09:43.000Z</time>
      </trkpt>
      <trkpt lat="47.54826" lon="6.6961">
        <ele>352</ele>
        <time>2016-07-28T13:09:44.000Z</time>
      </trkpt>
      <trkpt lat="47.54828" lon="6.69605">
        <ele>352</ele>
        <time>2016-07-28T13:09:45.000Z</time>
      </trkpt>
      <trkpt lat="47.54829" lon="6.696">
        <ele>352</ele>
        <time>2016-07-28T13:09:46.000Z</time>
      </trkpt>
      <trkpt lat="47.54831" lon="6.69596">
        <ele>352</ele>
        <time>2016-07-28T13:09:47.000Z</time>
      </trkpt>
      <trkpt lat="47.54833" lon="6.69591">
        <ele>352</ele>
        <time>2016-07-28T13:09:48.000Z</time>
      </trkpt>
      <trkpt lat="47.54836" lon="6.69587">
        <ele>352</ele>
        <time>2016-07-28T13:09:49.000Z</time>
      </trkpt>
      <trkpt lat="47.54838" lon="6.69582">
        <ele>352</ele>
        <time>2016-07-28T13:09:50.000Z</time>
      </trkpt>
      <trkpt lat="47.54841" lon="6.69578">
        <ele>353</ele>
        <time>2016-07-28T13:09:51.000Z</time>
      </trkpt>
      <trkpt lat="47.54843" lon="6.69574">
        <ele>353</ele>
        <time>2016-07-28T13:09:52.000Z</time>
      </trkpt>
      <trkpt lat="47.54846" lon="6.6957">
        <ele>353</ele>
        <time>2016-07-28T13:09:53.000Z</time>
      </trkpt>
      <trkpt lat="47.54848" lon="6.69566">
        <ele>353</ele>
        <time>2016-07-28T13:09:54.000Z</time>
      </trkpt>
      <trkpt lat="47.54851" lon="6.69562">
        <ele>353</ele>
        <time>2016-07-28T13:09:55.000Z</time>
      </trkpt>
      <trkpt lat="47.54853" lon="6.69557">
        <ele>353</ele>
        <time>2016-07-28T13:09:58.000Z</time>
      </trkpt>
      <trkpt lat="47.54853" lon="6.69556">
        <ele>353</ele>
        <time>2016-07-28T13:09:59.000Z</time>
      </trkpt>
      <trkpt lat="47.54856" lon="6.69551">
        <ele>354</ele>
        <time>2016-07-28T13:10:01.000Z</time>
      </trkpt>
      <trkpt lat="47.54858" lon="6.69548">
        <ele>354</ele>
        <time>2016-07-28T13:10:02.000Z</time>
      </trkpt>
      <trkpt lat="47.54859" lon="6.69545">
        <ele>354</ele>
        <time>2016-07-28T13:10:03.000Z</time>
      </trkpt>
      <trkpt lat="47.54861" lon="6.69541">
        <ele>354</ele>
        <time>2016-07-28T13:10:04.000Z</time>
      </trkpt>
      <trkpt lat="47.54863" lon="6.69537">
        <ele>354</ele>
        <time>2016-07-28T13:10:05.000Z</time>
      </trkpt>
      <trkpt lat="47.54865" lon="6.69532">
        <ele>354</ele>
        <time>2016-07-28T13:10:06.000Z</time>
      </trkpt>
      <trkpt lat="47.54867" lon="6.69526">
        <ele>354</ele>
        <time>2016-07-28T13:10:07.000Z</time>
      </trkpt>
      <trkpt lat="47.54869" lon="6.69522">
        <ele>354</ele>
        <time>2016-07-28T13:10:08.000Z</time>
      </trkpt>
      <trkpt lat="47.5487" lon="6.69517">
        <ele>354</ele>
        <time>2016-07-28T13:10:09.000Z</time>
      </trkpt>
      <trkpt lat="47.54872" lon="6.69513">
        <ele>354</ele>
        <time>2016-07-28T13:10:10.000Z</time>
      </trkpt>
      <trkpt lat="47.54874" lon="6.69509">
        <ele>354</ele>
        <time>2016-07-28T13:10:10.999Z</time>
      </trkpt>
      <trkpt lat="47.54877" lon="6.69504">
        <ele>354</ele>
        <time>2016-07-28T13:10:12.000Z</time>
      </trkpt>
      <trkpt lat="47.5488" lon="6.69501">
        <ele>354</ele>
        <time>2016-07-28T13:10:13.000Z</time>
      </trkpt>
      <trkpt lat="47.54882" lon="6.69498">
        <ele>357</ele>
        <time>2016-07-28T13:10:14.000Z</time>
      </trkpt>
      <trkpt lat="47.54886" lon="6.69495">
        <ele>357</ele>
        <time>2016-07-28T13:10:15.000Z</time>
      </trkpt>
      <trkpt lat="47.54889" lon="6.69493">
        <ele>357</ele>
        <time>2016-07-28T13:10:16.000Z</time>
      </trkpt>
      <trkpt lat="47.54892" lon="6.6949">
        <ele>357</ele>
        <time>2016-07-28T13:10:17.000Z</time>
      </trkpt>
      <trkpt lat="47.54896" lon="6.69487">
        <ele>357</ele>
        <time>2016-07-28T13:10:18.000Z</time>
      </trkpt>
      <trkpt lat="47.54899" lon="6.69484">
        <ele>357</ele>
        <time>2016-07-28T13:10:19.000Z</time>
      </trkpt>
      <trkpt lat="47.54901" lon="6.69481">
        <ele>357</ele>
        <time>2016-07-28T13:10:20.000Z</time>
      </trkpt>
      <trkpt lat="47.54903" lon="6.69477">
        <ele>357</ele>
        <time>2016-07-28T13:10:21.000Z</time>
      </trkpt>
      <trkpt lat="47.54905" lon="6.69473">
        <ele>357</ele>
        <time>2016-07-28T13:10:22.000Z</time>
      </trkpt>
      <trkpt lat="47.54907" lon="6.69469">
        <ele>358</ele>
        <time>2016-07-28T13:10:23.000Z</time>
      </trkpt>
      <trkpt lat="47.54908" lon="6.69465">
        <ele>358</ele>
        <time>2016-07-28T13:10:24.000Z</time>
      </trkpt>
      <trkpt lat="47.5491" lon="6.6946">
        <ele>358</ele>
        <time>2016-07-28T13:10:25.000Z</time>
      </trkpt>
      <trkpt lat="47.54911" lon="6.69456">
        <ele>358</ele>
        <time>2016-07-28T13:10:26.000Z</time>
      </trkpt>
      <trkpt lat="47.54913" lon="6.69451">
        <ele>358</ele>
        <time>2016-07-28T13:10:27.000Z</time>
      </trkpt>
      <trkpt lat="47.54915" lon="6.69446">
        <ele>358</ele>
        <time>2016-07-28T13:10:28.000Z</time>
      </trkpt>
      <trkpt lat="47.54917" lon="6.69441">
        <ele>359</ele>
        <time>2016-07-28T13:10:29.000Z</time>
      </trkpt>
      <trkpt lat="47.54919" lon="6.69435">
        <ele>359</ele>
        <time>2016-07-28T13:10:30.000Z</time>
      </trkpt>
      <trkpt lat="47.54921" lon="6.69429">
        <ele>359</ele>
        <time>2016-07-28T13:10:31.000Z</time>
      </trkpt>
      <trkpt lat="47.54922" lon="6.69423">
        <ele>359</ele>
        <time>2016-07-28T13:10:32.000Z</time>
      </trkpt>
      <trkpt lat="47.54924" lon="6.69416">
        <ele>360</ele>
        <time>2016-07-28T13:10:33.000Z</time>
      </trkpt>
      <trkpt lat="47.54925" lon="6.6941">
        <ele>360</ele>
        <time>2016-07-28T13:10:34.000Z</time>
      </trkpt>
      <trkpt lat="47.54924" lon="6.694">
        <ele>360</ele>
        <time>2016-07-28T13:10:35.000Z</time>
      </trkpt>
      <trkpt lat="47.54924" lon="6.69395">
        <ele>360</ele>
        <time>2016-07-28T13:10:36.000Z</time>
      </trkpt>
      <trkpt lat="47.54924" lon="6.69388">
        <ele>360</ele>
        <time>2016-07-28T13:10:37.000Z</time>
      </trkpt>
      <trkpt lat="47.54924" lon="6.69382">
        <ele>359</ele>
        <time>2016-07-28T13:10:38.000Z</time>
      </trkpt>
      <trkpt lat="47.54924" lon="6.69376">
        <ele>360</ele>
        <time>2016-07-28T13:10:39.000Z</time>
      </trkpt>
      <trkpt lat="47.54923" lon="6.6937">
        <ele>360</ele>
        <time>2016-07-28T13:10:40.000Z</time>
      </trkpt>
      <trkpt lat="47.54923" lon="6.69365">
        <ele>360</ele>
        <time>2016-07-28T13:10:41.000Z</time>
      </trkpt>
      <trkpt lat="47.54923" lon="6.69359">
        <ele>360</ele>
        <time>2016-07-28T13:10:42.000Z</time>
      </trkpt>
      <trkpt lat="47.54923" lon="6.69353">
        <ele>360</ele>
        <time>2016-07-28T13:10:43.000Z</time>
      </trkpt>
      <trkpt lat="47.54922" lon="6.69348">
        <ele>360</ele>
        <time>2016-07-28T13:10:44.000Z</time>
      </trkpt>
      <trkpt lat="47.54922" lon="6.69343">
        <ele>360</ele>
        <time>2016-07-28T13:10:45.000Z</time>
      </trkpt>
      <trkpt lat="47.54921" lon="6.69337">
        <ele>361</ele>
        <time>2016-07-28T13:10:46.000Z</time>
      </trkpt>
      <trkpt lat="47.54921" lon="6.69331">
        <ele>361</ele>
        <time>2016-07-28T13:10:47.000Z</time>
      </trkpt>
      <trkpt lat="47.54921" lon="6.69326">
        <ele>360</ele>
        <time>2016-07-28T13:10:48.000Z</time>
      </trkpt>
      <trkpt lat="47.54921" lon="6.6932">
        <ele>360</ele>
        <time>2016-07-28T13:10:49.000Z</time>
      </trkpt>
      <trkpt lat="47.5492" lon="6.69315">
        <ele>360</ele>
        <time>2016-07-28T13:10:50.000Z</time>
      </trkpt>
      <trkpt lat="47.5492" lon="6.6931">
        <ele>360</ele>
        <time>2016-07-28T13:10:51.000Z</time>
      </trkpt>
      <trkpt lat="47.54919" lon="6.69305">
        <ele>360</ele>
        <time>2016-07-28T13:10:52.000Z</time>
      </trkpt>
      <trkpt lat="47.54919" lon="6.693">
        <ele>359</ele>
        <time>2016-07-28T13:10:53.000Z</time>
      </trkpt>
      <trkpt lat="47.54919" lon="6.69296">
        <ele>359</ele>
        <time>2016-07-28T13:10:54.000Z</time>
      </trkpt>
      <trkpt lat="47.54918" lon="6.69291">
        <ele>359</ele>
        <time>2016-07-28T13:10:55.000Z</time>
      </trkpt>
      <trkpt lat="47.54918" lon="6.69287">
        <ele>360</ele>
        <time>2016-07-28T13:10:56.000Z</time>
      </trkpt>
      <trkpt lat="47.54917" lon="6.69282">
        <ele>360</ele>
        <time>2016-07-28T13:10:57.000Z</time>
      </trkpt>
      <trkpt lat="47.54916" lon="6.69278">
        <ele>363</ele>
        <time>2016-07-28T13:10:58.000Z</time>
      </trkpt>
      <trkpt lat="47.54916" lon="6.69273">
        <ele>363</ele>
        <time>2016-07-28T13:10:59.000Z</time>
      </trkpt>
      <trkpt lat="47.54915" lon="6.69269">
        <ele>363</ele>
        <time>2016-07-28T13:11:00.000Z</time>
      </trkpt>
      <trkpt lat="47.54914" lon="6.69265">
        <ele>363</ele>
        <time>2016-07-28T13:11:01.000Z</time>
      </trkpt>
      <trkpt lat="47.54913" lon="6.69261">
        <ele>363</ele>
        <time>2016-07-28T13:11:02.000Z</time>
      </trkpt>
      <trkpt lat="47.54912" lon="6.69256">
        <ele>363</ele>
        <time>2016-07-28T13:11:03.000Z</time>
      </trkpt>
      <trkpt lat="47.5491" lon="6.69252">
        <ele>363</ele>
        <time>2016-07-28T13:11:04.000Z</time>
      </trkpt>
      <trkpt lat="47.54909" lon="6.69248">
        <ele>363</ele>
        <time>2016-07-28T13:11:05.000Z</time>
      </trkpt>
      <trkpt lat="47.54908" lon="6.69244">
        <ele>363</ele>
        <time>2016-07-28T13:11:05.999Z</time>
      </trkpt>
      <trkpt lat="47.54906" lon="6.69241">
        <ele>364</ele>
        <time>2016-07-28T13:11:07.000Z</time>
      </trkpt>
      <trkpt lat="47.54904" lon="6.69237">
        <ele>364</ele>
        <time>2016-07-28T13:11:08.000Z</time>
      </trkpt>
      <trkpt lat="47.54903" lon="6.69233">
        <ele>364</ele>
        <time>2016-07-28T13:11:08.999Z</time>
      </trkpt>
      <trkpt lat="47.54901" lon="6.69229">
        <ele>365</ele>
        <time>2016-07-28T13:11:10.000Z</time>
      </trkpt>
      <trkpt lat="47.549" lon="6.69225">
        <ele>365</ele>
        <time>2016-07-28T13:11:11.000Z</time>
      </trkpt>
      <trkpt lat="47.54899" lon="6.69222">
        <ele>365</ele>
        <time>2016-07-28T13:11:12.000Z</time>
      </trkpt>
      <trkpt lat="47.54897" lon="6.69219">
        <ele>365</ele>
        <time>2016-07-28T13:11:13.000Z</time>
      </trkpt>
      <trkpt lat="47.54896" lon="6.69216">
        <ele>365</ele>
        <time>2016-07-28T13:11:14.000Z</time>
      </trkpt>
      <trkpt lat="47.54895" lon="6.69213">
        <ele>365</ele>
        <time>2016-07-28T13:11:15.000Z</time>
      </trkpt>
      <trkpt lat="47.54893" lon="6.6921">
        <ele>365</ele>
        <time>2016-07-28T13:11:16.000Z</time>
      </trkpt>
      <trkpt lat="47.54892" lon="6.69207">
        <ele>365</ele>
        <time>2016-07-28T13:11:17.000Z</time>
      </trkpt>
      <trkpt lat="47.5489" lon="6.69205">
        <ele>365</ele>
        <time>2016-07-28T13:11:18.000Z</time>
      </trkpt>
      <trkpt lat="47.54888" lon="6.69202">
        <ele>365</ele>
        <time>2016-07-28T13:11:19.000Z</time>
      </trkpt>
      <trkpt lat="47.54886" lon="6.692">
        <ele>366</ele>
        <time>2016-07-28T13:11:20.000Z</time>
      </trkpt>
      <trkpt lat="47.54884" lon="6.69198">
        <ele>366</ele>
        <time>2016-07-28T13:11:20.998Z</time>
      </trkpt>
      <trkpt lat="47.54883" lon="6.69195">
        <ele>366</ele>
        <time>2016-07-28T13:11:22.001Z</time>
      </trkpt>
      <trkpt lat="47.54881" lon="6.69193">
        <ele>366</ele>
        <time>2016-07-28T13:11:23.000Z</time>
      </trkpt>
      <trkpt lat="47.54879" lon="6.69191">
        <ele>366</ele>
        <time>2016-07-28T13:11:24.000Z</time>
      </trkpt>
      <trkpt lat="47.54877" lon="6.69189">
        <ele>366</ele>
        <time>2016-07-28T13:11:25.000Z</time>
      </trkpt>
      <trkpt lat="47.54875" lon="6.69187">
        <ele>366</ele>
        <time>2016-07-28T13:11:26.000Z</time>
      </trkpt>
      <trkpt lat="47.54873" lon="6.69184">
        <ele>366</ele>
        <time>2016-07-28T13:11:27.000Z</time>
      </trkpt>
      <trkpt lat="47.54871" lon="6.69182">
        <ele>366</ele>
        <time>2016-07-28T13:11:28.000Z</time>
      </trkpt>
      <trkpt lat="47.54869" lon="6.6918">
        <ele>366</ele>
        <time>2016-07-28T13:11:28.999Z</time>
      </trkpt>
      <trkpt lat="47.54867" lon="6.69177">
        <ele>367</ele>
        <time>2016-07-28T13:11:30.000Z</time>
      </trkpt>
      <trkpt lat="47.54865" lon="6.69175">
        <ele>367</ele>
        <time>2016-07-28T13:11:31.000Z</time>
      </trkpt>
      <trkpt lat="47.54863" lon="6.69173">
        <ele>367</ele>
        <time>2016-07-28T13:11:32.000Z</time>
      </trkpt>
      <trkpt lat="47.5486" lon="6.69172">
        <ele>367</ele>
        <time>2016-07-28T13:11:33.000Z</time>
      </trkpt>
      <trkpt lat="47.54858" lon="6.6917">
        <ele>367</ele>
        <time>2016-07-28T13:11:34.000Z</time>
      </trkpt>
      <trkpt lat="47.54856" lon="6.69168">
        <ele>368</ele>
        <time>2016-07-28T13:11:35.000Z</time>
      </trkpt>
      <trkpt lat="47.54854" lon="6.69166">
        <ele>368</ele>
        <time>2016-07-28T13:11:36.000Z</time>
      </trkpt>
      <trkpt lat="47.54851" lon="6.69163">
        <ele>368</ele>
        <time>2016-07-28T13:11:37.000Z</time>
      </trkpt>
      <trkpt lat="47.54849" lon="6.69161">
        <ele>368</ele>
        <time>2016-07-28T13:11:38.000Z</time>
      </trkpt>
      <trkpt lat="47.54847" lon="6.69159">
        <ele>368</ele>
        <time>2016-07-28T13:11:39.000Z</time>
      </trkpt>
      <trkpt lat="47.54845" lon="6.69157">
        <ele>368</ele>
        <time>2016-07-28T13:11:40.000Z</time>
      </trkpt>
      <trkpt lat="47.54843" lon="6.69154">
        <ele>368</ele>
        <time>2016-07-28T13:11:41.000Z</time>
      </trkpt>
      <trkpt lat="47.54842" lon="6.69152">
        <ele>368</ele>
        <time>2016-07-28T13:11:42.000Z</time>
      </trkpt>
      <trkpt lat="47.5484" lon="6.6915">
        <ele>368</ele>
        <time>2016-07-28T13:11:43.000Z</time>
      </trkpt>
      <trkpt lat="47.54839" lon="6.69146">
        <ele>368</ele>
        <time>2016-07-28T13:11:44.000Z</time>
      </trkpt>
      <trkpt lat="47.54837" lon="6.69143">
        <ele>368</ele>
        <time>2016-07-28T13:11:45.000Z</time>
      </trkpt>
      <trkpt lat="47.54836" lon="6.6914">
        <ele>368</ele>
        <time>2016-07-28T13:11:46.000Z</time>
      </trkpt>
      <trkpt lat="47.54834" lon="6.69137">
        <ele>368</ele>
        <time>2016-07-28T13:11:47.000Z</time>
      </trkpt>
      <trkpt lat="47.54832" lon="6.69135">
        <ele>371</ele>
        <time>2016-07-28T13:11:48.000Z</time>
      </trkpt>
      <trkpt lat="47.5483" lon="6.69132">
        <ele>371</ele>
        <time>2016-07-28T13:11:49.000Z</time>
      </trkpt>
      <trkpt lat="47.54828" lon="6.6913">
        <ele>371</ele>
        <time>2016-07-28T13:11:50.000Z</time>
      </trkpt>
      <trkpt lat="47.54826" lon="6.69127">
        <ele>371</ele>
        <time>2016-07-28T13:11:51.000Z</time>
      </trkpt>
      <trkpt lat="47.54824" lon="6.69125">
        <ele>371</ele>
        <time>2016-07-28T13:11:52.000Z</time>
      </trkpt>
      <trkpt lat="47.54822" lon="6.69123">
        <ele>371</ele>
        <time>2016-07-28T13:11:53.000Z</time>
      </trkpt>
      <trkpt lat="47.54819" lon="6.69119">
        <ele>371</ele>
        <time>2016-07-28T13:11:55.000Z</time>
      </trkpt>
      <trkpt lat="47.54818" lon="6.69117">
        <ele>371</ele>
        <time>2016-07-28T13:11:56.000Z</time>
      </trkpt>
      <trkpt lat="47.54816" lon="6.69114">
        <ele>371</ele>
        <time>2016-07-28T13:11:57.000Z</time>
      </trkpt>
      <trkpt lat="47.54814" lon="6.69111">
        <ele>371</ele>
        <time>2016-07-28T13:11:58.000Z</time>
      </trkpt>
      <trkpt lat="47.54812" lon="6.69108">
        <ele>371</ele>
        <time>2016-07-28T13:11:59.000Z</time>
      </trkpt>
      <trkpt lat="47.54811" lon="6.69104">
        <ele>371</ele>
        <time>2016-07-28T13:12:00.000Z</time>
      </trkpt>
      <trkpt lat="47.5481" lon="6.691">
        <ele>371</ele>
        <time>2016-07-28T13:12:01.000Z</time>
      </trkpt>
      <trkpt lat="47.54808" lon="6.69096">
        <ele>371</ele>
        <time>2016-07-28T13:12:02.000Z</time>
      </trkpt>
      <trkpt lat="47.54807" lon="6.69092">
        <ele>371</ele>
        <time>2016-07-28T13:12:03.000Z</time>
      </trkpt>
      <trkpt lat="47.54805" lon="6.69088">
        <ele>371</ele>
        <time>2016-07-28T13:12:04.000Z</time>
      </trkpt>
      <trkpt lat="47.54804" lon="6.69084">
        <ele>372</ele>
        <time>2016-07-28T13:12:05.000Z</time>
      </trkpt>
      <trkpt lat="47.54802" lon="6.6908">
        <ele>372</ele>
        <time>2016-07-28T13:12:06.000Z</time>
      </trkpt>
      <trkpt lat="47.548" lon="6.69075">
        <ele>372</ele>
        <time>2016-07-28T13:12:07.000Z</time>
      </trkpt>
      <trkpt lat="47.54798" lon="6.69071">
        <ele>372</ele>
        <time>2016-07-28T13:12:08.000Z</time>
      </trkpt>
      <trkpt lat="47.54796" lon="6.69067">
        <ele>372</ele>
        <time>2016-07-28T13:12:09.000Z</time>
      </trkpt>
      <trkpt lat="47.54794" lon="6.69063">
        <ele>372</ele>
        <time>2016-07-28T13:12:10.000Z</time>
      </trkpt>
      <trkpt lat="47.54793" lon="6.69058">
        <ele>372</ele>
        <time>2016-07-28T13:12:11.000Z</time>
      </trkpt>
      <trkpt lat="47.54792" lon="6.69053">
        <ele>372</ele>
        <time>2016-07-28T13:12:12.000Z</time>
      </trkpt>
      <trkpt lat="47.54791" lon="6.69049">
        <ele>372</ele>
        <time>2016-07-28T13:12:13.000Z</time>
      </trkpt>
      <trkpt lat="47.5479" lon="6.69046">
        <ele>372</ele>
        <time>2016-07-28T13:12:14.000Z</time>
      </trkpt>
      <trkpt lat="47.54789" lon="6.69042">
        <ele>372</ele>
        <time>2016-07-28T13:12:15.000Z</time>
      </trkpt>
      <trkpt lat="47.54788" lon="6.69038">
        <ele>372</ele>
        <time>2016-07-28T13:12:16.000Z</time>
      </trkpt>
      <trkpt lat="47.54786" lon="6.69035">
        <ele>372</ele>
        <time>2016-07-28T13:12:17.000Z</time>
      </trkpt>
      <trkpt lat="47.54784" lon="6.69031">
        <ele>373</ele>
        <time>2016-07-28T13:12:18.000Z</time>
      </trkpt>
      <trkpt lat="47.54783" lon="6.69027">
        <ele>373</ele>
        <time>2016-07-28T13:12:19.000Z</time>
      </trkpt>
      <trkpt lat="47.54781" lon="6.69022">
        <ele>373</ele>
        <time>2016-07-28T13:12:20.000Z</time>
      </trkpt>
      <trkpt lat="47.5478" lon="6.69017">
        <ele>373</ele>
        <time>2016-07-28T13:12:21.000Z</time>
      </trkpt>
      <trkpt lat="47.54778" lon="6.69012">
        <ele>373</ele>
        <time>2016-07-28T13:12:22.000Z</time>
      </trkpt>
      <trkpt lat="47.54777" lon="6.69007">
        <ele>373</ele>
        <time>2016-07-28T13:12:23.000Z</time>
      </trkpt>
      <trkpt lat="47.54775" lon="6.69001">
        <ele>373</ele>
        <time>2016-07-28T13:12:24.000Z</time>
      </trkpt>
      <trkpt lat="47.54774" lon="6.68996">
        <ele>374</ele>
        <time>2016-07-28T13:12:25.000Z</time>
      </trkpt>
      <trkpt lat="47.54772" lon="6.6899">
        <ele>374</ele>
        <time>2016-07-28T13:12:26.000Z</time>
      </trkpt>
      <trkpt lat="47.54771" lon="6.68985">
        <ele>374</ele>
        <time>2016-07-28T13:12:27.000Z</time>
      </trkpt>
      <trkpt lat="47.54769" lon="6.68979">
        <ele>374</ele>
        <time>2016-07-28T13:12:28.000Z</time>
      </trkpt>
      <trkpt lat="47.54768" lon="6.68974">
        <ele>374</ele>
        <time>2016-07-28T13:12:29.000Z</time>
      </trkpt>
      <trkpt lat="47.54766" lon="6.68969">
        <ele>374</ele>
        <time>2016-07-28T13:12:30.000Z</time>
      </trkpt>
      <trkpt lat="47.54765" lon="6.68963">
        <ele>374</ele>
        <time>2016-07-28T13:12:31.000Z</time>
      </trkpt>
      <trkpt lat="47.54763" lon="6.68957">
        <ele>374</ele>
        <time>2016-07-28T13:12:32.000Z</time>
      </trkpt>
      <trkpt lat="47.54761" lon="6.68952">
        <ele>374</ele>
        <time>2016-07-28T13:12:33.000Z</time>
      </trkpt>
      <trkpt lat="47.5476" lon="6.68946">
        <ele>374</ele>
        <time>2016-07-28T13:12:34.000Z</time>
      </trkpt>
      <trkpt lat="47.54758" lon="6.68941">
        <ele>374</ele>
        <time>2016-07-28T13:12:35.000Z</time>
      </trkpt>
      <trkpt lat="47.54757" lon="6.68936">
        <ele>374</ele>
        <time>2016-07-28T13:12:36.000Z</time>
      </trkpt>
      <trkpt lat="47.54755" lon="6.6893">
        <ele>375</ele>
        <time>2016-07-28T13:12:37.000Z</time>
      </trkpt>
      <trkpt lat="47.54754" lon="6.68925">
        <ele>375</ele>
        <time>2016-07-28T13:12:38.000Z</time>
      </trkpt>
      <trkpt lat="47.54752" lon="6.6892">
        <ele>376</ele>
        <time>2016-07-28T13:12:39.000Z</time>
      </trkpt>
      <trkpt lat="47.54751" lon="6.68915">
        <ele>376</ele>
        <time>2016-07-28T13:12:40.000Z</time>
      </trkpt>
      <trkpt lat="47.5475" lon="6.6891">
        <ele>377</ele>
        <time>2016-07-28T13:12:41.000Z</time>
      </trkpt>
      <trkpt lat="47.54749" lon="6.68906">
        <ele>377</ele>
        <time>2016-07-28T13:12:42.000Z</time>
      </trkpt>
      <trkpt lat="47.54748" lon="6.68901">
        <ele>377</ele>
        <time>2016-07-28T13:12:43.000Z</time>
      </trkpt>
      <trkpt lat="47.54747" lon="6.68897">
        <ele>377</ele>
        <time>2016-07-28T13:12:44.000Z</time>
      </trkpt>
      <trkpt lat="47.54747" lon="6.68893">
        <ele>377</ele>
        <time>2016-07-28T13:12:45.000Z</time>
      </trkpt>
      <trkpt lat="47.54746" lon="6.6889">
        <ele>378</ele>
        <time>2016-07-28T13:12:46.000Z</time>
      </trkpt>
      <trkpt lat="47.54745" lon="6.68886">
        <ele>378</ele>
        <time>2016-07-28T13:12:46.999Z</time>
      </trkpt>
      <trkpt lat="47.54744" lon="6.68882">
        <ele>378</ele>
        <time>2016-07-28T13:12:48.000Z</time>
      </trkpt>
      <trkpt lat="47.54743" lon="6.68878">
        <ele>378</ele>
        <time>2016-07-28T13:12:49.000Z</time>
      </trkpt>
      <trkpt lat="47.54741" lon="6.68875">
        <ele>378</ele>
        <time>2016-07-28T13:12:50.000Z</time>
      </trkpt>
      <trkpt lat="47.54738" lon="6.68871">
        <ele>378</ele>
        <time>2016-07-28T13:12:51.000Z</time>
      </trkpt>
      <trkpt lat="47.54736" lon="6.68868">
        <ele>378</ele>
        <time>2016-07-28T13:12:52.000Z</time>
      </trkpt>
      <trkpt lat="47.54733" lon="6.68864">
        <ele>378</ele>
        <time>2016-07-28T13:12:53.000Z</time>
      </trkpt>
      <trkpt lat="47.54731" lon="6.68861">
        <ele>378</ele>
        <time>2016-07-28T13:12:54.000Z</time>
      </trkpt>
      <trkpt lat="47.54728" lon="6.68857">
        <ele>378</ele>
        <time>2016-07-28T13:12:55.000Z</time>
      </trkpt>
      <trkpt lat="47.54726" lon="6.68854">
        <ele>378</ele>
        <time>2016-07-28T13:12:56.000Z</time>
      </trkpt>
      <trkpt lat="47.54724" lon="6.6885">
        <ele>378</ele>
        <time>2016-07-28T13:12:57.000Z</time>
      </trkpt>
      <trkpt lat="47.54722" lon="6.68846">
        <ele>378</ele>
        <time>2016-07-28T13:12:58.000Z</time>
      </trkpt>
      <trkpt lat="47.5472" lon="6.68843">
        <ele>378</ele>
        <time>2016-07-28T13:12:59.000Z</time>
      </trkpt>
      <trkpt lat="47.54718" lon="6.68839">
        <ele>378</ele>
        <time>2016-07-28T13:13:00.000Z</time>
      </trkpt>
      <trkpt lat="47.54716" lon="6.68835">
        <ele>378</ele>
        <time>2016-07-28T13:13:01.000Z</time>
      </trkpt>
      <trkpt lat="47.54713" lon="6.68831">
        <ele>378</ele>
        <time>2016-07-28T13:13:02.000Z</time>
      </trkpt>
      <trkpt lat="47.54711" lon="6.68827">
        <ele>378</ele>
        <time>2016-07-28T13:13:03.000Z</time>
      </trkpt>
      <trkpt lat="47.54709" lon="6.68823">
        <ele>378</ele>
        <time>2016-07-28T13:13:04.000Z</time>
      </trkpt>
      <trkpt lat="47.54707" lon="6.68819">
        <ele>379</ele>
        <time>2016-07-28T13:13:05.000Z</time>
      </trkpt>
      <trkpt lat="47.54705" lon="6.68816">
        <ele>379</ele>
        <time>2016-07-28T13:13:06.000Z</time>
      </trkpt>
      <trkpt lat="47.54703" lon="6.68812">
        <ele>379</ele>
        <time>2016-07-28T13:13:07.000Z</time>
      </trkpt>
      <trkpt lat="47.54701" lon="6.68809">
        <ele>379</ele>
        <time>2016-07-28T13:13:08.000Z</time>
      </trkpt>
      <trkpt lat="47.54699" lon="6.68805">
        <ele>379</ele>
        <time>2016-07-28T13:13:09.000Z</time>
      </trkpt>
      <trkpt lat="47.54697" lon="6.68801">
        <ele>379</ele>
        <time>2016-07-28T13:13:10.000Z</time>
      </trkpt>
      <trkpt lat="47.54695" lon="6.68797">
        <ele>379</ele>
        <time>2016-07-28T13:13:11.000Z</time>
      </trkpt>
      <trkpt lat="47.54693" lon="6.68793">
        <ele>379</ele>
        <time>2016-07-28T13:13:12.000Z</time>
      </trkpt>
      <trkpt lat="47.54691" lon="6.68789">
        <ele>379</ele>
        <time>2016-07-28T13:13:13.000Z</time>
      </trkpt>
      <trkpt lat="47.54688" lon="6.68785">
        <ele>379</ele>
        <time>2016-07-28T13:13:14.000Z</time>
      </trkpt>
      <trkpt lat="47.54686" lon="6.68782">
        <ele>379</ele>
        <time>2016-07-28T13:13:15.000Z</time>
      </trkpt>
      <trkpt lat="47.54685" lon="6.68779">
        <ele>379</ele>
        <time>2016-07-28T13:13:16.000Z</time>
      </trkpt>
      <trkpt lat="47.54683" lon="6.68775">
        <ele>379</ele>
        <time>2016-07-28T13:13:17.000Z</time>
      </trkpt>
      <trkpt lat="47.54681" lon="6.68772">
        <ele>379</ele>
        <time>2016-07-28T13:13:18.000Z</time>
      </trkpt>
      <trkpt lat="47.54679" lon="6.68769">
        <ele>380</ele>
        <time>2016-07-28T13:13:19.000Z</time>
      </trkpt>
      <trkpt lat="47.54677" lon="6.68765">
        <ele>380</ele>
        <time>2016-07-28T13:13:20.000Z</time>
      </trkpt>
      <trkpt lat="47.54674" lon="6.68761">
        <ele>380</ele>
        <time>2016-07-28T13:13:21.000Z</time>
      </trkpt>
      <trkpt lat="47.54672" lon="6.68757">
        <ele>380</ele>
        <time>2016-07-28T13:13:22.000Z</time>
      </trkpt>
      <trkpt lat="47.54669" lon="6.68753">
        <ele>381</ele>
        <time>2016-07-28T13:13:23.000Z</time>
      </trkpt>
      <trkpt lat="47.54667" lon="6.6875">
        <ele>381</ele>
        <time>2016-07-28T13:13:24.000Z</time>
      </trkpt>
      <trkpt lat="47.54665" lon="6.68746">
        <ele>381</ele>
        <time>2016-07-28T13:13:25.000Z</time>
      </trkpt>
      <trkpt lat="47.54663" lon="6.68743">
        <ele>382</ele>
        <time>2016-07-28T13:13:26.000Z</time>
      </trkpt>
      <trkpt lat="47.54661" lon="6.68739">
        <ele>382</ele>
        <time>2016-07-28T13:13:27.000Z</time>
      </trkpt>
      <trkpt lat="47.54658" lon="6.68736">
        <ele>382</ele>
        <time>2016-07-28T13:13:28.000Z</time>
      </trkpt>
      <trkpt lat="47.54656" lon="6.68733">
        <ele>382</ele>
        <time>2016-07-28T13:13:29.000Z</time>
      </trkpt>
      <trkpt lat="47.54654" lon="6.6873">
        <ele>382</ele>
        <time>2016-07-28T13:13:30.000Z</time>
      </trkpt>
      <trkpt lat="47.54651" lon="6.68727">
        <ele>383</ele>
        <time>2016-07-28T13:13:31.000Z</time>
      </trkpt>
      <trkpt lat="47.54649" lon="6.68724">
        <ele>383</ele>
        <time>2016-07-28T13:13:32.000Z</time>
      </trkpt>
      <trkpt lat="47.54647" lon="6.68722">
        <ele>383</ele>
        <time>2016-07-28T13:13:33.001Z</time>
      </trkpt>
      <trkpt lat="47.54645" lon="6.6872">
        <ele>383</ele>
        <time>2016-07-28T13:13:34.000Z</time>
      </trkpt>
      <trkpt lat="47.54642" lon="6.68717">
        <ele>383</ele>
        <time>2016-07-28T13:13:35.000Z</time>
      </trkpt>
      <trkpt lat="47.5464" lon="6.68715">
        <ele>383</ele>
        <time>2016-07-28T13:13:36.000Z</time>
      </trkpt>
      <trkpt lat="47.54638" lon="6.68712">
        <ele>383</ele>
        <time>2016-07-28T13:13:37.000Z</time>
      </trkpt>
      <trkpt lat="47.54636" lon="6.6871">
        <ele>383</ele>
        <time>2016-07-28T13:13:38.000Z</time>
      </trkpt>
      <trkpt lat="47.54633" lon="6.68707">
        <ele>383</ele>
        <time>2016-07-28T13:13:39.000Z</time>
      </trkpt>
      <trkpt lat="47.54631" lon="6.68704">
        <ele>383</ele>
        <time>2016-07-28T13:13:40.000Z</time>
      </trkpt>
      <trkpt lat="47.54628" lon="6.68701">
        <ele>383</ele>
        <time>2016-07-28T13:13:41.000Z</time>
      </trkpt>
      <trkpt lat="47.54626" lon="6.68699">
        <ele>383</ele>
        <time>2016-07-28T13:13:42.000Z</time>
      </trkpt>
      <trkpt lat="47.54625" lon="6.68696">
        <ele>383</ele>
        <time>2016-07-28T13:13:43.000Z</time>
      </trkpt>
      <trkpt lat="47.54623" lon="6.68694">
        <ele>383</ele>
        <time>2016-07-28T13:13:44.000Z</time>
      </trkpt>
      <trkpt lat="47.54621" lon="6.68691">
        <ele>383</ele>
        <time>2016-07-28T13:13:45.000Z</time>
      </trkpt>
      <trkpt lat="47.54619" lon="6.68689">
        <ele>383</ele>
        <time>2016-07-28T13:13:46.000Z</time>
      </trkpt>
      <trkpt lat="47.54617" lon="6.68686">
        <ele>383</ele>
        <time>2016-07-28T13:13:47.000Z</time>
      </trkpt>
      <trkpt lat="47.54615" lon="6.68684">
        <ele>384</ele>
        <time>2016-07-28T13:13:48.000Z</time>
      </trkpt>
      <trkpt lat="47.54612" lon="6.68682">
        <ele>384</ele>
        <time>2016-07-28T13:13:49.000Z</time>
      </trkpt>
      <trkpt lat="47.5461" lon="6.6868">
        <ele>384</ele>
        <time>2016-07-28T13:13:50.000Z</time>
      </trkpt>
      <trkpt lat="47.54607" lon="6.68678">
        <ele>384</ele>
        <time>2016-07-28T13:13:51.000Z</time>
      </trkpt>
      <trkpt lat="47.54604" lon="6.68676">
        <ele>384</ele>
        <time>2016-07-28T13:13:52.000Z</time>
      </trkpt>
      <trkpt lat="47.54601" lon="6.68674">
        <ele>384</ele>
        <time>2016-07-28T13:13:53.000Z</time>
      </trkpt>
      <trkpt lat="47.54598" lon="6.68672">
        <ele>384</ele>
        <time>2016-07-28T13:13:54.000Z</time>
      </trkpt>
      <trkpt lat="47.54595" lon="6.6867">
        <ele>384</ele>
        <time>2016-07-28T13:13:55.000Z</time>
      </trkpt>
      <trkpt lat="47.54593" lon="6.68668">
        <ele>384</ele>
        <time>2016-07-28T13:13:56.000Z</time>
      </trkpt>
      <trkpt lat="47.5459" lon="6.68666">
        <ele>384</ele>
        <time>2016-07-28T13:13:57.000Z</time>
      </trkpt>
      <trkpt lat="47.54587" lon="6.68664">
        <ele>384</ele>
        <time>2016-07-28T13:13:58.000Z</time>
      </trkpt>
      <trkpt lat="47.54584" lon="6.68661">
        <ele>384</ele>
        <time>2016-07-28T13:13:59.000Z</time>
      </trkpt>
      <trkpt lat="47.54581" lon="6.68659">
        <ele>384</ele>
        <time>2016-07-28T13:14:00.000Z</time>
      </trkpt>
      <trkpt lat="47.54579" lon="6.68657">
        <ele>384</ele>
        <time>2016-07-28T13:14:01.000Z</time>
      </trkpt>
      <trkpt lat="47.54576" lon="6.68655">
        <ele>384</ele>
        <time>2016-07-28T13:14:02.000Z</time>
      </trkpt>
      <trkpt lat="47.54573" lon="6.68653">
        <ele>384</ele>
        <time>2016-07-28T13:14:03.000Z</time>
      </trkpt>
      <trkpt lat="47.5457" lon="6.68651">
        <ele>384</ele>
        <time>2016-07-28T13:14:04.000Z</time>
      </trkpt>
      <trkpt lat="47.54567" lon="6.68649">
        <ele>384</ele>
        <time>2016-07-28T13:14:05.000Z</time>
      </trkpt>
      <trkpt lat="47.54565" lon="6.68647">
        <ele>384</ele>
        <time>2016-07-28T13:14:06.000Z</time>
      </trkpt>
      <trkpt lat="47.54561" lon="6.68645">
        <ele>384</ele>
        <time>2016-07-28T13:14:07.000Z</time>
      </trkpt>
      <trkpt lat="47.54559" lon="6.68643">
        <ele>384</ele>
        <time>2016-07-28T13:14:08.000Z</time>
      </trkpt>
      <trkpt lat="47.54555" lon="6.68641">
        <ele>384</ele>
        <time>2016-07-28T13:14:09.000Z</time>
      </trkpt>
      <trkpt lat="47.54552" lon="6.68639">
        <ele>384</ele>
        <time>2016-07-28T13:14:10.000Z</time>
      </trkpt>
      <trkpt lat="47.54549" lon="6.68637">
        <ele>384</ele>
        <time>2016-07-28T13:14:11.000Z</time>
      </trkpt>
      <trkpt lat="47.54546" lon="6.68636">
        <ele>384</ele>
        <time>2016-07-28T13:14:12.000Z</time>
      </trkpt>
      <trkpt lat="47.54544" lon="6.68634">
        <ele>384</ele>
        <time>2016-07-28T13:14:13.000Z</time>
      </trkpt>
      <trkpt lat="47.54541" lon="6.68633">
        <ele>384</ele>
        <time>2016-07-28T13:14:14.000Z</time>
      </trkpt>
      <trkpt lat="47.54539" lon="6.68632">
        <ele>384</ele>
        <time>2016-07-28T13:14:15.000Z</time>
      </trkpt>
      <trkpt lat="47.54537" lon="6.6863">
        <ele>384</ele>
        <time>2016-07-28T13:14:16.000Z</time>
      </trkpt>
      <trkpt lat="47.54533" lon="6.68627">
        <ele>384</ele>
        <time>2016-07-28T13:14:18.000Z</time>
      </trkpt>
      <trkpt lat="47.54531" lon="6.68626">
        <ele>384</ele>
        <time>2016-07-28T13:14:19.000Z</time>
      </trkpt>
      <trkpt lat="47.54528" lon="6.68623">
        <ele>384</ele>
        <time>2016-07-28T13:14:21.000Z</time>
      </trkpt>
      <trkpt lat="47.54526" lon="6.68622">
        <ele>384</ele>
        <time>2016-07-28T13:14:22.000Z</time>
      </trkpt>
      <trkpt lat="47.54523" lon="6.68622">
        <ele>384</ele>
        <time>2016-07-28T13:14:23.000Z</time>
      </trkpt>
      <trkpt lat="47.5452" lon="6.68621">
        <ele>384</ele>
        <time>2016-07-28T13:14:24.000Z</time>
      </trkpt>
      <trkpt lat="47.54517" lon="6.6862">
        <ele>384</ele>
        <time>2016-07-28T13:14:25.000Z</time>
      </trkpt>
      <trkpt lat="47.54514" lon="6.68618">
        <ele>384</ele>
        <time>2016-07-28T13:14:26.000Z</time>
      </trkpt>
      <trkpt lat="47.5451" lon="6.68617">
        <ele>384</ele>
        <time>2016-07-28T13:14:27.000Z</time>
      </trkpt>
      <trkpt lat="47.54506" lon="6.68615">
        <ele>384</ele>
        <time>2016-07-28T13:14:28.000Z</time>
      </trkpt>
      <trkpt lat="47.54502" lon="6.68614">
        <ele>384</ele>
        <time>2016-07-28T13:14:29.000Z</time>
      </trkpt>
      <trkpt lat="47.54498" lon="6.68612">
        <ele>383</ele>
        <time>2016-07-28T13:14:30.000Z</time>
      </trkpt>
      <trkpt lat="47.54494" lon="6.6861">
        <ele>383</ele>
        <time>2016-07-28T13:14:31.000Z</time>
      </trkpt>
      <trkpt lat="47.5449" lon="6.68609">
        <ele>383</ele>
        <time>2016-07-28T13:14:32.000Z</time>
      </trkpt>
      <trkpt lat="47.54486" lon="6.68606">
        <ele>383</ele>
        <time>2016-07-28T13:14:33.000Z</time>
      </trkpt>
      <trkpt lat="47.54482" lon="6.68604">
        <ele>383</ele>
        <time>2016-07-28T13:14:34.000Z</time>
      </trkpt>
      <trkpt lat="47.54477" lon="6.68601">
        <ele>383</ele>
        <time>2016-07-28T13:14:35.000Z</time>
      </trkpt>
      <trkpt lat="47.54473" lon="6.68596">
        <ele>383</ele>
        <time>2016-07-28T13:14:36.000Z</time>
      </trkpt>
      <trkpt lat="47.54471" lon="6.68591">
        <ele>382</ele>
        <time>2016-07-28T13:14:37.000Z</time>
      </trkpt>
      <trkpt lat="47.5447" lon="6.68584">
        <ele>382</ele>
        <time>2016-07-28T13:14:38.000Z</time>
      </trkpt>
      <trkpt lat="47.54471" lon="6.68579">
        <ele>381</ele>
        <time>2016-07-28T13:14:39.000Z</time>
      </trkpt>
      <trkpt lat="47.54471" lon="6.68573">
        <ele>381</ele>
        <time>2016-07-28T13:14:40.000Z</time>
      </trkpt>
      <trkpt lat="47.54472" lon="6.68567">
        <ele>381</ele>
        <time>2016-07-28T13:14:41.000Z</time>
      </trkpt>
      <trkpt lat="47.54473" lon="6.68561">
        <ele>381</ele>
        <time>2016-07-28T13:14:42.000Z</time>
      </trkpt>
      <trkpt lat="47.54474" lon="6.68555">
        <ele>381</ele>
        <time>2016-07-28T13:14:43.000Z</time>
      </trkpt>
      <trkpt lat="47.54475" lon="6.6855">
        <ele>381</ele>
        <time>2016-07-28T13:14:44.000Z</time>
      </trkpt>
      <trkpt lat="47.54476" lon="6.68546">
        <ele>381</ele>
        <time>2016-07-28T13:14:45.000Z</time>
      </trkpt>
      <trkpt lat="47.54477" lon="6.6854">
        <ele>381</ele>
        <time>2016-07-28T13:14:46.000Z</time>
      </trkpt>
      <trkpt lat="47.54478" lon="6.68534">
        <ele>381</ele>
        <time>2016-07-28T13:14:47.000Z</time>
      </trkpt>
      <trkpt lat="47.54478" lon="6.68529">
        <ele>381</ele>
        <time>2016-07-28T13:14:48.000Z</time>
      </trkpt>
      <trkpt lat="47.54479" lon="6.68523">
        <ele>381</ele>
        <time>2016-07-28T13:14:49.000Z</time>
      </trkpt>
      <trkpt lat="47.5448" lon="6.68517">
        <ele>381</ele>
        <time>2016-07-28T13:14:50.000Z</time>
      </trkpt>
      <trkpt lat="47.54481" lon="6.68511">
        <ele>381</ele>
        <time>2016-07-28T13:14:51.000Z</time>
      </trkpt>
      <trkpt lat="47.54482" lon="6.68505">
        <ele>381</ele>
        <time>2016-07-28T13:14:52.000Z</time>
      </trkpt>
      <trkpt lat="47.54484" lon="6.68499">
        <ele>381</ele>
        <time>2016-07-28T13:14:53.000Z</time>
      </trkpt>
      <trkpt lat="47.54484" lon="6.68492">
        <ele>381</ele>
        <time>2016-07-28T13:14:54.000Z</time>
      </trkpt>
      <trkpt lat="47.54485" lon="6.68485">
        <ele>381</ele>
        <time>2016-07-28T13:14:55.000Z</time>
      </trkpt>
      <trkpt lat="47.54486" lon="6.6848">
        <ele>381</ele>
        <time>2016-07-28T13:14:56.000Z</time>
      </trkpt>
      <trkpt lat="47.54486" lon="6.68472">
        <ele>381</ele>
        <time>2016-07-28T13:14:57.000Z</time>
      </trkpt>
      <trkpt lat="47.54487" lon="6.68465">
        <ele>381</ele>
        <time>2016-07-28T13:14:58.000Z</time>
      </trkpt>
      <trkpt lat="47.54488" lon="6.68459">
        <ele>381</ele>
        <time>2016-07-28T13:14:59.000Z</time>
      </trkpt>
      <trkpt lat="47.54488" lon="6.68453">
        <ele>381</ele>
        <time>2016-07-28T13:15:00.000Z</time>
      </trkpt>
      <trkpt lat="47.54489" lon="6.68447">
        <ele>381</ele>
        <time>2016-07-28T13:15:01.000Z</time>
      </trkpt>
      <trkpt lat="47.5449" lon="6.6844">
        <ele>381</ele>
        <time>2016-07-28T13:15:02.000Z</time>
      </trkpt>
      <trkpt lat="47.54491" lon="6.68435">
        <ele>381</ele>
        <time>2016-07-28T13:15:03.000Z</time>
      </trkpt>
      <trkpt lat="47.54492" lon="6.68429">
        <ele>381</ele>
        <time>2016-07-28T13:15:04.000Z</time>
      </trkpt>
      <trkpt lat="47.54492" lon="6.68424">
        <ele>381</ele>
        <time>2016-07-28T13:15:05.000Z</time>
      </trkpt>
      <trkpt lat="47.54493" lon="6.68419">
        <ele>382</ele>
        <time>2016-07-28T13:15:06.000Z</time>
      </trkpt>
      <trkpt lat="47.54494" lon="6.68414">
        <ele>382</ele>
        <time>2016-07-28T13:15:07.000Z</time>
      </trkpt>
      <trkpt lat="47.54495" lon="6.68408">
        <ele>382</ele>
        <time>2016-07-28T13:15:08.000Z</time>
      </trkpt>
      <trkpt lat="47.54496" lon="6.68403">
        <ele>382</ele>
        <time>2016-07-28T13:15:09.000Z</time>
      </trkpt>
      <trkpt lat="47.54497" lon="6.68398">
        <ele>382</ele>
        <time>2016-07-28T13:15:10.000Z</time>
      </trkpt>
      <trkpt lat="47.54498" lon="6.68392">
        <ele>382</ele>
        <time>2016-07-28T13:15:11.000Z</time>
      </trkpt>
      <trkpt lat="47.54499" lon="6.68387">
        <ele>382</ele>
        <time>2016-07-28T13:15:12.000Z</time>
      </trkpt>
      <trkpt lat="47.545" lon="6.68382">
        <ele>382</ele>
        <time>2016-07-28T13:15:13.000Z</time>
      </trkpt>
      <trkpt lat="47.54501" lon="6.68378">
        <ele>385</ele>
        <time>2016-07-28T13:15:14.000Z</time>
      </trkpt>
      <trkpt lat="47.54502" lon="6.68373">
        <ele>385</ele>
        <time>2016-07-28T13:15:15.000Z</time>
      </trkpt>
      <trkpt lat="47.54502" lon="6.68369">
        <ele>385</ele>
        <time>2016-07-28T13:15:16.000Z</time>
      </trkpt>
      <trkpt lat="47.54503" lon="6.68365">
        <ele>385</ele>
        <time>2016-07-28T13:15:17.000Z</time>
      </trkpt>
      <trkpt lat="47.54505" lon="6.68362">
        <ele>385</ele>
        <time>2016-07-28T13:15:18.000Z</time>
      </trkpt>
      <trkpt lat="47.54507" lon="6.68357">
        <ele>385</ele>
        <time>2016-07-28T13:15:20.000Z</time>
      </trkpt>
      <trkpt lat="47.54508" lon="6.68354">
        <ele>385</ele>
        <time>2016-07-28T13:15:21.001Z</time>
      </trkpt>
      <trkpt lat="47.5451" lon="6.6835">
        <ele>385</ele>
        <time>2016-07-28T13:15:25.000Z</time>
      </trkpt>
      <trkpt lat="47.54511" lon="6.68348">
        <ele>385</ele>
        <time>2016-07-28T13:15:26.000Z</time>
      </trkpt>
      <trkpt lat="47.54511" lon="6.68343">
        <ele>385</ele>
        <time>2016-07-28T13:15:29.000Z</time>
      </trkpt>
      <trkpt lat="47.54511" lon="6.68341">
        <ele>385</ele>
        <time>2016-07-28T13:15:30.000Z</time>
      </trkpt>
      <trkpt lat="47.5451" lon="6.68336">
        <ele>385</ele>
        <time>2016-07-28T13:15:40.000Z</time>
      </trkpt>
      <trkpt lat="47.54511" lon="6.68334">
        <ele>385</ele>
        <time>2016-07-28T13:15:41.000Z</time>
      </trkpt>
      <trkpt lat="47.54511" lon="6.6833">
        <ele>386</ele>
        <time>2016-07-28T13:15:43.000Z</time>
      </trkpt>
      <trkpt lat="47.54512" lon="6.68327">
        <ele>386</ele>
        <time>2016-07-28T13:15:44.000Z</time>
      </trkpt>
      <trkpt lat="47.54512" lon="6.68321">
        <ele>387</ele>
        <time>2016-07-28T13:15:46.000Z</time>
      </trkpt>
      <trkpt lat="47.54512" lon="6.68318">
        <ele>387</ele>
        <time>2016-07-28T13:15:47.001Z</time>
      </trkpt>
      <trkpt lat="47.54513" lon="6.68311">
        <ele>387</ele>
        <time>2016-07-28T13:15:49.000Z</time>
      </trkpt>
      <trkpt lat="47.54514" lon="6.68308">
        <ele>387</ele>
        <time>2016-07-28T13:15:50.000Z</time>
      </trkpt>
      <trkpt lat="47.54515" lon="6.68304">
        <ele>387</ele>
        <time>2016-07-28T13:15:51.000Z</time>
      </trkpt>
      <trkpt lat="47.54516" lon="6.68301">
        <ele>387</ele>
        <time>2016-07-28T13:15:52.000Z</time>
      </trkpt>
      <trkpt lat="47.54516" lon="6.68298">
        <ele>387</ele>
        <time>2016-07-28T13:15:53.000Z</time>
      </trkpt>
      <trkpt lat="47.54517" lon="6.68295">
        <ele>387</ele>
        <time>2016-07-28T13:15:54.000Z</time>
      </trkpt>
      <trkpt lat="47.54518" lon="6.68292">
        <ele>387</ele>
        <time>2016-07-28T13:15:55.000Z</time>
      </trkpt>
      <trkpt lat="47.5452" lon="6.68289">
        <ele>388</ele>
        <time>2016-07-28T13:15:56.000Z</time>
      </trkpt>
      <trkpt lat="47.54522" lon="6.68283">
        <ele>388</ele>
        <time>2016-07-28T13:15:58.000Z</time>
      </trkpt>
      <trkpt lat="47.54523" lon="6.6828">
        <ele>388</ele>
        <time>2016-07-28T13:15:59.000Z</time>
      </trkpt>
      <trkpt lat="47.54524" lon="6.68277">
        <ele>388</ele>
        <time>2016-07-28T13:16:00.000Z</time>
      </trkpt>
      <trkpt lat="47.54525" lon="6.68274">
        <ele>388</ele>
        <time>2016-07-28T13:16:01.000Z</time>
      </trkpt>
      <trkpt lat="47.54526" lon="6.6827">
        <ele>388</ele>
        <time>2016-07-28T13:16:02.000Z</time>
      </trkpt>
      <trkpt lat="47.54527" lon="6.68266">
        <ele>388</ele>
        <time>2016-07-28T13:16:03.000Z</time>
      </trkpt>
      <trkpt lat="47.54527" lon="6.68263">
        <ele>388</ele>
        <time>2016-07-28T13:16:04.000Z</time>
      </trkpt>
      <trkpt lat="47.54528" lon="6.68259">
        <ele>388</ele>
        <time>2016-07-28T13:16:05.000Z</time>
      </trkpt>
      <trkpt lat="47.54529" lon="6.68255">
        <ele>388</ele>
        <time>2016-07-28T13:16:06.000Z</time>
      </trkpt>
      <trkpt lat="47.54529" lon="6.68251">
        <ele>388</ele>
        <time>2016-07-28T13:16:07.000Z</time>
      </trkpt>
      <trkpt lat="47.5453" lon="6.68248">
        <ele>389</ele>
        <time>2016-07-28T13:16:08.000Z</time>
      </trkpt>
      <trkpt lat="47.54531" lon="6.68244">
        <ele>389</ele>
        <time>2016-07-28T13:16:09.000Z</time>
      </trkpt>
      <trkpt lat="47.54532" lon="6.68241">
        <ele>389</ele>
        <time>2016-07-28T13:16:10.000Z</time>
      </trkpt>
      <trkpt lat="47.54533" lon="6.68237">
        <ele>389</ele>
        <time>2016-07-28T13:16:11.000Z</time>
      </trkpt>
      <trkpt lat="47.54534" lon="6.68233">
        <ele>389</ele>
        <time>2016-07-28T13:16:12.000Z</time>
      </trkpt>
      <trkpt lat="47.54535" lon="6.68229">
        <ele>389</ele>
        <time>2016-07-28T13:16:13.000Z</time>
      </trkpt>
      <trkpt lat="47.54535" lon="6.68225">
        <ele>389</ele>
        <time>2016-07-28T13:16:14.000Z</time>
      </trkpt>
      <trkpt lat="47.54536" lon="6.68221">
        <ele>389</ele>
        <time>2016-07-28T13:16:15.000Z</time>
      </trkpt>
      <trkpt lat="47.54537" lon="6.68218">
        <ele>390</ele>
        <time>2016-07-28T13:16:16.000Z</time>
      </trkpt>
      <trkpt lat="47.54538" lon="6.68214">
        <ele>390</ele>
        <time>2016-07-28T13:16:17.000Z</time>
      </trkpt>
      <trkpt lat="47.54539" lon="6.68211">
        <ele>390</ele>
        <time>2016-07-28T13:16:18.000Z</time>
      </trkpt>
      <trkpt lat="47.54539" lon="6.68207">
        <ele>390</ele>
        <time>2016-07-28T13:16:19.000Z</time>
      </trkpt>
      <trkpt lat="47.5454" lon="6.68204">
        <ele>390</ele>
        <time>2016-07-28T13:16:20.000Z</time>
      </trkpt>
      <trkpt lat="47.54541" lon="6.682">
        <ele>390</ele>
        <time>2016-07-28T13:16:21.000Z</time>
      </trkpt>
      <trkpt lat="47.54542" lon="6.68197">
        <ele>390</ele>
        <time>2016-07-28T13:16:22.000Z</time>
      </trkpt>
      <trkpt lat="47.54543" lon="6.68193">
        <ele>390</ele>
        <time>2016-07-28T13:16:23.000Z</time>
      </trkpt>
      <trkpt lat="47.54545" lon="6.6819">
        <ele>390</ele>
        <time>2016-07-28T13:16:24.000Z</time>
      </trkpt>
      <trkpt lat="47.54546" lon="6.68186">
        <ele>390</ele>
        <time>2016-07-28T13:16:25.000Z</time>
      </trkpt>
      <trkpt lat="47.54547" lon="6.68182">
        <ele>390</ele>
        <time>2016-07-28T13:16:26.000Z</time>
      </trkpt>
      <trkpt lat="47.54548" lon="6.68178">
        <ele>390</ele>
        <time>2016-07-28T13:16:27.000Z</time>
      </trkpt>
      <trkpt lat="47.54549" lon="6.68174">
        <ele>390</ele>
        <time>2016-07-28T13:16:28.000Z</time>
      </trkpt>
      <trkpt lat="47.5455" lon="6.68171">
        <ele>390</ele>
        <time>2016-07-28T13:16:29.000Z</time>
      </trkpt>
      <trkpt lat="47.54551" lon="6.68167">
        <ele>391</ele>
        <time>2016-07-28T13:16:30.000Z</time>
      </trkpt>
      <trkpt lat="47.54552" lon="6.68163">
        <ele>391</ele>
        <time>2016-07-28T13:16:31.000Z</time>
      </trkpt>
      <trkpt lat="47.54553" lon="6.68159">
        <ele>391</ele>
        <time>2016-07-28T13:16:32.000Z</time>
      </trkpt>
      <trkpt lat="47.54554" lon="6.68155">
        <ele>391</ele>
        <time>2016-07-28T13:16:33.000Z</time>
      </trkpt>
      <trkpt lat="47.54555" lon="6.68151">
        <ele>391</ele>
        <time>2016-07-28T13:16:34.000Z</time>
      </trkpt>
      <trkpt lat="47.54557" lon="6.68147">
        <ele>391</ele>
        <time>2016-07-28T13:16:35.000Z</time>
      </trkpt>
      <trkpt lat="47.54558" lon="6.68143">
        <ele>391</ele>
        <time>2016-07-28T13:16:36.000Z</time>
      </trkpt>
      <trkpt lat="47.5456" lon="6.68139">
        <ele>391</ele>
        <time>2016-07-28T13:16:37.000Z</time>
      </trkpt>
      <trkpt lat="47.54561" lon="6.68136">
        <ele>392</ele>
        <time>2016-07-28T13:16:38.000Z</time>
      </trkpt>
      <trkpt lat="47.54563" lon="6.68132">
        <ele>392</ele>
        <time>2016-07-28T13:16:39.000Z</time>
      </trkpt>
      <trkpt lat="47.54565" lon="6.68128">
        <ele>392</ele>
        <time>2016-07-28T13:16:40.000Z</time>
      </trkpt>
      <trkpt lat="47.54566" lon="6.68125">
        <ele>392</ele>
        <time>2016-07-28T13:16:41.000Z</time>
      </trkpt>
      <trkpt lat="47.54568" lon="6.68121">
        <ele>392</ele>
        <time>2016-07-28T13:16:42.000Z</time>
      </trkpt>
      <trkpt lat="47.54569" lon="6.68116">
        <ele>392</ele>
        <time>2016-07-28T13:16:43.000Z</time>
      </trkpt>
      <trkpt lat="47.5457" lon="6.68112">
        <ele>392</ele>
        <time>2016-07-28T13:16:44.000Z</time>
      </trkpt>
      <trkpt lat="47.54571" lon="6.68109">
        <ele>392</ele>
        <time>2016-07-28T13:16:45.000Z</time>
      </trkpt>
      <trkpt lat="47.54572" lon="6.68106">
        <ele>392</ele>
        <time>2016-07-28T13:16:46.000Z</time>
      </trkpt>
      <trkpt lat="47.54573" lon="6.68103">
        <ele>392</ele>
        <time>2016-07-28T13:16:47.000Z</time>
      </trkpt>
      <trkpt lat="47.54574" lon="6.681">
        <ele>392</ele>
        <time>2016-07-28T13:16:48.000Z</time>
      </trkpt>
      <trkpt lat="47.54575" lon="6.68096">
        <ele>393</ele>
        <time>2016-07-28T13:16:49.000Z</time>
      </trkpt>
      <trkpt lat="47.54576" lon="6.68093">
        <ele>393</ele>
        <time>2016-07-28T13:16:50.000Z</time>
      </trkpt>
      <trkpt lat="47.54577" lon="6.68089">
        <ele>393</ele>
        <time>2016-07-28T13:16:51.000Z</time>
      </trkpt>
      <trkpt lat="47.54579" lon="6.68086">
        <ele>393</ele>
        <time>2016-07-28T13:16:52.000Z</time>
      </trkpt>
      <trkpt lat="47.54579" lon="6.68082">
        <ele>394</ele>
        <time>2016-07-28T13:16:53.000Z</time>
      </trkpt>
      <trkpt lat="47.5458" lon="6.68079">
        <ele>394</ele>
        <time>2016-07-28T13:16:54.000Z</time>
      </trkpt>
      <trkpt lat="47.54581" lon="6.68075">
        <ele>394</ele>
        <time>2016-07-28T13:16:55.000Z</time>
      </trkpt>
      <trkpt lat="47.54582" lon="6.68071">
        <ele>394</ele>
        <time>2016-07-28T13:16:56.000Z</time>
      </trkpt>
      <trkpt lat="47.54582" lon="6.68068">
        <ele>394</ele>
        <time>2016-07-28T13:16:57.000Z</time>
      </trkpt>
      <trkpt lat="47.54583" lon="6.68064">
        <ele>394</ele>
        <time>2016-07-28T13:16:58.000Z</time>
      </trkpt>
      <trkpt lat="47.54584" lon="6.68061">
        <ele>396</ele>
        <time>2016-07-28T13:16:59.000Z</time>
      </trkpt>
      <trkpt lat="47.54584" lon="6.68054">
        <ele>397</ele>
        <time>2016-07-28T13:17:01.000Z</time>
      </trkpt>
      <trkpt lat="47.54585" lon="6.68051">
        <ele>397</ele>
        <time>2016-07-28T13:17:02.000Z</time>
      </trkpt>
      <trkpt lat="47.54587" lon="6.68046">
        <ele>397</ele>
        <time>2016-07-28T13:17:04.000Z</time>
      </trkpt>
      <trkpt lat="47.54588" lon="6.68043">
        <ele>397</ele>
        <time>2016-07-28T13:17:05.000Z</time>
      </trkpt>
      <trkpt lat="47.54589" lon="6.68041">
        <ele>397</ele>
        <time>2016-07-28T13:17:06.000Z</time>
      </trkpt>
      <trkpt lat="47.5459" lon="6.68037">
        <ele>397</ele>
        <time>2016-07-28T13:17:07.000Z</time>
      </trkpt>
      <trkpt lat="47.54591" lon="6.68034">
        <ele>397</ele>
        <time>2016-07-28T13:17:08.000Z</time>
      </trkpt>
      <trkpt lat="47.54591" lon="6.6803">
        <ele>397</ele>
        <time>2016-07-28T13:17:09.000Z</time>
      </trkpt>
      <trkpt lat="47.54591" lon="6.68026">
        <ele>397</ele>
        <time>2016-07-28T13:17:10.000Z</time>
      </trkpt>
      <trkpt lat="47.54592" lon="6.68022">
        <ele>397</ele>
        <time>2016-07-28T13:17:11.000Z</time>
      </trkpt>
      <trkpt lat="47.54592" lon="6.68018">
        <ele>397</ele>
        <time>2016-07-28T13:17:12.000Z</time>
      </trkpt>
      <trkpt lat="47.54592" lon="6.68014">
        <ele>397</ele>
        <time>2016-07-28T13:17:13.000Z</time>
      </trkpt>
      <trkpt lat="47.54592" lon="6.68011">
        <ele>397</ele>
        <time>2016-07-28T13:17:14.000Z</time>
      </trkpt>
      <trkpt lat="47.54593" lon="6.68007">
        <ele>397</ele>
        <time>2016-07-28T13:17:15.000Z</time>
      </trkpt>
      <trkpt lat="47.54593" lon="6.68004">
        <ele>397</ele>
        <time>2016-07-28T13:17:16.000Z</time>
      </trkpt>
      <trkpt lat="47.54593" lon="6.68">
        <ele>397</ele>
        <time>2016-07-28T13:17:17.000Z</time>
      </trkpt>
      <trkpt lat="47.54594" lon="6.67994">
        <ele>398</ele>
        <time>2016-07-28T13:17:19.000Z</time>
      </trkpt>
      <trkpt lat="47.54594" lon="6.67991">
        <ele>398</ele>
        <time>2016-07-28T13:17:20.000Z</time>
      </trkpt>
      <trkpt lat="47.54595" lon="6.67987">
        <ele>399</ele>
        <time>2016-07-28T13:17:21.000Z</time>
      </trkpt>
      <trkpt lat="47.54595" lon="6.67984">
        <ele>399</ele>
        <time>2016-07-28T13:17:22.000Z</time>
      </trkpt>
      <trkpt lat="47.54596" lon="6.6798">
        <ele>399</ele>
        <time>2016-07-28T13:17:23.000Z</time>
      </trkpt>
      <trkpt lat="47.54596" lon="6.67977">
        <ele>400</ele>
        <time>2016-07-28T13:17:24.000Z</time>
      </trkpt>
      <trkpt lat="47.54597" lon="6.67974">
        <ele>400</ele>
        <time>2016-07-28T13:17:25.000Z</time>
      </trkpt>
      <trkpt lat="47.54598" lon="6.6797">
        <ele>400</ele>
        <time>2016-07-28T13:17:26.000Z</time>
      </trkpt>
      <trkpt lat="47.54599" lon="6.67967">
        <ele>400</ele>
        <time>2016-07-28T13:17:27.000Z</time>
      </trkpt>
      <trkpt lat="47.546" lon="6.67964">
        <ele>400</ele>
        <time>2016-07-28T13:17:28.000Z</time>
      </trkpt>
      <trkpt lat="47.546" lon="6.6796">
        <ele>400</ele>
        <time>2016-07-28T13:17:28.999Z</time>
      </trkpt>
      <trkpt lat="47.546" lon="6.67956">
        <ele>401</ele>
        <time>2016-07-28T13:17:30.000Z</time>
      </trkpt>
      <trkpt lat="47.546" lon="6.67952">
        <ele>401</ele>
        <time>2016-07-28T13:17:31.000Z</time>
      </trkpt>
      <trkpt lat="47.54599" lon="6.67948">
        <ele>401</ele>
        <time>2016-07-28T13:17:32.000Z</time>
      </trkpt>
      <trkpt lat="47.54599" lon="6.67942">
        <ele>401</ele>
        <time>2016-07-28T13:17:34.000Z</time>
      </trkpt>
      <trkpt lat="47.54599" lon="6.67939">
        <ele>401</ele>
        <time>2016-07-28T13:17:35.000Z</time>
      </trkpt>
      <trkpt lat="47.546" lon="6.67936">
        <ele>401</ele>
        <time>2016-07-28T13:17:36.000Z</time>
      </trkpt>
      <trkpt lat="47.546" lon="6.67932">
        <ele>401</ele>
        <time>2016-07-28T13:17:37.000Z</time>
      </trkpt>
      <trkpt lat="47.546" lon="6.67929">
        <ele>401</ele>
        <time>2016-07-28T13:17:37.999Z</time>
      </trkpt>
      <trkpt lat="47.54601" lon="6.67925">
        <ele>401</ele>
        <time>2016-07-28T13:17:39.000Z</time>
      </trkpt>
      <trkpt lat="47.54602" lon="6.67919">
        <ele>401</ele>
        <time>2016-07-28T13:17:41.000Z</time>
      </trkpt>
      <trkpt lat="47.54602" lon="6.67918">
        <ele>401</ele>
        <time>2016-07-28T13:17:42.000Z</time>
      </trkpt>
      <trkpt lat="47.54601" lon="6.67912">
        <ele>402</ele>
        <time>2016-07-28T13:17:50.000Z</time>
      </trkpt>
      <trkpt lat="47.54601" lon="6.67911">
        <ele>402</ele>
        <time>2016-07-28T13:17:51.000Z</time>
      </trkpt>
      <trkpt lat="47.54601" lon="6.67908">
        <ele>402</ele>
        <time>2016-07-28T13:17:52.000Z</time>
      </trkpt>
      <trkpt lat="47.54601" lon="6.67904">
        <ele>403</ele>
        <time>2016-07-28T13:17:53.000Z</time>
      </trkpt>
      <trkpt lat="47.54601" lon="6.67899">
        <ele>403</ele>
        <time>2016-07-28T13:17:54.000Z</time>
      </trkpt>
      <trkpt lat="47.54602" lon="6.67893">
        <ele>403</ele>
        <time>2016-07-28T13:17:55.000Z</time>
      </trkpt>
      <trkpt lat="47.54603" lon="6.67888">
        <ele>403</ele>
        <time>2016-07-28T13:17:56.000Z</time>
      </trkpt>
      <trkpt lat="47.54604" lon="6.67883">
        <ele>404</ele>
        <time>2016-07-28T13:17:57.000Z</time>
      </trkpt>
      <trkpt lat="47.54605" lon="6.67878">
        <ele>404</ele>
        <time>2016-07-28T13:17:58.000Z</time>
      </trkpt>
      <trkpt lat="47.54607" lon="6.67873">
        <ele>404</ele>
        <time>2016-07-28T13:17:59.000Z</time>
      </trkpt>
      <trkpt lat="47.54608" lon="6.67869">
        <ele>404</ele>
        <time>2016-07-28T13:18:00.000Z</time>
      </trkpt>
      <trkpt lat="47.54608" lon="6.67865">
        <ele>404</ele>
        <time>2016-07-28T13:18:01.000Z</time>
      </trkpt>
      <trkpt lat="47.54609" lon="6.6786">
        <ele>404</ele>
        <time>2016-07-28T13:18:02.000Z</time>
      </trkpt>
      <trkpt lat="47.54609" lon="6.67856">
        <ele>404</ele>
        <time>2016-07-28T13:18:03.000Z</time>
      </trkpt>
      <trkpt lat="47.5461" lon="6.67851">
        <ele>404</ele>
        <time>2016-07-28T13:18:04.000Z</time>
      </trkpt>
      <trkpt lat="47.5461" lon="6.67847">
        <ele>404</ele>
        <time>2016-07-28T13:18:05.000Z</time>
      </trkpt>
      <trkpt lat="47.5461" lon="6.67843">
        <ele>404</ele>
        <time>2016-07-28T13:18:06.000Z</time>
      </trkpt>
      <trkpt lat="47.54611" lon="6.67839">
        <ele>404</ele>
        <time>2016-07-28T13:18:07.000Z</time>
      </trkpt>
      <trkpt lat="47.54611" lon="6.67835">
        <ele>404</ele>
        <time>2016-07-28T13:18:08.000Z</time>
      </trkpt>
      <trkpt lat="47.54612" lon="6.67832">
        <ele>406</ele>
        <time>2016-07-28T13:18:09.000Z</time>
      </trkpt>
      <trkpt lat="47.54612" lon="6.67826">
        <ele>406</ele>
        <time>2016-07-28T13:18:11.000Z</time>
      </trkpt>
      <trkpt lat="47.54613" lon="6.67823">
        <ele>406</ele>
        <time>2016-07-28T13:18:12.000Z</time>
      </trkpt>
      <trkpt lat="47.54613" lon="6.6782">
        <ele>407</ele>
        <time>2016-07-28T13:18:13.000Z</time>
      </trkpt>
      <trkpt lat="47.54614" lon="6.67817">
        <ele>407</ele>
        <time>2016-07-28T13:18:14.000Z</time>
      </trkpt>
      <trkpt lat="47.54615" lon="6.67813">
        <ele>407</ele>
        <time>2016-07-28T13:18:15.000Z</time>
      </trkpt>
      <trkpt lat="47.54615" lon="6.6781">
        <ele>407</ele>
        <time>2016-07-28T13:18:16.000Z</time>
      </trkpt>
      <trkpt lat="47.54615" lon="6.67807">
        <ele>407</ele>
        <time>2016-07-28T13:18:17.000Z</time>
      </trkpt>
      <trkpt lat="47.54615" lon="6.67803">
        <ele>407</ele>
        <time>2016-07-28T13:18:18.000Z</time>
      </trkpt>
      <trkpt lat="47.54615" lon="6.67799">
        <ele>407</ele>
        <time>2016-07-28T13:18:19.000Z</time>
      </trkpt>
      <trkpt lat="47.54615" lon="6.67795">
        <ele>407</ele>
        <time>2016-07-28T13:18:20.000Z</time>
      </trkpt>
      <trkpt lat="47.54615" lon="6.67792">
        <ele>407</ele>
        <time>2016-07-28T13:18:21.000Z</time>
      </trkpt>
      <trkpt lat="47.54615" lon="6.67788">
        <ele>408</ele>
        <time>2016-07-28T13:18:22.000Z</time>
      </trkpt>
      <trkpt lat="47.54615" lon="6.67784">
        <ele>408</ele>
        <time>2016-07-28T13:18:23.000Z</time>
      </trkpt>
      <trkpt lat="47.54615" lon="6.6778">
        <ele>408</ele>
        <time>2016-07-28T13:18:24.000Z</time>
      </trkpt>
      <trkpt lat="47.54615" lon="6.67777">
        <ele>408</ele>
        <time>2016-07-28T13:18:25.000Z</time>
      </trkpt>
      <trkpt lat="47.54616" lon="6.67773">
        <ele>408</ele>
        <time>2016-07-28T13:18:26.000Z</time>
      </trkpt>
      <trkpt lat="47.54616" lon="6.67769">
        <ele>408</ele>
        <time>2016-07-28T13:18:27.000Z</time>
      </trkpt>
      <trkpt lat="47.54616" lon="6.67765">
        <ele>408</ele>
        <time>2016-07-28T13:18:28.000Z</time>
      </trkpt>
      <trkpt lat="47.54616" lon="6.67761">
        <ele>408</ele>
        <time>2016-07-28T13:18:29.000Z</time>
      </trkpt>
      <trkpt lat="47.54616" lon="6.67758">
        <ele>408</ele>
        <time>2016-07-28T13:18:30.000Z</time>
      </trkpt>
      <trkpt lat="47.54617" lon="6.67754">
        <ele>408</ele>
        <time>2016-07-28T13:18:31.000Z</time>
      </trkpt>
      <trkpt lat="47.54617" lon="6.6775">
        <ele>408</ele>
        <time>2016-07-28T13:18:32.000Z</time>
      </trkpt>
      <trkpt lat="47.54618" lon="6.67744">
        <ele>410</ele>
        <time>2016-07-28T13:18:34.000Z</time>
      </trkpt>
      <trkpt lat="47.54618" lon="6.67741">
        <ele>410</ele>
        <time>2016-07-28T13:18:35.000Z</time>
      </trkpt>
      <trkpt lat="47.54618" lon="6.67737">
        <ele>410</ele>
        <time>2016-07-28T13:18:36.000Z</time>
      </trkpt>
      <trkpt lat="47.54618" lon="6.67734">
        <ele>410</ele>
        <time>2016-07-28T13:18:37.000Z</time>
      </trkpt>
      <trkpt lat="47.54618" lon="6.6773">
        <ele>410</ele>
        <time>2016-07-28T13:18:38.000Z</time>
      </trkpt>
      <trkpt lat="47.54618" lon="6.67726">
        <ele>410</ele>
        <time>2016-07-28T13:18:39.000Z</time>
      </trkpt>
      <trkpt lat="47.54618" lon="6.67722">
        <ele>410</ele>
        <time>2016-07-28T13:18:40.000Z</time>
      </trkpt>
      <trkpt lat="47.54619" lon="6.67719">
        <ele>410</ele>
        <time>2016-07-28T13:18:41.000Z</time>
      </trkpt>
      <trkpt lat="47.54619" lon="6.67715">
        <ele>410</ele>
        <time>2016-07-28T13:18:42.000Z</time>
      </trkpt>
      <trkpt lat="47.5462" lon="6.67712">
        <ele>410</ele>
        <time>2016-07-28T13:18:43.000Z</time>
      </trkpt>
      <trkpt lat="47.5462" lon="6.67709">
        <ele>410</ele>
        <time>2016-07-28T13:18:44.000Z</time>
      </trkpt>
      <trkpt lat="47.54621" lon="6.67705">
        <ele>410</ele>
        <time>2016-07-28T13:18:45.000Z</time>
      </trkpt>
      <trkpt lat="47.54621" lon="6.67701">
        <ele>410</ele>
        <time>2016-07-28T13:18:46.000Z</time>
      </trkpt>
      <trkpt lat="47.54622" lon="6.67698">
        <ele>410</ele>
        <time>2016-07-28T13:18:47.000Z</time>
      </trkpt>
      <trkpt lat="47.54622" lon="6.67692">
        <ele>410</ele>
        <time>2016-07-28T13:18:49.000Z</time>
      </trkpt>
      <trkpt lat="47.54622" lon="6.6769">
        <ele>410</ele>
        <time>2016-07-28T13:18:50.000Z</time>
      </trkpt>
      <trkpt lat="47.54623" lon="6.67685">
        <ele>410</ele>
        <time>2016-07-28T13:18:52.000Z</time>
      </trkpt>
      <trkpt lat="47.54623" lon="6.67683">
        <ele>410</ele>
        <time>2016-07-28T13:18:53.000Z</time>
      </trkpt>
      <trkpt lat="47.54625" lon="6.67677">
        <ele>410</ele>
        <time>2016-07-28T13:19:02.000Z</time>
      </trkpt>
      <trkpt lat="47.54625" lon="6.67677">
        <ele>410</ele>
        <time>2016-07-28T13:19:03.000Z</time>
      </trkpt>
      <trkpt lat="47.54626" lon="6.67671">
        <ele>410</ele>
        <time>2016-07-28T13:19:15.000Z</time>
      </trkpt>
      <trkpt lat="47.54626" lon="6.6767">
        <ele>410</ele>
        <time>2016-07-28T13:19:16.000Z</time>
      </trkpt>
      <trkpt lat="47.54628" lon="6.67664">
        <ele>410</ele>
        <time>2016-07-28T13:19:30.000Z</time>
      </trkpt>
      <trkpt lat="47.54628" lon="6.67664">
        <ele>410</ele>
        <time>2016-07-28T13:19:31.000Z</time>
      </trkpt>
      <trkpt lat="47.54629" lon="6.67658">
        <ele>410</ele>
        <time>2016-07-28T13:19:50.000Z</time>
      </trkpt>
      <trkpt lat="47.54629" lon="6.67657">
        <ele>410</ele>
        <time>2016-07-28T13:19:51.000Z</time>
      </trkpt>
      <trkpt lat="47.54633" lon="6.67654">
        <ele>410</ele>
        <time>2016-07-28T13:20:03.000Z</time>
      </trkpt>
      <trkpt lat="47.54633" lon="6.67653">
        <ele>410</ele>
        <time>2016-07-28T13:20:04.000Z</time>
      </trkpt>
      <trkpt lat="47.54637" lon="6.67651">
        <ele>410</ele>
        <time>2016-07-28T13:20:11.000Z</time>
      </trkpt>
      <trkpt lat="47.54638" lon="6.67651">
        <ele>410</ele>
        <time>2016-07-28T13:20:12.000Z</time>
      </trkpt>
      <trkpt lat="47.54641" lon="6.6765">
        <ele>410</ele>
        <time>2016-07-28T13:20:14.000Z</time>
      </trkpt>
      <trkpt lat="47.54643" lon="6.6765">
        <ele>411</ele>
        <time>2016-07-28T13:20:15.000Z</time>
      </trkpt>
      <trkpt lat="47.54647" lon="6.67649">
        <ele>411</ele>
        <time>2016-07-28T13:20:17.000Z</time>
      </trkpt>
      <trkpt lat="47.5465" lon="6.67649">
        <ele>411</ele>
        <time>2016-07-28T13:20:18.000Z</time>
      </trkpt>
      <trkpt lat="47.54654" lon="6.67647">
        <ele>411</ele>
        <time>2016-07-28T13:20:20.000Z</time>
      </trkpt>
      <trkpt lat="47.54656" lon="6.67646">
        <ele>411</ele>
        <time>2016-07-28T13:20:21.000Z</time>
      </trkpt>
      <trkpt lat="47.54659" lon="6.67645">
        <ele>411</ele>
        <time>2016-07-28T13:20:23.000Z</time>
      </trkpt>
      <trkpt lat="47.54661" lon="6.67644">
        <ele>411</ele>
        <time>2016-07-28T13:20:24.000Z</time>
      </trkpt>
      <trkpt lat="47.54666" lon="6.67643">
        <ele>411</ele>
        <time>2016-07-28T13:20:26.000Z</time>
      </trkpt>
      <trkpt lat="47.54668" lon="6.67643">
        <ele>414</ele>
        <time>2016-07-28T13:20:27.000Z</time>
      </trkpt>
      <trkpt lat="47.54672" lon="6.67643">
        <ele>414</ele>
        <time>2016-07-28T13:20:29.000Z</time>
      </trkpt>
      <trkpt lat="47.54673" lon="6.67644">
        <ele>414</ele>
        <time>2016-07-28T13:20:30.000Z</time>
      </trkpt>
      <trkpt lat="47.54677" lon="6.67645">
        <ele>414</ele>
        <time>2016-07-28T13:20:32.000Z</time>
      </trkpt>
      <trkpt lat="47.54679" lon="6.67645">
        <ele>414</ele>
        <time>2016-07-28T13:20:33.000Z</time>
      </trkpt>
      <trkpt lat="47.54683" lon="6.67644">
        <ele>414</ele>
        <time>2016-07-28T13:20:35.000Z</time>
      </trkpt>
      <trkpt lat="47.54685" lon="6.67644">
        <ele>414</ele>
        <time>2016-07-28T13:20:36.000Z</time>
      </trkpt>
      <trkpt lat="47.54689" lon="6.67645">
        <ele>414</ele>
        <time>2016-07-28T13:20:38.000Z</time>
      </trkpt>
      <trkpt lat="47.54691" lon="6.67647">
        <ele>415</ele>
        <time>2016-07-28T13:20:39.000Z</time>
      </trkpt>
      <trkpt lat="47.54695" lon="6.67649">
        <ele>415</ele>
        <time>2016-07-28T13:20:41.000Z</time>
      </trkpt>
      <trkpt lat="47.54697" lon="6.67649">
        <ele>415</ele>
        <time>2016-07-28T13:20:42.000Z</time>
      </trkpt>
      <trkpt lat="47.54701" lon="6.6765">
        <ele>415</ele>
        <time>2016-07-28T13:20:44.000Z</time>
      </trkpt>
      <trkpt lat="47.54702" lon="6.67651">
        <ele>415</ele>
        <time>2016-07-28T13:20:45.000Z</time>
      </trkpt>
      <trkpt lat="47.54706" lon="6.67654">
        <ele>416</ele>
        <time>2016-07-28T13:20:50.000Z</time>
      </trkpt>
      <trkpt lat="47.54707" lon="6.67654">
        <ele>416</ele>
        <time>2016-07-28T13:20:51.000Z</time>
      </trkpt>
      <trkpt lat="47.5471" lon="6.67659">
        <ele>416</ele>
        <time>2016-07-28T13:20:59.000Z</time>
      </trkpt>
      <trkpt lat="47.54711" lon="6.67659">
        <ele>416</ele>
        <time>2016-07-28T13:21:00.000Z</time>
      </trkpt>
      <trkpt lat="47.54714" lon="6.67661">
        <ele>416</ele>
        <time>2016-07-28T13:21:02.000Z</time>
      </trkpt>
      <trkpt lat="47.54716" lon="6.67662">
        <ele>417</ele>
        <time>2016-07-28T13:21:03.000Z</time>
      </trkpt>
      <trkpt lat="47.5472" lon="6.67664">
        <ele>417</ele>
        <time>2016-07-28T13:21:05.000Z</time>
      </trkpt>
      <trkpt lat="47.54721" lon="6.67665">
        <ele>417</ele>
        <time>2016-07-28T13:21:06.000Z</time>
      </trkpt>
      <trkpt lat="47.54725" lon="6.67667">
        <ele>419</ele>
        <time>2016-07-28T13:21:08.000Z</time>
      </trkpt>
      <trkpt lat="47.54726" lon="6.67668">
        <ele>419</ele>
        <time>2016-07-28T13:21:09.000Z</time>
      </trkpt>
      <trkpt lat="47.54729" lon="6.67671">
        <ele>419</ele>
        <time>2016-07-28T13:21:11.000Z</time>
      </trkpt>
      <trkpt lat="47.54731" lon="6.67672">
        <ele>419</ele>
        <time>2016-07-28T13:21:12.000Z</time>
      </trkpt>
      <trkpt lat="47.54734" lon="6.67675">
        <ele>420</ele>
        <time>2016-07-28T13:21:14.000Z</time>
      </trkpt>
      <trkpt lat="47.54735" lon="6.67676">
        <ele>420</ele>
        <time>2016-07-28T13:21:15.000Z</time>
      </trkpt>
      <trkpt lat="47.54738" lon="6.67678">
        <ele>420</ele>
        <time>2016-07-28T13:21:17.000Z</time>
      </trkpt>
      <trkpt lat="47.5474" lon="6.67679">
        <ele>420</ele>
        <time>2016-07-28T13:21:18.000Z</time>
      </trkpt>
      <trkpt lat="47.54743" lon="6.67681">
        <ele>420</ele>
        <time>2016-07-28T13:21:20.000Z</time>
      </trkpt>
      <trkpt lat="47.54744" lon="6.67682">
        <ele>420</ele>
        <time>2016-07-28T13:21:21.000Z</time>
      </trkpt>
      <trkpt lat="47.54747" lon="6.67683">
        <ele>420</ele>
        <time>2016-07-28T13:21:23.000Z</time>
      </trkpt>
      <trkpt lat="47.54749" lon="6.67684">
        <ele>420</ele>
        <time>2016-07-28T13:21:24.000Z</time>
      </trkpt>
      <trkpt lat="47.54752" lon="6.67684">
        <ele>425</ele>
        <time>2016-07-28T13:21:26.000Z</time>
      </trkpt>
      <trkpt lat="47.54753" lon="6.67684">
        <ele>425</ele>
        <time>2016-07-28T13:21:27.000Z</time>
      </trkpt>
      <trkpt lat="47.54757" lon="6.67684">
        <ele>425</ele>
        <time>2016-07-28T13:21:29.000Z</time>
      </trkpt>
      <trkpt lat="47.54758" lon="6.67683">
        <ele>425</ele>
        <time>2016-07-28T13:21:30.000Z</time>
      </trkpt>
      <trkpt lat="47.54762" lon="6.67682">
        <ele>425</ele>
        <time>2016-07-28T13:21:32.000Z</time>
      </trkpt>
      <trkpt lat="47.54763" lon="6.67682">
        <ele>425</ele>
        <time>2016-07-28T13:21:33.000Z</time>
      </trkpt>
      <trkpt lat="47.54767" lon="6.67682">
        <ele>426</ele>
        <time>2016-07-28T13:21:35.000Z</time>
      </trkpt>
      <trkpt lat="47.54768" lon="6.67683">
        <ele>426</ele>
        <time>2016-07-28T13:21:36.000Z</time>
      </trkpt>
      <trkpt lat="47.54771" lon="6.67683">
        <ele>426</ele>
        <time>2016-07-28T13:21:38.000Z</time>
      </trkpt>
      <trkpt lat="47.54773" lon="6.67684">
        <ele>426</ele>
        <time>2016-07-28T13:21:39.000Z</time>
      </trkpt>
      <trkpt lat="47.54776" lon="6.67684">
        <ele>427</ele>
        <time>2016-07-28T13:21:41.000Z</time>
      </trkpt>
      <trkpt lat="47.54778" lon="6.67684">
        <ele>427</ele>
        <time>2016-07-28T13:21:42.000Z</time>
      </trkpt>
      <trkpt lat="47.54781" lon="6.67684">
        <ele>427</ele>
        <time>2016-07-28T13:21:44.000Z</time>
      </trkpt>
      <trkpt lat="47.54783" lon="6.67684">
        <ele>427</ele>
        <time>2016-07-28T13:21:45.000Z</time>
      </trkpt>
      <trkpt lat="47.54787" lon="6.67683">
        <ele>427</ele>
        <time>2016-07-28T13:21:48.000Z</time>
      </trkpt>
      <trkpt lat="47.54788" lon="6.67682">
        <ele>428</ele>
        <time>2016-07-28T13:21:49.000Z</time>
      </trkpt>
      <trkpt lat="47.54791" lon="6.67682">
        <ele>428</ele>
        <time>2016-07-28T13:21:51.000Z</time>
      </trkpt>
      <trkpt lat="47.54793" lon="6.67682">
        <ele>428</ele>
        <time>2016-07-28T13:21:52.000Z</time>
      </trkpt>
      <trkpt lat="47.54796" lon="6.67682">
        <ele>428</ele>
        <time>2016-07-28T13:21:54.000Z</time>
      </trkpt>
      <trkpt lat="47.54798" lon="6.67682">
        <ele>428</ele>
        <time>2016-07-28T13:21:55.000Z</time>
      </trkpt>
      <trkpt lat="47.54802" lon="6.67683">
        <ele>429</ele>
        <time>2016-07-28T13:21:57.000Z</time>
      </trkpt>
      <trkpt lat="47.54803" lon="6.67682">
        <ele>429</ele>
        <time>2016-07-28T13:21:58.000Z</time>
      </trkpt>
      <trkpt lat="47.54807" lon="6.67682">
        <ele>429</ele>
        <time>2016-07-28T13:21:59.999Z</time>
      </trkpt>
      <trkpt lat="47.54808" lon="6.67682">
        <ele>429</ele>
        <time>2016-07-28T13:22:01.000Z</time>
      </trkpt>
      <trkpt lat="47.54812" lon="6.67682">
        <ele>430</ele>
        <time>2016-07-28T13:22:03.000Z</time>
      </trkpt>
      <trkpt lat="47.54813" lon="6.67683">
        <ele>430</ele>
        <time>2016-07-28T13:22:04.000Z</time>
      </trkpt>
      <trkpt lat="47.54816" lon="6.67684">
        <ele>430</ele>
        <time>2016-07-28T13:22:06.000Z</time>
      </trkpt>
      <trkpt lat="47.54818" lon="6.67685">
        <ele>430</ele>
        <time>2016-07-28T13:22:07.000Z</time>
      </trkpt>
      <trkpt lat="47.54821" lon="6.67686">
        <ele>430</ele>
        <time>2016-07-28T13:22:09.000Z</time>
      </trkpt>
      <trkpt lat="47.54823" lon="6.67686">
        <ele>430</ele>
        <time>2016-07-28T13:22:10.000Z</time>
      </trkpt>
      <trkpt lat="47.54826" lon="6.67688">
        <ele>430</ele>
        <time>2016-07-28T13:22:12.000Z</time>
      </trkpt>
      <trkpt lat="47.54828" lon="6.67688">
        <ele>430</ele>
        <time>2016-07-28T13:22:13.000Z</time>
      </trkpt>
      <trkpt lat="47.54831" lon="6.6769">
        <ele>430</ele>
        <time>2016-07-28T13:22:15.000Z</time>
      </trkpt>
      <trkpt lat="47.54832" lon="6.67691">
        <ele>430</ele>
        <time>2016-07-28T13:22:16.000Z</time>
      </trkpt>
      <trkpt lat="47.54835" lon="6.67692">
        <ele>435</ele>
        <time>2016-07-28T13:22:18.000Z</time>
      </trkpt>
      <trkpt lat="47.54836" lon="6.67693">
        <ele>436</ele>
        <time>2016-07-28T13:22:19.000Z</time>
      </trkpt>
      <trkpt lat="47.54839" lon="6.67695">
        <ele>436</ele>
        <time>2016-07-28T13:22:21.000Z</time>
      </trkpt>
      <trkpt lat="47.54841" lon="6.67695">
        <ele>436</ele>
        <time>2016-07-28T13:22:22.000Z</time>
      </trkpt>
      <trkpt lat="47.54844" lon="6.67696">
        <ele>436</ele>
        <time>2016-07-28T13:22:24.000Z</time>
      </trkpt>
      <trkpt lat="47.54845" lon="6.67696">
        <ele>436</ele>
        <time>2016-07-28T13:22:25.000Z</time>
      </trkpt>
      <trkpt lat="47.5485" lon="6.67697">
        <ele>436</ele>
        <time>2016-07-28T13:22:28.000Z</time>
      </trkpt>
      <trkpt lat="47.54851" lon="6.67697">
        <ele>436</ele>
        <time>2016-07-28T13:22:29.000Z</time>
      </trkpt>
      <trkpt lat="47.54854" lon="6.67698">
        <ele>436</ele>
        <time>2016-07-28T13:22:31.000Z</time>
      </trkpt>
      <trkpt lat="47.54856" lon="6.67698">
        <ele>436</ele>
        <time>2016-07-28T13:22:32.000Z</time>
      </trkpt>
      <trkpt lat="47.54859" lon="6.67701">
        <ele>437</ele>
        <time>2016-07-28T13:22:34.000Z</time>
      </trkpt>
      <trkpt lat="47.54861" lon="6.67702">
        <ele>437</ele>
        <time>2016-07-28T13:22:35.000Z</time>
      </trkpt>
      <trkpt lat="47.54865" lon="6.67704">
        <ele>437</ele>
        <time>2016-07-28T13:22:39.000Z</time>
      </trkpt>
      <trkpt lat="47.54866" lon="6.67704">
        <ele>437</ele>
        <time>2016-07-28T13:22:40.000Z</time>
      </trkpt>
      <trkpt lat="47.5487" lon="6.67705">
        <ele>437</ele>
        <time>2016-07-28T13:22:43.000Z</time>
      </trkpt>
      <trkpt lat="47.54872" lon="6.67705">
        <ele>437</ele>
        <time>2016-07-28T13:22:44.000Z</time>
      </trkpt>
      <trkpt lat="47.54875" lon="6.67707">
        <ele>437</ele>
        <time>2016-07-28T13:22:46.000Z</time>
      </trkpt>
      <trkpt lat="47.54877" lon="6.67708">
        <ele>438</ele>
        <time>2016-07-28T13:22:47.000Z</time>
      </trkpt>
      <trkpt lat="47.54881" lon="6.67709">
        <ele>438</ele>
        <time>2016-07-28T13:22:50.000Z</time>
      </trkpt>
      <trkpt lat="47.54882" lon="6.6771">
        <ele>438</ele>
        <time>2016-07-28T13:22:51.000Z</time>
      </trkpt>
      <trkpt lat="47.54886" lon="6.67712">
        <ele>438</ele>
        <time>2016-07-28T13:22:54.001Z</time>
      </trkpt>
      <trkpt lat="47.54887" lon="6.67712">
        <ele>438</ele>
        <time>2016-07-28T13:22:55.001Z</time>
      </trkpt>
      <trkpt lat="47.5489" lon="6.67714">
        <ele>438</ele>
        <time>2016-07-28T13:22:57.000Z</time>
      </trkpt>
      <trkpt lat="47.54891" lon="6.67714">
        <ele>438</ele>
        <time>2016-07-28T13:22:58.000Z</time>
      </trkpt>
      <trkpt lat="47.54895" lon="6.67716">
        <ele>439</ele>
        <time>2016-07-28T13:23:01.000Z</time>
      </trkpt>
      <trkpt lat="47.54896" lon="6.67717">
        <ele>439</ele>
        <time>2016-07-28T13:23:02.000Z</time>
      </trkpt>
      <trkpt lat="47.549" lon="6.67717">
        <ele>439</ele>
        <time>2016-07-28T13:23:05.000Z</time>
      </trkpt>
      <trkpt lat="47.54901" lon="6.67717">
        <ele>439</ele>
        <time>2016-07-28T13:23:06.000Z</time>
      </trkpt>
      <trkpt lat="47.54905" lon="6.67715">
        <ele>439</ele>
        <time>2016-07-28T13:23:10.000Z</time>
      </trkpt>
      <trkpt lat="47.54907" lon="6.67714">
        <ele>439</ele>
        <time>2016-07-28T13:23:11.000Z</time>
      </trkpt>
      <trkpt lat="47.54911" lon="6.67711">
        <ele>439</ele>
        <time>2016-07-28T13:23:13.000Z</time>
      </trkpt>
      <trkpt lat="47.54912" lon="6.6771">
        <ele>439</ele>
        <time>2016-07-28T13:23:14.000Z</time>
      </trkpt>
      <trkpt lat="47.54915" lon="6.67707">
        <ele>439</ele>
        <time>2016-07-28T13:23:16.000Z</time>
      </trkpt>
      <trkpt lat="47.54916" lon="6.67705">
        <ele>439</ele>
        <time>2016-07-28T13:23:17.000Z</time>
      </trkpt>
      <trkpt lat="47.54919" lon="6.67703">
        <ele>444</ele>
        <time>2016-07-28T13:23:19.000Z</time>
      </trkpt>
      <trkpt lat="47.54921" lon="6.67703">
        <ele>444</ele>
        <time>2016-07-28T13:23:20.000Z</time>
      </trkpt>
      <trkpt lat="47.54923" lon="6.67703">
        <ele>444</ele>
        <time>2016-07-28T13:23:21.000Z</time>
      </trkpt>
      <trkpt lat="47.54926" lon="6.67702">
        <ele>444</ele>
        <time>2016-07-28T13:23:22.000Z</time>
      </trkpt>
      <trkpt lat="47.54928" lon="6.67702">
        <ele>444</ele>
        <time>2016-07-28T13:23:23.000Z</time>
      </trkpt>
      <trkpt lat="47.54931" lon="6.67702">
        <ele>444</ele>
        <time>2016-07-28T13:23:24.000Z</time>
      </trkpt>
      <trkpt lat="47.54933" lon="6.67705">
        <ele>444</ele>
        <time>2016-07-28T13:23:25.000Z</time>
      </trkpt>
      <trkpt lat="47.54935" lon="6.67708">
        <ele>444</ele>
        <time>2016-07-28T13:23:26.000Z</time>
      </trkpt>
      <trkpt lat="47.54938" lon="6.67712">
        <ele>444</ele>
        <time>2016-07-28T13:23:28.000Z</time>
      </trkpt>
      <trkpt lat="47.54939" lon="6.67713">
        <ele>444</ele>
        <time>2016-07-28T13:23:29.000Z</time>
      </trkpt>
      <trkpt lat="47.54943" lon="6.67713">
        <ele>445</ele>
        <time>2016-07-28T13:23:32.000Z</time>
      </trkpt>
      <trkpt lat="47.54945" lon="6.67713">
        <ele>445</ele>
        <time>2016-07-28T13:23:33.000Z</time>
      </trkpt>
      <trkpt lat="47.54949" lon="6.67712">
        <ele>445</ele>
        <time>2016-07-28T13:23:35.000Z</time>
      </trkpt>
      <trkpt lat="47.54951" lon="6.67711">
        <ele>445</ele>
        <time>2016-07-28T13:23:36.000Z</time>
      </trkpt>
      <trkpt lat="47.54954" lon="6.67709">
        <ele>445</ele>
        <time>2016-07-28T13:23:38.000Z</time>
      </trkpt>
      <trkpt lat="47.54955" lon="6.67708">
        <ele>445</ele>
        <time>2016-07-28T13:23:39.000Z</time>
      </trkpt>
      <trkpt lat="47.54958" lon="6.67707">
        <ele>445</ele>
        <time>2016-07-28T13:23:41.000Z</time>
      </trkpt>
      <trkpt lat="47.5496" lon="6.67706">
        <ele>445</ele>
        <time>2016-07-28T13:23:42.000Z</time>
      </trkpt>
      <trkpt lat="47.54964" lon="6.67705">
        <ele>445</ele>
        <time>2016-07-28T13:23:44.000Z</time>
      </trkpt>
      <trkpt lat="47.54965" lon="6.67704">
        <ele>445</ele>
        <time>2016-07-28T13:23:45.000Z</time>
      </trkpt>
      <trkpt lat="47.54968" lon="6.677">
        <ele>445</ele>
        <time>2016-07-28T13:23:48.000Z</time>
      </trkpt>
      <trkpt lat="47.54969" lon="6.67699">
        <ele>445</ele>
        <time>2016-07-28T13:23:49.000Z</time>
      </trkpt>
      <trkpt lat="47.54973" lon="6.67697">
        <ele>445</ele>
        <time>2016-07-28T13:23:51.000Z</time>
      </trkpt>
      <trkpt lat="47.54975" lon="6.67697">
        <ele>445</ele>
        <time>2016-07-28T13:23:52.000Z</time>
      </trkpt>
      <trkpt lat="47.54978" lon="6.67698">
        <ele>446</ele>
        <time>2016-07-28T13:23:55.000Z</time>
      </trkpt>
      <trkpt lat="47.5498" lon="6.67699">
        <ele>446</ele>
        <time>2016-07-28T13:23:56.000Z</time>
      </trkpt>
      <trkpt lat="47.54984" lon="6.67699">
        <ele>446</ele>
        <time>2016-07-28T13:23:59.000Z</time>
      </trkpt>
      <trkpt lat="47.54985" lon="6.67699">
        <ele>446</ele>
        <time>2016-07-28T13:24:00.000Z</time>
      </trkpt>
      <trkpt lat="47.54989" lon="6.67699">
        <ele>446</ele>
        <time>2016-07-28T13:24:02.000Z</time>
      </trkpt>
      <trkpt lat="47.5499" lon="6.67699">
        <ele>446</ele>
        <time>2016-07-28T13:24:03.000Z</time>
      </trkpt>
      <trkpt lat="47.54995" lon="6.67697">
        <ele>446</ele>
        <time>2016-07-28T13:24:06.000Z</time>
      </trkpt>
      <trkpt lat="47.54996" lon="6.67697">
        <ele>446</ele>
        <time>2016-07-28T13:24:07.000Z</time>
      </trkpt>
      <trkpt lat="47.55" lon="6.67697">
        <ele>446</ele>
        <time>2016-07-28T13:24:09.000Z</time>
      </trkpt>
      <trkpt lat="47.55002" lon="6.67697">
        <ele>450</ele>
        <time>2016-07-28T13:24:10.000Z</time>
      </trkpt>
      <trkpt lat="47.55004" lon="6.67697">
        <ele>450</ele>
        <time>2016-07-28T13:24:11.000Z</time>
      </trkpt>
      <trkpt lat="47.55007" lon="6.67696">
        <ele>450</ele>
        <time>2016-07-28T13:24:12.000Z</time>
      </trkpt>
      <trkpt lat="47.55009" lon="6.67695">
        <ele>450</ele>
        <time>2016-07-28T13:24:13.000Z</time>
      </trkpt>
      <trkpt lat="47.55011" lon="6.67695">
        <ele>450</ele>
        <time>2016-07-28T13:24:14.000Z</time>
      </trkpt>
      <trkpt lat="47.55015" lon="6.67693">
        <ele>450</ele>
        <time>2016-07-28T13:24:16.000Z</time>
      </trkpt>
      <trkpt lat="47.55016" lon="6.67692">
        <ele>450</ele>
        <time>2016-07-28T13:24:17.000Z</time>
      </trkpt>
      <trkpt lat="47.5502" lon="6.67691">
        <ele>450</ele>
        <time>2016-07-28T13:24:19.000Z</time>
      </trkpt>
      <trkpt lat="47.55021" lon="6.6769">
        <ele>450</ele>
        <time>2016-07-28T13:24:20.000Z</time>
      </trkpt>
      <trkpt lat="47.55026" lon="6.67689">
        <ele>451</ele>
        <time>2016-07-28T13:24:22.000Z</time>
      </trkpt>
      <trkpt lat="47.55028" lon="6.67689">
        <ele>451</ele>
        <time>2016-07-28T13:24:23.000Z</time>
      </trkpt>
      <trkpt lat="47.5503" lon="6.67689">
        <ele>451</ele>
        <time>2016-07-28T13:24:24.000Z</time>
      </trkpt>
      <trkpt lat="47.55033" lon="6.67689">
        <ele>451</ele>
        <time>2016-07-28T13:24:25.000Z</time>
      </trkpt>
      <trkpt lat="47.55035" lon="6.6769">
        <ele>451</ele>
        <time>2016-07-28T13:24:26.000Z</time>
      </trkpt>
      <trkpt lat="47.55037" lon="6.6769">
        <ele>451</ele>
        <time>2016-07-28T13:24:27.000Z</time>
      </trkpt>
      <trkpt lat="47.55041" lon="6.67691">
        <ele>451</ele>
        <time>2016-07-28T13:24:29.000Z</time>
      </trkpt>
      <trkpt lat="47.55043" lon="6.67692">
        <ele>452</ele>
        <time>2016-07-28T13:24:30.000Z</time>
      </trkpt>
      <trkpt lat="47.55046" lon="6.67692">
        <ele>452</ele>
        <time>2016-07-28T13:24:32.000Z</time>
      </trkpt>
      <trkpt lat="47.55048" lon="6.67693">
        <ele>452</ele>
        <time>2016-07-28T13:24:33.000Z</time>
      </trkpt>
      <trkpt lat="47.55052" lon="6.67695">
        <ele>452</ele>
        <time>2016-07-28T13:24:35.000Z</time>
      </trkpt>
      <trkpt lat="47.55053" lon="6.67696">
        <ele>452</ele>
        <time>2016-07-28T13:24:36.000Z</time>
      </trkpt>
      <trkpt lat="47.55058" lon="6.67697">
        <ele>452</ele>
        <time>2016-07-28T13:24:39.000Z</time>
      </trkpt>
      <trkpt lat="47.55059" lon="6.67695">
        <ele>452</ele>
        <time>2016-07-28T13:24:40.000Z</time>
      </trkpt>
      <trkpt lat="47.55062" lon="6.67694">
        <ele>452</ele>
        <time>2016-07-28T13:24:42.000Z</time>
      </trkpt>
      <trkpt lat="47.55064" lon="6.67693">
        <ele>453</ele>
        <time>2016-07-28T13:24:43.000Z</time>
      </trkpt>
      <trkpt lat="47.55066" lon="6.67693">
        <ele>453</ele>
        <time>2016-07-28T13:24:44.000Z</time>
      </trkpt>
      <trkpt lat="47.55069" lon="6.67692">
        <ele>453</ele>
        <time>2016-07-28T13:24:45.000Z</time>
      </trkpt>
      <trkpt lat="47.55071" lon="6.67692">
        <ele>453</ele>
        <time>2016-07-28T13:24:46.000Z</time>
      </trkpt>
      <trkpt lat="47.55074" lon="6.67691">
        <ele>453</ele>
        <time>2016-07-28T13:24:47.000Z</time>
      </trkpt>
      <trkpt lat="47.55076" lon="6.67691">
        <ele>453</ele>
        <time>2016-07-28T13:24:48.000Z</time>
      </trkpt>
      <trkpt lat="47.55079" lon="6.67691">
        <ele>453</ele>
        <time>2016-07-28T13:24:49.000Z</time>
      </trkpt>
      <trkpt lat="47.55081" lon="6.67692">
        <ele>453</ele>
        <time>2016-07-28T13:24:50.000Z</time>
      </trkpt>
      <trkpt lat="47.55083" lon="6.67694">
        <ele>453</ele>
        <time>2016-07-28T13:24:51.000Z</time>
      </trkpt>
      <trkpt lat="47.55085" lon="6.67695">
        <ele>456</ele>
        <time>2016-07-28T13:24:52.000Z</time>
      </trkpt>
      <trkpt lat="47.55087" lon="6.67697">
        <ele>457</ele>
        <time>2016-07-28T13:24:53.000Z</time>
      </trkpt>
      <trkpt lat="47.55089" lon="6.67699">
        <ele>457</ele>
        <time>2016-07-28T13:24:54.000Z</time>
      </trkpt>
      <trkpt lat="47.55091" lon="6.67701">
        <ele>457</ele>
        <time>2016-07-28T13:24:55.000Z</time>
      </trkpt>
      <trkpt lat="47.55094" lon="6.67703">
        <ele>457</ele>
        <time>2016-07-28T13:24:56.000Z</time>
      </trkpt>
      <trkpt lat="47.55096" lon="6.67704">
        <ele>457</ele>
        <time>2016-07-28T13:24:57.000Z</time>
      </trkpt>
      <trkpt lat="47.55098" lon="6.67703">
        <ele>457</ele>
        <time>2016-07-28T13:24:58.000Z</time>
      </trkpt>
      <trkpt lat="47.551" lon="6.67703">
        <ele>457</ele>
        <time>2016-07-28T13:24:59.000Z</time>
      </trkpt>
      <trkpt lat="47.55102" lon="6.67702">
        <ele>457</ele>
        <time>2016-07-28T13:24:59.999Z</time>
      </trkpt>
      <trkpt lat="47.55105" lon="6.67701">
        <ele>457</ele>
        <time>2016-07-28T13:25:01.000Z</time>
      </trkpt>
      <trkpt lat="47.55109" lon="6.677">
        <ele>457</ele>
        <time>2016-07-28T13:25:03.000Z</time>
      </trkpt>
      <trkpt lat="47.55111" lon="6.67699">
        <ele>457</ele>
        <time>2016-07-28T13:25:04.000Z</time>
      </trkpt>
      <trkpt lat="47.55115" lon="6.67699">
        <ele>457</ele>
        <time>2016-07-28T13:25:06.000Z</time>
      </trkpt>
      <trkpt lat="47.55118" lon="6.677">
        <ele>457</ele>
        <time>2016-07-28T13:25:07.000Z</time>
      </trkpt>
      <trkpt lat="47.5512" lon="6.67701">
        <ele>457</ele>
        <time>2016-07-28T13:25:08.000Z</time>
      </trkpt>
      <trkpt lat="47.55122" lon="6.67702">
        <ele>458</ele>
        <time>2016-07-28T13:25:09.000Z</time>
      </trkpt>
      <trkpt lat="47.55126" lon="6.67705">
        <ele>458</ele>
        <time>2016-07-28T13:25:12.000Z</time>
      </trkpt>
      <trkpt lat="47.55128" lon="6.67704">
        <ele>458</ele>
        <time>2016-07-28T13:25:13.001Z</time>
      </trkpt>
      <trkpt lat="47.55131" lon="6.67705">
        <ele>458</ele>
        <time>2016-07-28T13:25:15.000Z</time>
      </trkpt>
      <trkpt lat="47.55133" lon="6.67705">
        <ele>458</ele>
        <time>2016-07-28T13:25:16.000Z</time>
      </trkpt>
      <trkpt lat="47.55137" lon="6.67704">
        <ele>458</ele>
        <time>2016-07-28T13:25:20.000Z</time>
      </trkpt>
      <trkpt lat="47.55139" lon="6.67703">
        <ele>458</ele>
        <time>2016-07-28T13:25:21.000Z</time>
      </trkpt>
      <trkpt lat="47.55143" lon="6.67702">
        <ele>458</ele>
        <time>2016-07-28T13:25:23.000Z</time>
      </trkpt>
      <trkpt lat="47.55146" lon="6.67702">
        <ele>458</ele>
        <time>2016-07-28T13:25:24.000Z</time>
      </trkpt>
      <trkpt lat="47.55148" lon="6.67702">
        <ele>458</ele>
        <time>2016-07-28T13:25:25.001Z</time>
      </trkpt>
      <trkpt lat="47.5515" lon="6.67704">
        <ele>458</ele>
        <time>2016-07-28T13:25:26.000Z</time>
      </trkpt>
      <trkpt lat="47.55154" lon="6.67706">
        <ele>458</ele>
        <time>2016-07-28T13:25:27.999Z</time>
      </trkpt>
      <trkpt lat="47.55156" lon="6.67707">
        <ele>458</ele>
        <time>2016-07-28T13:25:29.000Z</time>
      </trkpt>
      <trkpt lat="47.55161" lon="6.67708">
        <ele>459</ele>
        <time>2016-07-28T13:25:32.000Z</time>
      </trkpt>
      <trkpt lat="47.55162" lon="6.67708">
        <ele>459</ele>
        <time>2016-07-28T13:25:33.000Z</time>
      </trkpt>
      <trkpt lat="47.55166" lon="6.67706">
        <ele>458</ele>
        <time>2016-07-28T13:25:35.000Z</time>
      </trkpt>
      <trkpt lat="47.55168" lon="6.67707">
        <ele>461</ele>
        <time>2016-07-28T13:25:36.000Z</time>
      </trkpt>
      <trkpt lat="47.5517" lon="6.67707">
        <ele>461</ele>
        <time>2016-07-28T13:25:37.000Z</time>
      </trkpt>
      <trkpt lat="47.55173" lon="6.67709">
        <ele>461</ele>
        <time>2016-07-28T13:25:38.000Z</time>
      </trkpt>
      <trkpt lat="47.55175" lon="6.67709">
        <ele>462</ele>
        <time>2016-07-28T13:25:39.001Z</time>
      </trkpt>
      <trkpt lat="47.55178" lon="6.6771">
        <ele>462</ele>
        <time>2016-07-28T13:25:40.000Z</time>
      </trkpt>
      <trkpt lat="47.5518" lon="6.67711">
        <ele>462</ele>
        <time>2016-07-28T13:25:41.000Z</time>
      </trkpt>
      <trkpt lat="47.55183" lon="6.67712">
        <ele>462</ele>
        <time>2016-07-28T13:25:42.000Z</time>
      </trkpt>
      <trkpt lat="47.55185" lon="6.67713">
        <ele>462</ele>
        <time>2016-07-28T13:25:43.000Z</time>
      </trkpt>
      <trkpt lat="47.55187" lon="6.67715">
        <ele>462</ele>
        <time>2016-07-28T13:25:44.000Z</time>
      </trkpt>
      <trkpt lat="47.55191" lon="6.67717">
        <ele>462</ele>
        <time>2016-07-28T13:25:46.000Z</time>
      </trkpt>
      <trkpt lat="47.55192" lon="6.67718">
        <ele>462</ele>
        <time>2016-07-28T13:25:47.000Z</time>
      </trkpt>
      <trkpt lat="47.55196" lon="6.6772">
        <ele>462</ele>
        <time>2016-07-28T13:25:49.000Z</time>
      </trkpt>
      <trkpt lat="47.55198" lon="6.6772">
        <ele>462</ele>
        <time>2016-07-28T13:25:50.001Z</time>
      </trkpt>
      <trkpt lat="47.55201" lon="6.67722">
        <ele>463</ele>
        <time>2016-07-28T13:25:51.000Z</time>
      </trkpt>
      <trkpt lat="47.55203" lon="6.67723">
        <ele>463</ele>
        <time>2016-07-28T13:25:52.000Z</time>
      </trkpt>
      <trkpt lat="47.55206" lon="6.67725">
        <ele>463</ele>
        <time>2016-07-28T13:25:54.000Z</time>
      </trkpt>
      <trkpt lat="47.55208" lon="6.67726">
        <ele>463</ele>
        <time>2016-07-28T13:25:55.000Z</time>
      </trkpt>
      <trkpt lat="47.55212" lon="6.67727">
        <ele>463</ele>
        <time>2016-07-28T13:25:58.000Z</time>
      </trkpt>
      <trkpt lat="47.55214" lon="6.67728">
        <ele>463</ele>
        <time>2016-07-28T13:25:59.000Z</time>
      </trkpt>
      <trkpt lat="47.55218" lon="6.6773">
        <ele>463</ele>
        <time>2016-07-28T13:26:00.999Z</time>
      </trkpt>
      <trkpt lat="47.55221" lon="6.67733">
        <ele>464</ele>
        <time>2016-07-28T13:26:02.000Z</time>
      </trkpt>
      <trkpt lat="47.55225" lon="6.67735">
        <ele>464</ele>
        <time>2016-07-28T13:26:04.000Z</time>
      </trkpt>
      <trkpt lat="47.55226" lon="6.67736">
        <ele>464</ele>
        <time>2016-07-28T13:26:05.000Z</time>
      </trkpt>
      <trkpt lat="47.5523" lon="6.67739">
        <ele>465</ele>
        <time>2016-07-28T13:26:08.000Z</time>
      </trkpt>
      <trkpt lat="47.55233" lon="6.67741">
        <ele>465</ele>
        <time>2016-07-28T13:26:09.000Z</time>
      </trkpt>
      <trkpt lat="47.55234" lon="6.67742">
        <ele>465</ele>
        <time>2016-07-28T13:26:09.999Z</time>
      </trkpt>
      <trkpt lat="47.55243" lon="6.67747">
        <ele>466</ele>
        <time>2016-07-28T13:26:11.000Z</time>
      </trkpt>
      <trkpt lat="47.55247" lon="6.6775">
        <ele>467</ele>
        <time>2016-07-28T13:26:14.000Z</time>
      </trkpt>
      <trkpt lat="47.55248" lon="6.67751">
        <ele>468</ele>
        <time>2016-07-28T13:26:15.000Z</time>
      </trkpt>
      <trkpt lat="47.55252" lon="6.6775">
        <ele>468</ele>
        <time>2016-07-28T13:26:17.000Z</time>
      </trkpt>
      <trkpt lat="47.55254" lon="6.6775">
        <ele>468</ele>
        <time>2016-07-28T13:26:18.000Z</time>
      </trkpt>
      <trkpt lat="47.55256" lon="6.67751">
        <ele>467</ele>
        <time>2016-07-28T13:26:19.000Z</time>
      </trkpt>
      <trkpt lat="47.55259" lon="6.67754">
        <ele>467</ele>
        <time>2016-07-28T13:26:20.000Z</time>
      </trkpt>
      <trkpt lat="47.55263" lon="6.67756">
        <ele>467</ele>
        <time>2016-07-28T13:26:22.000Z</time>
      </trkpt>
      <trkpt lat="47.55264" lon="6.67756">
        <ele>467</ele>
        <time>2016-07-28T13:26:23.000Z</time>
      </trkpt>
      <trkpt lat="47.55267" lon="6.67756">
        <ele>467</ele>
        <time>2016-07-28T13:26:25.000Z</time>
      </trkpt>
      <trkpt lat="47.55269" lon="6.67755">
        <ele>467</ele>
        <time>2016-07-28T13:26:26.000Z</time>
      </trkpt>
      <trkpt lat="47.55273" lon="6.67756">
        <ele>466</ele>
        <time>2016-07-28T13:26:28.000Z</time>
      </trkpt>
      <trkpt lat="47.55275" lon="6.67756">
        <ele>466</ele>
        <time>2016-07-28T13:26:28.999Z</time>
      </trkpt>
      <trkpt lat="47.55279" lon="6.67754">
        <ele>466</ele>
        <time>2016-07-28T13:26:32.000Z</time>
      </trkpt>
      <trkpt lat="47.5528" lon="6.67753">
        <ele>466</ele>
        <time>2016-07-28T13:26:32.999Z</time>
      </trkpt>
      <trkpt lat="47.55284" lon="6.67754">
        <ele>466</ele>
        <time>2016-07-28T13:26:35.000Z</time>
      </trkpt>
      <trkpt lat="47.55286" lon="6.67755">
        <ele>466</ele>
        <time>2016-07-28T13:26:36.000Z</time>
      </trkpt>
      <trkpt lat="47.55289" lon="6.67757">
        <ele>466</ele>
        <time>2016-07-28T13:26:37.000Z</time>
      </trkpt>
      <trkpt lat="47.55292" lon="6.67759">
        <ele>466</ele>
        <time>2016-07-28T13:26:38.000Z</time>
      </trkpt>
      <trkpt lat="47.55294" lon="6.6776">
        <ele>466</ele>
        <time>2016-07-28T13:26:39.000Z</time>
      </trkpt>
      <trkpt lat="47.55297" lon="6.67765">
        <ele>465</ele>
        <time>2016-07-28T13:26:40.000Z</time>
      </trkpt>
      <trkpt lat="47.55299" lon="6.67768">
        <ele>465</ele>
        <time>2016-07-28T13:26:41.000Z</time>
      </trkpt>
      <trkpt lat="47.55301" lon="6.67772">
        <ele>465</ele>
        <time>2016-07-28T13:26:42.000Z</time>
      </trkpt>
      <trkpt lat="47.55302" lon="6.67775">
        <ele>465</ele>
        <time>2016-07-28T13:26:43.000Z</time>
      </trkpt>
      <trkpt lat="47.55304" lon="6.67778">
        <ele>465</ele>
        <time>2016-07-28T13:26:44.000Z</time>
      </trkpt>
      <trkpt lat="47.55306" lon="6.67781">
        <ele>465</ele>
        <time>2016-07-28T13:26:46.000Z</time>
      </trkpt>
      <trkpt lat="47.55308" lon="6.67782">
        <ele>465</ele>
        <time>2016-07-28T13:26:47.000Z</time>
      </trkpt>
      <trkpt lat="47.55312" lon="6.67785">
        <ele>465</ele>
        <time>2016-07-28T13:26:59.000Z</time>
      </trkpt>
      <trkpt lat="47.55312" lon="6.67785">
        <ele>465</ele>
        <time>2016-07-28T13:27:00.000Z</time>
      </trkpt>
      <trkpt lat="47.55315" lon="6.67789">
        <ele>465</ele>
        <time>2016-07-28T13:27:15.000Z</time>
      </trkpt>
      <trkpt lat="47.55316" lon="6.67789">
        <ele>465</ele>
        <time>2016-07-28T13:27:16.000Z</time>
      </trkpt>
      <trkpt lat="47.55314" lon="6.67783">
        <ele>465</ele>
        <time>2016-07-28T13:29:05.000Z</time>
      </trkpt>
      <trkpt lat="47.55316" lon="6.67782">
        <ele>465</ele>
        <time>2016-07-28T13:29:06.000Z</time>
      </trkpt>
      <trkpt lat="47.55319" lon="6.67778">
        <ele>465</ele>
        <time>2016-07-28T13:29:08.000Z</time>
      </trkpt>
      <trkpt lat="47.55321" lon="6.67776">
        <ele>465</ele>
        <time>2016-07-28T13:29:09.000Z</time>
      </trkpt>
      <trkpt lat="47.55323" lon="6.67774">
        <ele>465</ele>
        <time>2016-07-28T13:29:10.000Z</time>
      </trkpt>
      <trkpt lat="47.55325" lon="6.67771">
        <ele>465</ele>
        <time>2016-07-28T13:29:11.000Z</time>
      </trkpt>
      <trkpt lat="47.55327" lon="6.67768">
        <ele>465</ele>
        <time>2016-07-28T13:29:12.000Z</time>
      </trkpt>
      <trkpt lat="47.55329" lon="6.67765">
        <ele>465</ele>
        <time>2016-07-28T13:29:13.000Z</time>
      </trkpt>
      <trkpt lat="47.55331" lon="6.67762">
        <ele>465</ele>
        <time>2016-07-28T13:29:14.000Z</time>
      </trkpt>
      <trkpt lat="47.55334" lon="6.67758">
        <ele>465</ele>
        <time>2016-07-28T13:29:15.000Z</time>
      </trkpt>
      <trkpt lat="47.55336" lon="6.67755">
        <ele>465</ele>
        <time>2016-07-28T13:29:16.000Z</time>
      </trkpt>
      <trkpt lat="47.55338" lon="6.67751">
        <ele>465</ele>
        <time>2016-07-28T13:29:17.000Z</time>
      </trkpt>
      <trkpt lat="47.5534" lon="6.67748">
        <ele>465</ele>
        <time>2016-07-28T13:29:18.000Z</time>
      </trkpt>
      <trkpt lat="47.55344" lon="6.67743">
        <ele>464</ele>
        <time>2016-07-28T13:29:19.000Z</time>
      </trkpt>
      <trkpt lat="47.55347" lon="6.67739">
        <ele>464</ele>
        <time>2016-07-28T13:29:20.000Z</time>
      </trkpt>
      <trkpt lat="47.5535" lon="6.67737">
        <ele>464</ele>
        <time>2016-07-28T13:29:21.000Z</time>
      </trkpt>
      <trkpt lat="47.55353" lon="6.67733">
        <ele>464</ele>
        <time>2016-07-28T13:29:22.000Z</time>
      </trkpt>
      <trkpt lat="47.55356" lon="6.67729">
        <ele>464</ele>
        <time>2016-07-28T13:29:23.000Z</time>
      </trkpt>
      <trkpt lat="47.55358" lon="6.67725">
        <ele>464</ele>
        <time>2016-07-28T13:29:24.000Z</time>
      </trkpt>
      <trkpt lat="47.5536" lon="6.67722">
        <ele>464</ele>
        <time>2016-07-28T13:29:25.000Z</time>
      </trkpt>
      <trkpt lat="47.55362" lon="6.67719">
        <ele>463</ele>
        <time>2016-07-28T13:29:26.000Z</time>
      </trkpt>
      <trkpt lat="47.55364" lon="6.67716">
        <ele>463</ele>
        <time>2016-07-28T13:29:27.000Z</time>
      </trkpt>
      <trkpt lat="47.55367" lon="6.67713">
        <ele>463</ele>
        <time>2016-07-28T13:29:29.000Z</time>
      </trkpt>
      <trkpt lat="47.5537" lon="6.67712">
        <ele>463</ele>
        <time>2016-07-28T13:29:30.000Z</time>
      </trkpt>
      <trkpt lat="47.55372" lon="6.67712">
        <ele>463</ele>
        <time>2016-07-28T13:29:31.000Z</time>
      </trkpt>
      <trkpt lat="47.55375" lon="6.67712">
        <ele>463</ele>
        <time>2016-07-28T13:29:32.000Z</time>
      </trkpt>
      <trkpt lat="47.55378" lon="6.67713">
        <ele>463</ele>
        <time>2016-07-28T13:29:33.000Z</time>
      </trkpt>
      <trkpt lat="47.5538" lon="6.67713">
        <ele>463</ele>
        <time>2016-07-28T13:29:34.000Z</time>
      </trkpt>
      <trkpt lat="47.55382" lon="6.67713">
        <ele>464</ele>
        <time>2016-07-28T13:29:35.000Z</time>
      </trkpt>
      <trkpt lat="47.55385" lon="6.67714">
        <ele>464</ele>
        <time>2016-07-28T13:29:36.000Z</time>
      </trkpt>
      <trkpt lat="47.55388" lon="6.67714">
        <ele>464</ele>
        <time>2016-07-28T13:29:37.000Z</time>
      </trkpt>
      <trkpt lat="47.55391" lon="6.67714">
        <ele>464</ele>
        <time>2016-07-28T13:29:38.000Z</time>
      </trkpt>
      <trkpt lat="47.55394" lon="6.67714">
        <ele>464</ele>
        <time>2016-07-28T13:29:39.000Z</time>
      </trkpt>
      <trkpt lat="47.55397" lon="6.67713">
        <ele>464</ele>
        <time>2016-07-28T13:29:40.000Z</time>
      </trkpt>
      <trkpt lat="47.554" lon="6.67713">
        <ele>464</ele>
        <time>2016-07-28T13:29:41.000Z</time>
      </trkpt>
      <trkpt lat="47.55402" lon="6.67713">
        <ele>464</ele>
        <time>2016-07-28T13:29:42.000Z</time>
      </trkpt>
      <trkpt lat="47.55407" lon="6.67713">
        <ele>464</ele>
        <time>2016-07-28T13:29:44.000Z</time>
      </trkpt>
      <trkpt lat="47.55408" lon="6.67713">
        <ele>464</ele>
        <time>2016-07-28T13:29:45.000Z</time>
      </trkpt>
      <trkpt lat="47.55411" lon="6.67714">
        <ele>464</ele>
        <time>2016-07-28T13:29:46.000Z</time>
      </trkpt>
      <trkpt lat="47.55413" lon="6.67715">
        <ele>464</ele>
        <time>2016-07-28T13:29:47.000Z</time>
      </trkpt>
      <trkpt lat="47.55417" lon="6.67716">
        <ele>466</ele>
        <time>2016-07-28T13:29:49.000Z</time>
      </trkpt>
      <trkpt lat="47.55419" lon="6.67716">
        <ele>466</ele>
        <time>2016-07-28T13:29:50.000Z</time>
      </trkpt>
      <trkpt lat="47.55422" lon="6.67717">
        <ele>466</ele>
        <time>2016-07-28T13:29:52.000Z</time>
      </trkpt>
      <trkpt lat="47.55424" lon="6.67716">
        <ele>466</ele>
        <time>2016-07-28T13:29:53.000Z</time>
      </trkpt>
      <trkpt lat="47.55429" lon="6.67716">
        <ele>467</ele>
        <time>2016-07-28T13:29:55.000Z</time>
      </trkpt>
      <trkpt lat="47.55431" lon="6.67716">
        <ele>467</ele>
        <time>2016-07-28T13:29:56.000Z</time>
      </trkpt>
      <trkpt lat="47.55435" lon="6.67715">
        <ele>467</ele>
        <time>2016-07-28T13:29:58.000Z</time>
      </trkpt>
      <trkpt lat="47.55437" lon="6.67715">
        <ele>467</ele>
        <time>2016-07-28T13:29:59.000Z</time>
      </trkpt>
      <trkpt lat="47.55442" lon="6.67715">
        <ele>467</ele>
        <time>2016-07-28T13:30:01.000Z</time>
      </trkpt>
      <trkpt lat="47.55444" lon="6.67715">
        <ele>467</ele>
        <time>2016-07-28T13:30:02.000Z</time>
      </trkpt>
      <trkpt lat="47.55448" lon="6.67715">
        <ele>467</ele>
        <time>2016-07-28T13:30:04.000Z</time>
      </trkpt>
      <trkpt lat="47.5545" lon="6.67715">
        <ele>467</ele>
        <time>2016-07-28T13:30:05.000Z</time>
      </trkpt>
      <trkpt lat="47.55454" lon="6.67716">
        <ele>467</ele>
        <time>2016-07-28T13:30:07.000Z</time>
      </trkpt>
      <trkpt lat="47.55455" lon="6.67716">
        <ele>467</ele>
        <time>2016-07-28T13:30:08.000Z</time>
      </trkpt>
      <trkpt lat="47.55459" lon="6.67715">
        <ele>467</ele>
        <time>2016-07-28T13:30:10.000Z</time>
      </trkpt>
      <trkpt lat="47.55461" lon="6.67715">
        <ele>467</ele>
        <time>2016-07-28T13:30:11.000Z</time>
      </trkpt>
      <trkpt lat="47.55464" lon="6.67714">
        <ele>467</ele>
        <time>2016-07-28T13:30:13.000Z</time>
      </trkpt>
      <trkpt lat="47.55466" lon="6.67714">
        <ele>467</ele>
        <time>2016-07-28T13:30:14.000Z</time>
      </trkpt>
      <trkpt lat="47.55468" lon="6.67713">
        <ele>467</ele>
        <time>2016-07-28T13:30:15.000Z</time>
      </trkpt>
      <trkpt lat="47.5547" lon="6.67713">
        <ele>468</ele>
        <time>2016-07-28T13:30:16.000Z</time>
      </trkpt>
      <trkpt lat="47.55475" lon="6.67713">
        <ele>468</ele>
        <time>2016-07-28T13:30:18.000Z</time>
      </trkpt>
      <trkpt lat="47.55477" lon="6.67713">
        <ele>468</ele>
        <time>2016-07-28T13:30:19.000Z</time>
      </trkpt>
      <trkpt lat="47.5548" lon="6.67713">
        <ele>468</ele>
        <time>2016-07-28T13:30:21.000Z</time>
      </trkpt>
      <trkpt lat="47.55482" lon="6.67712">
        <ele>468</ele>
        <time>2016-07-28T13:30:22.000Z</time>
      </trkpt>
      <trkpt lat="47.55485" lon="6.67711">
        <ele>468</ele>
        <time>2016-07-28T13:30:24.000Z</time>
      </trkpt>
      <trkpt lat="47.55487" lon="6.6771">
        <ele>468</ele>
        <time>2016-07-28T13:30:25.000Z</time>
      </trkpt>
      <trkpt lat="47.5549" lon="6.67708">
        <ele>468</ele>
        <time>2016-07-28T13:30:27.000Z</time>
      </trkpt>
      <trkpt lat="47.55492" lon="6.67708">
        <ele>468</ele>
        <time>2016-07-28T13:30:28.000Z</time>
      </trkpt>
      <trkpt lat="47.55495" lon="6.67705">
        <ele>468</ele>
        <time>2016-07-28T13:30:30.000Z</time>
      </trkpt>
      <trkpt lat="47.55496" lon="6.67702">
        <ele>468</ele>
        <time>2016-07-28T13:30:31.000Z</time>
      </trkpt>
      <trkpt lat="47.55497" lon="6.67699">
        <ele>468</ele>
        <time>2016-07-28T13:30:32.000Z</time>
      </trkpt>
      <trkpt lat="47.55498" lon="6.67695">
        <ele>467</ele>
        <time>2016-07-28T13:30:33.000Z</time>
      </trkpt>
      <trkpt lat="47.55501" lon="6.67691">
        <ele>468</ele>
        <time>2016-07-28T13:30:35.000Z</time>
      </trkpt>
      <trkpt lat="47.55503" lon="6.67689">
        <ele>468</ele>
        <time>2016-07-28T13:30:36.000Z</time>
      </trkpt>
      <trkpt lat="47.55507" lon="6.67687">
        <ele>468</ele>
        <time>2016-07-28T13:30:39.000Z</time>
      </trkpt>
      <trkpt lat="47.55508" lon="6.67687">
        <ele>468</ele>
        <time>2016-07-28T13:30:40.000Z</time>
      </trkpt>
      <trkpt lat="47.55512" lon="6.67689">
        <ele>468</ele>
        <time>2016-07-28T13:30:53.993Z</time>
      </trkpt>
      <trkpt lat="47.55512" lon="6.67689">
        <ele>468</ele>
        <time>2016-07-28T13:30:55.000Z</time>
      </trkpt>
      <trkpt lat="47.55514" lon="6.67685">
        <ele>467</ele>
        <time>2016-07-28T13:31:02.000Z</time>
      </trkpt>
      <trkpt lat="47.55516" lon="6.67682">
        <ele>467</ele>
        <time>2016-07-28T13:31:03.000Z</time>
      </trkpt>
      <trkpt lat="47.55518" lon="6.67679">
        <ele>467</ele>
        <time>2016-07-28T13:31:04.000Z</time>
      </trkpt>
      <trkpt lat="47.5552" lon="6.67676">
        <ele>467</ele>
        <time>2016-07-28T13:31:05.000Z</time>
      </trkpt>
      <trkpt lat="47.55522" lon="6.67673">
        <ele>467</ele>
        <time>2016-07-28T13:31:06.000Z</time>
      </trkpt>
      <trkpt lat="47.55523" lon="6.67668">
        <ele>467</ele>
        <time>2016-07-28T13:31:07.000Z</time>
      </trkpt>
      <trkpt lat="47.55524" lon="6.67662">
        <ele>464</ele>
        <time>2016-07-28T13:31:08.000Z</time>
      </trkpt>
      <trkpt lat="47.55524" lon="6.67657">
        <ele>463</ele>
        <time>2016-07-28T13:31:09.000Z</time>
      </trkpt>
      <trkpt lat="47.55524" lon="6.6765">
        <ele>463</ele>
        <time>2016-07-28T13:31:10.000Z</time>
      </trkpt>
      <trkpt lat="47.55524" lon="6.67645">
        <ele>463</ele>
        <time>2016-07-28T13:31:11.000Z</time>
      </trkpt>
      <trkpt lat="47.55524" lon="6.6764">
        <ele>462</ele>
        <time>2016-07-28T13:31:12.000Z</time>
      </trkpt>
      <trkpt lat="47.55523" lon="6.67636">
        <ele>462</ele>
        <time>2016-07-28T13:31:13.000Z</time>
      </trkpt>
      <trkpt lat="47.55521" lon="6.67632">
        <ele>462</ele>
        <time>2016-07-28T13:31:14.000Z</time>
      </trkpt>
      <trkpt lat="47.55518" lon="6.67628">
        <ele>462</ele>
        <time>2016-07-28T13:31:15.000Z</time>
      </trkpt>
      <trkpt lat="47.55514" lon="6.67624">
        <ele>462</ele>
        <time>2016-07-28T13:31:16.000Z</time>
      </trkpt>
      <trkpt lat="47.5551" lon="6.6762">
        <ele>461</ele>
        <time>2016-07-28T13:31:17.000Z</time>
      </trkpt>
      <trkpt lat="47.55502" lon="6.67612">
        <ele>461</ele>
        <time>2016-07-28T13:31:18.000Z</time>
      </trkpt>
      <trkpt lat="47.55499" lon="6.67605">
        <ele>459</ele>
        <time>2016-07-28T13:31:19.000Z</time>
      </trkpt>
      <trkpt lat="47.55497" lon="6.67601">
        <ele>458</ele>
        <time>2016-07-28T13:31:20.000Z</time>
      </trkpt>
      <trkpt lat="47.55496" lon="6.67596">
        <ele>458</ele>
        <time>2016-07-28T13:31:21.000Z</time>
      </trkpt>
      <trkpt lat="47.55494" lon="6.67592">
        <ele>458</ele>
        <time>2016-07-28T13:31:22.000Z</time>
      </trkpt>
      <trkpt lat="47.55494" lon="6.67589">
        <ele>458</ele>
        <time>2016-07-28T13:31:23.000Z</time>
      </trkpt>
      <trkpt lat="47.55498" lon="6.67586">
        <ele>458</ele>
        <time>2016-07-28T13:31:25.000Z</time>
      </trkpt>
      <trkpt lat="47.55499" lon="6.67584">
        <ele>458</ele>
        <time>2016-07-28T13:31:26.000Z</time>
      </trkpt>
      <trkpt lat="47.55502" lon="6.6758">
        <ele>458</ele>
        <time>2016-07-28T13:31:28.000Z</time>
      </trkpt>
      <trkpt lat="47.55503" lon="6.67579">
        <ele>458</ele>
        <time>2016-07-28T13:31:29.000Z</time>
      </trkpt>
      <trkpt lat="47.55505" lon="6.67575">
        <ele>458</ele>
        <time>2016-07-28T13:31:31.000Z</time>
      </trkpt>
      <trkpt lat="47.55506" lon="6.67573">
        <ele>458</ele>
        <time>2016-07-28T13:31:32.000Z</time>
      </trkpt>
      <trkpt lat="47.55508" lon="6.6757">
        <ele>458</ele>
        <time>2016-07-28T13:31:34.000Z</time>
      </trkpt>
      <trkpt lat="47.55509" lon="6.67567">
        <ele>458</ele>
        <time>2016-07-28T13:31:35.000Z</time>
      </trkpt>
      <trkpt lat="47.55511" lon="6.67562">
        <ele>458</ele>
        <time>2016-07-28T13:31:37.000Z</time>
      </trkpt>
      <trkpt lat="47.55511" lon="6.6756">
        <ele>458</ele>
        <time>2016-07-28T13:31:38.000Z</time>
      </trkpt>
      <trkpt lat="47.55513" lon="6.67554">
        <ele>458</ele>
        <time>2016-07-28T13:31:41.000Z</time>
      </trkpt>
      <trkpt lat="47.55513" lon="6.67553">
        <ele>458</ele>
        <time>2016-07-28T13:31:42.000Z</time>
      </trkpt>
      <trkpt lat="47.55515" lon="6.67547">
        <ele>458</ele>
        <time>2016-07-28T13:31:45.000Z</time>
      </trkpt>
      <trkpt lat="47.55516" lon="6.67544">
        <ele>458</ele>
        <time>2016-07-28T13:31:46.000Z</time>
      </trkpt>
      <trkpt lat="47.55518" lon="6.6754">
        <ele>458</ele>
        <time>2016-07-28T13:31:48.000Z</time>
      </trkpt>
      <trkpt lat="47.55519" lon="6.67538">
        <ele>458</ele>
        <time>2016-07-28T13:31:49.000Z</time>
      </trkpt>
      <trkpt lat="47.55521" lon="6.67534">
        <ele>458</ele>
        <time>2016-07-28T13:31:51.000Z</time>
      </trkpt>
      <trkpt lat="47.55522" lon="6.67532">
        <ele>458</ele>
        <time>2016-07-28T13:31:52.000Z</time>
      </trkpt>
      <trkpt lat="47.55523" lon="6.67526">
        <ele>458</ele>
        <time>2016-07-28T13:31:55.000Z</time>
      </trkpt>
      <trkpt lat="47.55524" lon="6.67524">
        <ele>458</ele>
        <time>2016-07-28T13:31:56.000Z</time>
      </trkpt>
      <trkpt lat="47.55525" lon="6.6752">
        <ele>458</ele>
        <time>2016-07-28T13:31:58.000Z</time>
      </trkpt>
      <trkpt lat="47.55526" lon="6.67518">
        <ele>458</ele>
        <time>2016-07-28T13:31:59.000Z</time>
      </trkpt>
      <trkpt lat="47.55528" lon="6.67513">
        <ele>458</ele>
        <time>2016-07-28T13:32:01.000Z</time>
      </trkpt>
      <trkpt lat="47.55529" lon="6.67511">
        <ele>458</ele>
        <time>2016-07-28T13:32:02.000Z</time>
      </trkpt>
      <trkpt lat="47.55531" lon="6.67507">
        <ele>458</ele>
        <time>2016-07-28T13:32:04.000Z</time>
      </trkpt>
      <trkpt lat="47.55532" lon="6.67505">
        <ele>458</ele>
        <time>2016-07-28T13:32:05.000Z</time>
      </trkpt>
      <trkpt lat="47.55534" lon="6.675">
        <ele>461</ele>
        <time>2016-07-28T13:32:07.000Z</time>
      </trkpt>
      <trkpt lat="47.55534" lon="6.67497">
        <ele>461</ele>
        <time>2016-07-28T13:32:08.000Z</time>
      </trkpt>
      <trkpt lat="47.55535" lon="6.67494">
        <ele>461</ele>
        <time>2016-07-28T13:32:09.000Z</time>
      </trkpt>
      <trkpt lat="47.55535" lon="6.6749">
        <ele>461</ele>
        <time>2016-07-28T13:32:10.000Z</time>
      </trkpt>
      <trkpt lat="47.55535" lon="6.67487">
        <ele>461</ele>
        <time>2016-07-28T13:32:11.000Z</time>
      </trkpt>
      <trkpt lat="47.55535" lon="6.67483">
        <ele>461</ele>
        <time>2016-07-28T13:32:12.000Z</time>
      </trkpt>
      <trkpt lat="47.55535" lon="6.67477">
        <ele>462</ele>
        <time>2016-07-28T13:32:14.000Z</time>
      </trkpt>
      <trkpt lat="47.55535" lon="6.67474">
        <ele>462</ele>
        <time>2016-07-28T13:32:15.000Z</time>
      </trkpt>
      <trkpt lat="47.55535" lon="6.67469">
        <ele>462</ele>
        <time>2016-07-28T13:32:17.000Z</time>
      </trkpt>
      <trkpt lat="47.55535" lon="6.67466">
        <ele>462</ele>
        <time>2016-07-28T13:32:18.000Z</time>
      </trkpt>
      <trkpt lat="47.55535" lon="6.67461">
        <ele>462</ele>
        <time>2016-07-28T13:32:20.000Z</time>
      </trkpt>
      <trkpt lat="47.55535" lon="6.67458">
        <ele>462</ele>
        <time>2016-07-28T13:32:21.000Z</time>
      </trkpt>
      <trkpt lat="47.55535" lon="6.67453">
        <ele>462</ele>
        <time>2016-07-28T13:32:23.000Z</time>
      </trkpt>
      <trkpt lat="47.55535" lon="6.67451">
        <ele>463</ele>
        <time>2016-07-28T13:32:24.000Z</time>
      </trkpt>
      <trkpt lat="47.55536" lon="6.67446">
        <ele>463</ele>
        <time>2016-07-28T13:32:26.000Z</time>
      </trkpt>
      <trkpt lat="47.55537" lon="6.67443">
        <ele>463</ele>
        <time>2016-07-28T13:32:27.000Z</time>
      </trkpt>
      <trkpt lat="47.55537" lon="6.6744">
        <ele>463</ele>
        <time>2016-07-28T13:32:28.000Z</time>
      </trkpt>
      <trkpt lat="47.55539" lon="6.67437">
        <ele>463</ele>
        <time>2016-07-28T13:32:29.000Z</time>
      </trkpt>
      <trkpt lat="47.55541" lon="6.67434">
        <ele>463</ele>
        <time>2016-07-28T13:32:30.000Z</time>
      </trkpt>
      <trkpt lat="47.55543" lon="6.67432">
        <ele>464</ele>
        <time>2016-07-28T13:32:31.000Z</time>
      </trkpt>
      <trkpt lat="47.55547" lon="6.67429">
        <ele>464</ele>
        <time>2016-07-28T13:32:33.000Z</time>
      </trkpt>
      <trkpt lat="47.55549" lon="6.67427">
        <ele>464</ele>
        <time>2016-07-28T13:32:34.000Z</time>
      </trkpt>
      <trkpt lat="47.55552" lon="6.67424">
        <ele>465</ele>
        <time>2016-07-28T13:32:36.000Z</time>
      </trkpt>
      <trkpt lat="47.55553" lon="6.67423">
        <ele>465</ele>
        <time>2016-07-28T13:32:37.000Z</time>
      </trkpt>
      <trkpt lat="47.55556" lon="6.67419">
        <ele>466</ele>
        <time>2016-07-28T13:32:40.000Z</time>
      </trkpt>
      <trkpt lat="47.55556" lon="6.67418">
        <ele>466</ele>
        <time>2016-07-28T13:32:41.000Z</time>
      </trkpt>
      <trkpt lat="47.55559" lon="6.67412">
        <ele>469</ele>
        <time>2016-07-28T13:32:44.000Z</time>
      </trkpt>
      <trkpt lat="47.55559" lon="6.67411">
        <ele>469</ele>
        <time>2016-07-28T13:32:45.000Z</time>
      </trkpt>
      <trkpt lat="47.55561" lon="6.67407">
        <ele>469</ele>
        <time>2016-07-28T13:32:47.000Z</time>
      </trkpt>
      <trkpt lat="47.55562" lon="6.67405">
        <ele>469</ele>
        <time>2016-07-28T13:32:48.000Z</time>
      </trkpt>
      <trkpt lat="47.55563" lon="6.67401">
        <ele>469</ele>
        <time>2016-07-28T13:32:50.000Z</time>
      </trkpt>
      <trkpt lat="47.55564" lon="6.67398">
        <ele>469</ele>
        <time>2016-07-28T13:32:51.000Z</time>
      </trkpt>
      <trkpt lat="47.55565" lon="6.67392">
        <ele>470</ele>
        <time>2016-07-28T13:32:54.000Z</time>
      </trkpt>
      <trkpt lat="47.55566" lon="6.67391">
        <ele>470</ele>
        <time>2016-07-28T13:32:55.000Z</time>
      </trkpt>
      <trkpt lat="47.55569" lon="6.67387">
        <ele>470</ele>
        <time>2016-07-28T13:32:58.000Z</time>
      </trkpt>
      <trkpt lat="47.5557" lon="6.67386">
        <ele>470</ele>
        <time>2016-07-28T13:32:59.000Z</time>
      </trkpt>
      <trkpt lat="47.55573" lon="6.67383">
        <ele>470</ele>
        <time>2016-07-28T13:33:01.000Z</time>
      </trkpt>
      <trkpt lat="47.55574" lon="6.67382">
        <ele>470</ele>
        <time>2016-07-28T13:33:02.000Z</time>
      </trkpt>
      <trkpt lat="47.55577" lon="6.67378">
        <ele>470</ele>
        <time>2016-07-28T13:33:04.000Z</time>
      </trkpt>
      <trkpt lat="47.55578" lon="6.67376">
        <ele>470</ele>
        <time>2016-07-28T13:33:05.000Z</time>
      </trkpt>
      <trkpt lat="47.5558" lon="6.67372">
        <ele>471</ele>
        <time>2016-07-28T13:33:07.000Z</time>
      </trkpt>
      <trkpt lat="47.55581" lon="6.6737">
        <ele>471</ele>
        <time>2016-07-28T13:33:08.000Z</time>
      </trkpt>
      <trkpt lat="47.55582" lon="6.67364">
        <ele>471</ele>
        <time>2016-07-28T13:33:11.000Z</time>
      </trkpt>
      <trkpt lat="47.55583" lon="6.67362">
        <ele>472</ele>
        <time>2016-07-28T13:33:12.000Z</time>
      </trkpt>
      <trkpt lat="47.55584" lon="6.67357">
        <ele>474</ele>
        <time>2016-07-28T13:33:14.000Z</time>
      </trkpt>
      <trkpt lat="47.55585" lon="6.67355">
        <ele>474</ele>
        <time>2016-07-28T13:33:15.000Z</time>
      </trkpt>
      <trkpt lat="47.55587" lon="6.67351">
        <ele>474</ele>
        <time>2016-07-28T13:33:17.000Z</time>
      </trkpt>
      <trkpt lat="47.55588" lon="6.6735">
        <ele>474</ele>
        <time>2016-07-28T13:33:18.000Z</time>
      </trkpt>
      <trkpt lat="47.55591" lon="6.67346">
        <ele>475</ele>
        <time>2016-07-28T13:33:20.000Z</time>
      </trkpt>
      <trkpt lat="47.55592" lon="6.67344">
        <ele>475</ele>
        <time>2016-07-28T13:33:21.000Z</time>
      </trkpt>
      <trkpt lat="47.55594" lon="6.67339">
        <ele>475</ele>
        <time>2016-07-28T13:33:23.000Z</time>
      </trkpt>
      <trkpt lat="47.55595" lon="6.67337">
        <ele>475</ele>
        <time>2016-07-28T13:33:24.000Z</time>
      </trkpt>
      <trkpt lat="47.55596" lon="6.67333">
        <ele>479</ele>
        <time>2016-07-28T13:33:25.999Z</time>
      </trkpt>
      <trkpt lat="47.55596" lon="6.67329">
        <ele>479</ele>
        <time>2016-07-28T13:33:27.000Z</time>
      </trkpt>
      <trkpt lat="47.55597" lon="6.67324">
        <ele>479</ele>
        <time>2016-07-28T13:33:29.000Z</time>
      </trkpt>
      <trkpt lat="47.55599" lon="6.67322">
        <ele>479</ele>
        <time>2016-07-28T13:33:30.000Z</time>
      </trkpt>
      <trkpt lat="47.55601" lon="6.67318">
        <ele>480</ele>
        <time>2016-07-28T13:33:32.000Z</time>
      </trkpt>
      <trkpt lat="47.55602" lon="6.67316">
        <ele>480</ele>
        <time>2016-07-28T13:33:33.000Z</time>
      </trkpt>
      <trkpt lat="47.55605" lon="6.67311">
        <ele>480</ele>
        <time>2016-07-28T13:33:35.000Z</time>
      </trkpt>
      <trkpt lat="47.55606" lon="6.6731">
        <ele>480</ele>
        <time>2016-07-28T13:33:36.000Z</time>
      </trkpt>
      <trkpt lat="47.55609" lon="6.67305">
        <ele>481</ele>
        <time>2016-07-28T13:33:39.000Z</time>
      </trkpt>
      <trkpt lat="47.55609" lon="6.67303">
        <ele>481</ele>
        <time>2016-07-28T13:33:40.000Z</time>
      </trkpt>
      <trkpt lat="47.5561" lon="6.67298">
        <ele>481</ele>
        <time>2016-07-28T13:33:43.000Z</time>
      </trkpt>
      <trkpt lat="47.5561" lon="6.67296">
        <ele>481</ele>
        <time>2016-07-28T13:33:44.000Z</time>
      </trkpt>
      <trkpt lat="47.55612" lon="6.6729">
        <ele>481</ele>
        <time>2016-07-28T13:33:47.000Z</time>
      </trkpt>
      <trkpt lat="47.55612" lon="6.67289">
        <ele>481</ele>
        <time>2016-07-28T13:33:48.000Z</time>
      </trkpt>
      <trkpt lat="47.55616" lon="6.67286">
        <ele>481</ele>
        <time>2016-07-28T13:33:50.000Z</time>
      </trkpt>
      <trkpt lat="47.55617" lon="6.67284">
        <ele>482</ele>
        <time>2016-07-28T13:33:51.000Z</time>
      </trkpt>
      <trkpt lat="47.55621" lon="6.67282">
        <ele>482</ele>
        <time>2016-07-28T13:33:53.000Z</time>
      </trkpt>
      <trkpt lat="47.55622" lon="6.6728">
        <ele>482</ele>
        <time>2016-07-28T13:33:54.000Z</time>
      </trkpt>
      <trkpt lat="47.55625" lon="6.67277">
        <ele>482</ele>
        <time>2016-07-28T13:33:56.000Z</time>
      </trkpt>
      <trkpt lat="47.55626" lon="6.67276">
        <ele>482</ele>
        <time>2016-07-28T13:33:57.000Z</time>
      </trkpt>
      <trkpt lat="47.55629" lon="6.67272">
        <ele>482</ele>
        <time>2016-07-28T13:34:00.000Z</time>
      </trkpt>
      <trkpt lat="47.5563" lon="6.67271">
        <ele>483</ele>
        <time>2016-07-28T13:34:01.000Z</time>
      </trkpt>
      <trkpt lat="47.55632" lon="6.67268">
        <ele>483</ele>
        <time>2016-07-28T13:34:03.000Z</time>
      </trkpt>
      <trkpt lat="47.55634" lon="6.67267">
        <ele>483</ele>
        <time>2016-07-28T13:34:04.000Z</time>
      </trkpt>
      <trkpt lat="47.55638" lon="6.67265">
        <ele>483</ele>
        <time>2016-07-28T13:34:07.000Z</time>
      </trkpt>
      <trkpt lat="47.55639" lon="6.67264">
        <ele>484</ele>
        <time>2016-07-28T13:34:08.000Z</time>
      </trkpt>
      <trkpt lat="47.55642" lon="6.67262">
        <ele>484</ele>
        <time>2016-07-28T13:34:10.000Z</time>
      </trkpt>
      <trkpt lat="47.55644" lon="6.67261">
        <ele>484</ele>
        <time>2016-07-28T13:34:11.000Z</time>
      </trkpt>
      <trkpt lat="47.55648" lon="6.6726">
        <ele>485</ele>
        <time>2016-07-28T13:34:14.000Z</time>
      </trkpt>
      <trkpt lat="47.55649" lon="6.67259">
        <ele>485</ele>
        <time>2016-07-28T13:34:15.000Z</time>
      </trkpt>
      <trkpt lat="47.55651" lon="6.67258">
        <ele>485</ele>
        <time>2016-07-28T13:34:16.000Z</time>
      </trkpt>
      <trkpt lat="47.55654" lon="6.67256">
        <ele>486</ele>
        <time>2016-07-28T13:34:17.000Z</time>
      </trkpt>
      <trkpt lat="47.55656" lon="6.67255">
        <ele>486</ele>
        <time>2016-07-28T13:34:18.000Z</time>
      </trkpt>
      <trkpt lat="47.55659" lon="6.67254">
        <ele>487</ele>
        <time>2016-07-28T13:34:19.000Z</time>
      </trkpt>
      <trkpt lat="47.55663" lon="6.67252">
        <ele>488</ele>
        <time>2016-07-28T13:34:21.000Z</time>
      </trkpt>
      <trkpt lat="47.55664" lon="6.67251">
        <ele>488</ele>
        <time>2016-07-28T13:34:22.000Z</time>
      </trkpt>
      <trkpt lat="47.55668" lon="6.67249">
        <ele>490</ele>
        <time>2016-07-28T13:34:25.000Z</time>
      </trkpt>
      <trkpt lat="47.55669" lon="6.67248">
        <ele>490</ele>
        <time>2016-07-28T13:34:26.000Z</time>
      </trkpt>
      <trkpt lat="47.55673" lon="6.67244">
        <ele>491</ele>
        <time>2016-07-28T13:34:29.000Z</time>
      </trkpt>
      <trkpt lat="47.55674" lon="6.67243">
        <ele>492</ele>
        <time>2016-07-28T13:34:30.000Z</time>
      </trkpt>
      <trkpt lat="47.55677" lon="6.67242">
        <ele>492</ele>
        <time>2016-07-28T13:34:32.000Z</time>
      </trkpt>
      <trkpt lat="47.55679" lon="6.67241">
        <ele>493</ele>
        <time>2016-07-28T13:34:33.000Z</time>
      </trkpt>
      <trkpt lat="47.55682" lon="6.67238">
        <ele>493</ele>
        <time>2016-07-28T13:34:36.000Z</time>
      </trkpt>
      <trkpt lat="47.55683" lon="6.67236">
        <ele>494</ele>
        <time>2016-07-28T13:34:37.000Z</time>
      </trkpt>
      <trkpt lat="47.55686" lon="6.67233">
        <ele>494</ele>
        <time>2016-07-28T13:34:40.000Z</time>
      </trkpt>
      <trkpt lat="47.55688" lon="6.67231">
        <ele>494</ele>
        <time>2016-07-28T13:34:41.000Z</time>
      </trkpt>
      <trkpt lat="47.5569" lon="6.67229">
        <ele>495</ele>
        <time>2016-07-28T13:34:43.000Z</time>
      </trkpt>
      <trkpt lat="47.55691" lon="6.67227">
        <ele>495</ele>
        <time>2016-07-28T13:34:44.000Z</time>
      </trkpt>
      <trkpt lat="47.55694" lon="6.67225">
        <ele>495</ele>
        <time>2016-07-28T13:34:46.000Z</time>
      </trkpt>
      <trkpt lat="47.55695" lon="6.67225">
        <ele>495</ele>
        <time>2016-07-28T13:34:47.000Z</time>
      </trkpt>
      <trkpt lat="47.557" lon="6.67222">
        <ele>496</ele>
        <time>2016-07-28T13:34:50.000Z</time>
      </trkpt>
      <trkpt lat="47.55701" lon="6.67222">
        <ele>496</ele>
        <time>2016-07-28T13:34:51.000Z</time>
      </trkpt>
      <trkpt lat="47.55704" lon="6.67219">
        <ele>496</ele>
        <time>2016-07-28T13:34:54.000Z</time>
      </trkpt>
      <trkpt lat="47.55705" lon="6.67218">
        <ele>496</ele>
        <time>2016-07-28T13:34:55.000Z</time>
      </trkpt>
      <trkpt lat="47.55708" lon="6.67215">
        <ele>497</ele>
        <time>2016-07-28T13:34:59.000Z</time>
      </trkpt>
      <trkpt lat="47.55709" lon="6.67214">
        <ele>497</ele>
        <time>2016-07-28T13:35:00.000Z</time>
      </trkpt>
      <trkpt lat="47.55711" lon="6.67209">
        <ele>497</ele>
        <time>2016-07-28T13:35:04.000Z</time>
      </trkpt>
      <trkpt lat="47.55712" lon="6.67208">
        <ele>497</ele>
        <time>2016-07-28T13:35:05.000Z</time>
      </trkpt>
      <trkpt lat="47.55715" lon="6.67204">
        <ele>498</ele>
        <time>2016-07-28T13:35:12.000Z</time>
      </trkpt>
      <trkpt lat="47.55715" lon="6.67203">
        <ele>498</ele>
        <time>2016-07-28T13:35:13.000Z</time>
      </trkpt>
      <trkpt lat="47.55718" lon="6.67198">
        <ele>498</ele>
        <time>2016-07-28T13:35:17.000Z</time>
      </trkpt>
      <trkpt lat="47.55719" lon="6.67198">
        <ele>498</ele>
        <time>2016-07-28T13:35:18.000Z</time>
      </trkpt>
      <trkpt lat="47.55723" lon="6.67197">
        <ele>498</ele>
        <time>2016-07-28T13:35:21.000Z</time>
      </trkpt>
      <trkpt lat="47.55724" lon="6.67196">
        <ele>499</ele>
        <time>2016-07-28T13:35:22.000Z</time>
      </trkpt>
      <trkpt lat="47.55724" lon="6.67189">
        <ele>499</ele>
        <time>2016-07-28T13:35:26.000Z</time>
      </trkpt>
      <trkpt lat="47.55723" lon="6.67187">
        <ele>499</ele>
        <time>2016-07-28T13:35:27.000Z</time>
      </trkpt>
      <trkpt lat="47.55722" lon="6.67182">
        <ele>499</ele>
        <time>2016-07-28T13:35:29.000Z</time>
      </trkpt>
      <trkpt lat="47.55721" lon="6.6718">
        <ele>499</ele>
        <time>2016-07-28T13:35:30.000Z</time>
      </trkpt>
      <trkpt lat="47.55719" lon="6.67174">
        <ele>500</ele>
        <time>2016-07-28T13:35:33.000Z</time>
      </trkpt>
      <trkpt lat="47.55719" lon="6.67172">
        <ele>500</ele>
        <time>2016-07-28T13:35:34.000Z</time>
      </trkpt>
      <trkpt lat="47.5572" lon="6.67168">
        <ele>500</ele>
        <time>2016-07-28T13:35:37.000Z</time>
      </trkpt>
      <trkpt lat="47.55721" lon="6.67166">
        <ele>505</ele>
        <time>2016-07-28T13:35:38.000Z</time>
      </trkpt>
      <trkpt lat="47.55724" lon="6.67162">
        <ele>505</ele>
        <time>2016-07-28T13:35:41.000Z</time>
      </trkpt>
      <trkpt lat="47.55725" lon="6.6716">
        <ele>505</ele>
        <time>2016-07-28T13:35:42.000Z</time>
      </trkpt>
      <trkpt lat="47.55726" lon="6.67156">
        <ele>505</ele>
        <time>2016-07-28T13:35:45.000Z</time>
      </trkpt>
      <trkpt lat="47.55727" lon="6.67154">
        <ele>505</ele>
        <time>2016-07-28T13:35:46.000Z</time>
      </trkpt>
      <trkpt lat="47.5573" lon="6.6715">
        <ele>505</ele>
        <time>2016-07-28T13:35:48.000Z</time>
      </trkpt>
      <trkpt lat="47.55731" lon="6.67148">
        <ele>506</ele>
        <time>2016-07-28T13:35:49.000Z</time>
      </trkpt>
      <trkpt lat="47.55734" lon="6.67144">
        <ele>506</ele>
        <time>2016-07-28T13:35:51.000Z</time>
      </trkpt>
      <trkpt lat="47.55736" lon="6.67141">
        <ele>506</ele>
        <time>2016-07-28T13:35:52.000Z</time>
      </trkpt>
      <trkpt lat="47.55738" lon="6.67139">
        <ele>506</ele>
        <time>2016-07-28T13:35:53.000Z</time>
      </trkpt>
      <trkpt lat="47.55741" lon="6.67136">
        <ele>506</ele>
        <time>2016-07-28T13:35:54.000Z</time>
      </trkpt>
      <trkpt lat="47.55744" lon="6.67134">
        <ele>506</ele>
        <time>2016-07-28T13:35:55.000Z</time>
      </trkpt>
      <trkpt lat="47.55747" lon="6.67131">
        <ele>506</ele>
        <time>2016-07-28T13:35:56.000Z</time>
      </trkpt>
      <trkpt lat="47.55749" lon="6.67128">
        <ele>507</ele>
        <time>2016-07-28T13:35:57.000Z</time>
      </trkpt>
      <trkpt lat="47.55751" lon="6.67126">
        <ele>507</ele>
        <time>2016-07-28T13:35:57.977Z</time>
      </trkpt>
      <trkpt lat="47.55754" lon="6.67122">
        <ele>507</ele>
        <time>2016-07-28T13:35:59.000Z</time>
      </trkpt>
      <trkpt lat="47.55756" lon="6.67119">
        <ele>507</ele>
        <time>2016-07-28T13:36:00.000Z</time>
      </trkpt>
      <trkpt lat="47.55758" lon="6.67117">
        <ele>507</ele>
        <time>2016-07-28T13:36:01.000Z</time>
      </trkpt>
      <trkpt lat="47.5576" lon="6.67114">
        <ele>507</ele>
        <time>2016-07-28T13:36:02.000Z</time>
      </trkpt>
      <trkpt lat="47.55762" lon="6.67112">
        <ele>507</ele>
        <time>2016-07-28T13:36:03.000Z</time>
      </trkpt>
      <trkpt lat="47.55764" lon="6.67109">
        <ele>507</ele>
        <time>2016-07-28T13:36:04.000Z</time>
      </trkpt>
      <trkpt lat="47.55766" lon="6.67107">
        <ele>507</ele>
        <time>2016-07-28T13:36:05.000Z</time>
      </trkpt>
      <trkpt lat="47.55768" lon="6.67105">
        <ele>507</ele>
        <time>2016-07-28T13:36:06.000Z</time>
      </trkpt>
      <trkpt lat="47.55771" lon="6.67101">
        <ele>507</ele>
        <time>2016-07-28T13:36:08.000Z</time>
      </trkpt>
      <trkpt lat="47.55773" lon="6.671">
        <ele>507</ele>
        <time>2016-07-28T13:36:09.000Z</time>
      </trkpt>
      <trkpt lat="47.55777" lon="6.67096">
        <ele>507</ele>
        <time>2016-07-28T13:36:11.000Z</time>
      </trkpt>
      <trkpt lat="47.55778" lon="6.67094">
        <ele>507</ele>
        <time>2016-07-28T13:36:12.000Z</time>
      </trkpt>
      <trkpt lat="47.55781" lon="6.6709">
        <ele>507</ele>
        <time>2016-07-28T13:36:14.000Z</time>
      </trkpt>
      <trkpt lat="47.55783" lon="6.67088">
        <ele>507</ele>
        <time>2016-07-28T13:36:15.000Z</time>
      </trkpt>
      <trkpt lat="47.55784" lon="6.67085">
        <ele>507</ele>
        <time>2016-07-28T13:36:16.000Z</time>
      </trkpt>
      <trkpt lat="47.55785" lon="6.67082">
        <ele>504</ele>
        <time>2016-07-28T13:36:17.000Z</time>
      </trkpt>
      <trkpt lat="47.55786" lon="6.67079">
        <ele>504</ele>
        <time>2016-07-28T13:36:18.000Z</time>
      </trkpt>
      <trkpt lat="47.55787" lon="6.67075">
        <ele>504</ele>
        <time>2016-07-28T13:36:19.000Z</time>
      </trkpt>
      <trkpt lat="47.55788" lon="6.67069">
        <ele>503</ele>
        <time>2016-07-28T13:36:21.000Z</time>
      </trkpt>
      <trkpt lat="47.55788" lon="6.67066">
        <ele>503</ele>
        <time>2016-07-28T13:36:22.000Z</time>
      </trkpt>
      <trkpt lat="47.55787" lon="6.67061">
        <ele>503</ele>
        <time>2016-07-28T13:36:24.000Z</time>
      </trkpt>
      <trkpt lat="47.55786" lon="6.67059">
        <ele>503</ele>
        <time>2016-07-28T13:36:25.000Z</time>
      </trkpt>
      <trkpt lat="47.55784" lon="6.67056">
        <ele>503</ele>
        <time>2016-07-28T13:36:27.000Z</time>
      </trkpt>
      <trkpt lat="47.55782" lon="6.67055">
        <ele>503</ele>
        <time>2016-07-28T13:36:28.000Z</time>
      </trkpt>
      <trkpt lat="47.5578" lon="6.67053">
        <ele>503</ele>
        <time>2016-07-28T13:36:30.000Z</time>
      </trkpt>
      <trkpt lat="47.55778" lon="6.67052">
        <ele>503</ele>
        <time>2016-07-28T13:36:31.000Z</time>
      </trkpt>
      <trkpt lat="47.55775" lon="6.6705">
        <ele>503</ele>
        <time>2016-07-28T13:36:33.000Z</time>
      </trkpt>
      <trkpt lat="47.55774" lon="6.67048">
        <ele>503</ele>
        <time>2016-07-28T13:36:34.000Z</time>
      </trkpt>
      <trkpt lat="47.5577" lon="6.67046">
        <ele>503</ele>
        <time>2016-07-28T13:36:37.000Z</time>
      </trkpt>
      <trkpt lat="47.55769" lon="6.67045">
        <ele>503</ele>
        <time>2016-07-28T13:36:38.000Z</time>
      </trkpt>
      <trkpt lat="47.55766" lon="6.67043">
        <ele>503</ele>
        <time>2016-07-28T13:36:40.000Z</time>
      </trkpt>
      <trkpt lat="47.55764" lon="6.67043">
        <ele>503</ele>
        <time>2016-07-28T13:36:41.000Z</time>
      </trkpt>
      <trkpt lat="47.5576" lon="6.67041">
        <ele>504</ele>
        <time>2016-07-28T13:36:43.000Z</time>
      </trkpt>
      <trkpt lat="47.55758" lon="6.67041">
        <ele>504</ele>
        <time>2016-07-28T13:36:44.000Z</time>
      </trkpt>
      <trkpt lat="47.55756" lon="6.67039">
        <ele>504</ele>
        <time>2016-07-28T13:36:45.000Z</time>
      </trkpt>
      <trkpt lat="47.55753" lon="6.67038">
        <ele>504</ele>
        <time>2016-07-28T13:36:46.000Z</time>
      </trkpt>
      <trkpt lat="47.55751" lon="6.67036">
        <ele>504</ele>
        <time>2016-07-28T13:36:47.000Z</time>
      </trkpt>
      <trkpt lat="47.55748" lon="6.67034">
        <ele>508</ele>
        <time>2016-07-28T13:36:48.000Z</time>
      </trkpt>
      <trkpt lat="47.55746" lon="6.67031">
        <ele>508</ele>
        <time>2016-07-28T13:36:49.000Z</time>
      </trkpt>
      <trkpt lat="47.55743" lon="6.67029">
        <ele>508</ele>
        <time>2016-07-28T13:36:50.000Z</time>
      </trkpt>
      <trkpt lat="47.5574" lon="6.67027">
        <ele>507</ele>
        <time>2016-07-28T13:36:51.000Z</time>
      </trkpt>
      <trkpt lat="47.55738" lon="6.67024">
        <ele>507</ele>
        <time>2016-07-28T13:36:52.000Z</time>
      </trkpt>
      <trkpt lat="47.55735" lon="6.67022">
        <ele>507</ele>
        <time>2016-07-28T13:36:53.000Z</time>
      </trkpt>
      <trkpt lat="47.55732" lon="6.67021">
        <ele>507</ele>
        <time>2016-07-28T13:36:54.000Z</time>
      </trkpt>
      <trkpt lat="47.5573" lon="6.67019">
        <ele>507</ele>
        <time>2016-07-28T13:36:55.000Z</time>
      </trkpt>
      <trkpt lat="47.55727" lon="6.67018">
        <ele>507</ele>
        <time>2016-07-28T13:36:56.000Z</time>
      </trkpt>
      <trkpt lat="47.55724" lon="6.67016">
        <ele>508</ele>
        <time>2016-07-28T13:36:58.000Z</time>
      </trkpt>
      <trkpt lat="47.55722" lon="6.67014">
        <ele>508</ele>
        <time>2016-07-28T13:36:59.000Z</time>
      </trkpt>
      <trkpt lat="47.5572" lon="6.67009">
        <ele>508</ele>
        <time>2016-07-28T13:37:01.000Z</time>
      </trkpt>
      <trkpt lat="47.5572" lon="6.67006">
        <ele>508</ele>
        <time>2016-07-28T13:37:02.000Z</time>
      </trkpt>
      <trkpt lat="47.5572" lon="6.67001">
        <ele>507</ele>
        <time>2016-07-28T13:37:04.000Z</time>
      </trkpt>
      <trkpt lat="47.5572" lon="6.66999">
        <ele>503</ele>
        <time>2016-07-28T13:37:05.000Z</time>
      </trkpt>
      <trkpt lat="47.55719" lon="6.66994">
        <ele>503</ele>
        <time>2016-07-28T13:37:08.000Z</time>
      </trkpt>
      <trkpt lat="47.55719" lon="6.66992">
        <ele>503</ele>
        <time>2016-07-28T13:37:09.000Z</time>
      </trkpt>
      <trkpt lat="47.55719" lon="6.66988">
        <ele>503</ele>
        <time>2016-07-28T13:37:11.000Z</time>
      </trkpt>
      <trkpt lat="47.5572" lon="6.66985">
        <ele>502</ele>
        <time>2016-07-28T13:37:12.000Z</time>
      </trkpt>
      <trkpt lat="47.55719" lon="6.66979">
        <ele>502</ele>
        <time>2016-07-28T13:37:17.000Z</time>
      </trkpt>
      <trkpt lat="47.55719" lon="6.66978">
        <ele>502</ele>
        <time>2016-07-28T13:37:18.000Z</time>
      </trkpt>
      <trkpt lat="47.5572" lon="6.66972">
        <ele>502</ele>
        <time>2016-07-28T13:37:32.000Z</time>
      </trkpt>
      <trkpt lat="47.55721" lon="6.66972">
        <ele>502</ele>
        <time>2016-07-28T13:37:33.000Z</time>
      </trkpt>
      <trkpt lat="47.5572" lon="6.66968">
        <ele>501</ele>
        <time>2016-07-28T13:43:35.000Z</time>
      </trkpt>
      <trkpt lat="47.55717" lon="6.66966">
        <ele>501</ele>
        <time>2016-07-28T13:43:36.000Z</time>
      </trkpt>
      <trkpt lat="47.55715" lon="6.66965">
        <ele>501</ele>
        <time>2016-07-28T13:43:37.000Z</time>
      </trkpt>
      <trkpt lat="47.55712" lon="6.66963">
        <ele>501</ele>
        <time>2016-07-28T13:43:38.000Z</time>
      </trkpt>
      <trkpt lat="47.55707" lon="6.66962">
        <ele>501</ele>
        <time>2016-07-28T13:43:39.000Z</time>
      </trkpt>
      <trkpt lat="47.55702" lon="6.6696">
        <ele>502</ele>
        <time>2016-07-28T13:43:40.000Z</time>
      </trkpt>
      <trkpt lat="47.55697" lon="6.66958">
        <ele>502</ele>
        <time>2016-07-28T13:43:41.000Z</time>
      </trkpt>
      <trkpt lat="47.55692" lon="6.66956">
        <ele>502</ele>
        <time>2016-07-28T13:43:42.000Z</time>
      </trkpt>
      <trkpt lat="47.55688" lon="6.66954">
        <ele>502</ele>
        <time>2016-07-28T13:43:43.000Z</time>
      </trkpt>
      <trkpt lat="47.55684" lon="6.66952">
        <ele>502</ele>
        <time>2016-07-28T13:43:44.000Z</time>
      </trkpt>
      <trkpt lat="47.5568" lon="6.66949">
        <ele>502</ele>
        <time>2016-07-28T13:43:45.000Z</time>
      </trkpt>
      <trkpt lat="47.55677" lon="6.66948">
        <ele>502</ele>
        <time>2016-07-28T13:43:46.000Z</time>
      </trkpt>
      <trkpt lat="47.55673" lon="6.66946">
        <ele>502</ele>
        <time>2016-07-28T13:43:47.000Z</time>
      </trkpt>
      <trkpt lat="47.5567" lon="6.66945">
        <ele>502</ele>
        <time>2016-07-28T13:43:48.000Z</time>
      </trkpt>
      <trkpt lat="47.55666" lon="6.66943">
        <ele>504</ele>
        <time>2016-07-28T13:43:49.000Z</time>
      </trkpt>
      <trkpt lat="47.55662" lon="6.66941">
        <ele>503</ele>
        <time>2016-07-28T13:43:50.000Z</time>
      </trkpt>
      <trkpt lat="47.55658" lon="6.66939">
        <ele>503</ele>
        <time>2016-07-28T13:43:51.000Z</time>
      </trkpt>
      <trkpt lat="47.55654" lon="6.66936">
        <ele>503</ele>
        <time>2016-07-28T13:43:52.000Z</time>
      </trkpt>
      <trkpt lat="47.55641" lon="6.66928">
        <ele>503</ele>
        <time>2016-07-28T13:43:53.000Z</time>
      </trkpt>
      <trkpt lat="47.55634" lon="6.66925">
        <ele>503</ele>
        <time>2016-07-28T13:43:54.000Z</time>
      </trkpt>
      <trkpt lat="47.55629" lon="6.66922">
        <ele>503</ele>
        <time>2016-07-28T13:43:55.000Z</time>
      </trkpt>
      <trkpt lat="47.55623" lon="6.66919">
        <ele>503</ele>
        <time>2016-07-28T13:43:56.000Z</time>
      </trkpt>
      <trkpt lat="47.55618" lon="6.66916">
        <ele>501</ele>
        <time>2016-07-28T13:43:57.000Z</time>
      </trkpt>
      <trkpt lat="47.55612" lon="6.66914">
        <ele>501</ele>
        <time>2016-07-28T13:43:58.000Z</time>
      </trkpt>
      <trkpt lat="47.55605" lon="6.66911">
        <ele>501</ele>
        <time>2016-07-28T13:43:59.000Z</time>
      </trkpt>
      <trkpt lat="47.55598" lon="6.66907">
        <ele>502</ele>
        <time>2016-07-28T13:44:00.000Z</time>
      </trkpt>
      <trkpt lat="47.5559" lon="6.66903">
        <ele>502</ele>
        <time>2016-07-28T13:44:01.000Z</time>
      </trkpt>
      <trkpt lat="47.55581" lon="6.66896">
        <ele>501</ele>
        <time>2016-07-28T13:44:02.000Z</time>
      </trkpt>
      <trkpt lat="47.55573" lon="6.66891">
        <ele>500</ele>
        <time>2016-07-28T13:44:03.000Z</time>
      </trkpt>
      <trkpt lat="47.55565" lon="6.66884">
        <ele>499</ele>
        <time>2016-07-28T13:44:04.000Z</time>
      </trkpt>
      <trkpt lat="47.55559" lon="6.66878">
        <ele>499</ele>
        <time>2016-07-28T13:44:05.000Z</time>
      </trkpt>
      <trkpt lat="47.55552" lon="6.66871">
        <ele>499</ele>
        <time>2016-07-28T13:44:06.000Z</time>
      </trkpt>
      <trkpt lat="47.55547" lon="6.66865">
        <ele>498</ele>
        <time>2016-07-28T13:44:07.000Z</time>
      </trkpt>
      <trkpt lat="47.55541" lon="6.66859">
        <ele>498</ele>
        <time>2016-07-28T13:44:08.000Z</time>
      </trkpt>
      <trkpt lat="47.55536" lon="6.66853">
        <ele>498</ele>
        <time>2016-07-28T13:44:09.000Z</time>
      </trkpt>
      <trkpt lat="47.55529" lon="6.66846">
        <ele>498</ele>
        <time>2016-07-28T13:44:10.000Z</time>
      </trkpt>
      <trkpt lat="47.55523" lon="6.66838">
        <ele>498</ele>
        <time>2016-07-28T13:44:11.000Z</time>
      </trkpt>
      <trkpt lat="47.55518" lon="6.6683">
        <ele>498</ele>
        <time>2016-07-28T13:44:12.000Z</time>
      </trkpt>
      <trkpt lat="47.55514" lon="6.66823">
        <ele>498</ele>
        <time>2016-07-28T13:44:13.000Z</time>
      </trkpt>
      <trkpt lat="47.55511" lon="6.66817">
        <ele>498</ele>
        <time>2016-07-28T13:44:14.000Z</time>
      </trkpt>
      <trkpt lat="47.55508" lon="6.6681">
        <ele>499</ele>
        <time>2016-07-28T13:44:15.000Z</time>
      </trkpt>
      <trkpt lat="47.55504" lon="6.66803">
        <ele>499</ele>
        <time>2016-07-28T13:44:16.000Z</time>
      </trkpt>
      <trkpt lat="47.55502" lon="6.66796">
        <ele>499</ele>
        <time>2016-07-28T13:44:17.000Z</time>
      </trkpt>
      <trkpt lat="47.55497" lon="6.6679">
        <ele>499</ele>
        <time>2016-07-28T13:44:18.000Z</time>
      </trkpt>
      <trkpt lat="47.55493" lon="6.66783">
        <ele>499</ele>
        <time>2016-07-28T13:44:19.000Z</time>
      </trkpt>
      <trkpt lat="47.55489" lon="6.66778">
        <ele>499</ele>
        <time>2016-07-28T13:44:20.000Z</time>
      </trkpt>
      <trkpt lat="47.55484" lon="6.66774">
        <ele>499</ele>
        <time>2016-07-28T13:44:21.000Z</time>
      </trkpt>
      <trkpt lat="47.55481" lon="6.66768">
        <ele>500</ele>
        <time>2016-07-28T13:44:22.000Z</time>
      </trkpt>
      <trkpt lat="47.55476" lon="6.6676">
        <ele>500</ele>
        <time>2016-07-28T13:44:23.000Z</time>
      </trkpt>
      <trkpt lat="47.55472" lon="6.66754">
        <ele>500</ele>
        <time>2016-07-28T13:44:24.000Z</time>
      </trkpt>
      <trkpt lat="47.55468" lon="6.66748">
        <ele>501</ele>
        <time>2016-07-28T13:44:25.000Z</time>
      </trkpt>
      <trkpt lat="47.55464" lon="6.66742">
        <ele>501</ele>
        <time>2016-07-28T13:44:26.000Z</time>
      </trkpt>
      <trkpt lat="47.5546" lon="6.66735">
        <ele>500</ele>
        <time>2016-07-28T13:44:27.000Z</time>
      </trkpt>
      <trkpt lat="47.55456" lon="6.66728">
        <ele>500</ele>
        <time>2016-07-28T13:44:28.000Z</time>
      </trkpt>
      <trkpt lat="47.55451" lon="6.66722">
        <ele>500</ele>
        <time>2016-07-28T13:44:29.000Z</time>
      </trkpt>
      <trkpt lat="47.55447" lon="6.66715">
        <ele>500</ele>
        <time>2016-07-28T13:44:30.000Z</time>
      </trkpt>
      <trkpt lat="47.55443" lon="6.66708">
        <ele>500</ele>
        <time>2016-07-28T13:44:31.000Z</time>
      </trkpt>
      <trkpt lat="47.55439" lon="6.66702">
        <ele>500</ele>
        <time>2016-07-28T13:44:32.000Z</time>
      </trkpt>
      <trkpt lat="47.55436" lon="6.66696">
        <ele>500</ele>
        <time>2016-07-28T13:44:33.000Z</time>
      </trkpt>
      <trkpt lat="47.55432" lon="6.66687">
        <ele>501</ele>
        <time>2016-07-28T13:44:34.000Z</time>
      </trkpt>
      <trkpt lat="47.55428" lon="6.66679">
        <ele>501</ele>
        <time>2016-07-28T13:44:35.000Z</time>
      </trkpt>
      <trkpt lat="47.55423" lon="6.66673">
        <ele>501</ele>
        <time>2016-07-28T13:44:36.000Z</time>
      </trkpt>
      <trkpt lat="47.55419" lon="6.66668">
        <ele>502</ele>
        <time>2016-07-28T13:44:37.000Z</time>
      </trkpt>
      <trkpt lat="47.55415" lon="6.66663">
        <ele>502</ele>
        <time>2016-07-28T13:44:38.000Z</time>
      </trkpt>
      <trkpt lat="47.5541" lon="6.66657">
        <ele>501</ele>
        <time>2016-07-28T13:44:39.000Z</time>
      </trkpt>
      <trkpt lat="47.55406" lon="6.66652">
        <ele>501</ele>
        <time>2016-07-28T13:44:40.000Z</time>
      </trkpt>
      <trkpt lat="47.55402" lon="6.66646">
        <ele>501</ele>
        <time>2016-07-28T13:44:41.000Z</time>
      </trkpt>
      <trkpt lat="47.55398" lon="6.66641">
        <ele>501</ele>
        <time>2016-07-28T13:44:42.000Z</time>
      </trkpt>
      <trkpt lat="47.55394" lon="6.66633">
        <ele>501</ele>
        <time>2016-07-28T13:44:43.000Z</time>
      </trkpt>
      <trkpt lat="47.55391" lon="6.66626">
        <ele>501</ele>
        <time>2016-07-28T13:44:44.000Z</time>
      </trkpt>
      <trkpt lat="47.55389" lon="6.6662">
        <ele>501</ele>
        <time>2016-07-28T13:44:45.000Z</time>
      </trkpt>
      <trkpt lat="47.55387" lon="6.66615">
        <ele>501</ele>
        <time>2016-07-28T13:44:46.000Z</time>
      </trkpt>
      <trkpt lat="47.55385" lon="6.66609">
        <ele>501</ele>
        <time>2016-07-28T13:44:47.000Z</time>
      </trkpt>
      <trkpt lat="47.55384" lon="6.66604">
        <ele>501</ele>
        <time>2016-07-28T13:44:48.000Z</time>
      </trkpt>
      <trkpt lat="47.55382" lon="6.66599">
        <ele>501</ele>
        <time>2016-07-28T13:44:49.000Z</time>
      </trkpt>
      <trkpt lat="47.55381" lon="6.66593">
        <ele>501</ele>
        <time>2016-07-28T13:44:50.000Z</time>
      </trkpt>
      <trkpt lat="47.55379" lon="6.66587">
        <ele>501</ele>
        <time>2016-07-28T13:44:51.000Z</time>
      </trkpt>
      <trkpt lat="47.55378" lon="6.66581">
        <ele>501</ele>
        <time>2016-07-28T13:44:52.000Z</time>
      </trkpt>
      <trkpt lat="47.55375" lon="6.66575">
        <ele>501</ele>
        <time>2016-07-28T13:44:53.000Z</time>
      </trkpt>
      <trkpt lat="47.55373" lon="6.66569">
        <ele>501</ele>
        <time>2016-07-28T13:44:54.000Z</time>
      </trkpt>
      <trkpt lat="47.55371" lon="6.66564">
        <ele>501</ele>
        <time>2016-07-28T13:44:55.000Z</time>
      </trkpt>
      <trkpt lat="47.55368" lon="6.6656">
        <ele>501</ele>
        <time>2016-07-28T13:44:56.000Z</time>
      </trkpt>
      <trkpt lat="47.55365" lon="6.66556">
        <ele>501</ele>
        <time>2016-07-28T13:44:57.000Z</time>
      </trkpt>
      <trkpt lat="47.55362" lon="6.66552">
        <ele>501</ele>
        <time>2016-07-28T13:44:58.000Z</time>
      </trkpt>
      <trkpt lat="47.55358" lon="6.66549">
        <ele>501</ele>
        <time>2016-07-28T13:44:59.000Z</time>
      </trkpt>
      <trkpt lat="47.55354" lon="6.66546">
        <ele>501</ele>
        <time>2016-07-28T13:45:00.000Z</time>
      </trkpt>
      <trkpt lat="47.55351" lon="6.66543">
        <ele>502</ele>
        <time>2016-07-28T13:45:01.000Z</time>
      </trkpt>
      <trkpt lat="47.55347" lon="6.6654">
        <ele>502</ele>
        <time>2016-07-28T13:45:02.000Z</time>
      </trkpt>
      <trkpt lat="47.55345" lon="6.66537">
        <ele>502</ele>
        <time>2016-07-28T13:45:03.000Z</time>
      </trkpt>
      <trkpt lat="47.55343" lon="6.66533">
        <ele>502</ele>
        <time>2016-07-28T13:45:04.000Z</time>
      </trkpt>
      <trkpt lat="47.55341" lon="6.6653">
        <ele>502</ele>
        <time>2016-07-28T13:45:05.000Z</time>
      </trkpt>
      <trkpt lat="47.5534" lon="6.66527">
        <ele>503</ele>
        <time>2016-07-28T13:45:06.000Z</time>
      </trkpt>
      <trkpt lat="47.55338" lon="6.66525">
        <ele>503</ele>
        <time>2016-07-28T13:45:07.000Z</time>
      </trkpt>
      <trkpt lat="47.55337" lon="6.66522">
        <ele>503</ele>
        <time>2016-07-28T13:45:08.000Z</time>
      </trkpt>
      <trkpt lat="47.55335" lon="6.66519">
        <ele>504</ele>
        <time>2016-07-28T13:45:09.000Z</time>
      </trkpt>
      <trkpt lat="47.55333" lon="6.66516">
        <ele>506</ele>
        <time>2016-07-28T13:45:10.000Z</time>
      </trkpt>
      <trkpt lat="47.55331" lon="6.66513">
        <ele>506</ele>
        <time>2016-07-28T13:45:11.000Z</time>
      </trkpt>
      <trkpt lat="47.55329" lon="6.66509">
        <ele>506</ele>
        <time>2016-07-28T13:45:13.000Z</time>
      </trkpt>
      <trkpt lat="47.55327" lon="6.66507">
        <ele>506</ele>
        <time>2016-07-28T13:45:14.000Z</time>
      </trkpt>
      <trkpt lat="47.55325" lon="6.66503">
        <ele>506</ele>
        <time>2016-07-28T13:45:16.000Z</time>
      </trkpt>
      <trkpt lat="47.55324" lon="6.66501">
        <ele>506</ele>
        <time>2016-07-28T13:45:17.000Z</time>
      </trkpt>
      <trkpt lat="47.55322" lon="6.66497">
        <ele>507</ele>
        <time>2016-07-28T13:45:19.000Z</time>
      </trkpt>
      <trkpt lat="47.55321" lon="6.66495">
        <ele>508</ele>
        <time>2016-07-28T13:45:20.000Z</time>
      </trkpt>
      <trkpt lat="47.55319" lon="6.66489">
        <ele>508</ele>
        <time>2016-07-28T13:45:22.000Z</time>
      </trkpt>
      <trkpt lat="47.55318" lon="6.66486">
        <ele>508</ele>
        <time>2016-07-28T13:45:23.000Z</time>
      </trkpt>
      <trkpt lat="47.55316" lon="6.66483">
        <ele>508</ele>
        <time>2016-07-28T13:45:24.000Z</time>
      </trkpt>
      <trkpt lat="47.55315" lon="6.6648">
        <ele>508</ele>
        <time>2016-07-28T13:45:25.000Z</time>
      </trkpt>
      <trkpt lat="47.55314" lon="6.66477">
        <ele>508</ele>
        <time>2016-07-28T13:45:26.000Z</time>
      </trkpt>
      <trkpt lat="47.55313" lon="6.66474">
        <ele>508</ele>
        <time>2016-07-28T13:45:27.000Z</time>
      </trkpt>
      <trkpt lat="47.55311" lon="6.66471">
        <ele>508</ele>
        <time>2016-07-28T13:45:28.000Z</time>
      </trkpt>
      <trkpt lat="47.5531" lon="6.66468">
        <ele>508</ele>
        <time>2016-07-28T13:45:29.000Z</time>
      </trkpt>
      <trkpt lat="47.55309" lon="6.66465">
        <ele>508</ele>
        <time>2016-07-28T13:45:30.000Z</time>
      </trkpt>
      <trkpt lat="47.55307" lon="6.66462">
        <ele>508</ele>
        <time>2016-07-28T13:45:31.000Z</time>
      </trkpt>
      <trkpt lat="47.55305" lon="6.66457">
        <ele>508</ele>
        <time>2016-07-28T13:45:33.000Z</time>
      </trkpt>
      <trkpt lat="47.55303" lon="6.66454">
        <ele>508</ele>
        <time>2016-07-28T13:45:34.000Z</time>
      </trkpt>
      <trkpt lat="47.553" lon="6.66449">
        <ele>508</ele>
        <time>2016-07-28T13:45:36.000Z</time>
      </trkpt>
      <trkpt lat="47.55299" lon="6.66447">
        <ele>508</ele>
        <time>2016-07-28T13:45:37.000Z</time>
      </trkpt>
      <trkpt lat="47.55298" lon="6.66444">
        <ele>509</ele>
        <time>2016-07-28T13:45:38.000Z</time>
      </trkpt>
      <trkpt lat="47.55297" lon="6.6644">
        <ele>509</ele>
        <time>2016-07-28T13:45:39.000Z</time>
      </trkpt>
      <trkpt lat="47.55297" lon="6.66436">
        <ele>509</ele>
        <time>2016-07-28T13:45:40.000Z</time>
      </trkpt>
      <trkpt lat="47.55296" lon="6.66432">
        <ele>509</ele>
        <time>2016-07-28T13:45:41.000Z</time>
      </trkpt>
      <trkpt lat="47.55296" lon="6.66427">
        <ele>509</ele>
        <time>2016-07-28T13:45:42.000Z</time>
      </trkpt>
      <trkpt lat="47.55295" lon="6.66424">
        <ele>509</ele>
        <time>2016-07-28T13:45:43.000Z</time>
      </trkpt>
      <trkpt lat="47.55293" lon="6.66418">
        <ele>509</ele>
        <time>2016-07-28T13:45:45.000Z</time>
      </trkpt>
      <trkpt lat="47.55292" lon="6.66416">
        <ele>508</ele>
        <time>2016-07-28T13:45:46.000Z</time>
      </trkpt>
      <trkpt lat="47.5529" lon="6.66412">
        <ele>508</ele>
        <time>2016-07-28T13:45:48.000Z</time>
      </trkpt>
      <trkpt lat="47.55289" lon="6.66411">
        <ele>508</ele>
        <time>2016-07-28T13:45:49.000Z</time>
      </trkpt>
      <trkpt lat="47.55288" lon="6.66405">
        <ele>508</ele>
        <time>2016-07-28T13:45:51.000Z</time>
      </trkpt>
      <trkpt lat="47.55287" lon="6.66402">
        <ele>508</ele>
        <time>2016-07-28T13:45:52.000Z</time>
      </trkpt>
      <trkpt lat="47.55287" lon="6.66399">
        <ele>508</ele>
        <time>2016-07-28T13:45:53.000Z</time>
      </trkpt>
      <trkpt lat="47.55285" lon="6.66396">
        <ele>508</ele>
        <time>2016-07-28T13:45:54.000Z</time>
      </trkpt>
      <trkpt lat="47.55283" lon="6.66393">
        <ele>508</ele>
        <time>2016-07-28T13:45:55.000Z</time>
      </trkpt>
      <trkpt lat="47.55281" lon="6.66391">
        <ele>508</ele>
        <time>2016-07-28T13:45:56.000Z</time>
      </trkpt>
      <trkpt lat="47.55279" lon="6.6639">
        <ele>509</ele>
        <time>2016-07-28T13:45:57.000Z</time>
      </trkpt>
      <trkpt lat="47.55277" lon="6.66388">
        <ele>509</ele>
        <time>2016-07-28T13:45:58.000Z</time>
      </trkpt>
      <trkpt lat="47.55275" lon="6.66385">
        <ele>509</ele>
        <time>2016-07-28T13:45:59.000Z</time>
      </trkpt>
      <trkpt lat="47.55274" lon="6.66382">
        <ele>509</ele>
        <time>2016-07-28T13:46:00.000Z</time>
      </trkpt>
      <trkpt lat="47.55273" lon="6.66378">
        <ele>509</ele>
        <time>2016-07-28T13:46:01.000Z</time>
      </trkpt>
      <trkpt lat="47.55272" lon="6.66374">
        <ele>509</ele>
        <time>2016-07-28T13:46:02.000Z</time>
      </trkpt>
      <trkpt lat="47.55271" lon="6.6637">
        <ele>509</ele>
        <time>2016-07-28T13:46:03.000Z</time>
      </trkpt>
      <trkpt lat="47.5527" lon="6.66366">
        <ele>509</ele>
        <time>2016-07-28T13:46:04.000Z</time>
      </trkpt>
      <trkpt lat="47.55269" lon="6.66363">
        <ele>509</ele>
        <time>2016-07-28T13:46:05.000Z</time>
      </trkpt>
      <trkpt lat="47.55267" lon="6.6636">
        <ele>509</ele>
        <time>2016-07-28T13:46:06.000Z</time>
      </trkpt>
      <trkpt lat="47.55265" lon="6.66357">
        <ele>510</ele>
        <time>2016-07-28T13:46:07.000Z</time>
      </trkpt>
      <trkpt lat="47.55263" lon="6.66353">
        <ele>510</ele>
        <time>2016-07-28T13:46:08.000Z</time>
      </trkpt>
      <trkpt lat="47.55261" lon="6.66348">
        <ele>510</ele>
        <time>2016-07-28T13:46:09.000Z</time>
      </trkpt>
      <trkpt lat="47.55258" lon="6.66344">
        <ele>511</ele>
        <time>2016-07-28T13:46:10.000Z</time>
      </trkpt>
      <trkpt lat="47.55255" lon="6.66341">
        <ele>512</ele>
        <time>2016-07-28T13:46:11.000Z</time>
      </trkpt>
      <trkpt lat="47.55253" lon="6.66338">
        <ele>513</ele>
        <time>2016-07-28T13:46:12.000Z</time>
      </trkpt>
      <trkpt lat="47.55251" lon="6.66336">
        <ele>513</ele>
        <time>2016-07-28T13:46:13.000Z</time>
      </trkpt>
      <trkpt lat="47.55248" lon="6.66333">
        <ele>514</ele>
        <time>2016-07-28T13:46:14.000Z</time>
      </trkpt>
      <trkpt lat="47.55246" lon="6.66331">
        <ele>514</ele>
        <time>2016-07-28T13:46:15.000Z</time>
      </trkpt>
      <trkpt lat="47.55243" lon="6.66329">
        <ele>513</ele>
        <time>2016-07-28T13:46:16.000Z</time>
      </trkpt>
      <trkpt lat="47.5524" lon="6.66325">
        <ele>513</ele>
        <time>2016-07-28T13:46:17.000Z</time>
      </trkpt>
      <trkpt lat="47.55237" lon="6.66322">
        <ele>513</ele>
        <time>2016-07-28T13:46:18.000Z</time>
      </trkpt>
      <trkpt lat="47.55234" lon="6.66319">
        <ele>513</ele>
        <time>2016-07-28T13:46:19.000Z</time>
      </trkpt>
      <trkpt lat="47.55231" lon="6.66315">
        <ele>512</ele>
        <time>2016-07-28T13:46:20.000Z</time>
      </trkpt>
      <trkpt lat="47.55228" lon="6.66312">
        <ele>512</ele>
        <time>2016-07-28T13:46:21.000Z</time>
      </trkpt>
      <trkpt lat="47.55225" lon="6.66307">
        <ele>512</ele>
        <time>2016-07-28T13:46:22.000Z</time>
      </trkpt>
      <trkpt lat="47.55222" lon="6.66303">
        <ele>512</ele>
        <time>2016-07-28T13:46:23.000Z</time>
      </trkpt>
      <trkpt lat="47.5522" lon="6.66298">
        <ele>512</ele>
        <time>2016-07-28T13:46:24.000Z</time>
      </trkpt>
      <trkpt lat="47.55218" lon="6.66293">
        <ele>512</ele>
        <time>2016-07-28T13:46:25.000Z</time>
      </trkpt>
      <trkpt lat="47.55216" lon="6.66289">
        <ele>512</ele>
        <time>2016-07-28T13:46:26.000Z</time>
      </trkpt>
      <trkpt lat="47.55214" lon="6.66286">
        <ele>512</ele>
        <time>2016-07-28T13:46:27.000Z</time>
      </trkpt>
      <trkpt lat="47.55211" lon="6.66283">
        <ele>512</ele>
        <time>2016-07-28T13:46:28.000Z</time>
      </trkpt>
      <trkpt lat="47.55209" lon="6.6628">
        <ele>512</ele>
        <time>2016-07-28T13:46:29.000Z</time>
      </trkpt>
      <trkpt lat="47.55207" lon="6.66277">
        <ele>512</ele>
        <time>2016-07-28T13:46:30.000Z</time>
      </trkpt>
      <trkpt lat="47.55204" lon="6.66274">
        <ele>512</ele>
        <time>2016-07-28T13:46:31.000Z</time>
      </trkpt>
      <trkpt lat="47.55202" lon="6.6627">
        <ele>512</ele>
        <time>2016-07-28T13:46:32.000Z</time>
      </trkpt>
      <trkpt lat="47.552" lon="6.66266">
        <ele>512</ele>
        <time>2016-07-28T13:46:33.000Z</time>
      </trkpt>
      <trkpt lat="47.55198" lon="6.66263">
        <ele>512</ele>
        <time>2016-07-28T13:46:34.000Z</time>
      </trkpt>
      <trkpt lat="47.55196" lon="6.6626">
        <ele>512</ele>
        <time>2016-07-28T13:46:35.000Z</time>
      </trkpt>
      <trkpt lat="47.55193" lon="6.66258">
        <ele>513</ele>
        <time>2016-07-28T13:46:36.000Z</time>
      </trkpt>
      <trkpt lat="47.55191" lon="6.66256">
        <ele>513</ele>
        <time>2016-07-28T13:46:37.000Z</time>
      </trkpt>
      <trkpt lat="47.55188" lon="6.66253">
        <ele>513</ele>
        <time>2016-07-28T13:46:38.000Z</time>
      </trkpt>
      <trkpt lat="47.55185" lon="6.6625">
        <ele>513</ele>
        <time>2016-07-28T13:46:39.000Z</time>
      </trkpt>
      <trkpt lat="47.55183" lon="6.66248">
        <ele>510</ele>
        <time>2016-07-28T13:46:40.000Z</time>
      </trkpt>
      <trkpt lat="47.5518" lon="6.66245">
        <ele>510</ele>
        <time>2016-07-28T13:46:41.000Z</time>
      </trkpt>
      <trkpt lat="47.55178" lon="6.66242">
        <ele>510</ele>
        <time>2016-07-28T13:46:42.000Z</time>
      </trkpt>
      <trkpt lat="47.55175" lon="6.66239">
        <ele>510</ele>
        <time>2016-07-28T13:46:43.000Z</time>
      </trkpt>
      <trkpt lat="47.55172" lon="6.66235">
        <ele>510</ele>
        <time>2016-07-28T13:46:44.000Z</time>
      </trkpt>
      <trkpt lat="47.5517" lon="6.66232">
        <ele>509</ele>
        <time>2016-07-28T13:46:45.000Z</time>
      </trkpt>
      <trkpt lat="47.55167" lon="6.6623">
        <ele>509</ele>
        <time>2016-07-28T13:46:46.000Z</time>
      </trkpt>
      <trkpt lat="47.55164" lon="6.66228">
        <ele>513</ele>
        <time>2016-07-28T13:46:47.000Z</time>
      </trkpt>
      <trkpt lat="47.55161" lon="6.66226">
        <ele>513</ele>
        <time>2016-07-28T13:46:48.000Z</time>
      </trkpt>
      <trkpt lat="47.55158" lon="6.66223">
        <ele>513</ele>
        <time>2016-07-28T13:46:49.000Z</time>
      </trkpt>
      <trkpt lat="47.55155" lon="6.6622">
        <ele>512</ele>
        <time>2016-07-28T13:46:50.000Z</time>
      </trkpt>
      <trkpt lat="47.55152" lon="6.66217">
        <ele>512</ele>
        <time>2016-07-28T13:46:51.000Z</time>
      </trkpt>
      <trkpt lat="47.55149" lon="6.66217">
        <ele>512</ele>
        <time>2016-07-28T13:46:52.000Z</time>
      </trkpt>
      <trkpt lat="47.55146" lon="6.66217">
        <ele>512</ele>
        <time>2016-07-28T13:46:53.000Z</time>
      </trkpt>
      <trkpt lat="47.55143" lon="6.66218">
        <ele>512</ele>
        <time>2016-07-28T13:46:54.000Z</time>
      </trkpt>
      <trkpt lat="47.5514" lon="6.66219">
        <ele>512</ele>
        <time>2016-07-28T13:46:55.000Z</time>
      </trkpt>
      <trkpt lat="47.55137" lon="6.66218">
        <ele>512</ele>
        <time>2016-07-28T13:46:56.000Z</time>
      </trkpt>
      <trkpt lat="47.55134" lon="6.66217">
        <ele>512</ele>
        <time>2016-07-28T13:46:57.000Z</time>
      </trkpt>
      <trkpt lat="47.5513" lon="6.66216">
        <ele>512</ele>
        <time>2016-07-28T13:46:58.000Z</time>
      </trkpt>
      <trkpt lat="47.55125" lon="6.66214">
        <ele>512</ele>
        <time>2016-07-28T13:46:59.000Z</time>
      </trkpt>
      <trkpt lat="47.55121" lon="6.66212">
        <ele>512</ele>
        <time>2016-07-28T13:47:00.000Z</time>
      </trkpt>
      <trkpt lat="47.55116" lon="6.66209">
        <ele>513</ele>
        <time>2016-07-28T13:47:01.000Z</time>
      </trkpt>
      <trkpt lat="47.55111" lon="6.66207">
        <ele>513</ele>
        <time>2016-07-28T13:47:02.000Z</time>
      </trkpt>
      <trkpt lat="47.55106" lon="6.66204">
        <ele>513</ele>
        <time>2016-07-28T13:47:03.000Z</time>
      </trkpt>
      <trkpt lat="47.55101" lon="6.66202">
        <ele>513</ele>
        <time>2016-07-28T13:47:04.000Z</time>
      </trkpt>
      <trkpt lat="47.55096" lon="6.66199">
        <ele>513</ele>
        <time>2016-07-28T13:47:05.000Z</time>
      </trkpt>
      <trkpt lat="47.55091" lon="6.66196">
        <ele>513</ele>
        <time>2016-07-28T13:47:06.000Z</time>
      </trkpt>
      <trkpt lat="47.55086" lon="6.66193">
        <ele>513</ele>
        <time>2016-07-28T13:47:07.000Z</time>
      </trkpt>
      <trkpt lat="47.55082" lon="6.66191">
        <ele>515</ele>
        <time>2016-07-28T13:47:08.000Z</time>
      </trkpt>
      <trkpt lat="47.55078" lon="6.6619">
        <ele>515</ele>
        <time>2016-07-28T13:47:09.000Z</time>
      </trkpt>
      <trkpt lat="47.55074" lon="6.66188">
        <ele>515</ele>
        <time>2016-07-28T13:47:10.000Z</time>
      </trkpt>
      <trkpt lat="47.5507" lon="6.66186">
        <ele>515</ele>
        <time>2016-07-28T13:47:11.000Z</time>
      </trkpt>
      <trkpt lat="47.55067" lon="6.66185">
        <ele>515</ele>
        <time>2016-07-28T13:47:12.000Z</time>
      </trkpt>
      <trkpt lat="47.55063" lon="6.66182">
        <ele>515</ele>
        <time>2016-07-28T13:47:13.000Z</time>
      </trkpt>
      <trkpt lat="47.55058" lon="6.6618">
        <ele>515</ele>
        <time>2016-07-28T13:47:14.000Z</time>
      </trkpt>
      <trkpt lat="47.55053" lon="6.66178">
        <ele>515</ele>
        <time>2016-07-28T13:47:15.000Z</time>
      </trkpt>
      <trkpt lat="47.55049" lon="6.66176">
        <ele>515</ele>
        <time>2016-07-28T13:47:16.000Z</time>
      </trkpt>
      <trkpt lat="47.55045" lon="6.66175">
        <ele>515</ele>
        <time>2016-07-28T13:47:17.000Z</time>
      </trkpt>
      <trkpt lat="47.55041" lon="6.66174">
        <ele>515</ele>
        <time>2016-07-28T13:47:18.000Z</time>
      </trkpt>
      <trkpt lat="47.55037" lon="6.66174">
        <ele>515</ele>
        <time>2016-07-28T13:47:19.000Z</time>
      </trkpt>
      <trkpt lat="47.55032" lon="6.66174">
        <ele>515</ele>
        <time>2016-07-28T13:47:20.000Z</time>
      </trkpt>
      <trkpt lat="47.55028" lon="6.66173">
        <ele>515</ele>
        <time>2016-07-28T13:47:21.000Z</time>
      </trkpt>
      <trkpt lat="47.55023" lon="6.66171">
        <ele>515</ele>
        <time>2016-07-28T13:47:22.000Z</time>
      </trkpt>
      <trkpt lat="47.55018" lon="6.66168">
        <ele>515</ele>
        <time>2016-07-28T13:47:23.000Z</time>
      </trkpt>
      <trkpt lat="47.55013" lon="6.66164">
        <ele>513</ele>
        <time>2016-07-28T13:47:24.000Z</time>
      </trkpt>
      <trkpt lat="47.55009" lon="6.6616">
        <ele>513</ele>
        <time>2016-07-28T13:47:25.000Z</time>
      </trkpt>
      <trkpt lat="47.55004" lon="6.66155">
        <ele>513</ele>
        <time>2016-07-28T13:47:26.000Z</time>
      </trkpt>
      <trkpt lat="47.54999" lon="6.66151">
        <ele>514</ele>
        <time>2016-07-28T13:47:27.000Z</time>
      </trkpt>
      <trkpt lat="47.54994" lon="6.66147">
        <ele>514</ele>
        <time>2016-07-28T13:47:28.000Z</time>
      </trkpt>
      <trkpt lat="47.54988" lon="6.66143">
        <ele>514</ele>
        <time>2016-07-28T13:47:29.000Z</time>
      </trkpt>
      <trkpt lat="47.54983" lon="6.6614">
        <ele>513</ele>
        <time>2016-07-28T13:47:30.000Z</time>
      </trkpt>
      <trkpt lat="47.54977" lon="6.66136">
        <ele>513</ele>
        <time>2016-07-28T13:47:31.000Z</time>
      </trkpt>
      <trkpt lat="47.54972" lon="6.6613">
        <ele>513</ele>
        <time>2016-07-28T13:47:32.000Z</time>
      </trkpt>
      <trkpt lat="47.54967" lon="6.66124">
        <ele>513</ele>
        <time>2016-07-28T13:47:33.000Z</time>
      </trkpt>
      <trkpt lat="47.54963" lon="6.66117">
        <ele>513</ele>
        <time>2016-07-28T13:47:34.000Z</time>
      </trkpt>
      <trkpt lat="47.54958" lon="6.6611">
        <ele>513</ele>
        <time>2016-07-28T13:47:35.000Z</time>
      </trkpt>
      <trkpt lat="47.54954" lon="6.66104">
        <ele>513</ele>
        <time>2016-07-28T13:47:36.000Z</time>
      </trkpt>
      <trkpt lat="47.54951" lon="6.66099">
        <ele>513</ele>
        <time>2016-07-28T13:47:37.000Z</time>
      </trkpt>
      <trkpt lat="47.54947" lon="6.66094">
        <ele>513</ele>
        <time>2016-07-28T13:47:38.000Z</time>
      </trkpt>
      <trkpt lat="47.54943" lon="6.66089">
        <ele>513</ele>
        <time>2016-07-28T13:47:39.000Z</time>
      </trkpt>
      <trkpt lat="47.5494" lon="6.66084">
        <ele>513</ele>
        <time>2016-07-28T13:47:40.000Z</time>
      </trkpt>
      <trkpt lat="47.54936" lon="6.6608">
        <ele>510</ele>
        <time>2016-07-28T13:47:41.000Z</time>
      </trkpt>
      <trkpt lat="47.54931" lon="6.66075">
        <ele>510</ele>
        <time>2016-07-28T13:47:42.000Z</time>
      </trkpt>
      <trkpt lat="47.54926" lon="6.66071">
        <ele>510</ele>
        <time>2016-07-28T13:47:43.000Z</time>
      </trkpt>
      <trkpt lat="47.54922" lon="6.66067">
        <ele>510</ele>
        <time>2016-07-28T13:47:44.000Z</time>
      </trkpt>
      <trkpt lat="47.54917" lon="6.66064">
        <ele>510</ele>
        <time>2016-07-28T13:47:45.000Z</time>
      </trkpt>
      <trkpt lat="47.54912" lon="6.66059">
        <ele>512</ele>
        <time>2016-07-28T13:47:46.000Z</time>
      </trkpt>
      <trkpt lat="47.54898" lon="6.66047">
        <ele>512</ele>
        <time>2016-07-28T13:47:47.000Z</time>
      </trkpt>
      <trkpt lat="47.54892" lon="6.66043">
        <ele>512</ele>
        <time>2016-07-28T13:47:48.000Z</time>
      </trkpt>
      <trkpt lat="47.54887" lon="6.66038">
        <ele>512</ele>
        <time>2016-07-28T13:47:49.000Z</time>
      </trkpt>
      <trkpt lat="47.54882" lon="6.66034">
        <ele>512</ele>
        <time>2016-07-28T13:47:50.000Z</time>
      </trkpt>
      <trkpt lat="47.54878" lon="6.66031">
        <ele>512</ele>
        <time>2016-07-28T13:47:51.000Z</time>
      </trkpt>
      <trkpt lat="47.54873" lon="6.66029">
        <ele>512</ele>
        <time>2016-07-28T13:47:52.000Z</time>
      </trkpt>
      <trkpt lat="47.54867" lon="6.66027">
        <ele>512</ele>
        <time>2016-07-28T13:47:53.000Z</time>
      </trkpt>
      <trkpt lat="47.54862" lon="6.66026">
        <ele>512</ele>
        <time>2016-07-28T13:47:54.000Z</time>
      </trkpt>
      <trkpt lat="47.54857" lon="6.66026">
        <ele>512</ele>
        <time>2016-07-28T13:47:55.000Z</time>
      </trkpt>
      <trkpt lat="47.54853" lon="6.66022">
        <ele>512</ele>
        <time>2016-07-28T13:47:56.000Z</time>
      </trkpt>
      <trkpt lat="47.54849" lon="6.66019">
        <ele>513</ele>
        <time>2016-07-28T13:47:57.000Z</time>
      </trkpt>
      <trkpt lat="47.54846" lon="6.66017">
        <ele>513</ele>
        <time>2016-07-28T13:47:58.000Z</time>
      </trkpt>
      <trkpt lat="47.54841" lon="6.66013">
        <ele>513</ele>
        <time>2016-07-28T13:47:59.000Z</time>
      </trkpt>
      <trkpt lat="47.54836" lon="6.66011">
        <ele>513</ele>
        <time>2016-07-28T13:48:00.000Z</time>
      </trkpt>
      <trkpt lat="47.54831" lon="6.66008">
        <ele>513</ele>
        <time>2016-07-28T13:48:01.000Z</time>
      </trkpt>
      <trkpt lat="47.54824" lon="6.66003">
        <ele>514</ele>
        <time>2016-07-28T13:48:02.000Z</time>
      </trkpt>
      <trkpt lat="47.5482" lon="6.65998">
        <ele>512</ele>
        <time>2016-07-28T13:48:03.000Z</time>
      </trkpt>
      <trkpt lat="47.54816" lon="6.65996">
        <ele>512</ele>
        <time>2016-07-28T13:48:04.000Z</time>
      </trkpt>
      <trkpt lat="47.54811" lon="6.65994">
        <ele>511</ele>
        <time>2016-07-28T13:48:05.000Z</time>
      </trkpt>
      <trkpt lat="47.54806" lon="6.65992">
        <ele>511</ele>
        <time>2016-07-28T13:48:06.000Z</time>
      </trkpt>
      <trkpt lat="47.54801" lon="6.65989">
        <ele>511</ele>
        <time>2016-07-28T13:48:07.000Z</time>
      </trkpt>
      <trkpt lat="47.54796" lon="6.65987">
        <ele>511</ele>
        <time>2016-07-28T13:48:08.000Z</time>
      </trkpt>
      <trkpt lat="47.5479" lon="6.65984">
        <ele>511</ele>
        <time>2016-07-28T13:48:09.000Z</time>
      </trkpt>
      <trkpt lat="47.54784" lon="6.65981">
        <ele>511</ele>
        <time>2016-07-28T13:48:10.000Z</time>
      </trkpt>
      <trkpt lat="47.54777" lon="6.65977">
        <ele>511</ele>
        <time>2016-07-28T13:48:11.000Z</time>
      </trkpt>
      <trkpt lat="47.54771" lon="6.65973">
        <ele>511</ele>
        <time>2016-07-28T13:48:12.000Z</time>
      </trkpt>
      <trkpt lat="47.54766" lon="6.65968">
        <ele>511</ele>
        <time>2016-07-28T13:48:13.000Z</time>
      </trkpt>
      <trkpt lat="47.54761" lon="6.65964">
        <ele>511</ele>
        <time>2016-07-28T13:48:14.000Z</time>
      </trkpt>
      <trkpt lat="47.54756" lon="6.6596">
        <ele>511</ele>
        <time>2016-07-28T13:48:15.000Z</time>
      </trkpt>
      <trkpt lat="47.54751" lon="6.65958">
        <ele>511</ele>
        <time>2016-07-28T13:48:16.000Z</time>
      </trkpt>
      <trkpt lat="47.54746" lon="6.65959">
        <ele>512</ele>
        <time>2016-07-28T13:48:17.000Z</time>
      </trkpt>
      <trkpt lat="47.54742" lon="6.65963">
        <ele>512</ele>
        <time>2016-07-28T13:48:18.000Z</time>
      </trkpt>
      <trkpt lat="47.54737" lon="6.65963">
        <ele>513</ele>
        <time>2016-07-28T13:48:19.000Z</time>
      </trkpt>
      <trkpt lat="47.54733" lon="6.6596">
        <ele>513</ele>
        <time>2016-07-28T13:48:20.000Z</time>
      </trkpt>
      <trkpt lat="47.54729" lon="6.65957">
        <ele>512</ele>
        <time>2016-07-28T13:48:21.000Z</time>
      </trkpt>
      <trkpt lat="47.54724" lon="6.65952">
        <ele>512</ele>
        <time>2016-07-28T13:48:22.000Z</time>
      </trkpt>
      <trkpt lat="47.54717" lon="6.65948">
        <ele>513</ele>
        <time>2016-07-28T13:48:23.000Z</time>
      </trkpt>
      <trkpt lat="47.54712" lon="6.65945">
        <ele>513</ele>
        <time>2016-07-28T13:48:24.000Z</time>
      </trkpt>
      <trkpt lat="47.54708" lon="6.6594">
        <ele>513</ele>
        <time>2016-07-28T13:48:25.000Z</time>
      </trkpt>
      <trkpt lat="47.54703" lon="6.65937">
        <ele>513</ele>
        <time>2016-07-28T13:48:26.000Z</time>
      </trkpt>
      <trkpt lat="47.54696" lon="6.65936">
        <ele>513</ele>
        <time>2016-07-28T13:48:27.000Z</time>
      </trkpt>
      <trkpt lat="47.54692" lon="6.65933">
        <ele>513</ele>
        <time>2016-07-28T13:48:28.000Z</time>
      </trkpt>
      <trkpt lat="47.54687" lon="6.65931">
        <ele>513</ele>
        <time>2016-07-28T13:48:29.000Z</time>
      </trkpt>
      <trkpt lat="47.54683" lon="6.65928">
        <ele>513</ele>
        <time>2016-07-28T13:48:30.000Z</time>
      </trkpt>
      <trkpt lat="47.5468" lon="6.65927">
        <ele>513</ele>
        <time>2016-07-28T13:48:31.000Z</time>
      </trkpt>
      <trkpt lat="47.54674" lon="6.65925">
        <ele>514</ele>
        <time>2016-07-28T13:48:32.000Z</time>
      </trkpt>
      <trkpt lat="47.5467" lon="6.65923">
        <ele>514</ele>
        <time>2016-07-28T13:48:33.000Z</time>
      </trkpt>
      <trkpt lat="47.54666" lon="6.6592">
        <ele>514</ele>
        <time>2016-07-28T13:48:34.000Z</time>
      </trkpt>
      <trkpt lat="47.54661" lon="6.65918">
        <ele>514</ele>
        <time>2016-07-28T13:48:35.000Z</time>
      </trkpt>
      <trkpt lat="47.54658" lon="6.65916">
        <ele>513</ele>
        <time>2016-07-28T13:48:36.000Z</time>
      </trkpt>
      <trkpt lat="47.54653" lon="6.65913">
        <ele>513</ele>
        <time>2016-07-28T13:48:37.000Z</time>
      </trkpt>
      <trkpt lat="47.5465" lon="6.65913">
        <ele>513</ele>
        <time>2016-07-28T13:48:38.000Z</time>
      </trkpt>
      <trkpt lat="47.54645" lon="6.65911">
        <ele>512</ele>
        <time>2016-07-28T13:48:39.000Z</time>
      </trkpt>
      <trkpt lat="47.54641" lon="6.65909">
        <ele>512</ele>
        <time>2016-07-28T13:48:40.000Z</time>
      </trkpt>
      <trkpt lat="47.54634" lon="6.65907">
        <ele>512</ele>
        <time>2016-07-28T13:48:41.000Z</time>
      </trkpt>
      <trkpt lat="47.54629" lon="6.65904">
        <ele>512</ele>
        <time>2016-07-28T13:48:42.000Z</time>
      </trkpt>
      <trkpt lat="47.54623" lon="6.65902">
        <ele>512</ele>
        <time>2016-07-28T13:48:43.000Z</time>
      </trkpt>
      <trkpt lat="47.54617" lon="6.65898">
        <ele>512</ele>
        <time>2016-07-28T13:48:44.000Z</time>
      </trkpt>
      <trkpt lat="47.5461" lon="6.65894">
        <ele>512</ele>
        <time>2016-07-28T13:48:45.000Z</time>
      </trkpt>
      <trkpt lat="47.54605" lon="6.65892">
        <ele>512</ele>
        <time>2016-07-28T13:48:46.000Z</time>
      </trkpt>
      <trkpt lat="47.54598" lon="6.65891">
        <ele>512</ele>
        <time>2016-07-28T13:48:47.000Z</time>
      </trkpt>
      <trkpt lat="47.54593" lon="6.65889">
        <ele>512</ele>
        <time>2016-07-28T13:48:48.000Z</time>
      </trkpt>
      <trkpt lat="47.54587" lon="6.65879">
        <ele>511</ele>
        <time>2016-07-28T13:48:49.000Z</time>
      </trkpt>
      <trkpt lat="47.54581" lon="6.65873">
        <ele>512</ele>
        <time>2016-07-28T13:48:50.000Z</time>
      </trkpt>
      <trkpt lat="47.54577" lon="6.65869">
        <ele>512</ele>
        <time>2016-07-28T13:48:51.000Z</time>
      </trkpt>
      <trkpt lat="47.54572" lon="6.65864">
        <ele>512</ele>
        <time>2016-07-28T13:48:52.000Z</time>
      </trkpt>
      <trkpt lat="47.54567" lon="6.65859">
        <ele>512</ele>
        <time>2016-07-28T13:48:53.000Z</time>
      </trkpt>
      <trkpt lat="47.54562" lon="6.65854">
        <ele>512</ele>
        <time>2016-07-28T13:48:54.000Z</time>
      </trkpt>
      <trkpt lat="47.54557" lon="6.65848">
        <ele>512</ele>
        <time>2016-07-28T13:48:55.000Z</time>
      </trkpt>
      <trkpt lat="47.54552" lon="6.65843">
        <ele>512</ele>
        <time>2016-07-28T13:48:56.000Z</time>
      </trkpt>
      <trkpt lat="47.54548" lon="6.65839">
        <ele>512</ele>
        <time>2016-07-28T13:48:57.000Z</time>
      </trkpt>
      <trkpt lat="47.54542" lon="6.65835">
        <ele>513</ele>
        <time>2016-07-28T13:48:58.000Z</time>
      </trkpt>
      <trkpt lat="47.54537" lon="6.65831">
        <ele>511</ele>
        <time>2016-07-28T13:48:59.000Z</time>
      </trkpt>
      <trkpt lat="47.54531" lon="6.65826">
        <ele>511</ele>
        <time>2016-07-28T13:49:00.000Z</time>
      </trkpt>
      <trkpt lat="47.54527" lon="6.65821">
        <ele>511</ele>
        <time>2016-07-28T13:49:01.000Z</time>
      </trkpt>
      <trkpt lat="47.54522" lon="6.65816">
        <ele>511</ele>
        <time>2016-07-28T13:49:02.000Z</time>
      </trkpt>
      <trkpt lat="47.54517" lon="6.65812">
        <ele>511</ele>
        <time>2016-07-28T13:49:03.000Z</time>
      </trkpt>
      <trkpt lat="47.54513" lon="6.65808">
        <ele>511</ele>
        <time>2016-07-28T13:49:04.000Z</time>
      </trkpt>
      <trkpt lat="47.5451" lon="6.65803">
        <ele>511</ele>
        <time>2016-07-28T13:49:05.000Z</time>
      </trkpt>
      <trkpt lat="47.54505" lon="6.65797">
        <ele>511</ele>
        <time>2016-07-28T13:49:06.000Z</time>
      </trkpt>
      <trkpt lat="47.54501" lon="6.65792">
        <ele>511</ele>
        <time>2016-07-28T13:49:07.000Z</time>
      </trkpt>
      <trkpt lat="47.54496" lon="6.65788">
        <ele>513</ele>
        <time>2016-07-28T13:49:08.000Z</time>
      </trkpt>
      <trkpt lat="47.54492" lon="6.65783">
        <ele>513</ele>
        <time>2016-07-28T13:49:09.000Z</time>
      </trkpt>
      <trkpt lat="47.54488" lon="6.65779">
        <ele>513</ele>
        <time>2016-07-28T13:49:10.000Z</time>
      </trkpt>
      <trkpt lat="47.54483" lon="6.65774">
        <ele>513</ele>
        <time>2016-07-28T13:49:11.000Z</time>
      </trkpt>
      <trkpt lat="47.54478" lon="6.6577">
        <ele>513</ele>
        <time>2016-07-28T13:49:12.000Z</time>
      </trkpt>
      <trkpt lat="47.54473" lon="6.65765">
        <ele>513</ele>
        <time>2016-07-28T13:49:13.000Z</time>
      </trkpt>
      <trkpt lat="47.5447" lon="6.65764">
        <ele>513</ele>
        <time>2016-07-28T13:49:14.000Z</time>
      </trkpt>
      <trkpt lat="47.54467" lon="6.65759">
        <ele>513</ele>
        <time>2016-07-28T13:49:15.000Z</time>
      </trkpt>
      <trkpt lat="47.54462" lon="6.65754">
        <ele>513</ele>
        <time>2016-07-28T13:49:16.000Z</time>
      </trkpt>
      <trkpt lat="47.54458" lon="6.65749">
        <ele>511</ele>
        <time>2016-07-28T13:49:17.000Z</time>
      </trkpt>
      <trkpt lat="47.54455" lon="6.65743">
        <ele>511</ele>
        <time>2016-07-28T13:49:18.000Z</time>
      </trkpt>
      <trkpt lat="47.54452" lon="6.65738">
        <ele>511</ele>
        <time>2016-07-28T13:49:19.000Z</time>
      </trkpt>
      <trkpt lat="47.5445" lon="6.65732">
        <ele>511</ele>
        <time>2016-07-28T13:49:20.000Z</time>
      </trkpt>
      <trkpt lat="47.54445" lon="6.65728">
        <ele>511</ele>
        <time>2016-07-28T13:49:21.000Z</time>
      </trkpt>
      <trkpt lat="47.54436" lon="6.65724">
        <ele>511</ele>
        <time>2016-07-28T13:49:22.000Z</time>
      </trkpt>
      <trkpt lat="47.54433" lon="6.65718">
        <ele>511</ele>
        <time>2016-07-28T13:49:23.000Z</time>
      </trkpt>
      <trkpt lat="47.54427" lon="6.65713">
        <ele>511</ele>
        <time>2016-07-28T13:49:24.000Z</time>
      </trkpt>
      <trkpt lat="47.54422" lon="6.65706">
        <ele>511</ele>
        <time>2016-07-28T13:49:25.000Z</time>
      </trkpt>
      <trkpt lat="47.54418" lon="6.65701">
        <ele>511</ele>
        <time>2016-07-28T13:49:26.000Z</time>
      </trkpt>
      <trkpt lat="47.54414" lon="6.65696">
        <ele>512</ele>
        <time>2016-07-28T13:49:27.000Z</time>
      </trkpt>
      <trkpt lat="47.54409" lon="6.6569">
        <ele>512</ele>
        <time>2016-07-28T13:49:28.000Z</time>
      </trkpt>
      <trkpt lat="47.54404" lon="6.65687">
        <ele>512</ele>
        <time>2016-07-28T13:49:29.000Z</time>
      </trkpt>
      <trkpt lat="47.54399" lon="6.65681">
        <ele>512</ele>
        <time>2016-07-28T13:49:30.000Z</time>
      </trkpt>
      <trkpt lat="47.54393" lon="6.65674">
        <ele>512</ele>
        <time>2016-07-28T13:49:31.000Z</time>
      </trkpt>
      <trkpt lat="47.54388" lon="6.65669">
        <ele>512</ele>
        <time>2016-07-28T13:49:32.000Z</time>
      </trkpt>
      <trkpt lat="47.54381" lon="6.65663">
        <ele>510</ele>
        <time>2016-07-28T13:49:33.000Z</time>
      </trkpt>
      <trkpt lat="47.54376" lon="6.65658">
        <ele>510</ele>
        <time>2016-07-28T13:49:34.000Z</time>
      </trkpt>
      <trkpt lat="47.5437" lon="6.65653">
        <ele>510</ele>
        <time>2016-07-28T13:49:35.000Z</time>
      </trkpt>
      <trkpt lat="47.54363" lon="6.65647">
        <ele>510</ele>
        <time>2016-07-28T13:49:36.000Z</time>
      </trkpt>
      <trkpt lat="47.54358" lon="6.65641">
        <ele>510</ele>
        <time>2016-07-28T13:49:37.000Z</time>
      </trkpt>
      <trkpt lat="47.54352" lon="6.65633">
        <ele>510</ele>
        <time>2016-07-28T13:49:38.000Z</time>
      </trkpt>
      <trkpt lat="47.54347" lon="6.65629">
        <ele>510</ele>
        <time>2016-07-28T13:49:39.000Z</time>
      </trkpt>
      <trkpt lat="47.54341" lon="6.65624">
        <ele>509</ele>
        <time>2016-07-28T13:49:40.000Z</time>
      </trkpt>
      <trkpt lat="47.54335" lon="6.65617">
        <ele>509</ele>
        <time>2016-07-28T13:49:41.000Z</time>
      </trkpt>
      <trkpt lat="47.5433" lon="6.65609">
        <ele>510</ele>
        <time>2016-07-28T13:49:42.000Z</time>
      </trkpt>
      <trkpt lat="47.54324" lon="6.65603">
        <ele>509</ele>
        <time>2016-07-28T13:49:43.000Z</time>
      </trkpt>
      <trkpt lat="47.54319" lon="6.65598">
        <ele>509</ele>
        <time>2016-07-28T13:49:44.000Z</time>
      </trkpt>
      <trkpt lat="47.54314" lon="6.65592">
        <ele>509</ele>
        <time>2016-07-28T13:49:45.000Z</time>
      </trkpt>
      <trkpt lat="47.54309" lon="6.65585">
        <ele>509</ele>
        <time>2016-07-28T13:49:46.000Z</time>
      </trkpt>
      <trkpt lat="47.54302" lon="6.65579">
        <ele>506</ele>
        <time>2016-07-28T13:49:47.000Z</time>
      </trkpt>
      <trkpt lat="47.54296" lon="6.65573">
        <ele>506</ele>
        <time>2016-07-28T13:49:48.000Z</time>
      </trkpt>
      <trkpt lat="47.5429" lon="6.65566">
        <ele>506</ele>
        <time>2016-07-28T13:49:49.000Z</time>
      </trkpt>
      <trkpt lat="47.54284" lon="6.65561">
        <ele>506</ele>
        <time>2016-07-28T13:49:50.000Z</time>
      </trkpt>
      <trkpt lat="47.5428" lon="6.65551">
        <ele>506</ele>
        <time>2016-07-28T13:49:51.000Z</time>
      </trkpt>
      <trkpt lat="47.54275" lon="6.65547">
        <ele>506</ele>
        <time>2016-07-28T13:49:52.000Z</time>
      </trkpt>
      <trkpt lat="47.5427" lon="6.65541">
        <ele>506</ele>
        <time>2016-07-28T13:49:53.000Z</time>
      </trkpt>
      <trkpt lat="47.54266" lon="6.65534">
        <ele>505</ele>
        <time>2016-07-28T13:49:54.000Z</time>
      </trkpt>
      <trkpt lat="47.54261" lon="6.65531">
        <ele>505</ele>
        <time>2016-07-28T13:49:55.000Z</time>
      </trkpt>
      <trkpt lat="47.54256" lon="6.65526">
        <ele>505</ele>
        <time>2016-07-28T13:49:56.000Z</time>
      </trkpt>
      <trkpt lat="47.54252" lon="6.65521">
        <ele>505</ele>
        <time>2016-07-28T13:49:57.000Z</time>
      </trkpt>
      <trkpt lat="47.54248" lon="6.65518">
        <ele>506</ele>
        <time>2016-07-28T13:49:58.000Z</time>
      </trkpt>
      <trkpt lat="47.54243" lon="6.65513">
        <ele>505</ele>
        <time>2016-07-28T13:49:59.000Z</time>
      </trkpt>
      <trkpt lat="47.54239" lon="6.65511">
        <ele>505</ele>
        <time>2016-07-28T13:50:00.000Z</time>
      </trkpt>
      <trkpt lat="47.54235" lon="6.65507">
        <ele>505</ele>
        <time>2016-07-28T13:50:01.000Z</time>
      </trkpt>
      <trkpt lat="47.54231" lon="6.65503">
        <ele>505</ele>
        <time>2016-07-28T13:50:02.000Z</time>
      </trkpt>
      <trkpt lat="47.54227" lon="6.65498">
        <ele>502</ele>
        <time>2016-07-28T13:50:03.000Z</time>
      </trkpt>
      <trkpt lat="47.54223" lon="6.65495">
        <ele>502</ele>
        <time>2016-07-28T13:50:04.000Z</time>
      </trkpt>
      <trkpt lat="47.54219" lon="6.65492">
        <ele>502</ele>
        <time>2016-07-28T13:50:05.000Z</time>
      </trkpt>
      <trkpt lat="47.54214" lon="6.65487">
        <ele>502</ele>
        <time>2016-07-28T13:50:06.000Z</time>
      </trkpt>
      <trkpt lat="47.54208" lon="6.65482">
        <ele>502</ele>
        <time>2016-07-28T13:50:07.000Z</time>
      </trkpt>
      <trkpt lat="47.54202" lon="6.65475">
        <ele>502</ele>
        <time>2016-07-28T13:50:08.000Z</time>
      </trkpt>
      <trkpt lat="47.54198" lon="6.65471">
        <ele>502</ele>
        <time>2016-07-28T13:50:09.000Z</time>
      </trkpt>
      <trkpt lat="47.54194" lon="6.65466">
        <ele>501</ele>
        <time>2016-07-28T13:50:10.000Z</time>
      </trkpt>
      <trkpt lat="47.54191" lon="6.65462">
        <ele>501</ele>
        <time>2016-07-28T13:50:11.000Z</time>
      </trkpt>
      <trkpt lat="47.54186" lon="6.65457">
        <ele>501</ele>
        <time>2016-07-28T13:50:12.000Z</time>
      </trkpt>
      <trkpt lat="47.54179" lon="6.6545">
        <ele>501</ele>
        <time>2016-07-28T13:50:13.000Z</time>
      </trkpt>
      <trkpt lat="47.54174" lon="6.65443">
        <ele>501</ele>
        <time>2016-07-28T13:50:14.000Z</time>
      </trkpt>
      <trkpt lat="47.54168" lon="6.65436">
        <ele>501</ele>
        <time>2016-07-28T13:50:15.000Z</time>
      </trkpt>
      <trkpt lat="47.54163" lon="6.6543">
        <ele>501</ele>
        <time>2016-07-28T13:50:16.000Z</time>
      </trkpt>
      <trkpt lat="47.54158" lon="6.65425">
        <ele>501</ele>
        <time>2016-07-28T13:50:17.000Z</time>
      </trkpt>
      <trkpt lat="47.54153" lon="6.65419">
        <ele>501</ele>
        <time>2016-07-28T13:50:18.000Z</time>
      </trkpt>
      <trkpt lat="47.54148" lon="6.65414">
        <ele>499</ele>
        <time>2016-07-28T13:50:19.000Z</time>
      </trkpt>
      <trkpt lat="47.54144" lon="6.65407">
        <ele>499</ele>
        <time>2016-07-28T13:50:20.000Z</time>
      </trkpt>
      <trkpt lat="47.5414" lon="6.654">
        <ele>498</ele>
        <time>2016-07-28T13:50:21.000Z</time>
      </trkpt>
      <trkpt lat="47.54136" lon="6.65395">
        <ele>498</ele>
        <time>2016-07-28T13:50:22.000Z</time>
      </trkpt>
      <trkpt lat="47.54131" lon="6.65389">
        <ele>498</ele>
        <time>2016-07-28T13:50:23.000Z</time>
      </trkpt>
      <trkpt lat="47.54126" lon="6.65382">
        <ele>498</ele>
        <time>2016-07-28T13:50:24.000Z</time>
      </trkpt>
      <trkpt lat="47.54122" lon="6.65375">
        <ele>498</ele>
        <time>2016-07-28T13:50:25.000Z</time>
      </trkpt>
      <trkpt lat="47.54117" lon="6.65367">
        <ele>497</ele>
        <time>2016-07-28T13:50:26.000Z</time>
      </trkpt>
      <trkpt lat="47.54112" lon="6.65362">
        <ele>497</ele>
        <time>2016-07-28T13:50:27.000Z</time>
      </trkpt>
      <trkpt lat="47.54108" lon="6.65356">
        <ele>497</ele>
        <time>2016-07-28T13:50:28.000Z</time>
      </trkpt>
      <trkpt lat="47.54102" lon="6.65348">
        <ele>496</ele>
        <time>2016-07-28T13:50:29.000Z</time>
      </trkpt>
      <trkpt lat="47.54097" lon="6.6534">
        <ele>496</ele>
        <time>2016-07-28T13:50:30.000Z</time>
      </trkpt>
      <trkpt lat="47.54092" lon="6.65334">
        <ele>496</ele>
        <time>2016-07-28T13:50:31.000Z</time>
      </trkpt>
      <trkpt lat="47.54089" lon="6.65326">
        <ele>493</ele>
        <time>2016-07-28T13:50:32.000Z</time>
      </trkpt>
      <trkpt lat="47.54085" lon="6.65317">
        <ele>493</ele>
        <time>2016-07-28T13:50:33.000Z</time>
      </trkpt>
      <trkpt lat="47.54077" lon="6.65307">
        <ele>494</ele>
        <time>2016-07-28T13:50:34.000Z</time>
      </trkpt>
      <trkpt lat="47.54073" lon="6.65296">
        <ele>493</ele>
        <time>2016-07-28T13:50:35.000Z</time>
      </trkpt>
      <trkpt lat="47.54068" lon="6.65289">
        <ele>493</ele>
        <time>2016-07-28T13:50:36.000Z</time>
      </trkpt>
      <trkpt lat="47.54063" lon="6.65282">
        <ele>492</ele>
        <time>2016-07-28T13:50:37.000Z</time>
      </trkpt>
      <trkpt lat="47.5406" lon="6.65273">
        <ele>492</ele>
        <time>2016-07-28T13:50:38.000Z</time>
      </trkpt>
      <trkpt lat="47.54056" lon="6.65266">
        <ele>492</ele>
        <time>2016-07-28T13:50:39.000Z</time>
      </trkpt>
      <trkpt lat="47.54053" lon="6.6526">
        <ele>492</ele>
        <time>2016-07-28T13:50:40.000Z</time>
      </trkpt>
      <trkpt lat="47.54048" lon="6.65253">
        <ele>492</ele>
        <time>2016-07-28T13:50:41.000Z</time>
      </trkpt>
      <trkpt lat="47.54044" lon="6.65246">
        <ele>487</ele>
        <time>2016-07-28T13:50:42.000Z</time>
      </trkpt>
      <trkpt lat="47.5404" lon="6.65238">
        <ele>486</ele>
        <time>2016-07-28T13:50:43.000Z</time>
      </trkpt>
      <trkpt lat="47.54036" lon="6.65233">
        <ele>486</ele>
        <time>2016-07-28T13:50:44.000Z</time>
      </trkpt>
      <trkpt lat="47.54032" lon="6.65226">
        <ele>486</ele>
        <time>2016-07-28T13:50:45.000Z</time>
      </trkpt>
      <trkpt lat="47.54028" lon="6.65218">
        <ele>486</ele>
        <time>2016-07-28T13:50:46.000Z</time>
      </trkpt>
      <trkpt lat="47.54024" lon="6.65211">
        <ele>486</ele>
        <time>2016-07-28T13:50:47.000Z</time>
      </trkpt>
      <trkpt lat="47.54021" lon="6.65204">
        <ele>485</ele>
        <time>2016-07-28T13:50:48.000Z</time>
      </trkpt>
      <trkpt lat="47.54016" lon="6.65197">
        <ele>485</ele>
        <time>2016-07-28T13:50:49.000Z</time>
      </trkpt>
      <trkpt lat="47.54013" lon="6.6519">
        <ele>485</ele>
        <time>2016-07-28T13:50:50.000Z</time>
      </trkpt>
      <trkpt lat="47.54009" lon="6.65184">
        <ele>484</ele>
        <time>2016-07-28T13:50:51.000Z</time>
      </trkpt>
      <trkpt lat="47.54005" lon="6.65178">
        <ele>484</ele>
        <time>2016-07-28T13:50:52.000Z</time>
      </trkpt>
      <trkpt lat="47.54001" lon="6.65172">
        <ele>483</ele>
        <time>2016-07-28T13:50:53.000Z</time>
      </trkpt>
      <trkpt lat="47.53996" lon="6.65166">
        <ele>483</ele>
        <time>2016-07-28T13:50:54.000Z</time>
      </trkpt>
      <trkpt lat="47.53993" lon="6.6516">
        <ele>483</ele>
        <time>2016-07-28T13:50:55.000Z</time>
      </trkpt>
      <trkpt lat="47.53989" lon="6.65153">
        <ele>483</ele>
        <time>2016-07-28T13:50:56.000Z</time>
      </trkpt>
      <trkpt lat="47.53985" lon="6.6515">
        <ele>483</ele>
        <time>2016-07-28T13:50:57.000Z</time>
      </trkpt>
      <trkpt lat="47.53982" lon="6.65145">
        <ele>483</ele>
        <time>2016-07-28T13:50:58.000Z</time>
      </trkpt>
      <trkpt lat="47.53979" lon="6.6514">
        <ele>483</ele>
        <time>2016-07-28T13:50:59.000Z</time>
      </trkpt>
      <trkpt lat="47.53974" lon="6.65135">
        <ele>483</ele>
        <time>2016-07-28T13:51:00.000Z</time>
      </trkpt>
      <trkpt lat="47.53971" lon="6.65131">
        <ele>483</ele>
        <time>2016-07-28T13:51:01.000Z</time>
      </trkpt>
      <trkpt lat="47.53968" lon="6.65126">
        <ele>483</ele>
        <time>2016-07-28T13:51:02.000Z</time>
      </trkpt>
      <trkpt lat="47.53965" lon="6.65123">
        <ele>483</ele>
        <time>2016-07-28T13:51:03.000Z</time>
      </trkpt>
      <trkpt lat="47.53961" lon="6.65118">
        <ele>483</ele>
        <time>2016-07-28T13:51:04.000Z</time>
      </trkpt>
      <trkpt lat="47.53959" lon="6.65113">
        <ele>483</ele>
        <time>2016-07-28T13:51:05.000Z</time>
      </trkpt>
      <trkpt lat="47.53956" lon="6.6511">
        <ele>483</ele>
        <time>2016-07-28T13:51:06.000Z</time>
      </trkpt>
      <trkpt lat="47.53954" lon="6.65106">
        <ele>483</ele>
        <time>2016-07-28T13:51:07.000Z</time>
      </trkpt>
      <trkpt lat="47.53952" lon="6.65103">
        <ele>483</ele>
        <time>2016-07-28T13:51:08.000Z</time>
      </trkpt>
      <trkpt lat="47.5395" lon="6.651">
        <ele>483</ele>
        <time>2016-07-28T13:51:09.000Z</time>
      </trkpt>
      <trkpt lat="47.53946" lon="6.65095">
        <ele>483</ele>
        <time>2016-07-28T13:51:10.000Z</time>
      </trkpt>
      <trkpt lat="47.53943" lon="6.65093">
        <ele>484</ele>
        <time>2016-07-28T13:51:11.000Z</time>
      </trkpt>
      <trkpt lat="47.5394" lon="6.65091">
        <ele>484</ele>
        <time>2016-07-28T13:51:12.000Z</time>
      </trkpt>
      <trkpt lat="47.53936" lon="6.6509">
        <ele>484</ele>
        <time>2016-07-28T13:51:13.000Z</time>
      </trkpt>
      <trkpt lat="47.53934" lon="6.65089">
        <ele>484</ele>
        <time>2016-07-28T13:51:14.000Z</time>
      </trkpt>
      <trkpt lat="47.53932" lon="6.6509">
        <ele>484</ele>
        <time>2016-07-28T13:51:15.000Z</time>
      </trkpt>
      <trkpt lat="47.53929" lon="6.6509">
        <ele>484</ele>
        <time>2016-07-28T13:51:16.000Z</time>
      </trkpt>
      <trkpt lat="47.53925" lon="6.65086">
        <ele>484</ele>
        <time>2016-07-28T13:51:17.000Z</time>
      </trkpt>
      <trkpt lat="47.53923" lon="6.65083">
        <ele>483</ele>
        <time>2016-07-28T13:51:18.000Z</time>
      </trkpt>
      <trkpt lat="47.53922" lon="6.6508">
        <ele>483</ele>
        <time>2016-07-28T13:51:19.000Z</time>
      </trkpt>
      <trkpt lat="47.5392" lon="6.65077">
        <ele>483</ele>
        <time>2016-07-28T13:51:20.000Z</time>
      </trkpt>
      <trkpt lat="47.53918" lon="6.65075">
        <ele>482</ele>
        <time>2016-07-28T13:51:21.000Z</time>
      </trkpt>
      <trkpt lat="47.53915" lon="6.65073">
        <ele>484</ele>
        <time>2016-07-28T13:51:22.000Z</time>
      </trkpt>
      <trkpt lat="47.53912" lon="6.65071">
        <ele>484</ele>
        <time>2016-07-28T13:51:23.000Z</time>
      </trkpt>
      <trkpt lat="47.53909" lon="6.65069">
        <ele>483</ele>
        <time>2016-07-28T13:51:24.000Z</time>
      </trkpt>
      <trkpt lat="47.53905" lon="6.65067">
        <ele>483</ele>
        <time>2016-07-28T13:51:25.000Z</time>
      </trkpt>
      <trkpt lat="47.53902" lon="6.65065">
        <ele>483</ele>
        <time>2016-07-28T13:51:26.000Z</time>
      </trkpt>
      <trkpt lat="47.53897" lon="6.65062">
        <ele>483</ele>
        <time>2016-07-28T13:51:27.000Z</time>
      </trkpt>
      <trkpt lat="47.53893" lon="6.65059">
        <ele>482</ele>
        <time>2016-07-28T13:51:28.000Z</time>
      </trkpt>
      <trkpt lat="47.53888" lon="6.65054">
        <ele>482</ele>
        <time>2016-07-28T13:51:29.000Z</time>
      </trkpt>
      <trkpt lat="47.53884" lon="6.6505">
        <ele>482</ele>
        <time>2016-07-28T13:51:30.000Z</time>
      </trkpt>
      <trkpt lat="47.53879" lon="6.65046">
        <ele>482</ele>
        <time>2016-07-28T13:51:31.000Z</time>
      </trkpt>
      <trkpt lat="47.53876" lon="6.65043">
        <ele>482</ele>
        <time>2016-07-28T13:51:32.000Z</time>
      </trkpt>
      <trkpt lat="47.53873" lon="6.65041">
        <ele>482</ele>
        <time>2016-07-28T13:51:33.000Z</time>
      </trkpt>
      <trkpt lat="47.5387" lon="6.6504">
        <ele>482</ele>
        <time>2016-07-28T13:51:34.000Z</time>
      </trkpt>
      <trkpt lat="47.53867" lon="6.65039">
        <ele>482</ele>
        <time>2016-07-28T13:51:35.000Z</time>
      </trkpt>
      <trkpt lat="47.53863" lon="6.65038">
        <ele>482</ele>
        <time>2016-07-28T13:51:37.000Z</time>
      </trkpt>
      <trkpt lat="47.53861" lon="6.65038">
        <ele>482</ele>
        <time>2016-07-28T13:51:38.000Z</time>
      </trkpt>
      <trkpt lat="47.53858" lon="6.6504">
        <ele>482</ele>
        <time>2016-07-28T13:51:40.000Z</time>
      </trkpt>
      <trkpt lat="47.53857" lon="6.6504">
        <ele>482</ele>
        <time>2016-07-28T13:51:41.000Z</time>
      </trkpt>
      <trkpt lat="47.53854" lon="6.6504">
        <ele>482</ele>
        <time>2016-07-28T13:51:42.000Z</time>
      </trkpt>
      <trkpt lat="47.53852" lon="6.6504">
        <ele>482</ele>
        <time>2016-07-28T13:51:43.000Z</time>
      </trkpt>
      <trkpt lat="47.53849" lon="6.6504">
        <ele>482</ele>
        <time>2016-07-28T13:51:44.000Z</time>
      </trkpt>
      <trkpt lat="47.53846" lon="6.6504">
        <ele>482</ele>
        <time>2016-07-28T13:51:45.000Z</time>
      </trkpt>
      <trkpt lat="47.53843" lon="6.6504">
        <ele>482</ele>
        <time>2016-07-28T13:51:46.000Z</time>
      </trkpt>
      <trkpt lat="47.53841" lon="6.65042">
        <ele>483</ele>
        <time>2016-07-28T13:51:47.000Z</time>
      </trkpt>
      <trkpt lat="47.53838" lon="6.65045">
        <ele>483</ele>
        <time>2016-07-28T13:51:49.000Z</time>
      </trkpt>
      <trkpt lat="47.53836" lon="6.65045">
        <ele>483</ele>
        <time>2016-07-28T13:51:50.000Z</time>
      </trkpt>
      <trkpt lat="47.53833" lon="6.65045">
        <ele>483</ele>
        <time>2016-07-28T13:51:51.000Z</time>
      </trkpt>
      <trkpt lat="47.53831" lon="6.65044">
        <ele>483</ele>
        <time>2016-07-28T13:51:52.000Z</time>
      </trkpt>
      <trkpt lat="47.53829" lon="6.65042">
        <ele>483</ele>
        <time>2016-07-28T13:51:53.000Z</time>
      </trkpt>
      <trkpt lat="47.53826" lon="6.6504">
        <ele>483</ele>
        <time>2016-07-28T13:51:54.000Z</time>
      </trkpt>
      <trkpt lat="47.53823" lon="6.65037">
        <ele>483</ele>
        <time>2016-07-28T13:51:55.000Z</time>
      </trkpt>
      <trkpt lat="47.53819" lon="6.65034">
        <ele>482</ele>
        <time>2016-07-28T13:51:56.000Z</time>
      </trkpt>
      <trkpt lat="47.53816" lon="6.6503">
        <ele>482</ele>
        <time>2016-07-28T13:51:57.000Z</time>
      </trkpt>
      <trkpt lat="47.53812" lon="6.65026">
        <ele>482</ele>
        <time>2016-07-28T13:51:58.000Z</time>
      </trkpt>
      <trkpt lat="47.53807" lon="6.65022">
        <ele>482</ele>
        <time>2016-07-28T13:51:59.000Z</time>
      </trkpt>
      <trkpt lat="47.53803" lon="6.65017">
        <ele>482</ele>
        <time>2016-07-28T13:52:00.000Z</time>
      </trkpt>
      <trkpt lat="47.53798" lon="6.65013">
        <ele>482</ele>
        <time>2016-07-28T13:52:01.000Z</time>
      </trkpt>
      <trkpt lat="47.53793" lon="6.65009">
        <ele>481</ele>
        <time>2016-07-28T13:52:02.000Z</time>
      </trkpt>
      <trkpt lat="47.53788" lon="6.65006">
        <ele>481</ele>
        <time>2016-07-28T13:52:03.000Z</time>
      </trkpt>
      <trkpt lat="47.53783" lon="6.65003">
        <ele>481</ele>
        <time>2016-07-28T13:52:04.000Z</time>
      </trkpt>
      <trkpt lat="47.53777" lon="6.65001">
        <ele>481</ele>
        <time>2016-07-28T13:52:05.000Z</time>
      </trkpt>
      <trkpt lat="47.53773" lon="6.64998">
        <ele>476</ele>
        <time>2016-07-28T13:52:06.000Z</time>
      </trkpt>
      <trkpt lat="47.53768" lon="6.64995">
        <ele>476</ele>
        <time>2016-07-28T13:52:07.000Z</time>
      </trkpt>
      <trkpt lat="47.53763" lon="6.64992">
        <ele>477</ele>
        <time>2016-07-28T13:52:08.000Z</time>
      </trkpt>
      <trkpt lat="47.5375" lon="6.64989">
        <ele>477</ele>
        <time>2016-07-28T13:52:09.000Z</time>
      </trkpt>
      <trkpt lat="47.5374" lon="6.64986">
        <ele>476</ele>
        <time>2016-07-28T13:52:10.000Z</time>
      </trkpt>
      <trkpt lat="47.5373" lon="6.64982">
        <ele>475</ele>
        <time>2016-07-28T13:52:11.000Z</time>
      </trkpt>
      <trkpt lat="47.53724" lon="6.64976">
        <ele>474</ele>
        <time>2016-07-28T13:52:12.000Z</time>
      </trkpt>
      <trkpt lat="47.53719" lon="6.64973">
        <ele>474</ele>
        <time>2016-07-28T13:52:13.000Z</time>
      </trkpt>
      <trkpt lat="47.53712" lon="6.64973">
        <ele>474</ele>
        <time>2016-07-28T13:52:14.000Z</time>
      </trkpt>
      <trkpt lat="47.5371" lon="6.64976">
        <ele>474</ele>
        <time>2016-07-28T13:52:15.000Z</time>
      </trkpt>
      <trkpt lat="47.53709" lon="6.64981">
        <ele>474</ele>
        <time>2016-07-28T13:52:16.000Z</time>
      </trkpt>
      <trkpt lat="47.53707" lon="6.64982">
        <ele>474</ele>
        <time>2016-07-28T13:52:17.000Z</time>
      </trkpt>
      <trkpt lat="47.53705" lon="6.64984">
        <ele>474</ele>
        <time>2016-07-28T13:52:18.000Z</time>
      </trkpt>
      <trkpt lat="47.53701" lon="6.64987">
        <ele>474</ele>
        <time>2016-07-28T13:52:19.000Z</time>
      </trkpt>
      <trkpt lat="47.53697" lon="6.6499">
        <ele>474</ele>
        <time>2016-07-28T13:52:20.000Z</time>
      </trkpt>
      <trkpt lat="47.53695" lon="6.64993">
        <ele>474</ele>
        <time>2016-07-28T13:52:21.000Z</time>
      </trkpt>
      <trkpt lat="47.53692" lon="6.64996">
        <ele>474</ele>
        <time>2016-07-28T13:52:22.000Z</time>
      </trkpt>
      <trkpt lat="47.53688" lon="6.65">
        <ele>477</ele>
        <time>2016-07-28T13:52:23.000Z</time>
      </trkpt>
      <trkpt lat="47.53686" lon="6.65004">
        <ele>477</ele>
        <time>2016-07-28T13:52:24.000Z</time>
      </trkpt>
      <trkpt lat="47.53683" lon="6.65007">
        <ele>477</ele>
        <time>2016-07-28T13:52:25.000Z</time>
      </trkpt>
      <trkpt lat="47.5368" lon="6.65011">
        <ele>477</ele>
        <time>2016-07-28T13:52:26.000Z</time>
      </trkpt>
      <trkpt lat="47.53678" lon="6.65015">
        <ele>477</ele>
        <time>2016-07-28T13:52:27.000Z</time>
      </trkpt>
      <trkpt lat="47.53675" lon="6.65018">
        <ele>477</ele>
        <time>2016-07-28T13:52:28.000Z</time>
      </trkpt>
      <trkpt lat="47.53671" lon="6.65021">
        <ele>477</ele>
        <time>2016-07-28T13:52:29.000Z</time>
      </trkpt>
      <trkpt lat="47.53667" lon="6.65024">
        <ele>478</ele>
        <time>2016-07-28T13:52:30.000Z</time>
      </trkpt>
      <trkpt lat="47.5366" lon="6.65026">
        <ele>475</ele>
        <time>2016-07-28T13:52:31.000Z</time>
      </trkpt>
      <trkpt lat="47.53655" lon="6.65031">
        <ele>475</ele>
        <time>2016-07-28T13:52:32.000Z</time>
      </trkpt>
      <trkpt lat="47.53649" lon="6.65033">
        <ele>475</ele>
        <time>2016-07-28T13:52:33.000Z</time>
      </trkpt>
      <trkpt lat="47.53644" lon="6.65035">
        <ele>475</ele>
        <time>2016-07-28T13:52:34.000Z</time>
      </trkpt>
      <trkpt lat="47.53638" lon="6.65038">
        <ele>475</ele>
        <time>2016-07-28T13:52:35.000Z</time>
      </trkpt>
      <trkpt lat="47.53633" lon="6.65042">
        <ele>475</ele>
        <time>2016-07-28T13:52:36.000Z</time>
      </trkpt>
      <trkpt lat="47.53628" lon="6.65047">
        <ele>475</ele>
        <time>2016-07-28T13:52:37.000Z</time>
      </trkpt>
      <trkpt lat="47.53623" lon="6.6505">
        <ele>475</ele>
        <time>2016-07-28T13:52:38.000Z</time>
      </trkpt>
      <trkpt lat="47.53617" lon="6.65053">
        <ele>474</ele>
        <time>2016-07-28T13:52:39.000Z</time>
      </trkpt>
      <trkpt lat="47.53612" lon="6.65056">
        <ele>474</ele>
        <time>2016-07-28T13:52:40.000Z</time>
      </trkpt>
      <trkpt lat="47.53607" lon="6.65059">
        <ele>474</ele>
        <time>2016-07-28T13:52:41.000Z</time>
      </trkpt>
      <trkpt lat="47.53602" lon="6.65063">
        <ele>474</ele>
        <time>2016-07-28T13:52:42.000Z</time>
      </trkpt>
      <trkpt lat="47.53598" lon="6.65067">
        <ele>474</ele>
        <time>2016-07-28T13:52:43.000Z</time>
      </trkpt>
      <trkpt lat="47.53594" lon="6.65072">
        <ele>474</ele>
        <time>2016-07-28T13:52:44.000Z</time>
      </trkpt>
      <trkpt lat="47.53591" lon="6.65077">
        <ele>474</ele>
        <time>2016-07-28T13:52:45.000Z</time>
      </trkpt>
      <trkpt lat="47.53585" lon="6.6508">
        <ele>473</ele>
        <time>2016-07-28T13:52:46.000Z</time>
      </trkpt>
      <trkpt lat="47.53581" lon="6.65082">
        <ele>472</ele>
        <time>2016-07-28T13:52:47.000Z</time>
      </trkpt>
      <trkpt lat="47.53577" lon="6.65086">
        <ele>472</ele>
        <time>2016-07-28T13:52:48.000Z</time>
      </trkpt>
      <trkpt lat="47.53576" lon="6.65092">
        <ele>472</ele>
        <time>2016-07-28T13:52:49.000Z</time>
      </trkpt>
      <trkpt lat="47.53574" lon="6.65098">
        <ele>472</ele>
        <time>2016-07-28T13:52:50.000Z</time>
      </trkpt>
      <trkpt lat="47.53569" lon="6.65099">
        <ele>471</ele>
        <time>2016-07-28T13:52:51.000Z</time>
      </trkpt>
      <trkpt lat="47.53564" lon="6.651">
        <ele>471</ele>
        <time>2016-07-28T13:52:52.000Z</time>
      </trkpt>
      <trkpt lat="47.5356" lon="6.65102">
        <ele>471</ele>
        <time>2016-07-28T13:52:53.000Z</time>
      </trkpt>
      <trkpt lat="47.53556" lon="6.65105">
        <ele>471</ele>
        <time>2016-07-28T13:52:54.000Z</time>
      </trkpt>
      <trkpt lat="47.5355" lon="6.65108">
        <ele>471</ele>
        <time>2016-07-28T13:52:55.000Z</time>
      </trkpt>
      <trkpt lat="47.53544" lon="6.65112">
        <ele>470</ele>
        <time>2016-07-28T13:52:56.000Z</time>
      </trkpt>
      <trkpt lat="47.53538" lon="6.65116">
        <ele>470</ele>
        <time>2016-07-28T13:52:57.000Z</time>
      </trkpt>
      <trkpt lat="47.53533" lon="6.65122">
        <ele>470</ele>
        <time>2016-07-28T13:52:58.000Z</time>
      </trkpt>
      <trkpt lat="47.53528" lon="6.65128">
        <ele>470</ele>
        <time>2016-07-28T13:52:59.000Z</time>
      </trkpt>
      <trkpt lat="47.53524" lon="6.65133">
        <ele>470</ele>
        <time>2016-07-28T13:53:00.000Z</time>
      </trkpt>
      <trkpt lat="47.53517" lon="6.65141">
        <ele>469</ele>
        <time>2016-07-28T13:53:01.000Z</time>
      </trkpt>
      <trkpt lat="47.53511" lon="6.65149">
        <ele>469</ele>
        <time>2016-07-28T13:53:02.000Z</time>
      </trkpt>
      <trkpt lat="47.53505" lon="6.65157">
        <ele>468</ele>
        <time>2016-07-28T13:53:03.000Z</time>
      </trkpt>
      <trkpt lat="47.53499" lon="6.65166">
        <ele>467</ele>
        <time>2016-07-28T13:53:04.000Z</time>
      </trkpt>
      <trkpt lat="47.53495" lon="6.65175">
        <ele>466</ele>
        <time>2016-07-28T13:53:05.000Z</time>
      </trkpt>
      <trkpt lat="47.53489" lon="6.65183">
        <ele>465</ele>
        <time>2016-07-28T13:53:06.000Z</time>
      </trkpt>
      <trkpt lat="47.53484" lon="6.65193">
        <ele>464</ele>
        <time>2016-07-28T13:53:07.000Z</time>
      </trkpt>
      <trkpt lat="47.53479" lon="6.65202">
        <ele>464</ele>
        <time>2016-07-28T13:53:08.000Z</time>
      </trkpt>
      <trkpt lat="47.53474" lon="6.65209">
        <ele>464</ele>
        <time>2016-07-28T13:53:09.000Z</time>
      </trkpt>
      <trkpt lat="47.5347" lon="6.65218">
        <ele>464</ele>
        <time>2016-07-28T13:53:10.000Z</time>
      </trkpt>
      <trkpt lat="47.53462" lon="6.65225">
        <ele>463</ele>
        <time>2016-07-28T13:53:11.000Z</time>
      </trkpt>
      <trkpt lat="47.53456" lon="6.6523">
        <ele>463</ele>
        <time>2016-07-28T13:53:12.000Z</time>
      </trkpt>
      <trkpt lat="47.53449" lon="6.65232">
        <ele>463</ele>
        <time>2016-07-28T13:53:13.000Z</time>
      </trkpt>
      <trkpt lat="47.5344" lon="6.65229">
        <ele>462</ele>
        <time>2016-07-28T13:53:14.000Z</time>
      </trkpt>
      <trkpt lat="47.53434" lon="6.65222">
        <ele>462</ele>
        <time>2016-07-28T13:53:15.000Z</time>
      </trkpt>
      <trkpt lat="47.53428" lon="6.65214">
        <ele>462</ele>
        <time>2016-07-28T13:53:16.000Z</time>
      </trkpt>
      <trkpt lat="47.53421" lon="6.65208">
        <ele>462</ele>
        <time>2016-07-28T13:53:17.000Z</time>
      </trkpt>
      <trkpt lat="47.53414" lon="6.65202">
        <ele>457</ele>
        <time>2016-07-28T13:53:18.000Z</time>
      </trkpt>
      <trkpt lat="47.53407" lon="6.65195">
        <ele>457</ele>
        <time>2016-07-28T13:53:19.000Z</time>
      </trkpt>
      <trkpt lat="47.53402" lon="6.65188">
        <ele>457</ele>
        <time>2016-07-28T13:53:20.000Z</time>
      </trkpt>
      <trkpt lat="47.53396" lon="6.65182">
        <ele>457</ele>
        <time>2016-07-28T13:53:21.000Z</time>
      </trkpt>
      <trkpt lat="47.53389" lon="6.65175">
        <ele>457</ele>
        <time>2016-07-28T13:53:22.000Z</time>
      </trkpt>
      <trkpt lat="47.53382" lon="6.65167">
        <ele>456</ele>
        <time>2016-07-28T13:53:23.000Z</time>
      </trkpt>
      <trkpt lat="47.53376" lon="6.65159">
        <ele>455</ele>
        <time>2016-07-28T13:53:24.000Z</time>
      </trkpt>
      <trkpt lat="47.53369" lon="6.65153">
        <ele>455</ele>
        <time>2016-07-28T13:53:25.000Z</time>
      </trkpt>
      <trkpt lat="47.5336" lon="6.65142">
        <ele>454</ele>
        <time>2016-07-28T13:53:26.000Z</time>
      </trkpt>
      <trkpt lat="47.53353" lon="6.65133">
        <ele>454</ele>
        <time>2016-07-28T13:53:27.000Z</time>
      </trkpt>
      <trkpt lat="47.53346" lon="6.65124">
        <ele>454</ele>
        <time>2016-07-28T13:53:28.000Z</time>
      </trkpt>
      <trkpt lat="47.53339" lon="6.65116">
        <ele>453</ele>
        <time>2016-07-28T13:53:29.000Z</time>
      </trkpt>
      <trkpt lat="47.53332" lon="6.65106">
        <ele>450</ele>
        <time>2016-07-28T13:53:30.000Z</time>
      </trkpt>
      <trkpt lat="47.53325" lon="6.65098">
        <ele>450</ele>
        <time>2016-07-28T13:53:31.000Z</time>
      </trkpt>
      <trkpt lat="47.53318" lon="6.65087">
        <ele>450</ele>
        <time>2016-07-28T13:53:32.000Z</time>
      </trkpt>
      <trkpt lat="47.53312" lon="6.65078">
        <ele>448</ele>
        <time>2016-07-28T13:53:33.000Z</time>
      </trkpt>
      <trkpt lat="47.53304" lon="6.65068">
        <ele>447</ele>
        <time>2016-07-28T13:53:34.000Z</time>
      </trkpt>
      <trkpt lat="47.53296" lon="6.65058">
        <ele>446</ele>
        <time>2016-07-28T13:53:35.000Z</time>
      </trkpt>
      <trkpt lat="47.53289" lon="6.65049">
        <ele>446</ele>
        <time>2016-07-28T13:53:36.000Z</time>
      </trkpt>
      <trkpt lat="47.53282" lon="6.6504">
        <ele>445</ele>
        <time>2016-07-28T13:53:37.000Z</time>
      </trkpt>
      <trkpt lat="47.53276" lon="6.65031">
        <ele>445</ele>
        <time>2016-07-28T13:53:38.000Z</time>
      </trkpt>
      <trkpt lat="47.53271" lon="6.65024">
        <ele>444</ele>
        <time>2016-07-28T13:53:39.000Z</time>
      </trkpt>
      <trkpt lat="47.53265" lon="6.65017">
        <ele>443</ele>
        <time>2016-07-28T13:53:40.000Z</time>
      </trkpt>
      <trkpt lat="47.53259" lon="6.65016">
        <ele>443</ele>
        <time>2016-07-28T13:53:41.000Z</time>
      </trkpt>
      <trkpt lat="47.53252" lon="6.65015">
        <ele>443</ele>
        <time>2016-07-28T13:53:42.000Z</time>
      </trkpt>
      <trkpt lat="47.53245" lon="6.65015">
        <ele>440</ele>
        <time>2016-07-28T13:53:43.000Z</time>
      </trkpt>
      <trkpt lat="47.53238" lon="6.65016">
        <ele>440</ele>
        <time>2016-07-28T13:53:44.000Z</time>
      </trkpt>
      <trkpt lat="47.5323" lon="6.65016">
        <ele>440</ele>
        <time>2016-07-28T13:53:45.000Z</time>
      </trkpt>
      <trkpt lat="47.53222" lon="6.65016">
        <ele>440</ele>
        <time>2016-07-28T13:53:46.000Z</time>
      </trkpt>
      <trkpt lat="47.53213" lon="6.65015">
        <ele>439</ele>
        <time>2016-07-28T13:53:47.000Z</time>
      </trkpt>
      <trkpt lat="47.53206" lon="6.65012">
        <ele>439</ele>
        <time>2016-07-28T13:53:48.000Z</time>
      </trkpt>
      <trkpt lat="47.53199" lon="6.65009">
        <ele>438</ele>
        <time>2016-07-28T13:53:49.000Z</time>
      </trkpt>
      <trkpt lat="47.53193" lon="6.65008">
        <ele>438</ele>
        <time>2016-07-28T13:53:50.000Z</time>
      </trkpt>
      <trkpt lat="47.53188" lon="6.65009">
        <ele>437</ele>
        <time>2016-07-28T13:53:51.000Z</time>
      </trkpt>
      <trkpt lat="47.53184" lon="6.65014">
        <ele>437</ele>
        <time>2016-07-28T13:53:52.000Z</time>
      </trkpt>
      <trkpt lat="47.53182" lon="6.65017">
        <ele>437</ele>
        <time>2016-07-28T13:53:53.000Z</time>
      </trkpt>
      <trkpt lat="47.5318" lon="6.65024">
        <ele>438</ele>
        <time>2016-07-28T13:53:54.000Z</time>
      </trkpt>
      <trkpt lat="47.53178" lon="6.6503">
        <ele>438</ele>
        <time>2016-07-28T13:53:55.000Z</time>
      </trkpt>
      <trkpt lat="47.53174" lon="6.65037">
        <ele>439</ele>
        <time>2016-07-28T13:53:56.000Z</time>
      </trkpt>
      <trkpt lat="47.53168" lon="6.65039">
        <ele>439</ele>
        <time>2016-07-28T13:53:57.000Z</time>
      </trkpt>
      <trkpt lat="47.53159" lon="6.65038">
        <ele>435</ele>
        <time>2016-07-28T13:53:58.000Z</time>
      </trkpt>
      <trkpt lat="47.53151" lon="6.65037">
        <ele>435</ele>
        <time>2016-07-28T13:53:59.000Z</time>
      </trkpt>
      <trkpt lat="47.53145" lon="6.65035">
        <ele>434</ele>
        <time>2016-07-28T13:54:00.000Z</time>
      </trkpt>
      <trkpt lat="47.53136" lon="6.65033">
        <ele>434</ele>
        <time>2016-07-28T13:54:01.000Z</time>
      </trkpt>
      <trkpt lat="47.53128" lon="6.65033">
        <ele>434</ele>
        <time>2016-07-28T13:54:02.000Z</time>
      </trkpt>
      <trkpt lat="47.5312" lon="6.65032">
        <ele>434</ele>
        <time>2016-07-28T13:54:03.000Z</time>
      </trkpt>
      <trkpt lat="47.53113" lon="6.65033">
        <ele>433</ele>
        <time>2016-07-28T13:54:04.000Z</time>
      </trkpt>
      <trkpt lat="47.53106" lon="6.65035">
        <ele>433</ele>
        <time>2016-07-28T13:54:05.000Z</time>
      </trkpt>
      <trkpt lat="47.53098" lon="6.65041">
        <ele>433</ele>
        <time>2016-07-28T13:54:06.000Z</time>
      </trkpt>
      <trkpt lat="47.53091" lon="6.65046">
        <ele>433</ele>
        <time>2016-07-28T13:54:07.000Z</time>
      </trkpt>
      <trkpt lat="47.53085" lon="6.65052">
        <ele>433</ele>
        <time>2016-07-28T13:54:08.000Z</time>
      </trkpt>
      <trkpt lat="47.5308" lon="6.65057">
        <ele>429</ele>
        <time>2016-07-28T13:54:09.000Z</time>
      </trkpt>
      <trkpt lat="47.53072" lon="6.65061">
        <ele>429</ele>
        <time>2016-07-28T13:54:10.000Z</time>
      </trkpt>
      <trkpt lat="47.53063" lon="6.65062">
        <ele>429</ele>
        <time>2016-07-28T13:54:11.000Z</time>
      </trkpt>
      <trkpt lat="47.53055" lon="6.65066">
        <ele>428</ele>
        <time>2016-07-28T13:54:12.000Z</time>
      </trkpt>
      <trkpt lat="47.53049" lon="6.65072">
        <ele>428</ele>
        <time>2016-07-28T13:54:13.000Z</time>
      </trkpt>
      <trkpt lat="47.53041" lon="6.65079">
        <ele>428</ele>
        <time>2016-07-28T13:54:14.000Z</time>
      </trkpt>
      <trkpt lat="47.53032" lon="6.65085">
        <ele>429</ele>
        <time>2016-07-28T13:54:15.000Z</time>
      </trkpt>
      <trkpt lat="47.53026" lon="6.65093">
        <ele>428</ele>
        <time>2016-07-28T13:54:16.000Z</time>
      </trkpt>
      <trkpt lat="47.53016" lon="6.65098">
        <ele>428</ele>
        <time>2016-07-28T13:54:17.000Z</time>
      </trkpt>
      <trkpt lat="47.53002" lon="6.65101">
        <ele>427</ele>
        <time>2016-07-28T13:54:18.000Z</time>
      </trkpt>
      <trkpt lat="47.52992" lon="6.65103">
        <ele>423</ele>
        <time>2016-07-28T13:54:19.000Z</time>
      </trkpt>
      <trkpt lat="47.52983" lon="6.65106">
        <ele>423</ele>
        <time>2016-07-28T13:54:20.000Z</time>
      </trkpt>
      <trkpt lat="47.52975" lon="6.65107">
        <ele>422</ele>
        <time>2016-07-28T13:54:21.000Z</time>
      </trkpt>
      <trkpt lat="47.52965" lon="6.65109">
        <ele>422</ele>
        <time>2016-07-28T13:54:22.000Z</time>
      </trkpt>
      <trkpt lat="47.52954" lon="6.65116">
        <ele>421</ele>
        <time>2016-07-28T13:54:23.000Z</time>
      </trkpt>
      <trkpt lat="47.52945" lon="6.65122">
        <ele>421</ele>
        <time>2016-07-28T13:54:24.000Z</time>
      </trkpt>
      <trkpt lat="47.52937" lon="6.65125">
        <ele>420</ele>
        <time>2016-07-28T13:54:25.000Z</time>
      </trkpt>
      <trkpt lat="47.52926" lon="6.65128">
        <ele>420</ele>
        <time>2016-07-28T13:54:26.000Z</time>
      </trkpt>
      <trkpt lat="47.52915" lon="6.6513">
        <ele>414</ele>
        <time>2016-07-28T13:54:27.000Z</time>
      </trkpt>
      <trkpt lat="47.52906" lon="6.65132">
        <ele>414</ele>
        <time>2016-07-28T13:54:28.000Z</time>
      </trkpt>
      <trkpt lat="47.52896" lon="6.65133">
        <ele>413</ele>
        <time>2016-07-28T13:54:29.000Z</time>
      </trkpt>
      <trkpt lat="47.52889" lon="6.65137">
        <ele>413</ele>
        <time>2016-07-28T13:54:30.000Z</time>
      </trkpt>
      <trkpt lat="47.52883" lon="6.65144">
        <ele>413</ele>
        <time>2016-07-28T13:54:31.000Z</time>
      </trkpt>
      <trkpt lat="47.52879" lon="6.65153">
        <ele>413</ele>
        <time>2016-07-28T13:54:32.000Z</time>
      </trkpt>
      <trkpt lat="47.52871" lon="6.65161">
        <ele>412</ele>
        <time>2016-07-28T13:54:33.000Z</time>
      </trkpt>
      <trkpt lat="47.52865" lon="6.65169">
        <ele>412</ele>
        <time>2016-07-28T13:54:34.000Z</time>
      </trkpt>
      <trkpt lat="47.52857" lon="6.65177">
        <ele>412</ele>
        <time>2016-07-28T13:54:35.000Z</time>
      </trkpt>
      <trkpt lat="47.52848" lon="6.65184">
        <ele>411</ele>
        <time>2016-07-28T13:54:36.000Z</time>
      </trkpt>
      <trkpt lat="47.52839" lon="6.65189">
        <ele>411</ele>
        <time>2016-07-28T13:54:37.000Z</time>
      </trkpt>
      <trkpt lat="47.52831" lon="6.65196">
        <ele>405</ele>
        <time>2016-07-28T13:54:38.000Z</time>
      </trkpt>
      <trkpt lat="47.52824" lon="6.65201">
        <ele>405</ele>
        <time>2016-07-28T13:54:39.000Z</time>
      </trkpt>
      <trkpt lat="47.52821" lon="6.65211">
        <ele>404</ele>
        <time>2016-07-28T13:54:40.000Z</time>
      </trkpt>
      <trkpt lat="47.52815" lon="6.65217">
        <ele>404</ele>
        <time>2016-07-28T13:54:41.000Z</time>
      </trkpt>
      <trkpt lat="47.52807" lon="6.65224">
        <ele>403</ele>
        <time>2016-07-28T13:54:42.000Z</time>
      </trkpt>
      <trkpt lat="47.52798" lon="6.65225">
        <ele>403</ele>
        <time>2016-07-28T13:54:43.000Z</time>
      </trkpt>
      <trkpt lat="47.5279" lon="6.65226">
        <ele>402</ele>
        <time>2016-07-28T13:54:44.000Z</time>
      </trkpt>
      <trkpt lat="47.52785" lon="6.65223">
        <ele>402</ele>
        <time>2016-07-28T13:54:45.000Z</time>
      </trkpt>
      <trkpt lat="47.52777" lon="6.65221">
        <ele>401</ele>
        <time>2016-07-28T13:54:46.000Z</time>
      </trkpt>
      <trkpt lat="47.52769" lon="6.65218">
        <ele>401</ele>
        <time>2016-07-28T13:54:47.000Z</time>
      </trkpt>
      <trkpt lat="47.52764" lon="6.65213">
        <ele>401</ele>
        <time>2016-07-28T13:54:48.000Z</time>
      </trkpt>
      <trkpt lat="47.5276" lon="6.65209">
        <ele>401</ele>
        <time>2016-07-28T13:54:49.000Z</time>
      </trkpt>
      <trkpt lat="47.52756" lon="6.65204">
        <ele>401</ele>
        <time>2016-07-28T13:54:50.000Z</time>
      </trkpt>
      <trkpt lat="47.52753" lon="6.65202">
        <ele>400</ele>
        <time>2016-07-28T13:54:51.000Z</time>
      </trkpt>
      <trkpt lat="47.52751" lon="6.65202">
        <ele>400</ele>
        <time>2016-07-28T13:54:52.000Z</time>
      </trkpt>
      <trkpt lat="47.52746" lon="6.65203">
        <ele>393</ele>
        <time>2016-07-28T13:58:28.000Z</time>
      </trkpt>
      <trkpt lat="47.52746" lon="6.65203">
        <ele>393</ele>
        <time>2016-07-28T13:58:29.000Z</time>
      </trkpt>
      <trkpt lat="47.52743" lon="6.65206">
        <ele>393</ele>
        <time>2016-07-28T13:58:32.000Z</time>
      </trkpt>
      <trkpt lat="47.52741" lon="6.65208">
        <ele>393</ele>
        <time>2016-07-28T13:58:33.000Z</time>
      </trkpt>
      <trkpt lat="47.52739" lon="6.65211">
        <ele>392</ele>
        <time>2016-07-28T13:58:34.000Z</time>
      </trkpt>
      <trkpt lat="47.52737" lon="6.65215">
        <ele>392</ele>
        <time>2016-07-28T13:58:35.000Z</time>
      </trkpt>
      <trkpt lat="47.5273" lon="6.65222">
        <ele>392</ele>
        <time>2016-07-28T13:58:36.000Z</time>
      </trkpt>
      <trkpt lat="47.52726" lon="6.65227">
        <ele>392</ele>
        <time>2016-07-28T13:58:37.000Z</time>
      </trkpt>
      <trkpt lat="47.52722" lon="6.65232">
        <ele>392</ele>
        <time>2016-07-28T13:58:38.000Z</time>
      </trkpt>
      <trkpt lat="47.52717" lon="6.65238">
        <ele>391</ele>
        <time>2016-07-28T13:58:39.000Z</time>
      </trkpt>
      <trkpt lat="47.52713" lon="6.65244">
        <ele>391</ele>
        <time>2016-07-28T13:58:40.000Z</time>
      </trkpt>
      <trkpt lat="47.52709" lon="6.6525">
        <ele>390</ele>
        <time>2016-07-28T13:58:41.000Z</time>
      </trkpt>
      <trkpt lat="47.52705" lon="6.65255">
        <ele>389</ele>
        <time>2016-07-28T13:58:42.000Z</time>
      </trkpt>
      <trkpt lat="47.52701" lon="6.65262">
        <ele>388</ele>
        <time>2016-07-28T13:58:43.000Z</time>
      </trkpt>
      <trkpt lat="47.52697" lon="6.65268">
        <ele>388</ele>
        <time>2016-07-28T13:58:44.000Z</time>
      </trkpt>
      <trkpt lat="47.52692" lon="6.65274">
        <ele>388</ele>
        <time>2016-07-28T13:58:45.000Z</time>
      </trkpt>
      <trkpt lat="47.52687" lon="6.65278">
        <ele>387</ele>
        <time>2016-07-28T13:58:46.000Z</time>
      </trkpt>
      <trkpt lat="47.52682" lon="6.65283">
        <ele>387</ele>
        <time>2016-07-28T13:58:47.000Z</time>
      </trkpt>
      <trkpt lat="47.52676" lon="6.65288">
        <ele>387</ele>
        <time>2016-07-28T13:58:48.000Z</time>
      </trkpt>
      <trkpt lat="47.52671" lon="6.65292">
        <ele>387</ele>
        <time>2016-07-28T13:58:49.000Z</time>
      </trkpt>
      <trkpt lat="47.52664" lon="6.65296">
        <ele>381</ele>
        <time>2016-07-28T13:58:50.000Z</time>
      </trkpt>
      <trkpt lat="47.52658" lon="6.653">
        <ele>381</ele>
        <time>2016-07-28T13:58:51.000Z</time>
      </trkpt>
      <trkpt lat="47.52652" lon="6.65305">
        <ele>380</ele>
        <time>2016-07-28T13:58:52.000Z</time>
      </trkpt>
      <trkpt lat="47.52647" lon="6.6531">
        <ele>380</ele>
        <time>2016-07-28T13:58:53.000Z</time>
      </trkpt>
      <trkpt lat="47.52642" lon="6.65316">
        <ele>380</ele>
        <time>2016-07-28T13:58:54.000Z</time>
      </trkpt>
      <trkpt lat="47.52637" lon="6.65321">
        <ele>380</ele>
        <time>2016-07-28T13:58:55.000Z</time>
      </trkpt>
      <trkpt lat="47.52632" lon="6.65327">
        <ele>380</ele>
        <time>2016-07-28T13:58:56.000Z</time>
      </trkpt>
      <trkpt lat="47.52627" lon="6.65332">
        <ele>379</ele>
        <time>2016-07-28T13:58:57.000Z</time>
      </trkpt>
      <trkpt lat="47.52623" lon="6.65337">
        <ele>379</ele>
        <time>2016-07-28T13:58:58.000Z</time>
      </trkpt>
      <trkpt lat="47.52618" lon="6.65343">
        <ele>378</ele>
        <time>2016-07-28T13:58:59.000Z</time>
      </trkpt>
      <trkpt lat="47.52613" lon="6.6535">
        <ele>378</ele>
        <time>2016-07-28T13:59:00.000Z</time>
      </trkpt>
      <trkpt lat="47.52609" lon="6.65355">
        <ele>378</ele>
        <time>2016-07-28T13:59:01.000Z</time>
      </trkpt>
      <trkpt lat="47.52605" lon="6.65362">
        <ele>378</ele>
        <time>2016-07-28T13:59:02.000Z</time>
      </trkpt>
      <trkpt lat="47.52601" lon="6.65369">
        <ele>377</ele>
        <time>2016-07-28T13:59:03.000Z</time>
      </trkpt>
      <trkpt lat="47.52597" lon="6.65377">
        <ele>377</ele>
        <time>2016-07-28T13:59:04.000Z</time>
      </trkpt>
      <trkpt lat="47.52593" lon="6.65384">
        <ele>377</ele>
        <time>2016-07-28T13:59:05.000Z</time>
      </trkpt>
      <trkpt lat="47.52589" lon="6.65392">
        <ele>377</ele>
        <time>2016-07-28T13:59:06.000Z</time>
      </trkpt>
      <trkpt lat="47.52585" lon="6.65401">
        <ele>376</ele>
        <time>2016-07-28T13:59:07.000Z</time>
      </trkpt>
      <trkpt lat="47.52581" lon="6.6541">
        <ele>374</ele>
        <time>2016-07-28T13:59:08.000Z</time>
      </trkpt>
      <trkpt lat="47.52578" lon="6.65419">
        <ele>373</ele>
        <time>2016-07-28T13:59:09.000Z</time>
      </trkpt>
      <trkpt lat="47.52574" lon="6.65429">
        <ele>373</ele>
        <time>2016-07-28T13:59:10.000Z</time>
      </trkpt>
      <trkpt lat="47.5257" lon="6.65439">
        <ele>372</ele>
        <time>2016-07-28T13:59:11.000Z</time>
      </trkpt>
      <trkpt lat="47.52567" lon="6.6545">
        <ele>372</ele>
        <time>2016-07-28T13:59:12.000Z</time>
      </trkpt>
      <trkpt lat="47.52564" lon="6.6546">
        <ele>372</ele>
        <time>2016-07-28T13:59:13.000Z</time>
      </trkpt>
      <trkpt lat="47.52561" lon="6.6547">
        <ele>371</ele>
        <time>2016-07-28T13:59:14.000Z</time>
      </trkpt>
      <trkpt lat="47.52558" lon="6.6548">
        <ele>371</ele>
        <time>2016-07-28T13:59:15.000Z</time>
      </trkpt>
      <trkpt lat="47.52555" lon="6.6549">
        <ele>371</ele>
        <time>2016-07-28T13:59:16.000Z</time>
      </trkpt>
      <trkpt lat="47.52552" lon="6.655">
        <ele>371</ele>
        <time>2016-07-28T13:59:17.000Z</time>
      </trkpt>
      <trkpt lat="47.52548" lon="6.65509">
        <ele>369</ele>
        <time>2016-07-28T13:59:18.000Z</time>
      </trkpt>
      <trkpt lat="47.52544" lon="6.65519">
        <ele>369</ele>
        <time>2016-07-28T13:59:19.000Z</time>
      </trkpt>
      <trkpt lat="47.52539" lon="6.65528">
        <ele>369</ele>
        <time>2016-07-28T13:59:20.000Z</time>
      </trkpt>
      <trkpt lat="47.52535" lon="6.65537">
        <ele>369</ele>
        <time>2016-07-28T13:59:21.000Z</time>
      </trkpt>
      <trkpt lat="47.52531" lon="6.65547">
        <ele>369</ele>
        <time>2016-07-28T13:59:22.000Z</time>
      </trkpt>
      <trkpt lat="47.52526" lon="6.65557">
        <ele>369</ele>
        <time>2016-07-28T13:59:23.000Z</time>
      </trkpt>
      <trkpt lat="47.52522" lon="6.65566">
        <ele>369</ele>
        <time>2016-07-28T13:59:24.000Z</time>
      </trkpt>
      <trkpt lat="47.52518" lon="6.65575">
        <ele>368</ele>
        <time>2016-07-28T13:59:25.000Z</time>
      </trkpt>
      <trkpt lat="47.52513" lon="6.65584">
        <ele>368</ele>
        <time>2016-07-28T13:59:26.000Z</time>
      </trkpt>
      <trkpt lat="47.52509" lon="6.65594">
        <ele>368</ele>
        <time>2016-07-28T13:59:27.000Z</time>
      </trkpt>
      <trkpt lat="47.52504" lon="6.65603">
        <ele>368</ele>
        <time>2016-07-28T13:59:28.000Z</time>
      </trkpt>
      <trkpt lat="47.525" lon="6.65613">
        <ele>366</ele>
        <time>2016-07-28T13:59:29.000Z</time>
      </trkpt>
      <trkpt lat="47.52496" lon="6.65622">
        <ele>366</ele>
        <time>2016-07-28T13:59:30.000Z</time>
      </trkpt>
      <trkpt lat="47.52491" lon="6.65631">
        <ele>366</ele>
        <time>2016-07-28T13:59:31.000Z</time>
      </trkpt>
      <trkpt lat="47.52487" lon="6.6564">
        <ele>366</ele>
        <time>2016-07-28T13:59:32.000Z</time>
      </trkpt>
      <trkpt lat="47.52484" lon="6.65649">
        <ele>366</ele>
        <time>2016-07-28T13:59:33.000Z</time>
      </trkpt>
      <trkpt lat="47.5248" lon="6.65658">
        <ele>366</ele>
        <time>2016-07-28T13:59:34.000Z</time>
      </trkpt>
      <trkpt lat="47.52475" lon="6.65667">
        <ele>365</ele>
        <time>2016-07-28T13:59:35.000Z</time>
      </trkpt>
      <trkpt lat="47.52471" lon="6.65676">
        <ele>365</ele>
        <time>2016-07-28T13:59:36.000Z</time>
      </trkpt>
      <trkpt lat="47.52467" lon="6.65684">
        <ele>365</ele>
        <time>2016-07-28T13:59:37.000Z</time>
      </trkpt>
      <trkpt lat="47.52463" lon="6.65693">
        <ele>365</ele>
        <time>2016-07-28T13:59:38.000Z</time>
      </trkpt>
      <trkpt lat="47.52459" lon="6.65702">
        <ele>365</ele>
        <time>2016-07-28T13:59:39.000Z</time>
      </trkpt>
      <trkpt lat="47.52455" lon="6.6571">
        <ele>365</ele>
        <time>2016-07-28T13:59:40.000Z</time>
      </trkpt>
      <trkpt lat="47.52451" lon="6.65718">
        <ele>365</ele>
        <time>2016-07-28T13:59:41.000Z</time>
      </trkpt>
      <trkpt lat="47.52447" lon="6.65727">
        <ele>365</ele>
        <time>2016-07-28T13:59:42.000Z</time>
      </trkpt>
      <trkpt lat="47.52442" lon="6.65735">
        <ele>365</ele>
        <time>2016-07-28T13:59:43.000Z</time>
      </trkpt>
      <trkpt lat="47.52437" lon="6.65744">
        <ele>365</ele>
        <time>2016-07-28T13:59:44.000Z</time>
      </trkpt>
      <trkpt lat="47.52433" lon="6.65752">
        <ele>365</ele>
        <time>2016-07-28T13:59:45.000Z</time>
      </trkpt>
      <trkpt lat="47.52429" lon="6.65759">
        <ele>365</ele>
        <time>2016-07-28T13:59:46.000Z</time>
      </trkpt>
      <trkpt lat="47.52424" lon="6.65767">
        <ele>365</ele>
        <time>2016-07-28T13:59:47.000Z</time>
      </trkpt>
      <trkpt lat="47.5242" lon="6.65775">
        <ele>365</ele>
        <time>2016-07-28T13:59:48.000Z</time>
      </trkpt>
      <trkpt lat="47.52417" lon="6.65783">
        <ele>366</ele>
        <time>2016-07-28T13:59:49.000Z</time>
      </trkpt>
      <trkpt lat="47.52413" lon="6.6579">
        <ele>366</ele>
        <time>2016-07-28T13:59:50.000Z</time>
      </trkpt>
      <trkpt lat="47.52408" lon="6.65797">
        <ele>366</ele>
        <time>2016-07-28T13:59:51.000Z</time>
      </trkpt>
      <trkpt lat="47.52405" lon="6.65805">
        <ele>366</ele>
        <time>2016-07-28T13:59:52.000Z</time>
      </trkpt>
      <trkpt lat="47.52401" lon="6.65812">
        <ele>366</ele>
        <time>2016-07-28T13:59:53.000Z</time>
      </trkpt>
      <trkpt lat="47.52396" lon="6.65819">
        <ele>366</ele>
        <time>2016-07-28T13:59:54.000Z</time>
      </trkpt>
      <trkpt lat="47.52392" lon="6.65827">
        <ele>366</ele>
        <time>2016-07-28T13:59:55.000Z</time>
      </trkpt>
      <trkpt lat="47.52388" lon="6.65835">
        <ele>367</ele>
        <time>2016-07-28T13:59:56.000Z</time>
      </trkpt>
      <trkpt lat="47.52384" lon="6.65843">
        <ele>367</ele>
        <time>2016-07-28T13:59:57.000Z</time>
      </trkpt>
      <trkpt lat="47.52379" lon="6.65851">
        <ele>367</ele>
        <time>2016-07-28T13:59:58.000Z</time>
      </trkpt>
      <trkpt lat="47.52375" lon="6.65859">
        <ele>367</ele>
        <time>2016-07-28T13:59:59.000Z</time>
      </trkpt>
      <trkpt lat="47.52371" lon="6.65867">
        <ele>367</ele>
        <time>2016-07-28T14:00:00.000Z</time>
      </trkpt>
      <trkpt lat="47.52367" lon="6.65874">
        <ele>367</ele>
        <time>2016-07-28T14:00:01.000Z</time>
      </trkpt>
      <trkpt lat="47.52364" lon="6.65882">
        <ele>367</ele>
        <time>2016-07-28T14:00:02.000Z</time>
      </trkpt>
      <trkpt lat="47.5236" lon="6.65889">
        <ele>367</ele>
        <time>2016-07-28T14:00:03.000Z</time>
      </trkpt>
      <trkpt lat="47.52356" lon="6.65895">
        <ele>367</ele>
        <time>2016-07-28T14:00:04.000Z</time>
      </trkpt>
      <trkpt lat="47.52353" lon="6.65901">
        <ele>367</ele>
        <time>2016-07-28T14:00:05.000Z</time>
      </trkpt>
      <trkpt lat="47.5235" lon="6.65906">
        <ele>367</ele>
        <time>2016-07-28T14:00:06.000Z</time>
      </trkpt>
      <trkpt lat="47.52347" lon="6.65911">
        <ele>367</ele>
        <time>2016-07-28T14:00:07.000Z</time>
      </trkpt>
      <trkpt lat="47.52344" lon="6.65915">
        <ele>367</ele>
        <time>2016-07-28T14:00:08.000Z</time>
      </trkpt>
      <trkpt lat="47.52341" lon="6.6592">
        <ele>367</ele>
        <time>2016-07-28T14:00:09.000Z</time>
      </trkpt>
      <trkpt lat="47.52339" lon="6.65925">
        <ele>367</ele>
        <time>2016-07-28T14:00:10.000Z</time>
      </trkpt>
      <trkpt lat="47.52337" lon="6.65929">
        <ele>368</ele>
        <time>2016-07-28T14:00:11.000Z</time>
      </trkpt>
      <trkpt lat="47.52333" lon="6.65933">
        <ele>368</ele>
        <time>2016-07-28T14:00:12.000Z</time>
      </trkpt>
      <trkpt lat="47.52331" lon="6.65938">
        <ele>368</ele>
        <time>2016-07-28T14:00:13.000Z</time>
      </trkpt>
      <trkpt lat="47.5233" lon="6.65943">
        <ele>368</ele>
        <time>2016-07-28T14:00:14.000Z</time>
      </trkpt>
      <trkpt lat="47.52327" lon="6.65948">
        <ele>368</ele>
        <time>2016-07-28T14:00:15.000Z</time>
      </trkpt>
      <trkpt lat="47.52325" lon="6.65953">
        <ele>368</ele>
        <time>2016-07-28T14:00:16.000Z</time>
      </trkpt>
      <trkpt lat="47.52322" lon="6.65959">
        <ele>368</ele>
        <time>2016-07-28T14:00:17.000Z</time>
      </trkpt>
      <trkpt lat="47.5232" lon="6.65964">
        <ele>368</ele>
        <time>2016-07-28T14:00:18.000Z</time>
      </trkpt>
      <trkpt lat="47.52317" lon="6.6597">
        <ele>368</ele>
        <time>2016-07-28T14:00:19.000Z</time>
      </trkpt>
      <trkpt lat="47.52314" lon="6.65975">
        <ele>368</ele>
        <time>2016-07-28T14:00:20.000Z</time>
      </trkpt>
      <trkpt lat="47.52311" lon="6.65981">
        <ele>368</ele>
        <time>2016-07-28T14:00:21.000Z</time>
      </trkpt>
      <trkpt lat="47.52309" lon="6.65986">
        <ele>369</ele>
        <time>2016-07-28T14:00:22.000Z</time>
      </trkpt>
      <trkpt lat="47.52306" lon="6.65992">
        <ele>369</ele>
        <time>2016-07-28T14:00:23.000Z</time>
      </trkpt>
      <trkpt lat="47.52304" lon="6.65997">
        <ele>369</ele>
        <time>2016-07-28T14:00:23.999Z</time>
      </trkpt>
      <trkpt lat="47.523" lon="6.66003">
        <ele>371</ele>
        <time>2016-07-28T14:00:25.000Z</time>
      </trkpt>
      <trkpt lat="47.52296" lon="6.66009">
        <ele>371</ele>
        <time>2016-07-28T14:00:26.000Z</time>
      </trkpt>
      <trkpt lat="47.52293" lon="6.66015">
        <ele>371</ele>
        <time>2016-07-28T14:00:27.000Z</time>
      </trkpt>
      <trkpt lat="47.5229" lon="6.6602">
        <ele>371</ele>
        <time>2016-07-28T14:00:28.000Z</time>
      </trkpt>
      <trkpt lat="47.52288" lon="6.66025">
        <ele>371</ele>
        <time>2016-07-28T14:00:29.000Z</time>
      </trkpt>
      <trkpt lat="47.52285" lon="6.66031">
        <ele>371</ele>
        <time>2016-07-28T14:00:30.000Z</time>
      </trkpt>
      <trkpt lat="47.52283" lon="6.66035">
        <ele>371</ele>
        <time>2016-07-28T14:00:31.000Z</time>
      </trkpt>
      <trkpt lat="47.5228" lon="6.66041">
        <ele>371</ele>
        <time>2016-07-28T14:00:32.000Z</time>
      </trkpt>
      <trkpt lat="47.52276" lon="6.66046">
        <ele>371</ele>
        <time>2016-07-28T14:00:33.000Z</time>
      </trkpt>
      <trkpt lat="47.52274" lon="6.66051">
        <ele>371</ele>
        <time>2016-07-28T14:00:34.000Z</time>
      </trkpt>
      <trkpt lat="47.52271" lon="6.66055">
        <ele>372</ele>
        <time>2016-07-28T14:00:35.000Z</time>
      </trkpt>
      <trkpt lat="47.52268" lon="6.6606">
        <ele>372</ele>
        <time>2016-07-28T14:00:36.000Z</time>
      </trkpt>
      <trkpt lat="47.52265" lon="6.66064">
        <ele>372</ele>
        <time>2016-07-28T14:00:37.000Z</time>
      </trkpt>
      <trkpt lat="47.52262" lon="6.66068">
        <ele>372</ele>
        <time>2016-07-28T14:00:38.000Z</time>
      </trkpt>
      <trkpt lat="47.52259" lon="6.66072">
        <ele>372</ele>
        <time>2016-07-28T14:00:39.000Z</time>
      </trkpt>
      <trkpt lat="47.52257" lon="6.66076">
        <ele>372</ele>
        <time>2016-07-28T14:00:40.000Z</time>
      </trkpt>
      <trkpt lat="47.52255" lon="6.66079">
        <ele>373</ele>
        <time>2016-07-28T14:00:41.000Z</time>
      </trkpt>
      <trkpt lat="47.52253" lon="6.66084">
        <ele>373</ele>
        <time>2016-07-28T14:00:43.000Z</time>
      </trkpt>
      <trkpt lat="47.52252" lon="6.66086">
        <ele>373</ele>
        <time>2016-07-28T14:00:44.000Z</time>
      </trkpt>
      <trkpt lat="47.52251" lon="6.66092">
        <ele>373</ele>
        <time>2016-07-28T14:00:46.000Z</time>
      </trkpt>
      <trkpt lat="47.5225" lon="6.66096">
        <ele>374</ele>
        <time>2016-07-28T14:00:47.000Z</time>
      </trkpt>
      <trkpt lat="47.52251" lon="6.661">
        <ele>374</ele>
        <time>2016-07-28T14:00:48.000Z</time>
      </trkpt>
      <trkpt lat="47.52251" lon="6.66105">
        <ele>374</ele>
        <time>2016-07-28T14:00:49.000Z</time>
      </trkpt>
      <trkpt lat="47.52251" lon="6.66109">
        <ele>374</ele>
        <time>2016-07-28T14:00:50.000Z</time>
      </trkpt>
      <trkpt lat="47.52252" lon="6.66114">
        <ele>374</ele>
        <time>2016-07-28T14:00:51.000Z</time>
      </trkpt>
      <trkpt lat="47.52249" lon="6.66118">
        <ele>375</ele>
        <time>2016-07-28T14:00:52.000Z</time>
      </trkpt>
      <trkpt lat="47.52247" lon="6.66121">
        <ele>375</ele>
        <time>2016-07-28T14:00:53.000Z</time>
      </trkpt>
      <trkpt lat="47.52245" lon="6.66125">
        <ele>375</ele>
        <time>2016-07-28T14:00:54.000Z</time>
      </trkpt>
      <trkpt lat="47.52242" lon="6.66129">
        <ele>375</ele>
        <time>2016-07-28T14:00:55.000Z</time>
      </trkpt>
      <trkpt lat="47.5224" lon="6.66132">
        <ele>375</ele>
        <time>2016-07-28T14:00:56.000Z</time>
      </trkpt>
      <trkpt lat="47.52238" lon="6.66136">
        <ele>375</ele>
        <time>2016-07-28T14:00:57.000Z</time>
      </trkpt>
      <trkpt lat="47.52235" lon="6.66139">
        <ele>375</ele>
        <time>2016-07-28T14:00:58.000Z</time>
      </trkpt>
      <trkpt lat="47.52232" lon="6.66143">
        <ele>375</ele>
        <time>2016-07-28T14:00:59.000Z</time>
      </trkpt>
      <trkpt lat="47.5223" lon="6.66146">
        <ele>376</ele>
        <time>2016-07-28T14:01:00.000Z</time>
      </trkpt>
      <trkpt lat="47.52227" lon="6.66149">
        <ele>376</ele>
        <time>2016-07-28T14:01:01.000Z</time>
      </trkpt>
      <trkpt lat="47.52224" lon="6.66153">
        <ele>376</ele>
        <time>2016-07-28T14:01:02.000Z</time>
      </trkpt>
      <trkpt lat="47.52222" lon="6.66156">
        <ele>376</ele>
        <time>2016-07-28T14:01:03.000Z</time>
      </trkpt>
      <trkpt lat="47.52219" lon="6.66158">
        <ele>376</ele>
        <time>2016-07-28T14:01:04.000Z</time>
      </trkpt>
      <trkpt lat="47.52217" lon="6.66161">
        <ele>376</ele>
        <time>2016-07-28T14:01:05.000Z</time>
      </trkpt>
      <trkpt lat="47.52215" lon="6.66164">
        <ele>376</ele>
        <time>2016-07-28T14:01:05.999Z</time>
      </trkpt>
      <trkpt lat="47.52212" lon="6.66167">
        <ele>376</ele>
        <time>2016-07-28T14:01:07.000Z</time>
      </trkpt>
      <trkpt lat="47.52209" lon="6.66169">
        <ele>378</ele>
        <time>2016-07-28T14:01:08.000Z</time>
      </trkpt>
      <trkpt lat="47.52207" lon="6.66172">
        <ele>378</ele>
        <time>2016-07-28T14:01:09.000Z</time>
      </trkpt>
      <trkpt lat="47.52204" lon="6.66176">
        <ele>378</ele>
        <time>2016-07-28T14:01:10.000Z</time>
      </trkpt>
      <trkpt lat="47.52202" lon="6.6618">
        <ele>378</ele>
        <time>2016-07-28T14:01:11.000Z</time>
      </trkpt>
      <trkpt lat="47.522" lon="6.66183">
        <ele>378</ele>
        <time>2016-07-28T14:01:12.001Z</time>
      </trkpt>
      <trkpt lat="47.52198" lon="6.66187">
        <ele>378</ele>
        <time>2016-07-28T14:01:13.000Z</time>
      </trkpt>
      <trkpt lat="47.52196" lon="6.66191">
        <ele>378</ele>
        <time>2016-07-28T14:01:14.000Z</time>
      </trkpt>
      <trkpt lat="47.52193" lon="6.66194">
        <ele>378</ele>
        <time>2016-07-28T14:01:15.000Z</time>
      </trkpt>
      <trkpt lat="47.52191" lon="6.66198">
        <ele>378</ele>
        <time>2016-07-28T14:01:16.000Z</time>
      </trkpt>
      <trkpt lat="47.5219" lon="6.66201">
        <ele>378</ele>
        <time>2016-07-28T14:01:17.000Z</time>
      </trkpt>
      <trkpt lat="47.52188" lon="6.66205">
        <ele>378</ele>
        <time>2016-07-28T14:01:17.999Z</time>
      </trkpt>
      <trkpt lat="47.52186" lon="6.66209">
        <ele>378</ele>
        <time>2016-07-28T14:01:19.000Z</time>
      </trkpt>
      <trkpt lat="47.52184" lon="6.66212">
        <ele>378</ele>
        <time>2016-07-28T14:01:20.000Z</time>
      </trkpt>
      <trkpt lat="47.52182" lon="6.66215">
        <ele>378</ele>
        <time>2016-07-28T14:01:21.000Z</time>
      </trkpt>
      <trkpt lat="47.52179" lon="6.66218">
        <ele>378</ele>
        <time>2016-07-28T14:01:22.000Z</time>
      </trkpt>
      <trkpt lat="47.52177" lon="6.66222">
        <ele>378</ele>
        <time>2016-07-28T14:01:23.000Z</time>
      </trkpt>
      <trkpt lat="47.52175" lon="6.66225">
        <ele>378</ele>
        <time>2016-07-28T14:01:24.000Z</time>
      </trkpt>
      <trkpt lat="47.52172" lon="6.66228">
        <ele>378</ele>
        <time>2016-07-28T14:01:25.000Z</time>
      </trkpt>
      <trkpt lat="47.5217" lon="6.66232">
        <ele>379</ele>
        <time>2016-07-28T14:01:26.000Z</time>
      </trkpt>
      <trkpt lat="47.52168" lon="6.66235">
        <ele>379</ele>
        <time>2016-07-28T14:01:27.000Z</time>
      </trkpt>
      <trkpt lat="47.52165" lon="6.66239">
        <ele>379</ele>
        <time>2016-07-28T14:01:28.000Z</time>
      </trkpt>
      <trkpt lat="47.5216" lon="6.66245">
        <ele>379</ele>
        <time>2016-07-28T14:01:29.999Z</time>
      </trkpt>
      <trkpt lat="47.52157" lon="6.66249">
        <ele>379</ele>
        <time>2016-07-28T14:01:31.000Z</time>
      </trkpt>
      <trkpt lat="47.52155" lon="6.66252">
        <ele>379</ele>
        <time>2016-07-28T14:01:32.000Z</time>
      </trkpt>
      <trkpt lat="47.52152" lon="6.66255">
        <ele>379</ele>
        <time>2016-07-28T14:01:33.000Z</time>
      </trkpt>
      <trkpt lat="47.52149" lon="6.66258">
        <ele>378</ele>
        <time>2016-07-28T14:01:34.000Z</time>
      </trkpt>
      <trkpt lat="47.52146" lon="6.66261">
        <ele>378</ele>
        <time>2016-07-28T14:01:34.999Z</time>
      </trkpt>
      <trkpt lat="47.52142" lon="6.66265">
        <ele>378</ele>
        <time>2016-07-28T14:01:36.000Z</time>
      </trkpt>
      <trkpt lat="47.52139" lon="6.66269">
        <ele>378</ele>
        <time>2016-07-28T14:01:37.000Z</time>
      </trkpt>
      <trkpt lat="47.52136" lon="6.66273">
        <ele>378</ele>
        <time>2016-07-28T14:01:38.000Z</time>
      </trkpt>
      <trkpt lat="47.52132" lon="6.66279">
        <ele>378</ele>
        <time>2016-07-28T14:01:39.000Z</time>
      </trkpt>
      <trkpt lat="47.52128" lon="6.66284">
        <ele>378</ele>
        <time>2016-07-28T14:01:40.001Z</time>
      </trkpt>
      <trkpt lat="47.52125" lon="6.66287">
        <ele>378</ele>
        <time>2016-07-28T14:01:41.000Z</time>
      </trkpt>
      <trkpt lat="47.52121" lon="6.66292">
        <ele>378</ele>
        <time>2016-07-28T14:01:42.000Z</time>
      </trkpt>
      <trkpt lat="47.52117" lon="6.66296">
        <ele>378</ele>
        <time>2016-07-28T14:01:43.000Z</time>
      </trkpt>
      <trkpt lat="47.52114" lon="6.66302">
        <ele>378</ele>
        <time>2016-07-28T14:01:44.000Z</time>
      </trkpt>
      <trkpt lat="47.52111" lon="6.66307">
        <ele>378</ele>
        <time>2016-07-28T14:01:45.000Z</time>
      </trkpt>
      <trkpt lat="47.52108" lon="6.66313">
        <ele>378</ele>
        <time>2016-07-28T14:01:46.000Z</time>
      </trkpt>
      <trkpt lat="47.52106" lon="6.6632">
        <ele>377</ele>
        <time>2016-07-28T14:01:47.000Z</time>
      </trkpt>
      <trkpt lat="47.52104" lon="6.66326">
        <ele>377</ele>
        <time>2016-07-28T14:01:48.000Z</time>
      </trkpt>
      <trkpt lat="47.52102" lon="6.66332">
        <ele>377</ele>
        <time>2016-07-28T14:01:49.000Z</time>
      </trkpt>
      <trkpt lat="47.52106" lon="6.66341">
        <ele>377</ele>
        <time>2016-07-28T14:01:50.000Z</time>
      </trkpt>
      <trkpt lat="47.52106" lon="6.66348">
        <ele>377</ele>
        <time>2016-07-28T14:01:50.998Z</time>
      </trkpt>
      <trkpt lat="47.52106" lon="6.66355">
        <ele>377</ele>
        <time>2016-07-28T14:01:52.000Z</time>
      </trkpt>
      <trkpt lat="47.52107" lon="6.66363">
        <ele>377</ele>
        <time>2016-07-28T14:01:53.000Z</time>
      </trkpt>
      <trkpt lat="47.52107" lon="6.66371">
        <ele>377</ele>
        <time>2016-07-28T14:01:54.000Z</time>
      </trkpt>
      <trkpt lat="47.52108" lon="6.66378">
        <ele>377</ele>
        <time>2016-07-28T14:01:55.000Z</time>
      </trkpt>
      <trkpt lat="47.52109" lon="6.66385">
        <ele>377</ele>
        <time>2016-07-28T14:01:56.000Z</time>
      </trkpt>
      <trkpt lat="47.5211" lon="6.66393">
        <ele>377</ele>
        <time>2016-07-28T14:01:57.000Z</time>
      </trkpt>
      <trkpt lat="47.5211" lon="6.66401">
        <ele>377</ele>
        <time>2016-07-28T14:01:58.001Z</time>
      </trkpt>
      <trkpt lat="47.52112" lon="6.66407">
        <ele>377</ele>
        <time>2016-07-28T14:01:59.000Z</time>
      </trkpt>
      <trkpt lat="47.52114" lon="6.66414">
        <ele>377</ele>
        <time>2016-07-28T14:02:00.000Z</time>
      </trkpt>
      <trkpt lat="47.52114" lon="6.66421">
        <ele>377</ele>
        <time>2016-07-28T14:02:01.000Z</time>
      </trkpt>
      <trkpt lat="47.52115" lon="6.66429">
        <ele>377</ele>
        <time>2016-07-28T14:02:02.000Z</time>
      </trkpt>
      <trkpt lat="47.52116" lon="6.66436">
        <ele>377</ele>
        <time>2016-07-28T14:02:03.000Z</time>
      </trkpt>
      <trkpt lat="47.52116" lon="6.66444">
        <ele>378</ele>
        <time>2016-07-28T14:02:04.000Z</time>
      </trkpt>
      <trkpt lat="47.52115" lon="6.66452">
        <ele>378</ele>
        <time>2016-07-28T14:02:05.000Z</time>
      </trkpt>
      <trkpt lat="47.52115" lon="6.66459">
        <ele>378</ele>
        <time>2016-07-28T14:02:06.000Z</time>
      </trkpt>
      <trkpt lat="47.52115" lon="6.66466">
        <ele>378</ele>
        <time>2016-07-28T14:02:07.000Z</time>
      </trkpt>
      <trkpt lat="47.52115" lon="6.66472">
        <ele>378</ele>
        <time>2016-07-28T14:02:08.000Z</time>
      </trkpt>
      <trkpt lat="47.52114" lon="6.6648">
        <ele>378</ele>
        <time>2016-07-28T14:02:09.000Z</time>
      </trkpt>
      <trkpt lat="47.52114" lon="6.66488">
        <ele>378</ele>
        <time>2016-07-28T14:02:10.000Z</time>
      </trkpt>
      <trkpt lat="47.52114" lon="6.66497">
        <ele>378</ele>
        <time>2016-07-28T14:02:11.000Z</time>
      </trkpt>
      <trkpt lat="47.52114" lon="6.66504">
        <ele>378</ele>
        <time>2016-07-28T14:02:12.000Z</time>
      </trkpt>
      <trkpt lat="47.52113" lon="6.66511">
        <ele>378</ele>
        <time>2016-07-28T14:02:13.000Z</time>
      </trkpt>
      <trkpt lat="47.52113" lon="6.66517">
        <ele>378</ele>
        <time>2016-07-28T14:02:14.000Z</time>
      </trkpt>
      <trkpt lat="47.52112" lon="6.66523">
        <ele>378</ele>
        <time>2016-07-28T14:02:15.000Z</time>
      </trkpt>
      <trkpt lat="47.52112" lon="6.66531">
        <ele>378</ele>
        <time>2016-07-28T14:02:16.000Z</time>
      </trkpt>
      <trkpt lat="47.52111" lon="6.66537">
        <ele>378</ele>
        <time>2016-07-28T14:02:17.000Z</time>
      </trkpt>
      <trkpt lat="47.5211" lon="6.66544">
        <ele>378</ele>
        <time>2016-07-28T14:02:18.000Z</time>
      </trkpt>
      <trkpt lat="47.5211" lon="6.6655">
        <ele>378</ele>
        <time>2016-07-28T14:02:19.000Z</time>
      </trkpt>
      <trkpt lat="47.52109" lon="6.66557">
        <ele>378</ele>
        <time>2016-07-28T14:02:20.000Z</time>
      </trkpt>
      <trkpt lat="47.52109" lon="6.66564">
        <ele>378</ele>
        <time>2016-07-28T14:02:21.000Z</time>
      </trkpt>
      <trkpt lat="47.52109" lon="6.6657">
        <ele>378</ele>
        <time>2016-07-28T14:02:22.000Z</time>
      </trkpt>
      <trkpt lat="47.52109" lon="6.66577">
        <ele>377</ele>
        <time>2016-07-28T14:02:23.000Z</time>
      </trkpt>
      <trkpt lat="47.52109" lon="6.66584">
        <ele>377</ele>
        <time>2016-07-28T14:02:24.000Z</time>
      </trkpt>
      <trkpt lat="47.52109" lon="6.66591">
        <ele>377</ele>
        <time>2016-07-28T14:02:25.000Z</time>
      </trkpt>
      <trkpt lat="47.52109" lon="6.66598">
        <ele>378</ele>
        <time>2016-07-28T14:02:26.000Z</time>
      </trkpt>
      <trkpt lat="47.5211" lon="6.66606">
        <ele>378</ele>
        <time>2016-07-28T14:02:27.000Z</time>
      </trkpt>
      <trkpt lat="47.5211" lon="6.66613">
        <ele>378</ele>
        <time>2016-07-28T14:02:28.000Z</time>
      </trkpt>
      <trkpt lat="47.52109" lon="6.66621">
        <ele>378</ele>
        <time>2016-07-28T14:02:29.000Z</time>
      </trkpt>
      <trkpt lat="47.52109" lon="6.66629">
        <ele>378</ele>
        <time>2016-07-28T14:02:30.000Z</time>
      </trkpt>
      <trkpt lat="47.52109" lon="6.66636">
        <ele>378</ele>
        <time>2016-07-28T14:02:31.000Z</time>
      </trkpt>
      <trkpt lat="47.52108" lon="6.66643">
        <ele>378</ele>
        <time>2016-07-28T14:02:32.000Z</time>
      </trkpt>
      <trkpt lat="47.52109" lon="6.6665">
        <ele>378</ele>
        <time>2016-07-28T14:02:33.000Z</time>
      </trkpt>
      <trkpt lat="47.52109" lon="6.66658">
        <ele>378</ele>
        <time>2016-07-28T14:02:34.000Z</time>
      </trkpt>
      <trkpt lat="47.52109" lon="6.66666">
        <ele>378</ele>
        <time>2016-07-28T14:02:35.000Z</time>
      </trkpt>
      <trkpt lat="47.52109" lon="6.66674">
        <ele>377</ele>
        <time>2016-07-28T14:02:36.000Z</time>
      </trkpt>
      <trkpt lat="47.52109" lon="6.66681">
        <ele>377</ele>
        <time>2016-07-28T14:02:37.000Z</time>
      </trkpt>
      <trkpt lat="47.52109" lon="6.66689">
        <ele>377</ele>
        <time>2016-07-28T14:02:38.000Z</time>
      </trkpt>
      <trkpt lat="47.52109" lon="6.66698">
        <ele>377</ele>
        <time>2016-07-28T14:02:39.000Z</time>
      </trkpt>
      <trkpt lat="47.52108" lon="6.66706">
        <ele>377</ele>
        <time>2016-07-28T14:02:40.000Z</time>
      </trkpt>
      <trkpt lat="47.52107" lon="6.66715">
        <ele>377</ele>
        <time>2016-07-28T14:02:41.000Z</time>
      </trkpt>
      <trkpt lat="47.52107" lon="6.66724">
        <ele>377</ele>
        <time>2016-07-28T14:02:42.000Z</time>
      </trkpt>
      <trkpt lat="47.52106" lon="6.66734">
        <ele>377</ele>
        <time>2016-07-28T14:02:43.000Z</time>
      </trkpt>
      <trkpt lat="47.52106" lon="6.66741">
        <ele>377</ele>
        <time>2016-07-28T14:02:44.000Z</time>
      </trkpt>
      <trkpt lat="47.52105" lon="6.66751">
        <ele>377</ele>
        <time>2016-07-28T14:02:45.000Z</time>
      </trkpt>
      <trkpt lat="47.52105" lon="6.6676">
        <ele>377</ele>
        <time>2016-07-28T14:02:45.999Z</time>
      </trkpt>
      <trkpt lat="47.52104" lon="6.6677">
        <ele>377</ele>
        <time>2016-07-28T14:02:47.000Z</time>
      </trkpt>
      <trkpt lat="47.52105" lon="6.66778">
        <ele>377</ele>
        <time>2016-07-28T14:02:48.000Z</time>
      </trkpt>
      <trkpt lat="47.52105" lon="6.66789">
        <ele>377</ele>
        <time>2016-07-28T14:02:49.000Z</time>
      </trkpt>
      <trkpt lat="47.52104" lon="6.66798">
        <ele>377</ele>
        <time>2016-07-28T14:02:49.999Z</time>
      </trkpt>
      <trkpt lat="47.52104" lon="6.66809">
        <ele>377</ele>
        <time>2016-07-28T14:02:51.000Z</time>
      </trkpt>
      <trkpt lat="47.52103" lon="6.66819">
        <ele>376</ele>
        <time>2016-07-28T14:02:52.000Z</time>
      </trkpt>
      <trkpt lat="47.52102" lon="6.66829">
        <ele>376</ele>
        <time>2016-07-28T14:02:53.000Z</time>
      </trkpt>
      <trkpt lat="47.52103" lon="6.66839">
        <ele>376</ele>
        <time>2016-07-28T14:02:54.000Z</time>
      </trkpt>
      <trkpt lat="47.52103" lon="6.6685">
        <ele>376</ele>
        <time>2016-07-28T14:02:55.000Z</time>
      </trkpt>
      <trkpt lat="47.52104" lon="6.6686">
        <ele>376</ele>
        <time>2016-07-28T14:02:56.000Z</time>
      </trkpt>
      <trkpt lat="47.52105" lon="6.66871">
        <ele>376</ele>
        <time>2016-07-28T14:02:57.000Z</time>
      </trkpt>
      <trkpt lat="47.52104" lon="6.66883">
        <ele>376</ele>
        <time>2016-07-28T14:02:58.000Z</time>
      </trkpt>
      <trkpt lat="47.52105" lon="6.66893">
        <ele>376</ele>
        <time>2016-07-28T14:02:59.000Z</time>
      </trkpt>
      <trkpt lat="47.52105" lon="6.66903">
        <ele>376</ele>
        <time>2016-07-28T14:03:00.000Z</time>
      </trkpt>
      <trkpt lat="47.52105" lon="6.66913">
        <ele>376</ele>
        <time>2016-07-28T14:03:01.000Z</time>
      </trkpt>
      <trkpt lat="47.52106" lon="6.66924">
        <ele>375</ele>
        <time>2016-07-28T14:03:02.000Z</time>
      </trkpt>
      <trkpt lat="47.52106" lon="6.66935">
        <ele>375</ele>
        <time>2016-07-28T14:03:03.000Z</time>
      </trkpt>
      <trkpt lat="47.52106" lon="6.66946">
        <ele>375</ele>
        <time>2016-07-28T14:03:04.000Z</time>
      </trkpt>
      <trkpt lat="47.52106" lon="6.66956">
        <ele>375</ele>
        <time>2016-07-28T14:03:05.000Z</time>
      </trkpt>
      <trkpt lat="47.52106" lon="6.66968">
        <ele>375</ele>
        <time>2016-07-28T14:03:06.000Z</time>
      </trkpt>
      <trkpt lat="47.52108" lon="6.66978">
        <ele>375</ele>
        <time>2016-07-28T14:03:07.000Z</time>
      </trkpt>
      <trkpt lat="47.52109" lon="6.66988">
        <ele>375</ele>
        <time>2016-07-28T14:03:08.000Z</time>
      </trkpt>
      <trkpt lat="47.52111" lon="6.67">
        <ele>375</ele>
        <time>2016-07-28T14:03:09.000Z</time>
      </trkpt>
      <trkpt lat="47.52114" lon="6.6701">
        <ele>374</ele>
        <time>2016-07-28T14:03:10.000Z</time>
      </trkpt>
      <trkpt lat="47.52117" lon="6.6702">
        <ele>374</ele>
        <time>2016-07-28T14:03:11.000Z</time>
      </trkpt>
      <trkpt lat="47.52118" lon="6.67031">
        <ele>374</ele>
        <time>2016-07-28T14:03:12.000Z</time>
      </trkpt>
      <trkpt lat="47.52121" lon="6.67042">
        <ele>374</ele>
        <time>2016-07-28T14:03:13.000Z</time>
      </trkpt>
      <trkpt lat="47.52123" lon="6.67053">
        <ele>374</ele>
        <time>2016-07-28T14:03:14.000Z</time>
      </trkpt>
      <trkpt lat="47.52126" lon="6.67064">
        <ele>374</ele>
        <time>2016-07-28T14:03:15.000Z</time>
      </trkpt>
      <trkpt lat="47.52129" lon="6.67074">
        <ele>374</ele>
        <time>2016-07-28T14:03:16.000Z</time>
      </trkpt>
      <trkpt lat="47.52131" lon="6.67084">
        <ele>373</ele>
        <time>2016-07-28T14:03:17.000Z</time>
      </trkpt>
      <trkpt lat="47.52133" lon="6.67095">
        <ele>373</ele>
        <time>2016-07-28T14:03:18.000Z</time>
      </trkpt>
      <trkpt lat="47.52136" lon="6.67106">
        <ele>372</ele>
        <time>2016-07-28T14:03:19.000Z</time>
      </trkpt>
      <trkpt lat="47.52138" lon="6.67116">
        <ele>372</ele>
        <time>2016-07-28T14:03:20.000Z</time>
      </trkpt>
      <trkpt lat="47.5214" lon="6.67127">
        <ele>372</ele>
        <time>2016-07-28T14:03:21.000Z</time>
      </trkpt>
      <trkpt lat="47.52142" lon="6.67137">
        <ele>372</ele>
        <time>2016-07-28T14:03:22.000Z</time>
      </trkpt>
      <trkpt lat="47.52144" lon="6.67148">
        <ele>372</ele>
        <time>2016-07-28T14:03:23.000Z</time>
      </trkpt>
      <trkpt lat="47.52145" lon="6.67157">
        <ele>372</ele>
        <time>2016-07-28T14:03:24.000Z</time>
      </trkpt>
      <trkpt lat="47.52147" lon="6.67167">
        <ele>372</ele>
        <time>2016-07-28T14:03:25.000Z</time>
      </trkpt>
      <trkpt lat="47.52148" lon="6.67175">
        <ele>372</ele>
        <time>2016-07-28T14:03:26.000Z</time>
      </trkpt>
      <trkpt lat="47.5215" lon="6.67185">
        <ele>372</ele>
        <time>2016-07-28T14:03:27.000Z</time>
      </trkpt>
      <trkpt lat="47.52152" lon="6.67194">
        <ele>372</ele>
        <time>2016-07-28T14:03:28.000Z</time>
      </trkpt>
      <trkpt lat="47.52153" lon="6.67203">
        <ele>371</ele>
        <time>2016-07-28T14:03:29.000Z</time>
      </trkpt>
      <trkpt lat="47.52155" lon="6.67211">
        <ele>371</ele>
        <time>2016-07-28T14:03:30.000Z</time>
      </trkpt>
      <trkpt lat="47.52156" lon="6.6722">
        <ele>372</ele>
        <time>2016-07-28T14:03:31.000Z</time>
      </trkpt>
      <trkpt lat="47.52158" lon="6.67229">
        <ele>372</ele>
        <time>2016-07-28T14:03:32.000Z</time>
      </trkpt>
      <trkpt lat="47.52159" lon="6.67237">
        <ele>372</ele>
        <time>2016-07-28T14:03:33.000Z</time>
      </trkpt>
      <trkpt lat="47.52161" lon="6.67246">
        <ele>372</ele>
        <time>2016-07-28T14:03:34.000Z</time>
      </trkpt>
      <trkpt lat="47.52162" lon="6.67255">
        <ele>372</ele>
        <time>2016-07-28T14:03:35.000Z</time>
      </trkpt>
      <trkpt lat="47.52163" lon="6.67264">
        <ele>372</ele>
        <time>2016-07-28T14:03:36.000Z</time>
      </trkpt>
      <trkpt lat="47.52164" lon="6.67273">
        <ele>371</ele>
        <time>2016-07-28T14:03:37.000Z</time>
      </trkpt>
      <trkpt lat="47.52165" lon="6.67281">
        <ele>371</ele>
        <time>2016-07-28T14:03:38.000Z</time>
      </trkpt>
      <trkpt lat="47.52165" lon="6.6729">
        <ele>371</ele>
        <time>2016-07-28T14:03:39.000Z</time>
      </trkpt>
      <trkpt lat="47.52166" lon="6.67299">
        <ele>371</ele>
        <time>2016-07-28T14:03:40.000Z</time>
      </trkpt>
      <trkpt lat="47.52166" lon="6.67309">
        <ele>371</ele>
        <time>2016-07-28T14:03:41.000Z</time>
      </trkpt>
      <trkpt lat="47.52166" lon="6.67319">
        <ele>372</ele>
        <time>2016-07-28T14:03:42.000Z</time>
      </trkpt>
      <trkpt lat="47.52167" lon="6.67329">
        <ele>372</ele>
        <time>2016-07-28T14:03:43.000Z</time>
      </trkpt>
      <trkpt lat="47.52168" lon="6.67339">
        <ele>372</ele>
        <time>2016-07-28T14:03:44.000Z</time>
      </trkpt>
      <trkpt lat="47.52169" lon="6.67349">
        <ele>372</ele>
        <time>2016-07-28T14:03:45.000Z</time>
      </trkpt>
      <trkpt lat="47.52171" lon="6.6736">
        <ele>372</ele>
        <time>2016-07-28T14:03:46.000Z</time>
      </trkpt>
      <trkpt lat="47.52173" lon="6.67372">
        <ele>372</ele>
        <time>2016-07-28T14:03:47.000Z</time>
      </trkpt>
      <trkpt lat="47.52176" lon="6.67382">
        <ele>372</ele>
        <time>2016-07-28T14:03:48.000Z</time>
      </trkpt>
      <trkpt lat="47.52179" lon="6.67394">
        <ele>372</ele>
        <time>2016-07-28T14:03:49.000Z</time>
      </trkpt>
      <trkpt lat="47.52182" lon="6.67404">
        <ele>371</ele>
        <time>2016-07-28T14:03:50.001Z</time>
      </trkpt>
      <trkpt lat="47.52185" lon="6.67414">
        <ele>371</ele>
        <time>2016-07-28T14:03:51.000Z</time>
      </trkpt>
      <trkpt lat="47.52189" lon="6.67424">
        <ele>371</ele>
        <time>2016-07-28T14:03:52.000Z</time>
      </trkpt>
      <trkpt lat="47.52192" lon="6.67433">
        <ele>371</ele>
        <time>2016-07-28T14:03:53.000Z</time>
      </trkpt>
      <trkpt lat="47.52195" lon="6.67443">
        <ele>371</ele>
        <time>2016-07-28T14:03:54.000Z</time>
      </trkpt>
      <trkpt lat="47.52197" lon="6.67452">
        <ele>371</ele>
        <time>2016-07-28T14:03:55.000Z</time>
      </trkpt>
      <trkpt lat="47.522" lon="6.67461">
        <ele>371</ele>
        <time>2016-07-28T14:03:56.000Z</time>
      </trkpt>
      <trkpt lat="47.52202" lon="6.6747">
        <ele>371</ele>
        <time>2016-07-28T14:03:57.000Z</time>
      </trkpt>
      <trkpt lat="47.52202" lon="6.67478">
        <ele>371</ele>
        <time>2016-07-28T14:03:58.000Z</time>
      </trkpt>
      <trkpt lat="47.52203" lon="6.67487">
        <ele>371</ele>
        <time>2016-07-28T14:03:59.000Z</time>
      </trkpt>
      <trkpt lat="47.52203" lon="6.67496">
        <ele>371</ele>
        <time>2016-07-28T14:04:00.000Z</time>
      </trkpt>
      <trkpt lat="47.52202" lon="6.67506">
        <ele>371</ele>
        <time>2016-07-28T14:04:01.000Z</time>
      </trkpt>
      <trkpt lat="47.52202" lon="6.67515">
        <ele>371</ele>
        <time>2016-07-28T14:04:02.000Z</time>
      </trkpt>
      <trkpt lat="47.52201" lon="6.67523">
        <ele>371</ele>
        <time>2016-07-28T14:04:02.999Z</time>
      </trkpt>
      <trkpt lat="47.52202" lon="6.6753">
        <ele>371</ele>
        <time>2016-07-28T14:04:04.000Z</time>
      </trkpt>
      <trkpt lat="47.52202" lon="6.67539">
        <ele>371</ele>
        <time>2016-07-28T14:04:05.000Z</time>
      </trkpt>
      <trkpt lat="47.52201" lon="6.67548">
        <ele>371</ele>
        <time>2016-07-28T14:04:06.000Z</time>
      </trkpt>
      <trkpt lat="47.52201" lon="6.67557">
        <ele>371</ele>
        <time>2016-07-28T14:04:06.999Z</time>
      </trkpt>
      <trkpt lat="47.52201" lon="6.67566">
        <ele>371</ele>
        <time>2016-07-28T14:04:08.000Z</time>
      </trkpt>
      <trkpt lat="47.522" lon="6.67575">
        <ele>370</ele>
        <time>2016-07-28T14:04:09.000Z</time>
      </trkpt>
      <trkpt lat="47.522" lon="6.67585">
        <ele>369</ele>
        <time>2016-07-28T14:04:10.001Z</time>
      </trkpt>
      <trkpt lat="47.522" lon="6.67595">
        <ele>369</ele>
        <time>2016-07-28T14:04:11.000Z</time>
      </trkpt>
      <trkpt lat="47.522" lon="6.67603">
        <ele>369</ele>
        <time>2016-07-28T14:04:12.000Z</time>
      </trkpt>
      <trkpt lat="47.52198" lon="6.67613">
        <ele>369</ele>
        <time>2016-07-28T14:04:13.000Z</time>
      </trkpt>
      <trkpt lat="47.52197" lon="6.67621">
        <ele>369</ele>
        <time>2016-07-28T14:04:14.000Z</time>
      </trkpt>
      <trkpt lat="47.52197" lon="6.67632">
        <ele>369</ele>
        <time>2016-07-28T14:04:15.000Z</time>
      </trkpt>
      <trkpt lat="47.52196" lon="6.67642">
        <ele>368</ele>
        <time>2016-07-28T14:04:16.000Z</time>
      </trkpt>
      <trkpt lat="47.52196" lon="6.67652">
        <ele>368</ele>
        <time>2016-07-28T14:04:17.000Z</time>
      </trkpt>
      <trkpt lat="47.52195" lon="6.67661">
        <ele>368</ele>
        <time>2016-07-28T14:04:18.000Z</time>
      </trkpt>
      <trkpt lat="47.52195" lon="6.6767">
        <ele>367</ele>
        <time>2016-07-28T14:04:19.000Z</time>
      </trkpt>
      <trkpt lat="47.52195" lon="6.6768">
        <ele>367</ele>
        <time>2016-07-28T14:04:20.000Z</time>
      </trkpt>
      <trkpt lat="47.52195" lon="6.6769">
        <ele>367</ele>
        <time>2016-07-28T14:04:21.000Z</time>
      </trkpt>
      <trkpt lat="47.52194" lon="6.677">
        <ele>367</ele>
        <time>2016-07-28T14:04:22.000Z</time>
      </trkpt>
      <trkpt lat="47.52194" lon="6.6771">
        <ele>367</ele>
        <time>2016-07-28T14:04:23.000Z</time>
      </trkpt>
      <trkpt lat="47.52195" lon="6.67721">
        <ele>367</ele>
        <time>2016-07-28T14:04:24.000Z</time>
      </trkpt>
      <trkpt lat="47.52195" lon="6.67731">
        <ele>367</ele>
        <time>2016-07-28T14:04:25.000Z</time>
      </trkpt>
      <trkpt lat="47.52194" lon="6.67742">
        <ele>367</ele>
        <time>2016-07-28T14:04:26.000Z</time>
      </trkpt>
      <trkpt lat="47.52193" lon="6.67753">
        <ele>366</ele>
        <time>2016-07-28T14:04:27.000Z</time>
      </trkpt>
      <trkpt lat="47.52193" lon="6.67762">
        <ele>366</ele>
        <time>2016-07-28T14:04:28.000Z</time>
      </trkpt>
      <trkpt lat="47.52192" lon="6.67773">
        <ele>366</ele>
        <time>2016-07-28T14:04:29.000Z</time>
      </trkpt>
      <trkpt lat="47.52191" lon="6.67784">
        <ele>366</ele>
        <time>2016-07-28T14:04:30.000Z</time>
      </trkpt>
      <trkpt lat="47.52191" lon="6.67795">
        <ele>366</ele>
        <time>2016-07-28T14:04:31.000Z</time>
      </trkpt>
      <trkpt lat="47.5219" lon="6.67805">
        <ele>366</ele>
        <time>2016-07-28T14:04:32.000Z</time>
      </trkpt>
      <trkpt lat="47.52187" lon="6.67815">
        <ele>366</ele>
        <time>2016-07-28T14:04:33.000Z</time>
      </trkpt>
      <trkpt lat="47.52186" lon="6.67826">
        <ele>365</ele>
        <time>2016-07-28T14:04:34.000Z</time>
      </trkpt>
      <trkpt lat="47.52186" lon="6.67836">
        <ele>365</ele>
        <time>2016-07-28T14:04:35.000Z</time>
      </trkpt>
      <trkpt lat="47.52185" lon="6.67848">
        <ele>365</ele>
        <time>2016-07-28T14:04:36.000Z</time>
      </trkpt>
      <trkpt lat="47.52184" lon="6.67858">
        <ele>365</ele>
        <time>2016-07-28T14:04:37.000Z</time>
      </trkpt>
      <trkpt lat="47.52184" lon="6.67867">
        <ele>365</ele>
        <time>2016-07-28T14:04:38.000Z</time>
      </trkpt>
      <trkpt lat="47.52183" lon="6.67878">
        <ele>364</ele>
        <time>2016-07-28T14:04:39.000Z</time>
      </trkpt>
      <trkpt lat="47.52182" lon="6.67887">
        <ele>364</ele>
        <time>2016-07-28T14:04:40.000Z</time>
      </trkpt>
      <trkpt lat="47.52181" lon="6.67897">
        <ele>364</ele>
        <time>2016-07-28T14:04:41.000Z</time>
      </trkpt>
      <trkpt lat="47.52181" lon="6.67907">
        <ele>364</ele>
        <time>2016-07-28T14:04:42.000Z</time>
      </trkpt>
      <trkpt lat="47.5218" lon="6.67918">
        <ele>364</ele>
        <time>2016-07-28T14:04:43.000Z</time>
      </trkpt>
      <trkpt lat="47.52178" lon="6.67928">
        <ele>364</ele>
        <time>2016-07-28T14:04:44.000Z</time>
      </trkpt>
      <trkpt lat="47.52178" lon="6.67938">
        <ele>364</ele>
        <time>2016-07-28T14:04:45.000Z</time>
      </trkpt>
      <trkpt lat="47.52177" lon="6.67948">
        <ele>364</ele>
        <time>2016-07-28T14:04:46.000Z</time>
      </trkpt>
      <trkpt lat="47.52176" lon="6.67958">
        <ele>364</ele>
        <time>2016-07-28T14:04:47.000Z</time>
      </trkpt>
      <trkpt lat="47.52175" lon="6.67968">
        <ele>363</ele>
        <time>2016-07-28T14:04:48.000Z</time>
      </trkpt>
      <trkpt lat="47.52175" lon="6.67979">
        <ele>363</ele>
        <time>2016-07-28T14:04:49.000Z</time>
      </trkpt>
      <trkpt lat="47.52174" lon="6.67989">
        <ele>363</ele>
        <time>2016-07-28T14:04:50.000Z</time>
      </trkpt>
      <trkpt lat="47.52173" lon="6.67999">
        <ele>363</ele>
        <time>2016-07-28T14:04:51.000Z</time>
      </trkpt>
      <trkpt lat="47.52172" lon="6.68009">
        <ele>363</ele>
        <time>2016-07-28T14:04:52.000Z</time>
      </trkpt>
      <trkpt lat="47.52171" lon="6.68019">
        <ele>363</ele>
        <time>2016-07-28T14:04:53.000Z</time>
      </trkpt>
      <trkpt lat="47.52172" lon="6.68028">
        <ele>363</ele>
        <time>2016-07-28T14:04:54.000Z</time>
      </trkpt>
      <trkpt lat="47.5217" lon="6.68038">
        <ele>363</ele>
        <time>2016-07-28T14:04:55.000Z</time>
      </trkpt>
      <trkpt lat="47.52169" lon="6.68048">
        <ele>362</ele>
        <time>2016-07-28T14:04:56.000Z</time>
      </trkpt>
      <trkpt lat="47.52169" lon="6.68058">
        <ele>362</ele>
        <time>2016-07-28T14:04:57.000Z</time>
      </trkpt>
      <trkpt lat="47.52168" lon="6.68067">
        <ele>362</ele>
        <time>2016-07-28T14:04:58.000Z</time>
      </trkpt>
      <trkpt lat="47.52167" lon="6.68077">
        <ele>362</ele>
        <time>2016-07-28T14:04:59.000Z</time>
      </trkpt>
      <trkpt lat="47.52166" lon="6.68086">
        <ele>362</ele>
        <time>2016-07-28T14:05:00.000Z</time>
      </trkpt>
      <trkpt lat="47.52166" lon="6.68094">
        <ele>362</ele>
        <time>2016-07-28T14:05:01.000Z</time>
      </trkpt>
      <trkpt lat="47.52165" lon="6.68102">
        <ele>362</ele>
        <time>2016-07-28T14:05:02.000Z</time>
      </trkpt>
      <trkpt lat="47.52164" lon="6.6811">
        <ele>362</ele>
        <time>2016-07-28T14:05:03.000Z</time>
      </trkpt>
      <trkpt lat="47.52162" lon="6.68118">
        <ele>361</ele>
        <time>2016-07-28T14:05:04.000Z</time>
      </trkpt>
      <trkpt lat="47.52161" lon="6.68126">
        <ele>361</ele>
        <time>2016-07-28T14:05:05.000Z</time>
      </trkpt>
      <trkpt lat="47.52158" lon="6.68131">
        <ele>361</ele>
        <time>2016-07-28T14:05:06.000Z</time>
      </trkpt>
      <trkpt lat="47.52155" lon="6.68138">
        <ele>361</ele>
        <time>2016-07-28T14:05:07.000Z</time>
      </trkpt>
      <trkpt lat="47.52153" lon="6.68145">
        <ele>361</ele>
        <time>2016-07-28T14:05:07.999Z</time>
      </trkpt>
      <trkpt lat="47.52152" lon="6.68153">
        <ele>361</ele>
        <time>2016-07-28T14:05:09.000Z</time>
      </trkpt>
      <trkpt lat="47.52153" lon="6.68164">
        <ele>361</ele>
        <time>2016-07-28T14:05:10.000Z</time>
      </trkpt>
      <trkpt lat="47.52153" lon="6.68174">
        <ele>360</ele>
        <time>2016-07-28T14:05:10.999Z</time>
      </trkpt>
      <trkpt lat="47.52154" lon="6.68185">
        <ele>360</ele>
        <time>2016-07-28T14:05:12.000Z</time>
      </trkpt>
      <trkpt lat="47.52155" lon="6.68195">
        <ele>360</ele>
        <time>2016-07-28T14:05:13.000Z</time>
      </trkpt>
      <trkpt lat="47.52155" lon="6.68205">
        <ele>360</ele>
        <time>2016-07-28T14:05:13.999Z</time>
      </trkpt>
      <trkpt lat="47.52157" lon="6.68216">
        <ele>360</ele>
        <time>2016-07-28T14:05:15.000Z</time>
      </trkpt>
      <trkpt lat="47.52158" lon="6.68227">
        <ele>360</ele>
        <time>2016-07-28T14:05:16.000Z</time>
      </trkpt>
      <trkpt lat="47.52162" lon="6.68239">
        <ele>359</ele>
        <time>2016-07-28T14:05:17.000Z</time>
      </trkpt>
      <trkpt lat="47.52165" lon="6.6825">
        <ele>359</ele>
        <time>2016-07-28T14:05:18.000Z</time>
      </trkpt>
      <trkpt lat="47.52169" lon="6.6826">
        <ele>359</ele>
        <time>2016-07-28T14:05:19.000Z</time>
      </trkpt>
      <trkpt lat="47.52172" lon="6.68271">
        <ele>359</ele>
        <time>2016-07-28T14:05:20.000Z</time>
      </trkpt>
      <trkpt lat="47.52174" lon="6.68282">
        <ele>359</ele>
        <time>2016-07-28T14:05:21.000Z</time>
      </trkpt>
      <trkpt lat="47.52177" lon="6.68292">
        <ele>359</ele>
        <time>2016-07-28T14:05:22.000Z</time>
      </trkpt>
      <trkpt lat="47.5218" lon="6.68303">
        <ele>359</ele>
        <time>2016-07-28T14:05:23.000Z</time>
      </trkpt>
      <trkpt lat="47.52182" lon="6.68311">
        <ele>359</ele>
        <time>2016-07-28T14:05:24.000Z</time>
      </trkpt>
      <trkpt lat="47.52184" lon="6.6832">
        <ele>359</ele>
        <time>2016-07-28T14:05:25.000Z</time>
      </trkpt>
      <trkpt lat="47.52185" lon="6.6833">
        <ele>359</ele>
        <time>2016-07-28T14:05:26.000Z</time>
      </trkpt>
      <trkpt lat="47.52186" lon="6.68339">
        <ele>359</ele>
        <time>2016-07-28T14:05:27.000Z</time>
      </trkpt>
      <trkpt lat="47.5219" lon="6.68348">
        <ele>359</ele>
        <time>2016-07-28T14:05:28.000Z</time>
      </trkpt>
      <trkpt lat="47.52192" lon="6.68356">
        <ele>359</ele>
        <time>2016-07-28T14:05:29.000Z</time>
      </trkpt>
      <trkpt lat="47.52194" lon="6.68365">
        <ele>359</ele>
        <time>2016-07-28T14:05:30.000Z</time>
      </trkpt>
      <trkpt lat="47.52196" lon="6.68373">
        <ele>359</ele>
        <time>2016-07-28T14:05:31.000Z</time>
      </trkpt>
      <trkpt lat="47.52197" lon="6.68382">
        <ele>359</ele>
        <time>2016-07-28T14:05:32.000Z</time>
      </trkpt>
      <trkpt lat="47.52198" lon="6.6839">
        <ele>359</ele>
        <time>2016-07-28T14:05:33.000Z</time>
      </trkpt>
      <trkpt lat="47.522" lon="6.68398">
        <ele>359</ele>
        <time>2016-07-28T14:05:34.000Z</time>
      </trkpt>
      <trkpt lat="47.52202" lon="6.68406">
        <ele>359</ele>
        <time>2016-07-28T14:05:35.000Z</time>
      </trkpt>
      <trkpt lat="47.52203" lon="6.68415">
        <ele>359</ele>
        <time>2016-07-28T14:05:36.000Z</time>
      </trkpt>
      <trkpt lat="47.52205" lon="6.68423">
        <ele>358</ele>
        <time>2016-07-28T14:05:37.000Z</time>
      </trkpt>
      <trkpt lat="47.52207" lon="6.68431">
        <ele>358</ele>
        <time>2016-07-28T14:05:38.000Z</time>
      </trkpt>
      <trkpt lat="47.52208" lon="6.68442">
        <ele>358</ele>
        <time>2016-07-28T14:05:39.000Z</time>
      </trkpt>
      <trkpt lat="47.52208" lon="6.68451">
        <ele>358</ele>
        <time>2016-07-28T14:05:40.000Z</time>
      </trkpt>
      <trkpt lat="47.5221" lon="6.6846">
        <ele>359</ele>
        <time>2016-07-28T14:05:41.000Z</time>
      </trkpt>
      <trkpt lat="47.52212" lon="6.68468">
        <ele>359</ele>
        <time>2016-07-28T14:05:42.000Z</time>
      </trkpt>
      <trkpt lat="47.52215" lon="6.68477">
        <ele>359</ele>
        <time>2016-07-28T14:05:43.000Z</time>
      </trkpt>
      <trkpt lat="47.52216" lon="6.68485">
        <ele>359</ele>
        <time>2016-07-28T14:05:44.000Z</time>
      </trkpt>
      <trkpt lat="47.52217" lon="6.68492">
        <ele>359</ele>
        <time>2016-07-28T14:05:45.000Z</time>
      </trkpt>
      <trkpt lat="47.52219" lon="6.685">
        <ele>359</ele>
        <time>2016-07-28T14:05:46.000Z</time>
      </trkpt>
      <trkpt lat="47.52221" lon="6.68507">
        <ele>360</ele>
        <time>2016-07-28T14:05:47.000Z</time>
      </trkpt>
      <trkpt lat="47.52222" lon="6.68514">
        <ele>360</ele>
        <time>2016-07-28T14:05:48.000Z</time>
      </trkpt>
      <trkpt lat="47.52224" lon="6.6852">
        <ele>360</ele>
        <time>2016-07-28T14:05:49.000Z</time>
      </trkpt>
      <trkpt lat="47.52226" lon="6.68526">
        <ele>360</ele>
        <time>2016-07-28T14:05:50.000Z</time>
      </trkpt>
      <trkpt lat="47.52228" lon="6.68534">
        <ele>360</ele>
        <time>2016-07-28T14:05:51.000Z</time>
      </trkpt>
      <trkpt lat="47.5223" lon="6.68539">
        <ele>360</ele>
        <time>2016-07-28T14:05:52.000Z</time>
      </trkpt>
      <trkpt lat="47.52232" lon="6.68543">
        <ele>360</ele>
        <time>2016-07-28T14:05:53.000Z</time>
      </trkpt>
      <trkpt lat="47.52234" lon="6.68548">
        <ele>360</ele>
        <time>2016-07-28T14:05:53.999Z</time>
      </trkpt>
      <trkpt lat="47.52237" lon="6.68552">
        <ele>361</ele>
        <time>2016-07-28T14:05:55.000Z</time>
      </trkpt>
      <trkpt lat="47.5224" lon="6.68556">
        <ele>361</ele>
        <time>2016-07-28T14:05:56.000Z</time>
      </trkpt>
      <trkpt lat="47.52243" lon="6.6856">
        <ele>361</ele>
        <time>2016-07-28T14:05:57.000Z</time>
      </trkpt>
      <trkpt lat="47.52246" lon="6.68564">
        <ele>361</ele>
        <time>2016-07-28T14:05:57.999Z</time>
      </trkpt>
      <trkpt lat="47.52249" lon="6.68566">
        <ele>361</ele>
        <time>2016-07-28T14:05:59.000Z</time>
      </trkpt>
      <trkpt lat="47.52252" lon="6.68568">
        <ele>364</ele>
        <time>2016-07-28T14:06:00.000Z</time>
      </trkpt>
      <trkpt lat="47.52256" lon="6.6857">
        <ele>364</ele>
        <time>2016-07-28T14:06:01.000Z</time>
      </trkpt>
      <trkpt lat="47.52259" lon="6.68572">
        <ele>364</ele>
        <time>2016-07-28T14:06:01.999Z</time>
      </trkpt>
      <trkpt lat="47.52262" lon="6.68574">
        <ele>364</ele>
        <time>2016-07-28T14:06:03.000Z</time>
      </trkpt>
      <trkpt lat="47.52266" lon="6.68575">
        <ele>364</ele>
        <time>2016-07-28T14:06:04.000Z</time>
      </trkpt>
      <trkpt lat="47.52269" lon="6.68576">
        <ele>365</ele>
        <time>2016-07-28T14:06:05.000Z</time>
      </trkpt>
      <trkpt lat="47.52272" lon="6.68577">
        <ele>365</ele>
        <time>2016-07-28T14:06:06.000Z</time>
      </trkpt>
      <trkpt lat="47.52275" lon="6.68577">
        <ele>365</ele>
        <time>2016-07-28T14:06:07.002Z</time>
      </trkpt>
      <trkpt lat="47.52279" lon="6.68577">
        <ele>365</ele>
        <time>2016-07-28T14:06:08.000Z</time>
      </trkpt>
      <trkpt lat="47.52282" lon="6.68576">
        <ele>365</ele>
        <time>2016-07-28T14:06:09.000Z</time>
      </trkpt>
      <trkpt lat="47.52285" lon="6.68576">
        <ele>366</ele>
        <time>2016-07-28T14:06:10.000Z</time>
      </trkpt>
      <trkpt lat="47.52288" lon="6.68575">
        <ele>366</ele>
        <time>2016-07-28T14:06:11.000Z</time>
      </trkpt>
      <trkpt lat="47.5229" lon="6.68575">
        <ele>366</ele>
        <time>2016-07-28T14:06:12.000Z</time>
      </trkpt>
      <trkpt lat="47.52292" lon="6.68574">
        <ele>366</ele>
        <time>2016-07-28T14:06:13.000Z</time>
      </trkpt>
      <trkpt lat="47.52296" lon="6.68572">
        <ele>366</ele>
        <time>2016-07-28T14:06:15.000Z</time>
      </trkpt>
      <trkpt lat="47.52297" lon="6.68571">
        <ele>367</ele>
        <time>2016-07-28T14:06:16.000Z</time>
      </trkpt>
      <trkpt lat="47.52301" lon="6.68567">
        <ele>367</ele>
        <time>2016-07-28T14:06:19.000Z</time>
      </trkpt>
      <trkpt lat="47.52303" lon="6.68566">
        <ele>367</ele>
        <time>2016-07-28T14:06:20.000Z</time>
      </trkpt>
      <trkpt lat="47.52306" lon="6.68563">
        <ele>367</ele>
        <time>2016-07-28T14:06:22.000Z</time>
      </trkpt>
      <trkpt lat="47.52309" lon="6.68562">
        <ele>367</ele>
        <time>2016-07-28T14:06:23.000Z</time>
      </trkpt>
      <trkpt lat="47.52312" lon="6.68561">
        <ele>367</ele>
        <time>2016-07-28T14:06:24.000Z</time>
      </trkpt>
      <trkpt lat="47.52314" lon="6.68559">
        <ele>367</ele>
        <time>2016-07-28T14:06:25.000Z</time>
      </trkpt>
      <trkpt lat="47.52318" lon="6.68555">
        <ele>367</ele>
        <time>2016-07-28T14:06:27.000Z</time>
      </trkpt>
      <trkpt lat="47.52319" lon="6.68553">
        <ele>367</ele>
        <time>2016-07-28T14:06:28.000Z</time>
      </trkpt>
      <trkpt lat="47.52324" lon="6.6855">
        <ele>367</ele>
        <time>2016-07-28T14:06:30.000Z</time>
      </trkpt>
      <trkpt lat="47.52326" lon="6.68549">
        <ele>367</ele>
        <time>2016-07-28T14:06:31.000Z</time>
      </trkpt>
      <trkpt lat="47.52328" lon="6.68549">
        <ele>367</ele>
        <time>2016-07-28T14:06:32.000Z</time>
      </trkpt>
      <trkpt lat="47.52332" lon="6.68548">
        <ele>367</ele>
        <time>2016-07-28T14:06:34.000Z</time>
      </trkpt>
      <trkpt lat="47.52335" lon="6.68546">
        <ele>371</ele>
        <time>2016-07-28T14:06:35.000Z</time>
      </trkpt>
      <trkpt lat="47.52337" lon="6.68545">
        <ele>371</ele>
        <time>2016-07-28T14:06:36.000Z</time>
      </trkpt>
      <trkpt lat="47.5234" lon="6.68544">
        <ele>371</ele>
        <time>2016-07-28T14:06:37.000Z</time>
      </trkpt>
      <trkpt lat="47.52343" lon="6.68543">
        <ele>371</ele>
        <time>2016-07-28T14:06:38.000Z</time>
      </trkpt>
      <trkpt lat="47.52345" lon="6.68543">
        <ele>371</ele>
        <time>2016-07-28T14:06:39.000Z</time>
      </trkpt>
      <trkpt lat="47.52348" lon="6.68544">
        <ele>371</ele>
        <time>2016-07-28T14:06:40.000Z</time>
      </trkpt>
      <trkpt lat="47.5235" lon="6.68544">
        <ele>371</ele>
        <time>2016-07-28T14:06:41.000Z</time>
      </trkpt>
      <trkpt lat="47.52352" lon="6.68545">
        <ele>371</ele>
        <time>2016-07-28T14:06:42.000Z</time>
      </trkpt>
      <trkpt lat="47.52355" lon="6.68546">
        <ele>371</ele>
        <time>2016-07-28T14:06:43.000Z</time>
      </trkpt>
      <trkpt lat="47.52358" lon="6.68548">
        <ele>371</ele>
        <time>2016-07-28T14:06:45.000Z</time>
      </trkpt>
      <trkpt lat="47.5236" lon="6.68551">
        <ele>371</ele>
        <time>2016-07-28T14:06:46.000Z</time>
      </trkpt>
      <trkpt lat="47.52362" lon="6.68554">
        <ele>371</ele>
        <time>2016-07-28T14:06:47.000Z</time>
      </trkpt>
      <trkpt lat="47.52364" lon="6.68557">
        <ele>372</ele>
        <time>2016-07-28T14:06:48.000Z</time>
      </trkpt>
      <trkpt lat="47.52366" lon="6.6856">
        <ele>372</ele>
        <time>2016-07-28T14:06:49.000Z</time>
      </trkpt>
      <trkpt lat="47.52368" lon="6.68564">
        <ele>372</ele>
        <time>2016-07-28T14:06:50.000Z</time>
      </trkpt>
      <trkpt lat="47.52369" lon="6.68569">
        <ele>372</ele>
        <time>2016-07-28T14:06:51.000Z</time>
      </trkpt>
      <trkpt lat="47.52369" lon="6.68574">
        <ele>372</ele>
        <time>2016-07-28T14:06:52.000Z</time>
      </trkpt>
      <trkpt lat="47.52368" lon="6.68579">
        <ele>372</ele>
        <time>2016-07-28T14:06:53.000Z</time>
      </trkpt>
      <trkpt lat="47.52368" lon="6.68583">
        <ele>372</ele>
        <time>2016-07-28T14:06:54.000Z</time>
      </trkpt>
      <trkpt lat="47.52367" lon="6.68588">
        <ele>373</ele>
        <time>2016-07-28T14:06:55.000Z</time>
      </trkpt>
      <trkpt lat="47.52366" lon="6.68592">
        <ele>373</ele>
        <time>2016-07-28T14:06:56.000Z</time>
      </trkpt>
      <trkpt lat="47.52365" lon="6.68596">
        <ele>372</ele>
        <time>2016-07-28T14:06:57.000Z</time>
      </trkpt>
      <trkpt lat="47.52364" lon="6.686">
        <ele>372</ele>
        <time>2016-07-28T14:06:58.000Z</time>
      </trkpt>
      <trkpt lat="47.52362" lon="6.68605">
        <ele>372</ele>
        <time>2016-07-28T14:06:59.000Z</time>
      </trkpt>
      <trkpt lat="47.52361" lon="6.68609">
        <ele>372</ele>
        <time>2016-07-28T14:07:00.000Z</time>
      </trkpt>
      <trkpt lat="47.5236" lon="6.68613">
        <ele>372</ele>
        <time>2016-07-28T14:07:01.000Z</time>
      </trkpt>
      <trkpt lat="47.52358" lon="6.68617">
        <ele>372</ele>
        <time>2016-07-28T14:07:02.000Z</time>
      </trkpt>
      <trkpt lat="47.52356" lon="6.68621">
        <ele>372</ele>
        <time>2016-07-28T14:07:03.000Z</time>
      </trkpt>
      <trkpt lat="47.52355" lon="6.68626">
        <ele>372</ele>
        <time>2016-07-28T14:07:04.000Z</time>
      </trkpt>
      <trkpt lat="47.52354" lon="6.6863">
        <ele>372</ele>
        <time>2016-07-28T14:07:05.000Z</time>
      </trkpt>
      <trkpt lat="47.52352" lon="6.68635">
        <ele>372</ele>
        <time>2016-07-28T14:07:06.000Z</time>
      </trkpt>
      <trkpt lat="47.52351" lon="6.6864">
        <ele>372</ele>
        <time>2016-07-28T14:07:07.000Z</time>
      </trkpt>
      <trkpt lat="47.5235" lon="6.68644">
        <ele>372</ele>
        <time>2016-07-28T14:07:08.000Z</time>
      </trkpt>
      <trkpt lat="47.52348" lon="6.68649">
        <ele>372</ele>
        <time>2016-07-28T14:07:09.000Z</time>
      </trkpt>
      <trkpt lat="47.52347" lon="6.68654">
        <ele>372</ele>
        <time>2016-07-28T14:07:10.000Z</time>
      </trkpt>
      <trkpt lat="47.52346" lon="6.68658">
        <ele>372</ele>
        <time>2016-07-28T14:07:11.000Z</time>
      </trkpt>
      <trkpt lat="47.52344" lon="6.68662">
        <ele>372</ele>
        <time>2016-07-28T14:07:12.000Z</time>
      </trkpt>
      <trkpt lat="47.52343" lon="6.68667">
        <ele>371</ele>
        <time>2016-07-28T14:07:13.000Z</time>
      </trkpt>
      <trkpt lat="47.52341" lon="6.68671">
        <ele>371</ele>
        <time>2016-07-28T14:07:14.000Z</time>
      </trkpt>
      <trkpt lat="47.5234" lon="6.68676">
        <ele>371</ele>
        <time>2016-07-28T14:07:15.000Z</time>
      </trkpt>
      <trkpt lat="47.52339" lon="6.6868">
        <ele>371</ele>
        <time>2016-07-28T14:07:16.000Z</time>
      </trkpt>
      <trkpt lat="47.52338" lon="6.68685">
        <ele>371</ele>
        <time>2016-07-28T14:07:17.000Z</time>
      </trkpt>
      <trkpt lat="47.5234" lon="6.68689">
        <ele>371</ele>
        <time>2016-07-28T14:07:18.000Z</time>
      </trkpt>
      <trkpt lat="47.52341" lon="6.68694">
        <ele>371</ele>
        <time>2016-07-28T14:07:19.000Z</time>
      </trkpt>
      <trkpt lat="47.52343" lon="6.68699">
        <ele>371</ele>
        <time>2016-07-28T14:07:20.000Z</time>
      </trkpt>
      <trkpt lat="47.52344" lon="6.68703">
        <ele>371</ele>
        <time>2016-07-28T14:07:21.000Z</time>
      </trkpt>
      <trkpt lat="47.52346" lon="6.68708">
        <ele>371</ele>
        <time>2016-07-28T14:07:22.000Z</time>
      </trkpt>
      <trkpt lat="47.52348" lon="6.68712">
        <ele>371</ele>
        <time>2016-07-28T14:07:23.000Z</time>
      </trkpt>
      <trkpt lat="47.5235" lon="6.68716">
        <ele>371</ele>
        <time>2016-07-28T14:07:24.000Z</time>
      </trkpt>
      <trkpt lat="47.52351" lon="6.6872">
        <ele>371</ele>
        <time>2016-07-28T14:07:25.000Z</time>
      </trkpt>
      <trkpt lat="47.52354" lon="6.68724">
        <ele>371</ele>
        <time>2016-07-28T14:07:26.000Z</time>
      </trkpt>
      <trkpt lat="47.52356" lon="6.68729">
        <ele>371</ele>
        <time>2016-07-28T14:07:27.000Z</time>
      </trkpt>
      <trkpt lat="47.52359" lon="6.68734">
        <ele>371</ele>
        <time>2016-07-28T14:07:28.000Z</time>
      </trkpt>
      <trkpt lat="47.52361" lon="6.68738">
        <ele>371</ele>
        <time>2016-07-28T14:07:29.000Z</time>
      </trkpt>
      <trkpt lat="47.52363" lon="6.68742">
        <ele>371</ele>
        <time>2016-07-28T14:07:30.000Z</time>
      </trkpt>
      <trkpt lat="47.52365" lon="6.68746">
        <ele>371</ele>
        <time>2016-07-28T14:07:31.000Z</time>
      </trkpt>
      <trkpt lat="47.52367" lon="6.6875">
        <ele>371</ele>
        <time>2016-07-28T14:07:32.000Z</time>
      </trkpt>
      <trkpt lat="47.5237" lon="6.68754">
        <ele>371</ele>
        <time>2016-07-28T14:07:34.000Z</time>
      </trkpt>
      <trkpt lat="47.52371" lon="6.68757">
        <ele>371</ele>
        <time>2016-07-28T14:07:34.999Z</time>
      </trkpt>
      <trkpt lat="47.52372" lon="6.68762">
        <ele>371</ele>
        <time>2016-07-28T14:08:14.000Z</time>
      </trkpt>
      <trkpt lat="47.52373" lon="6.68764">
        <ele>371</ele>
        <time>2016-07-28T14:08:15.000Z</time>
      </trkpt>
      <trkpt lat="47.52374" lon="6.68768">
        <ele>371</ele>
        <time>2016-07-28T14:08:17.000Z</time>
      </trkpt>
      <trkpt lat="47.52375" lon="6.68771">
        <ele>371</ele>
        <time>2016-07-28T14:08:18.000Z</time>
      </trkpt>
      <trkpt lat="47.52376" lon="6.68775">
        <ele>371</ele>
        <time>2016-07-28T14:08:19.000Z</time>
      </trkpt>
      <trkpt lat="47.52377" lon="6.68778">
        <ele>371</ele>
        <time>2016-07-28T14:08:20.000Z</time>
      </trkpt>
      <trkpt lat="47.52378" lon="6.68782">
        <ele>371</ele>
        <time>2016-07-28T14:08:21.000Z</time>
      </trkpt>
      <trkpt lat="47.5238" lon="6.68786">
        <ele>371</ele>
        <time>2016-07-28T14:08:22.000Z</time>
      </trkpt>
      <trkpt lat="47.52381" lon="6.6879">
        <ele>371</ele>
        <time>2016-07-28T14:08:23.000Z</time>
      </trkpt>
      <trkpt lat="47.52383" lon="6.68794">
        <ele>371</ele>
        <time>2016-07-28T14:08:24.000Z</time>
      </trkpt>
      <trkpt lat="47.52385" lon="6.68798">
        <ele>371</ele>
        <time>2016-07-28T14:08:25.000Z</time>
      </trkpt>
      <trkpt lat="47.52387" lon="6.68803">
        <ele>371</ele>
        <time>2016-07-28T14:08:26.000Z</time>
      </trkpt>
      <trkpt lat="47.52389" lon="6.68807">
        <ele>371</ele>
        <time>2016-07-28T14:08:27.000Z</time>
      </trkpt>
      <trkpt lat="47.52391" lon="6.68812">
        <ele>371</ele>
        <time>2016-07-28T14:08:28.000Z</time>
      </trkpt>
      <trkpt lat="47.52392" lon="6.68816">
        <ele>371</ele>
        <time>2016-07-28T14:08:29.000Z</time>
      </trkpt>
      <trkpt lat="47.52395" lon="6.6882">
        <ele>371</ele>
        <time>2016-07-28T14:08:30.000Z</time>
      </trkpt>
      <trkpt lat="47.52397" lon="6.68824">
        <ele>370</ele>
        <time>2016-07-28T14:08:31.000Z</time>
      </trkpt>
      <trkpt lat="47.52399" lon="6.68828">
        <ele>370</ele>
        <time>2016-07-28T14:08:32.000Z</time>
      </trkpt>
      <trkpt lat="47.52401" lon="6.68831">
        <ele>370</ele>
        <time>2016-07-28T14:08:33.000Z</time>
      </trkpt>
      <trkpt lat="47.52404" lon="6.68835">
        <ele>370</ele>
        <time>2016-07-28T14:08:34.000Z</time>
      </trkpt>
      <trkpt lat="47.52407" lon="6.6884">
        <ele>370</ele>
        <time>2016-07-28T14:08:35.000Z</time>
      </trkpt>
      <trkpt lat="47.5241" lon="6.68844">
        <ele>370</ele>
        <time>2016-07-28T14:08:36.000Z</time>
      </trkpt>
      <trkpt lat="47.52413" lon="6.68849">
        <ele>370</ele>
        <time>2016-07-28T14:08:37.000Z</time>
      </trkpt>
      <trkpt lat="47.52417" lon="6.68857">
        <ele>369</ele>
        <time>2016-07-28T14:08:38.000Z</time>
      </trkpt>
      <trkpt lat="47.52421" lon="6.68863">
        <ele>368</ele>
        <time>2016-07-28T14:08:39.000Z</time>
      </trkpt>
      <trkpt lat="47.52426" lon="6.68871">
        <ele>368</ele>
        <time>2016-07-28T14:08:40.000Z</time>
      </trkpt>
      <trkpt lat="47.5243" lon="6.68877">
        <ele>368</ele>
        <time>2016-07-28T14:08:41.000Z</time>
      </trkpt>
      <trkpt lat="47.52434" lon="6.68884">
        <ele>368</ele>
        <time>2016-07-28T14:08:42.000Z</time>
      </trkpt>
      <trkpt lat="47.52439" lon="6.68891">
        <ele>368</ele>
        <time>2016-07-28T14:08:43.000Z</time>
      </trkpt>
      <trkpt lat="47.52443" lon="6.68898">
        <ele>368</ele>
        <time>2016-07-28T14:08:44.000Z</time>
      </trkpt>
      <trkpt lat="47.52448" lon="6.68905">
        <ele>368</ele>
        <time>2016-07-28T14:08:45.000Z</time>
      </trkpt>
      <trkpt lat="47.52452" lon="6.68912">
        <ele>368</ele>
        <time>2016-07-28T14:08:46.000Z</time>
      </trkpt>
      <trkpt lat="47.52456" lon="6.68919">
        <ele>366</ele>
        <time>2016-07-28T14:08:47.000Z</time>
      </trkpt>
      <trkpt lat="47.52459" lon="6.68926">
        <ele>366</ele>
        <time>2016-07-28T14:08:48.000Z</time>
      </trkpt>
      <trkpt lat="47.52463" lon="6.68934">
        <ele>366</ele>
        <time>2016-07-28T14:08:49.000Z</time>
      </trkpt>
      <trkpt lat="47.52467" lon="6.68942">
        <ele>365</ele>
        <time>2016-07-28T14:08:50.000Z</time>
      </trkpt>
      <trkpt lat="47.52471" lon="6.68949">
        <ele>365</ele>
        <time>2016-07-28T14:08:51.000Z</time>
      </trkpt>
      <trkpt lat="47.52476" lon="6.68956">
        <ele>365</ele>
        <time>2016-07-28T14:08:52.000Z</time>
      </trkpt>
      <trkpt lat="47.52481" lon="6.68963">
        <ele>365</ele>
        <time>2016-07-28T14:08:53.000Z</time>
      </trkpt>
      <trkpt lat="47.52485" lon="6.68969">
        <ele>365</ele>
        <time>2016-07-28T14:08:54.000Z</time>
      </trkpt>
      <trkpt lat="47.52491" lon="6.68977">
        <ele>364</ele>
        <time>2016-07-28T14:08:55.000Z</time>
      </trkpt>
      <trkpt lat="47.52496" lon="6.68983">
        <ele>364</ele>
        <time>2016-07-28T14:08:56.000Z</time>
      </trkpt>
      <trkpt lat="47.52501" lon="6.68989">
        <ele>363</ele>
        <time>2016-07-28T14:08:57.000Z</time>
      </trkpt>
      <trkpt lat="47.52506" lon="6.68996">
        <ele>363</ele>
        <time>2016-07-28T14:08:58.000Z</time>
      </trkpt>
      <trkpt lat="47.52512" lon="6.69004">
        <ele>362</ele>
        <time>2016-07-28T14:08:59.000Z</time>
      </trkpt>
      <trkpt lat="47.52517" lon="6.69011">
        <ele>362</ele>
        <time>2016-07-28T14:09:00.000Z</time>
      </trkpt>
      <trkpt lat="47.52523" lon="6.69018">
        <ele>362</ele>
        <time>2016-07-28T14:09:01.000Z</time>
      </trkpt>
      <trkpt lat="47.52528" lon="6.69027">
        <ele>361</ele>
        <time>2016-07-28T14:09:02.000Z</time>
      </trkpt>
      <trkpt lat="47.52535" lon="6.69035">
        <ele>361</ele>
        <time>2016-07-28T14:09:03.000Z</time>
      </trkpt>
      <trkpt lat="47.5254" lon="6.69044">
        <ele>361</ele>
        <time>2016-07-28T14:09:04.000Z</time>
      </trkpt>
      <trkpt lat="47.52545" lon="6.69051">
        <ele>361</ele>
        <time>2016-07-28T14:09:05.000Z</time>
      </trkpt>
      <trkpt lat="47.52551" lon="6.69058">
        <ele>361</ele>
        <time>2016-07-28T14:09:06.000Z</time>
      </trkpt>
      <trkpt lat="47.52556" lon="6.69066">
        <ele>360</ele>
        <time>2016-07-28T14:09:07.000Z</time>
      </trkpt>
      <trkpt lat="47.5256" lon="6.69075">
        <ele>360</ele>
        <time>2016-07-28T14:09:08.000Z</time>
      </trkpt>
      <trkpt lat="47.52564" lon="6.69085">
        <ele>359</ele>
        <time>2016-07-28T14:09:09.000Z</time>
      </trkpt>
      <trkpt lat="47.52568" lon="6.69094">
        <ele>359</ele>
        <time>2016-07-28T14:09:10.000Z</time>
      </trkpt>
      <trkpt lat="47.52571" lon="6.69106">
        <ele>358</ele>
        <time>2016-07-28T14:09:11.000Z</time>
      </trkpt>
      <trkpt lat="47.52574" lon="6.69117">
        <ele>358</ele>
        <time>2016-07-28T14:09:12.000Z</time>
      </trkpt>
      <trkpt lat="47.52576" lon="6.69127">
        <ele>358</ele>
        <time>2016-07-28T14:09:13.000Z</time>
      </trkpt>
      <trkpt lat="47.52578" lon="6.69139">
        <ele>358</ele>
        <time>2016-07-28T14:09:14.000Z</time>
      </trkpt>
      <trkpt lat="47.5258" lon="6.6915">
        <ele>357</ele>
        <time>2016-07-28T14:09:15.000Z</time>
      </trkpt>
      <trkpt lat="47.52582" lon="6.69162">
        <ele>356</ele>
        <time>2016-07-28T14:09:16.000Z</time>
      </trkpt>
      <trkpt lat="47.52584" lon="6.69173">
        <ele>356</ele>
        <time>2016-07-28T14:09:17.000Z</time>
      </trkpt>
      <trkpt lat="47.52586" lon="6.69184">
        <ele>356</ele>
        <time>2016-07-28T14:09:18.000Z</time>
      </trkpt>
      <trkpt lat="47.52587" lon="6.69196">
        <ele>355</ele>
        <time>2016-07-28T14:09:19.000Z</time>
      </trkpt>
      <trkpt lat="47.52588" lon="6.69207">
        <ele>355</ele>
        <time>2016-07-28T14:09:20.000Z</time>
      </trkpt>
      <trkpt lat="47.52589" lon="6.69217">
        <ele>355</ele>
        <time>2016-07-28T14:09:21.000Z</time>
      </trkpt>
      <trkpt lat="47.5259" lon="6.69228">
        <ele>355</ele>
        <time>2016-07-28T14:09:22.000Z</time>
      </trkpt>
      <trkpt lat="47.52592" lon="6.69238">
        <ele>354</ele>
        <time>2016-07-28T14:09:23.000Z</time>
      </trkpt>
      <trkpt lat="47.52593" lon="6.69249">
        <ele>354</ele>
        <time>2016-07-28T14:09:24.000Z</time>
      </trkpt>
      <trkpt lat="47.52595" lon="6.69259">
        <ele>353</ele>
        <time>2016-07-28T14:09:25.000Z</time>
      </trkpt>
      <trkpt lat="47.52596" lon="6.6927">
        <ele>353</ele>
        <time>2016-07-28T14:09:26.000Z</time>
      </trkpt>
      <trkpt lat="47.52597" lon="6.6928">
        <ele>353</ele>
        <time>2016-07-28T14:09:27.000Z</time>
      </trkpt>
      <trkpt lat="47.52597" lon="6.6929">
        <ele>352</ele>
        <time>2016-07-28T14:09:28.000Z</time>
      </trkpt>
      <trkpt lat="47.52597" lon="6.69301">
        <ele>352</ele>
        <time>2016-07-28T14:09:29.000Z</time>
      </trkpt>
      <trkpt lat="47.52597" lon="6.69311">
        <ele>352</ele>
        <time>2016-07-28T14:09:30.000Z</time>
      </trkpt>
      <trkpt lat="47.52596" lon="6.69322">
        <ele>352</ele>
        <time>2016-07-28T14:09:31.000Z</time>
      </trkpt>
      <trkpt lat="47.52595" lon="6.69332">
        <ele>351</ele>
        <time>2016-07-28T14:09:32.000Z</time>
      </trkpt>
      <trkpt lat="47.52594" lon="6.69342">
        <ele>350</ele>
        <time>2016-07-28T14:09:33.000Z</time>
      </trkpt>
      <trkpt lat="47.52593" lon="6.69351">
        <ele>350</ele>
        <time>2016-07-28T14:09:34.000Z</time>
      </trkpt>
      <trkpt lat="47.52592" lon="6.6936">
        <ele>350</ele>
        <time>2016-07-28T14:09:35.000Z</time>
      </trkpt>
      <trkpt lat="47.52591" lon="6.6937">
        <ele>350</ele>
        <time>2016-07-28T14:09:36.000Z</time>
      </trkpt>
      <trkpt lat="47.5259" lon="6.6938">
        <ele>349</ele>
        <time>2016-07-28T14:09:37.000Z</time>
      </trkpt>
      <trkpt lat="47.52591" lon="6.69389">
        <ele>349</ele>
        <time>2016-07-28T14:09:38.000Z</time>
      </trkpt>
      <trkpt lat="47.52592" lon="6.694">
        <ele>349</ele>
        <time>2016-07-28T14:09:39.000Z</time>
      </trkpt>
      <trkpt lat="47.52593" lon="6.6941">
        <ele>349</ele>
        <time>2016-07-28T14:09:40.000Z</time>
      </trkpt>
      <trkpt lat="47.52594" lon="6.69419">
        <ele>348</ele>
        <time>2016-07-28T14:09:41.000Z</time>
      </trkpt>
      <trkpt lat="47.52594" lon="6.6943">
        <ele>348</ele>
        <time>2016-07-28T14:09:42.000Z</time>
      </trkpt>
      <trkpt lat="47.52596" lon="6.6944">
        <ele>347</ele>
        <time>2016-07-28T14:09:43.000Z</time>
      </trkpt>
      <trkpt lat="47.52597" lon="6.69449">
        <ele>347</ele>
        <time>2016-07-28T14:09:44.000Z</time>
      </trkpt>
      <trkpt lat="47.52598" lon="6.69456">
        <ele>347</ele>
        <time>2016-07-28T14:09:45.000Z</time>
      </trkpt>
      <trkpt lat="47.52599" lon="6.69463">
        <ele>347</ele>
        <time>2016-07-28T14:09:46.000Z</time>
      </trkpt>
      <trkpt lat="47.526" lon="6.69469">
        <ele>347</ele>
        <time>2016-07-28T14:09:47.000Z</time>
      </trkpt>
      <trkpt lat="47.52604" lon="6.6947">
        <ele>347</ele>
        <time>2016-07-28T14:09:48.000Z</time>
      </trkpt>
      <trkpt lat="47.52609" lon="6.6947">
        <ele>347</ele>
        <time>2016-07-28T14:09:49.000Z</time>
      </trkpt>
      <trkpt lat="47.52614" lon="6.69473">
        <ele>347</ele>
        <time>2016-07-28T14:09:50.000Z</time>
      </trkpt>
      <trkpt lat="47.52619" lon="6.69474">
        <ele>347</ele>
        <time>2016-07-28T14:09:51.000Z</time>
      </trkpt>
      <trkpt lat="47.52625" lon="6.69474">
        <ele>347</ele>
        <time>2016-07-28T14:09:52.000Z</time>
      </trkpt>
      <trkpt lat="47.52629" lon="6.69483">
        <ele>347</ele>
        <time>2016-07-28T14:09:53.000Z</time>
      </trkpt>
      <trkpt lat="47.52629" lon="6.69493">
        <ele>347</ele>
        <time>2016-07-28T14:09:54.000Z</time>
      </trkpt>
      <trkpt lat="47.52629" lon="6.69502">
        <ele>345</ele>
        <time>2016-07-28T14:09:55.000Z</time>
      </trkpt>
      <trkpt lat="47.52627" lon="6.69513">
        <ele>345</ele>
        <time>2016-07-28T14:09:56.000Z</time>
      </trkpt>
      <trkpt lat="47.52626" lon="6.69522">
        <ele>345</ele>
        <time>2016-07-28T14:09:57.000Z</time>
      </trkpt>
      <trkpt lat="47.52625" lon="6.69533">
        <ele>345</ele>
        <time>2016-07-28T14:09:58.000Z</time>
      </trkpt>
      <trkpt lat="47.52623" lon="6.69544">
        <ele>345</ele>
        <time>2016-07-28T14:09:59.000Z</time>
      </trkpt>
      <trkpt lat="47.52622" lon="6.69554">
        <ele>345</ele>
        <time>2016-07-28T14:10:00.000Z</time>
      </trkpt>
      <trkpt lat="47.52621" lon="6.69564">
        <ele>345</ele>
        <time>2016-07-28T14:10:01.000Z</time>
      </trkpt>
      <trkpt lat="47.52621" lon="6.69574">
        <ele>345</ele>
        <time>2016-07-28T14:10:02.000Z</time>
      </trkpt>
      <trkpt lat="47.5262" lon="6.69585">
        <ele>345</ele>
        <time>2016-07-28T14:10:03.000Z</time>
      </trkpt>
      <trkpt lat="47.5262" lon="6.69595">
        <ele>345</ele>
        <time>2016-07-28T14:10:04.000Z</time>
      </trkpt>
      <trkpt lat="47.52621" lon="6.69604">
        <ele>345</ele>
        <time>2016-07-28T14:10:05.000Z</time>
      </trkpt>
      <trkpt lat="47.52622" lon="6.69613">
        <ele>346</ele>
        <time>2016-07-28T14:10:06.000Z</time>
      </trkpt>
      <trkpt lat="47.52623" lon="6.69623">
        <ele>346</ele>
        <time>2016-07-28T14:10:07.000Z</time>
      </trkpt>
      <trkpt lat="47.52623" lon="6.69633">
        <ele>346</ele>
        <time>2016-07-28T14:10:08.000Z</time>
      </trkpt>
      <trkpt lat="47.52623" lon="6.69641">
        <ele>346</ele>
        <time>2016-07-28T14:10:09.000Z</time>
      </trkpt>
      <trkpt lat="47.52624" lon="6.69649">
        <ele>346</ele>
        <time>2016-07-28T14:10:10.000Z</time>
      </trkpt>
      <trkpt lat="47.52624" lon="6.69657">
        <ele>346</ele>
        <time>2016-07-28T14:10:11.000Z</time>
      </trkpt>
      <trkpt lat="47.52624" lon="6.69665">
        <ele>346</ele>
        <time>2016-07-28T14:10:12.000Z</time>
      </trkpt>
      <trkpt lat="47.52623" lon="6.69671">
        <ele>349</ele>
        <time>2016-07-28T14:10:13.000Z</time>
      </trkpt>
      <trkpt lat="47.52621" lon="6.69678">
        <ele>349</ele>
        <time>2016-07-28T14:10:14.000Z</time>
      </trkpt>
      <trkpt lat="47.5262" lon="6.69686">
        <ele>349</ele>
        <time>2016-07-28T14:10:15.000Z</time>
      </trkpt>
      <trkpt lat="47.52617" lon="6.69692">
        <ele>349</ele>
        <time>2016-07-28T14:10:16.000Z</time>
      </trkpt>
      <trkpt lat="47.52614" lon="6.69698">
        <ele>349</ele>
        <time>2016-07-28T14:10:17.000Z</time>
      </trkpt>
      <trkpt lat="47.52611" lon="6.69703">
        <ele>349</ele>
        <time>2016-07-28T14:10:18.000Z</time>
      </trkpt>
      <trkpt lat="47.52607" lon="6.69707">
        <ele>350</ele>
        <time>2016-07-28T14:10:19.000Z</time>
      </trkpt>
      <trkpt lat="47.52603" lon="6.6971">
        <ele>350</ele>
        <time>2016-07-28T14:10:20.000Z</time>
      </trkpt>
      <trkpt lat="47.52599" lon="6.69712">
        <ele>350</ele>
        <time>2016-07-28T14:10:21.000Z</time>
      </trkpt>
      <trkpt lat="47.52594" lon="6.69713">
        <ele>350</ele>
        <time>2016-07-28T14:10:22.000Z</time>
      </trkpt>
      <trkpt lat="47.52589" lon="6.69714">
        <ele>350</ele>
        <time>2016-07-28T14:10:23.000Z</time>
      </trkpt>
      <trkpt lat="47.52584" lon="6.69714">
        <ele>350</ele>
        <time>2016-07-28T14:10:24.000Z</time>
      </trkpt>
      <trkpt lat="47.5258" lon="6.69714">
        <ele>351</ele>
        <time>2016-07-28T14:10:25.000Z</time>
      </trkpt>
      <trkpt lat="47.52574" lon="6.69712">
        <ele>351</ele>
        <time>2016-07-28T14:10:26.000Z</time>
      </trkpt>
      <trkpt lat="47.5257" lon="6.69711">
        <ele>351</ele>
        <time>2016-07-28T14:10:27.000Z</time>
      </trkpt>
      <trkpt lat="47.52565" lon="6.69709">
        <ele>351</ele>
        <time>2016-07-28T14:10:28.000Z</time>
      </trkpt>
      <trkpt lat="47.52561" lon="6.69708">
        <ele>351</ele>
        <time>2016-07-28T14:10:29.000Z</time>
      </trkpt>
      <trkpt lat="47.52558" lon="6.69706">
        <ele>351</ele>
        <time>2016-07-28T14:10:30.000Z</time>
      </trkpt>
      <trkpt lat="47.52552" lon="6.69704">
        <ele>351</ele>
        <time>2016-07-28T14:10:31.000Z</time>
      </trkpt>
      <trkpt lat="47.52547" lon="6.69703">
        <ele>352</ele>
        <time>2016-07-28T14:10:32.000Z</time>
      </trkpt>
      <trkpt lat="47.52542" lon="6.69701">
        <ele>352</ele>
        <time>2016-07-28T14:10:33.000Z</time>
      </trkpt>
      <trkpt lat="47.52537" lon="6.69701">
        <ele>352</ele>
        <time>2016-07-28T14:10:34.000Z</time>
      </trkpt>
      <trkpt lat="47.52532" lon="6.697">
        <ele>352</ele>
        <time>2016-07-28T14:10:35.000Z</time>
      </trkpt>
      <trkpt lat="47.52527" lon="6.69697">
        <ele>352</ele>
        <time>2016-07-28T14:10:36.000Z</time>
      </trkpt>
      <trkpt lat="47.52522" lon="6.69697">
        <ele>352</ele>
        <time>2016-07-28T14:10:37.000Z</time>
      </trkpt>
      <trkpt lat="47.52517" lon="6.69696">
        <ele>352</ele>
        <time>2016-07-28T14:10:38.000Z</time>
      </trkpt>
      <trkpt lat="47.52512" lon="6.69695">
        <ele>351</ele>
        <time>2016-07-28T14:10:39.000Z</time>
      </trkpt>
      <trkpt lat="47.52507" lon="6.69695">
        <ele>351</ele>
        <time>2016-07-28T14:10:40.000Z</time>
      </trkpt>
      <trkpt lat="47.52503" lon="6.69695">
        <ele>352</ele>
        <time>2016-07-28T14:10:41.000Z</time>
      </trkpt>
      <trkpt lat="47.52499" lon="6.69695">
        <ele>353</ele>
        <time>2016-07-28T14:10:42.000Z</time>
      </trkpt>
      <trkpt lat="47.52492" lon="6.69694">
        <ele>353</ele>
        <time>2016-07-28T14:10:43.000Z</time>
      </trkpt>
      <trkpt lat="47.52486" lon="6.69693">
        <ele>353</ele>
        <time>2016-07-28T14:10:44.000Z</time>
      </trkpt>
      <trkpt lat="47.52481" lon="6.69693">
        <ele>353</ele>
        <time>2016-07-28T14:10:45.000Z</time>
      </trkpt>
      <trkpt lat="47.52476" lon="6.69695">
        <ele>353</ele>
        <time>2016-07-28T14:10:46.000Z</time>
      </trkpt>
      <trkpt lat="47.52472" lon="6.69695">
        <ele>353</ele>
        <time>2016-07-28T14:10:47.000Z</time>
      </trkpt>
      <trkpt lat="47.52467" lon="6.69695">
        <ele>354</ele>
        <time>2016-07-28T14:10:48.000Z</time>
      </trkpt>
      <trkpt lat="47.52462" lon="6.69697">
        <ele>354</ele>
        <time>2016-07-28T14:10:49.000Z</time>
      </trkpt>
      <trkpt lat="47.52457" lon="6.69697">
        <ele>354</ele>
        <time>2016-07-28T14:10:50.000Z</time>
      </trkpt>
      <trkpt lat="47.52452" lon="6.69698">
        <ele>354</ele>
        <time>2016-07-28T14:10:51.000Z</time>
      </trkpt>
      <trkpt lat="47.52447" lon="6.69699">
        <ele>354</ele>
        <time>2016-07-28T14:10:52.000Z</time>
      </trkpt>
      <trkpt lat="47.52443" lon="6.69701">
        <ele>354</ele>
        <time>2016-07-28T14:10:53.000Z</time>
      </trkpt>
      <trkpt lat="47.52438" lon="6.69703">
        <ele>354</ele>
        <time>2016-07-28T14:10:54.000Z</time>
      </trkpt>
      <trkpt lat="47.52434" lon="6.69704">
        <ele>354</ele>
        <time>2016-07-28T14:10:55.000Z</time>
      </trkpt>
      <trkpt lat="47.52429" lon="6.69705">
        <ele>354</ele>
        <time>2016-07-28T14:10:56.000Z</time>
      </trkpt>
      <trkpt lat="47.52425" lon="6.69706">
        <ele>354</ele>
        <time>2016-07-28T14:10:57.000Z</time>
      </trkpt>
      <trkpt lat="47.5242" lon="6.69707">
        <ele>354</ele>
        <time>2016-07-28T14:10:58.000Z</time>
      </trkpt>
      <trkpt lat="47.52415" lon="6.69709">
        <ele>354</ele>
        <time>2016-07-28T14:10:59.000Z</time>
      </trkpt>
      <trkpt lat="47.5241" lon="6.69708">
        <ele>354</ele>
        <time>2016-07-28T14:11:00.000Z</time>
      </trkpt>
      <trkpt lat="47.52405" lon="6.6971">
        <ele>354</ele>
        <time>2016-07-28T14:11:01.000Z</time>
      </trkpt>
      <trkpt lat="47.52401" lon="6.69711">
        <ele>354</ele>
        <time>2016-07-28T14:11:02.000Z</time>
      </trkpt>
      <trkpt lat="47.52396" lon="6.69713">
        <ele>354</ele>
        <time>2016-07-28T14:11:03.000Z</time>
      </trkpt>
      <trkpt lat="47.52392" lon="6.69715">
        <ele>355</ele>
        <time>2016-07-28T14:11:04.000Z</time>
      </trkpt>
      <trkpt lat="47.52388" lon="6.69717">
        <ele>355</ele>
        <time>2016-07-28T14:11:05.000Z</time>
      </trkpt>
      <trkpt lat="47.52384" lon="6.6972">
        <ele>355</ele>
        <time>2016-07-28T14:11:06.000Z</time>
      </trkpt>
      <trkpt lat="47.52378" lon="6.69721">
        <ele>355</ele>
        <time>2016-07-28T14:11:07.000Z</time>
      </trkpt>
      <trkpt lat="47.52375" lon="6.69725">
        <ele>355</ele>
        <time>2016-07-28T14:11:08.000Z</time>
      </trkpt>
      <trkpt lat="47.52371" lon="6.69728">
        <ele>355</ele>
        <time>2016-07-28T14:11:09.000Z</time>
      </trkpt>
      <trkpt lat="47.52367" lon="6.69732">
        <ele>355</ele>
        <time>2016-07-28T14:11:10.000Z</time>
      </trkpt>
      <trkpt lat="47.52364" lon="6.69735">
        <ele>355</ele>
        <time>2016-07-28T14:11:11.000Z</time>
      </trkpt>
      <trkpt lat="47.52359" lon="6.6974">
        <ele>356</ele>
        <time>2016-07-28T14:11:12.000Z</time>
      </trkpt>
      <trkpt lat="47.52356" lon="6.69746">
        <ele>356</ele>
        <time>2016-07-28T14:11:13.000Z</time>
      </trkpt>
      <trkpt lat="47.52352" lon="6.69752">
        <ele>360</ele>
        <time>2016-07-28T14:11:14.000Z</time>
      </trkpt>
      <trkpt lat="47.52349" lon="6.69756">
        <ele>360</ele>
        <time>2016-07-28T14:11:15.000Z</time>
      </trkpt>
      <trkpt lat="47.52346" lon="6.69761">
        <ele>360</ele>
        <time>2016-07-28T14:11:16.000Z</time>
      </trkpt>
      <trkpt lat="47.52343" lon="6.69767">
        <ele>360</ele>
        <time>2016-07-28T14:11:17.000Z</time>
      </trkpt>
      <trkpt lat="47.52339" lon="6.69772">
        <ele>360</ele>
        <time>2016-07-28T14:11:18.000Z</time>
      </trkpt>
      <trkpt lat="47.52336" lon="6.69777">
        <ele>360</ele>
        <time>2016-07-28T14:11:19.000Z</time>
      </trkpt>
      <trkpt lat="47.52332" lon="6.69782">
        <ele>357</ele>
        <time>2016-07-28T14:11:20.000Z</time>
      </trkpt>
      <trkpt lat="47.52329" lon="6.69788">
        <ele>357</ele>
        <time>2016-07-28T14:11:21.000Z</time>
      </trkpt>
      <trkpt lat="47.52325" lon="6.69793">
        <ele>357</ele>
        <time>2016-07-28T14:11:22.000Z</time>
      </trkpt>
      <trkpt lat="47.52323" lon="6.69799">
        <ele>357</ele>
        <time>2016-07-28T14:11:23.000Z</time>
      </trkpt>
      <trkpt lat="47.5232" lon="6.69806">
        <ele>357</ele>
        <time>2016-07-28T14:11:24.000Z</time>
      </trkpt>
      <trkpt lat="47.52318" lon="6.69812">
        <ele>358</ele>
        <time>2016-07-28T14:11:25.000Z</time>
      </trkpt>
      <trkpt lat="47.52315" lon="6.69818">
        <ele>358</ele>
        <time>2016-07-28T14:11:26.000Z</time>
      </trkpt>
      <trkpt lat="47.52313" lon="6.69825">
        <ele>358</ele>
        <time>2016-07-28T14:11:27.000Z</time>
      </trkpt>
      <trkpt lat="47.5231" lon="6.69832">
        <ele>358</ele>
        <time>2016-07-28T14:11:28.000Z</time>
      </trkpt>
      <trkpt lat="47.52308" lon="6.69839">
        <ele>358</ele>
        <time>2016-07-28T14:11:29.000Z</time>
      </trkpt>
      <trkpt lat="47.52304" lon="6.69846">
        <ele>357</ele>
        <time>2016-07-28T14:11:30.000Z</time>
      </trkpt>
      <trkpt lat="47.52301" lon="6.69853">
        <ele>357</ele>
        <time>2016-07-28T14:11:31.000Z</time>
      </trkpt>
      <trkpt lat="47.52298" lon="6.6986">
        <ele>357</ele>
        <time>2016-07-28T14:11:32.000Z</time>
      </trkpt>
      <trkpt lat="47.52295" lon="6.69867">
        <ele>356</ele>
        <time>2016-07-28T14:11:33.000Z</time>
      </trkpt>
      <trkpt lat="47.52292" lon="6.69875">
        <ele>356</ele>
        <time>2016-07-28T14:11:34.000Z</time>
      </trkpt>
      <trkpt lat="47.52288" lon="6.69883">
        <ele>356</ele>
        <time>2016-07-28T14:11:35.000Z</time>
      </trkpt>
      <trkpt lat="47.52285" lon="6.69892">
        <ele>356</ele>
        <time>2016-07-28T14:11:36.000Z</time>
      </trkpt>
      <trkpt lat="47.52282" lon="6.699">
        <ele>355</ele>
        <time>2016-07-28T14:11:37.000Z</time>
      </trkpt>
      <trkpt lat="47.52279" lon="6.69909">
        <ele>355</ele>
        <time>2016-07-28T14:11:38.000Z</time>
      </trkpt>
      <trkpt lat="47.52276" lon="6.69918">
        <ele>354</ele>
        <time>2016-07-28T14:11:39.000Z</time>
      </trkpt>
      <trkpt lat="47.52273" lon="6.69927">
        <ele>353</ele>
        <time>2016-07-28T14:11:40.000Z</time>
      </trkpt>
      <trkpt lat="47.52269" lon="6.69936">
        <ele>353</ele>
        <time>2016-07-28T14:11:41.000Z</time>
      </trkpt>
      <trkpt lat="47.52265" lon="6.69945">
        <ele>353</ele>
        <time>2016-07-28T14:11:42.000Z</time>
      </trkpt>
      <trkpt lat="47.52261" lon="6.69955">
        <ele>353</ele>
        <time>2016-07-28T14:11:43.000Z</time>
      </trkpt>
      <trkpt lat="47.52257" lon="6.69965">
        <ele>353</ele>
        <time>2016-07-28T14:11:44.000Z</time>
      </trkpt>
      <trkpt lat="47.52253" lon="6.69975">
        <ele>352</ele>
        <time>2016-07-28T14:11:45.000Z</time>
      </trkpt>
      <trkpt lat="47.52249" lon="6.69985">
        <ele>348</ele>
        <time>2016-07-28T14:11:46.000Z</time>
      </trkpt>
      <trkpt lat="47.52245" lon="6.69997">
        <ele>349</ele>
        <time>2016-07-28T14:11:47.000Z</time>
      </trkpt>
      <trkpt lat="47.52241" lon="6.70008">
        <ele>348</ele>
        <time>2016-07-28T14:11:48.000Z</time>
      </trkpt>
      <trkpt lat="47.52237" lon="6.70019">
        <ele>347</ele>
        <time>2016-07-28T14:11:49.000Z</time>
      </trkpt>
      <trkpt lat="47.52233" lon="6.70029">
        <ele>346</ele>
        <time>2016-07-28T14:11:50.000Z</time>
      </trkpt>
      <trkpt lat="47.52229" lon="6.7004">
        <ele>346</ele>
        <time>2016-07-28T14:11:51.000Z</time>
      </trkpt>
      <trkpt lat="47.52226" lon="6.70051">
        <ele>346</ele>
        <time>2016-07-28T14:11:52.000Z</time>
      </trkpt>
      <trkpt lat="47.52223" lon="6.70061">
        <ele>346</ele>
        <time>2016-07-28T14:11:53.000Z</time>
      </trkpt>
      <trkpt lat="47.5222" lon="6.70071">
        <ele>346</ele>
        <time>2016-07-28T14:11:54.000Z</time>
      </trkpt>
      <trkpt lat="47.52217" lon="6.70082">
        <ele>345</ele>
        <time>2016-07-28T14:11:55.000Z</time>
      </trkpt>
      <trkpt lat="47.52215" lon="6.70092">
        <ele>345</ele>
        <time>2016-07-28T14:11:56.000Z</time>
      </trkpt>
      <trkpt lat="47.52213" lon="6.70102">
        <ele>345</ele>
        <time>2016-07-28T14:11:57.000Z</time>
      </trkpt>
      <trkpt lat="47.5221" lon="6.70112">
        <ele>345</ele>
        <time>2016-07-28T14:11:58.000Z</time>
      </trkpt>
      <trkpt lat="47.52207" lon="6.70122">
        <ele>345</ele>
        <time>2016-07-28T14:11:59.000Z</time>
      </trkpt>
      <trkpt lat="47.52204" lon="6.70132">
        <ele>345</ele>
        <time>2016-07-28T14:12:00.000Z</time>
      </trkpt>
      <trkpt lat="47.52201" lon="6.7014">
        <ele>346</ele>
        <time>2016-07-28T14:12:01.000Z</time>
      </trkpt>
      <trkpt lat="47.52199" lon="6.70148">
        <ele>346</ele>
        <time>2016-07-28T14:12:02.000Z</time>
      </trkpt>
      <trkpt lat="47.52197" lon="6.70156">
        <ele>346</ele>
        <time>2016-07-28T14:12:03.000Z</time>
      </trkpt>
      <trkpt lat="47.52194" lon="6.70164">
        <ele>346</ele>
        <time>2016-07-28T14:12:04.000Z</time>
      </trkpt>
      <trkpt lat="47.52193" lon="6.70171">
        <ele>347</ele>
        <time>2016-07-28T14:12:05.000Z</time>
      </trkpt>
      <trkpt lat="47.5219" lon="6.70178">
        <ele>347</ele>
        <time>2016-07-28T14:12:06.000Z</time>
      </trkpt>
      <trkpt lat="47.52187" lon="6.70185">
        <ele>348</ele>
        <time>2016-07-28T14:12:07.000Z</time>
      </trkpt>
      <trkpt lat="47.52185" lon="6.70191">
        <ele>348</ele>
        <time>2016-07-28T14:12:08.000Z</time>
      </trkpt>
      <trkpt lat="47.52184" lon="6.70197">
        <ele>348</ele>
        <time>2016-07-28T14:12:09.000Z</time>
      </trkpt>
      <trkpt lat="47.52182" lon="6.70203">
        <ele>348</ele>
        <time>2016-07-28T14:12:10.000Z</time>
      </trkpt>
      <trkpt lat="47.5218" lon="6.70209">
        <ele>348</ele>
        <time>2016-07-28T14:12:11.000Z</time>
      </trkpt>
      <trkpt lat="47.52178" lon="6.70216">
        <ele>348</ele>
        <time>2016-07-28T14:12:12.000Z</time>
      </trkpt>
      <trkpt lat="47.52176" lon="6.70221">
        <ele>349</ele>
        <time>2016-07-28T14:12:13.000Z</time>
      </trkpt>
      <trkpt lat="47.52175" lon="6.70227">
        <ele>349</ele>
        <time>2016-07-28T14:12:14.000Z</time>
      </trkpt>
      <trkpt lat="47.52173" lon="6.70233">
        <ele>350</ele>
        <time>2016-07-28T14:12:15.000Z</time>
      </trkpt>
      <trkpt lat="47.52172" lon="6.70238">
        <ele>350</ele>
        <time>2016-07-28T14:12:16.000Z</time>
      </trkpt>
      <trkpt lat="47.5217" lon="6.70243">
        <ele>351</ele>
        <time>2016-07-28T14:12:17.000Z</time>
      </trkpt>
      <trkpt lat="47.52167" lon="6.70249">
        <ele>353</ele>
        <time>2016-07-28T14:12:18.000Z</time>
      </trkpt>
      <trkpt lat="47.52165" lon="6.70255">
        <ele>354</ele>
        <time>2016-07-28T14:12:19.000Z</time>
      </trkpt>
      <trkpt lat="47.52163" lon="6.70261">
        <ele>354</ele>
        <time>2016-07-28T14:12:20.000Z</time>
      </trkpt>
      <trkpt lat="47.52162" lon="6.70267">
        <ele>354</ele>
        <time>2016-07-28T14:12:21.000Z</time>
      </trkpt>
      <trkpt lat="47.5216" lon="6.70272">
        <ele>355</ele>
        <time>2016-07-28T14:12:22.000Z</time>
      </trkpt>
      <trkpt lat="47.52158" lon="6.70278">
        <ele>355</ele>
        <time>2016-07-28T14:12:23.000Z</time>
      </trkpt>
      <trkpt lat="47.52156" lon="6.70283">
        <ele>355</ele>
        <time>2016-07-28T14:12:24.000Z</time>
      </trkpt>
      <trkpt lat="47.52154" lon="6.70288">
        <ele>355</ele>
        <time>2016-07-28T14:12:25.000Z</time>
      </trkpt>
      <trkpt lat="47.52153" lon="6.70293">
        <ele>355</ele>
        <time>2016-07-28T14:12:26.000Z</time>
      </trkpt>
      <trkpt lat="47.52151" lon="6.70299">
        <ele>355</ele>
        <time>2016-07-28T14:12:27.000Z</time>
      </trkpt>
      <trkpt lat="47.5215" lon="6.70304">
        <ele>355</ele>
        <time>2016-07-28T14:12:28.000Z</time>
      </trkpt>
      <trkpt lat="47.52148" lon="6.7031">
        <ele>355</ele>
        <time>2016-07-28T14:12:29.000Z</time>
      </trkpt>
      <trkpt lat="47.52147" lon="6.70315">
        <ele>355</ele>
        <time>2016-07-28T14:12:30.000Z</time>
      </trkpt>
      <trkpt lat="47.52145" lon="6.70321">
        <ele>355</ele>
        <time>2016-07-28T14:12:31.000Z</time>
      </trkpt>
      <trkpt lat="47.52144" lon="6.70326">
        <ele>355</ele>
        <time>2016-07-28T14:12:32.000Z</time>
      </trkpt>
      <trkpt lat="47.52142" lon="6.70331">
        <ele>355</ele>
        <time>2016-07-28T14:12:33.000Z</time>
      </trkpt>
      <trkpt lat="47.52141" lon="6.70336">
        <ele>355</ele>
        <time>2016-07-28T14:12:34.000Z</time>
      </trkpt>
      <trkpt lat="47.52139" lon="6.70341">
        <ele>355</ele>
        <time>2016-07-28T14:12:35.000Z</time>
      </trkpt>
      <trkpt lat="47.52137" lon="6.70347">
        <ele>356</ele>
        <time>2016-07-28T14:12:36.000Z</time>
      </trkpt>
      <trkpt lat="47.52136" lon="6.70352">
        <ele>356</ele>
        <time>2016-07-28T14:12:37.000Z</time>
      </trkpt>
      <trkpt lat="47.52134" lon="6.70357">
        <ele>356</ele>
        <time>2016-07-28T14:12:38.000Z</time>
      </trkpt>
      <trkpt lat="47.52133" lon="6.70363">
        <ele>356</ele>
        <time>2016-07-28T14:12:39.000Z</time>
      </trkpt>
      <trkpt lat="47.52132" lon="6.70368">
        <ele>356</ele>
        <time>2016-07-28T14:12:40.000Z</time>
      </trkpt>
      <trkpt lat="47.5213" lon="6.70373">
        <ele>356</ele>
        <time>2016-07-28T14:12:41.000Z</time>
      </trkpt>
      <trkpt lat="47.52129" lon="6.70378">
        <ele>356</ele>
        <time>2016-07-28T14:12:42.000Z</time>
      </trkpt>
      <trkpt lat="47.52127" lon="6.70384">
        <ele>357</ele>
        <time>2016-07-28T14:12:43.000Z</time>
      </trkpt>
      <trkpt lat="47.52126" lon="6.7039">
        <ele>357</ele>
        <time>2016-07-28T14:12:44.000Z</time>
      </trkpt>
      <trkpt lat="47.52124" lon="6.70395">
        <ele>357</ele>
        <time>2016-07-28T14:12:45.000Z</time>
      </trkpt>
      <trkpt lat="47.52122" lon="6.70401">
        <ele>357</ele>
        <time>2016-07-28T14:12:46.000Z</time>
      </trkpt>
      <trkpt lat="47.52121" lon="6.70407">
        <ele>357</ele>
        <time>2016-07-28T14:12:47.000Z</time>
      </trkpt>
      <trkpt lat="47.52119" lon="6.70412">
        <ele>357</ele>
        <time>2016-07-28T14:12:48.000Z</time>
      </trkpt>
      <trkpt lat="47.52118" lon="6.70418">
        <ele>357</ele>
        <time>2016-07-28T14:12:49.000Z</time>
      </trkpt>
      <trkpt lat="47.52116" lon="6.70424">
        <ele>357</ele>
        <time>2016-07-28T14:12:50.000Z</time>
      </trkpt>
      <trkpt lat="47.52114" lon="6.7043">
        <ele>357</ele>
        <time>2016-07-28T14:12:51.000Z</time>
      </trkpt>
      <trkpt lat="47.52112" lon="6.70435">
        <ele>357</ele>
        <time>2016-07-28T14:12:52.000Z</time>
      </trkpt>
      <trkpt lat="47.52111" lon="6.70441">
        <ele>357</ele>
        <time>2016-07-28T14:12:53.000Z</time>
      </trkpt>
      <trkpt lat="47.52109" lon="6.70446">
        <ele>357</ele>
        <time>2016-07-28T14:12:54.000Z</time>
      </trkpt>
      <trkpt lat="47.52107" lon="6.70452">
        <ele>357</ele>
        <time>2016-07-28T14:12:55.000Z</time>
      </trkpt>
      <trkpt lat="47.52104" lon="6.70457">
        <ele>357</ele>
        <time>2016-07-28T14:12:56.000Z</time>
      </trkpt>
      <trkpt lat="47.52102" lon="6.70463">
        <ele>357</ele>
        <time>2016-07-28T14:12:57.000Z</time>
      </trkpt>
      <trkpt lat="47.52101" lon="6.70468">
        <ele>357</ele>
        <time>2016-07-28T14:12:58.000Z</time>
      </trkpt>
      <trkpt lat="47.52099" lon="6.70474">
        <ele>357</ele>
        <time>2016-07-28T14:12:59.000Z</time>
      </trkpt>
      <trkpt lat="47.52098" lon="6.70479">
        <ele>357</ele>
        <time>2016-07-28T14:13:00.000Z</time>
      </trkpt>
      <trkpt lat="47.52096" lon="6.70484">
        <ele>357</ele>
        <time>2016-07-28T14:13:01.000Z</time>
      </trkpt>
      <trkpt lat="47.52094" lon="6.70489">
        <ele>358</ele>
        <time>2016-07-28T14:13:02.000Z</time>
      </trkpt>
      <trkpt lat="47.52092" lon="6.70495">
        <ele>358</ele>
        <time>2016-07-28T14:13:03.000Z</time>
      </trkpt>
      <trkpt lat="47.52091" lon="6.705">
        <ele>358</ele>
        <time>2016-07-28T14:13:04.000Z</time>
      </trkpt>
      <trkpt lat="47.52089" lon="6.70506">
        <ele>358</ele>
        <time>2016-07-28T14:13:05.000Z</time>
      </trkpt>
      <trkpt lat="47.52087" lon="6.70511">
        <ele>357</ele>
        <time>2016-07-28T14:13:06.000Z</time>
      </trkpt>
      <trkpt lat="47.52085" lon="6.70516">
        <ele>356</ele>
        <time>2016-07-28T14:13:07.000Z</time>
      </trkpt>
      <trkpt lat="47.52084" lon="6.70521">
        <ele>356</ele>
        <time>2016-07-28T14:13:08.000Z</time>
      </trkpt>
      <trkpt lat="47.52083" lon="6.70527">
        <ele>359</ele>
        <time>2016-07-28T14:13:09.000Z</time>
      </trkpt>
      <trkpt lat="47.52081" lon="6.70532">
        <ele>359</ele>
        <time>2016-07-28T14:13:10.000Z</time>
      </trkpt>
      <trkpt lat="47.52079" lon="6.70537">
        <ele>359</ele>
        <time>2016-07-28T14:13:11.000Z</time>
      </trkpt>
      <trkpt lat="47.52077" lon="6.70542">
        <ele>358</ele>
        <time>2016-07-28T14:13:12.000Z</time>
      </trkpt>
      <trkpt lat="47.52075" lon="6.70547">
        <ele>358</ele>
        <time>2016-07-28T14:13:13.000Z</time>
      </trkpt>
      <trkpt lat="47.52073" lon="6.70552">
        <ele>358</ele>
        <time>2016-07-28T14:13:14.000Z</time>
      </trkpt>
      <trkpt lat="47.52071" lon="6.70557">
        <ele>358</ele>
        <time>2016-07-28T14:13:15.000Z</time>
      </trkpt>
      <trkpt lat="47.5207" lon="6.70562">
        <ele>357</ele>
        <time>2016-07-28T14:13:16.000Z</time>
      </trkpt>
      <trkpt lat="47.52068" lon="6.70567">
        <ele>357</ele>
        <time>2016-07-28T14:13:17.000Z</time>
      </trkpt>
      <trkpt lat="47.52067" lon="6.70572">
        <ele>357</ele>
        <time>2016-07-28T14:13:18.000Z</time>
      </trkpt>
      <trkpt lat="47.52065" lon="6.70577">
        <ele>357</ele>
        <time>2016-07-28T14:13:19.000Z</time>
      </trkpt>
      <trkpt lat="47.52063" lon="6.70583">
        <ele>357</ele>
        <time>2016-07-28T14:13:20.000Z</time>
      </trkpt>
      <trkpt lat="47.52061" lon="6.70588">
        <ele>355</ele>
        <time>2016-07-28T14:13:21.000Z</time>
      </trkpt>
      <trkpt lat="47.52059" lon="6.70593">
        <ele>355</ele>
        <time>2016-07-28T14:13:22.000Z</time>
      </trkpt>
      <trkpt lat="47.52056" lon="6.70599">
        <ele>355</ele>
        <time>2016-07-28T14:13:23.000Z</time>
      </trkpt>
      <trkpt lat="47.52054" lon="6.70604">
        <ele>355</ele>
        <time>2016-07-28T14:13:24.000Z</time>
      </trkpt>
      <trkpt lat="47.52052" lon="6.70609">
        <ele>355</ele>
        <time>2016-07-28T14:13:25.000Z</time>
      </trkpt>
      <trkpt lat="47.5205" lon="6.70614">
        <ele>355</ele>
        <time>2016-07-28T14:13:26.000Z</time>
      </trkpt>
      <trkpt lat="47.52049" lon="6.70619">
        <ele>355</ele>
        <time>2016-07-28T14:13:27.000Z</time>
      </trkpt>
      <trkpt lat="47.52048" lon="6.70625">
        <ele>355</ele>
        <time>2016-07-28T14:13:28.000Z</time>
      </trkpt>
      <trkpt lat="47.52047" lon="6.70629">
        <ele>355</ele>
        <time>2016-07-28T14:13:29.000Z</time>
      </trkpt>
      <trkpt lat="47.52046" lon="6.70635">
        <ele>355</ele>
        <time>2016-07-28T14:13:30.000Z</time>
      </trkpt>
      <trkpt lat="47.52045" lon="6.7064">
        <ele>355</ele>
        <time>2016-07-28T14:13:31.000Z</time>
      </trkpt>
      <trkpt lat="47.52043" lon="6.70644">
        <ele>355</ele>
        <time>2016-07-28T14:13:32.000Z</time>
      </trkpt>
      <trkpt lat="47.52041" lon="6.70649">
        <ele>355</ele>
        <time>2016-07-28T14:13:33.000Z</time>
      </trkpt>
      <trkpt lat="47.52039" lon="6.70654">
        <ele>355</ele>
        <time>2016-07-28T14:13:34.000Z</time>
      </trkpt>
      <trkpt lat="47.52038" lon="6.70658">
        <ele>355</ele>
        <time>2016-07-28T14:13:35.000Z</time>
      </trkpt>
      <trkpt lat="47.52037" lon="6.70663">
        <ele>355</ele>
        <time>2016-07-28T14:13:36.000Z</time>
      </trkpt>
      <trkpt lat="47.52036" lon="6.70668">
        <ele>354</ele>
        <time>2016-07-28T14:13:37.000Z</time>
      </trkpt>
      <trkpt lat="47.52035" lon="6.70674">
        <ele>354</ele>
        <time>2016-07-28T14:13:38.000Z</time>
      </trkpt>
      <trkpt lat="47.52034" lon="6.70678">
        <ele>354</ele>
        <time>2016-07-28T14:13:39.000Z</time>
      </trkpt>
      <trkpt lat="47.52034" lon="6.70683">
        <ele>354</ele>
        <time>2016-07-28T14:13:40.000Z</time>
      </trkpt>
      <trkpt lat="47.52033" lon="6.70687">
        <ele>354</ele>
        <time>2016-07-28T14:13:41.000Z</time>
      </trkpt>
      <trkpt lat="47.52032" lon="6.70691">
        <ele>354</ele>
        <time>2016-07-28T14:13:42.000Z</time>
      </trkpt>
      <trkpt lat="47.52031" lon="6.70695">
        <ele>354</ele>
        <time>2016-07-28T14:13:43.000Z</time>
      </trkpt>
      <trkpt lat="47.5203" lon="6.707">
        <ele>354</ele>
        <time>2016-07-28T14:13:44.000Z</time>
      </trkpt>
      <trkpt lat="47.52029" lon="6.70704">
        <ele>354</ele>
        <time>2016-07-28T14:13:45.000Z</time>
      </trkpt>
      <trkpt lat="47.52028" lon="6.70708">
        <ele>354</ele>
        <time>2016-07-28T14:13:46.000Z</time>
      </trkpt>
      <trkpt lat="47.52027" lon="6.70713">
        <ele>354</ele>
        <time>2016-07-28T14:13:47.000Z</time>
      </trkpt>
      <trkpt lat="47.52025" lon="6.70718">
        <ele>355</ele>
        <time>2016-07-28T14:13:48.000Z</time>
      </trkpt>
      <trkpt lat="47.52024" lon="6.70724">
        <ele>355</ele>
        <time>2016-07-28T14:13:49.000Z</time>
      </trkpt>
      <trkpt lat="47.52023" lon="6.70729">
        <ele>355</ele>
        <time>2016-07-28T14:13:50.000Z</time>
      </trkpt>
      <trkpt lat="47.52021" lon="6.70735">
        <ele>355</ele>
        <time>2016-07-28T14:13:51.000Z</time>
      </trkpt>
      <trkpt lat="47.5202" lon="6.7074">
        <ele>355</ele>
        <time>2016-07-28T14:13:52.000Z</time>
      </trkpt>
      <trkpt lat="47.52019" lon="6.70745">
        <ele>355</ele>
        <time>2016-07-28T14:13:53.000Z</time>
      </trkpt>
      <trkpt lat="47.52017" lon="6.70751">
        <ele>356</ele>
        <time>2016-07-28T14:13:54.000Z</time>
      </trkpt>
      <trkpt lat="47.52016" lon="6.70757">
        <ele>356</ele>
        <time>2016-07-28T14:13:55.000Z</time>
      </trkpt>
      <trkpt lat="47.52014" lon="6.70763">
        <ele>356</ele>
        <time>2016-07-28T14:13:56.000Z</time>
      </trkpt>
      <trkpt lat="47.52013" lon="6.70768">
        <ele>356</ele>
        <time>2016-07-28T14:13:57.000Z</time>
      </trkpt>
      <trkpt lat="47.52011" lon="6.70774">
        <ele>356</ele>
        <time>2016-07-28T14:13:58.000Z</time>
      </trkpt>
      <trkpt lat="47.5201" lon="6.7078">
        <ele>356</ele>
        <time>2016-07-28T14:13:59.000Z</time>
      </trkpt>
      <trkpt lat="47.52008" lon="6.70785">
        <ele>357</ele>
        <time>2016-07-28T14:14:00.000Z</time>
      </trkpt>
      <trkpt lat="47.52007" lon="6.7079">
        <ele>357</ele>
        <time>2016-07-28T14:14:01.000Z</time>
      </trkpt>
      <trkpt lat="47.52005" lon="6.70794">
        <ele>357</ele>
        <time>2016-07-28T14:14:02.000Z</time>
      </trkpt>
      <trkpt lat="47.52003" lon="6.70799">
        <ele>357</ele>
        <time>2016-07-28T14:14:03.000Z</time>
      </trkpt>
      <trkpt lat="47.52002" lon="6.70803">
        <ele>357</ele>
        <time>2016-07-28T14:14:04.000Z</time>
      </trkpt>
      <trkpt lat="47.52" lon="6.70808">
        <ele>357</ele>
        <time>2016-07-28T14:14:05.000Z</time>
      </trkpt>
      <trkpt lat="47.51999" lon="6.70812">
        <ele>359</ele>
        <time>2016-07-28T14:14:06.000Z</time>
      </trkpt>
      <trkpt lat="47.51997" lon="6.70817">
        <ele>359</ele>
        <time>2016-07-28T14:14:07.000Z</time>
      </trkpt>
      <trkpt lat="47.51996" lon="6.70822">
        <ele>359</ele>
        <time>2016-07-28T14:14:08.000Z</time>
      </trkpt>
      <trkpt lat="47.51995" lon="6.70827">
        <ele>359</ele>
        <time>2016-07-28T14:14:09.000Z</time>
      </trkpt>
      <trkpt lat="47.51993" lon="6.70832">
        <ele>359</ele>
        <time>2016-07-28T14:14:10.000Z</time>
      </trkpt>
      <trkpt lat="47.51991" lon="6.70837">
        <ele>360</ele>
        <time>2016-07-28T14:14:11.000Z</time>
      </trkpt>
      <trkpt lat="47.51989" lon="6.70842">
        <ele>361</ele>
        <time>2016-07-28T14:14:12.000Z</time>
      </trkpt>
      <trkpt lat="47.51988" lon="6.70847">
        <ele>361</ele>
        <time>2016-07-28T14:14:13.000Z</time>
      </trkpt>
      <trkpt lat="47.51986" lon="6.70852">
        <ele>362</ele>
        <time>2016-07-28T14:14:14.000Z</time>
      </trkpt>
      <trkpt lat="47.51985" lon="6.70857">
        <ele>362</ele>
        <time>2016-07-28T14:14:15.000Z</time>
      </trkpt>
      <trkpt lat="47.51983" lon="6.70861">
        <ele>362</ele>
        <time>2016-07-28T14:14:16.000Z</time>
      </trkpt>
      <trkpt lat="47.51982" lon="6.70865">
        <ele>362</ele>
        <time>2016-07-28T14:14:17.000Z</time>
      </trkpt>
      <trkpt lat="47.51981" lon="6.7087">
        <ele>363</ele>
        <time>2016-07-28T14:14:18.000Z</time>
      </trkpt>
      <trkpt lat="47.5198" lon="6.70874">
        <ele>363</ele>
        <time>2016-07-28T14:14:19.000Z</time>
      </trkpt>
      <trkpt lat="47.51979" lon="6.70878">
        <ele>363</ele>
        <time>2016-07-28T14:14:20.000Z</time>
      </trkpt>
      <trkpt lat="47.5198" lon="6.70883">
        <ele>363</ele>
        <time>2016-07-28T14:14:21.000Z</time>
      </trkpt>
      <trkpt lat="47.5198" lon="6.70887">
        <ele>363</ele>
        <time>2016-07-28T14:14:22.000Z</time>
      </trkpt>
      <trkpt lat="47.51981" lon="6.70891">
        <ele>363</ele>
        <time>2016-07-28T14:14:23.000Z</time>
      </trkpt>
      <trkpt lat="47.51982" lon="6.70895">
        <ele>363</ele>
        <time>2016-07-28T14:14:24.000Z</time>
      </trkpt>
      <trkpt lat="47.51984" lon="6.709">
        <ele>363</ele>
        <time>2016-07-28T14:14:25.000Z</time>
      </trkpt>
      <trkpt lat="47.51985" lon="6.70904">
        <ele>363</ele>
        <time>2016-07-28T14:14:26.000Z</time>
      </trkpt>
      <trkpt lat="47.51987" lon="6.70909">
        <ele>363</ele>
        <time>2016-07-28T14:14:27.000Z</time>
      </trkpt>
      <trkpt lat="47.51989" lon="6.70913">
        <ele>362</ele>
        <time>2016-07-28T14:14:28.000Z</time>
      </trkpt>
      <trkpt lat="47.51991" lon="6.70916">
        <ele>362</ele>
        <time>2016-07-28T14:14:29.000Z</time>
      </trkpt>
      <trkpt lat="47.51994" lon="6.7092">
        <ele>364</ele>
        <time>2016-07-28T14:14:30.000Z</time>
      </trkpt>
      <trkpt lat="47.51996" lon="6.70924">
        <ele>365</ele>
        <time>2016-07-28T14:14:31.000Z</time>
      </trkpt>
      <trkpt lat="47.51999" lon="6.70928">
        <ele>365</ele>
        <time>2016-07-28T14:14:32.000Z</time>
      </trkpt>
      <trkpt lat="47.52001" lon="6.70931">
        <ele>363</ele>
        <time>2016-07-28T14:14:33.000Z</time>
      </trkpt>
      <trkpt lat="47.52004" lon="6.70934">
        <ele>363</ele>
        <time>2016-07-28T14:14:34.000Z</time>
      </trkpt>
      <trkpt lat="47.52007" lon="6.70937">
        <ele>363</ele>
        <time>2016-07-28T14:14:35.000Z</time>
      </trkpt>
      <trkpt lat="47.5201" lon="6.7094">
        <ele>364</ele>
        <time>2016-07-28T14:14:36.000Z</time>
      </trkpt>
      <trkpt lat="47.52013" lon="6.70943">
        <ele>364</ele>
        <time>2016-07-28T14:14:37.000Z</time>
      </trkpt>
      <trkpt lat="47.52016" lon="6.70945">
        <ele>364</ele>
        <time>2016-07-28T14:14:38.000Z</time>
      </trkpt>
      <trkpt lat="47.52019" lon="6.70948">
        <ele>364</ele>
        <time>2016-07-28T14:14:39.000Z</time>
      </trkpt>
      <trkpt lat="47.52022" lon="6.7095">
        <ele>364</ele>
        <time>2016-07-28T14:14:40.000Z</time>
      </trkpt>
      <trkpt lat="47.52024" lon="6.70953">
        <ele>364</ele>
        <time>2016-07-28T14:14:41.000Z</time>
      </trkpt>
      <trkpt lat="47.52027" lon="6.70955">
        <ele>365</ele>
        <time>2016-07-28T14:14:42.000Z</time>
      </trkpt>
      <trkpt lat="47.5203" lon="6.70958">
        <ele>365</ele>
        <time>2016-07-28T14:14:43.000Z</time>
      </trkpt>
      <trkpt lat="47.52033" lon="6.70961">
        <ele>365</ele>
        <time>2016-07-28T14:14:44.000Z</time>
      </trkpt>
      <trkpt lat="47.52036" lon="6.70964">
        <ele>365</ele>
        <time>2016-07-28T14:14:45.000Z</time>
      </trkpt>
      <trkpt lat="47.52038" lon="6.70968">
        <ele>365</ele>
        <time>2016-07-28T14:14:46.000Z</time>
      </trkpt>
      <trkpt lat="47.5204" lon="6.70972">
        <ele>365</ele>
        <time>2016-07-28T14:14:47.000Z</time>
      </trkpt>
      <trkpt lat="47.52041" lon="6.70975">
        <ele>365</ele>
        <time>2016-07-28T14:14:48.000Z</time>
      </trkpt>
      <trkpt lat="47.52042" lon="6.70978">
        <ele>365</ele>
        <time>2016-07-28T14:14:49.000Z</time>
      </trkpt>
      <trkpt lat="47.52043" lon="6.70983">
        <ele>366</ele>
        <time>2016-07-28T14:14:51.000Z</time>
      </trkpt>
      <trkpt lat="47.52043" lon="6.70985">
        <ele>366</ele>
        <time>2016-07-28T14:14:52.000Z</time>
      </trkpt>
      <trkpt lat="47.52043" lon="6.70991">
        <ele>366</ele>
        <time>2016-07-28T14:14:56.000Z</time>
      </trkpt>
      <trkpt lat="47.52042" lon="6.70993">
        <ele>366</ele>
        <time>2016-07-28T14:14:57.000Z</time>
      </trkpt>
      <trkpt lat="47.52038" lon="6.70996">
        <ele>366</ele>
        <time>2016-07-28T14:15:00.000Z</time>
      </trkpt>
      <trkpt lat="47.52036" lon="6.70995">
        <ele>367</ele>
        <time>2016-07-28T14:15:01.000Z</time>
      </trkpt>
      <trkpt lat="47.52034" lon="6.70994">
        <ele>367</ele>
        <time>2016-07-28T14:15:02.000Z</time>
      </trkpt>
      <trkpt lat="47.52032" lon="6.70992">
        <ele>367</ele>
        <time>2016-07-28T14:15:03.000Z</time>
      </trkpt>
      <trkpt lat="47.52028" lon="6.7099">
        <ele>367</ele>
        <time>2016-07-28T14:15:05.000Z</time>
      </trkpt>
      <trkpt lat="47.52025" lon="6.70989">
        <ele>367</ele>
        <time>2016-07-28T14:15:06.000Z</time>
      </trkpt>
      <trkpt lat="47.52021" lon="6.70987">
        <ele>368</ele>
        <time>2016-07-28T14:15:08.000Z</time>
      </trkpt>
      <trkpt lat="47.52019" lon="6.70987">
        <ele>368</ele>
        <time>2016-07-28T14:15:09.000Z</time>
      </trkpt>
      <trkpt lat="47.52017" lon="6.70986">
        <ele>368</ele>
        <time>2016-07-28T14:15:10.000Z</time>
      </trkpt>
      <trkpt lat="47.52014" lon="6.70985">
        <ele>368</ele>
        <time>2016-07-28T14:15:11.000Z</time>
      </trkpt>
      <trkpt lat="47.52012" lon="6.70985">
        <ele>369</ele>
        <time>2016-07-28T14:15:12.000Z</time>
      </trkpt>
      <trkpt lat="47.52009" lon="6.70984">
        <ele>369</ele>
        <time>2016-07-28T14:15:13.000Z</time>
      </trkpt>
      <trkpt lat="47.52007" lon="6.70984">
        <ele>369</ele>
        <time>2016-07-28T14:15:14.000Z</time>
      </trkpt>
      <trkpt lat="47.52004" lon="6.70983">
        <ele>369</ele>
        <time>2016-07-28T14:15:15.000Z</time>
      </trkpt>
      <trkpt lat="47.52" lon="6.70981">
        <ele>369</ele>
        <time>2016-07-28T14:15:17.000Z</time>
      </trkpt>
      <trkpt lat="47.51998" lon="6.70981">
        <ele>373</ele>
        <time>2016-07-28T14:15:18.000Z</time>
      </trkpt>
      <trkpt lat="47.51994" lon="6.7098">
        <ele>373</ele>
        <time>2016-07-28T14:15:20.000Z</time>
      </trkpt>
      <trkpt lat="47.51992" lon="6.7098">
        <ele>373</ele>
        <time>2016-07-28T14:15:21.000Z</time>
      </trkpt>
      <trkpt lat="47.51988" lon="6.7098">
        <ele>374</ele>
        <time>2016-07-28T14:15:23.000Z</time>
      </trkpt>
      <trkpt lat="47.51987" lon="6.7098">
        <ele>374</ele>
        <time>2016-07-28T14:15:24.000Z</time>
      </trkpt>
      <trkpt lat="47.51983" lon="6.70981">
        <ele>374</ele>
        <time>2016-07-28T14:15:26.000Z</time>
      </trkpt>
      <trkpt lat="47.51981" lon="6.70981">
        <ele>374</ele>
        <time>2016-07-28T14:15:27.000Z</time>
      </trkpt>
      <trkpt lat="47.51977" lon="6.70982">
        <ele>374</ele>
        <time>2016-07-28T14:15:29.000Z</time>
      </trkpt>
      <trkpt lat="47.51975" lon="6.70982">
        <ele>374</ele>
        <time>2016-07-28T14:15:30.000Z</time>
      </trkpt>
      <trkpt lat="47.51971" lon="6.70983">
        <ele>375</ele>
        <time>2016-07-28T14:15:32.000Z</time>
      </trkpt>
      <trkpt lat="47.51969" lon="6.70983">
        <ele>375</ele>
        <time>2016-07-28T14:15:33.000Z</time>
      </trkpt>
      <trkpt lat="47.51965" lon="6.70983">
        <ele>375</ele>
        <time>2016-07-28T14:15:35.000Z</time>
      </trkpt>
      <trkpt lat="47.51963" lon="6.70983">
        <ele>375</ele>
        <time>2016-07-28T14:15:36.000Z</time>
      </trkpt>
      <trkpt lat="47.51959" lon="6.70984">
        <ele>376</ele>
        <time>2016-07-28T14:15:38.000Z</time>
      </trkpt>
      <trkpt lat="47.51957" lon="6.70984">
        <ele>376</ele>
        <time>2016-07-28T14:15:39.000Z</time>
      </trkpt>
      <trkpt lat="47.51954" lon="6.70985">
        <ele>376</ele>
        <time>2016-07-28T14:15:41.000Z</time>
      </trkpt>
      <trkpt lat="47.51953" lon="6.70985">
        <ele>376</ele>
        <time>2016-07-28T14:15:42.000Z</time>
      </trkpt>
      <trkpt lat="47.51949" lon="6.70987">
        <ele>377</ele>
        <time>2016-07-28T14:15:45.000Z</time>
      </trkpt>
      <trkpt lat="47.51948" lon="6.70987">
        <ele>377</ele>
        <time>2016-07-28T14:15:46.000Z</time>
      </trkpt>
      <trkpt lat="47.51944" lon="6.70989">
        <ele>378</ele>
        <time>2016-07-28T14:15:50.000Z</time>
      </trkpt>
      <trkpt lat="47.51943" lon="6.70989">
        <ele>378</ele>
        <time>2016-07-28T14:15:51.000Z</time>
      </trkpt>
      <trkpt lat="47.51939" lon="6.7099">
        <ele>379</ele>
        <time>2016-07-28T14:15:55.000Z</time>
      </trkpt>
      <trkpt lat="47.51938" lon="6.7099">
        <ele>379</ele>
        <time>2016-07-28T14:15:56.000Z</time>
      </trkpt>
      <trkpt lat="47.51934" lon="6.70991">
        <ele>380</ele>
        <time>2016-07-28T14:15:59.000Z</time>
      </trkpt>
      <trkpt lat="47.51933" lon="6.70991">
        <ele>380</ele>
        <time>2016-07-28T14:16:00.000Z</time>
      </trkpt>
      <trkpt lat="47.5193" lon="6.70993">
        <ele>381</ele>
        <time>2016-07-28T14:16:04.000Z</time>
      </trkpt>
      <trkpt lat="47.51929" lon="6.70994">
        <ele>382</ele>
        <time>2016-07-28T14:16:05.000Z</time>
      </trkpt>
      <trkpt lat="47.51924" lon="6.70995">
        <ele>383</ele>
        <time>2016-07-28T14:16:08.000Z</time>
      </trkpt>
      <trkpt lat="47.51923" lon="6.70995">
        <ele>383</ele>
        <time>2016-07-28T14:16:09.000Z</time>
      </trkpt>
      <trkpt lat="47.5192" lon="6.70995">
        <ele>384</ele>
        <time>2016-07-28T14:16:12.000Z</time>
      </trkpt>
      <trkpt lat="47.51918" lon="6.70995">
        <ele>384</ele>
        <time>2016-07-28T14:16:13.000Z</time>
      </trkpt>
      <trkpt lat="47.51915" lon="6.70995">
        <ele>386</ele>
        <time>2016-07-28T14:16:15.000Z</time>
      </trkpt>
      <trkpt lat="47.51913" lon="6.70995">
        <ele>386</ele>
        <time>2016-07-28T14:16:16.000Z</time>
      </trkpt>
      <trkpt lat="47.5191" lon="6.70995">
        <ele>386</ele>
        <time>2016-07-28T14:16:18.000Z</time>
      </trkpt>
      <trkpt lat="47.51909" lon="6.70996">
        <ele>386</ele>
        <time>2016-07-28T14:16:19.000Z</time>
      </trkpt>
      <trkpt lat="47.51906" lon="6.70997">
        <ele>386</ele>
        <time>2016-07-28T14:16:21.000Z</time>
      </trkpt>
      <trkpt lat="47.51904" lon="6.70997">
        <ele>386</ele>
        <time>2016-07-28T14:16:22.000Z</time>
      </trkpt>
      <trkpt lat="47.519" lon="6.70998">
        <ele>386</ele>
        <time>2016-07-28T14:16:24.000Z</time>
      </trkpt>
      <trkpt lat="47.51899" lon="6.70998">
        <ele>386</ele>
        <time>2016-07-28T14:16:25.000Z</time>
      </trkpt>
      <trkpt lat="47.51895" lon="6.70998">
        <ele>386</ele>
        <time>2016-07-28T14:16:27.000Z</time>
      </trkpt>
      <trkpt lat="47.51894" lon="6.70998">
        <ele>386</ele>
        <time>2016-07-28T14:16:28.000Z</time>
      </trkpt>
      <trkpt lat="47.5189" lon="6.70999">
        <ele>386</ele>
        <time>2016-07-28T14:16:31.000Z</time>
      </trkpt>
      <trkpt lat="47.51888" lon="6.71">
        <ele>386</ele>
        <time>2016-07-28T14:16:32.000Z</time>
      </trkpt>
      <trkpt lat="47.51886" lon="6.71001">
        <ele>394</ele>
        <time>2016-07-28T14:16:34.000Z</time>
      </trkpt>
      <trkpt lat="47.51884" lon="6.71001">
        <ele>394</ele>
        <time>2016-07-28T14:16:35.000Z</time>
      </trkpt>
      <trkpt lat="47.51879" lon="6.71001">
        <ele>394</ele>
        <time>2016-07-28T14:16:37.000Z</time>
      </trkpt>
      <trkpt lat="47.51877" lon="6.71">
        <ele>394</ele>
        <time>2016-07-28T14:16:38.000Z</time>
      </trkpt>
      <trkpt lat="47.51875" lon="6.71">
        <ele>387</ele>
        <time>2016-07-28T14:16:39.000Z</time>
      </trkpt>
      <trkpt lat="47.51873" lon="6.71">
        <ele>395</ele>
        <time>2016-07-28T14:16:40.000Z</time>
      </trkpt>
      <trkpt lat="47.5187" lon="6.71001">
        <ele>395</ele>
        <time>2016-07-28T14:16:41.000Z</time>
      </trkpt>
      <trkpt lat="47.51868" lon="6.71001">
        <ele>395</ele>
        <time>2016-07-28T14:16:42.000Z</time>
      </trkpt>
      <trkpt lat="47.51864" lon="6.71002">
        <ele>395</ele>
        <time>2016-07-28T14:16:45.000Z</time>
      </trkpt>
      <trkpt lat="47.51863" lon="6.71002">
        <ele>395</ele>
        <time>2016-07-28T14:16:46.000Z</time>
      </trkpt>
      <trkpt lat="47.51859" lon="6.71003">
        <ele>395</ele>
        <time>2016-07-28T14:16:49.000Z</time>
      </trkpt>
      <trkpt lat="47.51857" lon="6.71003">
        <ele>395</ele>
        <time>2016-07-28T14:16:50.000Z</time>
      </trkpt>
      <trkpt lat="47.51854" lon="6.71004">
        <ele>395</ele>
        <time>2016-07-28T14:16:52.000Z</time>
      </trkpt>
      <trkpt lat="47.51852" lon="6.71004">
        <ele>395</ele>
        <time>2016-07-28T14:16:53.000Z</time>
      </trkpt>
      <trkpt lat="47.51848" lon="6.71006">
        <ele>395</ele>
        <time>2016-07-28T14:16:56.000Z</time>
      </trkpt>
      <trkpt lat="47.51847" lon="6.71006">
        <ele>395</ele>
        <time>2016-07-28T14:16:57.000Z</time>
      </trkpt>
      <trkpt lat="47.51844" lon="6.71007">
        <ele>395</ele>
        <time>2016-07-28T14:16:59.000Z</time>
      </trkpt>
      <trkpt lat="47.51842" lon="6.71008">
        <ele>395</ele>
        <time>2016-07-28T14:17:00.000Z</time>
      </trkpt>
      <trkpt lat="47.51839" lon="6.71008">
        <ele>395</ele>
        <time>2016-07-28T14:17:02.000Z</time>
      </trkpt>
      <trkpt lat="47.51837" lon="6.71009">
        <ele>395</ele>
        <time>2016-07-28T14:17:03.000Z</time>
      </trkpt>
      <trkpt lat="47.51833" lon="6.71011">
        <ele>396</ele>
        <time>2016-07-28T14:17:06.000Z</time>
      </trkpt>
      <trkpt lat="47.51832" lon="6.71011">
        <ele>396</ele>
        <time>2016-07-28T14:17:07.000Z</time>
      </trkpt>
      <trkpt lat="47.51829" lon="6.71011">
        <ele>396</ele>
        <time>2016-07-28T14:17:09.000Z</time>
      </trkpt>
      <trkpt lat="47.51827" lon="6.71011">
        <ele>396</ele>
        <time>2016-07-28T14:17:10.000Z</time>
      </trkpt>
      <trkpt lat="47.51823" lon="6.71012">
        <ele>397</ele>
        <time>2016-07-28T14:17:12.000Z</time>
      </trkpt>
      <trkpt lat="47.51822" lon="6.71012">
        <ele>397</ele>
        <time>2016-07-28T14:17:13.000Z</time>
      </trkpt>
      <trkpt lat="47.51819" lon="6.71012">
        <ele>397</ele>
        <time>2016-07-28T14:17:16.000Z</time>
      </trkpt>
      <trkpt lat="47.51817" lon="6.71012">
        <ele>397</ele>
        <time>2016-07-28T14:17:17.000Z</time>
      </trkpt>
      <trkpt lat="47.51814" lon="6.71012">
        <ele>397</ele>
        <time>2016-07-28T14:17:19.000Z</time>
      </trkpt>
      <trkpt lat="47.51812" lon="6.71012">
        <ele>397</ele>
        <time>2016-07-28T14:17:20.000Z</time>
      </trkpt>
      <trkpt lat="47.51808" lon="6.71012">
        <ele>398</ele>
        <time>2016-07-28T14:17:22.000Z</time>
      </trkpt>
      <trkpt lat="47.51806" lon="6.71013">
        <ele>398</ele>
        <time>2016-07-28T14:17:23.000Z</time>
      </trkpt>
      <trkpt lat="47.51803" lon="6.71013">
        <ele>398</ele>
        <time>2016-07-28T14:17:25.000Z</time>
      </trkpt>
      <trkpt lat="47.51801" lon="6.71014">
        <ele>398</ele>
        <time>2016-07-28T14:17:26.000Z</time>
      </trkpt>
      <trkpt lat="47.51798" lon="6.71015">
        <ele>398</ele>
        <time>2016-07-28T14:17:28.000Z</time>
      </trkpt>
      <trkpt lat="47.51796" lon="6.71015">
        <ele>398</ele>
        <time>2016-07-28T14:17:29.000Z</time>
      </trkpt>
      <trkpt lat="47.51792" lon="6.71015">
        <ele>398</ele>
        <time>2016-07-28T14:17:32.000Z</time>
      </trkpt>
      <trkpt lat="47.5179" lon="6.71014">
        <ele>398</ele>
        <time>2016-07-28T14:17:33.000Z</time>
      </trkpt>
      <trkpt lat="47.51787" lon="6.71013">
        <ele>398</ele>
        <time>2016-07-28T14:17:35.000Z</time>
      </trkpt>
      <trkpt lat="47.51786" lon="6.71013">
        <ele>398</ele>
        <time>2016-07-28T14:17:36.000Z</time>
      </trkpt>
      <trkpt lat="47.51781" lon="6.71013">
        <ele>398</ele>
        <time>2016-07-28T14:17:39.000Z</time>
      </trkpt>
      <trkpt lat="47.5178" lon="6.71014">
        <ele>398</ele>
        <time>2016-07-28T14:17:40.000Z</time>
      </trkpt>
      <trkpt lat="47.51777" lon="6.71016">
        <ele>398</ele>
        <time>2016-07-28T14:17:43.000Z</time>
      </trkpt>
      <trkpt lat="47.51775" lon="6.71017">
        <ele>398</ele>
        <time>2016-07-28T14:17:44.000Z</time>
      </trkpt>
      <trkpt lat="47.51772" lon="6.71017">
        <ele>398</ele>
        <time>2016-07-28T14:17:46.000Z</time>
      </trkpt>
      <trkpt lat="47.51771" lon="6.71018">
        <ele>398</ele>
        <time>2016-07-28T14:17:47.000Z</time>
      </trkpt>
      <trkpt lat="47.51767" lon="6.71018">
        <ele>398</ele>
        <time>2016-07-28T14:17:49.000Z</time>
      </trkpt>
      <trkpt lat="47.51765" lon="6.71018">
        <ele>398</ele>
        <time>2016-07-28T14:17:50.000Z</time>
      </trkpt>
      <trkpt lat="47.51762" lon="6.71018">
        <ele>398</ele>
        <time>2016-07-28T14:17:52.000Z</time>
      </trkpt>
      <trkpt lat="47.5176" lon="6.71018">
        <ele>398</ele>
        <time>2016-07-28T14:17:53.000Z</time>
      </trkpt>
      <trkpt lat="47.51756" lon="6.71019">
        <ele>398</ele>
        <time>2016-07-28T14:17:56.000Z</time>
      </trkpt>
      <trkpt lat="47.51754" lon="6.71019">
        <ele>398</ele>
        <time>2016-07-28T14:17:57.000Z</time>
      </trkpt>
      <trkpt lat="47.51751" lon="6.7102">
        <ele>398</ele>
        <time>2016-07-28T14:17:59.000Z</time>
      </trkpt>
      <trkpt lat="47.51749" lon="6.7102">
        <ele>403</ele>
        <time>2016-07-28T14:18:00.000Z</time>
      </trkpt>
      <trkpt lat="47.51744" lon="6.71021">
        <ele>403</ele>
        <time>2016-07-28T14:18:02.000Z</time>
      </trkpt>
      <trkpt lat="47.51742" lon="6.71021">
        <ele>404</ele>
        <time>2016-07-28T14:18:03.000Z</time>
      </trkpt>
      <trkpt lat="47.51738" lon="6.71021">
        <ele>404</ele>
        <time>2016-07-28T14:18:05.000Z</time>
      </trkpt>
      <trkpt lat="47.51736" lon="6.71022">
        <ele>404</ele>
        <time>2016-07-28T14:18:06.000Z</time>
      </trkpt>
      <trkpt lat="47.51733" lon="6.71022">
        <ele>405</ele>
        <time>2016-07-28T14:18:08.000Z</time>
      </trkpt>
      <trkpt lat="47.51731" lon="6.71022">
        <ele>405</ele>
        <time>2016-07-28T14:18:09.000Z</time>
      </trkpt>
      <trkpt lat="47.51727" lon="6.71022">
        <ele>406</ele>
        <time>2016-07-28T14:18:11.000Z</time>
      </trkpt>
      <trkpt lat="47.51725" lon="6.71022">
        <ele>406</ele>
        <time>2016-07-28T14:18:12.000Z</time>
      </trkpt>
      <trkpt lat="47.51721" lon="6.71022">
        <ele>406</ele>
        <time>2016-07-28T14:18:14.000Z</time>
      </trkpt>
      <trkpt lat="47.51719" lon="6.71021">
        <ele>407</ele>
        <time>2016-07-28T14:18:15.000Z</time>
      </trkpt>
      <trkpt lat="47.51715" lon="6.71021">
        <ele>407</ele>
        <time>2016-07-28T14:18:17.000Z</time>
      </trkpt>
      <trkpt lat="47.51713" lon="6.71021">
        <ele>407</ele>
        <time>2016-07-28T14:18:18.000Z</time>
      </trkpt>
      <trkpt lat="47.51709" lon="6.71021">
        <ele>408</ele>
        <time>2016-07-28T14:18:20.000Z</time>
      </trkpt>
      <trkpt lat="47.51707" lon="6.7102">
        <ele>408</ele>
        <time>2016-07-28T14:18:21.000Z</time>
      </trkpt>
      <trkpt lat="47.51703" lon="6.71019">
        <ele>408</ele>
        <time>2016-07-28T14:18:23.000Z</time>
      </trkpt>
      <trkpt lat="47.51702" lon="6.71018">
        <ele>408</ele>
        <time>2016-07-28T14:18:24.000Z</time>
      </trkpt>
      <trkpt lat="47.51698" lon="6.71017">
        <ele>409</ele>
        <time>2016-07-28T14:18:26.000Z</time>
      </trkpt>
      <trkpt lat="47.51696" lon="6.71016">
        <ele>409</ele>
        <time>2016-07-28T14:18:27.000Z</time>
      </trkpt>
      <trkpt lat="47.51692" lon="6.71014">
        <ele>409</ele>
        <time>2016-07-28T14:18:29.000Z</time>
      </trkpt>
      <trkpt lat="47.5169" lon="6.71013">
        <ele>410</ele>
        <time>2016-07-28T14:18:30.000Z</time>
      </trkpt>
      <trkpt lat="47.51686" lon="6.71013">
        <ele>410</ele>
        <time>2016-07-28T14:18:32.000Z</time>
      </trkpt>
      <trkpt lat="47.51684" lon="6.71013">
        <ele>410</ele>
        <time>2016-07-28T14:18:33.000Z</time>
      </trkpt>
      <trkpt lat="47.51681" lon="6.71013">
        <ele>410</ele>
        <time>2016-07-28T14:18:34.000Z</time>
      </trkpt>
      <trkpt lat="47.51679" lon="6.71013">
        <ele>410</ele>
        <time>2016-07-28T14:18:35.000Z</time>
      </trkpt>
      <trkpt lat="47.51677" lon="6.71012">
        <ele>411</ele>
        <time>2016-07-28T14:18:36.000Z</time>
      </trkpt>
      <trkpt lat="47.51674" lon="6.71012">
        <ele>411</ele>
        <time>2016-07-28T14:18:37.000Z</time>
      </trkpt>
      <trkpt lat="47.51672" lon="6.71011">
        <ele>411</ele>
        <time>2016-07-28T14:18:38.000Z</time>
      </trkpt>
      <trkpt lat="47.51669" lon="6.7101">
        <ele>411</ele>
        <time>2016-07-28T14:18:39.000Z</time>
      </trkpt>
      <trkpt lat="47.51667" lon="6.7101">
        <ele>411</ele>
        <time>2016-07-28T14:18:40.000Z</time>
      </trkpt>
      <trkpt lat="47.51665" lon="6.71009">
        <ele>416</ele>
        <time>2016-07-28T14:18:41.000Z</time>
      </trkpt>
      <trkpt lat="47.51661" lon="6.71007">
        <ele>417</ele>
        <time>2016-07-28T14:18:43.000Z</time>
      </trkpt>
      <trkpt lat="47.51659" lon="6.71007">
        <ele>417</ele>
        <time>2016-07-28T14:18:44.000Z</time>
      </trkpt>
      <trkpt lat="47.51655" lon="6.71005">
        <ele>418</ele>
        <time>2016-07-28T14:18:46.000Z</time>
      </trkpt>
      <trkpt lat="47.51653" lon="6.71004">
        <ele>419</ele>
        <time>2016-07-28T14:18:47.000Z</time>
      </trkpt>
      <trkpt lat="47.51649" lon="6.71003">
        <ele>420</ele>
        <time>2016-07-28T14:18:49.000Z</time>
      </trkpt>
      <trkpt lat="47.51647" lon="6.71003">
        <ele>420</ele>
        <time>2016-07-28T14:18:50.000Z</time>
      </trkpt>
      <trkpt lat="47.51644" lon="6.71001">
        <ele>421</ele>
        <time>2016-07-28T14:18:52.000Z</time>
      </trkpt>
      <trkpt lat="47.51642" lon="6.71">
        <ele>421</ele>
        <time>2016-07-28T14:18:53.000Z</time>
      </trkpt>
      <trkpt lat="47.5164" lon="6.70999">
        <ele>417</ele>
        <time>2016-07-28T14:18:55.000Z</time>
      </trkpt>
      <trkpt lat="47.51638" lon="6.70999">
        <ele>417</ele>
        <time>2016-07-28T14:18:56.000Z</time>
      </trkpt>
      <trkpt lat="47.51635" lon="6.70998">
        <ele>418</ele>
        <time>2016-07-28T14:18:58.000Z</time>
      </trkpt>
      <trkpt lat="47.51633" lon="6.70998">
        <ele>418</ele>
        <time>2016-07-28T14:18:59.000Z</time>
      </trkpt>
      <trkpt lat="47.5163" lon="6.70999">
        <ele>418</ele>
        <time>2016-07-28T14:19:01.000Z</time>
      </trkpt>
      <trkpt lat="47.51628" lon="6.70999">
        <ele>419</ele>
        <time>2016-07-28T14:19:02.000Z</time>
      </trkpt>
      <trkpt lat="47.51625" lon="6.70998">
        <ele>419</ele>
        <time>2016-07-28T14:19:04.000Z</time>
      </trkpt>
      <trkpt lat="47.51624" lon="6.70998">
        <ele>419</ele>
        <time>2016-07-28T14:19:05.000Z</time>
      </trkpt>
      <trkpt lat="47.5162" lon="6.70997">
        <ele>420</ele>
        <time>2016-07-28T14:19:07.000Z</time>
      </trkpt>
      <trkpt lat="47.51617" lon="6.70997">
        <ele>421</ele>
        <time>2016-07-28T14:19:08.000Z</time>
      </trkpt>
      <trkpt lat="47.51614" lon="6.70996">
        <ele>421</ele>
        <time>2016-07-28T14:19:09.000Z</time>
      </trkpt>
      <trkpt lat="47.51612" lon="6.70995">
        <ele>422</ele>
        <time>2016-07-28T14:19:10.000Z</time>
      </trkpt>
      <trkpt lat="47.51609" lon="6.70994">
        <ele>422</ele>
        <time>2016-07-28T14:19:11.000Z</time>
      </trkpt>
      <trkpt lat="47.51606" lon="6.70993">
        <ele>423</ele>
        <time>2016-07-28T14:19:12.000Z</time>
      </trkpt>
      <trkpt lat="47.51603" lon="6.70992">
        <ele>424</ele>
        <time>2016-07-28T14:19:14.000Z</time>
      </trkpt>
      <trkpt lat="47.51601" lon="6.70991">
        <ele>424</ele>
        <time>2016-07-28T14:19:15.000Z</time>
      </trkpt>
      <trkpt lat="47.51597" lon="6.7099">
        <ele>425</ele>
        <time>2016-07-28T14:19:17.000Z</time>
      </trkpt>
      <trkpt lat="47.51596" lon="6.70989">
        <ele>425</ele>
        <time>2016-07-28T14:19:18.000Z</time>
      </trkpt>
      <trkpt lat="47.51592" lon="6.70989">
        <ele>426</ele>
        <time>2016-07-28T14:19:20.000Z</time>
      </trkpt>
      <trkpt lat="47.51591" lon="6.70988">
        <ele>426</ele>
        <time>2016-07-28T14:19:21.000Z</time>
      </trkpt>
      <trkpt lat="47.51587" lon="6.70987">
        <ele>426</ele>
        <time>2016-07-28T14:19:23.000Z</time>
      </trkpt>
      <trkpt lat="47.51586" lon="6.70987">
        <ele>426</ele>
        <time>2016-07-28T14:19:24.000Z</time>
      </trkpt>
      <trkpt lat="47.51582" lon="6.70987">
        <ele>432</ele>
        <time>2016-07-28T14:19:27.000Z</time>
      </trkpt>
      <trkpt lat="47.5158" lon="6.70986">
        <ele>432</ele>
        <time>2016-07-28T14:19:28.000Z</time>
      </trkpt>
      <trkpt lat="47.51577" lon="6.70985">
        <ele>432</ele>
        <time>2016-07-28T14:19:31.000Z</time>
      </trkpt>
      <trkpt lat="47.51576" lon="6.70985">
        <ele>432</ele>
        <time>2016-07-28T14:19:32.000Z</time>
      </trkpt>
      <trkpt lat="47.51572" lon="6.70983">
        <ele>432</ele>
        <time>2016-07-28T14:19:36.000Z</time>
      </trkpt>
      <trkpt lat="47.5157" lon="6.70983">
        <ele>432</ele>
        <time>2016-07-28T14:19:37.000Z</time>
      </trkpt>
      <trkpt lat="47.51566" lon="6.70983">
        <ele>433</ele>
        <time>2016-07-28T14:19:40.000Z</time>
      </trkpt>
      <trkpt lat="47.51564" lon="6.70983">
        <ele>433</ele>
        <time>2016-07-28T14:19:41.000Z</time>
      </trkpt>
      <trkpt lat="47.5156" lon="6.70983">
        <ele>433</ele>
        <time>2016-07-28T14:19:44.000Z</time>
      </trkpt>
      <trkpt lat="47.51559" lon="6.70982">
        <ele>433</ele>
        <time>2016-07-28T14:19:45.000Z</time>
      </trkpt>
      <trkpt lat="47.51555" lon="6.70981">
        <ele>433</ele>
        <time>2016-07-28T14:19:47.000Z</time>
      </trkpt>
      <trkpt lat="47.51554" lon="6.7098">
        <ele>433</ele>
        <time>2016-07-28T14:19:48.000Z</time>
      </trkpt>
      <trkpt lat="47.51549" lon="6.70979">
        <ele>433</ele>
        <time>2016-07-28T14:19:51.000Z</time>
      </trkpt>
      <trkpt lat="47.51548" lon="6.70979">
        <ele>433</ele>
        <time>2016-07-28T14:19:52.000Z</time>
      </trkpt>
      <trkpt lat="47.51543" lon="6.70977">
        <ele>434</ele>
        <time>2016-07-28T14:19:55.000Z</time>
      </trkpt>
      <trkpt lat="47.51542" lon="6.70977">
        <ele>434</ele>
        <time>2016-07-28T14:19:56.000Z</time>
      </trkpt>
      <trkpt lat="47.51539" lon="6.70976">
        <ele>434</ele>
        <time>2016-07-28T14:19:58.000Z</time>
      </trkpt>
      <trkpt lat="47.51537" lon="6.70975">
        <ele>434</ele>
        <time>2016-07-28T14:19:59.000Z</time>
      </trkpt>
      <trkpt lat="47.51534" lon="6.70975">
        <ele>434</ele>
        <time>2016-07-28T14:20:00.000Z</time>
      </trkpt>
      <trkpt lat="47.51532" lon="6.70974">
        <ele>434</ele>
        <time>2016-07-28T14:20:01.000Z</time>
      </trkpt>
      <trkpt lat="47.51528" lon="6.70973">
        <ele>435</ele>
        <time>2016-07-28T14:20:03.000Z</time>
      </trkpt>
      <trkpt lat="47.51527" lon="6.70973">
        <ele>435</ele>
        <time>2016-07-28T14:20:04.000Z</time>
      </trkpt>
      <trkpt lat="47.51523" lon="6.70972">
        <ele>435</ele>
        <time>2016-07-28T14:20:06.000Z</time>
      </trkpt>
      <trkpt lat="47.51521" lon="6.70972">
        <ele>435</ele>
        <time>2016-07-28T14:20:07.000Z</time>
      </trkpt>
      <trkpt lat="47.51516" lon="6.70971">
        <ele>435</ele>
        <time>2016-07-28T14:20:10.000Z</time>
      </trkpt>
      <trkpt lat="47.51515" lon="6.70971">
        <ele>435</ele>
        <time>2016-07-28T14:20:11.000Z</time>
      </trkpt>
      <trkpt lat="47.51512" lon="6.7097">
        <ele>435</ele>
        <time>2016-07-28T14:20:14.000Z</time>
      </trkpt>
      <trkpt lat="47.5151" lon="6.70969">
        <ele>435</ele>
        <time>2016-07-28T14:20:15.000Z</time>
      </trkpt>
      <trkpt lat="47.51506" lon="6.70967">
        <ele>435</ele>
        <time>2016-07-28T14:20:18.000Z</time>
      </trkpt>
      <trkpt lat="47.51505" lon="6.70966">
        <ele>435</ele>
        <time>2016-07-28T14:20:19.000Z</time>
      </trkpt>
      <trkpt lat="47.51501" lon="6.70965">
        <ele>435</ele>
        <time>2016-07-28T14:20:22.000Z</time>
      </trkpt>
      <trkpt lat="47.515" lon="6.70964">
        <ele>443</ele>
        <time>2016-07-28T14:20:23.000Z</time>
      </trkpt>
      <trkpt lat="47.51496" lon="6.70963">
        <ele>443</ele>
        <time>2016-07-28T14:20:25.000Z</time>
      </trkpt>
      <trkpt lat="47.51494" lon="6.70963">
        <ele>443</ele>
        <time>2016-07-28T14:20:26.000Z</time>
      </trkpt>
      <trkpt lat="47.5149" lon="6.70962">
        <ele>443</ele>
        <time>2016-07-28T14:20:28.000Z</time>
      </trkpt>
      <trkpt lat="47.51488" lon="6.70961">
        <ele>443</ele>
        <time>2016-07-28T14:20:29.000Z</time>
      </trkpt>
      <trkpt lat="47.51484" lon="6.70959">
        <ele>443</ele>
        <time>2016-07-28T14:20:31.000Z</time>
      </trkpt>
      <trkpt lat="47.51482" lon="6.70958">
        <ele>443</ele>
        <time>2016-07-28T14:20:32.000Z</time>
      </trkpt>
      <trkpt lat="47.51478" lon="6.70958">
        <ele>443</ele>
        <time>2016-07-28T14:20:34.000Z</time>
      </trkpt>
      <trkpt lat="47.51475" lon="6.70957">
        <ele>443</ele>
        <time>2016-07-28T14:20:35.000Z</time>
      </trkpt>
      <trkpt lat="47.51472" lon="6.70957">
        <ele>443</ele>
        <time>2016-07-28T14:20:37.000Z</time>
      </trkpt>
      <trkpt lat="47.5147" lon="6.70956">
        <ele>444</ele>
        <time>2016-07-28T14:20:38.000Z</time>
      </trkpt>
      <trkpt lat="47.51467" lon="6.70955">
        <ele>444</ele>
        <time>2016-07-28T14:20:40.000Z</time>
      </trkpt>
      <trkpt lat="47.51465" lon="6.70954">
        <ele>444</ele>
        <time>2016-07-28T14:20:41.000Z</time>
      </trkpt>
      <trkpt lat="47.51461" lon="6.70952">
        <ele>444</ele>
        <time>2016-07-28T14:20:43.000Z</time>
      </trkpt>
      <trkpt lat="47.51459" lon="6.70951">
        <ele>444</ele>
        <time>2016-07-28T14:20:44.000Z</time>
      </trkpt>
      <trkpt lat="47.51455" lon="6.7095">
        <ele>444</ele>
        <time>2016-07-28T14:20:47.000Z</time>
      </trkpt>
      <trkpt lat="47.51454" lon="6.7095">
        <ele>445</ele>
        <time>2016-07-28T14:20:48.000Z</time>
      </trkpt>
      <trkpt lat="47.51451" lon="6.70948">
        <ele>445</ele>
        <time>2016-07-28T14:20:51.000Z</time>
      </trkpt>
      <trkpt lat="47.5145" lon="6.70947">
        <ele>445</ele>
        <time>2016-07-28T14:20:52.000Z</time>
      </trkpt>
      <trkpt lat="47.51447" lon="6.70946">
        <ele>445</ele>
        <time>2016-07-28T14:20:54.000Z</time>
      </trkpt>
      <trkpt lat="47.51445" lon="6.70946">
        <ele>445</ele>
        <time>2016-07-28T14:20:55.000Z</time>
      </trkpt>
      <trkpt lat="47.5144" lon="6.70945">
        <ele>445</ele>
        <time>2016-07-28T14:20:57.000Z</time>
      </trkpt>
      <trkpt lat="47.51438" lon="6.70945">
        <ele>446</ele>
        <time>2016-07-28T14:20:58.000Z</time>
      </trkpt>
      <trkpt lat="47.51434" lon="6.70945">
        <ele>446</ele>
        <time>2016-07-28T14:21:00.000Z</time>
      </trkpt>
      <trkpt lat="47.51432" lon="6.70945">
        <ele>446</ele>
        <time>2016-07-28T14:21:01.000Z</time>
      </trkpt>
      <trkpt lat="47.51428" lon="6.70944">
        <ele>446</ele>
        <time>2016-07-28T14:21:03.000Z</time>
      </trkpt>
      <trkpt lat="47.51426" lon="6.70943">
        <ele>446</ele>
        <time>2016-07-28T14:21:04.000Z</time>
      </trkpt>
      <trkpt lat="47.51423" lon="6.70941">
        <ele>447</ele>
        <time>2016-07-28T14:21:06.000Z</time>
      </trkpt>
      <trkpt lat="47.51421" lon="6.70941">
        <ele>447</ele>
        <time>2016-07-28T14:21:07.000Z</time>
      </trkpt>
      <trkpt lat="47.51417" lon="6.70941">
        <ele>447</ele>
        <time>2016-07-28T14:21:10.000Z</time>
      </trkpt>
      <trkpt lat="47.51416" lon="6.7094">
        <ele>452</ele>
        <time>2016-07-28T14:21:11.000Z</time>
      </trkpt>
      <trkpt lat="47.51412" lon="6.70939">
        <ele>452</ele>
        <time>2016-07-28T14:21:15.000Z</time>
      </trkpt>
      <trkpt lat="47.51411" lon="6.70938">
        <ele>452</ele>
        <time>2016-07-28T14:21:16.000Z</time>
      </trkpt>
      <trkpt lat="47.51408" lon="6.70938">
        <ele>452</ele>
        <time>2016-07-28T14:21:18.000Z</time>
      </trkpt>
      <trkpt lat="47.51407" lon="6.70938">
        <ele>452</ele>
        <time>2016-07-28T14:21:19.000Z</time>
      </trkpt>
      <trkpt lat="47.51403" lon="6.70939">
        <ele>453</ele>
        <time>2016-07-28T14:21:22.000Z</time>
      </trkpt>
      <trkpt lat="47.51401" lon="6.70939">
        <ele>453</ele>
        <time>2016-07-28T14:21:23.000Z</time>
      </trkpt>
      <trkpt lat="47.51398" lon="6.70936">
        <ele>453</ele>
        <time>2016-07-28T14:21:26.000Z</time>
      </trkpt>
      <trkpt lat="47.51396" lon="6.70935">
        <ele>453</ele>
        <time>2016-07-28T14:21:27.000Z</time>
      </trkpt>
      <trkpt lat="47.51394" lon="6.70933">
        <ele>453</ele>
        <time>2016-07-28T14:21:28.000Z</time>
      </trkpt>
      <trkpt lat="47.51392" lon="6.70931">
        <ele>453</ele>
        <time>2016-07-28T14:21:29.000Z</time>
      </trkpt>
      <trkpt lat="47.51388" lon="6.70929">
        <ele>453</ele>
        <time>2016-07-28T14:21:31.000Z</time>
      </trkpt>
      <trkpt lat="47.51386" lon="6.70928">
        <ele>453</ele>
        <time>2016-07-28T14:21:32.000Z</time>
      </trkpt>
      <trkpt lat="47.51383" lon="6.70927">
        <ele>453</ele>
        <time>2016-07-28T14:21:35.000Z</time>
      </trkpt>
      <trkpt lat="47.51381" lon="6.70927">
        <ele>454</ele>
        <time>2016-07-28T14:21:36.000Z</time>
      </trkpt>
      <trkpt lat="47.51378" lon="6.70926">
        <ele>454</ele>
        <time>2016-07-28T14:21:38.000Z</time>
      </trkpt>
      <trkpt lat="47.51376" lon="6.70926">
        <ele>454</ele>
        <time>2016-07-28T14:21:39.000Z</time>
      </trkpt>
      <trkpt lat="47.51373" lon="6.70927">
        <ele>454</ele>
        <time>2016-07-28T14:21:41.000Z</time>
      </trkpt>
      <trkpt lat="47.51371" lon="6.70927">
        <ele>454</ele>
        <time>2016-07-28T14:21:42.000Z</time>
      </trkpt>
      <trkpt lat="47.51367" lon="6.70926">
        <ele>455</ele>
        <time>2016-07-28T14:21:46.000Z</time>
      </trkpt>
      <trkpt lat="47.51366" lon="6.70925">
        <ele>455</ele>
        <time>2016-07-28T14:21:47.000Z</time>
      </trkpt>
      <trkpt lat="47.51362" lon="6.70924">
        <ele>455</ele>
        <time>2016-07-28T14:21:50.000Z</time>
      </trkpt>
      <trkpt lat="47.51361" lon="6.70924">
        <ele>455</ele>
        <time>2016-07-28T14:21:51.000Z</time>
      </trkpt>
      <trkpt lat="47.51357" lon="6.70924">
        <ele>455</ele>
        <time>2016-07-28T14:21:54.000Z</time>
      </trkpt>
      <trkpt lat="47.51355" lon="6.70923">
        <ele>455</ele>
        <time>2016-07-28T14:21:55.000Z</time>
      </trkpt>
      <trkpt lat="47.51351" lon="6.70922">
        <ele>456</ele>
        <time>2016-07-28T14:21:58.000Z</time>
      </trkpt>
      <trkpt lat="47.51349" lon="6.70922">
        <ele>456</ele>
        <time>2016-07-28T14:21:59.000Z</time>
      </trkpt>
      <trkpt lat="47.51345" lon="6.70922">
        <ele>456</ele>
        <time>2016-07-28T14:22:02.000Z</time>
      </trkpt>
      <trkpt lat="47.51344" lon="6.70922">
        <ele>456</ele>
        <time>2016-07-28T14:22:03.000Z</time>
      </trkpt>
      <trkpt lat="47.51341" lon="6.70921">
        <ele>456</ele>
        <time>2016-07-28T14:22:06.000Z</time>
      </trkpt>
      <trkpt lat="47.51339" lon="6.7092">
        <ele>456</ele>
        <time>2016-07-28T14:22:07.000Z</time>
      </trkpt>
      <trkpt lat="47.51337" lon="6.70919">
        <ele>457</ele>
        <time>2016-07-28T14:22:09.000Z</time>
      </trkpt>
      <trkpt lat="47.51335" lon="6.70918">
        <ele>457</ele>
        <time>2016-07-28T14:22:10.000Z</time>
      </trkpt>
      <trkpt lat="47.51332" lon="6.70917">
        <ele>457</ele>
        <time>2016-07-28T14:22:11.000Z</time>
      </trkpt>
      <trkpt lat="47.5133" lon="6.70916">
        <ele>456</ele>
        <time>2016-07-28T14:22:12.000Z</time>
      </trkpt>
      <trkpt lat="47.51326" lon="6.70915">
        <ele>456</ele>
        <time>2016-07-28T14:22:14.000Z</time>
      </trkpt>
      <trkpt lat="47.51324" lon="6.70914">
        <ele>456</ele>
        <time>2016-07-28T14:22:15.000Z</time>
      </trkpt>
      <trkpt lat="47.5132" lon="6.70914">
        <ele>455</ele>
        <time>2016-07-28T14:22:17.000Z</time>
      </trkpt>
      <trkpt lat="47.51318" lon="6.70914">
        <ele>455</ele>
        <time>2016-07-28T14:22:18.000Z</time>
      </trkpt>
      <trkpt lat="47.51315" lon="6.70915">
        <ele>455</ele>
        <time>2016-07-28T14:22:20.000Z</time>
      </trkpt>
      <trkpt lat="47.51313" lon="6.70915">
        <ele>454</ele>
        <time>2016-07-28T14:22:21.000Z</time>
      </trkpt>
      <trkpt lat="47.51309" lon="6.70917">
        <ele>456</ele>
        <time>2016-07-28T14:22:24.000Z</time>
      </trkpt>
      <trkpt lat="47.51307" lon="6.70918">
        <ele>456</ele>
        <time>2016-07-28T14:22:25.000Z</time>
      </trkpt>
      <trkpt lat="47.51304" lon="6.70921">
        <ele>455</ele>
        <time>2016-07-28T14:22:28.000Z</time>
      </trkpt>
      <trkpt lat="47.51303" lon="6.70921">
        <ele>455</ele>
        <time>2016-07-28T14:22:29.000Z</time>
      </trkpt>
      <trkpt lat="47.513" lon="6.70921">
        <ele>455</ele>
        <time>2016-07-28T14:26:10.000Z</time>
      </trkpt>
      <trkpt lat="47.51298" lon="6.70921">
        <ele>455</ele>
        <time>2016-07-28T14:26:11.000Z</time>
      </trkpt>
      <trkpt lat="47.51294" lon="6.70921">
        <ele>455</ele>
        <time>2016-07-28T14:26:13.000Z</time>
      </trkpt>
      <trkpt lat="47.51291" lon="6.70921">
        <ele>455</ele>
        <time>2016-07-28T14:26:14.000Z</time>
      </trkpt>
      <trkpt lat="47.51289" lon="6.70921">
        <ele>455</ele>
        <time>2016-07-28T14:26:15.000Z</time>
      </trkpt>
      <trkpt lat="47.51286" lon="6.7092">
        <ele>454</ele>
        <time>2016-07-28T14:26:16.000Z</time>
      </trkpt>
      <trkpt lat="47.51284" lon="6.70921">
        <ele>454</ele>
        <time>2016-07-28T14:26:17.000Z</time>
      </trkpt>
      <trkpt lat="47.51281" lon="6.70922">
        <ele>454</ele>
        <time>2016-07-28T14:26:18.000Z</time>
      </trkpt>
      <trkpt lat="47.51277" lon="6.70924">
        <ele>454</ele>
        <time>2016-07-28T14:26:20.000Z</time>
      </trkpt>
      <trkpt lat="47.51276" lon="6.70925">
        <ele>454</ele>
        <time>2016-07-28T14:26:21.000Z</time>
      </trkpt>
      <trkpt lat="47.51273" lon="6.70928">
        <ele>454</ele>
        <time>2016-07-28T14:26:23.000Z</time>
      </trkpt>
      <trkpt lat="47.51271" lon="6.70929">
        <ele>454</ele>
        <time>2016-07-28T14:26:24.000Z</time>
      </trkpt>
      <trkpt lat="47.51268" lon="6.70929">
        <ele>453</ele>
        <time>2016-07-28T14:26:25.000Z</time>
      </trkpt>
      <trkpt lat="47.51265" lon="6.70929">
        <ele>453</ele>
        <time>2016-07-28T14:26:26.000Z</time>
      </trkpt>
      <trkpt lat="47.51262" lon="6.7093">
        <ele>453</ele>
        <time>2016-07-28T14:26:28.000Z</time>
      </trkpt>
      <trkpt lat="47.51261" lon="6.70931">
        <ele>453</ele>
        <time>2016-07-28T14:26:29.000Z</time>
      </trkpt>
      <trkpt lat="47.51263" lon="6.70936">
        <ele>454</ele>
        <time>2016-07-28T14:26:33.000Z</time>
      </trkpt>
      <trkpt lat="47.51264" lon="6.70938">
        <ele>454</ele>
        <time>2016-07-28T14:26:34.000Z</time>
      </trkpt>
      <trkpt lat="47.51265" lon="6.70942">
        <ele>454</ele>
        <time>2016-07-28T14:26:36.000Z</time>
      </trkpt>
      <trkpt lat="47.51266" lon="6.70944">
        <ele>454</ele>
        <time>2016-07-28T14:26:37.000Z</time>
      </trkpt>
      <trkpt lat="47.51268" lon="6.7095">
        <ele>454</ele>
        <time>2016-07-28T14:26:39.000Z</time>
      </trkpt>
      <trkpt lat="47.51269" lon="6.70953">
        <ele>454</ele>
        <time>2016-07-28T14:26:40.000Z</time>
      </trkpt>
      <trkpt lat="47.51269" lon="6.70957">
        <ele>454</ele>
        <time>2016-07-28T14:26:41.000Z</time>
      </trkpt>
      <trkpt lat="47.5127" lon="6.7096">
        <ele>454</ele>
        <time>2016-07-28T14:26:42.000Z</time>
      </trkpt>
      <trkpt lat="47.5127" lon="6.70964">
        <ele>455</ele>
        <time>2016-07-28T14:26:43.000Z</time>
      </trkpt>
      <trkpt lat="47.5127" lon="6.70968">
        <ele>455</ele>
        <time>2016-07-28T14:26:44.000Z</time>
      </trkpt>
      <trkpt lat="47.5127" lon="6.70972">
        <ele>455</ele>
        <time>2016-07-28T14:26:45.000Z</time>
      </trkpt>
      <trkpt lat="47.5127" lon="6.70976">
        <ele>455</ele>
        <time>2016-07-28T14:26:46.000Z</time>
      </trkpt>
      <trkpt lat="47.5127" lon="6.70981">
        <ele>455</ele>
        <time>2016-07-28T14:26:47.000Z</time>
      </trkpt>
      <trkpt lat="47.5127" lon="6.70986">
        <ele>455</ele>
        <time>2016-07-28T14:26:48.000Z</time>
      </trkpt>
      <trkpt lat="47.5127" lon="6.70992">
        <ele>454</ele>
        <time>2016-07-28T14:26:49.000Z</time>
      </trkpt>
      <trkpt lat="47.5127" lon="6.70999">
        <ele>454</ele>
        <time>2016-07-28T14:26:50.000Z</time>
      </trkpt>
      <trkpt lat="47.5127" lon="6.71007">
        <ele>456</ele>
        <time>2016-07-28T14:26:51.000Z</time>
      </trkpt>
      <trkpt lat="47.5127" lon="6.71015">
        <ele>456</ele>
        <time>2016-07-28T14:26:52.000Z</time>
      </trkpt>
      <trkpt lat="47.5127" lon="6.71023">
        <ele>456</ele>
        <time>2016-07-28T14:26:53.000Z</time>
      </trkpt>
      <trkpt lat="47.5127" lon="6.7103">
        <ele>457</ele>
        <time>2016-07-28T14:26:54.000Z</time>
      </trkpt>
      <trkpt lat="47.5127" lon="6.71038">
        <ele>457</ele>
        <time>2016-07-28T14:26:55.000Z</time>
      </trkpt>
      <trkpt lat="47.5127" lon="6.71046">
        <ele>457</ele>
        <time>2016-07-28T14:26:56.000Z</time>
      </trkpt>
      <trkpt lat="47.5127" lon="6.71054">
        <ele>457</ele>
        <time>2016-07-28T14:26:57.000Z</time>
      </trkpt>
      <trkpt lat="47.5127" lon="6.71062">
        <ele>457</ele>
        <time>2016-07-28T14:26:58.000Z</time>
      </trkpt>
      <trkpt lat="47.5127" lon="6.71072">
        <ele>457</ele>
        <time>2016-07-28T14:26:59.000Z</time>
      </trkpt>
      <trkpt lat="47.5127" lon="6.71081">
        <ele>457</ele>
        <time>2016-07-28T14:27:00.000Z</time>
      </trkpt>
      <trkpt lat="47.5127" lon="6.71089">
        <ele>457</ele>
        <time>2016-07-28T14:27:01.000Z</time>
      </trkpt>
      <trkpt lat="47.5127" lon="6.71099">
        <ele>458</ele>
        <time>2016-07-28T14:27:02.000Z</time>
      </trkpt>
      <trkpt lat="47.5127" lon="6.71124">
        <ele>458</ele>
        <time>2016-07-28T14:27:03.000Z</time>
      </trkpt>
      <trkpt lat="47.51271" lon="6.71136">
        <ele>457</ele>
        <time>2016-07-28T14:27:04.000Z</time>
      </trkpt>
      <trkpt lat="47.51273" lon="6.71146">
        <ele>457</ele>
        <time>2016-07-28T14:27:05.000Z</time>
      </trkpt>
      <trkpt lat="47.51274" lon="6.71153">
        <ele>457</ele>
        <time>2016-07-28T14:27:06.000Z</time>
      </trkpt>
      <trkpt lat="47.51273" lon="6.71159">
        <ele>457</ele>
        <time>2016-07-28T14:27:07.000Z</time>
      </trkpt>
      <trkpt lat="47.51271" lon="6.71165">
        <ele>457</ele>
        <time>2016-07-28T14:27:08.000Z</time>
      </trkpt>
      <trkpt lat="47.51267" lon="6.71179">
        <ele>457</ele>
        <time>2016-07-28T14:27:09.000Z</time>
      </trkpt>
      <trkpt lat="47.51264" lon="6.7119">
        <ele>457</ele>
        <time>2016-07-28T14:27:10.000Z</time>
      </trkpt>
      <trkpt lat="47.51264" lon="6.71198">
        <ele>457</ele>
        <time>2016-07-28T14:27:11.000Z</time>
      </trkpt>
      <trkpt lat="47.51263" lon="6.71206">
        <ele>457</ele>
        <time>2016-07-28T14:27:12.000Z</time>
      </trkpt>
      <trkpt lat="47.51261" lon="6.71217">
        <ele>457</ele>
        <time>2016-07-28T14:27:13.000Z</time>
      </trkpt>
      <trkpt lat="47.51261" lon="6.7123">
        <ele>457</ele>
        <time>2016-07-28T14:27:14.000Z</time>
      </trkpt>
      <trkpt lat="47.5126" lon="6.71242">
        <ele>457</ele>
        <time>2016-07-28T14:27:15.000Z</time>
      </trkpt>
      <trkpt lat="47.51258" lon="6.7125">
        <ele>457</ele>
        <time>2016-07-28T14:27:16.000Z</time>
      </trkpt>
      <trkpt lat="47.51258" lon="6.71258">
        <ele>457</ele>
        <time>2016-07-28T14:27:17.000Z</time>
      </trkpt>
      <trkpt lat="47.51256" lon="6.71266">
        <ele>457</ele>
        <time>2016-07-28T14:27:18.000Z</time>
      </trkpt>
      <trkpt lat="47.51255" lon="6.71275">
        <ele>457</ele>
        <time>2016-07-28T14:27:19.000Z</time>
      </trkpt>
      <trkpt lat="47.51256" lon="6.71281">
        <ele>457</ele>
        <time>2016-07-28T14:27:20.000Z</time>
      </trkpt>
      <trkpt lat="47.51257" lon="6.71287">
        <ele>457</ele>
        <time>2016-07-28T14:27:21.000Z</time>
      </trkpt>
      <trkpt lat="47.51257" lon="6.71297">
        <ele>457</ele>
        <time>2016-07-28T14:27:22.000Z</time>
      </trkpt>
      <trkpt lat="47.51253" lon="6.7131">
        <ele>457</ele>
        <time>2016-07-28T14:27:23.000Z</time>
      </trkpt>
      <trkpt lat="47.51252" lon="6.71318">
        <ele>457</ele>
        <time>2016-07-28T14:27:24.000Z</time>
      </trkpt>
      <trkpt lat="47.51251" lon="6.71325">
        <ele>456</ele>
        <time>2016-07-28T14:27:25.000Z</time>
      </trkpt>
      <trkpt lat="47.5125" lon="6.71331">
        <ele>456</ele>
        <time>2016-07-28T14:27:26.000Z</time>
      </trkpt>
      <trkpt lat="47.5125" lon="6.71337">
        <ele>456</ele>
        <time>2016-07-28T14:27:27.000Z</time>
      </trkpt>
      <trkpt lat="47.5125" lon="6.71343">
        <ele>456</ele>
        <time>2016-07-28T14:27:28.000Z</time>
      </trkpt>
      <trkpt lat="47.51249" lon="6.7136">
        <ele>453</ele>
        <time>2016-07-28T14:27:30.000Z</time>
      </trkpt>
      <trkpt lat="47.51248" lon="6.71366">
        <ele>452</ele>
        <time>2016-07-28T14:27:31.000Z</time>
      </trkpt>
      <trkpt lat="47.51246" lon="6.71373">
        <ele>452</ele>
        <time>2016-07-28T14:27:32.000Z</time>
      </trkpt>
      <trkpt lat="47.51245" lon="6.71378">
        <ele>452</ele>
        <time>2016-07-28T14:27:33.000Z</time>
      </trkpt>
      <trkpt lat="47.51244" lon="6.71386">
        <ele>452</ele>
        <time>2016-07-28T14:27:34.000Z</time>
      </trkpt>
      <trkpt lat="47.51244" lon="6.71395">
        <ele>452</ele>
        <time>2016-07-28T14:27:35.000Z</time>
      </trkpt>
      <trkpt lat="47.51243" lon="6.71403">
        <ele>453</ele>
        <time>2016-07-28T14:27:36.000Z</time>
      </trkpt>
      <trkpt lat="47.51242" lon="6.7141">
        <ele>453</ele>
        <time>2016-07-28T14:27:37.000Z</time>
      </trkpt>
      <trkpt lat="47.51241" lon="6.71417">
        <ele>454</ele>
        <time>2016-07-28T14:27:38.000Z</time>
      </trkpt>
      <trkpt lat="47.5124" lon="6.71423">
        <ele>454</ele>
        <time>2016-07-28T14:27:39.000Z</time>
      </trkpt>
      <trkpt lat="47.5124" lon="6.71428">
        <ele>454</ele>
        <time>2016-07-28T14:27:40.000Z</time>
      </trkpt>
      <trkpt lat="47.5124" lon="6.71432">
        <ele>453</ele>
        <time>2016-07-28T14:27:41.000Z</time>
      </trkpt>
      <trkpt lat="47.51239" lon="6.71437">
        <ele>453</ele>
        <time>2016-07-28T14:27:42.000Z</time>
      </trkpt>
      <trkpt lat="47.5124" lon="6.71442">
        <ele>453</ele>
        <time>2016-07-28T14:27:44.000Z</time>
      </trkpt>
      <trkpt lat="47.51241" lon="6.71445">
        <ele>453</ele>
        <time>2016-07-28T14:27:45.000Z</time>
      </trkpt>
      <trkpt lat="47.51243" lon="6.7145">
        <ele>453</ele>
        <time>2016-07-28T14:27:46.000Z</time>
      </trkpt>
      <trkpt lat="47.51245" lon="6.71456">
        <ele>453</ele>
        <time>2016-07-28T14:27:47.000Z</time>
      </trkpt>
      <trkpt lat="47.51247" lon="6.71462">
        <ele>453</ele>
        <time>2016-07-28T14:27:48.000Z</time>
      </trkpt>
      <trkpt lat="47.51249" lon="6.71468">
        <ele>453</ele>
        <time>2016-07-28T14:27:49.000Z</time>
      </trkpt>
      <trkpt lat="47.5125" lon="6.71474">
        <ele>455</ele>
        <time>2016-07-28T14:27:50.000Z</time>
      </trkpt>
      <trkpt lat="47.5125" lon="6.71479">
        <ele>455</ele>
        <time>2016-07-28T14:27:51.000Z</time>
      </trkpt>
      <trkpt lat="47.5125" lon="6.71484">
        <ele>455</ele>
        <time>2016-07-28T14:27:52.000Z</time>
      </trkpt>
      <trkpt lat="47.5125" lon="6.7149">
        <ele>455</ele>
        <time>2016-07-28T14:27:53.000Z</time>
      </trkpt>
      <trkpt lat="47.5125" lon="6.71497">
        <ele>455</ele>
        <time>2016-07-28T14:27:54.000Z</time>
      </trkpt>
      <trkpt lat="47.51248" lon="6.71503">
        <ele>456</ele>
        <time>2016-07-28T14:27:55.000Z</time>
      </trkpt>
      <trkpt lat="47.51247" lon="6.71509">
        <ele>455</ele>
        <time>2016-07-28T14:27:56.000Z</time>
      </trkpt>
      <trkpt lat="47.51245" lon="6.71516">
        <ele>455</ele>
        <time>2016-07-28T14:27:57.000Z</time>
      </trkpt>
      <trkpt lat="47.51243" lon="6.71522">
        <ele>455</ele>
        <time>2016-07-28T14:27:58.000Z</time>
      </trkpt>
      <trkpt lat="47.51242" lon="6.71529">
        <ele>455</ele>
        <time>2016-07-28T14:27:59.000Z</time>
      </trkpt>
      <trkpt lat="47.5124" lon="6.71537">
        <ele>455</ele>
        <time>2016-07-28T14:28:00.000Z</time>
      </trkpt>
      <trkpt lat="47.51238" lon="6.71546">
        <ele>455</ele>
        <time>2016-07-28T14:28:01.000Z</time>
      </trkpt>
      <trkpt lat="47.51237" lon="6.71555">
        <ele>455</ele>
        <time>2016-07-28T14:28:02.000Z</time>
      </trkpt>
      <trkpt lat="47.51235" lon="6.71564">
        <ele>455</ele>
        <time>2016-07-28T14:28:03.000Z</time>
      </trkpt>
      <trkpt lat="47.51234" lon="6.71571">
        <ele>455</ele>
        <time>2016-07-28T14:28:04.000Z</time>
      </trkpt>
      <trkpt lat="47.51233" lon="6.71578">
        <ele>456</ele>
        <time>2016-07-28T14:28:05.000Z</time>
      </trkpt>
      <trkpt lat="47.51232" lon="6.71585">
        <ele>456</ele>
        <time>2016-07-28T14:28:06.000Z</time>
      </trkpt>
      <trkpt lat="47.51232" lon="6.71592">
        <ele>456</ele>
        <time>2016-07-28T14:28:07.000Z</time>
      </trkpt>
      <trkpt lat="47.51231" lon="6.71598">
        <ele>455</ele>
        <time>2016-07-28T14:28:08.000Z</time>
      </trkpt>
      <trkpt lat="47.51231" lon="6.71604">
        <ele>455</ele>
        <time>2016-07-28T14:28:09.000Z</time>
      </trkpt>
      <trkpt lat="47.51232" lon="6.7161">
        <ele>455</ele>
        <time>2016-07-28T14:28:10.000Z</time>
      </trkpt>
      <trkpt lat="47.51232" lon="6.71617">
        <ele>455</ele>
        <time>2016-07-28T14:28:11.000Z</time>
      </trkpt>
      <trkpt lat="47.51233" lon="6.71624">
        <ele>455</ele>
        <time>2016-07-28T14:28:12.000Z</time>
      </trkpt>
      <trkpt lat="47.51233" lon="6.71632">
        <ele>455</ele>
        <time>2016-07-28T14:28:13.000Z</time>
      </trkpt>
      <trkpt lat="47.51233" lon="6.71639">
        <ele>455</ele>
        <time>2016-07-28T14:28:14.000Z</time>
      </trkpt>
      <trkpt lat="47.51233" lon="6.71647">
        <ele>455</ele>
        <time>2016-07-28T14:28:15.000Z</time>
      </trkpt>
      <trkpt lat="47.51233" lon="6.71654">
        <ele>455</ele>
        <time>2016-07-28T14:28:16.000Z</time>
      </trkpt>
      <trkpt lat="47.51233" lon="6.7166">
        <ele>455</ele>
        <time>2016-07-28T14:28:17.000Z</time>
      </trkpt>
      <trkpt lat="47.51233" lon="6.71665">
        <ele>456</ele>
        <time>2016-07-28T14:28:18.000Z</time>
      </trkpt>
      <trkpt lat="47.51233" lon="6.71672">
        <ele>455</ele>
        <time>2016-07-28T14:28:19.000Z</time>
      </trkpt>
      <trkpt lat="47.51233" lon="6.71678">
        <ele>455</ele>
        <time>2016-07-28T14:28:20.000Z</time>
      </trkpt>
      <trkpt lat="47.51232" lon="6.71683">
        <ele>455</ele>
        <time>2016-07-28T14:28:21.000Z</time>
      </trkpt>
      <trkpt lat="47.51232" lon="6.7169">
        <ele>455</ele>
        <time>2016-07-28T14:28:22.000Z</time>
      </trkpt>
      <trkpt lat="47.51231" lon="6.71697">
        <ele>454</ele>
        <time>2016-07-28T14:28:23.000Z</time>
      </trkpt>
      <trkpt lat="47.51229" lon="6.71705">
        <ele>454</ele>
        <time>2016-07-28T14:28:24.000Z</time>
      </trkpt>
      <trkpt lat="47.51228" lon="6.71713">
        <ele>454</ele>
        <time>2016-07-28T14:28:25.000Z</time>
      </trkpt>
      <trkpt lat="47.51226" lon="6.71721">
        <ele>454</ele>
        <time>2016-07-28T14:28:26.000Z</time>
      </trkpt>
      <trkpt lat="47.51225" lon="6.71728">
        <ele>454</ele>
        <time>2016-07-28T14:28:27.000Z</time>
      </trkpt>
      <trkpt lat="47.51225" lon="6.71735">
        <ele>454</ele>
        <time>2016-07-28T14:28:28.000Z</time>
      </trkpt>
      <trkpt lat="47.51225" lon="6.71742">
        <ele>454</ele>
        <time>2016-07-28T14:28:29.000Z</time>
      </trkpt>
      <trkpt lat="47.51225" lon="6.71749">
        <ele>454</ele>
        <time>2016-07-28T14:28:30.000Z</time>
      </trkpt>
      <trkpt lat="47.51225" lon="6.71758">
        <ele>453</ele>
        <time>2016-07-28T14:28:31.000Z</time>
      </trkpt>
      <trkpt lat="47.51224" lon="6.71765">
        <ele>453</ele>
        <time>2016-07-28T14:28:32.000Z</time>
      </trkpt>
      <trkpt lat="47.51224" lon="6.71772">
        <ele>453</ele>
        <time>2016-07-28T14:28:33.000Z</time>
      </trkpt>
      <trkpt lat="47.51224" lon="6.71777">
        <ele>453</ele>
        <time>2016-07-28T14:28:34.000Z</time>
      </trkpt>
      <trkpt lat="47.51225" lon="6.71781">
        <ele>453</ele>
        <time>2016-07-28T14:28:35.000Z</time>
      </trkpt>
      <trkpt lat="47.51225" lon="6.71785">
        <ele>453</ele>
        <time>2016-07-28T14:28:36.000Z</time>
      </trkpt>
      <trkpt lat="47.51226" lon="6.71788">
        <ele>453</ele>
        <time>2016-07-28T14:28:37.000Z</time>
      </trkpt>
      <trkpt lat="47.51226" lon="6.71792">
        <ele>453</ele>
        <time>2016-07-28T14:28:38.000Z</time>
      </trkpt>
      <trkpt lat="47.51228" lon="6.71798">
        <ele>453</ele>
        <time>2016-07-28T14:28:39.000Z</time>
      </trkpt>
      <trkpt lat="47.51229" lon="6.71805">
        <ele>453</ele>
        <time>2016-07-28T14:28:40.000Z</time>
      </trkpt>
      <trkpt lat="47.51231" lon="6.71813">
        <ele>453</ele>
        <time>2016-07-28T14:28:41.000Z</time>
      </trkpt>
      <trkpt lat="47.51232" lon="6.71821">
        <ele>453</ele>
        <time>2016-07-28T14:28:42.000Z</time>
      </trkpt>
      <trkpt lat="47.51234" lon="6.7183">
        <ele>453</ele>
        <time>2016-07-28T14:28:43.000Z</time>
      </trkpt>
      <trkpt lat="47.51235" lon="6.71839">
        <ele>452</ele>
        <time>2016-07-28T14:28:44.000Z</time>
      </trkpt>
      <trkpt lat="47.51237" lon="6.71848">
        <ele>452</ele>
        <time>2016-07-28T14:28:45.000Z</time>
      </trkpt>
      <trkpt lat="47.51239" lon="6.71856">
        <ele>452</ele>
        <time>2016-07-28T14:28:46.000Z</time>
      </trkpt>
      <trkpt lat="47.51241" lon="6.71865">
        <ele>451</ele>
        <time>2016-07-28T14:28:47.000Z</time>
      </trkpt>
      <trkpt lat="47.51242" lon="6.71873">
        <ele>451</ele>
        <time>2016-07-28T14:28:48.000Z</time>
      </trkpt>
      <trkpt lat="47.51243" lon="6.71881">
        <ele>451</ele>
        <time>2016-07-28T14:28:49.000Z</time>
      </trkpt>
      <trkpt lat="47.51245" lon="6.71905">
        <ele>451</ele>
        <time>2016-07-28T14:28:50.000Z</time>
      </trkpt>
      <trkpt lat="47.51245" lon="6.71916">
        <ele>452</ele>
        <time>2016-07-28T14:28:51.000Z</time>
      </trkpt>
      <trkpt lat="47.51247" lon="6.71929">
        <ele>451</ele>
        <time>2016-07-28T14:28:52.000Z</time>
      </trkpt>
      <trkpt lat="47.51248" lon="6.71939">
        <ele>450</ele>
        <time>2016-07-28T14:28:53.000Z</time>
      </trkpt>
      <trkpt lat="47.51248" lon="6.71947">
        <ele>450</ele>
        <time>2016-07-28T14:28:54.000Z</time>
      </trkpt>
      <trkpt lat="47.51249" lon="6.71955">
        <ele>450</ele>
        <time>2016-07-28T14:28:55.000Z</time>
      </trkpt>
      <trkpt lat="47.51246" lon="6.71974">
        <ele>449</ele>
        <time>2016-07-28T14:28:56.000Z</time>
      </trkpt>
      <trkpt lat="47.51244" lon="6.71986">
        <ele>450</ele>
        <time>2016-07-28T14:28:57.000Z</time>
      </trkpt>
      <trkpt lat="47.51244" lon="6.71995">
        <ele>450</ele>
        <time>2016-07-28T14:28:58.000Z</time>
      </trkpt>
      <trkpt lat="47.51245" lon="6.72006">
        <ele>450</ele>
        <time>2016-07-28T14:28:59.000Z</time>
      </trkpt>
      <trkpt lat="47.51247" lon="6.72016">
        <ele>449</ele>
        <time>2016-07-28T14:29:00.000Z</time>
      </trkpt>
      <trkpt lat="47.51248" lon="6.72029">
        <ele>449</ele>
        <time>2016-07-28T14:29:01.000Z</time>
      </trkpt>
      <trkpt lat="47.51249" lon="6.7204">
        <ele>448</ele>
        <time>2016-07-28T14:29:02.000Z</time>
      </trkpt>
      <trkpt lat="47.51251" lon="6.7205">
        <ele>449</ele>
        <time>2016-07-28T14:29:03.000Z</time>
      </trkpt>
      <trkpt lat="47.51252" lon="6.72061">
        <ele>449</ele>
        <time>2016-07-28T14:29:04.000Z</time>
      </trkpt>
      <trkpt lat="47.51251" lon="6.72074">
        <ele>449</ele>
        <time>2016-07-28T14:29:05.000Z</time>
      </trkpt>
      <trkpt lat="47.51251" lon="6.72085">
        <ele>449</ele>
        <time>2016-07-28T14:29:06.000Z</time>
      </trkpt>
      <trkpt lat="47.5125" lon="6.72096">
        <ele>447</ele>
        <time>2016-07-28T14:29:07.000Z</time>
      </trkpt>
      <trkpt lat="47.5125" lon="6.72107">
        <ele>446</ele>
        <time>2016-07-28T14:29:08.000Z</time>
      </trkpt>
      <trkpt lat="47.51251" lon="6.7212">
        <ele>445</ele>
        <time>2016-07-28T14:29:09.000Z</time>
      </trkpt>
      <trkpt lat="47.51252" lon="6.72134">
        <ele>445</ele>
        <time>2016-07-28T14:29:10.000Z</time>
      </trkpt>
      <trkpt lat="47.51251" lon="6.72148">
        <ele>445</ele>
        <time>2016-07-28T14:29:11.000Z</time>
      </trkpt>
      <trkpt lat="47.5125" lon="6.72157">
        <ele>445</ele>
        <time>2016-07-28T14:29:12.000Z</time>
      </trkpt>
      <trkpt lat="47.51251" lon="6.72167">
        <ele>446</ele>
        <time>2016-07-28T14:29:13.000Z</time>
      </trkpt>
      <trkpt lat="47.5125" lon="6.72172">
        <ele>444</ele>
        <time>2016-07-28T14:29:14.000Z</time>
      </trkpt>
      <trkpt lat="47.51248" lon="6.72177">
        <ele>444</ele>
        <time>2016-07-28T14:29:15.000Z</time>
      </trkpt>
      <trkpt lat="47.51246" lon="6.72187">
        <ele>443</ele>
        <time>2016-07-28T14:29:16.000Z</time>
      </trkpt>
      <trkpt lat="47.51247" lon="6.72201">
        <ele>443</ele>
        <time>2016-07-28T14:29:17.000Z</time>
      </trkpt>
      <trkpt lat="47.51248" lon="6.72211">
        <ele>442</ele>
        <time>2016-07-28T14:29:18.000Z</time>
      </trkpt>
      <trkpt lat="47.51245" lon="6.72219">
        <ele>442</ele>
        <time>2016-07-28T14:29:19.000Z</time>
      </trkpt>
      <trkpt lat="47.51244" lon="6.72227">
        <ele>442</ele>
        <time>2016-07-28T14:29:20.000Z</time>
      </trkpt>
      <trkpt lat="47.51245" lon="6.72237">
        <ele>442</ele>
        <time>2016-07-28T14:29:21.000Z</time>
      </trkpt>
      <trkpt lat="47.51244" lon="6.72245">
        <ele>442</ele>
        <time>2016-07-28T14:29:22.000Z</time>
      </trkpt>
      <trkpt lat="47.51243" lon="6.72254">
        <ele>442</ele>
        <time>2016-07-28T14:29:23.000Z</time>
      </trkpt>
      <trkpt lat="47.51243" lon="6.72263">
        <ele>442</ele>
        <time>2016-07-28T14:29:24.000Z</time>
      </trkpt>
      <trkpt lat="47.51243" lon="6.72274">
        <ele>442</ele>
        <time>2016-07-28T14:29:25.000Z</time>
      </trkpt>
      <trkpt lat="47.51242" lon="6.72282">
        <ele>442</ele>
        <time>2016-07-28T14:29:26.000Z</time>
      </trkpt>
      <trkpt lat="47.51243" lon="6.72292">
        <ele>442</ele>
        <time>2016-07-28T14:29:27.000Z</time>
      </trkpt>
      <trkpt lat="47.51243" lon="6.72303">
        <ele>442</ele>
        <time>2016-07-28T14:29:28.000Z</time>
      </trkpt>
      <trkpt lat="47.51243" lon="6.72312">
        <ele>443</ele>
        <time>2016-07-28T14:29:29.000Z</time>
      </trkpt>
      <trkpt lat="47.51243" lon="6.72324">
        <ele>444</ele>
        <time>2016-07-28T14:29:30.000Z</time>
      </trkpt>
      <trkpt lat="47.51243" lon="6.72335">
        <ele>445</ele>
        <time>2016-07-28T14:29:31.000Z</time>
      </trkpt>
      <trkpt lat="47.51243" lon="6.72346">
        <ele>444</ele>
        <time>2016-07-28T14:29:32.000Z</time>
      </trkpt>
      <trkpt lat="47.51242" lon="6.72356">
        <ele>443</ele>
        <time>2016-07-28T14:29:33.000Z</time>
      </trkpt>
      <trkpt lat="47.5124" lon="6.72367">
        <ele>443</ele>
        <time>2016-07-28T14:29:34.000Z</time>
      </trkpt>
      <trkpt lat="47.5124" lon="6.72378">
        <ele>443</ele>
        <time>2016-07-28T14:29:35.000Z</time>
      </trkpt>
      <trkpt lat="47.51238" lon="6.72389">
        <ele>443</ele>
        <time>2016-07-28T14:29:36.000Z</time>
      </trkpt>
      <trkpt lat="47.51236" lon="6.724">
        <ele>443</ele>
        <time>2016-07-28T14:29:37.000Z</time>
      </trkpt>
      <trkpt lat="47.51234" lon="6.72409">
        <ele>443</ele>
        <time>2016-07-28T14:29:38.000Z</time>
      </trkpt>
      <trkpt lat="47.51232" lon="6.72419">
        <ele>441</ele>
        <time>2016-07-28T14:29:39.000Z</time>
      </trkpt>
      <trkpt lat="47.51232" lon="6.72429">
        <ele>440</ele>
        <time>2016-07-28T14:29:40.000Z</time>
      </trkpt>
      <trkpt lat="47.51228" lon="6.72442">
        <ele>439</ele>
        <time>2016-07-28T14:29:41.000Z</time>
      </trkpt>
      <trkpt lat="47.51224" lon="6.72454">
        <ele>438</ele>
        <time>2016-07-28T14:29:42.000Z</time>
      </trkpt>
      <trkpt lat="47.51219" lon="6.72466">
        <ele>437</ele>
        <time>2016-07-28T14:29:43.000Z</time>
      </trkpt>
      <trkpt lat="47.51213" lon="6.72476">
        <ele>437</ele>
        <time>2016-07-28T14:29:44.000Z</time>
      </trkpt>
      <trkpt lat="47.51209" lon="6.72486">
        <ele>437</ele>
        <time>2016-07-28T14:29:45.000Z</time>
      </trkpt>
      <trkpt lat="47.51204" lon="6.72499">
        <ele>436</ele>
        <time>2016-07-28T14:29:46.000Z</time>
      </trkpt>
      <trkpt lat="47.51199" lon="6.72511">
        <ele>432</ele>
        <time>2016-07-28T14:29:47.000Z</time>
      </trkpt>
      <trkpt lat="47.51192" lon="6.72519">
        <ele>432</ele>
        <time>2016-07-28T14:29:48.000Z</time>
      </trkpt>
      <trkpt lat="47.51186" lon="6.72529">
        <ele>431</ele>
        <time>2016-07-28T14:29:49.000Z</time>
      </trkpt>
      <trkpt lat="47.5118" lon="6.72536">
        <ele>431</ele>
        <time>2016-07-28T14:29:50.000Z</time>
      </trkpt>
      <trkpt lat="47.51176" lon="6.72541">
        <ele>431</ele>
        <time>2016-07-28T14:29:51.000Z</time>
      </trkpt>
      <trkpt lat="47.51172" lon="6.72547">
        <ele>430</ele>
        <time>2016-07-28T14:29:52.000Z</time>
      </trkpt>
      <trkpt lat="47.51167" lon="6.72559">
        <ele>430</ele>
        <time>2016-07-28T14:29:53.000Z</time>
      </trkpt>
      <trkpt lat="47.51161" lon="6.72569">
        <ele>429</ele>
        <time>2016-07-28T14:29:54.000Z</time>
      </trkpt>
      <trkpt lat="47.51158" lon="6.72577">
        <ele>429</ele>
        <time>2016-07-28T14:29:55.000Z</time>
      </trkpt>
      <trkpt lat="47.5115" lon="6.72584">
        <ele>427</ele>
        <time>2016-07-28T14:29:56.000Z</time>
      </trkpt>
      <trkpt lat="47.51145" lon="6.7259">
        <ele>426</ele>
        <time>2016-07-28T14:29:57.000Z</time>
      </trkpt>
      <trkpt lat="47.51138" lon="6.72596">
        <ele>426</ele>
        <time>2016-07-28T14:29:58.000Z</time>
      </trkpt>
      <trkpt lat="47.51133" lon="6.72602">
        <ele>426</ele>
        <time>2016-07-28T14:29:59.000Z</time>
      </trkpt>
      <trkpt lat="47.51128" lon="6.72607">
        <ele>426</ele>
        <time>2016-07-28T14:30:00.000Z</time>
      </trkpt>
      <trkpt lat="47.51123" lon="6.72612">
        <ele>425</ele>
        <time>2016-07-28T14:30:01.000Z</time>
      </trkpt>
      <trkpt lat="47.51119" lon="6.72617">
        <ele>425</ele>
        <time>2016-07-28T14:30:02.000Z</time>
      </trkpt>
      <trkpt lat="47.51113" lon="6.72623">
        <ele>425</ele>
        <time>2016-07-28T14:30:03.000Z</time>
      </trkpt>
      <trkpt lat="47.51107" lon="6.72628">
        <ele>425</ele>
        <time>2016-07-28T14:30:04.000Z</time>
      </trkpt>
      <trkpt lat="47.51102" lon="6.72633">
        <ele>424</ele>
        <time>2016-07-28T14:30:05.000Z</time>
      </trkpt>
      <trkpt lat="47.51096" lon="6.72638">
        <ele>424</ele>
        <time>2016-07-28T14:30:06.000Z</time>
      </trkpt>
      <trkpt lat="47.51089" lon="6.72643">
        <ele>424</ele>
        <time>2016-07-28T14:30:07.000Z</time>
      </trkpt>
      <trkpt lat="47.51083" lon="6.72648">
        <ele>424</ele>
        <time>2016-07-28T14:30:08.000Z</time>
      </trkpt>
      <trkpt lat="47.5108" lon="6.72651">
        <ele>423</ele>
        <time>2016-07-28T14:30:09.000Z</time>
      </trkpt>
      <trkpt lat="47.51076" lon="6.72655">
        <ele>423</ele>
        <time>2016-07-28T14:30:10.000Z</time>
      </trkpt>
      <trkpt lat="47.51072" lon="6.7266">
        <ele>423</ele>
        <time>2016-07-28T14:30:11.000Z</time>
      </trkpt>
      <trkpt lat="47.51064" lon="6.72664">
        <ele>424</ele>
        <time>2016-07-28T14:30:12.000Z</time>
      </trkpt>
      <trkpt lat="47.51059" lon="6.72669">
        <ele>422</ele>
        <time>2016-07-28T14:30:13.000Z</time>
      </trkpt>
      <trkpt lat="47.51054" lon="6.72673">
        <ele>423</ele>
        <time>2016-07-28T14:30:14.000Z</time>
      </trkpt>
      <trkpt lat="47.51048" lon="6.72677">
        <ele>423</ele>
        <time>2016-07-28T14:30:15.000Z</time>
      </trkpt>
      <trkpt lat="47.51047" lon="6.72681">
        <ele>423</ele>
        <time>2016-07-28T14:30:16.000Z</time>
      </trkpt>
      <trkpt lat="47.51046" lon="6.72685">
        <ele>423</ele>
        <time>2016-07-28T14:30:17.000Z</time>
      </trkpt>
      <trkpt lat="47.51042" lon="6.7269">
        <ele>423</ele>
        <time>2016-07-28T14:30:18.000Z</time>
      </trkpt>
      <trkpt lat="47.5104" lon="6.72694">
        <ele>423</ele>
        <time>2016-07-28T14:30:19.000Z</time>
      </trkpt>
      <trkpt lat="47.51037" lon="6.72698">
        <ele>423</ele>
        <time>2016-07-28T14:30:20.000Z</time>
      </trkpt>
      <trkpt lat="47.51034" lon="6.72702">
        <ele>423</ele>
        <time>2016-07-28T14:30:21.000Z</time>
      </trkpt>
      <trkpt lat="47.51029" lon="6.72706">
        <ele>423</ele>
        <time>2016-07-28T14:30:22.000Z</time>
      </trkpt>
      <trkpt lat="47.51024" lon="6.7271">
        <ele>423</ele>
        <time>2016-07-28T14:30:23.000Z</time>
      </trkpt>
      <trkpt lat="47.5102" lon="6.72713">
        <ele>423</ele>
        <time>2016-07-28T14:30:24.000Z</time>
      </trkpt>
      <trkpt lat="47.51016" lon="6.72716">
        <ele>423</ele>
        <time>2016-07-28T14:30:25.000Z</time>
      </trkpt>
      <trkpt lat="47.51012" lon="6.72719">
        <ele>423</ele>
        <time>2016-07-28T14:30:26.000Z</time>
      </trkpt>
      <trkpt lat="47.51009" lon="6.72723">
        <ele>423</ele>
        <time>2016-07-28T14:30:27.000Z</time>
      </trkpt>
      <trkpt lat="47.50997" lon="6.72733">
        <ele>426</ele>
        <time>2016-07-28T14:30:28.000Z</time>
      </trkpt>
      <trkpt lat="47.50994" lon="6.72739">
        <ele>425</ele>
        <time>2016-07-28T14:30:29.000Z</time>
      </trkpt>
      <trkpt lat="47.50992" lon="6.72744">
        <ele>425</ele>
        <time>2016-07-28T14:30:30.000Z</time>
      </trkpt>
      <trkpt lat="47.5099" lon="6.72749">
        <ele>425</ele>
        <time>2016-07-28T14:30:31.000Z</time>
      </trkpt>
      <trkpt lat="47.50989" lon="6.72755">
        <ele>425</ele>
        <time>2016-07-28T14:30:32.000Z</time>
      </trkpt>
      <trkpt lat="47.50988" lon="6.72761">
        <ele>425</ele>
        <time>2016-07-28T14:30:33.000Z</time>
      </trkpt>
      <trkpt lat="47.50987" lon="6.72766">
        <ele>425</ele>
        <time>2016-07-28T14:30:34.000Z</time>
      </trkpt>
      <trkpt lat="47.50984" lon="6.72771">
        <ele>426</ele>
        <time>2016-07-28T14:30:35.000Z</time>
      </trkpt>
      <trkpt lat="47.50981" lon="6.72779">
        <ele>426</ele>
        <time>2016-07-28T14:30:36.000Z</time>
      </trkpt>
      <trkpt lat="47.50979" lon="6.72784">
        <ele>426</ele>
        <time>2016-07-28T14:30:37.000Z</time>
      </trkpt>
      <trkpt lat="47.50978" lon="6.72789">
        <ele>426</ele>
        <time>2016-07-28T14:30:38.000Z</time>
      </trkpt>
      <trkpt lat="47.50977" lon="6.72795">
        <ele>426</ele>
        <time>2016-07-28T14:30:39.000Z</time>
      </trkpt>
      <trkpt lat="47.50975" lon="6.728">
        <ele>426</ele>
        <time>2016-07-28T14:30:40.000Z</time>
      </trkpt>
      <trkpt lat="47.50974" lon="6.72804">
        <ele>426</ele>
        <time>2016-07-28T14:30:41.000Z</time>
      </trkpt>
      <trkpt lat="47.50972" lon="6.72809">
        <ele>426</ele>
        <time>2016-07-28T14:30:42.000Z</time>
      </trkpt>
      <trkpt lat="47.5097" lon="6.72814">
        <ele>426</ele>
        <time>2016-07-28T14:30:43.000Z</time>
      </trkpt>
      <trkpt lat="47.50968" lon="6.72819">
        <ele>426</ele>
        <time>2016-07-28T14:30:44.000Z</time>
      </trkpt>
      <trkpt lat="47.50966" lon="6.72825">
        <ele>426</ele>
        <time>2016-07-28T14:30:45.000Z</time>
      </trkpt>
      <trkpt lat="47.50962" lon="6.7283">
        <ele>426</ele>
        <time>2016-07-28T14:30:46.000Z</time>
      </trkpt>
      <trkpt lat="47.50959" lon="6.72836">
        <ele>426</ele>
        <time>2016-07-28T14:30:47.000Z</time>
      </trkpt>
      <trkpt lat="47.50956" lon="6.72842">
        <ele>426</ele>
        <time>2016-07-28T14:30:48.000Z</time>
      </trkpt>
      <trkpt lat="47.50953" lon="6.72848">
        <ele>426</ele>
        <time>2016-07-28T14:30:49.000Z</time>
      </trkpt>
      <trkpt lat="47.5095" lon="6.72855">
        <ele>426</ele>
        <time>2016-07-28T14:30:50.000Z</time>
      </trkpt>
      <trkpt lat="47.50947" lon="6.72862">
        <ele>426</ele>
        <time>2016-07-28T14:30:51.000Z</time>
      </trkpt>
      <trkpt lat="47.50944" lon="6.72869">
        <ele>426</ele>
        <time>2016-07-28T14:30:52.000Z</time>
      </trkpt>
      <trkpt lat="47.50941" lon="6.72877">
        <ele>426</ele>
        <time>2016-07-28T14:30:53.000Z</time>
      </trkpt>
      <trkpt lat="47.50938" lon="6.72885">
        <ele>426</ele>
        <time>2016-07-28T14:30:54.000Z</time>
      </trkpt>
      <trkpt lat="47.5093" lon="6.72908">
        <ele>427</ele>
        <time>2016-07-28T14:30:55.000Z</time>
      </trkpt>
      <trkpt lat="47.50927" lon="6.72918">
        <ele>427</ele>
        <time>2016-07-28T14:30:56.000Z</time>
      </trkpt>
      <trkpt lat="47.50925" lon="6.72926">
        <ele>426</ele>
        <time>2016-07-28T14:30:57.000Z</time>
      </trkpt>
      <trkpt lat="47.50924" lon="6.72932">
        <ele>426</ele>
        <time>2016-07-28T14:30:58.000Z</time>
      </trkpt>
      <trkpt lat="47.50922" lon="6.72941">
        <ele>426</ele>
        <time>2016-07-28T14:30:59.000Z</time>
      </trkpt>
      <trkpt lat="47.50919" lon="6.7295">
        <ele>425</ele>
        <time>2016-07-28T14:31:00.000Z</time>
      </trkpt>
      <trkpt lat="47.50915" lon="6.7296">
        <ele>430</ele>
        <time>2016-07-28T14:31:01.000Z</time>
      </trkpt>
      <trkpt lat="47.50913" lon="6.72969">
        <ele>430</ele>
        <time>2016-07-28T14:31:02.000Z</time>
      </trkpt>
      <trkpt lat="47.50911" lon="6.72979">
        <ele>430</ele>
        <time>2016-07-28T14:31:03.000Z</time>
      </trkpt>
      <trkpt lat="47.50909" lon="6.72989">
        <ele>429</ele>
        <time>2016-07-28T14:31:04.000Z</time>
      </trkpt>
      <trkpt lat="47.50907" lon="6.73001">
        <ele>429</ele>
        <time>2016-07-28T14:31:05.000Z</time>
      </trkpt>
      <trkpt lat="47.50904" lon="6.73009">
        <ele>429</ele>
        <time>2016-07-28T14:31:06.000Z</time>
      </trkpt>
      <trkpt lat="47.50902" lon="6.73019">
        <ele>430</ele>
        <time>2016-07-28T14:31:07.000Z</time>
      </trkpt>
      <trkpt lat="47.50899" lon="6.7303">
        <ele>430</ele>
        <time>2016-07-28T14:31:08.000Z</time>
      </trkpt>
      <trkpt lat="47.50897" lon="6.73041">
        <ele>430</ele>
        <time>2016-07-28T14:31:09.000Z</time>
      </trkpt>
      <trkpt lat="47.50895" lon="6.73051">
        <ele>430</ele>
        <time>2016-07-28T14:31:10.000Z</time>
      </trkpt>
      <trkpt lat="47.50893" lon="6.73062">
        <ele>430</ele>
        <time>2016-07-28T14:31:11.000Z</time>
      </trkpt>
      <trkpt lat="47.50891" lon="6.73074">
        <ele>430</ele>
        <time>2016-07-28T14:31:12.000Z</time>
      </trkpt>
      <trkpt lat="47.50889" lon="6.73085">
        <ele>428</ele>
        <time>2016-07-28T14:31:13.000Z</time>
      </trkpt>
      <trkpt lat="47.50884" lon="6.73094">
        <ele>428</ele>
        <time>2016-07-28T14:31:14.000Z</time>
      </trkpt>
      <trkpt lat="47.50882" lon="6.73106">
        <ele>427</ele>
        <time>2016-07-28T14:31:15.000Z</time>
      </trkpt>
      <trkpt lat="47.50877" lon="6.73118">
        <ele>427</ele>
        <time>2016-07-28T14:31:16.000Z</time>
      </trkpt>
      <trkpt lat="47.50874" lon="6.7313">
        <ele>427</ele>
        <time>2016-07-28T14:31:17.000Z</time>
      </trkpt>
      <trkpt lat="47.50871" lon="6.73141">
        <ele>426</ele>
        <time>2016-07-28T14:31:18.000Z</time>
      </trkpt>
      <trkpt lat="47.50864" lon="6.73154">
        <ele>426</ele>
        <time>2016-07-28T14:31:19.000Z</time>
      </trkpt>
      <trkpt lat="47.50857" lon="6.73164">
        <ele>426</ele>
        <time>2016-07-28T14:31:20.000Z</time>
      </trkpt>
      <trkpt lat="47.50848" lon="6.73172">
        <ele>422</ele>
        <time>2016-07-28T14:31:21.000Z</time>
      </trkpt>
      <trkpt lat="47.5084" lon="6.73183">
        <ele>422</ele>
        <time>2016-07-28T14:31:22.000Z</time>
      </trkpt>
      <trkpt lat="47.50832" lon="6.73194">
        <ele>421</ele>
        <time>2016-07-28T14:31:23.000Z</time>
      </trkpt>
      <trkpt lat="47.5083" lon="6.73208">
        <ele>420</ele>
        <time>2016-07-28T14:31:24.000Z</time>
      </trkpt>
      <trkpt lat="47.50827" lon="6.73221">
        <ele>419</ele>
        <time>2016-07-28T14:31:25.000Z</time>
      </trkpt>
      <trkpt lat="47.50819" lon="6.73233">
        <ele>418</ele>
        <time>2016-07-28T14:31:26.000Z</time>
      </trkpt>
      <trkpt lat="47.5081" lon="6.73247">
        <ele>418</ele>
        <time>2016-07-28T14:31:27.000Z</time>
      </trkpt>
      <trkpt lat="47.50801" lon="6.73258">
        <ele>410</ele>
        <time>2016-07-28T14:31:28.000Z</time>
      </trkpt>
      <trkpt lat="47.50788" lon="6.73266">
        <ele>410</ele>
        <time>2016-07-28T14:31:29.000Z</time>
      </trkpt>
      <trkpt lat="47.5078" lon="6.73275">
        <ele>410</ele>
        <time>2016-07-28T14:31:30.000Z</time>
      </trkpt>
      <trkpt lat="47.50772" lon="6.73286">
        <ele>409</ele>
        <time>2016-07-28T14:31:31.000Z</time>
      </trkpt>
      <trkpt lat="47.50764" lon="6.73298">
        <ele>408</ele>
        <time>2016-07-28T14:31:32.000Z</time>
      </trkpt>
      <trkpt lat="47.50757" lon="6.73308">
        <ele>408</ele>
        <time>2016-07-28T14:31:33.000Z</time>
      </trkpt>
      <trkpt lat="47.50751" lon="6.73317">
        <ele>407</ele>
        <time>2016-07-28T14:31:34.000Z</time>
      </trkpt>
      <trkpt lat="47.50748" lon="6.73328">
        <ele>407</ele>
        <time>2016-07-28T14:31:35.000Z</time>
      </trkpt>
      <trkpt lat="47.50742" lon="6.7334">
        <ele>403</ele>
        <time>2016-07-28T14:31:36.000Z</time>
      </trkpt>
      <trkpt lat="47.50737" lon="6.7335">
        <ele>401</ele>
        <time>2016-07-28T14:31:37.000Z</time>
      </trkpt>
      <trkpt lat="47.5073" lon="6.73356">
        <ele>400</ele>
        <time>2016-07-28T14:31:38.000Z</time>
      </trkpt>
      <trkpt lat="47.50723" lon="6.73364">
        <ele>398</ele>
        <time>2016-07-28T14:31:39.000Z</time>
      </trkpt>
      <trkpt lat="47.50719" lon="6.73375">
        <ele>397</ele>
        <time>2016-07-28T14:31:40.000Z</time>
      </trkpt>
      <trkpt lat="47.50715" lon="6.73384">
        <ele>397</ele>
        <time>2016-07-28T14:31:41.000Z</time>
      </trkpt>
      <trkpt lat="47.50714" lon="6.73395">
        <ele>396</ele>
        <time>2016-07-28T14:31:42.000Z</time>
      </trkpt>
      <trkpt lat="47.50711" lon="6.73406">
        <ele>395</ele>
        <time>2016-07-28T14:31:43.000Z</time>
      </trkpt>
      <trkpt lat="47.50707" lon="6.73418">
        <ele>388</ele>
        <time>2016-07-28T14:31:44.000Z</time>
      </trkpt>
      <trkpt lat="47.50702" lon="6.7343">
        <ele>388</ele>
        <time>2016-07-28T14:31:45.000Z</time>
      </trkpt>
      <trkpt lat="47.507" lon="6.73439">
        <ele>387</ele>
        <time>2016-07-28T14:31:46.000Z</time>
      </trkpt>
      <trkpt lat="47.50695" lon="6.73449">
        <ele>387</ele>
        <time>2016-07-28T14:31:47.000Z</time>
      </trkpt>
      <trkpt lat="47.5069" lon="6.7346">
        <ele>386</ele>
        <time>2016-07-28T14:31:48.000Z</time>
      </trkpt>
      <trkpt lat="47.50687" lon="6.73468">
        <ele>386</ele>
        <time>2016-07-28T14:31:49.000Z</time>
      </trkpt>
      <trkpt lat="47.50683" lon="6.73477">
        <ele>386</ele>
        <time>2016-07-28T14:31:50.000Z</time>
      </trkpt>
      <trkpt lat="47.50679" lon="6.73484">
        <ele>385</ele>
        <time>2016-07-28T14:31:51.000Z</time>
      </trkpt>
      <trkpt lat="47.50677" lon="6.73489">
        <ele>385</ele>
        <time>2016-07-28T14:31:52.000Z</time>
      </trkpt>
      <trkpt lat="47.50675" lon="6.73493">
        <ele>386</ele>
        <time>2016-07-28T14:31:53.000Z</time>
      </trkpt>
      <trkpt lat="47.50672" lon="6.73497">
        <ele>386</ele>
        <time>2016-07-28T14:31:54.000Z</time>
      </trkpt>
      <trkpt lat="47.50669" lon="6.735">
        <ele>386</ele>
        <time>2016-07-28T14:31:55.000Z</time>
      </trkpt>
      <trkpt lat="47.50668" lon="6.73504">
        <ele>384</ele>
        <time>2016-07-28T14:31:56.000Z</time>
      </trkpt>
      <trkpt lat="47.50667" lon="6.73508">
        <ele>384</ele>
        <time>2016-07-28T14:31:57.000Z</time>
      </trkpt>
      <trkpt lat="47.50663" lon="6.73512">
        <ele>383</ele>
        <time>2016-07-28T14:31:58.000Z</time>
      </trkpt>
      <trkpt lat="47.5066" lon="6.73516">
        <ele>382</ele>
        <time>2016-07-28T14:31:59.000Z</time>
      </trkpt>
      <trkpt lat="47.50657" lon="6.73522">
        <ele>381</ele>
        <time>2016-07-28T14:32:00.000Z</time>
      </trkpt>
      <trkpt lat="47.50654" lon="6.73527">
        <ele>380</ele>
        <time>2016-07-28T14:32:01.000Z</time>
      </trkpt>
      <trkpt lat="47.50648" lon="6.73536">
        <ele>379</ele>
        <time>2016-07-28T14:32:02.000Z</time>
      </trkpt>
      <trkpt lat="47.50645" lon="6.73542">
        <ele>379</ele>
        <time>2016-07-28T14:32:03.000Z</time>
      </trkpt>
      <trkpt lat="47.50643" lon="6.73548">
        <ele>378</ele>
        <time>2016-07-28T14:32:04.000Z</time>
      </trkpt>
      <trkpt lat="47.50643" lon="6.73551">
        <ele>378</ele>
        <time>2016-07-28T14:32:05.000Z</time>
      </trkpt>
      <trkpt lat="47.50642" lon="6.73557">
        <ele>378</ele>
        <time>2016-07-28T14:32:11.000Z</time>
      </trkpt>
      <trkpt lat="47.50642" lon="6.73558">
        <ele>378</ele>
        <time>2016-07-28T14:32:12.000Z</time>
      </trkpt>
      <trkpt lat="47.50639" lon="6.73562">
        <ele>377</ele>
        <time>2016-07-28T14:32:16.000Z</time>
      </trkpt>
      <trkpt lat="47.50638" lon="6.73563">
        <ele>377</ele>
        <time>2016-07-28T14:32:17.000Z</time>
      </trkpt>
      <trkpt lat="47.50638" lon="6.7357">
        <ele>377</ele>
        <time>2016-07-28T14:33:41.000Z</time>
      </trkpt>
      <trkpt lat="47.50638" lon="6.7357">
        <ele>377</ele>
        <time>2016-07-28T14:33:42.000Z</time>
      </trkpt>
      <trkpt lat="47.50639" lon="6.73575">
        <ele>377</ele>
        <time>2016-07-28T14:34:18.000Z</time>
      </trkpt>
      <trkpt lat="47.5064" lon="6.73577">
        <ele>377</ele>
        <time>2016-07-28T14:34:19.000Z</time>
      </trkpt>
      <trkpt lat="47.50643" lon="6.73581">
        <ele>376</ele>
        <time>2016-07-28T14:34:22.000Z</time>
      </trkpt>
      <trkpt lat="47.50645" lon="6.73584">
        <ele>373</ele>
        <time>2016-07-28T14:34:23.000Z</time>
      </trkpt>
      <trkpt lat="47.50647" lon="6.73588">
        <ele>373</ele>
        <time>2016-07-28T14:34:24.000Z</time>
      </trkpt>
      <trkpt lat="47.50658" lon="6.73609">
        <ele>372</ele>
        <time>2016-07-28T14:34:25.000Z</time>
      </trkpt>
      <trkpt lat="47.50662" lon="6.73618">
        <ele>372</ele>
        <time>2016-07-28T14:34:26.000Z</time>
      </trkpt>
      <trkpt lat="47.50661" lon="6.73623">
        <ele>372</ele>
        <time>2016-07-28T14:34:27.000Z</time>
      </trkpt>
      <trkpt lat="47.5066" lon="6.73632">
        <ele>371</ele>
        <time>2016-07-28T14:34:28.000Z</time>
      </trkpt>
      <trkpt lat="47.50661" lon="6.7364">
        <ele>370</ele>
        <time>2016-07-28T14:34:29.000Z</time>
      </trkpt>
      <trkpt lat="47.50662" lon="6.73648">
        <ele>369</ele>
        <time>2016-07-28T14:34:30.000Z</time>
      </trkpt>
      <trkpt lat="47.50661" lon="6.73656">
        <ele>367</ele>
        <time>2016-07-28T14:34:31.000Z</time>
      </trkpt>
      <trkpt lat="47.50662" lon="6.73664">
        <ele>365</ele>
        <time>2016-07-28T14:34:32.000Z</time>
      </trkpt>
      <trkpt lat="47.50662" lon="6.73671">
        <ele>364</ele>
        <time>2016-07-28T14:34:33.000Z</time>
      </trkpt>
      <trkpt lat="47.50663" lon="6.73677">
        <ele>365</ele>
        <time>2016-07-28T14:34:34.000Z</time>
      </trkpt>
      <trkpt lat="47.50663" lon="6.73683">
        <ele>366</ele>
        <time>2016-07-28T14:34:35.000Z</time>
      </trkpt>
      <trkpt lat="47.50664" lon="6.73689">
        <ele>367</ele>
        <time>2016-07-28T14:34:36.000Z</time>
      </trkpt>
      <trkpt lat="47.50663" lon="6.73694">
        <ele>368</ele>
        <time>2016-07-28T14:34:37.000Z</time>
      </trkpt>
      <trkpt lat="47.50664" lon="6.737">
        <ele>368</ele>
        <time>2016-07-28T14:34:38.000Z</time>
      </trkpt>
      <trkpt lat="47.50664" lon="6.73706">
        <ele>368</ele>
        <time>2016-07-28T14:34:39.000Z</time>
      </trkpt>
      <trkpt lat="47.50663" lon="6.73713">
        <ele>368</ele>
        <time>2016-07-28T14:34:40.000Z</time>
      </trkpt>
      <trkpt lat="47.50663" lon="6.7372">
        <ele>368</ele>
        <time>2016-07-28T14:34:41.000Z</time>
      </trkpt>
      <trkpt lat="47.50663" lon="6.73728">
        <ele>367</ele>
        <time>2016-07-28T14:34:42.000Z</time>
      </trkpt>
      <trkpt lat="47.50663" lon="6.73734">
        <ele>366</ele>
        <time>2016-07-28T14:34:43.000Z</time>
      </trkpt>
      <trkpt lat="47.50663" lon="6.73743">
        <ele>365</ele>
        <time>2016-07-28T14:34:44.000Z</time>
      </trkpt>
      <trkpt lat="47.50663" lon="6.7375">
        <ele>363</ele>
        <time>2016-07-28T14:34:45.000Z</time>
      </trkpt>
      <trkpt lat="47.50663" lon="6.73757">
        <ele>364</ele>
        <time>2016-07-28T14:34:46.000Z</time>
      </trkpt>
      <trkpt lat="47.50663" lon="6.73765">
        <ele>366</ele>
        <time>2016-07-28T14:34:47.000Z</time>
      </trkpt>
      <trkpt lat="47.50663" lon="6.73773">
        <ele>367</ele>
        <time>2016-07-28T14:34:48.000Z</time>
      </trkpt>
      <trkpt lat="47.50662" lon="6.7378">
        <ele>367</ele>
        <time>2016-07-28T14:34:49.000Z</time>
      </trkpt>
      <trkpt lat="47.50662" lon="6.73789">
        <ele>367</ele>
        <time>2016-07-28T14:34:50.000Z</time>
      </trkpt>
      <trkpt lat="47.50661" lon="6.73797">
        <ele>367</ele>
        <time>2016-07-28T14:34:51.000Z</time>
      </trkpt>
      <trkpt lat="47.5066" lon="6.73806">
        <ele>367</ele>
        <time>2016-07-28T14:34:52.000Z</time>
      </trkpt>
      <trkpt lat="47.5066" lon="6.73814">
        <ele>366</ele>
        <time>2016-07-28T14:34:53.000Z</time>
      </trkpt>
      <trkpt lat="47.5066" lon="6.73822">
        <ele>364</ele>
        <time>2016-07-28T14:34:54.000Z</time>
      </trkpt>
      <trkpt lat="47.50658" lon="6.73832">
        <ele>363</ele>
        <time>2016-07-28T14:34:55.000Z</time>
      </trkpt>
      <trkpt lat="47.50656" lon="6.73842">
        <ele>363</ele>
        <time>2016-07-28T14:34:56.000Z</time>
      </trkpt>
      <trkpt lat="47.50655" lon="6.73851">
        <ele>364</ele>
        <time>2016-07-28T14:34:57.000Z</time>
      </trkpt>
      <trkpt lat="47.50653" lon="6.73861">
        <ele>365</ele>
        <time>2016-07-28T14:34:58.000Z</time>
      </trkpt>
      <trkpt lat="47.50651" lon="6.73871">
        <ele>365</ele>
        <time>2016-07-28T14:34:59.000Z</time>
      </trkpt>
      <trkpt lat="47.50648" lon="6.73879">
        <ele>365</ele>
        <time>2016-07-28T14:35:00.000Z</time>
      </trkpt>
      <trkpt lat="47.50644" lon="6.73887">
        <ele>365</ele>
        <time>2016-07-28T14:35:01.000Z</time>
      </trkpt>
      <trkpt lat="47.50641" lon="6.73895">
        <ele>364</ele>
        <time>2016-07-28T14:35:02.000Z</time>
      </trkpt>
      <trkpt lat="47.50638" lon="6.73903">
        <ele>364</ele>
        <time>2016-07-28T14:35:03.000Z</time>
      </trkpt>
      <trkpt lat="47.50635" lon="6.73912">
        <ele>365</ele>
        <time>2016-07-28T14:35:04.000Z</time>
      </trkpt>
      <trkpt lat="47.50631" lon="6.7392">
        <ele>361</ele>
        <time>2016-07-28T14:35:05.000Z</time>
      </trkpt>
      <trkpt lat="47.50628" lon="6.73928">
        <ele>361</ele>
        <time>2016-07-28T14:35:06.000Z</time>
      </trkpt>
      <trkpt lat="47.50623" lon="6.73936">
        <ele>361</ele>
        <time>2016-07-28T14:35:07.000Z</time>
      </trkpt>
      <trkpt lat="47.5062" lon="6.73944">
        <ele>361</ele>
        <time>2016-07-28T14:35:08.000Z</time>
      </trkpt>
      <trkpt lat="47.50616" lon="6.73952">
        <ele>361</ele>
        <time>2016-07-28T14:35:09.000Z</time>
      </trkpt>
      <trkpt lat="47.50613" lon="6.7396">
        <ele>361</ele>
        <time>2016-07-28T14:35:10.000Z</time>
      </trkpt>
      <trkpt lat="47.50609" lon="6.7397">
        <ele>361</ele>
        <time>2016-07-28T14:35:11.000Z</time>
      </trkpt>
      <trkpt lat="47.50605" lon="6.73978">
        <ele>361</ele>
        <time>2016-07-28T14:35:12.000Z</time>
      </trkpt>
      <trkpt lat="47.50602" lon="6.73987">
        <ele>361</ele>
        <time>2016-07-28T14:35:13.000Z</time>
      </trkpt>
      <trkpt lat="47.50596" lon="6.73995">
        <ele>362</ele>
        <time>2016-07-28T14:35:14.000Z</time>
      </trkpt>
      <trkpt lat="47.50592" lon="6.74005">
        <ele>359</ele>
        <time>2016-07-28T14:35:15.000Z</time>
      </trkpt>
      <trkpt lat="47.50588" lon="6.74013">
        <ele>358</ele>
        <time>2016-07-28T14:35:16.000Z</time>
      </trkpt>
      <trkpt lat="47.50584" lon="6.74021">
        <ele>357</ele>
        <time>2016-07-28T14:35:17.000Z</time>
      </trkpt>
      <trkpt lat="47.5058" lon="6.74029">
        <ele>366</ele>
        <time>2016-07-28T14:35:18.000Z</time>
      </trkpt>
      <trkpt lat="47.50576" lon="6.74037">
        <ele>366</ele>
        <time>2016-07-28T14:35:19.000Z</time>
      </trkpt>
      <trkpt lat="47.50574" lon="6.74046">
        <ele>365</ele>
        <time>2016-07-28T14:35:20.000Z</time>
      </trkpt>
      <trkpt lat="47.50571" lon="6.74053">
        <ele>365</ele>
        <time>2016-07-28T14:35:21.000Z</time>
      </trkpt>
      <trkpt lat="47.50568" lon="6.74061">
        <ele>364</ele>
        <time>2016-07-28T14:35:22.000Z</time>
      </trkpt>
      <trkpt lat="47.50564" lon="6.7407">
        <ele>363</ele>
        <time>2016-07-28T14:35:23.000Z</time>
      </trkpt>
      <trkpt lat="47.50561" lon="6.74078">
        <ele>363</ele>
        <time>2016-07-28T14:35:24.000Z</time>
      </trkpt>
      <trkpt lat="47.50558" lon="6.74086">
        <ele>360</ele>
        <time>2016-07-28T14:35:25.000Z</time>
      </trkpt>
      <trkpt lat="47.50554" lon="6.74093">
        <ele>361</ele>
        <time>2016-07-28T14:35:26.000Z</time>
      </trkpt>
      <trkpt lat="47.50551" lon="6.74102">
        <ele>362</ele>
        <time>2016-07-28T14:35:27.000Z</time>
      </trkpt>
      <trkpt lat="47.50548" lon="6.7411">
        <ele>362</ele>
        <time>2016-07-28T14:35:28.000Z</time>
      </trkpt>
      <trkpt lat="47.50544" lon="6.74117">
        <ele>362</ele>
        <time>2016-07-28T14:35:29.000Z</time>
      </trkpt>
      <trkpt lat="47.50541" lon="6.74124">
        <ele>362</ele>
        <time>2016-07-28T14:35:30.000Z</time>
      </trkpt>
      <trkpt lat="47.5054" lon="6.74132">
        <ele>362</ele>
        <time>2016-07-28T14:35:31.000Z</time>
      </trkpt>
      <trkpt lat="47.50537" lon="6.7414">
        <ele>363</ele>
        <time>2016-07-28T14:35:32.000Z</time>
      </trkpt>
      <trkpt lat="47.50533" lon="6.74144">
        <ele>363</ele>
        <time>2016-07-28T14:35:33.000Z</time>
      </trkpt>
      <trkpt lat="47.50529" lon="6.74148">
        <ele>364</ele>
        <time>2016-07-28T14:35:34.000Z</time>
      </trkpt>
      <trkpt lat="47.50525" lon="6.74153">
        <ele>364</ele>
        <time>2016-07-28T14:35:35.000Z</time>
      </trkpt>
      <trkpt lat="47.50522" lon="6.74158">
        <ele>365</ele>
        <time>2016-07-28T14:35:36.000Z</time>
      </trkpt>
      <trkpt lat="47.50519" lon="6.74164">
        <ele>366</ele>
        <time>2016-07-28T14:35:37.000Z</time>
      </trkpt>
      <trkpt lat="47.5052" lon="6.74171">
        <ele>364</ele>
        <time>2016-07-28T14:35:38.000Z</time>
      </trkpt>
      <trkpt lat="47.50517" lon="6.74176">
        <ele>365</ele>
        <time>2016-07-28T14:35:39.000Z</time>
      </trkpt>
      <trkpt lat="47.50516" lon="6.7418">
        <ele>365</ele>
        <time>2016-07-28T14:35:40.000Z</time>
      </trkpt>
      <trkpt lat="47.50512" lon="6.74184">
        <ele>365</ele>
        <time>2016-07-28T14:35:41.000Z</time>
      </trkpt>
      <trkpt lat="47.50509" lon="6.74188">
        <ele>364</ele>
        <time>2016-07-28T14:35:42.000Z</time>
      </trkpt>
      <trkpt lat="47.50508" lon="6.74192">
        <ele>364</ele>
        <time>2016-07-28T14:35:43.000Z</time>
      </trkpt>
      <trkpt lat="47.50506" lon="6.74196">
        <ele>364</ele>
        <time>2016-07-28T14:35:44.000Z</time>
      </trkpt>
      <trkpt lat="47.50503" lon="6.742">
        <ele>364</ele>
        <time>2016-07-28T14:35:45.000Z</time>
      </trkpt>
      <trkpt lat="47.50502" lon="6.74204">
        <ele>364</ele>
        <time>2016-07-28T14:35:46.000Z</time>
      </trkpt>
      <trkpt lat="47.50499" lon="6.74208">
        <ele>373</ele>
        <time>2016-07-28T14:35:47.000Z</time>
      </trkpt>
      <trkpt lat="47.50496" lon="6.74211">
        <ele>373</ele>
        <time>2016-07-28T14:35:48.000Z</time>
      </trkpt>
      <trkpt lat="47.50494" lon="6.74215">
        <ele>373</ele>
        <time>2016-07-28T14:35:49.000Z</time>
      </trkpt>
      <trkpt lat="47.50492" lon="6.74218">
        <ele>373</ele>
        <time>2016-07-28T14:35:50.000Z</time>
      </trkpt>
      <trkpt lat="47.5049" lon="6.74223">
        <ele>373</ele>
        <time>2016-07-28T14:35:51.000Z</time>
      </trkpt>
      <trkpt lat="47.50489" lon="6.74228">
        <ele>372</ele>
        <time>2016-07-28T14:35:52.000Z</time>
      </trkpt>
      <trkpt lat="47.50486" lon="6.74233">
        <ele>372</ele>
        <time>2016-07-28T14:35:53.000Z</time>
      </trkpt>
      <trkpt lat="47.50484" lon="6.74238">
        <ele>372</ele>
        <time>2016-07-28T14:35:54.000Z</time>
      </trkpt>
      <trkpt lat="47.50477" lon="6.74249">
        <ele>372</ele>
        <time>2016-07-28T14:35:55.000Z</time>
      </trkpt>
      <trkpt lat="47.50474" lon="6.74255">
        <ele>370</ele>
        <time>2016-07-28T14:35:56.000Z</time>
      </trkpt>
      <trkpt lat="47.50473" lon="6.7426">
        <ele>370</ele>
        <time>2016-07-28T14:35:57.000Z</time>
      </trkpt>
      <trkpt lat="47.50471" lon="6.74266">
        <ele>370</ele>
        <time>2016-07-28T14:35:58.000Z</time>
      </trkpt>
      <trkpt lat="47.50468" lon="6.74273">
        <ele>370</ele>
        <time>2016-07-28T14:35:59.000Z</time>
      </trkpt>
      <trkpt lat="47.50465" lon="6.7428">
        <ele>370</ele>
        <time>2016-07-28T14:36:00.000Z</time>
      </trkpt>
      <trkpt lat="47.5046" lon="6.7429">
        <ele>370</ele>
        <time>2016-07-28T14:36:01.000Z</time>
      </trkpt>
      <trkpt lat="47.50455" lon="6.74299">
        <ele>370</ele>
        <time>2016-07-28T14:36:02.000Z</time>
      </trkpt>
      <trkpt lat="47.5045" lon="6.74308">
        <ele>370</ele>
        <time>2016-07-28T14:36:03.000Z</time>
      </trkpt>
      <trkpt lat="47.50447" lon="6.74314">
        <ele>369</ele>
        <time>2016-07-28T14:36:04.000Z</time>
      </trkpt>
      <trkpt lat="47.50444" lon="6.74321">
        <ele>369</ele>
        <time>2016-07-28T14:36:05.000Z</time>
      </trkpt>
      <trkpt lat="47.50441" lon="6.74328">
        <ele>369</ele>
        <time>2016-07-28T14:36:06.000Z</time>
      </trkpt>
      <trkpt lat="47.50438" lon="6.74334">
        <ele>365</ele>
        <time>2016-07-28T14:36:07.000Z</time>
      </trkpt>
      <trkpt lat="47.50436" lon="6.7434">
        <ele>365</ele>
        <time>2016-07-28T14:36:08.000Z</time>
      </trkpt>
      <trkpt lat="47.50433" lon="6.74346">
        <ele>365</ele>
        <time>2016-07-28T14:36:09.000Z</time>
      </trkpt>
      <trkpt lat="47.50431" lon="6.74351">
        <ele>365</ele>
        <time>2016-07-28T14:36:10.000Z</time>
      </trkpt>
      <trkpt lat="47.50429" lon="6.74357">
        <ele>364</ele>
        <time>2016-07-28T14:36:11.000Z</time>
      </trkpt>
      <trkpt lat="47.50427" lon="6.74362">
        <ele>364</ele>
        <time>2016-07-28T14:36:12.000Z</time>
      </trkpt>
      <trkpt lat="47.50424" lon="6.74367">
        <ele>364</ele>
        <time>2016-07-28T14:36:13.000Z</time>
      </trkpt>
      <trkpt lat="47.50422" lon="6.74373">
        <ele>363</ele>
        <time>2016-07-28T14:36:14.000Z</time>
      </trkpt>
      <trkpt lat="47.50419" lon="6.74378">
        <ele>363</ele>
        <time>2016-07-28T14:36:15.000Z</time>
      </trkpt>
      <trkpt lat="47.50417" lon="6.74384">
        <ele>362</ele>
        <time>2016-07-28T14:36:16.000Z</time>
      </trkpt>
      <trkpt lat="47.50415" lon="6.7439">
        <ele>363</ele>
        <time>2016-07-28T14:36:17.000Z</time>
      </trkpt>
      <trkpt lat="47.50413" lon="6.74396">
        <ele>362</ele>
        <time>2016-07-28T14:36:18.000Z</time>
      </trkpt>
      <trkpt lat="47.50411" lon="6.74403">
        <ele>361</ele>
        <time>2016-07-28T14:36:19.000Z</time>
      </trkpt>
      <trkpt lat="47.50408" lon="6.7441">
        <ele>361</ele>
        <time>2016-07-28T14:36:20.000Z</time>
      </trkpt>
      <trkpt lat="47.50405" lon="6.74416">
        <ele>361</ele>
        <time>2016-07-28T14:36:21.000Z</time>
      </trkpt>
      <trkpt lat="47.50401" lon="6.74423">
        <ele>358</ele>
        <time>2016-07-28T14:36:22.000Z</time>
      </trkpt>
      <trkpt lat="47.50398" lon="6.74431">
        <ele>357</ele>
        <time>2016-07-28T14:36:23.000Z</time>
      </trkpt>
      <trkpt lat="47.50395" lon="6.74439">
        <ele>357</ele>
        <time>2016-07-28T14:36:24.000Z</time>
      </trkpt>
      <trkpt lat="47.50392" lon="6.74447">
        <ele>356</ele>
        <time>2016-07-28T14:36:25.000Z</time>
      </trkpt>
      <trkpt lat="47.50388" lon="6.74455">
        <ele>356</ele>
        <time>2016-07-28T14:36:26.000Z</time>
      </trkpt>
      <trkpt lat="47.50385" lon="6.74463">
        <ele>355</ele>
        <time>2016-07-28T14:36:27.000Z</time>
      </trkpt>
      <trkpt lat="47.50382" lon="6.74471">
        <ele>355</ele>
        <time>2016-07-28T14:36:28.000Z</time>
      </trkpt>
      <trkpt lat="47.50381" lon="6.74479">
        <ele>355</ele>
        <time>2016-07-28T14:36:29.000Z</time>
      </trkpt>
      <trkpt lat="47.50382" lon="6.74486">
        <ele>355</ele>
        <time>2016-07-28T14:36:30.000Z</time>
      </trkpt>
      <trkpt lat="47.50381" lon="6.74495">
        <ele>355</ele>
        <time>2016-07-28T14:36:31.000Z</time>
      </trkpt>
      <trkpt lat="47.50383" lon="6.74503">
        <ele>353</ele>
        <time>2016-07-28T14:36:32.000Z</time>
      </trkpt>
      <trkpt lat="47.50384" lon="6.7451">
        <ele>353</ele>
        <time>2016-07-28T14:36:33.000Z</time>
      </trkpt>
      <trkpt lat="47.50385" lon="6.74517">
        <ele>353</ele>
        <time>2016-07-28T14:36:34.000Z</time>
      </trkpt>
      <trkpt lat="47.50387" lon="6.74525">
        <ele>353</ele>
        <time>2016-07-28T14:36:35.000Z</time>
      </trkpt>
      <trkpt lat="47.50388" lon="6.74532">
        <ele>353</ele>
        <time>2016-07-28T14:36:36.000Z</time>
      </trkpt>
      <trkpt lat="47.50389" lon="6.74539">
        <ele>353</ele>
        <time>2016-07-28T14:36:37.000Z</time>
      </trkpt>
      <trkpt lat="47.5039" lon="6.74546">
        <ele>353</ele>
        <time>2016-07-28T14:36:38.000Z</time>
      </trkpt>
      <trkpt lat="47.50392" lon="6.74553">
        <ele>353</ele>
        <time>2016-07-28T14:36:39.000Z</time>
      </trkpt>
      <trkpt lat="47.50393" lon="6.74562">
        <ele>353</ele>
        <time>2016-07-28T14:36:40.000Z</time>
      </trkpt>
      <trkpt lat="47.50394" lon="6.74569">
        <ele>353</ele>
        <time>2016-07-28T14:36:41.000Z</time>
      </trkpt>
      <trkpt lat="47.50396" lon="6.74578">
        <ele>353</ele>
        <time>2016-07-28T14:36:42.000Z</time>
      </trkpt>
      <trkpt lat="47.50397" lon="6.74587">
        <ele>353</ele>
        <time>2016-07-28T14:36:43.000Z</time>
      </trkpt>
      <trkpt lat="47.50397" lon="6.74595">
        <ele>353</ele>
        <time>2016-07-28T14:36:44.000Z</time>
      </trkpt>
      <trkpt lat="47.50398" lon="6.74603">
        <ele>352</ele>
        <time>2016-07-28T14:36:45.000Z</time>
      </trkpt>
      <trkpt lat="47.50399" lon="6.74611">
        <ele>352</ele>
        <time>2016-07-28T14:36:46.000Z</time>
      </trkpt>
      <trkpt lat="47.504" lon="6.7462">
        <ele>352</ele>
        <time>2016-07-28T14:36:47.000Z</time>
      </trkpt>
      <trkpt lat="47.50401" lon="6.74628">
        <ele>352</ele>
        <time>2016-07-28T14:36:48.000Z</time>
      </trkpt>
      <trkpt lat="47.50402" lon="6.74636">
        <ele>352</ele>
        <time>2016-07-28T14:36:49.000Z</time>
      </trkpt>
      <trkpt lat="47.50403" lon="6.74644">
        <ele>352</ele>
        <time>2016-07-28T14:36:50.000Z</time>
      </trkpt>
      <trkpt lat="47.50405" lon="6.74653">
        <ele>353</ele>
        <time>2016-07-28T14:36:51.000Z</time>
      </trkpt>
      <trkpt lat="47.50406" lon="6.74662">
        <ele>353</ele>
        <time>2016-07-28T14:36:52.000Z</time>
      </trkpt>
      <trkpt lat="47.50406" lon="6.7467">
        <ele>353</ele>
        <time>2016-07-28T14:36:53.000Z</time>
      </trkpt>
      <trkpt lat="47.50405" lon="6.74679">
        <ele>352</ele>
        <time>2016-07-28T14:36:54.000Z</time>
      </trkpt>
      <trkpt lat="47.50403" lon="6.74688">
        <ele>352</ele>
        <time>2016-07-28T14:36:55.000Z</time>
      </trkpt>
      <trkpt lat="47.50401" lon="6.74696">
        <ele>352</ele>
        <time>2016-07-28T14:36:56.000Z</time>
      </trkpt>
      <trkpt lat="47.50398" lon="6.74704">
        <ele>352</ele>
        <time>2016-07-28T14:36:57.000Z</time>
      </trkpt>
      <trkpt lat="47.50396" lon="6.74713">
        <ele>352</ele>
        <time>2016-07-28T14:36:58.000Z</time>
      </trkpt>
      <trkpt lat="47.50394" lon="6.74722">
        <ele>352</ele>
        <time>2016-07-28T14:36:59.000Z</time>
      </trkpt>
      <trkpt lat="47.50391" lon="6.74732">
        <ele>352</ele>
        <time>2016-07-28T14:37:00.000Z</time>
      </trkpt>
      <trkpt lat="47.50389" lon="6.7474">
        <ele>351</ele>
        <time>2016-07-28T14:37:01.000Z</time>
      </trkpt>
      <trkpt lat="47.50386" lon="6.74749">
        <ele>351</ele>
        <time>2016-07-28T14:37:02.000Z</time>
      </trkpt>
      <trkpt lat="47.50383" lon="6.74758">
        <ele>351</ele>
        <time>2016-07-28T14:37:03.000Z</time>
      </trkpt>
      <trkpt lat="47.5038" lon="6.74767">
        <ele>350</ele>
        <time>2016-07-28T14:37:04.000Z</time>
      </trkpt>
      <trkpt lat="47.50378" lon="6.74776">
        <ele>350</ele>
        <time>2016-07-28T14:37:05.000Z</time>
      </trkpt>
      <trkpt lat="47.50375" lon="6.74785">
        <ele>350</ele>
        <time>2016-07-28T14:37:06.000Z</time>
      </trkpt>
      <trkpt lat="47.50372" lon="6.74794">
        <ele>350</ele>
        <time>2016-07-28T14:37:07.000Z</time>
      </trkpt>
      <trkpt lat="47.5037" lon="6.74804">
        <ele>350</ele>
        <time>2016-07-28T14:37:08.000Z</time>
      </trkpt>
      <trkpt lat="47.50367" lon="6.74813">
        <ele>350</ele>
        <time>2016-07-28T14:37:09.000Z</time>
      </trkpt>
      <trkpt lat="47.50365" lon="6.74823">
        <ele>349</ele>
        <time>2016-07-28T14:37:10.000Z</time>
      </trkpt>
      <trkpt lat="47.50362" lon="6.74833">
        <ele>349</ele>
        <time>2016-07-28T14:37:11.000Z</time>
      </trkpt>
      <trkpt lat="47.50359" lon="6.74844">
        <ele>348</ele>
        <time>2016-07-28T14:37:12.000Z</time>
      </trkpt>
      <trkpt lat="47.50356" lon="6.74854">
        <ele>348</ele>
        <time>2016-07-28T14:37:13.000Z</time>
      </trkpt>
      <trkpt lat="47.50353" lon="6.74864">
        <ele>348</ele>
        <time>2016-07-28T14:37:14.000Z</time>
      </trkpt>
      <trkpt lat="47.5035" lon="6.74876">
        <ele>348</ele>
        <time>2016-07-28T14:37:15.000Z</time>
      </trkpt>
      <trkpt lat="47.50347" lon="6.74886">
        <ele>348</ele>
        <time>2016-07-28T14:37:16.000Z</time>
      </trkpt>
      <trkpt lat="47.50344" lon="6.74897">
        <ele>348</ele>
        <time>2016-07-28T14:37:17.000Z</time>
      </trkpt>
      <trkpt lat="47.50341" lon="6.74908">
        <ele>347</ele>
        <time>2016-07-28T14:37:18.000Z</time>
      </trkpt>
      <trkpt lat="47.50338" lon="6.74919">
        <ele>347</ele>
        <time>2016-07-28T14:37:19.000Z</time>
      </trkpt>
      <trkpt lat="47.50335" lon="6.74929">
        <ele>347</ele>
        <time>2016-07-28T14:37:20.000Z</time>
      </trkpt>
      <trkpt lat="47.50332" lon="6.7494">
        <ele>344</ele>
        <time>2016-07-28T14:37:21.000Z</time>
      </trkpt>
      <trkpt lat="47.50329" lon="6.7495">
        <ele>344</ele>
        <time>2016-07-28T14:37:22.000Z</time>
      </trkpt>
      <trkpt lat="47.50325" lon="6.74961">
        <ele>344</ele>
        <time>2016-07-28T14:37:23.000Z</time>
      </trkpt>
      <trkpt lat="47.50322" lon="6.74971">
        <ele>345</ele>
        <time>2016-07-28T14:37:24.000Z</time>
      </trkpt>
      <trkpt lat="47.50318" lon="6.74981">
        <ele>345</ele>
        <time>2016-07-28T14:37:25.000Z</time>
      </trkpt>
      <trkpt lat="47.50312" lon="6.7499">
        <ele>345</ele>
        <time>2016-07-28T14:37:26.000Z</time>
      </trkpt>
      <trkpt lat="47.50305" lon="6.74998">
        <ele>344</ele>
        <time>2016-07-28T14:37:27.000Z</time>
      </trkpt>
      <trkpt lat="47.50298" lon="6.75004">
        <ele>344</ele>
        <time>2016-07-28T14:37:28.000Z</time>
      </trkpt>
      <trkpt lat="47.5029" lon="6.75009">
        <ele>343</ele>
        <time>2016-07-28T14:37:29.000Z</time>
      </trkpt>
      <trkpt lat="47.50282" lon="6.75013">
        <ele>343</ele>
        <time>2016-07-28T14:37:30.000Z</time>
      </trkpt>
      <trkpt lat="47.50276" lon="6.75018">
        <ele>342</ele>
        <time>2016-07-28T14:37:31.000Z</time>
      </trkpt>
      <trkpt lat="47.50271" lon="6.75023">
        <ele>342</ele>
        <time>2016-07-28T14:37:32.000Z</time>
      </trkpt>
      <trkpt lat="47.50264" lon="6.75025">
        <ele>341</ele>
        <time>2016-07-28T14:37:33.000Z</time>
      </trkpt>
      <trkpt lat="47.50258" lon="6.75012">
        <ele>340</ele>
        <time>2016-07-28T14:37:34.000Z</time>
      </trkpt>
      <trkpt lat="47.50255" lon="6.75001">
        <ele>338</ele>
        <time>2016-07-28T14:37:35.000Z</time>
      </trkpt>
      <trkpt lat="47.50253" lon="6.7499">
        <ele>339</ele>
        <time>2016-07-28T14:37:36.000Z</time>
      </trkpt>
      <trkpt lat="47.5025" lon="6.7498">
        <ele>340</ele>
        <time>2016-07-28T14:37:37.000Z</time>
      </trkpt>
      <trkpt lat="47.50246" lon="6.74972">
        <ele>336</ele>
        <time>2016-07-28T14:37:38.000Z</time>
      </trkpt>
      <trkpt lat="47.50239" lon="6.74968">
        <ele>336</ele>
        <time>2016-07-28T14:37:39.000Z</time>
      </trkpt>
      <trkpt lat="47.50235" lon="6.74965">
        <ele>336</ele>
        <time>2016-07-28T14:37:40.000Z</time>
      </trkpt>
      <trkpt lat="47.50231" lon="6.74962">
        <ele>336</ele>
        <time>2016-07-28T14:37:43.000Z</time>
      </trkpt>
      <trkpt lat="47.50229" lon="6.74962">
        <ele>336</ele>
        <time>2016-07-28T14:37:44.000Z</time>
      </trkpt>
      <trkpt lat="47.50226" lon="6.74961">
        <ele>336</ele>
        <time>2016-07-28T14:37:45.000Z</time>
      </trkpt>
      <trkpt lat="47.50222" lon="6.74962">
        <ele>336</ele>
        <time>2016-07-28T14:37:46.000Z</time>
      </trkpt>
      <trkpt lat="47.50219" lon="6.74964">
        <ele>336</ele>
        <time>2016-07-28T14:37:47.000Z</time>
      </trkpt>
      <trkpt lat="47.50215" lon="6.74967">
        <ele>336</ele>
        <time>2016-07-28T14:37:48.000Z</time>
      </trkpt>
      <trkpt lat="47.50213" lon="6.7497">
        <ele>336</ele>
        <time>2016-07-28T14:37:49.000Z</time>
      </trkpt>
      <trkpt lat="47.50209" lon="6.74975">
        <ele>336</ele>
        <time>2016-07-28T14:37:50.000Z</time>
      </trkpt>
      <trkpt lat="47.50205" lon="6.7498">
        <ele>335</ele>
        <time>2016-07-28T14:37:51.000Z</time>
      </trkpt>
      <trkpt lat="47.50202" lon="6.74987">
        <ele>335</ele>
        <time>2016-07-28T14:37:52.000Z</time>
      </trkpt>
      <trkpt lat="47.502" lon="6.74995">
        <ele>335</ele>
        <time>2016-07-28T14:37:53.000Z</time>
      </trkpt>
      <trkpt lat="47.50198" lon="6.75003">
        <ele>334</ele>
        <time>2016-07-28T14:37:54.000Z</time>
      </trkpt>
      <trkpt lat="47.50196" lon="6.75013">
        <ele>334</ele>
        <time>2016-07-28T14:37:55.000Z</time>
      </trkpt>
      <trkpt lat="47.50195" lon="6.75022">
        <ele>334</ele>
        <time>2016-07-28T14:37:56.000Z</time>
      </trkpt>
      <trkpt lat="47.50194" lon="6.75032">
        <ele>333</ele>
        <time>2016-07-28T14:37:57.000Z</time>
      </trkpt>
      <trkpt lat="47.50193" lon="6.75043">
        <ele>333</ele>
        <time>2016-07-28T14:37:58.000Z</time>
      </trkpt>
      <trkpt lat="47.50192" lon="6.75054">
        <ele>333</ele>
        <time>2016-07-28T14:37:59.000Z</time>
      </trkpt>
      <trkpt lat="47.50191" lon="6.75065">
        <ele>332</ele>
        <time>2016-07-28T14:38:00.000Z</time>
      </trkpt>
      <trkpt lat="47.5019" lon="6.75076">
        <ele>332</ele>
        <time>2016-07-28T14:38:01.000Z</time>
      </trkpt>
      <trkpt lat="47.50189" lon="6.75087">
        <ele>329</ele>
        <time>2016-07-28T14:38:02.000Z</time>
      </trkpt>
      <trkpt lat="47.50187" lon="6.75099">
        <ele>329</ele>
        <time>2016-07-28T14:38:03.000Z</time>
      </trkpt>
      <trkpt lat="47.50185" lon="6.75111">
        <ele>329</ele>
        <time>2016-07-28T14:38:04.000Z</time>
      </trkpt>
      <trkpt lat="47.50182" lon="6.75121">
        <ele>329</ele>
        <time>2016-07-28T14:38:05.000Z</time>
      </trkpt>
      <trkpt lat="47.50174" lon="6.75127">
        <ele>328</ele>
        <time>2016-07-28T14:38:06.000Z</time>
      </trkpt>
      <trkpt lat="47.50167" lon="6.75134">
        <ele>327</ele>
        <time>2016-07-28T14:38:07.000Z</time>
      </trkpt>
      <trkpt lat="47.5016" lon="6.7514">
        <ele>326</ele>
        <time>2016-07-28T14:38:08.000Z</time>
      </trkpt>
      <trkpt lat="47.50154" lon="6.75146">
        <ele>325</ele>
        <time>2016-07-28T14:38:09.000Z</time>
      </trkpt>
      <trkpt lat="47.50148" lon="6.75152">
        <ele>325</ele>
        <time>2016-07-28T14:38:10.000Z</time>
      </trkpt>
      <trkpt lat="47.50141" lon="6.75157">
        <ele>325</ele>
        <time>2016-07-28T14:38:11.000Z</time>
      </trkpt>
      <trkpt lat="47.50135" lon="6.75163">
        <ele>326</ele>
        <time>2016-07-28T14:38:12.000Z</time>
      </trkpt>
      <trkpt lat="47.50128" lon="6.75168">
        <ele>323</ele>
        <time>2016-07-28T14:38:13.000Z</time>
      </trkpt>
      <trkpt lat="47.50122" lon="6.75174">
        <ele>323</ele>
        <time>2016-07-28T14:38:14.000Z</time>
      </trkpt>
      <trkpt lat="47.50116" lon="6.75178">
        <ele>323</ele>
        <time>2016-07-28T14:38:15.000Z</time>
      </trkpt>
      <trkpt lat="47.50109" lon="6.75182">
        <ele>323</ele>
        <time>2016-07-28T14:38:16.000Z</time>
      </trkpt>
      <trkpt lat="47.50102" lon="6.75186">
        <ele>323</ele>
        <time>2016-07-28T14:38:17.000Z</time>
      </trkpt>
      <trkpt lat="47.50096" lon="6.75188">
        <ele>323</ele>
        <time>2016-07-28T14:38:18.000Z</time>
      </trkpt>
      <trkpt lat="47.50089" lon="6.75191">
        <ele>323</ele>
        <time>2016-07-28T14:38:19.000Z</time>
      </trkpt>
      <trkpt lat="47.50082" lon="6.75195">
        <ele>323</ele>
        <time>2016-07-28T14:38:20.000Z</time>
      </trkpt>
      <trkpt lat="47.50076" lon="6.75197">
        <ele>323</ele>
        <time>2016-07-28T14:38:21.000Z</time>
      </trkpt>
      <trkpt lat="47.5007" lon="6.75199">
        <ele>322</ele>
        <time>2016-07-28T14:38:22.000Z</time>
      </trkpt>
      <trkpt lat="47.50064" lon="6.75198">
        <ele>322</ele>
        <time>2016-07-28T14:38:23.000Z</time>
      </trkpt>
      <trkpt lat="47.50057" lon="6.75199">
        <ele>322</ele>
        <time>2016-07-28T14:38:24.000Z</time>
      </trkpt>
      <trkpt lat="47.5005" lon="6.75199">
        <ele>322</ele>
        <time>2016-07-28T14:38:25.000Z</time>
      </trkpt>
      <trkpt lat="47.50043" lon="6.75201">
        <ele>322</ele>
        <time>2016-07-28T14:38:26.000Z</time>
      </trkpt>
      <trkpt lat="47.50036" lon="6.75204">
        <ele>322</ele>
        <time>2016-07-28T14:38:27.000Z</time>
      </trkpt>
      <trkpt lat="47.5003" lon="6.75208">
        <ele>322</ele>
        <time>2016-07-28T14:38:28.000Z</time>
      </trkpt>
      <trkpt lat="47.50024" lon="6.75213">
        <ele>322</ele>
        <time>2016-07-28T14:38:29.000Z</time>
      </trkpt>
      <trkpt lat="47.50019" lon="6.75219">
        <ele>322</ele>
        <time>2016-07-28T14:38:30.000Z</time>
      </trkpt>
      <trkpt lat="47.50015" lon="6.75227">
        <ele>322</ele>
        <time>2016-07-28T14:38:31.000Z</time>
      </trkpt>
      <trkpt lat="47.50011" lon="6.75236">
        <ele>322</ele>
        <time>2016-07-28T14:38:32.000Z</time>
      </trkpt>
      <trkpt lat="47.50009" lon="6.75245">
        <ele>321</ele>
        <time>2016-07-28T14:38:33.000Z</time>
      </trkpt>
      <trkpt lat="47.50008" lon="6.75255">
        <ele>321</ele>
        <time>2016-07-28T14:38:34.000Z</time>
      </trkpt>
      <trkpt lat="47.50008" lon="6.75265">
        <ele>322</ele>
        <time>2016-07-28T14:38:35.000Z</time>
      </trkpt>
      <trkpt lat="47.50007" lon="6.75274">
        <ele>322</ele>
        <time>2016-07-28T14:38:36.000Z</time>
      </trkpt>
      <trkpt lat="47.50008" lon="6.75283">
        <ele>322</ele>
        <time>2016-07-28T14:38:37.000Z</time>
      </trkpt>
      <trkpt lat="47.50008" lon="6.75292">
        <ele>322</ele>
        <time>2016-07-28T14:38:38.000Z</time>
      </trkpt>
      <trkpt lat="47.50009" lon="6.75302">
        <ele>322</ele>
        <time>2016-07-28T14:38:39.000Z</time>
      </trkpt>
      <trkpt lat="47.5001" lon="6.7531">
        <ele>323</ele>
        <time>2016-07-28T14:38:40.000Z</time>
      </trkpt>
      <trkpt lat="47.50013" lon="6.75318">
        <ele>323</ele>
        <time>2016-07-28T14:38:41.000Z</time>
      </trkpt>
      <trkpt lat="47.50014" lon="6.75326">
        <ele>323</ele>
        <time>2016-07-28T14:38:42.000Z</time>
      </trkpt>
      <trkpt lat="47.50016" lon="6.75335">
        <ele>325</ele>
        <time>2016-07-28T14:38:43.000Z</time>
      </trkpt>
      <trkpt lat="47.50017" lon="6.75343">
        <ele>326</ele>
        <time>2016-07-28T14:38:44.000Z</time>
      </trkpt>
      <trkpt lat="47.50017" lon="6.75351">
        <ele>327</ele>
        <time>2016-07-28T14:38:45.000Z</time>
      </trkpt>
      <trkpt lat="47.50017" lon="6.75358">
        <ele>327</ele>
        <time>2016-07-28T14:38:46.000Z</time>
      </trkpt>
      <trkpt lat="47.50016" lon="6.75366">
        <ele>328</ele>
        <time>2016-07-28T14:38:47.000Z</time>
      </trkpt>
      <trkpt lat="47.50014" lon="6.75372">
        <ele>328</ele>
        <time>2016-07-28T14:38:48.000Z</time>
      </trkpt>
      <trkpt lat="47.50012" lon="6.75377">
        <ele>328</ele>
        <time>2016-07-28T14:38:49.000Z</time>
      </trkpt>
      <trkpt lat="47.50011" lon="6.75383">
        <ele>329</ele>
        <time>2016-07-28T14:38:50.000Z</time>
      </trkpt>
      <trkpt lat="47.50008" lon="6.75386">
        <ele>329</ele>
        <time>2016-07-28T14:38:51.000Z</time>
      </trkpt>
      <trkpt lat="47.50006" lon="6.75391">
        <ele>329</ele>
        <time>2016-07-28T14:38:52.000Z</time>
      </trkpt>
      <trkpt lat="47.50004" lon="6.75394">
        <ele>329</ele>
        <time>2016-07-28T14:38:53.000Z</time>
      </trkpt>
      <trkpt lat="47.50001" lon="6.75397">
        <ele>330</ele>
        <time>2016-07-28T14:38:53.999Z</time>
      </trkpt>
      <trkpt lat="47.49998" lon="6.754">
        <ele>328</ele>
        <time>2016-07-28T14:38:55.000Z</time>
      </trkpt>
      <trkpt lat="47.49996" lon="6.75402">
        <ele>329</ele>
        <time>2016-07-28T14:38:56.001Z</time>
      </trkpt>
      <trkpt lat="47.49993" lon="6.75403">
        <ele>329</ele>
        <time>2016-07-28T14:38:57.000Z</time>
      </trkpt>
      <trkpt lat="47.49991" lon="6.75405">
        <ele>329</ele>
        <time>2016-07-28T14:38:58.000Z</time>
      </trkpt>
      <trkpt lat="47.49988" lon="6.75409">
        <ele>329</ele>
        <time>2016-07-28T14:39:00.000Z</time>
      </trkpt>
      <trkpt lat="47.49987" lon="6.75411">
        <ele>329</ele>
        <time>2016-07-28T14:39:01.000Z</time>
      </trkpt>
      <trkpt lat="47.49983" lon="6.75412">
        <ele>328</ele>
        <time>2016-07-28T14:39:22.000Z</time>
      </trkpt>
      <trkpt lat="47.49981" lon="6.75409">
        <ele>328</ele>
        <time>2016-07-28T14:39:23.000Z</time>
      </trkpt>
      <trkpt lat="47.49977" lon="6.75408">
        <ele>328</ele>
        <time>2016-07-28T14:39:24.000Z</time>
      </trkpt>
      <trkpt lat="47.49974" lon="6.75407">
        <ele>328</ele>
        <time>2016-07-28T14:39:25.000Z</time>
      </trkpt>
      <trkpt lat="47.4997" lon="6.75407">
        <ele>327</ele>
        <time>2016-07-28T14:39:26.000Z</time>
      </trkpt>
      <trkpt lat="47.49966" lon="6.75408">
        <ele>327</ele>
        <time>2016-07-28T14:39:27.000Z</time>
      </trkpt>
      <trkpt lat="47.49962" lon="6.75409">
        <ele>327</ele>
        <time>2016-07-28T14:39:28.000Z</time>
      </trkpt>
      <trkpt lat="47.49958" lon="6.7541">
        <ele>327</ele>
        <time>2016-07-28T14:39:29.000Z</time>
      </trkpt>
      <trkpt lat="47.49955" lon="6.7541">
        <ele>327</ele>
        <time>2016-07-28T14:39:30.000Z</time>
      </trkpt>
      <trkpt lat="47.49951" lon="6.7541">
        <ele>327</ele>
        <time>2016-07-28T14:39:31.000Z</time>
      </trkpt>
      <trkpt lat="47.49947" lon="6.7541">
        <ele>327</ele>
        <time>2016-07-28T14:39:32.000Z</time>
      </trkpt>
      <trkpt lat="47.49944" lon="6.7541">
        <ele>327</ele>
        <time>2016-07-28T14:39:33.000Z</time>
      </trkpt>
      <trkpt lat="47.4994" lon="6.7541">
        <ele>327</ele>
        <time>2016-07-28T14:39:34.000Z</time>
      </trkpt>
      <trkpt lat="47.49936" lon="6.7541">
        <ele>327</ele>
        <time>2016-07-28T14:39:35.000Z</time>
      </trkpt>
      <trkpt lat="47.49932" lon="6.7541">
        <ele>327</ele>
        <time>2016-07-28T14:39:36.000Z</time>
      </trkpt>
      <trkpt lat="47.49928" lon="6.7541">
        <ele>327</ele>
        <time>2016-07-28T14:39:37.000Z</time>
      </trkpt>
      <trkpt lat="47.49924" lon="6.75411">
        <ele>327</ele>
        <time>2016-07-28T14:39:38.000Z</time>
      </trkpt>
      <trkpt lat="47.49921" lon="6.75411">
        <ele>327</ele>
        <time>2016-07-28T14:39:39.000Z</time>
      </trkpt>
      <trkpt lat="47.49918" lon="6.75412">
        <ele>328</ele>
        <time>2016-07-28T14:39:40.000Z</time>
      </trkpt>
      <trkpt lat="47.49914" lon="6.75413">
        <ele>327</ele>
        <time>2016-07-28T14:39:41.000Z</time>
      </trkpt>
      <trkpt lat="47.49911" lon="6.75414">
        <ele>327</ele>
        <time>2016-07-28T14:39:42.000Z</time>
      </trkpt>
      <trkpt lat="47.49907" lon="6.75415">
        <ele>326</ele>
        <time>2016-07-28T14:39:43.000Z</time>
      </trkpt>
      <trkpt lat="47.49903" lon="6.75416">
        <ele>326</ele>
        <time>2016-07-28T14:39:44.000Z</time>
      </trkpt>
      <trkpt lat="47.49899" lon="6.75418">
        <ele>329</ele>
        <time>2016-07-28T14:39:45.000Z</time>
      </trkpt>
      <trkpt lat="47.49895" lon="6.75423">
        <ele>329</ele>
        <time>2016-07-28T14:39:46.000Z</time>
      </trkpt>
      <trkpt lat="47.49891" lon="6.75427">
        <ele>329</ele>
        <time>2016-07-28T14:39:47.000Z</time>
      </trkpt>
      <trkpt lat="47.49886" lon="6.7543">
        <ele>329</ele>
        <time>2016-07-28T14:39:48.000Z</time>
      </trkpt>
      <trkpt lat="47.49883" lon="6.75436">
        <ele>329</ele>
        <time>2016-07-28T14:39:49.000Z</time>
      </trkpt>
      <trkpt lat="47.4988" lon="6.75443">
        <ele>330</ele>
        <time>2016-07-28T14:39:50.000Z</time>
      </trkpt>
      <trkpt lat="47.49877" lon="6.75449">
        <ele>330</ele>
        <time>2016-07-28T14:39:51.000Z</time>
      </trkpt>
      <trkpt lat="47.49874" lon="6.75454">
        <ele>330</ele>
        <time>2016-07-28T14:39:52.000Z</time>
      </trkpt>
      <trkpt lat="47.4987" lon="6.75461">
        <ele>330</ele>
        <time>2016-07-28T14:39:53.000Z</time>
      </trkpt>
      <trkpt lat="47.49866" lon="6.75468">
        <ele>331</ele>
        <time>2016-07-28T14:39:54.000Z</time>
      </trkpt>
      <trkpt lat="47.49862" lon="6.75474">
        <ele>331</ele>
        <time>2016-07-28T14:39:55.000Z</time>
      </trkpt>
      <trkpt lat="47.49859" lon="6.7548">
        <ele>331</ele>
        <time>2016-07-28T14:39:56.000Z</time>
      </trkpt>
      <trkpt lat="47.49855" lon="6.75486">
        <ele>331</ele>
        <time>2016-07-28T14:39:57.000Z</time>
      </trkpt>
      <trkpt lat="47.49851" lon="6.75492">
        <ele>330</ele>
        <time>2016-07-28T14:39:58.000Z</time>
      </trkpt>
      <trkpt lat="47.49847" lon="6.75499">
        <ele>330</ele>
        <time>2016-07-28T14:39:59.000Z</time>
      </trkpt>
      <trkpt lat="47.49843" lon="6.75505">
        <ele>334</ele>
        <time>2016-07-28T14:40:00.000Z</time>
      </trkpt>
      <trkpt lat="47.49839" lon="6.75511">
        <ele>335</ele>
        <time>2016-07-28T14:40:01.000Z</time>
      </trkpt>
      <trkpt lat="47.49834" lon="6.75517">
        <ele>336</ele>
        <time>2016-07-28T14:40:02.000Z</time>
      </trkpt>
      <trkpt lat="47.4983" lon="6.75523">
        <ele>330</ele>
        <time>2016-07-28T14:40:03.000Z</time>
      </trkpt>
      <trkpt lat="47.49826" lon="6.75528">
        <ele>330</ele>
        <time>2016-07-28T14:40:04.000Z</time>
      </trkpt>
      <trkpt lat="47.49822" lon="6.75534">
        <ele>331</ele>
        <time>2016-07-28T14:40:05.000Z</time>
      </trkpt>
      <trkpt lat="47.49817" lon="6.75539">
        <ele>331</ele>
        <time>2016-07-28T14:40:06.000Z</time>
      </trkpt>
      <trkpt lat="47.49813" lon="6.75544">
        <ele>331</ele>
        <time>2016-07-28T14:40:07.000Z</time>
      </trkpt>
      <trkpt lat="47.49809" lon="6.75549">
        <ele>331</ele>
        <time>2016-07-28T14:40:08.000Z</time>
      </trkpt>
      <trkpt lat="47.49805" lon="6.75554">
        <ele>331</ele>
        <time>2016-07-28T14:40:09.000Z</time>
      </trkpt>
      <trkpt lat="47.49801" lon="6.75558">
        <ele>331</ele>
        <time>2016-07-28T14:40:10.000Z</time>
      </trkpt>
      <trkpt lat="47.49796" lon="6.75563">
        <ele>331</ele>
        <time>2016-07-28T14:40:11.000Z</time>
      </trkpt>
      <trkpt lat="47.49792" lon="6.75567">
        <ele>331</ele>
        <time>2016-07-28T14:40:12.000Z</time>
      </trkpt>
      <trkpt lat="47.49789" lon="6.75572">
        <ele>330</ele>
        <time>2016-07-28T14:40:13.000Z</time>
      </trkpt>
      <trkpt lat="47.49785" lon="6.75577">
        <ele>330</ele>
        <time>2016-07-28T14:40:14.000Z</time>
      </trkpt>
      <trkpt lat="47.49781" lon="6.75581">
        <ele>329</ele>
        <time>2016-07-28T14:40:15.000Z</time>
      </trkpt>
      <trkpt lat="47.49776" lon="6.75585">
        <ele>335</ele>
        <time>2016-07-28T14:40:16.000Z</time>
      </trkpt>
      <trkpt lat="47.49772" lon="6.75588">
        <ele>334</ele>
        <time>2016-07-28T14:40:17.000Z</time>
      </trkpt>
      <trkpt lat="47.49768" lon="6.75593">
        <ele>334</ele>
        <time>2016-07-28T14:40:18.000Z</time>
      </trkpt>
      <trkpt lat="47.49763" lon="6.75597">
        <ele>333</ele>
        <time>2016-07-28T14:40:19.000Z</time>
      </trkpt>
      <trkpt lat="47.4976" lon="6.75601">
        <ele>334</ele>
        <time>2016-07-28T14:40:20.000Z</time>
      </trkpt>
      <trkpt lat="47.49756" lon="6.75605">
        <ele>334</ele>
        <time>2016-07-28T14:40:21.000Z</time>
      </trkpt>
      <trkpt lat="47.49751" lon="6.75609">
        <ele>334</ele>
        <time>2016-07-28T14:40:22.000Z</time>
      </trkpt>
      <trkpt lat="47.49747" lon="6.75613">
        <ele>328</ele>
        <time>2016-07-28T14:40:23.000Z</time>
      </trkpt>
      <trkpt lat="47.49742" lon="6.75616">
        <ele>328</ele>
        <time>2016-07-28T14:40:24.000Z</time>
      </trkpt>
      <trkpt lat="47.49736" lon="6.75618">
        <ele>328</ele>
        <time>2016-07-28T14:40:25.000Z</time>
      </trkpt>
      <trkpt lat="47.49731" lon="6.7562">
        <ele>328</ele>
        <time>2016-07-28T14:40:26.000Z</time>
      </trkpt>
      <trkpt lat="47.49726" lon="6.75622">
        <ele>328</ele>
        <time>2016-07-28T14:40:27.000Z</time>
      </trkpt>
      <trkpt lat="47.49721" lon="6.75624">
        <ele>328</ele>
        <time>2016-07-28T14:40:28.000Z</time>
      </trkpt>
      <trkpt lat="47.49716" lon="6.75626">
        <ele>328</ele>
        <time>2016-07-28T14:40:29.000Z</time>
      </trkpt>
      <trkpt lat="47.49711" lon="6.75628">
        <ele>328</ele>
        <time>2016-07-28T14:40:30.000Z</time>
      </trkpt>
      <trkpt lat="47.49706" lon="6.7563">
        <ele>327</ele>
        <time>2016-07-28T14:40:31.000Z</time>
      </trkpt>
      <trkpt lat="47.49701" lon="6.75631">
        <ele>327</ele>
        <time>2016-07-28T14:40:32.000Z</time>
      </trkpt>
      <trkpt lat="47.49697" lon="6.75632">
        <ele>327</ele>
        <time>2016-07-28T14:40:33.000Z</time>
      </trkpt>
      <trkpt lat="47.49692" lon="6.75635">
        <ele>327</ele>
        <time>2016-07-28T14:40:34.000Z</time>
      </trkpt>
      <trkpt lat="47.49687" lon="6.75637">
        <ele>327</ele>
        <time>2016-07-28T14:40:35.000Z</time>
      </trkpt>
      <trkpt lat="47.49682" lon="6.75639">
        <ele>327</ele>
        <time>2016-07-28T14:40:36.000Z</time>
      </trkpt>
      <trkpt lat="47.49677" lon="6.75641">
        <ele>327</ele>
        <time>2016-07-28T14:40:37.000Z</time>
      </trkpt>
      <trkpt lat="47.49672" lon="6.75643">
        <ele>327</ele>
        <time>2016-07-28T14:40:38.000Z</time>
      </trkpt>
      <trkpt lat="47.49667" lon="6.75645">
        <ele>324</ele>
        <time>2016-07-28T14:40:39.000Z</time>
      </trkpt>
      <trkpt lat="47.49662" lon="6.75649">
        <ele>324</ele>
        <time>2016-07-28T14:40:40.000Z</time>
      </trkpt>
      <trkpt lat="47.49657" lon="6.75652">
        <ele>324</ele>
        <time>2016-07-28T14:40:41.000Z</time>
      </trkpt>
      <trkpt lat="47.49651" lon="6.75655">
        <ele>324</ele>
        <time>2016-07-28T14:40:42.000Z</time>
      </trkpt>
      <trkpt lat="47.49646" lon="6.75657">
        <ele>324</ele>
        <time>2016-07-28T14:40:43.000Z</time>
      </trkpt>
      <trkpt lat="47.49641" lon="6.7566">
        <ele>323</ele>
        <time>2016-07-28T14:40:44.000Z</time>
      </trkpt>
      <trkpt lat="47.49635" lon="6.75663">
        <ele>323</ele>
        <time>2016-07-28T14:40:45.000Z</time>
      </trkpt>
      <trkpt lat="47.4963" lon="6.75667">
        <ele>329</ele>
        <time>2016-07-28T14:40:46.000Z</time>
      </trkpt>
      <trkpt lat="47.49625" lon="6.75671">
        <ele>329</ele>
        <time>2016-07-28T14:40:47.000Z</time>
      </trkpt>
      <trkpt lat="47.49621" lon="6.75675">
        <ele>329</ele>
        <time>2016-07-28T14:40:48.000Z</time>
      </trkpt>
      <trkpt lat="47.49616" lon="6.75679">
        <ele>329</ele>
        <time>2016-07-28T14:40:49.000Z</time>
      </trkpt>
      <trkpt lat="47.49611" lon="6.75683">
        <ele>328</ele>
        <time>2016-07-28T14:40:50.000Z</time>
      </trkpt>
      <trkpt lat="47.49607" lon="6.75688">
        <ele>329</ele>
        <time>2016-07-28T14:40:51.000Z</time>
      </trkpt>
      <trkpt lat="47.49603" lon="6.75692">
        <ele>329</ele>
        <time>2016-07-28T14:40:52.000Z</time>
      </trkpt>
      <trkpt lat="47.49599" lon="6.75697">
        <ele>329</ele>
        <time>2016-07-28T14:40:53.000Z</time>
      </trkpt>
      <trkpt lat="47.49596" lon="6.75701">
        <ele>329</ele>
        <time>2016-07-28T14:40:54.000Z</time>
      </trkpt>
      <trkpt lat="47.49593" lon="6.75706">
        <ele>330</ele>
        <time>2016-07-28T14:40:55.000Z</time>
      </trkpt>
      <trkpt lat="47.49589" lon="6.7571">
        <ele>330</ele>
        <time>2016-07-28T14:40:56.000Z</time>
      </trkpt>
      <trkpt lat="47.49586" lon="6.75714">
        <ele>331</ele>
        <time>2016-07-28T14:40:57.000Z</time>
      </trkpt>
      <trkpt lat="47.49583" lon="6.75718">
        <ele>331</ele>
        <time>2016-07-28T14:40:58.000Z</time>
      </trkpt>
      <trkpt lat="47.4958" lon="6.75722">
        <ele>328</ele>
        <time>2016-07-28T14:40:59.000Z</time>
      </trkpt>
      <trkpt lat="47.49578" lon="6.75725">
        <ele>328</ele>
        <time>2016-07-28T14:41:00.000Z</time>
      </trkpt>
      <trkpt lat="47.49575" lon="6.75728">
        <ele>328</ele>
        <time>2016-07-28T14:41:01.000Z</time>
      </trkpt>
      <trkpt lat="47.49572" lon="6.75731">
        <ele>328</ele>
        <time>2016-07-28T14:41:02.000Z</time>
      </trkpt>
      <trkpt lat="47.4957" lon="6.75734">
        <ele>329</ele>
        <time>2016-07-28T14:41:03.000Z</time>
      </trkpt>
      <trkpt lat="47.49567" lon="6.75737">
        <ele>329</ele>
        <time>2016-07-28T14:41:04.000Z</time>
      </trkpt>
      <trkpt lat="47.49565" lon="6.75739">
        <ele>329</ele>
        <time>2016-07-28T14:41:05.000Z</time>
      </trkpt>
      <trkpt lat="47.49563" lon="6.75741">
        <ele>328</ele>
        <time>2016-07-28T14:41:06.000Z</time>
      </trkpt>
      <trkpt lat="47.4956" lon="6.75743">
        <ele>328</ele>
        <time>2016-07-28T14:41:07.000Z</time>
      </trkpt>
      <trkpt lat="47.49557" lon="6.75745">
        <ele>328</ele>
        <time>2016-07-28T14:41:09.000Z</time>
      </trkpt>
      <trkpt lat="47.49555" lon="6.75747">
        <ele>328</ele>
        <time>2016-07-28T14:41:10.000Z</time>
      </trkpt>
      <trkpt lat="47.49552" lon="6.7575">
        <ele>334</ele>
        <time>2016-07-28T14:41:12.000Z</time>
      </trkpt>
      <trkpt lat="47.49551" lon="6.75752">
        <ele>334</ele>
        <time>2016-07-28T14:41:13.000Z</time>
      </trkpt>
      <trkpt lat="47.49549" lon="6.75758">
        <ele>334</ele>
        <time>2016-07-28T14:41:16.000Z</time>
      </trkpt>
      <trkpt lat="47.4955" lon="6.75759">
        <ele>334</ele>
        <time>2016-07-28T14:41:17.000Z</time>
      </trkpt>
      <trkpt lat="47.49553" lon="6.75763">
        <ele>335</ele>
        <time>2016-07-28T14:41:19.000Z</time>
      </trkpt>
      <trkpt lat="47.49555" lon="6.75765">
        <ele>335</ele>
        <time>2016-07-28T14:41:20.000Z</time>
      </trkpt>
      <trkpt lat="47.49559" lon="6.75768">
        <ele>335</ele>
        <time>2016-07-28T14:41:22.000Z</time>
      </trkpt>
      <trkpt lat="47.4956" lon="6.75769">
        <ele>335</ele>
        <time>2016-07-28T14:41:23.000Z</time>
      </trkpt>
      <trkpt lat="47.49563" lon="6.75768">
        <ele>335</ele>
        <time>2016-07-28T14:42:00.000Z</time>
      </trkpt>
      <trkpt lat="47.49565" lon="6.75769">
        <ele>335</ele>
        <time>2016-07-28T14:42:01.000Z</time>
      </trkpt>
      <trkpt lat="47.49568" lon="6.7577">
        <ele>336</ele>
        <time>2016-07-28T14:42:04.000Z</time>
      </trkpt>
      <trkpt lat="47.49569" lon="6.7577">
        <ele>336</ele>
        <time>2016-07-28T14:42:05.000Z</time>
      </trkpt>
      <trkpt lat="47.49573" lon="6.75771">
        <ele>336</ele>
        <time>2016-07-28T14:42:08.000Z</time>
      </trkpt>
      <trkpt lat="47.49575" lon="6.7577">
        <ele>336</ele>
        <time>2016-07-28T14:42:09.000Z</time>
      </trkpt>
      <trkpt lat="47.49579" lon="6.7577">
        <ele>336</ele>
        <time>2016-07-28T14:42:11.000Z</time>
      </trkpt>
      <trkpt lat="47.4958" lon="6.7577">
        <ele>336</ele>
        <time>2016-07-28T14:42:12.000Z</time>
      </trkpt>
      <trkpt lat="47.49585" lon="6.75769">
        <ele>340</ele>
        <time>2016-07-28T14:42:16.000Z</time>
      </trkpt>
      <trkpt lat="47.49586" lon="6.75769">
        <ele>341</ele>
        <time>2016-07-28T14:42:17.000Z</time>
      </trkpt>
      <trkpt lat="47.49589" lon="6.75766">
        <ele>340</ele>
        <time>2016-07-28T14:42:20.000Z</time>
      </trkpt>
      <trkpt lat="47.4959" lon="6.75765">
        <ele>340</ele>
        <time>2016-07-28T14:42:21.000Z</time>
      </trkpt>
      <trkpt lat="47.49593" lon="6.75765">
        <ele>340</ele>
        <time>2016-07-28T14:42:23.000Z</time>
      </trkpt>
      <trkpt lat="47.49595" lon="6.75766">
        <ele>341</ele>
        <time>2016-07-28T14:42:24.000Z</time>
      </trkpt>
      <trkpt lat="47.49598" lon="6.75766">
        <ele>341</ele>
        <time>2016-07-28T14:42:26.000Z</time>
      </trkpt>
      <trkpt lat="47.496" lon="6.75766">
        <ele>341</ele>
        <time>2016-07-28T14:42:27.000Z</time>
      </trkpt>
      <trkpt lat="47.49603" lon="6.75765">
        <ele>342</ele>
        <time>2016-07-28T14:42:29.000Z</time>
      </trkpt>
      <trkpt lat="47.49604" lon="6.75765">
        <ele>342</ele>
        <time>2016-07-28T14:42:30.000Z</time>
      </trkpt>
      <trkpt lat="47.49609" lon="6.75764">
        <ele>342</ele>
        <time>2016-07-28T14:42:35.000Z</time>
      </trkpt>
      <trkpt lat="47.4961" lon="6.75764">
        <ele>343</ele>
        <time>2016-07-28T14:42:36.000Z</time>
      </trkpt>
      <trkpt lat="47.49614" lon="6.75763">
        <ele>343</ele>
        <time>2016-07-28T14:42:39.000Z</time>
      </trkpt>
      <trkpt lat="47.49615" lon="6.75763">
        <ele>343</ele>
        <time>2016-07-28T14:42:40.000Z</time>
      </trkpt>
      <trkpt lat="47.4962" lon="6.75764">
        <ele>344</ele>
        <time>2016-07-28T14:42:43.000Z</time>
      </trkpt>
      <trkpt lat="47.49621" lon="6.75764">
        <ele>344</ele>
        <time>2016-07-28T14:42:44.000Z</time>
      </trkpt>
      <trkpt lat="47.49625" lon="6.75762">
        <ele>344</ele>
        <time>2016-07-28T14:42:47.000Z</time>
      </trkpt>
      <trkpt lat="47.49626" lon="6.75761">
        <ele>344</ele>
        <time>2016-07-28T14:42:48.000Z</time>
      </trkpt>
      <trkpt lat="47.4963" lon="6.75758">
        <ele>344</ele>
        <time>2016-07-28T14:42:50.000Z</time>
      </trkpt>
      <trkpt lat="47.49631" lon="6.75757">
        <ele>344</ele>
        <time>2016-07-28T14:42:51.000Z</time>
      </trkpt>
      <trkpt lat="47.49635" lon="6.75755">
        <ele>344</ele>
        <time>2016-07-28T14:42:53.000Z</time>
      </trkpt>
      <trkpt lat="47.49636" lon="6.75754">
        <ele>344</ele>
        <time>2016-07-28T14:42:54.000Z</time>
      </trkpt>
      <trkpt lat="47.4964" lon="6.75753">
        <ele>344</ele>
        <time>2016-07-28T14:42:56.000Z</time>
      </trkpt>
      <trkpt lat="47.49641" lon="6.75752">
        <ele>345</ele>
        <time>2016-07-28T14:42:57.000Z</time>
      </trkpt>
      <trkpt lat="47.49644" lon="6.75751">
        <ele>345</ele>
        <time>2016-07-28T14:42:59.000Z</time>
      </trkpt>
      <trkpt lat="47.49646" lon="6.75752">
        <ele>345</ele>
        <time>2016-07-28T14:43:00.000Z</time>
      </trkpt>
      <trkpt lat="47.4965" lon="6.75753">
        <ele>345</ele>
        <time>2016-07-28T14:43:02.000Z</time>
      </trkpt>
      <trkpt lat="47.49652" lon="6.75753">
        <ele>345</ele>
        <time>2016-07-28T14:43:03.000Z</time>
      </trkpt>
      <trkpt lat="47.49656" lon="6.75754">
        <ele>345</ele>
        <time>2016-07-28T14:43:05.000Z</time>
      </trkpt>
      <trkpt lat="47.49658" lon="6.75754">
        <ele>345</ele>
        <time>2016-07-28T14:43:06.000Z</time>
      </trkpt>
      <trkpt lat="47.49661" lon="6.75755">
        <ele>345</ele>
        <time>2016-07-28T14:43:07.000Z</time>
      </trkpt>
      <trkpt lat="47.49663" lon="6.75755">
        <ele>344</ele>
        <time>2016-07-28T14:43:08.000Z</time>
      </trkpt>
      <trkpt lat="47.49667" lon="6.75754">
        <ele>346</ele>
        <time>2016-07-28T14:43:10.000Z</time>
      </trkpt>
      <trkpt lat="47.4967" lon="6.75754">
        <ele>346</ele>
        <time>2016-07-28T14:43:11.000Z</time>
      </trkpt>
      <trkpt lat="47.49672" lon="6.75754">
        <ele>346</ele>
        <time>2016-07-28T14:43:12.000Z</time>
      </trkpt>
      <trkpt lat="47.49674" lon="6.75754">
        <ele>347</ele>
        <time>2016-07-28T14:43:13.000Z</time>
      </trkpt>
      <trkpt lat="47.49677" lon="6.75754">
        <ele>348</ele>
        <time>2016-07-28T14:43:14.000Z</time>
      </trkpt>
      <trkpt lat="47.49679" lon="6.75754">
        <ele>348</ele>
        <time>2016-07-28T14:43:15.000Z</time>
      </trkpt>
      <trkpt lat="47.49682" lon="6.75754">
        <ele>349</ele>
        <time>2016-07-28T14:43:16.000Z</time>
      </trkpt>
      <trkpt lat="47.49684" lon="6.75754">
        <ele>349</ele>
        <time>2016-07-28T14:43:17.000Z</time>
      </trkpt>
      <trkpt lat="47.49687" lon="6.75754">
        <ele>350</ele>
        <time>2016-07-28T14:43:18.000Z</time>
      </trkpt>
      <trkpt lat="47.4969" lon="6.75754">
        <ele>350</ele>
        <time>2016-07-28T14:43:19.000Z</time>
      </trkpt>
      <trkpt lat="47.49693" lon="6.75754">
        <ele>351</ele>
        <time>2016-07-28T14:43:20.000Z</time>
      </trkpt>
      <trkpt lat="47.49695" lon="6.75754">
        <ele>351</ele>
        <time>2016-07-28T14:43:21.000Z</time>
      </trkpt>
      <trkpt lat="47.49698" lon="6.75753">
        <ele>351</ele>
        <time>2016-07-28T14:43:22.000Z</time>
      </trkpt>
      <trkpt lat="47.49701" lon="6.75752">
        <ele>351</ele>
        <time>2016-07-28T14:43:23.000Z</time>
      </trkpt>
      <trkpt lat="47.49703" lon="6.75751">
        <ele>352</ele>
        <time>2016-07-28T14:43:24.000Z</time>
      </trkpt>
      <trkpt lat="47.49706" lon="6.75751">
        <ele>352</ele>
        <time>2016-07-28T14:43:25.000Z</time>
      </trkpt>
      <trkpt lat="47.49708" lon="6.7575">
        <ele>343</ele>
        <time>2016-07-28T14:43:26.000Z</time>
      </trkpt>
      <trkpt lat="47.49711" lon="6.75749">
        <ele>343</ele>
        <time>2016-07-28T14:43:27.000Z</time>
      </trkpt>
      <trkpt lat="47.49714" lon="6.75748">
        <ele>343</ele>
        <time>2016-07-28T14:43:28.000Z</time>
      </trkpt>
      <trkpt lat="47.49716" lon="6.75748">
        <ele>343</ele>
        <time>2016-07-28T14:43:29.000Z</time>
      </trkpt>
      <trkpt lat="47.49719" lon="6.75747">
        <ele>344</ele>
        <time>2016-07-28T14:43:30.000Z</time>
      </trkpt>
      <trkpt lat="47.49721" lon="6.75747">
        <ele>344</ele>
        <time>2016-07-28T14:43:31.000Z</time>
      </trkpt>
      <trkpt lat="47.49724" lon="6.75747">
        <ele>344</ele>
        <time>2016-07-28T14:43:32.000Z</time>
      </trkpt>
      <trkpt lat="47.49726" lon="6.75746">
        <ele>345</ele>
        <time>2016-07-28T14:43:33.000Z</time>
      </trkpt>
      <trkpt lat="47.49729" lon="6.75745">
        <ele>345</ele>
        <time>2016-07-28T14:43:34.000Z</time>
      </trkpt>
      <trkpt lat="47.49731" lon="6.75744">
        <ele>345</ele>
        <time>2016-07-28T14:43:35.000Z</time>
      </trkpt>
      <trkpt lat="47.49733" lon="6.75743">
        <ele>346</ele>
        <time>2016-07-28T14:43:36.000Z</time>
      </trkpt>
      <trkpt lat="47.49736" lon="6.75742">
        <ele>346</ele>
        <time>2016-07-28T14:43:37.000Z</time>
      </trkpt>
      <trkpt lat="47.49738" lon="6.75741">
        <ele>346</ele>
        <time>2016-07-28T14:43:38.000Z</time>
      </trkpt>
      <trkpt lat="47.49741" lon="6.75739">
        <ele>346</ele>
        <time>2016-07-28T14:43:39.000Z</time>
      </trkpt>
      <trkpt lat="47.49744" lon="6.75738">
        <ele>346</ele>
        <time>2016-07-28T14:43:40.000Z</time>
      </trkpt>
      <trkpt lat="47.49747" lon="6.75737">
        <ele>347</ele>
        <time>2016-07-28T14:43:41.000Z</time>
      </trkpt>
      <trkpt lat="47.49749" lon="6.75737">
        <ele>347</ele>
        <time>2016-07-28T14:43:42.000Z</time>
      </trkpt>
      <trkpt lat="47.49752" lon="6.75737">
        <ele>350</ele>
        <time>2016-07-28T14:43:43.000Z</time>
      </trkpt>
      <trkpt lat="47.49756" lon="6.75736">
        <ele>350</ele>
        <time>2016-07-28T14:43:45.000Z</time>
      </trkpt>
      <trkpt lat="47.49758" lon="6.75736">
        <ele>350</ele>
        <time>2016-07-28T14:43:46.000Z</time>
      </trkpt>
      <trkpt lat="47.49762" lon="6.75735">
        <ele>350</ele>
        <time>2016-07-28T14:43:48.000Z</time>
      </trkpt>
      <trkpt lat="47.49764" lon="6.75734">
        <ele>350</ele>
        <time>2016-07-28T14:43:49.000Z</time>
      </trkpt>
      <trkpt lat="47.49766" lon="6.75734">
        <ele>350</ele>
        <time>2016-07-28T14:43:50.000Z</time>
      </trkpt>
      <trkpt lat="47.49768" lon="6.75733">
        <ele>351</ele>
        <time>2016-07-28T14:43:51.000Z</time>
      </trkpt>
      <trkpt lat="47.4977" lon="6.75733">
        <ele>351</ele>
        <time>2016-07-28T14:43:52.000Z</time>
      </trkpt>
      <trkpt lat="47.49773" lon="6.75732">
        <ele>351</ele>
        <time>2016-07-28T14:43:53.000Z</time>
      </trkpt>
      <trkpt lat="47.49777" lon="6.75731">
        <ele>351</ele>
        <time>2016-07-28T14:43:55.000Z</time>
      </trkpt>
      <trkpt lat="47.49779" lon="6.75731">
        <ele>351</ele>
        <time>2016-07-28T14:43:56.000Z</time>
      </trkpt>
      <trkpt lat="47.49782" lon="6.75728">
        <ele>351</ele>
        <time>2016-07-28T14:43:58.000Z</time>
      </trkpt>
      <trkpt lat="47.49784" lon="6.75727">
        <ele>351</ele>
        <time>2016-07-28T14:43:59.000Z</time>
      </trkpt>
      <trkpt lat="47.49787" lon="6.75725">
        <ele>351</ele>
        <time>2016-07-28T14:44:01.000Z</time>
      </trkpt>
      <trkpt lat="47.49788" lon="6.75724">
        <ele>351</ele>
        <time>2016-07-28T14:44:02.000Z</time>
      </trkpt>
      <trkpt lat="47.49791" lon="6.75722">
        <ele>351</ele>
        <time>2016-07-28T14:44:04.000Z</time>
      </trkpt>
      <trkpt lat="47.49793" lon="6.75721">
        <ele>351</ele>
        <time>2016-07-28T14:44:05.000Z</time>
      </trkpt>
      <trkpt lat="47.49796" lon="6.75721">
        <ele>351</ele>
        <time>2016-07-28T14:44:07.000Z</time>
      </trkpt>
      <trkpt lat="47.49798" lon="6.75721">
        <ele>352</ele>
        <time>2016-07-28T14:44:08.000Z</time>
      </trkpt>
      <trkpt lat="47.49802" lon="6.75718">
        <ele>352</ele>
        <time>2016-07-28T14:44:10.000Z</time>
      </trkpt>
      <trkpt lat="47.49804" lon="6.75717">
        <ele>352</ele>
        <time>2016-07-28T14:44:11.000Z</time>
      </trkpt>
      <trkpt lat="47.49806" lon="6.75715">
        <ele>352</ele>
        <time>2016-07-28T14:44:12.000Z</time>
      </trkpt>
      <trkpt lat="47.49809" lon="6.75714">
        <ele>352</ele>
        <time>2016-07-28T14:44:13.000Z</time>
      </trkpt>
      <trkpt lat="47.49811" lon="6.75712">
        <ele>352</ele>
        <time>2016-07-28T14:44:14.000Z</time>
      </trkpt>
      <trkpt lat="47.49813" lon="6.75711">
        <ele>352</ele>
        <time>2016-07-28T14:44:15.000Z</time>
      </trkpt>
      <trkpt lat="47.49815" lon="6.7571">
        <ele>352</ele>
        <time>2016-07-28T14:44:16.000Z</time>
      </trkpt>
      <trkpt lat="47.49818" lon="6.75709">
        <ele>352</ele>
        <time>2016-07-28T14:44:17.000Z</time>
      </trkpt>
      <trkpt lat="47.49822" lon="6.75708">
        <ele>352</ele>
        <time>2016-07-28T14:44:19.000Z</time>
      </trkpt>
      <trkpt lat="47.49824" lon="6.75708">
        <ele>352</ele>
        <time>2016-07-28T14:44:20.000Z</time>
      </trkpt>
      <trkpt lat="47.49826" lon="6.75708">
        <ele>353</ele>
        <time>2016-07-28T14:44:21.000Z</time>
      </trkpt>
      <trkpt lat="47.49829" lon="6.75708">
        <ele>353</ele>
        <time>2016-07-28T14:44:22.000Z</time>
      </trkpt>
      <trkpt lat="47.49832" lon="6.75708">
        <ele>353</ele>
        <time>2016-07-28T14:44:24.000Z</time>
      </trkpt>
      <trkpt lat="47.49833" lon="6.75708">
        <ele>360</ele>
        <time>2016-07-28T14:44:25.000Z</time>
      </trkpt>
      <trkpt lat="47.49838" lon="6.75707">
        <ele>360</ele>
        <time>2016-07-28T14:44:28.000Z</time>
      </trkpt>
      <trkpt lat="47.4984" lon="6.75708">
        <ele>360</ele>
        <time>2016-07-28T14:44:29.000Z</time>
      </trkpt>
      <trkpt lat="47.49843" lon="6.75708">
        <ele>361</ele>
        <time>2016-07-28T14:44:31.000Z</time>
      </trkpt>
      <trkpt lat="47.49845" lon="6.75707">
        <ele>361</ele>
        <time>2016-07-28T14:44:32.000Z</time>
      </trkpt>
      <trkpt lat="47.49848" lon="6.75706">
        <ele>361</ele>
        <time>2016-07-28T14:44:34.000Z</time>
      </trkpt>
      <trkpt lat="47.4985" lon="6.75707">
        <ele>361</ele>
        <time>2016-07-28T14:44:35.000Z</time>
      </trkpt>
      <trkpt lat="47.49853" lon="6.75708">
        <ele>361</ele>
        <time>2016-07-28T14:44:37.000Z</time>
      </trkpt>
      <trkpt lat="47.49854" lon="6.75708">
        <ele>361</ele>
        <time>2016-07-28T14:44:38.000Z</time>
      </trkpt>
      <trkpt lat="47.49857" lon="6.75708">
        <ele>361</ele>
        <time>2016-07-28T14:44:40.000Z</time>
      </trkpt>
      <trkpt lat="47.49859" lon="6.75707">
        <ele>361</ele>
        <time>2016-07-28T14:44:41.000Z</time>
      </trkpt>
      <trkpt lat="47.49862" lon="6.75707">
        <ele>362</ele>
        <time>2016-07-28T14:44:43.000Z</time>
      </trkpt>
      <trkpt lat="47.49864" lon="6.75706">
        <ele>362</ele>
        <time>2016-07-28T14:44:44.000Z</time>
      </trkpt>
      <trkpt lat="47.49867" lon="6.75704">
        <ele>362</ele>
        <time>2016-07-28T14:44:46.000Z</time>
      </trkpt>
      <trkpt lat="47.49869" lon="6.75702">
        <ele>362</ele>
        <time>2016-07-28T14:44:47.000Z</time>
      </trkpt>
      <trkpt lat="47.49872" lon="6.757">
        <ele>362</ele>
        <time>2016-07-28T14:44:49.000Z</time>
      </trkpt>
      <trkpt lat="47.49874" lon="6.75699">
        <ele>362</ele>
        <time>2016-07-28T14:44:50.000Z</time>
      </trkpt>
      <trkpt lat="47.49878" lon="6.75699">
        <ele>363</ele>
        <time>2016-07-28T14:44:52.000Z</time>
      </trkpt>
      <trkpt lat="47.4988" lon="6.75699">
        <ele>363</ele>
        <time>2016-07-28T14:44:53.000Z</time>
      </trkpt>
      <trkpt lat="47.49884" lon="6.75698">
        <ele>363</ele>
        <time>2016-07-28T14:44:55.000Z</time>
      </trkpt>
      <trkpt lat="47.49885" lon="6.75698">
        <ele>363</ele>
        <time>2016-07-28T14:44:56.000Z</time>
      </trkpt>
      <trkpt lat="47.4989" lon="6.75699">
        <ele>363</ele>
        <time>2016-07-28T14:44:59.000Z</time>
      </trkpt>
      <trkpt lat="47.49891" lon="6.75699">
        <ele>364</ele>
        <time>2016-07-28T14:45:00.000Z</time>
      </trkpt>
      <trkpt lat="47.49895" lon="6.757">
        <ele>364</ele>
        <time>2016-07-28T14:45:02.000Z</time>
      </trkpt>
      <trkpt lat="47.49897" lon="6.757">
        <ele>364</ele>
        <time>2016-07-28T14:45:03.000Z</time>
      </trkpt>
      <trkpt lat="47.49901" lon="6.757">
        <ele>364</ele>
        <time>2016-07-28T14:45:05.000Z</time>
      </trkpt>
      <trkpt lat="47.49903" lon="6.757">
        <ele>364</ele>
        <time>2016-07-28T14:45:06.000Z</time>
      </trkpt>
      <trkpt lat="47.49906" lon="6.75701">
        <ele>364</ele>
        <time>2016-07-28T14:45:08.000Z</time>
      </trkpt>
      <trkpt lat="47.49908" lon="6.75701">
        <ele>364</ele>
        <time>2016-07-28T14:45:09.000Z</time>
      </trkpt>
      <trkpt lat="47.49911" lon="6.75702">
        <ele>365</ele>
        <time>2016-07-28T14:45:11.000Z</time>
      </trkpt>
      <trkpt lat="47.49913" lon="6.75703">
        <ele>365</ele>
        <time>2016-07-28T14:45:12.000Z</time>
      </trkpt>
      <trkpt lat="47.49916" lon="6.75706">
        <ele>365</ele>
        <time>2016-07-28T14:45:14.000Z</time>
      </trkpt>
      <trkpt lat="47.49917" lon="6.75706">
        <ele>370</ele>
        <time>2016-07-28T14:45:15.000Z</time>
      </trkpt>
      <trkpt lat="47.49922" lon="6.75706">
        <ele>370</ele>
        <time>2016-07-28T14:45:19.000Z</time>
      </trkpt>
      <trkpt lat="47.49922" lon="6.75706">
        <ele>370</ele>
        <time>2016-07-28T14:45:20.000Z</time>
      </trkpt>
      <trkpt lat="47.49925" lon="6.75708">
        <ele>370</ele>
        <time>2016-07-28T14:45:23.000Z</time>
      </trkpt>
      <trkpt lat="47.49926" lon="6.75708">
        <ele>370</ele>
        <time>2016-07-28T14:45:24.000Z</time>
      </trkpt>
      <trkpt lat="47.49929" lon="6.75712">
        <ele>370</ele>
        <time>2016-07-28T14:45:27.000Z</time>
      </trkpt>
      <trkpt lat="47.4993" lon="6.75714">
        <ele>370</ele>
        <time>2016-07-28T14:45:28.000Z</time>
      </trkpt>
      <trkpt lat="47.49933" lon="6.75719">
        <ele>370</ele>
        <time>2016-07-28T14:45:31.000Z</time>
      </trkpt>
      <trkpt lat="47.49934" lon="6.75719">
        <ele>370</ele>
        <time>2016-07-28T14:45:32.000Z</time>
      </trkpt>
      <trkpt lat="47.49938" lon="6.75722">
        <ele>370</ele>
        <time>2016-07-28T14:45:35.000Z</time>
      </trkpt>
      <trkpt lat="47.4994" lon="6.75724">
        <ele>370</ele>
        <time>2016-07-28T14:45:36.000Z</time>
      </trkpt>
      <trkpt lat="47.49942" lon="6.75727">
        <ele>370</ele>
        <time>2016-07-28T14:45:38.000Z</time>
      </trkpt>
      <trkpt lat="47.49944" lon="6.75728">
        <ele>370</ele>
        <time>2016-07-28T14:45:39.000Z</time>
      </trkpt>
      <trkpt lat="47.49947" lon="6.7573">
        <ele>370</ele>
        <time>2016-07-28T14:45:41.000Z</time>
      </trkpt>
      <trkpt lat="47.49949" lon="6.75731">
        <ele>371</ele>
        <time>2016-07-28T14:45:42.000Z</time>
      </trkpt>
      <trkpt lat="47.49951" lon="6.75734">
        <ele>371</ele>
        <time>2016-07-28T14:45:44.000Z</time>
      </trkpt>
      <trkpt lat="47.49952" lon="6.75736">
        <ele>371</ele>
        <time>2016-07-28T14:45:45.000Z</time>
      </trkpt>
      <trkpt lat="47.49955" lon="6.75739">
        <ele>371</ele>
        <time>2016-07-28T14:45:47.000Z</time>
      </trkpt>
      <trkpt lat="47.49956" lon="6.75741">
        <ele>371</ele>
        <time>2016-07-28T14:45:48.000Z</time>
      </trkpt>
      <trkpt lat="47.49959" lon="6.75744">
        <ele>371</ele>
        <time>2016-07-28T14:45:50.000Z</time>
      </trkpt>
      <trkpt lat="47.4996" lon="6.75746">
        <ele>371</ele>
        <time>2016-07-28T14:45:51.000Z</time>
      </trkpt>
      <trkpt lat="47.49962" lon="6.75751">
        <ele>374</ele>
        <time>2016-07-28T14:45:53.000Z</time>
      </trkpt>
      <trkpt lat="47.49963" lon="6.75754">
        <ele>374</ele>
        <time>2016-07-28T14:45:54.000Z</time>
      </trkpt>
      <trkpt lat="47.49966" lon="6.75758">
        <ele>374</ele>
        <time>2016-07-28T14:45:56.000Z</time>
      </trkpt>
      <trkpt lat="47.49968" lon="6.7576">
        <ele>374</ele>
        <time>2016-07-28T14:45:57.000Z</time>
      </trkpt>
      <trkpt lat="47.4997" lon="6.75762">
        <ele>374</ele>
        <time>2016-07-28T14:45:58.000Z</time>
      </trkpt>
      <trkpt lat="47.49971" lon="6.75764">
        <ele>374</ele>
        <time>2016-07-28T14:45:59.000Z</time>
      </trkpt>
      <trkpt lat="47.49974" lon="6.75769">
        <ele>374</ele>
        <time>2016-07-28T14:46:01.000Z</time>
      </trkpt>
      <trkpt lat="47.49976" lon="6.75771">
        <ele>375</ele>
        <time>2016-07-28T14:46:02.000Z</time>
      </trkpt>
      <trkpt lat="47.49979" lon="6.75774">
        <ele>375</ele>
        <time>2016-07-28T14:46:04.000Z</time>
      </trkpt>
      <trkpt lat="47.4998" lon="6.75776">
        <ele>375</ele>
        <time>2016-07-28T14:46:05.000Z</time>
      </trkpt>
      <trkpt lat="47.49982" lon="6.75779">
        <ele>375</ele>
        <time>2016-07-28T14:46:07.000Z</time>
      </trkpt>
      <trkpt lat="47.49983" lon="6.75781">
        <ele>375</ele>
        <time>2016-07-28T14:46:08.000Z</time>
      </trkpt>
      <trkpt lat="47.49985" lon="6.75783">
        <ele>375</ele>
        <time>2016-07-28T14:46:10.000Z</time>
      </trkpt>
      <trkpt lat="47.49987" lon="6.75785">
        <ele>375</ele>
        <time>2016-07-28T14:46:11.000Z</time>
      </trkpt>
      <trkpt lat="47.4999" lon="6.75789">
        <ele>375</ele>
        <time>2016-07-28T14:46:13.000Z</time>
      </trkpt>
      <trkpt lat="47.49992" lon="6.75791">
        <ele>375</ele>
        <time>2016-07-28T14:46:14.000Z</time>
      </trkpt>
      <trkpt lat="47.49994" lon="6.75795">
        <ele>375</ele>
        <time>2016-07-28T14:46:15.000Z</time>
      </trkpt>
      <trkpt lat="47.49995" lon="6.75799">
        <ele>375</ele>
        <time>2016-07-28T14:46:16.000Z</time>
      </trkpt>
      <trkpt lat="47.49997" lon="6.75802">
        <ele>376</ele>
        <time>2016-07-28T14:46:17.000Z</time>
      </trkpt>
      <trkpt lat="47.49998" lon="6.75805">
        <ele>376</ele>
        <time>2016-07-28T14:46:18.000Z</time>
      </trkpt>
      <trkpt lat="47.5" lon="6.75808">
        <ele>376</ele>
        <time>2016-07-28T14:46:19.000Z</time>
      </trkpt>
      <trkpt lat="47.50001" lon="6.75811">
        <ele>376</ele>
        <time>2016-07-28T14:46:20.000Z</time>
      </trkpt>
      <trkpt lat="47.50002" lon="6.75814">
        <ele>377</ele>
        <time>2016-07-28T14:46:21.000Z</time>
      </trkpt>
      <trkpt lat="47.50004" lon="6.75817">
        <ele>377</ele>
        <time>2016-07-28T14:46:22.000Z</time>
      </trkpt>
      <trkpt lat="47.50005" lon="6.7582">
        <ele>377</ele>
        <time>2016-07-28T14:46:23.000Z</time>
      </trkpt>
      <trkpt lat="47.50006" lon="6.75823">
        <ele>377</ele>
        <time>2016-07-28T14:46:24.000Z</time>
      </trkpt>
      <trkpt lat="47.50008" lon="6.75826">
        <ele>377</ele>
        <time>2016-07-28T14:46:25.000Z</time>
      </trkpt>
      <trkpt lat="47.5001" lon="6.75829">
        <ele>377</ele>
        <time>2016-07-28T14:46:26.000Z</time>
      </trkpt>
      <trkpt lat="47.50013" lon="6.75833">
        <ele>377</ele>
        <time>2016-07-28T14:46:27.000Z</time>
      </trkpt>
      <trkpt lat="47.50015" lon="6.75836">
        <ele>378</ele>
        <time>2016-07-28T14:46:28.000Z</time>
      </trkpt>
      <trkpt lat="47.50017" lon="6.75839">
        <ele>377</ele>
        <time>2016-07-28T14:46:29.000Z</time>
      </trkpt>
      <trkpt lat="47.50018" lon="6.75841">
        <ele>377</ele>
        <time>2016-07-28T14:46:30.000Z</time>
      </trkpt>
      <trkpt lat="47.5002" lon="6.75846">
        <ele>377</ele>
        <time>2016-07-28T14:46:32.000Z</time>
      </trkpt>
      <trkpt lat="47.50021" lon="6.75848">
        <ele>377</ele>
        <time>2016-07-28T14:46:33.000Z</time>
      </trkpt>
      <trkpt lat="47.50024" lon="6.75851">
        <ele>377</ele>
        <time>2016-07-28T14:46:35.000Z</time>
      </trkpt>
      <trkpt lat="47.50026" lon="6.75852">
        <ele>377</ele>
        <time>2016-07-28T14:46:36.000Z</time>
      </trkpt>
      <trkpt lat="47.50029" lon="6.75855">
        <ele>377</ele>
        <time>2016-07-28T14:46:38.000Z</time>
      </trkpt>
      <trkpt lat="47.50031" lon="6.75857">
        <ele>376</ele>
        <time>2016-07-28T14:46:39.000Z</time>
      </trkpt>
      <trkpt lat="47.50034" lon="6.75861">
        <ele>376</ele>
        <time>2016-07-28T14:46:41.000Z</time>
      </trkpt>
      <trkpt lat="47.50035" lon="6.75863">
        <ele>376</ele>
        <time>2016-07-28T14:46:42.000Z</time>
      </trkpt>
      <trkpt lat="47.50039" lon="6.75867">
        <ele>376</ele>
        <time>2016-07-28T14:46:44.000Z</time>
      </trkpt>
      <trkpt lat="47.50041" lon="6.7587">
        <ele>376</ele>
        <time>2016-07-28T14:46:45.000Z</time>
      </trkpt>
      <trkpt lat="47.50043" lon="6.75875">
        <ele>376</ele>
        <time>2016-07-28T14:46:47.000Z</time>
      </trkpt>
      <trkpt lat="47.50045" lon="6.75876">
        <ele>376</ele>
        <time>2016-07-28T14:46:48.000Z</time>
      </trkpt>
      <trkpt lat="47.50047" lon="6.75881">
        <ele>376</ele>
        <time>2016-07-28T14:46:51.000Z</time>
      </trkpt>
      <trkpt lat="47.50048" lon="6.75884">
        <ele>376</ele>
        <time>2016-07-28T14:46:52.000Z</time>
      </trkpt>
      <trkpt lat="47.5005" lon="6.75889">
        <ele>376</ele>
        <time>2016-07-28T14:46:54.000Z</time>
      </trkpt>
      <trkpt lat="47.50052" lon="6.75892">
        <ele>376</ele>
        <time>2016-07-28T14:46:55.000Z</time>
      </trkpt>
      <trkpt lat="47.50053" lon="6.75895">
        <ele>376</ele>
        <time>2016-07-28T14:46:56.000Z</time>
      </trkpt>
      <trkpt lat="47.50055" lon="6.75899">
        <ele>376</ele>
        <time>2016-07-28T14:46:57.000Z</time>
      </trkpt>
      <trkpt lat="47.50057" lon="6.75904">
        <ele>375</ele>
        <time>2016-07-28T14:46:58.000Z</time>
      </trkpt>
      <trkpt lat="47.50059" lon="6.75911">
        <ele>375</ele>
        <time>2016-07-28T14:46:59.000Z</time>
      </trkpt>
      <trkpt lat="47.50061" lon="6.75916">
        <ele>375</ele>
        <time>2016-07-28T14:47:00.000Z</time>
      </trkpt>
      <trkpt lat="47.50063" lon="6.7592">
        <ele>377</ele>
        <time>2016-07-28T14:47:01.000Z</time>
      </trkpt>
      <trkpt lat="47.50067" lon="6.75923">
        <ele>376</ele>
        <time>2016-07-28T14:47:03.000Z</time>
      </trkpt>
      <trkpt lat="47.50069" lon="6.75924">
        <ele>376</ele>
        <time>2016-07-28T14:47:04.000Z</time>
      </trkpt>
      <trkpt lat="47.50073" lon="6.75926">
        <ele>376</ele>
        <time>2016-07-28T14:47:06.000Z</time>
      </trkpt>
      <trkpt lat="47.50075" lon="6.75928">
        <ele>376</ele>
        <time>2016-07-28T14:47:07.000Z</time>
      </trkpt>
      <trkpt lat="47.50078" lon="6.75931">
        <ele>376</ele>
        <time>2016-07-28T14:47:08.000Z</time>
      </trkpt>
      <trkpt lat="47.5008" lon="6.75933">
        <ele>376</ele>
        <time>2016-07-28T14:47:09.000Z</time>
      </trkpt>
      <trkpt lat="47.50083" lon="6.75938">
        <ele>373</ele>
        <time>2016-07-28T14:47:11.000Z</time>
      </trkpt>
      <trkpt lat="47.50084" lon="6.75941">
        <ele>373</ele>
        <time>2016-07-28T14:47:12.000Z</time>
      </trkpt>
      <trkpt lat="47.50084" lon="6.75943">
        <ele>373</ele>
        <time>2016-07-28T14:47:13.000Z</time>
      </trkpt>
      <trkpt lat="47.50085" lon="6.75947">
        <ele>373</ele>
        <time>2016-07-28T14:47:14.000Z</time>
      </trkpt>
      <trkpt lat="47.50086" lon="6.75951">
        <ele>374</ele>
        <time>2016-07-28T14:47:15.000Z</time>
      </trkpt>
      <trkpt lat="47.50087" lon="6.75955">
        <ele>374</ele>
        <time>2016-07-28T14:47:16.000Z</time>
      </trkpt>
      <trkpt lat="47.50088" lon="6.75961">
        <ele>374</ele>
        <time>2016-07-28T14:47:17.000Z</time>
      </trkpt>
      <trkpt lat="47.50088" lon="6.75965">
        <ele>374</ele>
        <time>2016-07-28T14:47:18.000Z</time>
      </trkpt>
      <trkpt lat="47.50089" lon="6.75971">
        <ele>375</ele>
        <time>2016-07-28T14:47:23.000Z</time>
      </trkpt>
      <trkpt lat="47.50089" lon="6.75972">
        <ele>375</ele>
        <time>2016-07-28T14:47:24.000Z</time>
      </trkpt>
      <trkpt lat="47.50093" lon="6.75976">
        <ele>375</ele>
        <time>2016-07-28T14:48:36.000Z</time>
      </trkpt>
      <trkpt lat="47.50093" lon="6.75976">
        <ele>375</ele>
        <time>2016-07-28T14:48:37.000Z</time>
      </trkpt>
      <trkpt lat="47.50094" lon="6.75982">
        <ele>376</ele>
        <time>2016-07-28T14:49:58.000Z</time>
      </trkpt>
      <trkpt lat="47.50095" lon="6.75983">
        <ele>376</ele>
        <time>2016-07-28T14:49:59.000Z</time>
      </trkpt>
      <trkpt lat="47.50097" lon="6.75988">
        <ele>376</ele>
        <time>2016-07-28T14:50:01.000Z</time>
      </trkpt>
      <trkpt lat="47.50098" lon="6.75992">
        <ele>376</ele>
        <time>2016-07-28T14:50:02.000Z</time>
      </trkpt>
      <trkpt lat="47.501" lon="6.75996">
        <ele>376</ele>
        <time>2016-07-28T14:50:03.000Z</time>
      </trkpt>
      <trkpt lat="47.50101" lon="6.76">
        <ele>376</ele>
        <time>2016-07-28T14:50:04.000Z</time>
      </trkpt>
      <trkpt lat="47.50102" lon="6.76004">
        <ele>379</ele>
        <time>2016-07-28T14:50:05.000Z</time>
      </trkpt>
      <trkpt lat="47.50103" lon="6.76007">
        <ele>379</ele>
        <time>2016-07-28T14:50:06.000Z</time>
      </trkpt>
      <trkpt lat="47.50105" lon="6.76012">
        <ele>379</ele>
        <time>2016-07-28T14:50:08.000Z</time>
      </trkpt>
      <trkpt lat="47.50106" lon="6.76016">
        <ele>379</ele>
        <time>2016-07-28T14:50:09.000Z</time>
      </trkpt>
      <trkpt lat="47.50107" lon="6.76019">
        <ele>379</ele>
        <time>2016-07-28T14:50:10.000Z</time>
      </trkpt>
      <trkpt lat="47.50108" lon="6.76022">
        <ele>379</ele>
        <time>2016-07-28T14:50:11.000Z</time>
      </trkpt>
      <trkpt lat="47.50109" lon="6.76027">
        <ele>379</ele>
        <time>2016-07-28T14:50:13.000Z</time>
      </trkpt>
      <trkpt lat="47.5011" lon="6.7603">
        <ele>379</ele>
        <time>2016-07-28T14:50:14.000Z</time>
      </trkpt>
      <trkpt lat="47.50111" lon="6.76033">
        <ele>379</ele>
        <time>2016-07-28T14:50:15.000Z</time>
      </trkpt>
      <trkpt lat="47.50111" lon="6.76036">
        <ele>379</ele>
        <time>2016-07-28T14:50:16.000Z</time>
      </trkpt>
      <trkpt lat="47.50113" lon="6.76042">
        <ele>379</ele>
        <time>2016-07-28T14:50:18.000Z</time>
      </trkpt>
      <trkpt lat="47.50113" lon="6.76045">
        <ele>379</ele>
        <time>2016-07-28T14:50:19.000Z</time>
      </trkpt>
      <trkpt lat="47.50114" lon="6.7605">
        <ele>380</ele>
        <time>2016-07-28T14:50:21.000Z</time>
      </trkpt>
      <trkpt lat="47.50115" lon="6.76053">
        <ele>380</ele>
        <time>2016-07-28T14:50:22.000Z</time>
      </trkpt>
      <trkpt lat="47.50115" lon="6.76057">
        <ele>380</ele>
        <time>2016-07-28T14:50:23.000Z</time>
      </trkpt>
      <trkpt lat="47.50116" lon="6.76061">
        <ele>380</ele>
        <time>2016-07-28T14:50:24.000Z</time>
      </trkpt>
      <trkpt lat="47.50117" lon="6.76065">
        <ele>380</ele>
        <time>2016-07-28T14:50:25.000Z</time>
      </trkpt>
      <trkpt lat="47.50118" lon="6.76069">
        <ele>380</ele>
        <time>2016-07-28T14:50:26.000Z</time>
      </trkpt>
      <trkpt lat="47.50119" lon="6.76072">
        <ele>380</ele>
        <time>2016-07-28T14:50:27.000Z</time>
      </trkpt>
      <trkpt lat="47.5012" lon="6.76075">
        <ele>380</ele>
        <time>2016-07-28T14:50:28.000Z</time>
      </trkpt>
      <trkpt lat="47.5012" lon="6.76079">
        <ele>380</ele>
        <time>2016-07-28T14:50:29.000Z</time>
      </trkpt>
      <trkpt lat="47.5012" lon="6.76082">
        <ele>380</ele>
        <time>2016-07-28T14:50:30.000Z</time>
      </trkpt>
      <trkpt lat="47.50121" lon="6.76085">
        <ele>384</ele>
        <time>2016-07-28T14:50:31.000Z</time>
      </trkpt>
      <trkpt lat="47.50121" lon="6.76089">
        <ele>384</ele>
        <time>2016-07-28T14:50:32.000Z</time>
      </trkpt>
      <trkpt lat="47.50121" lon="6.76092">
        <ele>384</ele>
        <time>2016-07-28T14:50:33.000Z</time>
      </trkpt>
      <trkpt lat="47.50122" lon="6.76096">
        <ele>384</ele>
        <time>2016-07-28T14:50:34.000Z</time>
      </trkpt>
      <trkpt lat="47.50123" lon="6.761">
        <ele>384</ele>
        <time>2016-07-28T14:50:35.000Z</time>
      </trkpt>
      <trkpt lat="47.50123" lon="6.76104">
        <ele>384</ele>
        <time>2016-07-28T14:50:36.000Z</time>
      </trkpt>
      <trkpt lat="47.50124" lon="6.76107">
        <ele>384</ele>
        <time>2016-07-28T14:50:37.000Z</time>
      </trkpt>
      <trkpt lat="47.50125" lon="6.76112">
        <ele>384</ele>
        <time>2016-07-28T14:50:38.000Z</time>
      </trkpt>
      <trkpt lat="47.50125" lon="6.76116">
        <ele>384</ele>
        <time>2016-07-28T14:50:39.000Z</time>
      </trkpt>
      <trkpt lat="47.50126" lon="6.76121">
        <ele>384</ele>
        <time>2016-07-28T14:50:40.000Z</time>
      </trkpt>
      <trkpt lat="47.50127" lon="6.76125">
        <ele>384</ele>
        <time>2016-07-28T14:50:41.000Z</time>
      </trkpt>
      <trkpt lat="47.50128" lon="6.76129">
        <ele>384</ele>
        <time>2016-07-28T14:50:42.000Z</time>
      </trkpt>
      <trkpt lat="47.50128" lon="6.76133">
        <ele>384</ele>
        <time>2016-07-28T14:50:43.000Z</time>
      </trkpt>
      <trkpt lat="47.50129" lon="6.76137">
        <ele>384</ele>
        <time>2016-07-28T14:50:44.000Z</time>
      </trkpt>
      <trkpt lat="47.50129" lon="6.76141">
        <ele>384</ele>
        <time>2016-07-28T14:50:45.000Z</time>
      </trkpt>
      <trkpt lat="47.50129" lon="6.76145">
        <ele>384</ele>
        <time>2016-07-28T14:50:46.000Z</time>
      </trkpt>
      <trkpt lat="47.50128" lon="6.7615">
        <ele>384</ele>
        <time>2016-07-28T14:50:47.000Z</time>
      </trkpt>
      <trkpt lat="47.50128" lon="6.76154">
        <ele>384</ele>
        <time>2016-07-28T14:50:48.000Z</time>
      </trkpt>
      <trkpt lat="47.50129" lon="6.76157">
        <ele>384</ele>
        <time>2016-07-28T14:50:49.000Z</time>
      </trkpt>
      <trkpt lat="47.50129" lon="6.7616">
        <ele>384</ele>
        <time>2016-07-28T14:50:50.000Z</time>
      </trkpt>
      <trkpt lat="47.50129" lon="6.76166">
        <ele>384</ele>
        <time>2016-07-28T14:50:52.000Z</time>
      </trkpt>
      <trkpt lat="47.50129" lon="6.76168">
        <ele>388</ele>
        <time>2016-07-28T14:50:53.000Z</time>
      </trkpt>
      <trkpt lat="47.5013" lon="6.76173">
        <ele>388</ele>
        <time>2016-07-28T14:50:55.000Z</time>
      </trkpt>
      <trkpt lat="47.50131" lon="6.76176">
        <ele>388</ele>
        <time>2016-07-28T14:50:56.000Z</time>
      </trkpt>
      <trkpt lat="47.50131" lon="6.76179">
        <ele>388</ele>
        <time>2016-07-28T14:50:57.000Z</time>
      </trkpt>
      <trkpt lat="47.50132" lon="6.76183">
        <ele>388</ele>
        <time>2016-07-28T14:50:58.000Z</time>
      </trkpt>
      <trkpt lat="47.50133" lon="6.76187">
        <ele>388</ele>
        <time>2016-07-28T14:50:59.000Z</time>
      </trkpt>
      <trkpt lat="47.50134" lon="6.76191">
        <ele>388</ele>
        <time>2016-07-28T14:51:00.000Z</time>
      </trkpt>
      <trkpt lat="47.50135" lon="6.76195">
        <ele>389</ele>
        <time>2016-07-28T14:51:01.000Z</time>
      </trkpt>
      <trkpt lat="47.50137" lon="6.76199">
        <ele>389</ele>
        <time>2016-07-28T14:51:02.000Z</time>
      </trkpt>
      <trkpt lat="47.50138" lon="6.76203">
        <ele>389</ele>
        <time>2016-07-28T14:51:03.000Z</time>
      </trkpt>
      <trkpt lat="47.50139" lon="6.76207">
        <ele>389</ele>
        <time>2016-07-28T14:51:04.000Z</time>
      </trkpt>
      <trkpt lat="47.5014" lon="6.76211">
        <ele>389</ele>
        <time>2016-07-28T14:51:05.000Z</time>
      </trkpt>
      <trkpt lat="47.50141" lon="6.76215">
        <ele>389</ele>
        <time>2016-07-28T14:51:06.000Z</time>
      </trkpt>
      <trkpt lat="47.50141" lon="6.76219">
        <ele>389</ele>
        <time>2016-07-28T14:51:07.000Z</time>
      </trkpt>
      <trkpt lat="47.50141" lon="6.76223">
        <ele>389</ele>
        <time>2016-07-28T14:51:08.000Z</time>
      </trkpt>
      <trkpt lat="47.50141" lon="6.76227">
        <ele>390</ele>
        <time>2016-07-28T14:51:09.000Z</time>
      </trkpt>
      <trkpt lat="47.50142" lon="6.76232">
        <ele>390</ele>
        <time>2016-07-28T14:51:10.000Z</time>
      </trkpt>
      <trkpt lat="47.50143" lon="6.76236">
        <ele>389</ele>
        <time>2016-07-28T14:51:11.000Z</time>
      </trkpt>
      <trkpt lat="47.50143" lon="6.7624">
        <ele>389</ele>
        <time>2016-07-28T14:51:12.000Z</time>
      </trkpt>
      <trkpt lat="47.50144" lon="6.76245">
        <ele>389</ele>
        <time>2016-07-28T14:51:13.000Z</time>
      </trkpt>
      <trkpt lat="47.50144" lon="6.76249">
        <ele>389</ele>
        <time>2016-07-28T14:51:14.000Z</time>
      </trkpt>
      <trkpt lat="47.50145" lon="6.76253">
        <ele>393</ele>
        <time>2016-07-28T14:51:15.000Z</time>
      </trkpt>
      <trkpt lat="47.50145" lon="6.76256">
        <ele>393</ele>
        <time>2016-07-28T14:51:16.000Z</time>
      </trkpt>
      <trkpt lat="47.50146" lon="6.76259">
        <ele>393</ele>
        <time>2016-07-28T14:51:17.000Z</time>
      </trkpt>
      <trkpt lat="47.50146" lon="6.76263">
        <ele>393</ele>
        <time>2016-07-28T14:51:18.000Z</time>
      </trkpt>
      <trkpt lat="47.50147" lon="6.76266">
        <ele>393</ele>
        <time>2016-07-28T14:51:19.000Z</time>
      </trkpt>
      <trkpt lat="47.50149" lon="6.7627">
        <ele>393</ele>
        <time>2016-07-28T14:51:20.000Z</time>
      </trkpt>
      <trkpt lat="47.50151" lon="6.76274">
        <ele>394</ele>
        <time>2016-07-28T14:51:21.000Z</time>
      </trkpt>
      <trkpt lat="47.50153" lon="6.76277">
        <ele>394</ele>
        <time>2016-07-28T14:51:22.000Z</time>
      </trkpt>
      <trkpt lat="47.50156" lon="6.76281">
        <ele>394</ele>
        <time>2016-07-28T14:51:23.000Z</time>
      </trkpt>
      <trkpt lat="47.50158" lon="6.76284">
        <ele>394</ele>
        <time>2016-07-28T14:51:24.000Z</time>
      </trkpt>
      <trkpt lat="47.5016" lon="6.76289">
        <ele>394</ele>
        <time>2016-07-28T14:51:26.000Z</time>
      </trkpt>
      <trkpt lat="47.50161" lon="6.76292">
        <ele>394</ele>
        <time>2016-07-28T14:51:27.000Z</time>
      </trkpt>
      <trkpt lat="47.50163" lon="6.76296">
        <ele>394</ele>
        <time>2016-07-28T14:51:28.000Z</time>
      </trkpt>
      <trkpt lat="47.50165" lon="6.763">
        <ele>394</ele>
        <time>2016-07-28T14:51:29.000Z</time>
      </trkpt>
      <trkpt lat="47.50166" lon="6.76305">
        <ele>394</ele>
        <time>2016-07-28T14:51:30.000Z</time>
      </trkpt>
      <trkpt lat="47.50168" lon="6.76309">
        <ele>387</ele>
        <time>2016-07-28T14:51:31.000Z</time>
      </trkpt>
      <trkpt lat="47.50169" lon="6.76313">
        <ele>388</ele>
        <time>2016-07-28T14:51:32.000Z</time>
      </trkpt>
      <trkpt lat="47.5017" lon="6.76317">
        <ele>388</ele>
        <time>2016-07-28T14:51:33.000Z</time>
      </trkpt>
      <trkpt lat="47.50172" lon="6.7632">
        <ele>388</ele>
        <time>2016-07-28T14:51:34.000Z</time>
      </trkpt>
      <trkpt lat="47.50173" lon="6.76323">
        <ele>389</ele>
        <time>2016-07-28T14:51:35.000Z</time>
      </trkpt>
      <trkpt lat="47.50175" lon="6.76329">
        <ele>389</ele>
        <time>2016-07-28T14:51:37.000Z</time>
      </trkpt>
      <trkpt lat="47.50176" lon="6.76331">
        <ele>389</ele>
        <time>2016-07-28T14:51:38.000Z</time>
      </trkpt>
      <trkpt lat="47.50178" lon="6.76335">
        <ele>390</ele>
        <time>2016-07-28T14:51:39.000Z</time>
      </trkpt>
      <trkpt lat="47.50179" lon="6.76338">
        <ele>390</ele>
        <time>2016-07-28T14:51:40.000Z</time>
      </trkpt>
      <trkpt lat="47.50181" lon="6.76342">
        <ele>390</ele>
        <time>2016-07-28T14:51:41.000Z</time>
      </trkpt>
      <trkpt lat="47.50182" lon="6.76346">
        <ele>390</ele>
        <time>2016-07-28T14:51:42.000Z</time>
      </trkpt>
      <trkpt lat="47.50183" lon="6.7635">
        <ele>390</ele>
        <time>2016-07-28T14:51:43.000Z</time>
      </trkpt>
      <trkpt lat="47.50184" lon="6.76356">
        <ele>390</ele>
        <time>2016-07-28T14:51:44.000Z</time>
      </trkpt>
      <trkpt lat="47.50185" lon="6.76362">
        <ele>390</ele>
        <time>2016-07-28T14:51:45.000Z</time>
      </trkpt>
      <trkpt lat="47.50186" lon="6.76367">
        <ele>390</ele>
        <time>2016-07-28T14:51:46.000Z</time>
      </trkpt>
      <trkpt lat="47.50187" lon="6.76372">
        <ele>390</ele>
        <time>2016-07-28T14:51:47.000Z</time>
      </trkpt>
      <trkpt lat="47.50188" lon="6.76376">
        <ele>390</ele>
        <time>2016-07-28T14:51:48.000Z</time>
      </trkpt>
      <trkpt lat="47.50189" lon="6.7638">
        <ele>391</ele>
        <time>2016-07-28T14:51:49.000Z</time>
      </trkpt>
      <trkpt lat="47.5019" lon="6.76384">
        <ele>391</ele>
        <time>2016-07-28T14:51:50.000Z</time>
      </trkpt>
      <trkpt lat="47.50191" lon="6.76387">
        <ele>391</ele>
        <time>2016-07-28T14:51:51.000Z</time>
      </trkpt>
      <trkpt lat="47.50193" lon="6.76391">
        <ele>391</ele>
        <time>2016-07-28T14:51:52.000Z</time>
      </trkpt>
      <trkpt lat="47.50193" lon="6.76395">
        <ele>391</ele>
        <time>2016-07-28T14:51:53.000Z</time>
      </trkpt>
      <trkpt lat="47.50194" lon="6.76399">
        <ele>391</ele>
        <time>2016-07-28T14:51:54.000Z</time>
      </trkpt>
      <trkpt lat="47.50194" lon="6.76403">
        <ele>391</ele>
        <time>2016-07-28T14:51:55.000Z</time>
      </trkpt>
      <trkpt lat="47.50195" lon="6.76406">
        <ele>392</ele>
        <time>2016-07-28T14:51:56.000Z</time>
      </trkpt>
      <trkpt lat="47.50196" lon="6.7641">
        <ele>392</ele>
        <time>2016-07-28T14:51:57.000Z</time>
      </trkpt>
      <trkpt lat="47.50197" lon="6.76414">
        <ele>392</ele>
        <time>2016-07-28T14:51:58.000Z</time>
      </trkpt>
      <trkpt lat="47.50198" lon="6.76418">
        <ele>395</ele>
        <time>2016-07-28T14:51:59.000Z</time>
      </trkpt>
      <trkpt lat="47.502" lon="6.76422">
        <ele>395</ele>
        <time>2016-07-28T14:52:00.000Z</time>
      </trkpt>
      <trkpt lat="47.50201" lon="6.76426">
        <ele>395</ele>
        <time>2016-07-28T14:52:01.000Z</time>
      </trkpt>
      <trkpt lat="47.50202" lon="6.76429">
        <ele>395</ele>
        <time>2016-07-28T14:52:02.000Z</time>
      </trkpt>
      <trkpt lat="47.50203" lon="6.76435">
        <ele>395</ele>
        <time>2016-07-28T14:52:04.000Z</time>
      </trkpt>
      <trkpt lat="47.50204" lon="6.76438">
        <ele>395</ele>
        <time>2016-07-28T14:52:05.000Z</time>
      </trkpt>
      <trkpt lat="47.50204" lon="6.76443">
        <ele>395</ele>
        <time>2016-07-28T14:52:07.000Z</time>
      </trkpt>
      <trkpt lat="47.50204" lon="6.76445">
        <ele>395</ele>
        <time>2016-07-28T14:52:08.000Z</time>
      </trkpt>
      <trkpt lat="47.50205" lon="6.76449">
        <ele>395</ele>
        <time>2016-07-28T14:52:10.000Z</time>
      </trkpt>
      <trkpt lat="47.50206" lon="6.76451">
        <ele>395</ele>
        <time>2016-07-28T14:52:11.000Z</time>
      </trkpt>
      <trkpt lat="47.50207" lon="6.76457">
        <ele>395</ele>
        <time>2016-07-28T14:52:13.000Z</time>
      </trkpt>
      <trkpt lat="47.50208" lon="6.7646">
        <ele>395</ele>
        <time>2016-07-28T14:52:14.000Z</time>
      </trkpt>
      <trkpt lat="47.50209" lon="6.76464">
        <ele>395</ele>
        <time>2016-07-28T14:52:15.000Z</time>
      </trkpt>
      <trkpt lat="47.5021" lon="6.76467">
        <ele>395</ele>
        <time>2016-07-28T14:52:16.000Z</time>
      </trkpt>
      <trkpt lat="47.50211" lon="6.76471">
        <ele>396</ele>
        <time>2016-07-28T14:52:17.000Z</time>
      </trkpt>
      <trkpt lat="47.50212" lon="6.76474">
        <ele>396</ele>
        <time>2016-07-28T14:52:18.000Z</time>
      </trkpt>
      <trkpt lat="47.50213" lon="6.76477">
        <ele>396</ele>
        <time>2016-07-28T14:52:19.000Z</time>
      </trkpt>
      <trkpt lat="47.50215" lon="6.7648">
        <ele>396</ele>
        <time>2016-07-28T14:52:20.000Z</time>
      </trkpt>
      <trkpt lat="47.50216" lon="6.76485">
        <ele>395</ele>
        <time>2016-07-28T14:52:21.000Z</time>
      </trkpt>
      <trkpt lat="47.50218" lon="6.76491">
        <ele>395</ele>
        <time>2016-07-28T14:52:22.000Z</time>
      </trkpt>
      <trkpt lat="47.50218" lon="6.76497">
        <ele>395</ele>
        <time>2016-07-28T14:52:23.000Z</time>
      </trkpt>
      <trkpt lat="47.50218" lon="6.76504">
        <ele>399</ele>
        <time>2016-07-28T14:52:24.000Z</time>
      </trkpt>
      <trkpt lat="47.50218" lon="6.76511">
        <ele>399</ele>
        <time>2016-07-28T14:52:25.000Z</time>
      </trkpt>
      <trkpt lat="47.50218" lon="6.76517">
        <ele>399</ele>
        <time>2016-07-28T14:52:26.000Z</time>
      </trkpt>
      <trkpt lat="47.50218" lon="6.76524">
        <ele>399</ele>
        <time>2016-07-28T14:52:27.000Z</time>
      </trkpt>
      <trkpt lat="47.50218" lon="6.76529">
        <ele>400</ele>
        <time>2016-07-28T14:52:28.000Z</time>
      </trkpt>
      <trkpt lat="47.50217" lon="6.76533">
        <ele>400</ele>
        <time>2016-07-28T14:52:29.000Z</time>
      </trkpt>
      <trkpt lat="47.50217" lon="6.76537">
        <ele>400</ele>
        <time>2016-07-28T14:52:30.000Z</time>
      </trkpt>
      <trkpt lat="47.50215" lon="6.76542">
        <ele>400</ele>
        <time>2016-07-28T14:52:32.000Z</time>
      </trkpt>
      <trkpt lat="47.50215" lon="6.76544">
        <ele>400</ele>
        <time>2016-07-28T14:52:33.000Z</time>
      </trkpt>
      <trkpt lat="47.50212" lon="6.76549">
        <ele>401</ele>
        <time>2016-07-28T14:52:36.000Z</time>
      </trkpt>
      <trkpt lat="47.50211" lon="6.7655">
        <ele>401</ele>
        <time>2016-07-28T14:52:37.000Z</time>
      </trkpt>
      <trkpt lat="47.50208" lon="6.76554">
        <ele>401</ele>
        <time>2016-07-28T14:52:39.000Z</time>
      </trkpt>
      <trkpt lat="47.50208" lon="6.76556">
        <ele>401</ele>
        <time>2016-07-28T14:52:40.000Z</time>
      </trkpt>
      <trkpt lat="47.50208" lon="6.76561">
        <ele>401</ele>
        <time>2016-07-28T14:52:42.000Z</time>
      </trkpt>
      <trkpt lat="47.50208" lon="6.76564">
        <ele>401</ele>
        <time>2016-07-28T14:52:43.000Z</time>
      </trkpt>
      <trkpt lat="47.50208" lon="6.76569">
        <ele>401</ele>
        <time>2016-07-28T14:52:45.000Z</time>
      </trkpt>
      <trkpt lat="47.50208" lon="6.76571">
        <ele>401</ele>
        <time>2016-07-28T14:52:46.000Z</time>
      </trkpt>
      <trkpt lat="47.50209" lon="6.76576">
        <ele>401</ele>
        <time>2016-07-28T14:52:48.000Z</time>
      </trkpt>
      <trkpt lat="47.50209" lon="6.76579">
        <ele>401</ele>
        <time>2016-07-28T14:52:49.000Z</time>
      </trkpt>
      <trkpt lat="47.50209" lon="6.76583">
        <ele>401</ele>
        <time>2016-07-28T14:52:50.000Z</time>
      </trkpt>
      <trkpt lat="47.50209" lon="6.76587">
        <ele>402</ele>
        <time>2016-07-28T14:52:51.000Z</time>
      </trkpt>
      <trkpt lat="47.5021" lon="6.76591">
        <ele>402</ele>
        <time>2016-07-28T14:52:52.000Z</time>
      </trkpt>
      <trkpt lat="47.5021" lon="6.76594">
        <ele>402</ele>
        <time>2016-07-28T14:52:53.000Z</time>
      </trkpt>
      <trkpt lat="47.50211" lon="6.76597">
        <ele>402</ele>
        <time>2016-07-28T14:52:54.000Z</time>
      </trkpt>
      <trkpt lat="47.50211" lon="6.76601">
        <ele>402</ele>
        <time>2016-07-28T14:52:55.000Z</time>
      </trkpt>
      <trkpt lat="47.50211" lon="6.76607">
        <ele>402</ele>
        <time>2016-07-28T14:52:57.000Z</time>
      </trkpt>
      <trkpt lat="47.50211" lon="6.7661">
        <ele>402</ele>
        <time>2016-07-28T14:52:58.000Z</time>
      </trkpt>
      <trkpt lat="47.50212" lon="6.76616">
        <ele>402</ele>
        <time>2016-07-28T14:53:00.000Z</time>
      </trkpt>
      <trkpt lat="47.50212" lon="6.76619">
        <ele>402</ele>
        <time>2016-07-28T14:53:01.000Z</time>
      </trkpt>
      <trkpt lat="47.50213" lon="6.76622">
        <ele>402</ele>
        <time>2016-07-28T14:53:02.000Z</time>
      </trkpt>
      <trkpt lat="47.50213" lon="6.76625">
        <ele>402</ele>
        <time>2016-07-28T14:53:03.000Z</time>
      </trkpt>
      <trkpt lat="47.50214" lon="6.76628">
        <ele>402</ele>
        <time>2016-07-28T14:53:04.000Z</time>
      </trkpt>
      <trkpt lat="47.50215" lon="6.76631">
        <ele>402</ele>
        <time>2016-07-28T14:53:05.000Z</time>
      </trkpt>
      <trkpt lat="47.50216" lon="6.76638">
        <ele>402</ele>
        <time>2016-07-28T14:53:07.000Z</time>
      </trkpt>
      <trkpt lat="47.50216" lon="6.7664">
        <ele>402</ele>
        <time>2016-07-28T14:53:08.000Z</time>
      </trkpt>
      <trkpt lat="47.50218" lon="6.76646">
        <ele>401</ele>
        <time>2016-07-28T14:53:10.000Z</time>
      </trkpt>
      <trkpt lat="47.50218" lon="6.7665">
        <ele>401</ele>
        <time>2016-07-28T14:53:11.000Z</time>
      </trkpt>
      <trkpt lat="47.50219" lon="6.76653">
        <ele>401</ele>
        <time>2016-07-28T14:53:12.000Z</time>
      </trkpt>
      <trkpt lat="47.5022" lon="6.76657">
        <ele>401</ele>
        <time>2016-07-28T14:53:13.000Z</time>
      </trkpt>
      <trkpt lat="47.50221" lon="6.7666">
        <ele>401</ele>
        <time>2016-07-28T14:53:14.000Z</time>
      </trkpt>
      <trkpt lat="47.50221" lon="6.76664">
        <ele>401</ele>
        <time>2016-07-28T14:53:15.000Z</time>
      </trkpt>
      <trkpt lat="47.50222" lon="6.76667">
        <ele>401</ele>
        <time>2016-07-28T14:53:16.000Z</time>
      </trkpt>
      <trkpt lat="47.50223" lon="6.76671">
        <ele>401</ele>
        <time>2016-07-28T14:53:17.000Z</time>
      </trkpt>
      <trkpt lat="47.50224" lon="6.76674">
        <ele>401</ele>
        <time>2016-07-28T14:53:18.000Z</time>
      </trkpt>
      <trkpt lat="47.50225" lon="6.76677">
        <ele>401</ele>
        <time>2016-07-28T14:53:19.000Z</time>
      </trkpt>
      <trkpt lat="47.50226" lon="6.76681">
        <ele>401</ele>
        <time>2016-07-28T14:53:20.000Z</time>
      </trkpt>
      <trkpt lat="47.50227" lon="6.76684">
        <ele>401</ele>
        <time>2016-07-28T14:53:21.000Z</time>
      </trkpt>
      <trkpt lat="47.50228" lon="6.76688">
        <ele>401</ele>
        <time>2016-07-28T14:53:22.000Z</time>
      </trkpt>
      <trkpt lat="47.50229" lon="6.76692">
        <ele>401</ele>
        <time>2016-07-28T14:53:23.000Z</time>
      </trkpt>
      <trkpt lat="47.5023" lon="6.76695">
        <ele>401</ele>
        <time>2016-07-28T14:53:24.000Z</time>
      </trkpt>
      <trkpt lat="47.50231" lon="6.76699">
        <ele>401</ele>
        <time>2016-07-28T14:53:25.000Z</time>
      </trkpt>
      <trkpt lat="47.50232" lon="6.76702">
        <ele>401</ele>
        <time>2016-07-28T14:53:26.000Z</time>
      </trkpt>
      <trkpt lat="47.50234" lon="6.76706">
        <ele>401</ele>
        <time>2016-07-28T14:53:27.000Z</time>
      </trkpt>
      <trkpt lat="47.50235" lon="6.76709">
        <ele>401</ele>
        <time>2016-07-28T14:53:28.000Z</time>
      </trkpt>
      <trkpt lat="47.50236" lon="6.76713">
        <ele>401</ele>
        <time>2016-07-28T14:53:29.000Z</time>
      </trkpt>
      <trkpt lat="47.50238" lon="6.76717">
        <ele>401</ele>
        <time>2016-07-28T14:53:30.000Z</time>
      </trkpt>
      <trkpt lat="47.50239" lon="6.7672">
        <ele>401</ele>
        <time>2016-07-28T14:53:31.000Z</time>
      </trkpt>
      <trkpt lat="47.50241" lon="6.76724">
        <ele>401</ele>
        <time>2016-07-28T14:53:32.000Z</time>
      </trkpt>
      <trkpt lat="47.50243" lon="6.76728">
        <ele>401</ele>
        <time>2016-07-28T14:53:33.000Z</time>
      </trkpt>
      <trkpt lat="47.50245" lon="6.76731">
        <ele>401</ele>
        <time>2016-07-28T14:53:34.000Z</time>
      </trkpt>
      <trkpt lat="47.50246" lon="6.76734">
        <ele>401</ele>
        <time>2016-07-28T14:53:35.000Z</time>
      </trkpt>
      <trkpt lat="47.50248" lon="6.76737">
        <ele>401</ele>
        <time>2016-07-28T14:53:36.000Z</time>
      </trkpt>
      <trkpt lat="47.5025" lon="6.7674">
        <ele>401</ele>
        <time>2016-07-28T14:53:37.000Z</time>
      </trkpt>
      <trkpt lat="47.50252" lon="6.76743">
        <ele>400</ele>
        <time>2016-07-28T14:53:38.000Z</time>
      </trkpt>
      <trkpt lat="47.50255" lon="6.76745">
        <ele>400</ele>
        <time>2016-07-28T14:53:39.000Z</time>
      </trkpt>
      <trkpt lat="47.50257" lon="6.76746">
        <ele>400</ele>
        <time>2016-07-28T14:53:40.000Z</time>
      </trkpt>
      <trkpt lat="47.50261" lon="6.76746">
        <ele>399</ele>
        <time>2016-07-28T14:53:41.000Z</time>
      </trkpt>
      <trkpt lat="47.50264" lon="6.76745">
        <ele>399</ele>
        <time>2016-07-28T14:53:42.000Z</time>
      </trkpt>
      <trkpt lat="47.50268" lon="6.76744">
        <ele>399</ele>
        <time>2016-07-28T14:53:43.000Z</time>
      </trkpt>
      <trkpt lat="47.50271" lon="6.76743">
        <ele>399</ele>
        <time>2016-07-28T14:53:44.000Z</time>
      </trkpt>
      <trkpt lat="47.50275" lon="6.76742">
        <ele>399</ele>
        <time>2016-07-28T14:53:45.000Z</time>
      </trkpt>
      <trkpt lat="47.50279" lon="6.76741">
        <ele>399</ele>
        <time>2016-07-28T14:53:46.000Z</time>
      </trkpt>
      <trkpt lat="47.50283" lon="6.76739">
        <ele>399</ele>
        <time>2016-07-28T14:53:47.000Z</time>
      </trkpt>
      <trkpt lat="47.50286" lon="6.76738">
        <ele>399</ele>
        <time>2016-07-28T14:53:48.000Z</time>
      </trkpt>
      <trkpt lat="47.5029" lon="6.76736">
        <ele>399</ele>
        <time>2016-07-28T14:53:49.000Z</time>
      </trkpt>
      <trkpt lat="47.50294" lon="6.76734">
        <ele>399</ele>
        <time>2016-07-28T14:53:50.000Z</time>
      </trkpt>
      <trkpt lat="47.50297" lon="6.76732">
        <ele>399</ele>
        <time>2016-07-28T14:53:51.000Z</time>
      </trkpt>
      <trkpt lat="47.50301" lon="6.76731">
        <ele>399</ele>
        <time>2016-07-28T14:53:52.000Z</time>
      </trkpt>
      <trkpt lat="47.50304" lon="6.7673">
        <ele>398</ele>
        <time>2016-07-28T14:53:53.000Z</time>
      </trkpt>
      <trkpt lat="47.50307" lon="6.76729">
        <ele>398</ele>
        <time>2016-07-28T14:53:54.000Z</time>
      </trkpt>
      <trkpt lat="47.5031" lon="6.76729">
        <ele>398</ele>
        <time>2016-07-28T14:53:55.000Z</time>
      </trkpt>
      <trkpt lat="47.50313" lon="6.76728">
        <ele>398</ele>
        <time>2016-07-28T14:53:56.000Z</time>
      </trkpt>
      <trkpt lat="47.50317" lon="6.76726">
        <ele>398</ele>
        <time>2016-07-28T14:53:57.000Z</time>
      </trkpt>
      <trkpt lat="47.5032" lon="6.76724">
        <ele>398</ele>
        <time>2016-07-28T14:53:58.000Z</time>
      </trkpt>
      <trkpt lat="47.50324" lon="6.76722">
        <ele>398</ele>
        <time>2016-07-28T14:53:59.000Z</time>
      </trkpt>
      <trkpt lat="47.50327" lon="6.7672">
        <ele>398</ele>
        <time>2016-07-28T14:54:00.000Z</time>
      </trkpt>
      <trkpt lat="47.50331" lon="6.76717">
        <ele>398</ele>
        <time>2016-07-28T14:54:01.000Z</time>
      </trkpt>
      <trkpt lat="47.50335" lon="6.76715">
        <ele>398</ele>
        <time>2016-07-28T14:54:02.000Z</time>
      </trkpt>
      <trkpt lat="47.50338" lon="6.76714">
        <ele>398</ele>
        <time>2016-07-28T14:54:03.000Z</time>
      </trkpt>
      <trkpt lat="47.50342" lon="6.76712">
        <ele>398</ele>
        <time>2016-07-28T14:54:04.000Z</time>
      </trkpt>
      <trkpt lat="47.50346" lon="6.76711">
        <ele>398</ele>
        <time>2016-07-28T14:54:05.000Z</time>
      </trkpt>
      <trkpt lat="47.50349" lon="6.76709">
        <ele>398</ele>
        <time>2016-07-28T14:54:06.000Z</time>
      </trkpt>
      <trkpt lat="47.50353" lon="6.76708">
        <ele>397</ele>
        <time>2016-07-28T14:54:07.000Z</time>
      </trkpt>
      <trkpt lat="47.50357" lon="6.76707">
        <ele>397</ele>
        <time>2016-07-28T14:54:08.000Z</time>
      </trkpt>
      <trkpt lat="47.5036" lon="6.76705">
        <ele>397</ele>
        <time>2016-07-28T14:54:09.000Z</time>
      </trkpt>
      <trkpt lat="47.50364" lon="6.76704">
        <ele>397</ele>
        <time>2016-07-28T14:54:10.000Z</time>
      </trkpt>
      <trkpt lat="47.50368" lon="6.76702">
        <ele>397</ele>
        <time>2016-07-28T14:54:11.000Z</time>
      </trkpt>
      <trkpt lat="47.50371" lon="6.767">
        <ele>397</ele>
        <time>2016-07-28T14:54:12.000Z</time>
      </trkpt>
      <trkpt lat="47.50375" lon="6.76699">
        <ele>397</ele>
        <time>2016-07-28T14:54:13.000Z</time>
      </trkpt>
      <trkpt lat="47.50379" lon="6.76697">
        <ele>397</ele>
        <time>2016-07-28T14:54:14.000Z</time>
      </trkpt>
      <trkpt lat="47.50383" lon="6.76695">
        <ele>397</ele>
        <time>2016-07-28T14:54:15.000Z</time>
      </trkpt>
      <trkpt lat="47.50387" lon="6.76693">
        <ele>397</ele>
        <time>2016-07-28T14:54:16.000Z</time>
      </trkpt>
      <trkpt lat="47.50391" lon="6.76691">
        <ele>397</ele>
        <time>2016-07-28T14:54:17.000Z</time>
      </trkpt>
      <trkpt lat="47.50394" lon="6.7669">
        <ele>397</ele>
        <time>2016-07-28T14:54:18.000Z</time>
      </trkpt>
      <trkpt lat="47.50398" lon="6.76688">
        <ele>397</ele>
        <time>2016-07-28T14:54:19.000Z</time>
      </trkpt>
      <trkpt lat="47.50402" lon="6.76687">
        <ele>397</ele>
        <time>2016-07-28T14:54:20.000Z</time>
      </trkpt>
      <trkpt lat="47.50406" lon="6.76685">
        <ele>397</ele>
        <time>2016-07-28T14:54:21.000Z</time>
      </trkpt>
      <trkpt lat="47.50409" lon="6.76684">
        <ele>397</ele>
        <time>2016-07-28T14:54:22.000Z</time>
      </trkpt>
      <trkpt lat="47.50413" lon="6.76682">
        <ele>397</ele>
        <time>2016-07-28T14:54:23.000Z</time>
      </trkpt>
      <trkpt lat="47.50417" lon="6.76681">
        <ele>397</ele>
        <time>2016-07-28T14:54:24.000Z</time>
      </trkpt>
      <trkpt lat="47.5042" lon="6.7668">
        <ele>397</ele>
        <time>2016-07-28T14:54:25.000Z</time>
      </trkpt>
      <trkpt lat="47.50424" lon="6.76679">
        <ele>397</ele>
        <time>2016-07-28T14:54:26.000Z</time>
      </trkpt>
      <trkpt lat="47.50428" lon="6.76678">
        <ele>397</ele>
        <time>2016-07-28T14:54:27.000Z</time>
      </trkpt>
      <trkpt lat="47.50431" lon="6.76676">
        <ele>397</ele>
        <time>2016-07-28T14:54:28.000Z</time>
      </trkpt>
      <trkpt lat="47.50434" lon="6.76675">
        <ele>397</ele>
        <time>2016-07-28T14:54:29.000Z</time>
      </trkpt>
      <trkpt lat="47.50438" lon="6.76673">
        <ele>397</ele>
        <time>2016-07-28T14:54:30.000Z</time>
      </trkpt>
      <trkpt lat="47.50442" lon="6.76672">
        <ele>397</ele>
        <time>2016-07-28T14:54:31.000Z</time>
      </trkpt>
      <trkpt lat="47.50445" lon="6.7667">
        <ele>397</ele>
        <time>2016-07-28T14:54:32.000Z</time>
      </trkpt>
      <trkpt lat="47.50448" lon="6.76669">
        <ele>397</ele>
        <time>2016-07-28T14:54:33.000Z</time>
      </trkpt>
      <trkpt lat="47.50452" lon="6.76667">
        <ele>397</ele>
        <time>2016-07-28T14:54:34.000Z</time>
      </trkpt>
      <trkpt lat="47.50455" lon="6.76665">
        <ele>398</ele>
        <time>2016-07-28T14:54:35.000Z</time>
      </trkpt>
      <trkpt lat="47.50459" lon="6.76664">
        <ele>398</ele>
        <time>2016-07-28T14:54:36.000Z</time>
      </trkpt>
      <trkpt lat="47.50462" lon="6.76662">
        <ele>398</ele>
        <time>2016-07-28T14:54:37.000Z</time>
      </trkpt>
      <trkpt lat="47.50466" lon="6.76661">
        <ele>398</ele>
        <time>2016-07-28T14:54:38.000Z</time>
      </trkpt>
      <trkpt lat="47.50469" lon="6.76659">
        <ele>398</ele>
        <time>2016-07-28T14:54:39.000Z</time>
      </trkpt>
      <trkpt lat="47.50473" lon="6.76658">
        <ele>398</ele>
        <time>2016-07-28T14:54:40.000Z</time>
      </trkpt>
      <trkpt lat="47.50476" lon="6.76657">
        <ele>398</ele>
        <time>2016-07-28T14:54:41.000Z</time>
      </trkpt>
      <trkpt lat="47.50479" lon="6.76656">
        <ele>399</ele>
        <time>2016-07-28T14:54:42.000Z</time>
      </trkpt>
      <trkpt lat="47.50483" lon="6.76655">
        <ele>399</ele>
        <time>2016-07-28T14:54:43.000Z</time>
      </trkpt>
      <trkpt lat="47.50486" lon="6.76654">
        <ele>399</ele>
        <time>2016-07-28T14:54:44.000Z</time>
      </trkpt>
      <trkpt lat="47.50489" lon="6.76653">
        <ele>399</ele>
        <time>2016-07-28T14:54:45.000Z</time>
      </trkpt>
      <trkpt lat="47.50493" lon="6.76652">
        <ele>399</ele>
        <time>2016-07-28T14:54:46.000Z</time>
      </trkpt>
      <trkpt lat="47.50497" lon="6.76651">
        <ele>399</ele>
        <time>2016-07-28T14:54:47.000Z</time>
      </trkpt>
      <trkpt lat="47.505" lon="6.7665">
        <ele>399</ele>
        <time>2016-07-28T14:54:48.000Z</time>
      </trkpt>
      <trkpt lat="47.50503" lon="6.76649">
        <ele>399</ele>
        <time>2016-07-28T14:54:49.000Z</time>
      </trkpt>
      <trkpt lat="47.50506" lon="6.76648">
        <ele>399</ele>
        <time>2016-07-28T14:54:50.000Z</time>
      </trkpt>
      <trkpt lat="47.5051" lon="6.76647">
        <ele>399</ele>
        <time>2016-07-28T14:54:51.000Z</time>
      </trkpt>
      <trkpt lat="47.50513" lon="6.76646">
        <ele>399</ele>
        <time>2016-07-28T14:54:52.000Z</time>
      </trkpt>
      <trkpt lat="47.50517" lon="6.76645">
        <ele>399</ele>
        <time>2016-07-28T14:54:53.000Z</time>
      </trkpt>
      <trkpt lat="47.5052" lon="6.76645">
        <ele>399</ele>
        <time>2016-07-28T14:54:54.000Z</time>
      </trkpt>
      <trkpt lat="47.50523" lon="6.76644">
        <ele>399</ele>
        <time>2016-07-28T14:54:55.000Z</time>
      </trkpt>
      <trkpt lat="47.50526" lon="6.76643">
        <ele>399</ele>
        <time>2016-07-28T14:54:56.000Z</time>
      </trkpt>
      <trkpt lat="47.50529" lon="6.76642">
        <ele>399</ele>
        <time>2016-07-28T14:54:57.000Z</time>
      </trkpt>
      <trkpt lat="47.50532" lon="6.76641">
        <ele>399</ele>
        <time>2016-07-28T14:54:58.000Z</time>
      </trkpt>
      <trkpt lat="47.50536" lon="6.7664">
        <ele>399</ele>
        <time>2016-07-28T14:54:59.000Z</time>
      </trkpt>
      <trkpt lat="47.50538" lon="6.76639">
        <ele>399</ele>
        <time>2016-07-28T14:55:00.000Z</time>
      </trkpt>
      <trkpt lat="47.50541" lon="6.76638">
        <ele>399</ele>
        <time>2016-07-28T14:55:01.000Z</time>
      </trkpt>
      <trkpt lat="47.50545" lon="6.76637">
        <ele>399</ele>
        <time>2016-07-28T14:55:02.000Z</time>
      </trkpt>
      <trkpt lat="47.50548" lon="6.76636">
        <ele>399</ele>
        <time>2016-07-28T14:55:03.000Z</time>
      </trkpt>
      <trkpt lat="47.50551" lon="6.76635">
        <ele>399</ele>
        <time>2016-07-28T14:55:04.000Z</time>
      </trkpt>
      <trkpt lat="47.50555" lon="6.76634">
        <ele>399</ele>
        <time>2016-07-28T14:55:05.000Z</time>
      </trkpt>
      <trkpt lat="47.50558" lon="6.76633">
        <ele>399</ele>
        <time>2016-07-28T14:55:06.000Z</time>
      </trkpt>
      <trkpt lat="47.50562" lon="6.76632">
        <ele>399</ele>
        <time>2016-07-28T14:55:07.000Z</time>
      </trkpt>
      <trkpt lat="47.50566" lon="6.76631">
        <ele>399</ele>
        <time>2016-07-28T14:55:08.000Z</time>
      </trkpt>
      <trkpt lat="47.5057" lon="6.7663">
        <ele>399</ele>
        <time>2016-07-28T14:55:09.000Z</time>
      </trkpt>
      <trkpt lat="47.50574" lon="6.76629">
        <ele>399</ele>
        <time>2016-07-28T14:55:10.000Z</time>
      </trkpt>
      <trkpt lat="47.50579" lon="6.76628">
        <ele>399</ele>
        <time>2016-07-28T14:55:11.000Z</time>
      </trkpt>
      <trkpt lat="47.50584" lon="6.76627">
        <ele>398</ele>
        <time>2016-07-28T14:55:12.000Z</time>
      </trkpt>
      <trkpt lat="47.50589" lon="6.76626">
        <ele>398</ele>
        <time>2016-07-28T14:55:13.000Z</time>
      </trkpt>
      <trkpt lat="47.50594" lon="6.76624">
        <ele>398</ele>
        <time>2016-07-28T14:55:14.000Z</time>
      </trkpt>
      <trkpt lat="47.50599" lon="6.76622">
        <ele>398</ele>
        <time>2016-07-28T14:55:15.000Z</time>
      </trkpt>
      <trkpt lat="47.50604" lon="6.7662">
        <ele>398</ele>
        <time>2016-07-28T14:55:16.000Z</time>
      </trkpt>
      <trkpt lat="47.50609" lon="6.76618">
        <ele>398</ele>
        <time>2016-07-28T14:55:17.000Z</time>
      </trkpt>
      <trkpt lat="47.50614" lon="6.76616">
        <ele>397</ele>
        <time>2016-07-28T14:55:18.000Z</time>
      </trkpt>
      <trkpt lat="47.50619" lon="6.76613">
        <ele>397</ele>
        <time>2016-07-28T14:55:19.000Z</time>
      </trkpt>
      <trkpt lat="47.50624" lon="6.7661">
        <ele>397</ele>
        <time>2016-07-28T14:55:20.000Z</time>
      </trkpt>
      <trkpt lat="47.50629" lon="6.76607">
        <ele>397</ele>
        <time>2016-07-28T14:55:21.000Z</time>
      </trkpt>
      <trkpt lat="47.50634" lon="6.76604">
        <ele>397</ele>
        <time>2016-07-28T14:55:22.000Z</time>
      </trkpt>
      <trkpt lat="47.50639" lon="6.76601">
        <ele>397</ele>
        <time>2016-07-28T14:55:23.000Z</time>
      </trkpt>
      <trkpt lat="47.50644" lon="6.76598">
        <ele>397</ele>
        <time>2016-07-28T14:55:24.000Z</time>
      </trkpt>
      <trkpt lat="47.50649" lon="6.76596">
        <ele>397</ele>
        <time>2016-07-28T14:55:25.000Z</time>
      </trkpt>
      <trkpt lat="47.50655" lon="6.76594">
        <ele>397</ele>
        <time>2016-07-28T14:55:26.000Z</time>
      </trkpt>
      <trkpt lat="47.5066" lon="6.76592">
        <ele>397</ele>
        <time>2016-07-28T14:55:27.000Z</time>
      </trkpt>
      <trkpt lat="47.50665" lon="6.76591">
        <ele>397</ele>
        <time>2016-07-28T14:55:28.000Z</time>
      </trkpt>
      <trkpt lat="47.5067" lon="6.7659">
        <ele>396</ele>
        <time>2016-07-28T14:55:29.000Z</time>
      </trkpt>
      <trkpt lat="47.50675" lon="6.76589">
        <ele>396</ele>
        <time>2016-07-28T14:55:30.000Z</time>
      </trkpt>
      <trkpt lat="47.50681" lon="6.76588">
        <ele>396</ele>
        <time>2016-07-28T14:55:31.000Z</time>
      </trkpt>
      <trkpt lat="47.50686" lon="6.76587">
        <ele>396</ele>
        <time>2016-07-28T14:55:32.000Z</time>
      </trkpt>
      <trkpt lat="47.50691" lon="6.76586">
        <ele>395</ele>
        <time>2016-07-28T14:55:33.000Z</time>
      </trkpt>
      <trkpt lat="47.50697" lon="6.76586">
        <ele>395</ele>
        <time>2016-07-28T14:55:34.000Z</time>
      </trkpt>
      <trkpt lat="47.50703" lon="6.76586">
        <ele>395</ele>
        <time>2016-07-28T14:55:35.000Z</time>
      </trkpt>
      <trkpt lat="47.50708" lon="6.76586">
        <ele>395</ele>
        <time>2016-07-28T14:55:36.000Z</time>
      </trkpt>
      <trkpt lat="47.50713" lon="6.76587">
        <ele>395</ele>
        <time>2016-07-28T14:55:37.000Z</time>
      </trkpt>
      <trkpt lat="47.50718" lon="6.76588">
        <ele>394</ele>
        <time>2016-07-28T14:55:38.000Z</time>
      </trkpt>
      <trkpt lat="47.50723" lon="6.76589">
        <ele>394</ele>
        <time>2016-07-28T14:55:39.000Z</time>
      </trkpt>
      <trkpt lat="47.50728" lon="6.7659">
        <ele>394</ele>
        <time>2016-07-28T14:55:40.000Z</time>
      </trkpt>
      <trkpt lat="47.50734" lon="6.76591">
        <ele>394</ele>
        <time>2016-07-28T14:55:41.000Z</time>
      </trkpt>
      <trkpt lat="47.50739" lon="6.76592">
        <ele>394</ele>
        <time>2016-07-28T14:55:42.000Z</time>
      </trkpt>
      <trkpt lat="47.50744" lon="6.76592">
        <ele>394</ele>
        <time>2016-07-28T14:55:43.000Z</time>
      </trkpt>
      <trkpt lat="47.50749" lon="6.76592">
        <ele>394</ele>
        <time>2016-07-28T14:55:44.000Z</time>
      </trkpt>
      <trkpt lat="47.50754" lon="6.76592">
        <ele>393</ele>
        <time>2016-07-28T14:55:45.000Z</time>
      </trkpt>
      <trkpt lat="47.50758" lon="6.76592">
        <ele>393</ele>
        <time>2016-07-28T14:55:46.000Z</time>
      </trkpt>
      <trkpt lat="47.50763" lon="6.76592">
        <ele>392</ele>
        <time>2016-07-28T14:55:47.000Z</time>
      </trkpt>
      <trkpt lat="47.50767" lon="6.76591">
        <ele>392</ele>
        <time>2016-07-28T14:55:48.000Z</time>
      </trkpt>
      <trkpt lat="47.50772" lon="6.76589">
        <ele>392</ele>
        <time>2016-07-28T14:55:49.000Z</time>
      </trkpt>
      <trkpt lat="47.50777" lon="6.76589">
        <ele>392</ele>
        <time>2016-07-28T14:55:50.000Z</time>
      </trkpt>
      <trkpt lat="47.50781" lon="6.76587">
        <ele>391</ele>
        <time>2016-07-28T14:55:51.000Z</time>
      </trkpt>
      <trkpt lat="47.50785" lon="6.76587">
        <ele>391</ele>
        <time>2016-07-28T14:55:52.000Z</time>
      </trkpt>
      <trkpt lat="47.50788" lon="6.76585">
        <ele>391</ele>
        <time>2016-07-28T14:55:53.000Z</time>
      </trkpt>
      <trkpt lat="47.50792" lon="6.76585">
        <ele>391</ele>
        <time>2016-07-28T14:56:06.000Z</time>
      </trkpt>
      <trkpt lat="47.50794" lon="6.76582">
        <ele>392</ele>
        <time>2016-07-28T14:56:07.000Z</time>
      </trkpt>
      <trkpt lat="47.50796" lon="6.76582">
        <ele>392</ele>
        <time>2016-07-28T14:56:08.000Z</time>
      </trkpt>
      <trkpt lat="47.50799" lon="6.76582">
        <ele>392</ele>
        <time>2016-07-28T14:56:09.000Z</time>
      </trkpt>
      <trkpt lat="47.50802" lon="6.76581">
        <ele>391</ele>
        <time>2016-07-28T14:56:10.000Z</time>
      </trkpt>
      <trkpt lat="47.50805" lon="6.7658">
        <ele>391</ele>
        <time>2016-07-28T14:56:11.000Z</time>
      </trkpt>
      <trkpt lat="47.50809" lon="6.76581">
        <ele>391</ele>
        <time>2016-07-28T14:56:13.000Z</time>
      </trkpt>
      <trkpt lat="47.5081" lon="6.76584">
        <ele>390</ele>
        <time>2016-07-28T14:56:14.000Z</time>
      </trkpt>
      <trkpt lat="47.50811" lon="6.76588">
        <ele>390</ele>
        <time>2016-07-28T14:56:15.000Z</time>
      </trkpt>
      <trkpt lat="47.50813" lon="6.76592">
        <ele>390</ele>
        <time>2016-07-28T14:56:16.000Z</time>
      </trkpt>
      <trkpt lat="47.50815" lon="6.76597">
        <ele>390</ele>
        <time>2016-07-28T14:56:17.000Z</time>
      </trkpt>
      <trkpt lat="47.50818" lon="6.76606">
        <ele>390</ele>
        <time>2016-07-28T14:56:18.000Z</time>
      </trkpt>
      <trkpt lat="47.50821" lon="6.76614">
        <ele>390</ele>
        <time>2016-07-28T14:56:19.000Z</time>
      </trkpt>
      <trkpt lat="47.50823" lon="6.7662">
        <ele>390</ele>
        <time>2016-07-28T14:56:20.000Z</time>
      </trkpt>
      <trkpt lat="47.50827" lon="6.76627">
        <ele>390</ele>
        <time>2016-07-28T14:56:21.000Z</time>
      </trkpt>
      <trkpt lat="47.5083" lon="6.76635">
        <ele>390</ele>
        <time>2016-07-28T14:56:22.000Z</time>
      </trkpt>
      <trkpt lat="47.50834" lon="6.76643">
        <ele>387</ele>
        <time>2016-07-28T14:56:23.000Z</time>
      </trkpt>
      <trkpt lat="47.50837" lon="6.7665">
        <ele>388</ele>
        <time>2016-07-28T14:56:24.000Z</time>
      </trkpt>
      <trkpt lat="47.50841" lon="6.76659">
        <ele>388</ele>
        <time>2016-07-28T14:56:25.000Z</time>
      </trkpt>
      <trkpt lat="47.50844" lon="6.76668">
        <ele>387</ele>
        <time>2016-07-28T14:56:26.000Z</time>
      </trkpt>
      <trkpt lat="47.50847" lon="6.76678">
        <ele>386</ele>
        <time>2016-07-28T14:56:27.000Z</time>
      </trkpt>
      <trkpt lat="47.50851" lon="6.76688">
        <ele>385</ele>
        <time>2016-07-28T14:56:28.000Z</time>
      </trkpt>
      <trkpt lat="47.50854" lon="6.76698">
        <ele>385</ele>
        <time>2016-07-28T14:56:29.000Z</time>
      </trkpt>
      <trkpt lat="47.50859" lon="6.76708">
        <ele>384</ele>
        <time>2016-07-28T14:56:30.000Z</time>
      </trkpt>
      <trkpt lat="47.50863" lon="6.76718">
        <ele>384</ele>
        <time>2016-07-28T14:56:31.000Z</time>
      </trkpt>
      <trkpt lat="47.50863" lon="6.76719">
        <ele>384</ele>
        <time>2016-07-28T14:56:31.104Z</time>
      </trkpt>
      <trkpt lat="47.50871" lon="6.76738">
        <ele>383</ele>
        <time>2016-07-28T14:56:33.000Z</time>
      </trkpt>
      <trkpt lat="47.50875" lon="6.76749">
        <ele>383</ele>
        <time>2016-07-28T14:56:34.000Z</time>
      </trkpt>
      <trkpt lat="47.50879" lon="6.76759">
        <ele>382</ele>
        <time>2016-07-28T14:56:35.000Z</time>
      </trkpt>
      <trkpt lat="47.50883" lon="6.76769">
        <ele>381</ele>
        <time>2016-07-28T14:56:36.000Z</time>
      </trkpt>
      <trkpt lat="47.50888" lon="6.7678">
        <ele>381</ele>
        <time>2016-07-28T14:56:37.000Z</time>
      </trkpt>
      <trkpt lat="47.50892" lon="6.7679">
        <ele>381</ele>
        <time>2016-07-28T14:56:38.000Z</time>
      </trkpt>
      <trkpt lat="47.50896" lon="6.76801">
        <ele>381</ele>
        <time>2016-07-28T14:56:39.000Z</time>
      </trkpt>
      <trkpt lat="47.509" lon="6.76812">
        <ele>381</ele>
        <time>2016-07-28T14:56:40.000Z</time>
      </trkpt>
      <trkpt lat="47.50905" lon="6.76823">
        <ele>381</ele>
        <time>2016-07-28T14:56:41.000Z</time>
      </trkpt>
      <trkpt lat="47.5091" lon="6.76833">
        <ele>380</ele>
        <time>2016-07-28T14:56:42.000Z</time>
      </trkpt>
      <trkpt lat="47.50915" lon="6.76845">
        <ele>380</ele>
        <time>2016-07-28T14:56:43.000Z</time>
      </trkpt>
      <trkpt lat="47.50921" lon="6.76856">
        <ele>379</ele>
        <time>2016-07-28T14:56:44.000Z</time>
      </trkpt>
      <trkpt lat="47.50926" lon="6.76865">
        <ele>378</ele>
        <time>2016-07-28T14:56:45.000Z</time>
      </trkpt>
      <trkpt lat="47.50932" lon="6.76874">
        <ele>378</ele>
        <time>2016-07-28T14:56:46.000Z</time>
      </trkpt>
      <trkpt lat="47.50939" lon="6.76881">
        <ele>378</ele>
        <time>2016-07-28T14:56:47.000Z</time>
      </trkpt>
      <trkpt lat="47.50945" lon="6.76888">
        <ele>378</ele>
        <time>2016-07-28T14:56:48.000Z</time>
      </trkpt>
      <trkpt lat="47.50952" lon="6.76896">
        <ele>377</ele>
        <time>2016-07-28T14:56:49.000Z</time>
      </trkpt>
      <trkpt lat="47.50959" lon="6.76905">
        <ele>377</ele>
        <time>2016-07-28T14:56:50.000Z</time>
      </trkpt>
      <trkpt lat="47.50964" lon="6.76914">
        <ele>377</ele>
        <time>2016-07-28T14:56:51.000Z</time>
      </trkpt>
      <trkpt lat="47.50968" lon="6.76924">
        <ele>374</ele>
        <time>2016-07-28T14:56:52.000Z</time>
      </trkpt>
      <trkpt lat="47.50973" lon="6.76932">
        <ele>374</ele>
        <time>2016-07-28T14:56:53.000Z</time>
      </trkpt>
      <trkpt lat="47.50979" lon="6.76938">
        <ele>374</ele>
        <time>2016-07-28T14:56:54.000Z</time>
      </trkpt>
      <trkpt lat="47.50986" lon="6.7694">
        <ele>374</ele>
        <time>2016-07-28T14:56:55.000Z</time>
      </trkpt>
      <trkpt lat="47.50993" lon="6.76939">
        <ele>374</ele>
        <time>2016-07-28T14:56:56.000Z</time>
      </trkpt>
      <trkpt lat="47.51" lon="6.76939">
        <ele>375</ele>
        <time>2016-07-28T14:56:57.000Z</time>
      </trkpt>
      <trkpt lat="47.51008" lon="6.76939">
        <ele>375</ele>
        <time>2016-07-28T14:56:58.000Z</time>
      </trkpt>
      <trkpt lat="47.51015" lon="6.76942">
        <ele>375</ele>
        <time>2016-07-28T14:56:59.000Z</time>
      </trkpt>
      <trkpt lat="47.51022" lon="6.76945">
        <ele>375</ele>
        <time>2016-07-28T14:57:00.000Z</time>
      </trkpt>
      <trkpt lat="47.51028" lon="6.76949">
        <ele>375</ele>
        <time>2016-07-28T14:57:01.000Z</time>
      </trkpt>
      <trkpt lat="47.51034" lon="6.76954">
        <ele>375</ele>
        <time>2016-07-28T14:57:02.000Z</time>
      </trkpt>
      <trkpt lat="47.5104" lon="6.76961">
        <ele>375</ele>
        <time>2016-07-28T14:57:03.000Z</time>
      </trkpt>
      <trkpt lat="47.51046" lon="6.76966">
        <ele>375</ele>
        <time>2016-07-28T14:57:04.000Z</time>
      </trkpt>
      <trkpt lat="47.51052" lon="6.7697">
        <ele>375</ele>
        <time>2016-07-28T14:57:05.000Z</time>
      </trkpt>
      <trkpt lat="47.51058" lon="6.76974">
        <ele>375</ele>
        <time>2016-07-28T14:57:06.000Z</time>
      </trkpt>
      <trkpt lat="47.51064" lon="6.76978">
        <ele>375</ele>
        <time>2016-07-28T14:57:06.999Z</time>
      </trkpt>
      <trkpt lat="47.5107" lon="6.76983">
        <ele>375</ele>
        <time>2016-07-28T14:57:08.000Z</time>
      </trkpt>
      <trkpt lat="47.51075" lon="6.76988">
        <ele>375</ele>
        <time>2016-07-28T14:57:09.000Z</time>
      </trkpt>
      <trkpt lat="47.5108" lon="6.76993">
        <ele>375</ele>
        <time>2016-07-28T14:57:10.001Z</time>
      </trkpt>
      <trkpt lat="47.51086" lon="6.76999">
        <ele>375</ele>
        <time>2016-07-28T14:57:11.000Z</time>
      </trkpt>
      <trkpt lat="47.51091" lon="6.77">
        <ele>375</ele>
        <time>2016-07-28T14:57:12.000Z</time>
      </trkpt>
      <trkpt lat="47.51096" lon="6.77005">
        <ele>375</ele>
        <time>2016-07-28T14:57:13.000Z</time>
      </trkpt>
      <trkpt lat="47.51101" lon="6.7701">
        <ele>375</ele>
        <time>2016-07-28T14:57:14.000Z</time>
      </trkpt>
      <trkpt lat="47.51107" lon="6.77014">
        <ele>375</ele>
        <time>2016-07-28T14:57:15.000Z</time>
      </trkpt>
      <trkpt lat="47.51112" lon="6.77019">
        <ele>375</ele>
        <time>2016-07-28T14:57:16.000Z</time>
      </trkpt>
      <trkpt lat="47.51117" lon="6.77023">
        <ele>375</ele>
        <time>2016-07-28T14:57:17.000Z</time>
      </trkpt>
      <trkpt lat="47.51122" lon="6.77027">
        <ele>375</ele>
        <time>2016-07-28T14:57:18.000Z</time>
      </trkpt>
      <trkpt lat="47.51127" lon="6.77031">
        <ele>375</ele>
        <time>2016-07-28T14:57:19.000Z</time>
      </trkpt>
      <trkpt lat="47.51132" lon="6.77035">
        <ele>375</ele>
        <time>2016-07-28T14:57:20.000Z</time>
      </trkpt>
      <trkpt lat="47.51136" lon="6.77039">
        <ele>375</ele>
        <time>2016-07-28T14:57:21.000Z</time>
      </trkpt>
      <trkpt lat="47.51141" lon="6.77043">
        <ele>375</ele>
        <time>2016-07-28T14:57:22.000Z</time>
      </trkpt>
      <trkpt lat="47.51146" lon="6.77051">
        <ele>376</ele>
        <time>2016-07-28T14:57:23.000Z</time>
      </trkpt>
      <trkpt lat="47.51151" lon="6.77057">
        <ele>376</ele>
        <time>2016-07-28T14:57:24.000Z</time>
      </trkpt>
      <trkpt lat="47.51155" lon="6.77062">
        <ele>376</ele>
        <time>2016-07-28T14:57:25.000Z</time>
      </trkpt>
      <trkpt lat="47.51159" lon="6.77067">
        <ele>376</ele>
        <time>2016-07-28T14:57:26.000Z</time>
      </trkpt>
      <trkpt lat="47.51163" lon="6.77072">
        <ele>377</ele>
        <time>2016-07-28T14:57:27.000Z</time>
      </trkpt>
      <trkpt lat="47.51167" lon="6.77078">
        <ele>377</ele>
        <time>2016-07-28T14:57:28.000Z</time>
      </trkpt>
      <trkpt lat="47.5117" lon="6.77083">
        <ele>378</ele>
        <time>2016-07-28T14:57:29.000Z</time>
      </trkpt>
      <trkpt lat="47.51174" lon="6.77088">
        <ele>378</ele>
        <time>2016-07-28T14:57:30.000Z</time>
      </trkpt>
      <trkpt lat="47.51177" lon="6.77094">
        <ele>378</ele>
        <time>2016-07-28T14:57:31.000Z</time>
      </trkpt>
      <trkpt lat="47.5118" lon="6.771">
        <ele>378</ele>
        <time>2016-07-28T14:57:32.000Z</time>
      </trkpt>
      <trkpt lat="47.51183" lon="6.77107">
        <ele>378</ele>
        <time>2016-07-28T14:57:33.000Z</time>
      </trkpt>
      <trkpt lat="47.51186" lon="6.77112">
        <ele>378</ele>
        <time>2016-07-28T14:57:34.000Z</time>
      </trkpt>
      <trkpt lat="47.51189" lon="6.77117">
        <ele>378</ele>
        <time>2016-07-28T14:57:35.000Z</time>
      </trkpt>
      <trkpt lat="47.51191" lon="6.77123">
        <ele>378</ele>
        <time>2016-07-28T14:57:36.000Z</time>
      </trkpt>
      <trkpt lat="47.51194" lon="6.77128">
        <ele>378</ele>
        <time>2016-07-28T14:57:37.001Z</time>
      </trkpt>
      <trkpt lat="47.51197" lon="6.77134">
        <ele>378</ele>
        <time>2016-07-28T14:57:38.000Z</time>
      </trkpt>
      <trkpt lat="47.512" lon="6.77139">
        <ele>378</ele>
        <time>2016-07-28T14:57:39.000Z</time>
      </trkpt>
      <trkpt lat="47.51202" lon="6.77144">
        <ele>378</ele>
        <time>2016-07-28T14:57:40.000Z</time>
      </trkpt>
      <trkpt lat="47.51204" lon="6.77147">
        <ele>378</ele>
        <time>2016-07-28T14:57:41.000Z</time>
      </trkpt>
      <trkpt lat="47.51207" lon="6.77152">
        <ele>378</ele>
        <time>2016-07-28T14:57:42.000Z</time>
      </trkpt>
      <trkpt lat="47.5121" lon="6.77157">
        <ele>378</ele>
        <time>2016-07-28T14:57:43.000Z</time>
      </trkpt>
      <trkpt lat="47.51213" lon="6.77161">
        <ele>378</ele>
        <time>2016-07-28T14:57:44.000Z</time>
      </trkpt>
      <trkpt lat="47.51215" lon="6.77166">
        <ele>378</ele>
        <time>2016-07-28T14:57:45.000Z</time>
      </trkpt>
      <trkpt lat="47.51218" lon="6.77171">
        <ele>376</ele>
        <time>2016-07-28T14:57:46.000Z</time>
      </trkpt>
      <trkpt lat="47.5122" lon="6.77177">
        <ele>376</ele>
        <time>2016-07-28T14:57:47.000Z</time>
      </trkpt>
      <trkpt lat="47.51222" lon="6.77182">
        <ele>376</ele>
        <time>2016-07-28T14:57:48.000Z</time>
      </trkpt>
      <trkpt lat="47.51225" lon="6.77187">
        <ele>376</ele>
        <time>2016-07-28T14:57:49.000Z</time>
      </trkpt>
      <trkpt lat="47.51227" lon="6.77192">
        <ele>376</ele>
        <time>2016-07-28T14:57:50.000Z</time>
      </trkpt>
      <trkpt lat="47.5123" lon="6.77197">
        <ele>376</ele>
        <time>2016-07-28T14:57:51.000Z</time>
      </trkpt>
      <trkpt lat="47.51233" lon="6.77202">
        <ele>376</ele>
        <time>2016-07-28T14:57:52.000Z</time>
      </trkpt>
      <trkpt lat="47.51236" lon="6.77207">
        <ele>376</ele>
        <time>2016-07-28T14:57:53.000Z</time>
      </trkpt>
      <trkpt lat="47.51238" lon="6.77212">
        <ele>376</ele>
        <time>2016-07-28T14:57:54.000Z</time>
      </trkpt>
      <trkpt lat="47.5124" lon="6.77216">
        <ele>376</ele>
        <time>2016-07-28T14:57:55.000Z</time>
      </trkpt>
      <trkpt lat="47.51243" lon="6.7722">
        <ele>376</ele>
        <time>2016-07-28T14:57:56.000Z</time>
      </trkpt>
      <trkpt lat="47.51245" lon="6.77226">
        <ele>376</ele>
        <time>2016-07-28T14:57:57.000Z</time>
      </trkpt>
      <trkpt lat="47.51247" lon="6.77231">
        <ele>377</ele>
        <time>2016-07-28T14:57:58.000Z</time>
      </trkpt>
      <trkpt lat="47.51249" lon="6.77236">
        <ele>377</ele>
        <time>2016-07-28T14:57:59.000Z</time>
      </trkpt>
      <trkpt lat="47.51251" lon="6.7724">
        <ele>379</ele>
        <time>2016-07-28T14:58:00.000Z</time>
      </trkpt>
      <trkpt lat="47.51254" lon="6.77245">
        <ele>379</ele>
        <time>2016-07-28T14:58:01.000Z</time>
      </trkpt>
      <trkpt lat="47.51257" lon="6.77249">
        <ele>379</ele>
        <time>2016-07-28T14:58:02.000Z</time>
      </trkpt>
      <trkpt lat="47.51263" lon="6.77252">
        <ele>378</ele>
        <time>2016-07-28T14:58:03.000Z</time>
      </trkpt>
      <trkpt lat="47.51267" lon="6.77256">
        <ele>378</ele>
        <time>2016-07-28T14:58:04.000Z</time>
      </trkpt>
      <trkpt lat="47.51271" lon="6.77258">
        <ele>377</ele>
        <time>2016-07-28T14:58:05.000Z</time>
      </trkpt>
      <trkpt lat="47.51275" lon="6.7726">
        <ele>377</ele>
        <time>2016-07-28T14:58:06.000Z</time>
      </trkpt>
      <trkpt lat="47.5128" lon="6.77264">
        <ele>377</ele>
        <time>2016-07-28T14:58:07.000Z</time>
      </trkpt>
      <trkpt lat="47.51284" lon="6.77266">
        <ele>377</ele>
        <time>2016-07-28T14:58:08.000Z</time>
      </trkpt>
      <trkpt lat="47.51289" lon="6.77267">
        <ele>377</ele>
        <time>2016-07-28T14:58:09.000Z</time>
      </trkpt>
      <trkpt lat="47.51294" lon="6.7727">
        <ele>377</ele>
        <time>2016-07-28T14:58:10.000Z</time>
      </trkpt>
      <trkpt lat="47.51298" lon="6.77272">
        <ele>377</ele>
        <time>2016-07-28T14:58:11.001Z</time>
      </trkpt>
      <trkpt lat="47.51304" lon="6.77275">
        <ele>377</ele>
        <time>2016-07-28T14:58:12.000Z</time>
      </trkpt>
      <trkpt lat="47.5131" lon="6.77279">
        <ele>377</ele>
        <time>2016-07-28T14:58:13.000Z</time>
      </trkpt>
      <trkpt lat="47.51315" lon="6.77282">
        <ele>377</ele>
        <time>2016-07-28T14:58:14.000Z</time>
      </trkpt>
      <trkpt lat="47.51322" lon="6.77284">
        <ele>377</ele>
        <time>2016-07-28T14:58:15.000Z</time>
      </trkpt>
      <trkpt lat="47.51328" lon="6.77283">
        <ele>378</ele>
        <time>2016-07-28T14:58:16.000Z</time>
      </trkpt>
      <trkpt lat="47.51334" lon="6.77283">
        <ele>378</ele>
        <time>2016-07-28T14:58:17.000Z</time>
      </trkpt>
      <trkpt lat="47.5134" lon="6.77279">
        <ele>378</ele>
        <time>2016-07-28T14:58:18.000Z</time>
      </trkpt>
      <trkpt lat="47.51346" lon="6.77273">
        <ele>378</ele>
        <time>2016-07-28T14:58:19.000Z</time>
      </trkpt>
      <trkpt lat="47.51353" lon="6.77267">
        <ele>378</ele>
        <time>2016-07-28T14:58:20.000Z</time>
      </trkpt>
      <trkpt lat="47.5136" lon="6.7726">
        <ele>378</ele>
        <time>2016-07-28T14:58:21.000Z</time>
      </trkpt>
      <trkpt lat="47.51367" lon="6.77254">
        <ele>378</ele>
        <time>2016-07-28T14:58:22.000Z</time>
      </trkpt>
      <trkpt lat="47.51375" lon="6.77248">
        <ele>376</ele>
        <time>2016-07-28T14:58:23.000Z</time>
      </trkpt>
      <trkpt lat="47.51383" lon="6.77243">
        <ele>376</ele>
        <time>2016-07-28T14:58:24.000Z</time>
      </trkpt>
      <trkpt lat="47.51392" lon="6.77237">
        <ele>376</ele>
        <time>2016-07-28T14:58:25.000Z</time>
      </trkpt>
      <trkpt lat="47.51401" lon="6.77232">
        <ele>376</ele>
        <time>2016-07-28T14:58:26.000Z</time>
      </trkpt>
      <trkpt lat="47.5141" lon="6.77228">
        <ele>376</ele>
        <time>2016-07-28T14:58:27.000Z</time>
      </trkpt>
      <trkpt lat="47.51418" lon="6.77223">
        <ele>375</ele>
        <time>2016-07-28T14:58:28.000Z</time>
      </trkpt>
      <trkpt lat="47.51426" lon="6.77219">
        <ele>375</ele>
        <time>2016-07-28T14:58:29.000Z</time>
      </trkpt>
      <trkpt lat="47.51434" lon="6.77215">
        <ele>375</ele>
        <time>2016-07-28T14:58:30.000Z</time>
      </trkpt>
      <trkpt lat="47.51442" lon="6.77211">
        <ele>375</ele>
        <time>2016-07-28T14:58:31.000Z</time>
      </trkpt>
      <trkpt lat="47.5145" lon="6.77208">
        <ele>375</ele>
        <time>2016-07-28T14:58:32.000Z</time>
      </trkpt>
      <trkpt lat="47.51457" lon="6.77205">
        <ele>375</ele>
        <time>2016-07-28T14:58:33.000Z</time>
      </trkpt>
      <trkpt lat="47.51464" lon="6.77203">
        <ele>375</ele>
        <time>2016-07-28T14:58:34.000Z</time>
      </trkpt>
      <trkpt lat="47.51469" lon="6.77201">
        <ele>375</ele>
        <time>2016-07-28T14:58:35.000Z</time>
      </trkpt>
      <trkpt lat="47.51474" lon="6.772">
        <ele>375</ele>
        <time>2016-07-28T14:58:36.000Z</time>
      </trkpt>
      <trkpt lat="47.51478" lon="6.77203">
        <ele>375</ele>
        <time>2016-07-28T14:58:37.000Z</time>
      </trkpt>
      <trkpt lat="47.51481" lon="6.77209">
        <ele>375</ele>
        <time>2016-07-28T14:58:38.000Z</time>
      </trkpt>
      <trkpt lat="47.51483" lon="6.77217">
        <ele>375</ele>
        <time>2016-07-28T14:58:39.000Z</time>
      </trkpt>
      <trkpt lat="47.51484" lon="6.77224">
        <ele>375</ele>
        <time>2016-07-28T14:58:40.000Z</time>
      </trkpt>
      <trkpt lat="47.51484" lon="6.77231">
        <ele>375</ele>
        <time>2016-07-28T14:58:41.000Z</time>
      </trkpt>
      <trkpt lat="47.51485" lon="6.77239">
        <ele>375</ele>
        <time>2016-07-28T14:58:42.000Z</time>
      </trkpt>
      <trkpt lat="47.51486" lon="6.77247">
        <ele>376</ele>
        <time>2016-07-28T14:58:43.000Z</time>
      </trkpt>
      <trkpt lat="47.51486" lon="6.77254">
        <ele>376</ele>
        <time>2016-07-28T14:58:44.000Z</time>
      </trkpt>
      <trkpt lat="47.51485" lon="6.77261">
        <ele>376</ele>
        <time>2016-07-28T14:58:45.000Z</time>
      </trkpt>
      <trkpt lat="47.51486" lon="6.77268">
        <ele>376</ele>
        <time>2016-07-28T14:58:46.000Z</time>
      </trkpt>
      <trkpt lat="47.51487" lon="6.77276">
        <ele>377</ele>
        <time>2016-07-28T14:58:47.000Z</time>
      </trkpt>
      <trkpt lat="47.51488" lon="6.77283">
        <ele>377</ele>
        <time>2016-07-28T14:58:48.000Z</time>
      </trkpt>
      <trkpt lat="47.51489" lon="6.7729">
        <ele>377</ele>
        <time>2016-07-28T14:58:49.000Z</time>
      </trkpt>
      <trkpt lat="47.51489" lon="6.77297">
        <ele>377</ele>
        <time>2016-07-28T14:58:50.000Z</time>
      </trkpt>
      <trkpt lat="47.5149" lon="6.77304">
        <ele>377</ele>
        <time>2016-07-28T14:58:51.000Z</time>
      </trkpt>
      <trkpt lat="47.51492" lon="6.77309">
        <ele>377</ele>
        <time>2016-07-28T14:58:52.000Z</time>
      </trkpt>
      <trkpt lat="47.51495" lon="6.77313">
        <ele>377</ele>
        <time>2016-07-28T14:58:53.000Z</time>
      </trkpt>
      <trkpt lat="47.51499" lon="6.77317">
        <ele>377</ele>
        <time>2016-07-28T14:58:54.000Z</time>
      </trkpt>
      <trkpt lat="47.51503" lon="6.77321">
        <ele>378</ele>
        <time>2016-07-28T14:58:55.000Z</time>
      </trkpt>
      <trkpt lat="47.51506" lon="6.77326">
        <ele>378</ele>
        <time>2016-07-28T14:58:56.000Z</time>
      </trkpt>
      <trkpt lat="47.51509" lon="6.7733">
        <ele>378</ele>
        <time>2016-07-28T14:58:57.000Z</time>
      </trkpt>
      <trkpt lat="47.51513" lon="6.77333">
        <ele>378</ele>
        <time>2016-07-28T14:58:58.000Z</time>
      </trkpt>
      <trkpt lat="47.51517" lon="6.77337">
        <ele>379</ele>
        <time>2016-07-28T14:58:59.000Z</time>
      </trkpt>
      <trkpt lat="47.5152" lon="6.7734">
        <ele>379</ele>
        <time>2016-07-28T14:59:00.000Z</time>
      </trkpt>
      <trkpt lat="47.51523" lon="6.77343">
        <ele>380</ele>
        <time>2016-07-28T14:59:01.000Z</time>
      </trkpt>
      <trkpt lat="47.51527" lon="6.77347">
        <ele>380</ele>
        <time>2016-07-28T14:59:02.000Z</time>
      </trkpt>
      <trkpt lat="47.51529" lon="6.77351">
        <ele>380</ele>
        <time>2016-07-28T14:59:03.000Z</time>
      </trkpt>
      <trkpt lat="47.51532" lon="6.77354">
        <ele>380</ele>
        <time>2016-07-28T14:59:04.000Z</time>
      </trkpt>
      <trkpt lat="47.51535" lon="6.77358">
        <ele>380</ele>
        <time>2016-07-28T14:59:05.000Z</time>
      </trkpt>
      <trkpt lat="47.51538" lon="6.77361">
        <ele>380</ele>
        <time>2016-07-28T14:59:06.000Z</time>
      </trkpt>
      <trkpt lat="47.51541" lon="6.77365">
        <ele>380</ele>
        <time>2016-07-28T14:59:07.000Z</time>
      </trkpt>
      <trkpt lat="47.51544" lon="6.77368">
        <ele>380</ele>
        <time>2016-07-28T14:59:08.000Z</time>
      </trkpt>
      <trkpt lat="47.51546" lon="6.77371">
        <ele>381</ele>
        <time>2016-07-28T14:59:09.000Z</time>
      </trkpt>
      <trkpt lat="47.51549" lon="6.77374">
        <ele>381</ele>
        <time>2016-07-28T14:59:10.000Z</time>
      </trkpt>
      <trkpt lat="47.51552" lon="6.77378">
        <ele>381</ele>
        <time>2016-07-28T14:59:11.000Z</time>
      </trkpt>
      <trkpt lat="47.51554" lon="6.77381">
        <ele>381</ele>
        <time>2016-07-28T14:59:12.000Z</time>
      </trkpt>
      <trkpt lat="47.51557" lon="6.77385">
        <ele>381</ele>
        <time>2016-07-28T14:59:13.000Z</time>
      </trkpt>
      <trkpt lat="47.5156" lon="6.77388">
        <ele>381</ele>
        <time>2016-07-28T14:59:14.000Z</time>
      </trkpt>
      <trkpt lat="47.51562" lon="6.77392">
        <ele>381</ele>
        <time>2016-07-28T14:59:14.999Z</time>
      </trkpt>
      <trkpt lat="47.51566" lon="6.77395">
        <ele>381</ele>
        <time>2016-07-28T14:59:16.000Z</time>
      </trkpt>
      <trkpt lat="47.51569" lon="6.77399">
        <ele>381</ele>
        <time>2016-07-28T14:59:17.000Z</time>
      </trkpt>
      <trkpt lat="47.51571" lon="6.77403">
        <ele>382</ele>
        <time>2016-07-28T14:59:18.000Z</time>
      </trkpt>
      <trkpt lat="47.51574" lon="6.77406">
        <ele>382</ele>
        <time>2016-07-28T14:59:19.000Z</time>
      </trkpt>
      <trkpt lat="47.51577" lon="6.77409">
        <ele>382</ele>
        <time>2016-07-28T14:59:20.000Z</time>
      </trkpt>
      <trkpt lat="47.51579" lon="6.77412">
        <ele>382</ele>
        <time>2016-07-28T14:59:21.000Z</time>
      </trkpt>
      <trkpt lat="47.51582" lon="6.77415">
        <ele>383</ele>
        <time>2016-07-28T14:59:22.000Z</time>
      </trkpt>
      <trkpt lat="47.51585" lon="6.77418">
        <ele>383</ele>
        <time>2016-07-28T14:59:23.000Z</time>
      </trkpt>
      <trkpt lat="47.51587" lon="6.77421">
        <ele>384</ele>
        <time>2016-07-28T14:59:24.000Z</time>
      </trkpt>
      <trkpt lat="47.5159" lon="6.77424">
        <ele>384</ele>
        <time>2016-07-28T14:59:25.000Z</time>
      </trkpt>
      <trkpt lat="47.51593" lon="6.77428">
        <ele>384</ele>
        <time>2016-07-28T14:59:26.000Z</time>
      </trkpt>
      <trkpt lat="47.51595" lon="6.77431">
        <ele>384</ele>
        <time>2016-07-28T14:59:27.001Z</time>
      </trkpt>
      <trkpt lat="47.51598" lon="6.77433">
        <ele>385</ele>
        <time>2016-07-28T14:59:28.000Z</time>
      </trkpt>
      <trkpt lat="47.516" lon="6.77436">
        <ele>385</ele>
        <time>2016-07-28T14:59:29.000Z</time>
      </trkpt>
      <trkpt lat="47.51602" lon="6.7744">
        <ele>385</ele>
        <time>2016-07-28T14:59:30.000Z</time>
      </trkpt>
      <trkpt lat="47.51604" lon="6.77443">
        <ele>385</ele>
        <time>2016-07-28T14:59:31.000Z</time>
      </trkpt>
      <trkpt lat="47.51605" lon="6.77446">
        <ele>385</ele>
        <time>2016-07-28T14:59:32.000Z</time>
      </trkpt>
      <trkpt lat="47.51607" lon="6.77449">
        <ele>385</ele>
        <time>2016-07-28T14:59:33.000Z</time>
      </trkpt>
      <trkpt lat="47.51608" lon="6.77453">
        <ele>385</ele>
        <time>2016-07-28T14:59:34.000Z</time>
      </trkpt>
      <trkpt lat="47.5161" lon="6.77456">
        <ele>385</ele>
        <time>2016-07-28T14:59:35.000Z</time>
      </trkpt>
      <trkpt lat="47.51612" lon="6.77459">
        <ele>386</ele>
        <time>2016-07-28T14:59:36.000Z</time>
      </trkpt>
      <trkpt lat="47.51615" lon="6.77462">
        <ele>386</ele>
        <time>2016-07-28T14:59:37.000Z</time>
      </trkpt>
      <trkpt lat="47.51617" lon="6.77465">
        <ele>386</ele>
        <time>2016-07-28T14:59:38.000Z</time>
      </trkpt>
      <trkpt lat="47.51619" lon="6.77467">
        <ele>386</ele>
        <time>2016-07-28T14:59:39.000Z</time>
      </trkpt>
      <trkpt lat="47.51622" lon="6.7747">
        <ele>386</ele>
        <time>2016-07-28T14:59:40.001Z</time>
      </trkpt>
      <trkpt lat="47.51625" lon="6.77474">
        <ele>386</ele>
        <time>2016-07-28T14:59:41.000Z</time>
      </trkpt>
      <trkpt lat="47.51627" lon="6.77477">
        <ele>386</ele>
        <time>2016-07-28T14:59:42.000Z</time>
      </trkpt>
      <trkpt lat="47.5163" lon="6.7748">
        <ele>386</ele>
        <time>2016-07-28T14:59:43.000Z</time>
      </trkpt>
      <trkpt lat="47.51633" lon="6.77484">
        <ele>386</ele>
        <time>2016-07-28T14:59:45.000Z</time>
      </trkpt>
      <trkpt lat="47.51635" lon="6.77485">
        <ele>386</ele>
        <time>2016-07-28T14:59:46.000Z</time>
      </trkpt>
      <trkpt lat="47.51637" lon="6.77487">
        <ele>387</ele>
        <time>2016-07-28T14:59:47.000Z</time>
      </trkpt>
      <trkpt lat="47.51639" lon="6.77489">
        <ele>387</ele>
        <time>2016-07-28T14:59:48.000Z</time>
      </trkpt>
      <trkpt lat="47.51641" lon="6.77491">
        <ele>387</ele>
        <time>2016-07-28T14:59:49.000Z</time>
      </trkpt>
      <trkpt lat="47.51643" lon="6.77494">
        <ele>387</ele>
        <time>2016-07-28T14:59:50.000Z</time>
      </trkpt>
      <trkpt lat="47.51646" lon="6.77496">
        <ele>387</ele>
        <time>2016-07-28T14:59:51.000Z</time>
      </trkpt>
      <trkpt lat="47.51648" lon="6.77498">
        <ele>387</ele>
        <time>2016-07-28T14:59:52.000Z</time>
      </trkpt>
      <trkpt lat="47.51651" lon="6.77501">
        <ele>388</ele>
        <time>2016-07-28T14:59:53.000Z</time>
      </trkpt>
      <trkpt lat="47.51654" lon="6.77504">
        <ele>388</ele>
        <time>2016-07-28T14:59:54.000Z</time>
      </trkpt>
      <trkpt lat="47.51656" lon="6.77507">
        <ele>388</ele>
        <time>2016-07-28T14:59:55.000Z</time>
      </trkpt>
      <trkpt lat="47.51659" lon="6.7751">
        <ele>388</ele>
        <time>2016-07-28T14:59:56.000Z</time>
      </trkpt>
      <trkpt lat="47.51661" lon="6.77513">
        <ele>388</ele>
        <time>2016-07-28T14:59:57.000Z</time>
      </trkpt>
      <trkpt lat="47.51664" lon="6.77515">
        <ele>388</ele>
        <time>2016-07-28T14:59:58.000Z</time>
      </trkpt>
      <trkpt lat="47.51666" lon="6.77518">
        <ele>388</ele>
        <time>2016-07-28T14:59:59.000Z</time>
      </trkpt>
      <trkpt lat="47.51669" lon="6.77521">
        <ele>389</ele>
        <time>2016-07-28T15:00:00.000Z</time>
      </trkpt>
      <trkpt lat="47.51671" lon="6.77524">
        <ele>390</ele>
        <time>2016-07-28T15:00:01.000Z</time>
      </trkpt>
      <trkpt lat="47.51673" lon="6.77527">
        <ele>390</ele>
        <time>2016-07-28T15:00:02.000Z</time>
      </trkpt>
      <trkpt lat="47.51676" lon="6.7753">
        <ele>390</ele>
        <time>2016-07-28T15:00:03.000Z</time>
      </trkpt>
      <trkpt lat="47.51678" lon="6.77533">
        <ele>390</ele>
        <time>2016-07-28T15:00:04.000Z</time>
      </trkpt>
      <trkpt lat="47.5168" lon="6.77536">
        <ele>390</ele>
        <time>2016-07-28T15:00:05.000Z</time>
      </trkpt>
      <trkpt lat="47.51683" lon="6.77539">
        <ele>390</ele>
        <time>2016-07-28T15:00:06.000Z</time>
      </trkpt>
      <trkpt lat="47.51685" lon="6.7754">
        <ele>390</ele>
        <time>2016-07-28T15:00:07.000Z</time>
      </trkpt>
      <trkpt lat="47.51687" lon="6.77542">
        <ele>390</ele>
        <time>2016-07-28T15:00:08.000Z</time>
      </trkpt>
      <trkpt lat="47.51689" lon="6.77543">
        <ele>390</ele>
        <time>2016-07-28T15:00:09.000Z</time>
      </trkpt>
      <trkpt lat="47.51691" lon="6.77544">
        <ele>390</ele>
        <time>2016-07-28T15:00:10.000Z</time>
      </trkpt>
      <trkpt lat="47.51694" lon="6.77547">
        <ele>390</ele>
        <time>2016-07-28T15:00:11.000Z</time>
      </trkpt>
      <trkpt lat="47.51696" lon="6.7755">
        <ele>390</ele>
        <time>2016-07-28T15:00:12.000Z</time>
      </trkpt>
      <trkpt lat="47.51698" lon="6.77553">
        <ele>390</ele>
        <time>2016-07-28T15:00:13.000Z</time>
      </trkpt>
      <trkpt lat="47.517" lon="6.77556">
        <ele>390</ele>
        <time>2016-07-28T15:00:14.000Z</time>
      </trkpt>
      <trkpt lat="47.51702" lon="6.77558">
        <ele>390</ele>
        <time>2016-07-28T15:00:15.000Z</time>
      </trkpt>
      <trkpt lat="47.51704" lon="6.7756">
        <ele>390</ele>
        <time>2016-07-28T15:00:16.000Z</time>
      </trkpt>
      <trkpt lat="47.51707" lon="6.77562">
        <ele>390</ele>
        <time>2016-07-28T15:00:17.000Z</time>
      </trkpt>
      <trkpt lat="47.51709" lon="6.77563">
        <ele>390</ele>
        <time>2016-07-28T15:00:18.000Z</time>
      </trkpt>
      <trkpt lat="47.51713" lon="6.77562">
        <ele>390</ele>
        <time>2016-07-28T15:00:19.000Z</time>
      </trkpt>
      <trkpt lat="47.51716" lon="6.7756">
        <ele>390</ele>
        <time>2016-07-28T15:00:20.000Z</time>
      </trkpt>
      <trkpt lat="47.51718" lon="6.77556">
        <ele>390</ele>
        <time>2016-07-28T15:00:21.000Z</time>
      </trkpt>
      <trkpt lat="47.5172" lon="6.77551">
        <ele>390</ele>
        <time>2016-07-28T15:00:22.000Z</time>
      </trkpt>
      <trkpt lat="47.51721" lon="6.77545">
        <ele>390</ele>
        <time>2016-07-28T15:00:23.000Z</time>
      </trkpt>
      <trkpt lat="47.51722" lon="6.77539">
        <ele>390</ele>
        <time>2016-07-28T15:00:24.000Z</time>
      </trkpt>
      <trkpt lat="47.51723" lon="6.77533">
        <ele>390</ele>
        <time>2016-07-28T15:00:25.000Z</time>
      </trkpt>
      <trkpt lat="47.51724" lon="6.77527">
        <ele>390</ele>
        <time>2016-07-28T15:00:26.000Z</time>
      </trkpt>
      <trkpt lat="47.51725" lon="6.7752">
        <ele>390</ele>
        <time>2016-07-28T15:00:27.000Z</time>
      </trkpt>
      <trkpt lat="47.51726" lon="6.77513">
        <ele>390</ele>
        <time>2016-07-28T15:00:28.000Z</time>
      </trkpt>
      <trkpt lat="47.51727" lon="6.77507">
        <ele>390</ele>
        <time>2016-07-28T15:00:29.000Z</time>
      </trkpt>
      <trkpt lat="47.51728" lon="6.775">
        <ele>390</ele>
        <time>2016-07-28T15:00:30.000Z</time>
      </trkpt>
      <trkpt lat="47.51729" lon="6.77494">
        <ele>389</ele>
        <time>2016-07-28T15:00:31.000Z</time>
      </trkpt>
      <trkpt lat="47.5173" lon="6.77488">
        <ele>389</ele>
        <time>2016-07-28T15:00:32.000Z</time>
      </trkpt>
      <trkpt lat="47.51731" lon="6.77482">
        <ele>389</ele>
        <time>2016-07-28T15:00:33.000Z</time>
      </trkpt>
      <trkpt lat="47.51733" lon="6.77478">
        <ele>389</ele>
        <time>2016-07-28T15:00:34.000Z</time>
      </trkpt>
      <trkpt lat="47.51736" lon="6.77475">
        <ele>389</ele>
        <time>2016-07-28T15:00:35.000Z</time>
      </trkpt>
      <trkpt lat="47.5174" lon="6.77474">
        <ele>389</ele>
        <time>2016-07-28T15:00:36.000Z</time>
      </trkpt>
      <trkpt lat="47.51744" lon="6.77475">
        <ele>389</ele>
        <time>2016-07-28T15:00:37.000Z</time>
      </trkpt>
      <trkpt lat="47.51748" lon="6.77476">
        <ele>389</ele>
        <time>2016-07-28T15:00:38.000Z</time>
      </trkpt>
      <trkpt lat="47.51753" lon="6.77477">
        <ele>389</ele>
        <time>2016-07-28T15:00:39.000Z</time>
      </trkpt>
      <trkpt lat="47.51757" lon="6.77478">
        <ele>389</ele>
        <time>2016-07-28T15:00:40.000Z</time>
      </trkpt>
      <trkpt lat="47.51761" lon="6.77479">
        <ele>389</ele>
        <time>2016-07-28T15:00:41.000Z</time>
      </trkpt>
      <trkpt lat="47.51765" lon="6.77479">
        <ele>389</ele>
        <time>2016-07-28T15:00:42.000Z</time>
      </trkpt>
      <trkpt lat="47.51769" lon="6.7748">
        <ele>388</ele>
        <time>2016-07-28T15:00:43.000Z</time>
      </trkpt>
      <trkpt lat="47.51773" lon="6.77481">
        <ele>388</ele>
        <time>2016-07-28T15:00:44.001Z</time>
      </trkpt>
      <trkpt lat="47.51779" lon="6.77481">
        <ele>388</ele>
        <time>2016-07-28T15:00:45.000Z</time>
      </trkpt>
      <trkpt lat="47.51784" lon="6.77483">
        <ele>388</ele>
        <time>2016-07-28T15:00:46.000Z</time>
      </trkpt>
      <trkpt lat="47.51788" lon="6.77485">
        <ele>388</ele>
        <time>2016-07-28T15:00:47.000Z</time>
      </trkpt>
      <trkpt lat="47.51791" lon="6.77486">
        <ele>388</ele>
        <time>2016-07-28T15:00:48.001Z</time>
      </trkpt>
      <trkpt lat="47.51795" lon="6.77489">
        <ele>388</ele>
        <time>2016-07-28T15:00:49.000Z</time>
      </trkpt>
      <trkpt lat="47.51799" lon="6.77489">
        <ele>388</ele>
        <time>2016-07-28T15:00:50.000Z</time>
      </trkpt>
      <trkpt lat="47.51803" lon="6.77488">
        <ele>388</ele>
        <time>2016-07-28T15:00:51.000Z</time>
      </trkpt>
      <trkpt lat="47.51807" lon="6.77487">
        <ele>388</ele>
        <time>2016-07-28T15:00:52.000Z</time>
      </trkpt>
      <trkpt lat="47.51806" lon="6.7748">
        <ele>388</ele>
        <time>2016-07-28T15:00:53.000Z</time>
      </trkpt>
      <trkpt lat="47.51806" lon="6.77476">
        <ele>388</ele>
        <time>2016-07-28T15:00:54.000Z</time>
      </trkpt>
      <trkpt lat="47.51806" lon="6.7747">
        <ele>388</ele>
        <time>2016-07-28T15:00:55.000Z</time>
      </trkpt>
      <trkpt lat="47.51806" lon="6.77465">
        <ele>388</ele>
        <time>2016-07-28T15:00:56.000Z</time>
      </trkpt>
      <trkpt lat="47.51805" lon="6.77459">
        <ele>388</ele>
        <time>2016-07-28T15:00:58.000Z</time>
      </trkpt>
      <trkpt lat="47.51804" lon="6.77456">
        <ele>388</ele>
        <time>2016-07-28T15:00:59.000Z</time>
      </trkpt>
      <trkpt lat="47.51802" lon="6.7745">
        <ele>388</ele>
        <time>2016-07-28T15:01:03.000Z</time>
      </trkpt>
      <trkpt lat="47.51801" lon="6.7745">
        <ele>388</ele>
        <time>2016-07-28T15:01:04.000Z</time>
      </trkpt>
      <trkpt lat="47.51799" lon="6.77452">
        <ele>388</ele>
        <time>2016-07-28T15:02:05.000Z</time>
      </trkpt>
    </trkseg>
  </trk>
</gpx>